<?xml version="1.0" encoding="UTF-8" standalone="no" ?>
<gpx xmlns="http://www.topografix.com/GPX/1/1" xmlns:xsi="http://www.w3.org/2001/XMLSchema-instance" xsi:schemaLocation="http://www.topografix.com/GPX/1/1 http://www.topografix.com/GPX/1/1/gpx.xsd" version="1.1" creator="VisuGPX - https://www.visugpx.com">
  <metadata>
    <name>Grenoble Trail - Fort Saint Eynard</name>
  </metadata>
  <trk>
    <name><![CDATA[Grenoble Trail - Fort Saint Eynard]]></name>
    <trkseg>
      <trkpt lat="45.19627" lon="5.74003">
        <ele>213</ele>
        <time>2021-10-16T03:03:46.000Z</time>
      </trkpt>
      <trkpt lat="45.19626" lon="5.74001">
        <ele>213</ele>
        <time>2021-10-16T03:03:47.000Z</time>
      </trkpt>
      <trkpt lat="45.19631" lon="5.73994">
        <ele>213.39999389648</ele>
        <time>2021-10-16T03:03:52.000Z</time>
      </trkpt>
      <trkpt lat="45.19632" lon="5.73993">
        <ele>213.39999389648</ele>
        <time>2021-10-16T03:03:53.000Z</time>
      </trkpt>
      <trkpt lat="45.19632" lon="5.73993">
        <ele>213.39999389648</ele>
        <time>2021-10-16T03:03:54.000Z</time>
      </trkpt>
      <trkpt lat="45.1963" lon="5.73991">
        <ele>213.19999694824</ele>
        <time>2021-10-16T03:04:01.000Z</time>
      </trkpt>
      <trkpt lat="45.1963" lon="5.73991">
        <ele>213.19999694824</ele>
        <time>2021-10-16T03:04:02.000Z</time>
      </trkpt>
      <trkpt lat="45.19631" lon="5.73987">
        <ele>213</ele>
        <time>2021-10-16T03:04:05.000Z</time>
      </trkpt>
      <trkpt lat="45.19632" lon="5.73986">
        <ele>213</ele>
        <time>2021-10-16T03:04:06.000Z</time>
      </trkpt>
      <trkpt lat="45.19632" lon="5.73984">
        <ele>213</ele>
        <time>2021-10-16T03:04:08.000Z</time>
      </trkpt>
      <trkpt lat="45.1963" lon="5.73984">
        <ele>213.19999694824</ele>
        <time>2021-10-16T03:04:10.000Z</time>
      </trkpt>
      <trkpt lat="45.19627" lon="5.73982">
        <ele>212.39999389648</ele>
        <time>2021-10-16T03:04:14.000Z</time>
      </trkpt>
      <trkpt lat="45.19628" lon="5.73979">
        <ele>212</ele>
        <time>2021-10-16T03:04:17.000Z</time>
      </trkpt>
      <trkpt lat="45.19627" lon="5.73976">
        <ele>210.80000305176</ele>
        <time>2021-10-16T03:04:21.000Z</time>
      </trkpt>
      <trkpt lat="45.19626" lon="5.73976">
        <ele>209.80000305176</ele>
        <time>2021-10-16T03:04:24.000Z</time>
      </trkpt>
      <trkpt lat="45.19625" lon="5.73976">
        <ele>209.80000305176</ele>
        <time>2021-10-16T03:04:25.000Z</time>
      </trkpt>
      <trkpt lat="45.19626" lon="5.73975">
        <ele>209.80000305176</ele>
        <time>2021-10-16T03:04:26.000Z</time>
      </trkpt>
      <trkpt lat="45.19628" lon="5.73975">
        <ele>209.60000610352</ele>
        <time>2021-10-16T03:04:27.000Z</time>
      </trkpt>
      <trkpt lat="45.19629" lon="5.73974">
        <ele>209.60000610352</ele>
        <time>2021-10-16T03:04:28.000Z</time>
      </trkpt>
      <trkpt lat="45.1963" lon="5.73978">
        <ele>208.39999389648</ele>
        <time>2021-10-16T03:04:30.000Z</time>
      </trkpt>
      <trkpt lat="45.1963" lon="5.7398">
        <ele>208.19999694824</ele>
        <time>2021-10-16T03:04:31.000Z</time>
      </trkpt>
      <trkpt lat="45.19629" lon="5.73981">
        <ele>207.60000610352</ele>
        <time>2021-10-16T03:04:32.000Z</time>
      </trkpt>
      <trkpt lat="45.19629" lon="5.73982">
        <ele>207.19999694824</ele>
        <time>2021-10-16T03:04:33.000Z</time>
      </trkpt>
      <trkpt lat="45.19629" lon="5.73985">
        <ele>206.80000305176</ele>
        <time>2021-10-16T03:04:35.000Z</time>
      </trkpt>
      <trkpt lat="45.19627" lon="5.73986">
        <ele>206.80000305176</ele>
        <time>2021-10-16T03:04:36.000Z</time>
      </trkpt>
      <trkpt lat="45.1962" lon="5.73984">
        <ele>206.80000305176</ele>
        <time>2021-10-16T03:04:40.000Z</time>
      </trkpt>
      <trkpt lat="45.19623" lon="5.73984">
        <ele>206.80000305176</ele>
        <time>2021-10-16T03:04:41.000Z</time>
      </trkpt>
      <trkpt lat="45.19629" lon="5.73985">
        <ele>206.80000305176</ele>
        <time>2021-10-16T03:04:43.000Z</time>
      </trkpt>
      <trkpt lat="45.19634" lon="5.73981">
        <ele>207</ele>
        <time>2021-10-16T03:04:45.000Z</time>
      </trkpt>
      <trkpt lat="45.19636" lon="5.73982">
        <ele>206.60000610352</ele>
        <time>2021-10-16T03:04:46.000Z</time>
      </trkpt>
      <trkpt lat="45.1964" lon="5.73979">
        <ele>206.80000305176</ele>
        <time>2021-10-16T03:04:48.000Z</time>
      </trkpt>
      <trkpt lat="45.19642" lon="5.73978">
        <ele>206.80000305176</ele>
        <time>2021-10-16T03:04:49.000Z</time>
      </trkpt>
      <trkpt lat="45.19645" lon="5.73979">
        <ele>207.19999694824</ele>
        <time>2021-10-16T03:04:50.000Z</time>
      </trkpt>
      <trkpt lat="45.19647" lon="5.73978">
        <ele>207.39999389648</ele>
        <time>2021-10-16T03:04:51.000Z</time>
      </trkpt>
      <trkpt lat="45.19651" lon="5.73976">
        <ele>207.39999389648</ele>
        <time>2021-10-16T03:04:53.000Z</time>
      </trkpt>
      <trkpt lat="45.19653" lon="5.73975">
        <ele>207.39999389648</ele>
        <time>2021-10-16T03:04:54.000Z</time>
      </trkpt>
      <trkpt lat="45.19657" lon="5.7397">
        <ele>207.39999389648</ele>
        <time>2021-10-16T03:04:56.000Z</time>
      </trkpt>
      <trkpt lat="45.1966" lon="5.7396">
        <ele>207</ele>
        <time>2021-10-16T03:04:59.000Z</time>
      </trkpt>
      <trkpt lat="45.1966" lon="5.73956">
        <ele>207</ele>
        <time>2021-10-16T03:05:00.000Z</time>
      </trkpt>
      <trkpt lat="45.19661" lon="5.73953">
        <ele>207</ele>
        <time>2021-10-16T03:05:01.000Z</time>
      </trkpt>
      <trkpt lat="45.19668" lon="5.73946">
        <ele>207.19999694824</ele>
        <time>2021-10-16T03:05:05.000Z</time>
      </trkpt>
      <trkpt lat="45.19673" lon="5.73949">
        <ele>207</ele>
        <time>2021-10-16T03:05:08.000Z</time>
      </trkpt>
      <trkpt lat="45.19674" lon="5.73955">
        <ele>207</ele>
        <time>2021-10-16T03:05:10.000Z</time>
      </trkpt>
      <trkpt lat="45.19677" lon="5.73968">
        <ele>207</ele>
        <time>2021-10-16T03:05:14.000Z</time>
      </trkpt>
      <trkpt lat="45.19677" lon="5.73971">
        <ele>207</ele>
        <time>2021-10-16T03:05:15.000Z</time>
      </trkpt>
      <trkpt lat="45.19683" lon="5.73993">
        <ele>207</ele>
        <time>2021-10-16T03:05:21.000Z</time>
      </trkpt>
      <trkpt lat="45.19685" lon="5.74005">
        <ele>207</ele>
        <time>2021-10-16T03:05:25.000Z</time>
      </trkpt>
      <trkpt lat="45.19689" lon="5.74016">
        <ele>206.80000305176</ele>
        <time>2021-10-16T03:05:28.000Z</time>
      </trkpt>
      <trkpt lat="45.19692" lon="5.74024">
        <ele>206.80000305176</ele>
        <time>2021-10-16T03:05:31.000Z</time>
      </trkpt>
      <trkpt lat="45.19696" lon="5.74034">
        <ele>206.80000305176</ele>
        <time>2021-10-16T03:05:34.000Z</time>
      </trkpt>
      <trkpt lat="45.19697" lon="5.74048">
        <ele>207</ele>
        <time>2021-10-16T03:05:39.000Z</time>
      </trkpt>
      <trkpt lat="45.19702" lon="5.74068">
        <ele>207</ele>
        <time>2021-10-16T03:05:45.000Z</time>
      </trkpt>
      <trkpt lat="45.19707" lon="5.74093">
        <ele>207.19999694824</ele>
        <time>2021-10-16T03:05:52.000Z</time>
      </trkpt>
      <trkpt lat="45.19708" lon="5.74099">
        <ele>207.19999694824</ele>
        <time>2021-10-16T03:05:54.000Z</time>
      </trkpt>
      <trkpt lat="45.19708" lon="5.74107">
        <ele>207</ele>
        <time>2021-10-16T03:05:56.000Z</time>
      </trkpt>
      <trkpt lat="45.19711" lon="5.74122">
        <ele>207</ele>
        <time>2021-10-16T03:06:01.000Z</time>
      </trkpt>
      <trkpt lat="45.19716" lon="5.74145">
        <ele>207.19999694824</ele>
        <time>2021-10-16T03:06:08.000Z</time>
      </trkpt>
      <trkpt lat="45.19719" lon="5.74164">
        <ele>206.80000305176</ele>
        <time>2021-10-16T03:06:14.000Z</time>
      </trkpt>
      <trkpt lat="45.19723" lon="5.74187">
        <ele>207</ele>
        <time>2021-10-16T03:06:20.000Z</time>
      </trkpt>
      <trkpt lat="45.19725" lon="5.742">
        <ele>207</ele>
        <time>2021-10-16T03:06:24.000Z</time>
      </trkpt>
      <trkpt lat="45.19726" lon="5.74206">
        <ele>207</ele>
        <time>2021-10-16T03:06:26.000Z</time>
      </trkpt>
      <trkpt lat="45.19727" lon="5.74218">
        <ele>207.19999694824</ele>
        <time>2021-10-16T03:06:31.000Z</time>
      </trkpt>
      <trkpt lat="45.19735" lon="5.74228">
        <ele>207.19999694824</ele>
        <time>2021-10-16T03:06:35.000Z</time>
      </trkpt>
      <trkpt lat="45.1974" lon="5.74239">
        <ele>208</ele>
        <time>2021-10-16T03:06:41.000Z</time>
      </trkpt>
      <trkpt lat="45.19741" lon="5.7424">
        <ele>208.80000305176</ele>
        <time>2021-10-16T03:06:42.000Z</time>
      </trkpt>
      <trkpt lat="45.19745" lon="5.74239">
        <ele>208.80000305176</ele>
        <time>2021-10-16T03:06:45.000Z</time>
      </trkpt>
      <trkpt lat="45.19757" lon="5.74237">
        <ele>209</ele>
        <time>2021-10-16T03:06:50.000Z</time>
      </trkpt>
      <trkpt lat="45.19762" lon="5.74237">
        <ele>208.80000305176</ele>
        <time>2021-10-16T03:06:52.000Z</time>
      </trkpt>
      <trkpt lat="45.19775" lon="5.74237">
        <ele>209.19999694824</ele>
        <time>2021-10-16T03:06:58.000Z</time>
      </trkpt>
      <trkpt lat="45.19787" lon="5.74232">
        <ele>209.19999694824</ele>
        <time>2021-10-16T03:07:05.000Z</time>
      </trkpt>
      <trkpt lat="45.19797" lon="5.74231">
        <ele>209.19999694824</ele>
        <time>2021-10-16T03:07:09.000Z</time>
      </trkpt>
      <trkpt lat="45.19803" lon="5.74229">
        <ele>209.19999694824</ele>
        <time>2021-10-16T03:07:12.000Z</time>
      </trkpt>
      <trkpt lat="45.19817" lon="5.74215">
        <ele>209.19999694824</ele>
        <time>2021-10-16T03:07:22.000Z</time>
      </trkpt>
      <trkpt lat="45.19827" lon="5.74212">
        <ele>209</ele>
        <time>2021-10-16T03:07:27.000Z</time>
      </trkpt>
      <trkpt lat="45.19833" lon="5.74209">
        <ele>209.19999694824</ele>
        <time>2021-10-16T03:07:30.000Z</time>
      </trkpt>
      <trkpt lat="45.1984" lon="5.74208">
        <ele>209.19999694824</ele>
        <time>2021-10-16T03:07:33.000Z</time>
      </trkpt>
      <trkpt lat="45.19856" lon="5.74204">
        <ele>209.39999389648</ele>
        <time>2021-10-16T03:07:39.000Z</time>
      </trkpt>
      <trkpt lat="45.19869" lon="5.74195">
        <ele>209.19999694824</ele>
        <time>2021-10-16T03:07:46.000Z</time>
      </trkpt>
      <trkpt lat="45.19887" lon="5.74191">
        <ele>209.19999694824</ele>
        <time>2021-10-16T03:07:53.000Z</time>
      </trkpt>
      <trkpt lat="45.19898" lon="5.74183">
        <ele>209.39999389648</ele>
        <time>2021-10-16T03:07:58.000Z</time>
      </trkpt>
      <trkpt lat="45.19905" lon="5.74174">
        <ele>209.39999389648</ele>
        <time>2021-10-16T03:08:02.000Z</time>
      </trkpt>
      <trkpt lat="45.19917" lon="5.74165">
        <ele>209.19999694824</ele>
        <time>2021-10-16T03:08:08.000Z</time>
      </trkpt>
      <trkpt lat="45.1993" lon="5.74158">
        <ele>209.19999694824</ele>
        <time>2021-10-16T03:08:13.000Z</time>
      </trkpt>
      <trkpt lat="45.1995" lon="5.74156">
        <ele>209.19999694824</ele>
        <time>2021-10-16T03:08:19.000Z</time>
      </trkpt>
      <trkpt lat="45.19963" lon="5.74148">
        <ele>209.39999389648</ele>
        <time>2021-10-16T03:08:24.000Z</time>
      </trkpt>
      <trkpt lat="45.1997" lon="5.74136">
        <ele>209.39999389648</ele>
        <time>2021-10-16T03:08:29.000Z</time>
      </trkpt>
      <trkpt lat="45.19981" lon="5.74125">
        <ele>208.80000305176</ele>
        <time>2021-10-16T03:08:35.000Z</time>
      </trkpt>
      <trkpt lat="45.19994" lon="5.74112">
        <ele>207.60000610352</ele>
        <time>2021-10-16T03:08:41.000Z</time>
      </trkpt>
      <trkpt lat="45.20006" lon="5.74102">
        <ele>207</ele>
        <time>2021-10-16T03:08:46.000Z</time>
      </trkpt>
      <trkpt lat="45.20009" lon="5.74097">
        <ele>207</ele>
        <time>2021-10-16T03:08:48.000Z</time>
      </trkpt>
      <trkpt lat="45.20011" lon="5.74093">
        <ele>207</ele>
        <time>2021-10-16T03:08:51.000Z</time>
      </trkpt>
      <trkpt lat="45.20036" lon="5.74033">
        <ele>207.60000610352</ele>
        <time>2021-10-16T03:09:07.000Z</time>
      </trkpt>
      <trkpt lat="45.20041" lon="5.74024">
        <ele>208.60000610352</ele>
        <time>2021-10-16T03:09:11.000Z</time>
      </trkpt>
      <trkpt lat="45.20041" lon="5.74023">
        <ele>208.80000305176</ele>
        <time>2021-10-16T03:09:12.000Z</time>
      </trkpt>
      <trkpt lat="45.20042" lon="5.74016">
        <ele>209.19999694824</ele>
        <time>2021-10-16T03:09:14.000Z</time>
      </trkpt>
      <trkpt lat="45.20044" lon="5.74009">
        <ele>209.39999389648</ele>
        <time>2021-10-16T03:09:17.000Z</time>
      </trkpt>
      <trkpt lat="45.20043" lon="5.74008">
        <ele>209.60000610352</ele>
        <time>2021-10-16T03:09:18.000Z</time>
      </trkpt>
      <trkpt lat="45.20041" lon="5.74013">
        <ele>209.80000305176</ele>
        <time>2021-10-16T03:09:21.000Z</time>
      </trkpt>
      <trkpt lat="45.2004" lon="5.74016">
        <ele>210.19999694824</ele>
        <time>2021-10-16T03:09:22.000Z</time>
      </trkpt>
      <trkpt lat="45.20038" lon="5.74018">
        <ele>210.80000305176</ele>
        <time>2021-10-16T03:09:24.000Z</time>
      </trkpt>
      <trkpt lat="45.20038" lon="5.74022">
        <ele>211.39999389648</ele>
        <time>2021-10-16T03:09:27.000Z</time>
      </trkpt>
      <trkpt lat="45.20036" lon="5.74032">
        <ele>211.60000610352</ele>
        <time>2021-10-16T03:09:30.000Z</time>
      </trkpt>
      <trkpt lat="45.20034" lon="5.74035">
        <ele>211.60000610352</ele>
        <time>2021-10-16T03:09:31.000Z</time>
      </trkpt>
      <trkpt lat="45.20033" lon="5.74039">
        <ele>211.80000305176</ele>
        <time>2021-10-16T03:09:32.000Z</time>
      </trkpt>
      <trkpt lat="45.20026" lon="5.74052">
        <ele>212.39999389648</ele>
        <time>2021-10-16T03:09:37.000Z</time>
      </trkpt>
      <trkpt lat="45.20027" lon="5.74056">
        <ele>213</ele>
        <time>2021-10-16T03:09:39.000Z</time>
      </trkpt>
      <trkpt lat="45.20028" lon="5.74058">
        <ele>213</ele>
        <time>2021-10-16T03:09:40.000Z</time>
      </trkpt>
      <trkpt lat="45.20042" lon="5.74074">
        <ele>213</ele>
        <time>2021-10-16T03:09:47.000Z</time>
      </trkpt>
      <trkpt lat="45.20053" lon="5.74089">
        <ele>213.19999694824</ele>
        <time>2021-10-16T03:09:52.000Z</time>
      </trkpt>
      <trkpt lat="45.20064" lon="5.74106">
        <ele>213.39999389648</ele>
        <time>2021-10-16T03:09:58.000Z</time>
      </trkpt>
      <trkpt lat="45.20074" lon="5.7412">
        <ele>213.39999389648</ele>
        <time>2021-10-16T03:10:04.000Z</time>
      </trkpt>
      <trkpt lat="45.20089" lon="5.74137">
        <ele>213.60000610352</ele>
        <time>2021-10-16T03:10:11.000Z</time>
      </trkpt>
      <trkpt lat="45.20095" lon="5.74143">
        <ele>213.39999389648</ele>
        <time>2021-10-16T03:10:14.000Z</time>
      </trkpt>
      <trkpt lat="45.20107" lon="5.74158">
        <ele>213.19999694824</ele>
        <time>2021-10-16T03:10:20.000Z</time>
      </trkpt>
      <trkpt lat="45.20117" lon="5.74164">
        <ele>212.80000305176</ele>
        <time>2021-10-16T03:10:25.000Z</time>
      </trkpt>
      <trkpt lat="45.20119" lon="5.74162">
        <ele>212.80000305176</ele>
        <time>2021-10-16T03:10:26.000Z</time>
      </trkpt>
      <trkpt lat="45.20125" lon="5.74145">
        <ele>212</ele>
        <time>2021-10-16T03:10:31.000Z</time>
      </trkpt>
      <trkpt lat="45.20126" lon="5.74142">
        <ele>212</ele>
        <time>2021-10-16T03:10:32.000Z</time>
      </trkpt>
      <trkpt lat="45.20131" lon="5.7413">
        <ele>211</ele>
        <time>2021-10-16T03:10:36.000Z</time>
      </trkpt>
      <trkpt lat="45.20134" lon="5.74124">
        <ele>210.39999389648</ele>
        <time>2021-10-16T03:10:38.000Z</time>
      </trkpt>
      <trkpt lat="45.20136" lon="5.74122">
        <ele>210.19999694824</ele>
        <time>2021-10-16T03:10:39.000Z</time>
      </trkpt>
      <trkpt lat="45.20145" lon="5.74107">
        <ele>209.19999694824</ele>
        <time>2021-10-16T03:10:45.000Z</time>
      </trkpt>
      <trkpt lat="45.20147" lon="5.74104">
        <ele>208.80000305176</ele>
        <time>2021-10-16T03:10:46.000Z</time>
      </trkpt>
      <trkpt lat="45.20152" lon="5.74096">
        <ele>208.80000305176</ele>
        <time>2021-10-16T03:10:49.000Z</time>
      </trkpt>
      <trkpt lat="45.20158" lon="5.74086">
        <ele>208.60000610352</ele>
        <time>2021-10-16T03:10:52.000Z</time>
      </trkpt>
      <trkpt lat="45.20164" lon="5.74068">
        <ele>208.19999694824</ele>
        <time>2021-10-16T03:10:57.000Z</time>
      </trkpt>
      <trkpt lat="45.2017" lon="5.74058">
        <ele>208.19999694824</ele>
        <time>2021-10-16T03:11:00.000Z</time>
      </trkpt>
      <trkpt lat="45.20172" lon="5.74055">
        <ele>208.19999694824</ele>
        <time>2021-10-16T03:11:01.000Z</time>
      </trkpt>
      <trkpt lat="45.20175" lon="5.74047">
        <ele>208</ele>
        <time>2021-10-16T03:11:03.000Z</time>
      </trkpt>
      <trkpt lat="45.20187" lon="5.74029">
        <ele>207.80000305176</ele>
        <time>2021-10-16T03:11:09.000Z</time>
      </trkpt>
      <trkpt lat="45.20195" lon="5.74014">
        <ele>207.60000610352</ele>
        <time>2021-10-16T03:11:14.000Z</time>
      </trkpt>
      <trkpt lat="45.20205" lon="5.73991">
        <ele>208</ele>
        <time>2021-10-16T03:11:21.000Z</time>
      </trkpt>
      <trkpt lat="45.20212" lon="5.73966">
        <ele>207.80000305176</ele>
        <time>2021-10-16T03:11:28.000Z</time>
      </trkpt>
      <trkpt lat="45.20219" lon="5.73941">
        <ele>208</ele>
        <time>2021-10-16T03:11:35.000Z</time>
      </trkpt>
      <trkpt lat="45.20226" lon="5.73915">
        <ele>207.80000305176</ele>
        <time>2021-10-16T03:11:42.000Z</time>
      </trkpt>
      <trkpt lat="45.20227" lon="5.73911">
        <ele>207.80000305176</ele>
        <time>2021-10-16T03:11:43.000Z</time>
      </trkpt>
      <trkpt lat="45.20227" lon="5.73908">
        <ele>208</ele>
        <time>2021-10-16T03:11:44.000Z</time>
      </trkpt>
      <trkpt lat="45.20231" lon="5.73887">
        <ele>208.19999694824</ele>
        <time>2021-10-16T03:11:50.000Z</time>
      </trkpt>
      <trkpt lat="45.20237" lon="5.73862">
        <ele>208</ele>
        <time>2021-10-16T03:11:57.000Z</time>
      </trkpt>
      <trkpt lat="45.20239" lon="5.73835">
        <ele>208</ele>
        <time>2021-10-16T03:12:04.000Z</time>
      </trkpt>
      <trkpt lat="45.20239" lon="5.73831">
        <ele>208</ele>
        <time>2021-10-16T03:12:05.000Z</time>
      </trkpt>
      <trkpt lat="45.20247" lon="5.73813">
        <ele>207.80000305176</ele>
        <time>2021-10-16T03:12:10.000Z</time>
      </trkpt>
      <trkpt lat="45.20254" lon="5.73811">
        <ele>207.80000305176</ele>
        <time>2021-10-16T03:12:12.000Z</time>
      </trkpt>
      <trkpt lat="45.20258" lon="5.73811">
        <ele>207.80000305176</ele>
        <time>2021-10-16T03:12:13.000Z</time>
      </trkpt>
      <trkpt lat="45.20271" lon="5.73804">
        <ele>208.19999694824</ele>
        <time>2021-10-16T03:12:18.000Z</time>
      </trkpt>
      <trkpt lat="45.20279" lon="5.73798">
        <ele>208.60000610352</ele>
        <time>2021-10-16T03:12:22.000Z</time>
      </trkpt>
      <trkpt lat="45.20282" lon="5.73796">
        <ele>209.19999694824</ele>
        <time>2021-10-16T03:12:23.000Z</time>
      </trkpt>
      <trkpt lat="45.20289" lon="5.73792">
        <ele>209.80000305176</ele>
        <time>2021-10-16T03:12:26.000Z</time>
      </trkpt>
      <trkpt lat="45.20291" lon="5.73791">
        <ele>210</ele>
        <time>2021-10-16T03:12:27.000Z</time>
      </trkpt>
      <trkpt lat="45.20293" lon="5.73788">
        <ele>210.39999389648</ele>
        <time>2021-10-16T03:12:29.000Z</time>
      </trkpt>
      <trkpt lat="45.20295" lon="5.73786">
        <ele>210.80000305176</ele>
        <time>2021-10-16T03:12:31.000Z</time>
      </trkpt>
      <trkpt lat="45.20296" lon="5.73786">
        <ele>210.80000305176</ele>
        <time>2021-10-16T03:12:32.000Z</time>
      </trkpt>
      <trkpt lat="45.20301" lon="5.73783">
        <ele>211.39999389648</ele>
        <time>2021-10-16T03:12:35.000Z</time>
      </trkpt>
      <trkpt lat="45.20305" lon="5.73781">
        <ele>211.60000610352</ele>
        <time>2021-10-16T03:12:37.000Z</time>
      </trkpt>
      <trkpt lat="45.20315" lon="5.73775">
        <ele>212.60000610352</ele>
        <time>2021-10-16T03:12:42.000Z</time>
      </trkpt>
      <trkpt lat="45.20318" lon="5.73773">
        <ele>212.60000610352</ele>
        <time>2021-10-16T03:12:43.000Z</time>
      </trkpt>
      <trkpt lat="45.20324" lon="5.73769">
        <ele>213</ele>
        <time>2021-10-16T03:12:46.000Z</time>
      </trkpt>
      <trkpt lat="45.20331" lon="5.73766">
        <ele>213.39999389648</ele>
        <time>2021-10-16T03:12:49.000Z</time>
      </trkpt>
      <trkpt lat="45.2034" lon="5.7376">
        <ele>213.80000305176</ele>
        <time>2021-10-16T03:12:53.000Z</time>
      </trkpt>
      <trkpt lat="45.20342" lon="5.73758">
        <ele>214</ele>
        <time>2021-10-16T03:12:54.000Z</time>
      </trkpt>
      <trkpt lat="45.20351" lon="5.73748">
        <ele>214.80000305176</ele>
        <time>2021-10-16T03:12:58.000Z</time>
      </trkpt>
      <trkpt lat="45.20353" lon="5.73745">
        <ele>215</ele>
        <time>2021-10-16T03:12:59.000Z</time>
      </trkpt>
      <trkpt lat="45.2036" lon="5.73729">
        <ele>215.39999389648</ele>
        <time>2021-10-16T03:13:04.000Z</time>
      </trkpt>
      <trkpt lat="45.2037" lon="5.73719">
        <ele>215.60000610352</ele>
        <time>2021-10-16T03:13:08.000Z</time>
      </trkpt>
      <trkpt lat="45.20373" lon="5.73714">
        <ele>216</ele>
        <time>2021-10-16T03:13:10.000Z</time>
      </trkpt>
      <trkpt lat="45.20374" lon="5.73711">
        <ele>216.19999694824</ele>
        <time>2021-10-16T03:13:11.000Z</time>
      </trkpt>
      <trkpt lat="45.20379" lon="5.737">
        <ele>217.19999694824</ele>
        <time>2021-10-16T03:13:15.000Z</time>
      </trkpt>
      <trkpt lat="45.2038" lon="5.73698">
        <ele>217.19999694824</ele>
        <time>2021-10-16T03:13:16.000Z</time>
      </trkpt>
      <trkpt lat="45.20387" lon="5.73695">
        <ele>217.80000305176</ele>
        <time>2021-10-16T03:13:20.000Z</time>
      </trkpt>
      <trkpt lat="45.20397" lon="5.73698">
        <ele>218.19999694824</ele>
        <time>2021-10-16T03:13:24.000Z</time>
      </trkpt>
      <trkpt lat="45.20403" lon="5.73702">
        <ele>218.39999389648</ele>
        <time>2021-10-16T03:13:27.000Z</time>
      </trkpt>
      <trkpt lat="45.20415" lon="5.73717">
        <ele>218.80000305176</ele>
        <time>2021-10-16T03:13:33.000Z</time>
      </trkpt>
      <trkpt lat="45.20424" lon="5.7373">
        <ele>219.39999389648</ele>
        <time>2021-10-16T03:13:37.000Z</time>
      </trkpt>
      <trkpt lat="45.20428" lon="5.73736">
        <ele>219.39999389648</ele>
        <time>2021-10-16T03:13:39.000Z</time>
      </trkpt>
      <trkpt lat="45.20436" lon="5.73749">
        <ele>219.60000610352</ele>
        <time>2021-10-16T03:13:44.000Z</time>
      </trkpt>
      <trkpt lat="45.2044" lon="5.73753">
        <ele>219.80000305176</ele>
        <time>2021-10-16T03:13:46.000Z</time>
      </trkpt>
      <trkpt lat="45.2045" lon="5.73764">
        <ele>220.39999389648</ele>
        <time>2021-10-16T03:13:51.000Z</time>
      </trkpt>
      <trkpt lat="45.20452" lon="5.73767">
        <ele>220.39999389648</ele>
        <time>2021-10-16T03:13:52.000Z</time>
      </trkpt>
      <trkpt lat="45.20463" lon="5.73781">
        <ele>221.19999694824</ele>
        <time>2021-10-16T03:13:59.000Z</time>
      </trkpt>
      <trkpt lat="45.20468" lon="5.73787">
        <ele>221.39999389648</ele>
        <time>2021-10-16T03:14:02.000Z</time>
      </trkpt>
      <trkpt lat="45.20477" lon="5.738">
        <ele>222.19999694824</ele>
        <time>2021-10-16T03:14:08.000Z</time>
      </trkpt>
      <trkpt lat="45.20481" lon="5.73804">
        <ele>222.60000610352</ele>
        <time>2021-10-16T03:14:10.000Z</time>
      </trkpt>
      <trkpt lat="45.20489" lon="5.73816">
        <ele>223.39999389648</ele>
        <time>2021-10-16T03:14:15.000Z</time>
      </trkpt>
      <trkpt lat="45.20491" lon="5.73817">
        <ele>223.60000610352</ele>
        <time>2021-10-16T03:14:16.000Z</time>
      </trkpt>
      <trkpt lat="45.20504" lon="5.73829">
        <ele>224.60000610352</ele>
        <time>2021-10-16T03:14:23.000Z</time>
      </trkpt>
      <trkpt lat="45.20519" lon="5.73839">
        <ele>226.19999694824</ele>
        <time>2021-10-16T03:14:30.000Z</time>
      </trkpt>
      <trkpt lat="45.20527" lon="5.73839">
        <ele>227.19999694824</ele>
        <time>2021-10-16T03:14:35.000Z</time>
      </trkpt>
      <trkpt lat="45.20529" lon="5.73839">
        <ele>227.19999694824</ele>
        <time>2021-10-16T03:14:36.000Z</time>
      </trkpt>
      <trkpt lat="45.20533" lon="5.73845">
        <ele>228.19999694824</ele>
        <time>2021-10-16T03:14:39.000Z</time>
      </trkpt>
      <trkpt lat="45.20535" lon="5.73848">
        <ele>228.19999694824</ele>
        <time>2021-10-16T03:14:41.000Z</time>
      </trkpt>
      <trkpt lat="45.20537" lon="5.73852">
        <ele>229.19999694824</ele>
        <time>2021-10-16T03:14:43.000Z</time>
      </trkpt>
      <trkpt lat="45.2054" lon="5.73857">
        <ele>230.39999389648</ele>
        <time>2021-10-16T03:14:46.000Z</time>
      </trkpt>
      <trkpt lat="45.20544" lon="5.73864">
        <ele>230.80000305176</ele>
        <time>2021-10-16T03:14:49.000Z</time>
      </trkpt>
      <trkpt lat="45.20545" lon="5.73866">
        <ele>231.39999389648</ele>
        <time>2021-10-16T03:14:50.000Z</time>
      </trkpt>
      <trkpt lat="45.20549" lon="5.73871">
        <ele>232.80000305176</ele>
        <time>2021-10-16T03:14:54.000Z</time>
      </trkpt>
      <trkpt lat="45.2055" lon="5.73871">
        <ele>233.19999694824</ele>
        <time>2021-10-16T03:14:55.000Z</time>
      </trkpt>
      <trkpt lat="45.20551" lon="5.73871">
        <ele>233.60000610352</ele>
        <time>2021-10-16T03:14:56.000Z</time>
      </trkpt>
      <trkpt lat="45.20552" lon="5.7387">
        <ele>233.80000305176</ele>
        <time>2021-10-16T03:14:57.000Z</time>
      </trkpt>
      <trkpt lat="45.20555" lon="5.73868">
        <ele>234.19999694824</ele>
        <time>2021-10-16T03:14:59.000Z</time>
      </trkpt>
      <trkpt lat="45.20562" lon="5.73865">
        <ele>235.60000610352</ele>
        <time>2021-10-16T03:15:03.000Z</time>
      </trkpt>
      <trkpt lat="45.20571" lon="5.73864">
        <ele>236.80000305176</ele>
        <time>2021-10-16T03:15:08.000Z</time>
      </trkpt>
      <trkpt lat="45.20572" lon="5.73863">
        <ele>236.80000305176</ele>
        <time>2021-10-16T03:15:09.000Z</time>
      </trkpt>
      <trkpt lat="45.20578" lon="5.73861">
        <ele>237.80000305176</ele>
        <time>2021-10-16T03:15:13.000Z</time>
      </trkpt>
      <trkpt lat="45.20583" lon="5.7386">
        <ele>238.80000305176</ele>
        <time>2021-10-16T03:15:16.000Z</time>
      </trkpt>
      <trkpt lat="45.20589" lon="5.73858">
        <ele>240</ele>
        <time>2021-10-16T03:15:20.000Z</time>
      </trkpt>
      <trkpt lat="45.20595" lon="5.73856">
        <ele>241.19999694824</ele>
        <time>2021-10-16T03:15:24.000Z</time>
      </trkpt>
      <trkpt lat="45.20599" lon="5.73856">
        <ele>242.19999694824</ele>
        <time>2021-10-16T03:15:26.000Z</time>
      </trkpt>
      <trkpt lat="45.20604" lon="5.73853">
        <ele>243.19999694824</ele>
        <time>2021-10-16T03:15:30.000Z</time>
      </trkpt>
      <trkpt lat="45.20608" lon="5.73849">
        <ele>244.80000305176</ele>
        <time>2021-10-16T03:15:34.000Z</time>
      </trkpt>
      <trkpt lat="45.20613" lon="5.73847">
        <ele>245.19999694824</ele>
        <time>2021-10-16T03:15:37.000Z</time>
      </trkpt>
      <trkpt lat="45.20617" lon="5.73847">
        <ele>246.19999694824</ele>
        <time>2021-10-16T03:15:40.000Z</time>
      </trkpt>
      <trkpt lat="45.20623" lon="5.73844">
        <ele>247.19999694824</ele>
        <time>2021-10-16T03:15:44.000Z</time>
      </trkpt>
      <trkpt lat="45.20629" lon="5.73841">
        <ele>248.80000305176</ele>
        <time>2021-10-16T03:15:49.000Z</time>
      </trkpt>
      <trkpt lat="45.20634" lon="5.73839">
        <ele>249.80000305176</ele>
        <time>2021-10-16T03:15:52.000Z</time>
      </trkpt>
      <trkpt lat="45.20635" lon="5.73839">
        <ele>249.80000305176</ele>
        <time>2021-10-16T03:15:53.000Z</time>
      </trkpt>
      <trkpt lat="45.20639" lon="5.73839">
        <ele>251.19999694824</ele>
        <time>2021-10-16T03:15:56.000Z</time>
      </trkpt>
      <trkpt lat="45.2064" lon="5.73838">
        <ele>251.19999694824</ele>
        <time>2021-10-16T03:15:57.000Z</time>
      </trkpt>
      <trkpt lat="45.20645" lon="5.73835">
        <ele>252.19999694824</ele>
        <time>2021-10-16T03:16:00.000Z</time>
      </trkpt>
      <trkpt lat="45.20649" lon="5.73834">
        <ele>253.39999389648</ele>
        <time>2021-10-16T03:16:03.000Z</time>
      </trkpt>
      <trkpt lat="45.20653" lon="5.73832">
        <ele>254.39999389648</ele>
        <time>2021-10-16T03:16:07.000Z</time>
      </trkpt>
      <trkpt lat="45.20656" lon="5.73829">
        <ele>255.60000610352</ele>
        <time>2021-10-16T03:16:10.000Z</time>
      </trkpt>
      <trkpt lat="45.20661" lon="5.73827">
        <ele>256.39999389648</ele>
        <time>2021-10-16T03:16:14.000Z</time>
      </trkpt>
      <trkpt lat="45.20662" lon="5.73827">
        <ele>256.79998779297</ele>
        <time>2021-10-16T03:16:15.000Z</time>
      </trkpt>
      <trkpt lat="45.20666" lon="5.73829">
        <ele>258</ele>
        <time>2021-10-16T03:16:18.000Z</time>
      </trkpt>
      <trkpt lat="45.20669" lon="5.73831">
        <ele>258.39999389648</ele>
        <time>2021-10-16T03:16:20.000Z</time>
      </trkpt>
      <trkpt lat="45.2067" lon="5.73831">
        <ele>259.39999389648</ele>
        <time>2021-10-16T03:16:22.000Z</time>
      </trkpt>
      <trkpt lat="45.20673" lon="5.7383">
        <ele>259.60000610352</ele>
        <time>2021-10-16T03:16:24.000Z</time>
      </trkpt>
      <trkpt lat="45.20676" lon="5.73828">
        <ele>260.60000610352</ele>
        <time>2021-10-16T03:16:28.000Z</time>
      </trkpt>
      <trkpt lat="45.2068" lon="5.73825">
        <ele>261.20001220703</ele>
        <time>2021-10-16T03:16:31.000Z</time>
      </trkpt>
      <trkpt lat="45.20684" lon="5.73822">
        <ele>262.20001220703</ele>
        <time>2021-10-16T03:16:34.000Z</time>
      </trkpt>
      <trkpt lat="45.20686" lon="5.73821">
        <ele>262.60000610352</ele>
        <time>2021-10-16T03:16:36.000Z</time>
      </trkpt>
      <trkpt lat="45.2069" lon="5.73819">
        <ele>263.39999389648</ele>
        <time>2021-10-16T03:16:39.000Z</time>
      </trkpt>
      <trkpt lat="45.20692" lon="5.73813">
        <ele>264.39999389648</ele>
        <time>2021-10-16T03:16:42.000Z</time>
      </trkpt>
      <trkpt lat="45.20693" lon="5.7381">
        <ele>264.60000610352</ele>
        <time>2021-10-16T03:16:44.000Z</time>
      </trkpt>
      <trkpt lat="45.20695" lon="5.73807">
        <ele>265.60000610352</ele>
        <time>2021-10-16T03:16:46.000Z</time>
      </trkpt>
      <trkpt lat="45.207" lon="5.73803">
        <ele>266.60000610352</ele>
        <time>2021-10-16T03:16:50.000Z</time>
      </trkpt>
      <trkpt lat="45.20702" lon="5.73801">
        <ele>267.60000610352</ele>
        <time>2021-10-16T03:16:52.000Z</time>
      </trkpt>
      <trkpt lat="45.20702" lon="5.738">
        <ele>267.79998779297</ele>
        <time>2021-10-16T03:16:53.000Z</time>
      </trkpt>
      <trkpt lat="45.20704" lon="5.73794">
        <ele>268.60000610352</ele>
        <time>2021-10-16T03:16:57.000Z</time>
      </trkpt>
      <trkpt lat="45.20705" lon="5.73792">
        <ele>269.39999389648</ele>
        <time>2021-10-16T03:16:58.000Z</time>
      </trkpt>
      <trkpt lat="45.20706" lon="5.73792">
        <ele>269.60000610352</ele>
        <time>2021-10-16T03:16:59.000Z</time>
      </trkpt>
      <trkpt lat="45.20708" lon="5.73792">
        <ele>269.79998779297</ele>
        <time>2021-10-16T03:17:00.000Z</time>
      </trkpt>
      <trkpt lat="45.2071" lon="5.73794">
        <ele>270.39999389648</ele>
        <time>2021-10-16T03:17:02.000Z</time>
      </trkpt>
      <trkpt lat="45.20712" lon="5.73793">
        <ele>270.60000610352</ele>
        <time>2021-10-16T03:17:03.000Z</time>
      </trkpt>
      <trkpt lat="45.20713" lon="5.73792">
        <ele>271</ele>
        <time>2021-10-16T03:17:04.000Z</time>
      </trkpt>
      <trkpt lat="45.20716" lon="5.73789">
        <ele>271.79998779297</ele>
        <time>2021-10-16T03:17:06.000Z</time>
      </trkpt>
      <trkpt lat="45.20717" lon="5.73788">
        <ele>272.20001220703</ele>
        <time>2021-10-16T03:17:07.000Z</time>
      </trkpt>
      <trkpt lat="45.20722" lon="5.73785">
        <ele>273.79998779297</ele>
        <time>2021-10-16T03:17:11.000Z</time>
      </trkpt>
      <trkpt lat="45.20722" lon="5.73781">
        <ele>274.20001220703</ele>
        <time>2021-10-16T03:17:14.000Z</time>
      </trkpt>
      <trkpt lat="45.20726" lon="5.73781">
        <ele>275</ele>
        <time>2021-10-16T03:17:17.000Z</time>
      </trkpt>
      <trkpt lat="45.20729" lon="5.73779">
        <ele>276.20001220703</ele>
        <time>2021-10-16T03:17:20.000Z</time>
      </trkpt>
      <trkpt lat="45.20729" lon="5.73779">
        <ele>276.39999389648</ele>
        <time>2021-10-16T03:17:21.000Z</time>
      </trkpt>
      <trkpt lat="45.20729" lon="5.73777">
        <ele>276.79998779297</ele>
        <time>2021-10-16T03:17:22.000Z</time>
      </trkpt>
      <trkpt lat="45.20731" lon="5.73774">
        <ele>277.79998779297</ele>
        <time>2021-10-16T03:17:25.000Z</time>
      </trkpt>
      <trkpt lat="45.20732" lon="5.73774">
        <ele>278</ele>
        <time>2021-10-16T03:17:26.000Z</time>
      </trkpt>
      <trkpt lat="45.20734" lon="5.73772">
        <ele>278.39999389648</ele>
        <time>2021-10-16T03:17:27.000Z</time>
      </trkpt>
      <trkpt lat="45.20736" lon="5.73768">
        <ele>279.20001220703</ele>
        <time>2021-10-16T03:17:30.000Z</time>
      </trkpt>
      <trkpt lat="45.20739" lon="5.73765">
        <ele>280.60000610352</ele>
        <time>2021-10-16T03:17:33.000Z</time>
      </trkpt>
      <trkpt lat="45.20741" lon="5.73763">
        <ele>281.39999389648</ele>
        <time>2021-10-16T03:17:36.000Z</time>
      </trkpt>
      <trkpt lat="45.20741" lon="5.73761">
        <ele>282</ele>
        <time>2021-10-16T03:17:37.000Z</time>
      </trkpt>
      <trkpt lat="45.20742" lon="5.7376">
        <ele>282.20001220703</ele>
        <time>2021-10-16T03:17:38.000Z</time>
      </trkpt>
      <trkpt lat="45.20744" lon="5.73757">
        <ele>283</ele>
        <time>2021-10-16T03:17:41.000Z</time>
      </trkpt>
      <trkpt lat="45.20745" lon="5.73756">
        <ele>283.79998779297</ele>
        <time>2021-10-16T03:17:43.000Z</time>
      </trkpt>
      <trkpt lat="45.20747" lon="5.73756">
        <ele>284.20001220703</ele>
        <time>2021-10-16T03:17:45.000Z</time>
      </trkpt>
      <trkpt lat="45.20748" lon="5.73755">
        <ele>284.60000610352</ele>
        <time>2021-10-16T03:17:46.000Z</time>
      </trkpt>
      <trkpt lat="45.20752" lon="5.73753">
        <ele>286</ele>
        <time>2021-10-16T03:17:50.000Z</time>
      </trkpt>
      <trkpt lat="45.20753" lon="5.73753">
        <ele>286.20001220703</ele>
        <time>2021-10-16T03:17:51.000Z</time>
      </trkpt>
      <trkpt lat="45.20756" lon="5.7375">
        <ele>286.79998779297</ele>
        <time>2021-10-16T03:17:53.000Z</time>
      </trkpt>
      <trkpt lat="45.20758" lon="5.73749">
        <ele>286.79998779297</ele>
        <time>2021-10-16T03:17:54.000Z</time>
      </trkpt>
      <trkpt lat="45.20758" lon="5.73748">
        <ele>287.20001220703</ele>
        <time>2021-10-16T03:17:55.000Z</time>
      </trkpt>
      <trkpt lat="45.20762" lon="5.73747">
        <ele>288.39999389648</ele>
        <time>2021-10-16T03:17:58.000Z</time>
      </trkpt>
      <trkpt lat="45.20767" lon="5.73744">
        <ele>289.79998779297</ele>
        <time>2021-10-16T03:18:02.000Z</time>
      </trkpt>
      <trkpt lat="45.20768" lon="5.73743">
        <ele>290.60000610352</ele>
        <time>2021-10-16T03:18:03.000Z</time>
      </trkpt>
      <trkpt lat="45.20768" lon="5.73742">
        <ele>291</ele>
        <time>2021-10-16T03:18:04.000Z</time>
      </trkpt>
      <trkpt lat="45.20771" lon="5.7374">
        <ele>292.20001220703</ele>
        <time>2021-10-16T03:18:08.000Z</time>
      </trkpt>
      <trkpt lat="45.20772" lon="5.73739">
        <ele>292.60000610352</ele>
        <time>2021-10-16T03:18:09.000Z</time>
      </trkpt>
      <trkpt lat="45.20773" lon="5.73738">
        <ele>293</ele>
        <time>2021-10-16T03:18:11.000Z</time>
      </trkpt>
      <trkpt lat="45.20774" lon="5.73736">
        <ele>293.39999389648</ele>
        <time>2021-10-16T03:18:13.000Z</time>
      </trkpt>
      <trkpt lat="45.20776" lon="5.73736">
        <ele>294</ele>
        <time>2021-10-16T03:18:15.000Z</time>
      </trkpt>
      <trkpt lat="45.20778" lon="5.73737">
        <ele>294</ele>
        <time>2021-10-16T03:18:16.000Z</time>
      </trkpt>
      <trkpt lat="45.2078" lon="5.73737">
        <ele>294.39999389648</ele>
        <time>2021-10-16T03:18:18.000Z</time>
      </trkpt>
      <trkpt lat="45.20783" lon="5.73736">
        <ele>295.79998779297</ele>
        <time>2021-10-16T03:18:21.000Z</time>
      </trkpt>
      <trkpt lat="45.20784" lon="5.73734">
        <ele>296.20001220703</ele>
        <time>2021-10-16T03:18:23.000Z</time>
      </trkpt>
      <trkpt lat="45.20786" lon="5.73731">
        <ele>296.79998779297</ele>
        <time>2021-10-16T03:18:26.000Z</time>
      </trkpt>
      <trkpt lat="45.20788" lon="5.7373">
        <ele>297.60000610352</ele>
        <time>2021-10-16T03:18:28.000Z</time>
      </trkpt>
      <trkpt lat="45.2079" lon="5.7373">
        <ele>297.79998779297</ele>
        <time>2021-10-16T03:18:29.000Z</time>
      </trkpt>
      <trkpt lat="45.20793" lon="5.73729">
        <ele>298.20001220703</ele>
        <time>2021-10-16T03:18:30.000Z</time>
      </trkpt>
      <trkpt lat="45.20801" lon="5.73726">
        <ele>299.79998779297</ele>
        <time>2021-10-16T03:18:35.000Z</time>
      </trkpt>
      <trkpt lat="45.20802" lon="5.73725">
        <ele>300.20001220703</ele>
        <time>2021-10-16T03:18:36.000Z</time>
      </trkpt>
      <trkpt lat="45.20804" lon="5.73724">
        <ele>300.39999389648</ele>
        <time>2021-10-16T03:18:38.000Z</time>
      </trkpt>
      <trkpt lat="45.20805" lon="5.73722">
        <ele>301.20001220703</ele>
        <time>2021-10-16T03:18:40.000Z</time>
      </trkpt>
      <trkpt lat="45.20806" lon="5.73722">
        <ele>301.39999389648</ele>
        <time>2021-10-16T03:18:41.000Z</time>
      </trkpt>
      <trkpt lat="45.2081" lon="5.73722">
        <ele>302.79998779297</ele>
        <time>2021-10-16T03:18:45.000Z</time>
      </trkpt>
      <trkpt lat="45.20812" lon="5.73725">
        <ele>303.20001220703</ele>
        <time>2021-10-16T03:18:47.000Z</time>
      </trkpt>
      <trkpt lat="45.20813" lon="5.73727">
        <ele>303.39999389648</ele>
        <time>2021-10-16T03:18:48.000Z</time>
      </trkpt>
      <trkpt lat="45.20814" lon="5.7373">
        <ele>303.79998779297</ele>
        <time>2021-10-16T03:18:50.000Z</time>
      </trkpt>
      <trkpt lat="45.20816" lon="5.73737">
        <ele>304.60000610352</ele>
        <time>2021-10-16T03:18:54.000Z</time>
      </trkpt>
      <trkpt lat="45.20817" lon="5.73738">
        <ele>305</ele>
        <time>2021-10-16T03:18:55.000Z</time>
      </trkpt>
      <trkpt lat="45.20819" lon="5.7374">
        <ele>305</ele>
        <time>2021-10-16T03:18:57.000Z</time>
      </trkpt>
      <trkpt lat="45.20823" lon="5.73739">
        <ele>305.60000610352</ele>
        <time>2021-10-16T03:19:00.000Z</time>
      </trkpt>
      <trkpt lat="45.20824" lon="5.73739">
        <ele>306</ele>
        <time>2021-10-16T03:19:01.000Z</time>
      </trkpt>
      <trkpt lat="45.20828" lon="5.73738">
        <ele>306.60000610352</ele>
        <time>2021-10-16T03:19:03.000Z</time>
      </trkpt>
      <trkpt lat="45.20829" lon="5.73739">
        <ele>307.20001220703</ele>
        <time>2021-10-16T03:19:04.000Z</time>
      </trkpt>
      <trkpt lat="45.20833" lon="5.73739">
        <ele>307.39999389648</ele>
        <time>2021-10-16T03:19:06.000Z</time>
      </trkpt>
      <trkpt lat="45.20834" lon="5.73739">
        <ele>307.39999389648</ele>
        <time>2021-10-16T03:19:07.000Z</time>
      </trkpt>
      <trkpt lat="45.20835" lon="5.73738">
        <ele>308.20001220703</ele>
        <time>2021-10-16T03:19:08.000Z</time>
      </trkpt>
      <trkpt lat="45.20836" lon="5.73737">
        <ele>308.60000610352</ele>
        <time>2021-10-16T03:19:09.000Z</time>
      </trkpt>
      <trkpt lat="45.20837" lon="5.73736">
        <ele>308.79998779297</ele>
        <time>2021-10-16T03:19:10.000Z</time>
      </trkpt>
      <trkpt lat="45.2084" lon="5.73733">
        <ele>309.20001220703</ele>
        <time>2021-10-16T03:19:13.000Z</time>
      </trkpt>
      <trkpt lat="45.2084" lon="5.73732">
        <ele>310</ele>
        <time>2021-10-16T03:19:14.000Z</time>
      </trkpt>
      <trkpt lat="45.2084" lon="5.73728">
        <ele>310.39999389648</ele>
        <time>2021-10-16T03:19:16.000Z</time>
      </trkpt>
      <trkpt lat="45.20841" lon="5.73726">
        <ele>310.79998779297</ele>
        <time>2021-10-16T03:19:17.000Z</time>
      </trkpt>
      <trkpt lat="45.20841" lon="5.73725">
        <ele>311</ele>
        <time>2021-10-16T03:19:18.000Z</time>
      </trkpt>
      <trkpt lat="45.20843" lon="5.73724">
        <ele>312.20001220703</ele>
        <time>2021-10-16T03:19:21.000Z</time>
      </trkpt>
      <trkpt lat="45.20844" lon="5.73727">
        <ele>312.39999389648</ele>
        <time>2021-10-16T03:19:23.000Z</time>
      </trkpt>
      <trkpt lat="45.20844" lon="5.73729">
        <ele>312.60000610352</ele>
        <time>2021-10-16T03:19:24.000Z</time>
      </trkpt>
      <trkpt lat="45.20844" lon="5.73731">
        <ele>313</ele>
        <time>2021-10-16T03:19:26.000Z</time>
      </trkpt>
      <trkpt lat="45.20845" lon="5.73732">
        <ele>313.60000610352</ele>
        <time>2021-10-16T03:19:27.000Z</time>
      </trkpt>
      <trkpt lat="45.20847" lon="5.73732">
        <ele>314</ele>
        <time>2021-10-16T03:19:28.000Z</time>
      </trkpt>
      <trkpt lat="45.20848" lon="5.7373">
        <ele>314.20001220703</ele>
        <time>2021-10-16T03:19:30.000Z</time>
      </trkpt>
      <trkpt lat="45.20848" lon="5.73727">
        <ele>315</ele>
        <time>2021-10-16T03:19:32.000Z</time>
      </trkpt>
      <trkpt lat="45.20849" lon="5.73726">
        <ele>315.20001220703</ele>
        <time>2021-10-16T03:19:33.000Z</time>
      </trkpt>
      <trkpt lat="45.20849" lon="5.73721">
        <ele>316.60000610352</ele>
        <time>2021-10-16T03:19:37.000Z</time>
      </trkpt>
      <trkpt lat="45.20851" lon="5.73722">
        <ele>317</ele>
        <time>2021-10-16T03:19:39.000Z</time>
      </trkpt>
      <trkpt lat="45.20851" lon="5.73724">
        <ele>317</ele>
        <time>2021-10-16T03:19:41.000Z</time>
      </trkpt>
      <trkpt lat="45.20854" lon="5.73728">
        <ele>318.20001220703</ele>
        <time>2021-10-16T03:19:44.000Z</time>
      </trkpt>
      <trkpt lat="45.20863" lon="5.73729">
        <ele>319.79998779297</ele>
        <time>2021-10-16T03:19:50.000Z</time>
      </trkpt>
      <trkpt lat="45.20868" lon="5.73729">
        <ele>321</ele>
        <time>2021-10-16T03:19:55.000Z</time>
      </trkpt>
      <trkpt lat="45.20873" lon="5.7373">
        <ele>322</ele>
        <time>2021-10-16T03:19:59.000Z</time>
      </trkpt>
      <trkpt lat="45.20874" lon="5.7373">
        <ele>322.39999389648</ele>
        <time>2021-10-16T03:20:00.000Z</time>
      </trkpt>
      <trkpt lat="45.20877" lon="5.73731">
        <ele>323</ele>
        <time>2021-10-16T03:20:03.000Z</time>
      </trkpt>
      <trkpt lat="45.20878" lon="5.73731">
        <ele>323.20001220703</ele>
        <time>2021-10-16T03:20:04.000Z</time>
      </trkpt>
      <trkpt lat="45.2088" lon="5.73729">
        <ele>324</ele>
        <time>2021-10-16T03:20:07.000Z</time>
      </trkpt>
      <trkpt lat="45.2088" lon="5.73727">
        <ele>324.60000610352</ele>
        <time>2021-10-16T03:20:09.000Z</time>
      </trkpt>
      <trkpt lat="45.20882" lon="5.73724">
        <ele>325</ele>
        <time>2021-10-16T03:20:12.000Z</time>
      </trkpt>
      <trkpt lat="45.20883" lon="5.73723">
        <ele>325.60000610352</ele>
        <time>2021-10-16T03:20:13.000Z</time>
      </trkpt>
      <trkpt lat="45.20883" lon="5.73722">
        <ele>326.20001220703</ele>
        <time>2021-10-16T03:20:14.000Z</time>
      </trkpt>
      <trkpt lat="45.20886" lon="5.73719">
        <ele>327</ele>
        <time>2021-10-16T03:20:17.000Z</time>
      </trkpt>
      <trkpt lat="45.20887" lon="5.73719">
        <ele>327.20001220703</ele>
        <time>2021-10-16T03:20:18.000Z</time>
      </trkpt>
      <trkpt lat="45.20888" lon="5.73716">
        <ele>328.60000610352</ele>
        <time>2021-10-16T03:20:21.000Z</time>
      </trkpt>
      <trkpt lat="45.2089" lon="5.73713">
        <ele>329.39999389648</ele>
        <time>2021-10-16T03:20:25.000Z</time>
      </trkpt>
      <trkpt lat="45.20891" lon="5.73711">
        <ele>329.79998779297</ele>
        <time>2021-10-16T03:20:27.000Z</time>
      </trkpt>
      <trkpt lat="45.20892" lon="5.7371">
        <ele>331</ele>
        <time>2021-10-16T03:20:29.000Z</time>
      </trkpt>
      <trkpt lat="45.20894" lon="5.7371">
        <ele>331.20001220703</ele>
        <time>2021-10-16T03:20:30.000Z</time>
      </trkpt>
      <trkpt lat="45.20895" lon="5.73709">
        <ele>331.39999389648</ele>
        <time>2021-10-16T03:20:31.000Z</time>
      </trkpt>
      <trkpt lat="45.20898" lon="5.73707">
        <ele>332.20001220703</ele>
        <time>2021-10-16T03:20:34.000Z</time>
      </trkpt>
      <trkpt lat="45.20899" lon="5.73706">
        <ele>333.20001220703</ele>
        <time>2021-10-16T03:20:35.000Z</time>
      </trkpt>
      <trkpt lat="45.209" lon="5.73706">
        <ele>333.20001220703</ele>
        <time>2021-10-16T03:20:36.000Z</time>
      </trkpt>
      <trkpt lat="45.20907" lon="5.73704">
        <ele>334.60000610352</ele>
        <time>2021-10-16T03:20:41.000Z</time>
      </trkpt>
      <trkpt lat="45.20908" lon="5.73704">
        <ele>335.60000610352</ele>
        <time>2021-10-16T03:20:43.000Z</time>
      </trkpt>
      <trkpt lat="45.2091" lon="5.73703">
        <ele>336</ele>
        <time>2021-10-16T03:20:45.000Z</time>
      </trkpt>
      <trkpt lat="45.20911" lon="5.73703">
        <ele>336.60000610352</ele>
        <time>2021-10-16T03:20:47.000Z</time>
      </trkpt>
      <trkpt lat="45.20913" lon="5.73702">
        <ele>337.20001220703</ele>
        <time>2021-10-16T03:20:48.000Z</time>
      </trkpt>
      <trkpt lat="45.20913" lon="5.73702">
        <ele>337.79998779297</ele>
        <time>2021-10-16T03:20:49.000Z</time>
      </trkpt>
      <trkpt lat="45.20914" lon="5.73703">
        <ele>338</ele>
        <time>2021-10-16T03:20:50.000Z</time>
      </trkpt>
      <trkpt lat="45.20916" lon="5.73705">
        <ele>338.20001220703</ele>
        <time>2021-10-16T03:20:52.000Z</time>
      </trkpt>
      <trkpt lat="45.20917" lon="5.73705">
        <ele>338.60000610352</ele>
        <time>2021-10-16T03:20:53.000Z</time>
      </trkpt>
      <trkpt lat="45.20919" lon="5.73705">
        <ele>339</ele>
        <time>2021-10-16T03:20:54.000Z</time>
      </trkpt>
      <trkpt lat="45.20921" lon="5.73704">
        <ele>340.20001220703</ele>
        <time>2021-10-16T03:20:56.000Z</time>
      </trkpt>
      <trkpt lat="45.20924" lon="5.73704">
        <ele>340.79998779297</ele>
        <time>2021-10-16T03:20:59.000Z</time>
      </trkpt>
      <trkpt lat="45.20925" lon="5.73703">
        <ele>341.20001220703</ele>
        <time>2021-10-16T03:21:01.000Z</time>
      </trkpt>
      <trkpt lat="45.20926" lon="5.73703">
        <ele>341.79998779297</ele>
        <time>2021-10-16T03:21:02.000Z</time>
      </trkpt>
      <trkpt lat="45.20926" lon="5.73702">
        <ele>342</ele>
        <time>2021-10-16T03:21:03.000Z</time>
      </trkpt>
      <trkpt lat="45.20927" lon="5.73701">
        <ele>342.79998779297</ele>
        <time>2021-10-16T03:21:04.000Z</time>
      </trkpt>
      <trkpt lat="45.20929" lon="5.73701">
        <ele>343</ele>
        <time>2021-10-16T03:21:06.000Z</time>
      </trkpt>
      <trkpt lat="45.20932" lon="5.737">
        <ele>343.39999389648</ele>
        <time>2021-10-16T03:21:08.000Z</time>
      </trkpt>
      <trkpt lat="45.20933" lon="5.737">
        <ele>344</ele>
        <time>2021-10-16T03:21:10.000Z</time>
      </trkpt>
      <trkpt lat="45.20936" lon="5.737">
        <ele>345.20001220703</ele>
        <time>2021-10-16T03:21:13.000Z</time>
      </trkpt>
      <trkpt lat="45.20937" lon="5.737">
        <ele>345.60000610352</ele>
        <time>2021-10-16T03:21:14.000Z</time>
      </trkpt>
      <trkpt lat="45.20938" lon="5.737">
        <ele>345.60000610352</ele>
        <time>2021-10-16T03:21:15.000Z</time>
      </trkpt>
      <trkpt lat="45.2094" lon="5.73697">
        <ele>346.60000610352</ele>
        <time>2021-10-16T03:21:17.000Z</time>
      </trkpt>
      <trkpt lat="45.20942" lon="5.73697">
        <ele>346.79998779297</ele>
        <time>2021-10-16T03:21:18.000Z</time>
      </trkpt>
      <trkpt lat="45.20943" lon="5.73697">
        <ele>347</ele>
        <time>2021-10-16T03:21:19.000Z</time>
      </trkpt>
      <trkpt lat="45.20944" lon="5.73696">
        <ele>347.20001220703</ele>
        <time>2021-10-16T03:21:20.000Z</time>
      </trkpt>
      <trkpt lat="45.20948" lon="5.73693">
        <ele>347.60000610352</ele>
        <time>2021-10-16T03:21:25.000Z</time>
      </trkpt>
      <trkpt lat="45.20951" lon="5.73694">
        <ele>349</ele>
        <time>2021-10-16T03:21:28.000Z</time>
      </trkpt>
      <trkpt lat="45.20958" lon="5.73692">
        <ele>350.79998779297</ele>
        <time>2021-10-16T03:21:33.000Z</time>
      </trkpt>
      <trkpt lat="45.20959" lon="5.7369">
        <ele>351</ele>
        <time>2021-10-16T03:21:35.000Z</time>
      </trkpt>
      <trkpt lat="45.20961" lon="5.73689">
        <ele>351.79998779297</ele>
        <time>2021-10-16T03:21:39.000Z</time>
      </trkpt>
      <trkpt lat="45.20961" lon="5.73688">
        <ele>351.79998779297</ele>
        <time>2021-10-16T03:21:40.000Z</time>
      </trkpt>
      <trkpt lat="45.2096" lon="5.73686">
        <ele>353.39999389648</ele>
        <time>2021-10-16T03:21:42.000Z</time>
      </trkpt>
      <trkpt lat="45.2096" lon="5.73682">
        <ele>354.39999389648</ele>
        <time>2021-10-16T03:21:45.000Z</time>
      </trkpt>
      <trkpt lat="45.20961" lon="5.73681">
        <ele>354.79998779297</ele>
        <time>2021-10-16T03:21:46.000Z</time>
      </trkpt>
      <trkpt lat="45.20962" lon="5.73679">
        <ele>355.79998779297</ele>
        <time>2021-10-16T03:21:49.000Z</time>
      </trkpt>
      <trkpt lat="45.20962" lon="5.73677">
        <ele>356</ele>
        <time>2021-10-16T03:21:50.000Z</time>
      </trkpt>
      <trkpt lat="45.20964" lon="5.73672">
        <ele>357</ele>
        <time>2021-10-16T03:21:55.000Z</time>
      </trkpt>
      <trkpt lat="45.20965" lon="5.73671">
        <ele>357.60000610352</ele>
        <time>2021-10-16T03:21:56.000Z</time>
      </trkpt>
      <trkpt lat="45.20965" lon="5.7367">
        <ele>358</ele>
        <time>2021-10-16T03:21:57.000Z</time>
      </trkpt>
      <trkpt lat="45.20966" lon="5.73665">
        <ele>358.60000610352</ele>
        <time>2021-10-16T03:22:00.000Z</time>
      </trkpt>
      <trkpt lat="45.20967" lon="5.73662">
        <ele>359.39999389648</ele>
        <time>2021-10-16T03:22:02.000Z</time>
      </trkpt>
      <trkpt lat="45.20969" lon="5.73657">
        <ele>360.79998779297</ele>
        <time>2021-10-16T03:22:07.000Z</time>
      </trkpt>
      <trkpt lat="45.2097" lon="5.73657">
        <ele>361</ele>
        <time>2021-10-16T03:22:08.000Z</time>
      </trkpt>
      <trkpt lat="45.20971" lon="5.73653">
        <ele>362</ele>
        <time>2021-10-16T03:22:11.000Z</time>
      </trkpt>
      <trkpt lat="45.20972" lon="5.73652">
        <ele>362.20001220703</ele>
        <time>2021-10-16T03:22:12.000Z</time>
      </trkpt>
      <trkpt lat="45.20972" lon="5.73651">
        <ele>362.79998779297</ele>
        <time>2021-10-16T03:22:13.000Z</time>
      </trkpt>
      <trkpt lat="45.20972" lon="5.7365">
        <ele>363.20001220703</ele>
        <time>2021-10-16T03:22:14.000Z</time>
      </trkpt>
      <trkpt lat="45.20973" lon="5.73648">
        <ele>363.60000610352</ele>
        <time>2021-10-16T03:22:17.000Z</time>
      </trkpt>
      <trkpt lat="45.20974" lon="5.73646">
        <ele>364.39999389648</ele>
        <time>2021-10-16T03:22:19.000Z</time>
      </trkpt>
      <trkpt lat="45.20975" lon="5.73643">
        <ele>365.79998779297</ele>
        <time>2021-10-16T03:22:24.000Z</time>
      </trkpt>
      <trkpt lat="45.20976" lon="5.7364">
        <ele>366.39999389648</ele>
        <time>2021-10-16T03:22:27.000Z</time>
      </trkpt>
      <trkpt lat="45.20976" lon="5.73636">
        <ele>366.79998779297</ele>
        <time>2021-10-16T03:22:30.000Z</time>
      </trkpt>
      <trkpt lat="45.20978" lon="5.73635">
        <ele>368.39999389648</ele>
        <time>2021-10-16T03:22:33.000Z</time>
      </trkpt>
      <trkpt lat="45.20978" lon="5.73631">
        <ele>369.60000610352</ele>
        <time>2021-10-16T03:22:38.000Z</time>
      </trkpt>
      <trkpt lat="45.20977" lon="5.73627">
        <ele>370.39999389648</ele>
        <time>2021-10-16T03:22:41.000Z</time>
      </trkpt>
      <trkpt lat="45.20977" lon="5.73626">
        <ele>370.79998779297</ele>
        <time>2021-10-16T03:22:42.000Z</time>
      </trkpt>
      <trkpt lat="45.20978" lon="5.73622">
        <ele>371.79998779297</ele>
        <time>2021-10-16T03:22:46.000Z</time>
      </trkpt>
      <trkpt lat="45.20978" lon="5.73621">
        <ele>372.79998779297</ele>
        <time>2021-10-16T03:22:47.000Z</time>
      </trkpt>
      <trkpt lat="45.20978" lon="5.73621">
        <ele>372.79998779297</ele>
        <time>2021-10-16T03:22:48.000Z</time>
      </trkpt>
      <trkpt lat="45.20982" lon="5.73616">
        <ele>374.20001220703</ele>
        <time>2021-10-16T03:22:53.000Z</time>
      </trkpt>
      <trkpt lat="45.20984" lon="5.73611">
        <ele>375</ele>
        <time>2021-10-16T03:22:56.000Z</time>
      </trkpt>
      <trkpt lat="45.20985" lon="5.7361">
        <ele>375.20001220703</ele>
        <time>2021-10-16T03:22:57.000Z</time>
      </trkpt>
      <trkpt lat="45.20987" lon="5.73605">
        <ele>376.79998779297</ele>
        <time>2021-10-16T03:23:01.000Z</time>
      </trkpt>
      <trkpt lat="45.20986" lon="5.73603">
        <ele>377.20001220703</ele>
        <time>2021-10-16T03:23:02.000Z</time>
      </trkpt>
      <trkpt lat="45.20986" lon="5.73598">
        <ele>378</ele>
        <time>2021-10-16T03:23:06.000Z</time>
      </trkpt>
      <trkpt lat="45.20987" lon="5.73596">
        <ele>379.20001220703</ele>
        <time>2021-10-16T03:23:08.000Z</time>
      </trkpt>
      <trkpt lat="45.20988" lon="5.73589">
        <ele>380.79998779297</ele>
        <time>2021-10-16T03:23:14.000Z</time>
      </trkpt>
      <trkpt lat="45.20988" lon="5.73588">
        <ele>381.20001220703</ele>
        <time>2021-10-16T03:23:15.000Z</time>
      </trkpt>
      <trkpt lat="45.2099" lon="5.73586">
        <ele>382</ele>
        <time>2021-10-16T03:23:18.000Z</time>
      </trkpt>
      <trkpt lat="45.20992" lon="5.73583">
        <ele>383.20001220703</ele>
        <time>2021-10-16T03:23:22.000Z</time>
      </trkpt>
      <trkpt lat="45.20992" lon="5.73581">
        <ele>384.20001220703</ele>
        <time>2021-10-16T03:23:24.000Z</time>
      </trkpt>
      <trkpt lat="45.20994" lon="5.73574">
        <ele>385.60000610352</ele>
        <time>2021-10-16T03:23:29.000Z</time>
      </trkpt>
      <trkpt lat="45.20994" lon="5.7357">
        <ele>386.79998779297</ele>
        <time>2021-10-16T03:23:33.000Z</time>
      </trkpt>
      <trkpt lat="45.20995" lon="5.73566">
        <ele>388</ele>
        <time>2021-10-16T03:23:36.000Z</time>
      </trkpt>
      <trkpt lat="45.20995" lon="5.73565">
        <ele>388.20001220703</ele>
        <time>2021-10-16T03:23:37.000Z</time>
      </trkpt>
      <trkpt lat="45.20995" lon="5.73561">
        <ele>390</ele>
        <time>2021-10-16T03:23:41.000Z</time>
      </trkpt>
      <trkpt lat="45.20996" lon="5.73559">
        <ele>390.79998779297</ele>
        <time>2021-10-16T03:23:45.000Z</time>
      </trkpt>
      <trkpt lat="45.20997" lon="5.73557">
        <ele>391.39999389648</ele>
        <time>2021-10-16T03:23:46.000Z</time>
      </trkpt>
      <trkpt lat="45.20997" lon="5.73553">
        <ele>391.79998779297</ele>
        <time>2021-10-16T03:23:49.000Z</time>
      </trkpt>
      <trkpt lat="45.20998" lon="5.73551">
        <ele>393</ele>
        <time>2021-10-16T03:23:51.000Z</time>
      </trkpt>
      <trkpt lat="45.20998" lon="5.73548">
        <ele>393.39999389648</ele>
        <time>2021-10-16T03:23:53.000Z</time>
      </trkpt>
      <trkpt lat="45.20998" lon="5.73544">
        <ele>394.20001220703</ele>
        <time>2021-10-16T03:23:57.000Z</time>
      </trkpt>
      <trkpt lat="45.20998" lon="5.73542">
        <ele>395.60000610352</ele>
        <time>2021-10-16T03:24:00.000Z</time>
      </trkpt>
      <trkpt lat="45.20999" lon="5.73539">
        <ele>397.39999389648</ele>
        <time>2021-10-16T03:24:05.000Z</time>
      </trkpt>
      <trkpt lat="45.21" lon="5.73536">
        <ele>397.60000610352</ele>
        <time>2021-10-16T03:24:08.000Z</time>
      </trkpt>
      <trkpt lat="45.21001" lon="5.73533">
        <ele>398.79998779297</ele>
        <time>2021-10-16T03:24:11.000Z</time>
      </trkpt>
      <trkpt lat="45.21003" lon="5.73531">
        <ele>399.39999389648</ele>
        <time>2021-10-16T03:24:14.000Z</time>
      </trkpt>
      <trkpt lat="45.21005" lon="5.73529">
        <ele>400.79998779297</ele>
        <time>2021-10-16T03:24:17.000Z</time>
      </trkpt>
      <trkpt lat="45.21008" lon="5.73526">
        <ele>401.79998779297</ele>
        <time>2021-10-16T03:24:22.000Z</time>
      </trkpt>
      <trkpt lat="45.21008" lon="5.73524">
        <ele>402.39999389648</ele>
        <time>2021-10-16T03:24:23.000Z</time>
      </trkpt>
      <trkpt lat="45.21008" lon="5.73523">
        <ele>403.60000610352</ele>
        <time>2021-10-16T03:24:26.000Z</time>
      </trkpt>
      <trkpt lat="45.21009" lon="5.73522">
        <ele>404</ele>
        <time>2021-10-16T03:24:28.000Z</time>
      </trkpt>
      <trkpt lat="45.21009" lon="5.73519">
        <ele>404.60000610352</ele>
        <time>2021-10-16T03:24:30.000Z</time>
      </trkpt>
      <trkpt lat="45.21009" lon="5.73514">
        <ele>405.39999389648</ele>
        <time>2021-10-16T03:24:33.000Z</time>
      </trkpt>
      <trkpt lat="45.21009" lon="5.73514">
        <ele>406.20001220703</ele>
        <time>2021-10-16T03:24:34.000Z</time>
      </trkpt>
      <trkpt lat="45.2101" lon="5.73511">
        <ele>407.39999389648</ele>
        <time>2021-10-16T03:24:39.000Z</time>
      </trkpt>
      <trkpt lat="45.2101" lon="5.73509">
        <ele>407.60000610352</ele>
        <time>2021-10-16T03:24:40.000Z</time>
      </trkpt>
      <trkpt lat="45.21009" lon="5.73502">
        <ele>408.79998779297</ele>
        <time>2021-10-16T03:24:45.000Z</time>
      </trkpt>
      <trkpt lat="45.21009" lon="5.735">
        <ele>410.20001220703</ele>
        <time>2021-10-16T03:24:48.000Z</time>
      </trkpt>
      <trkpt lat="45.21009" lon="5.73497">
        <ele>411</ele>
        <time>2021-10-16T03:24:50.000Z</time>
      </trkpt>
      <trkpt lat="45.21009" lon="5.73496">
        <ele>411.60000610352</ele>
        <time>2021-10-16T03:24:51.000Z</time>
      </trkpt>
      <trkpt lat="45.21011" lon="5.73492">
        <ele>412.60000610352</ele>
        <time>2021-10-16T03:24:56.000Z</time>
      </trkpt>
      <trkpt lat="45.21011" lon="5.7349">
        <ele>413.60000610352</ele>
        <time>2021-10-16T03:24:59.000Z</time>
      </trkpt>
      <trkpt lat="45.21011" lon="5.73488">
        <ele>414.39999389648</ele>
        <time>2021-10-16T03:25:01.000Z</time>
      </trkpt>
      <trkpt lat="45.21012" lon="5.73486">
        <ele>415</ele>
        <time>2021-10-16T03:25:02.000Z</time>
      </trkpt>
      <trkpt lat="45.21013" lon="5.73482">
        <ele>416.20001220703</ele>
        <time>2021-10-16T03:25:05.000Z</time>
      </trkpt>
      <trkpt lat="45.21013" lon="5.7348">
        <ele>416.20001220703</ele>
        <time>2021-10-16T03:25:07.000Z</time>
      </trkpt>
      <trkpt lat="45.21013" lon="5.73479">
        <ele>417.20001220703</ele>
        <time>2021-10-16T03:25:09.000Z</time>
      </trkpt>
      <trkpt lat="45.21013" lon="5.73477">
        <ele>418.39999389648</ele>
        <time>2021-10-16T03:25:13.000Z</time>
      </trkpt>
      <trkpt lat="45.21013" lon="5.73476">
        <ele>418.39999389648</ele>
        <time>2021-10-16T03:25:14.000Z</time>
      </trkpt>
      <trkpt lat="45.21013" lon="5.73476">
        <ele>419.39999389648</ele>
        <time>2021-10-16T03:25:16.000Z</time>
      </trkpt>
      <trkpt lat="45.21012" lon="5.73477">
        <ele>419.60000610352</ele>
        <time>2021-10-16T03:25:18.000Z</time>
      </trkpt>
      <trkpt lat="45.21013" lon="5.73476">
        <ele>420.39999389648</ele>
        <time>2021-10-16T03:25:20.000Z</time>
      </trkpt>
      <trkpt lat="45.21012" lon="5.73475">
        <ele>421.79998779297</ele>
        <time>2021-10-16T03:25:22.000Z</time>
      </trkpt>
      <trkpt lat="45.21012" lon="5.73474">
        <ele>422.20001220703</ele>
        <time>2021-10-16T03:25:23.000Z</time>
      </trkpt>
      <trkpt lat="45.21012" lon="5.73472">
        <ele>423</ele>
        <time>2021-10-16T03:25:26.000Z</time>
      </trkpt>
      <trkpt lat="45.21011" lon="5.7347">
        <ele>423.79998779297</ele>
        <time>2021-10-16T03:25:30.000Z</time>
      </trkpt>
      <trkpt lat="45.21011" lon="5.73469">
        <ele>424.20001220703</ele>
        <time>2021-10-16T03:25:31.000Z</time>
      </trkpt>
      <trkpt lat="45.21009" lon="5.73469">
        <ele>425.20001220703</ele>
        <time>2021-10-16T03:25:35.000Z</time>
      </trkpt>
      <trkpt lat="45.21008" lon="5.73466">
        <ele>426.20001220703</ele>
        <time>2021-10-16T03:25:38.000Z</time>
      </trkpt>
      <trkpt lat="45.21008" lon="5.73466">
        <ele>426.39999389648</ele>
        <time>2021-10-16T03:25:39.000Z</time>
      </trkpt>
      <trkpt lat="45.21007" lon="5.73465">
        <ele>427.39999389648</ele>
        <time>2021-10-16T03:25:41.000Z</time>
      </trkpt>
      <trkpt lat="45.21006" lon="5.73466">
        <ele>428.39999389648</ele>
        <time>2021-10-16T03:25:44.000Z</time>
      </trkpt>
      <trkpt lat="45.21006" lon="5.73467">
        <ele>428.79998779297</ele>
        <time>2021-10-16T03:25:45.000Z</time>
      </trkpt>
      <trkpt lat="45.21003" lon="5.73468">
        <ele>429.79998779297</ele>
        <time>2021-10-16T03:25:49.000Z</time>
      </trkpt>
      <trkpt lat="45.21003" lon="5.73467">
        <ele>430</ele>
        <time>2021-10-16T03:25:50.000Z</time>
      </trkpt>
      <trkpt lat="45.20998" lon="5.73463">
        <ele>431</ele>
        <time>2021-10-16T03:25:55.000Z</time>
      </trkpt>
      <trkpt lat="45.20997" lon="5.73458">
        <ele>432.39999389648</ele>
        <time>2021-10-16T03:25:59.000Z</time>
      </trkpt>
      <trkpt lat="45.20996" lon="5.73457">
        <ele>432.60000610352</ele>
        <time>2021-10-16T03:26:01.000Z</time>
      </trkpt>
      <trkpt lat="45.20995" lon="5.73457">
        <ele>433.39999389648</ele>
        <time>2021-10-16T03:26:03.000Z</time>
      </trkpt>
      <trkpt lat="45.2099" lon="5.7345">
        <ele>434.20001220703</ele>
        <time>2021-10-16T03:26:08.000Z</time>
      </trkpt>
      <trkpt lat="45.20989" lon="5.73447">
        <ele>434.60000610352</ele>
        <time>2021-10-16T03:26:10.000Z</time>
      </trkpt>
      <trkpt lat="45.20987" lon="5.73446">
        <ele>435.39999389648</ele>
        <time>2021-10-16T03:26:13.000Z</time>
      </trkpt>
      <trkpt lat="45.20986" lon="5.73446">
        <ele>435.79998779297</ele>
        <time>2021-10-16T03:26:14.000Z</time>
      </trkpt>
      <trkpt lat="45.20986" lon="5.73446">
        <ele>436.20001220703</ele>
        <time>2021-10-16T03:26:15.000Z</time>
      </trkpt>
      <trkpt lat="45.20984" lon="5.73444">
        <ele>436.79998779297</ele>
        <time>2021-10-16T03:26:18.000Z</time>
      </trkpt>
      <trkpt lat="45.20981" lon="5.73441">
        <ele>437.79998779297</ele>
        <time>2021-10-16T03:26:23.000Z</time>
      </trkpt>
      <trkpt lat="45.2098" lon="5.7344">
        <ele>438</ele>
        <time>2021-10-16T03:26:24.000Z</time>
      </trkpt>
      <trkpt lat="45.20978" lon="5.73439">
        <ele>439</ele>
        <time>2021-10-16T03:26:27.000Z</time>
      </trkpt>
      <trkpt lat="45.20977" lon="5.73437">
        <ele>440.20001220703</ele>
        <time>2021-10-16T03:26:31.000Z</time>
      </trkpt>
      <trkpt lat="45.20976" lon="5.73436">
        <ele>440.79998779297</ele>
        <time>2021-10-16T03:26:33.000Z</time>
      </trkpt>
      <trkpt lat="45.20974" lon="5.73435">
        <ele>441.20001220703</ele>
        <time>2021-10-16T03:26:35.000Z</time>
      </trkpt>
      <trkpt lat="45.20973" lon="5.73435">
        <ele>442</ele>
        <time>2021-10-16T03:26:37.000Z</time>
      </trkpt>
      <trkpt lat="45.20972" lon="5.73435">
        <ele>442.20001220703</ele>
        <time>2021-10-16T03:26:38.000Z</time>
      </trkpt>
      <trkpt lat="45.2097" lon="5.73432">
        <ele>443.39999389648</ele>
        <time>2021-10-16T03:26:41.000Z</time>
      </trkpt>
      <trkpt lat="45.2097" lon="5.73427">
        <ele>443.79998779297</ele>
        <time>2021-10-16T03:26:43.000Z</time>
      </trkpt>
      <trkpt lat="45.20969" lon="5.73425">
        <ele>445</ele>
        <time>2021-10-16T03:26:46.000Z</time>
      </trkpt>
      <trkpt lat="45.20968" lon="5.73424">
        <ele>445</ele>
        <time>2021-10-16T03:26:47.000Z</time>
      </trkpt>
      <trkpt lat="45.20968" lon="5.73422">
        <ele>446.20001220703</ele>
        <time>2021-10-16T03:26:49.000Z</time>
      </trkpt>
      <trkpt lat="45.20965" lon="5.73419">
        <ele>447</ele>
        <time>2021-10-16T03:26:53.000Z</time>
      </trkpt>
      <trkpt lat="45.20965" lon="5.73418">
        <ele>447.20001220703</ele>
        <time>2021-10-16T03:26:54.000Z</time>
      </trkpt>
      <trkpt lat="45.20962" lon="5.73417">
        <ele>448.79998779297</ele>
        <time>2021-10-16T03:26:58.000Z</time>
      </trkpt>
      <trkpt lat="45.2096" lon="5.73416">
        <ele>449.39999389648</ele>
        <time>2021-10-16T03:27:00.000Z</time>
      </trkpt>
      <trkpt lat="45.20959" lon="5.73416">
        <ele>450.39999389648</ele>
        <time>2021-10-16T03:27:02.000Z</time>
      </trkpt>
      <trkpt lat="45.20958" lon="5.73415">
        <ele>451</ele>
        <time>2021-10-16T03:27:05.000Z</time>
      </trkpt>
      <trkpt lat="45.20957" lon="5.73415">
        <ele>451.39999389648</ele>
        <time>2021-10-16T03:27:06.000Z</time>
      </trkpt>
      <trkpt lat="45.20957" lon="5.73411">
        <ele>452.60000610352</ele>
        <time>2021-10-16T03:27:10.000Z</time>
      </trkpt>
      <trkpt lat="45.20955" lon="5.73409">
        <ele>454.20001220703</ele>
        <time>2021-10-16T03:27:15.000Z</time>
      </trkpt>
      <trkpt lat="45.20955" lon="5.73408">
        <ele>454.60000610352</ele>
        <time>2021-10-16T03:27:16.000Z</time>
      </trkpt>
      <trkpt lat="45.20954" lon="5.73406">
        <ele>455.39999389648</ele>
        <time>2021-10-16T03:27:17.000Z</time>
      </trkpt>
      <trkpt lat="45.20952" lon="5.73401">
        <ele>456.39999389648</ele>
        <time>2021-10-16T03:27:21.000Z</time>
      </trkpt>
      <trkpt lat="45.20951" lon="5.734">
        <ele>456.79998779297</ele>
        <time>2021-10-16T03:27:23.000Z</time>
      </trkpt>
      <trkpt lat="45.20945" lon="5.73397">
        <ele>456.39999389648</ele>
        <time>2021-10-16T03:27:29.000Z</time>
      </trkpt>
      <trkpt lat="45.20938" lon="5.73392">
        <ele>455.39999389648</ele>
        <time>2021-10-16T03:27:34.000Z</time>
      </trkpt>
      <trkpt lat="45.20936" lon="5.73392">
        <ele>455.39999389648</ele>
        <time>2021-10-16T03:27:35.000Z</time>
      </trkpt>
      <trkpt lat="45.20928" lon="5.73389">
        <ele>456.60000610352</ele>
        <time>2021-10-16T03:27:40.000Z</time>
      </trkpt>
      <trkpt lat="45.20927" lon="5.73389">
        <ele>456.79998779297</ele>
        <time>2021-10-16T03:27:41.000Z</time>
      </trkpt>
      <trkpt lat="45.20926" lon="5.73388">
        <ele>457.60000610352</ele>
        <time>2021-10-16T03:27:42.000Z</time>
      </trkpt>
      <trkpt lat="45.20925" lon="5.73387">
        <ele>457.79998779297</ele>
        <time>2021-10-16T03:27:43.000Z</time>
      </trkpt>
      <trkpt lat="45.20925" lon="5.73386">
        <ele>458</ele>
        <time>2021-10-16T03:27:44.000Z</time>
      </trkpt>
      <trkpt lat="45.20924" lon="5.73385">
        <ele>458.20001220703</ele>
        <time>2021-10-16T03:27:45.000Z</time>
      </trkpt>
      <trkpt lat="45.20923" lon="5.73381">
        <ele>459.39999389648</ele>
        <time>2021-10-16T03:27:47.000Z</time>
      </trkpt>
      <trkpt lat="45.20922" lon="5.7338">
        <ele>459.60000610352</ele>
        <time>2021-10-16T03:27:48.000Z</time>
      </trkpt>
      <trkpt lat="45.2092" lon="5.73376">
        <ele>460.39999389648</ele>
        <time>2021-10-16T03:27:52.000Z</time>
      </trkpt>
      <trkpt lat="45.20919" lon="5.73375">
        <ele>461.20001220703</ele>
        <time>2021-10-16T03:27:53.000Z</time>
      </trkpt>
      <trkpt lat="45.20915" lon="5.73372">
        <ele>463</ele>
        <time>2021-10-16T03:27:58.000Z</time>
      </trkpt>
      <trkpt lat="45.20915" lon="5.73371">
        <ele>463.39999389648</ele>
        <time>2021-10-16T03:27:59.000Z</time>
      </trkpt>
      <trkpt lat="45.20914" lon="5.73368">
        <ele>464.20001220703</ele>
        <time>2021-10-16T03:28:02.000Z</time>
      </trkpt>
      <trkpt lat="45.20913" lon="5.73368">
        <ele>464.20001220703</ele>
        <time>2021-10-16T03:28:04.000Z</time>
      </trkpt>
      <trkpt lat="45.20912" lon="5.73368">
        <ele>465.39999389648</ele>
        <time>2021-10-16T03:28:05.000Z</time>
      </trkpt>
      <trkpt lat="45.20911" lon="5.73363">
        <ele>466.60000610352</ele>
        <time>2021-10-16T03:28:09.000Z</time>
      </trkpt>
      <trkpt lat="45.20911" lon="5.73362">
        <ele>467</ele>
        <time>2021-10-16T03:28:10.000Z</time>
      </trkpt>
      <trkpt lat="45.20908" lon="5.73364">
        <ele>467.79998779297</ele>
        <time>2021-10-16T03:28:14.000Z</time>
      </trkpt>
      <trkpt lat="45.20907" lon="5.73364">
        <ele>467.79998779297</ele>
        <time>2021-10-16T03:28:15.000Z</time>
      </trkpt>
      <trkpt lat="45.20905" lon="5.73364">
        <ele>469.20001220703</ele>
        <time>2021-10-16T03:28:17.000Z</time>
      </trkpt>
      <trkpt lat="45.20903" lon="5.73361">
        <ele>469.79998779297</ele>
        <time>2021-10-16T03:28:20.000Z</time>
      </trkpt>
      <trkpt lat="45.20902" lon="5.7336">
        <ele>470</ele>
        <time>2021-10-16T03:28:21.000Z</time>
      </trkpt>
      <trkpt lat="45.20901" lon="5.7336">
        <ele>470.39999389648</ele>
        <time>2021-10-16T03:28:22.000Z</time>
      </trkpt>
      <trkpt lat="45.209" lon="5.73357">
        <ele>471.60000610352</ele>
        <time>2021-10-16T03:28:25.000Z</time>
      </trkpt>
      <trkpt lat="45.20898" lon="5.73354">
        <ele>472</ele>
        <time>2021-10-16T03:28:27.000Z</time>
      </trkpt>
      <trkpt lat="45.20895" lon="5.73354">
        <ele>472.60000610352</ele>
        <time>2021-10-16T03:28:29.000Z</time>
      </trkpt>
      <trkpt lat="45.20893" lon="5.73353">
        <ele>473</ele>
        <time>2021-10-16T03:28:31.000Z</time>
      </trkpt>
      <trkpt lat="45.20891" lon="5.73353">
        <ele>473.79998779297</ele>
        <time>2021-10-16T03:28:33.000Z</time>
      </trkpt>
      <trkpt lat="45.20889" lon="5.73353">
        <ele>474.60000610352</ele>
        <time>2021-10-16T03:28:35.000Z</time>
      </trkpt>
      <trkpt lat="45.20887" lon="5.73352">
        <ele>475</ele>
        <time>2021-10-16T03:28:37.000Z</time>
      </trkpt>
      <trkpt lat="45.20886" lon="5.73352">
        <ele>475.20001220703</ele>
        <time>2021-10-16T03:28:38.000Z</time>
      </trkpt>
      <trkpt lat="45.20883" lon="5.73351">
        <ele>476.39999389648</ele>
        <time>2021-10-16T03:28:42.000Z</time>
      </trkpt>
      <trkpt lat="45.20882" lon="5.73349">
        <ele>477</ele>
        <time>2021-10-16T03:28:44.000Z</time>
      </trkpt>
      <trkpt lat="45.20881" lon="5.73349">
        <ele>477.39999389648</ele>
        <time>2021-10-16T03:28:45.000Z</time>
      </trkpt>
      <trkpt lat="45.20877" lon="5.73348">
        <ele>478.60000610352</ele>
        <time>2021-10-16T03:28:50.000Z</time>
      </trkpt>
      <trkpt lat="45.20876" lon="5.73348">
        <ele>479.79998779297</ele>
        <time>2021-10-16T03:28:52.000Z</time>
      </trkpt>
      <trkpt lat="45.20873" lon="5.73347">
        <ele>480.20001220703</ele>
        <time>2021-10-16T03:28:55.000Z</time>
      </trkpt>
      <trkpt lat="45.2087" lon="5.73346">
        <ele>480.79998779297</ele>
        <time>2021-10-16T03:28:58.000Z</time>
      </trkpt>
      <trkpt lat="45.2087" lon="5.73346">
        <ele>481</ele>
        <time>2021-10-16T03:28:59.000Z</time>
      </trkpt>
      <trkpt lat="45.20868" lon="5.73345">
        <ele>482</ele>
        <time>2021-10-16T03:29:01.000Z</time>
      </trkpt>
      <trkpt lat="45.20866" lon="5.73345">
        <ele>483.20001220703</ele>
        <time>2021-10-16T03:29:03.000Z</time>
      </trkpt>
      <trkpt lat="45.20862" lon="5.73343">
        <ele>483.79998779297</ele>
        <time>2021-10-16T03:29:07.000Z</time>
      </trkpt>
      <trkpt lat="45.2086" lon="5.73342">
        <ele>484.39999389648</ele>
        <time>2021-10-16T03:29:09.000Z</time>
      </trkpt>
      <trkpt lat="45.2086" lon="5.73342">
        <ele>484.39999389648</ele>
        <time>2021-10-16T03:29:10.000Z</time>
      </trkpt>
      <trkpt lat="45.20859" lon="5.7334">
        <ele>485.60000610352</ele>
        <time>2021-10-16T03:29:12.000Z</time>
      </trkpt>
      <trkpt lat="45.20858" lon="5.73334">
        <ele>486.79998779297</ele>
        <time>2021-10-16T03:29:16.000Z</time>
      </trkpt>
      <trkpt lat="45.20857" lon="5.73329">
        <ele>487.39999389648</ele>
        <time>2021-10-16T03:29:18.000Z</time>
      </trkpt>
      <trkpt lat="45.20857" lon="5.73328">
        <ele>488</ele>
        <time>2021-10-16T03:29:19.000Z</time>
      </trkpt>
      <trkpt lat="45.20857" lon="5.73326">
        <ele>488.60000610352</ele>
        <time>2021-10-16T03:29:21.000Z</time>
      </trkpt>
      <trkpt lat="45.20856" lon="5.7332">
        <ele>489.20001220703</ele>
        <time>2021-10-16T03:29:24.000Z</time>
      </trkpt>
      <trkpt lat="45.20855" lon="5.73316">
        <ele>489.79998779297</ele>
        <time>2021-10-16T03:29:27.000Z</time>
      </trkpt>
      <trkpt lat="45.20856" lon="5.73314">
        <ele>490.60000610352</ele>
        <time>2021-10-16T03:29:29.000Z</time>
      </trkpt>
      <trkpt lat="45.20857" lon="5.73313">
        <ele>490.79998779297</ele>
        <time>2021-10-16T03:29:30.000Z</time>
      </trkpt>
      <trkpt lat="45.20862" lon="5.73313">
        <ele>492.39999389648</ele>
        <time>2021-10-16T03:29:36.000Z</time>
      </trkpt>
      <trkpt lat="45.20862" lon="5.73313">
        <ele>492.39999389648</ele>
        <time>2021-10-16T03:29:37.000Z</time>
      </trkpt>
      <trkpt lat="45.20864" lon="5.73311">
        <ele>492.60000610352</ele>
        <time>2021-10-16T03:29:39.000Z</time>
      </trkpt>
      <trkpt lat="45.20867" lon="5.7331">
        <ele>493.20001220703</ele>
        <time>2021-10-16T03:29:41.000Z</time>
      </trkpt>
      <trkpt lat="45.20867" lon="5.73311">
        <ele>493.20001220703</ele>
        <time>2021-10-16T03:29:42.000Z</time>
      </trkpt>
      <trkpt lat="45.20868" lon="5.73312">
        <ele>493.60000610352</ele>
        <time>2021-10-16T03:29:43.000Z</time>
      </trkpt>
      <trkpt lat="45.20877" lon="5.73313">
        <ele>495</ele>
        <time>2021-10-16T03:29:49.000Z</time>
      </trkpt>
      <trkpt lat="45.20885" lon="5.73314">
        <ele>496</ele>
        <time>2021-10-16T03:29:55.000Z</time>
      </trkpt>
      <trkpt lat="45.2089" lon="5.73312">
        <ele>497.60000610352</ele>
        <time>2021-10-16T03:30:00.000Z</time>
      </trkpt>
      <trkpt lat="45.209" lon="5.73309">
        <ele>498.79998779297</ele>
        <time>2021-10-16T03:30:07.000Z</time>
      </trkpt>
      <trkpt lat="45.20901" lon="5.73309">
        <ele>498.79998779297</ele>
        <time>2021-10-16T03:30:08.000Z</time>
      </trkpt>
      <trkpt lat="45.20905" lon="5.73308">
        <ele>499.60000610352</ele>
        <time>2021-10-16T03:30:12.000Z</time>
      </trkpt>
      <trkpt lat="45.20906" lon="5.73307">
        <ele>499.79998779297</ele>
        <time>2021-10-16T03:30:13.000Z</time>
      </trkpt>
      <trkpt lat="45.20912" lon="5.73304">
        <ele>500.79998779297</ele>
        <time>2021-10-16T03:30:18.000Z</time>
      </trkpt>
      <trkpt lat="45.20913" lon="5.73305">
        <ele>501</ele>
        <time>2021-10-16T03:30:19.000Z</time>
      </trkpt>
      <trkpt lat="45.20917" lon="5.73304">
        <ele>502.20001220703</ele>
        <time>2021-10-16T03:30:23.000Z</time>
      </trkpt>
      <trkpt lat="45.20918" lon="5.73304">
        <ele>502.20001220703</ele>
        <time>2021-10-16T03:30:24.000Z</time>
      </trkpt>
      <trkpt lat="45.20922" lon="5.73306">
        <ele>502.60000610352</ele>
        <time>2021-10-16T03:30:26.000Z</time>
      </trkpt>
      <trkpt lat="45.20925" lon="5.73309">
        <ele>503.20001220703</ele>
        <time>2021-10-16T03:30:29.000Z</time>
      </trkpt>
      <trkpt lat="45.20927" lon="5.73309">
        <ele>503.39999389648</ele>
        <time>2021-10-16T03:30:30.000Z</time>
      </trkpt>
      <trkpt lat="45.20932" lon="5.73309">
        <ele>503.79998779297</ele>
        <time>2021-10-16T03:30:33.000Z</time>
      </trkpt>
      <trkpt lat="45.20934" lon="5.73309">
        <ele>504.39999389648</ele>
        <time>2021-10-16T03:30:34.000Z</time>
      </trkpt>
      <trkpt lat="45.20937" lon="5.7331">
        <ele>504.60000610352</ele>
        <time>2021-10-16T03:30:37.000Z</time>
      </trkpt>
      <trkpt lat="45.20939" lon="5.7331">
        <ele>505.39999389648</ele>
        <time>2021-10-16T03:30:39.000Z</time>
      </trkpt>
      <trkpt lat="45.20943" lon="5.7331">
        <ele>505.79998779297</ele>
        <time>2021-10-16T03:30:42.000Z</time>
      </trkpt>
      <trkpt lat="45.20946" lon="5.73309">
        <ele>506.79998779297</ele>
        <time>2021-10-16T03:30:45.000Z</time>
      </trkpt>
      <trkpt lat="45.20947" lon="5.73309">
        <ele>506.79998779297</ele>
        <time>2021-10-16T03:30:46.000Z</time>
      </trkpt>
      <trkpt lat="45.20951" lon="5.73308">
        <ele>507.39999389648</ele>
        <time>2021-10-16T03:30:50.000Z</time>
      </trkpt>
      <trkpt lat="45.20952" lon="5.73308">
        <ele>508</ele>
        <time>2021-10-16T03:30:51.000Z</time>
      </trkpt>
      <trkpt lat="45.20955" lon="5.73307">
        <ele>508.60000610352</ele>
        <time>2021-10-16T03:30:53.000Z</time>
      </trkpt>
      <trkpt lat="45.20956" lon="5.73306">
        <ele>508.60000610352</ele>
        <time>2021-10-16T03:30:54.000Z</time>
      </trkpt>
      <trkpt lat="45.20959" lon="5.733">
        <ele>509.20001220703</ele>
        <time>2021-10-16T03:30:57.000Z</time>
      </trkpt>
      <trkpt lat="45.2096" lon="5.733">
        <ele>509.39999389648</ele>
        <time>2021-10-16T03:30:58.000Z</time>
      </trkpt>
      <trkpt lat="45.20961" lon="5.73299">
        <ele>509.39999389648</ele>
        <time>2021-10-16T03:30:59.000Z</time>
      </trkpt>
      <trkpt lat="45.20963" lon="5.73299">
        <ele>509.79998779297</ele>
        <time>2021-10-16T03:31:01.000Z</time>
      </trkpt>
      <trkpt lat="45.20966" lon="5.73299">
        <ele>510.39999389648</ele>
        <time>2021-10-16T03:31:03.000Z</time>
      </trkpt>
      <trkpt lat="45.2097" lon="5.73299">
        <ele>511</ele>
        <time>2021-10-16T03:31:06.000Z</time>
      </trkpt>
      <trkpt lat="45.20973" lon="5.73299">
        <ele>511.79998779297</ele>
        <time>2021-10-16T03:31:08.000Z</time>
      </trkpt>
      <trkpt lat="45.20976" lon="5.73298">
        <ele>512.20001220703</ele>
        <time>2021-10-16T03:31:11.000Z</time>
      </trkpt>
      <trkpt lat="45.20978" lon="5.73298">
        <ele>512.20001220703</ele>
        <time>2021-10-16T03:31:12.000Z</time>
      </trkpt>
      <trkpt lat="45.20979" lon="5.73298">
        <ele>512.79998779297</ele>
        <time>2021-10-16T03:31:13.000Z</time>
      </trkpt>
      <trkpt lat="45.20981" lon="5.73298">
        <ele>513.20001220703</ele>
        <time>2021-10-16T03:31:14.000Z</time>
      </trkpt>
      <trkpt lat="45.20986" lon="5.73297">
        <ele>514.40002441406</ele>
        <time>2021-10-16T03:31:18.000Z</time>
      </trkpt>
      <trkpt lat="45.20985" lon="5.73297">
        <ele>515.20001220703</ele>
        <time>2021-10-16T03:31:22.000Z</time>
      </trkpt>
      <trkpt lat="45.20984" lon="5.73297">
        <ele>515.59997558594</ele>
        <time>2021-10-16T03:31:23.000Z</time>
      </trkpt>
      <trkpt lat="45.20982" lon="5.73299">
        <ele>516.20001220703</ele>
        <time>2021-10-16T03:31:25.000Z</time>
      </trkpt>
      <trkpt lat="45.2098" lon="5.73299">
        <ele>516.20001220703</ele>
        <time>2021-10-16T03:31:27.000Z</time>
      </trkpt>
      <trkpt lat="45.20979" lon="5.73301">
        <ele>517</ele>
        <time>2021-10-16T03:31:28.000Z</time>
      </trkpt>
      <trkpt lat="45.20977" lon="5.73301">
        <ele>517</ele>
        <time>2021-10-16T03:31:30.000Z</time>
      </trkpt>
      <trkpt lat="45.20973" lon="5.73299">
        <ele>518</ele>
        <time>2021-10-16T03:31:34.000Z</time>
      </trkpt>
      <trkpt lat="45.20968" lon="5.73298">
        <ele>519.59997558594</ele>
        <time>2021-10-16T03:31:39.000Z</time>
      </trkpt>
      <trkpt lat="45.20968" lon="5.73297">
        <ele>519.79998779297</ele>
        <time>2021-10-16T03:31:40.000Z</time>
      </trkpt>
      <trkpt lat="45.20963" lon="5.73294">
        <ele>520</ele>
        <time>2021-10-16T03:31:44.000Z</time>
      </trkpt>
      <trkpt lat="45.20961" lon="5.73295">
        <ele>520.59997558594</ele>
        <time>2021-10-16T03:31:46.000Z</time>
      </trkpt>
      <trkpt lat="45.2096" lon="5.73296">
        <ele>520.79998779297</ele>
        <time>2021-10-16T03:31:47.000Z</time>
      </trkpt>
      <trkpt lat="45.20955" lon="5.73295">
        <ele>521.40002441406</ele>
        <time>2021-10-16T03:31:51.000Z</time>
      </trkpt>
      <trkpt lat="45.20953" lon="5.73295">
        <ele>522.20001220703</ele>
        <time>2021-10-16T03:31:53.000Z</time>
      </trkpt>
      <trkpt lat="45.20944" lon="5.73294">
        <ele>523.20001220703</ele>
        <time>2021-10-16T03:32:00.000Z</time>
      </trkpt>
      <trkpt lat="45.20943" lon="5.73292">
        <ele>523.79998779297</ele>
        <time>2021-10-16T03:32:01.000Z</time>
      </trkpt>
      <trkpt lat="45.2094" lon="5.73288">
        <ele>524.40002441406</ele>
        <time>2021-10-16T03:32:04.000Z</time>
      </trkpt>
      <trkpt lat="45.20939" lon="5.73287">
        <ele>524.59997558594</ele>
        <time>2021-10-16T03:32:05.000Z</time>
      </trkpt>
      <trkpt lat="45.20939" lon="5.73285">
        <ele>525</ele>
        <time>2021-10-16T03:32:06.000Z</time>
      </trkpt>
      <trkpt lat="45.20934" lon="5.7328">
        <ele>525.79998779297</ele>
        <time>2021-10-16T03:32:10.000Z</time>
      </trkpt>
      <trkpt lat="45.20931" lon="5.73277">
        <ele>526.40002441406</ele>
        <time>2021-10-16T03:32:13.000Z</time>
      </trkpt>
      <trkpt lat="45.20926" lon="5.73274">
        <ele>527.20001220703</ele>
        <time>2021-10-16T03:32:16.000Z</time>
      </trkpt>
      <trkpt lat="45.20919" lon="5.73273">
        <ele>528</ele>
        <time>2021-10-16T03:32:21.000Z</time>
      </trkpt>
      <trkpt lat="45.20918" lon="5.73272">
        <ele>528</ele>
        <time>2021-10-16T03:32:22.000Z</time>
      </trkpt>
      <trkpt lat="45.20917" lon="5.73272">
        <ele>529.20001220703</ele>
        <time>2021-10-16T03:32:23.000Z</time>
      </trkpt>
      <trkpt lat="45.20912" lon="5.73268">
        <ele>529.59997558594</ele>
        <time>2021-10-16T03:32:27.000Z</time>
      </trkpt>
      <trkpt lat="45.2091" lon="5.73266">
        <ele>530.40002441406</ele>
        <time>2021-10-16T03:32:29.000Z</time>
      </trkpt>
      <trkpt lat="45.20908" lon="5.73265">
        <ele>530.59997558594</ele>
        <time>2021-10-16T03:32:31.000Z</time>
      </trkpt>
      <trkpt lat="45.20909" lon="5.73263">
        <ele>531</ele>
        <time>2021-10-16T03:32:32.000Z</time>
      </trkpt>
      <trkpt lat="45.2091" lon="5.73262">
        <ele>531</ele>
        <time>2021-10-16T03:32:33.000Z</time>
      </trkpt>
      <trkpt lat="45.2091" lon="5.73262">
        <ele>531.59997558594</ele>
        <time>2021-10-16T03:32:34.000Z</time>
      </trkpt>
      <trkpt lat="45.20914" lon="5.73262">
        <ele>532.20001220703</ele>
        <time>2021-10-16T03:32:37.000Z</time>
      </trkpt>
      <trkpt lat="45.20917" lon="5.73261">
        <ele>533</ele>
        <time>2021-10-16T03:32:40.000Z</time>
      </trkpt>
      <trkpt lat="45.20925" lon="5.73262">
        <ele>533.40002441406</ele>
        <time>2021-10-16T03:32:44.000Z</time>
      </trkpt>
      <trkpt lat="45.20928" lon="5.73263">
        <ele>534</ele>
        <time>2021-10-16T03:32:46.000Z</time>
      </trkpt>
      <trkpt lat="45.20931" lon="5.73262">
        <ele>534.59997558594</ele>
        <time>2021-10-16T03:32:50.000Z</time>
      </trkpt>
      <trkpt lat="45.20932" lon="5.73262">
        <ele>534.79998779297</ele>
        <time>2021-10-16T03:32:51.000Z</time>
      </trkpt>
      <trkpt lat="45.20933" lon="5.73261">
        <ele>535.20001220703</ele>
        <time>2021-10-16T03:32:52.000Z</time>
      </trkpt>
      <trkpt lat="45.20939" lon="5.73262">
        <ele>536.40002441406</ele>
        <time>2021-10-16T03:32:58.000Z</time>
      </trkpt>
      <trkpt lat="45.2094" lon="5.73262">
        <ele>537</ele>
        <time>2021-10-16T03:32:59.000Z</time>
      </trkpt>
      <trkpt lat="45.20942" lon="5.73262">
        <ele>537.40002441406</ele>
        <time>2021-10-16T03:33:01.000Z</time>
      </trkpt>
      <trkpt lat="45.20943" lon="5.73262">
        <ele>537.59997558594</ele>
        <time>2021-10-16T03:33:02.000Z</time>
      </trkpt>
      <trkpt lat="45.20947" lon="5.7326">
        <ele>538</ele>
        <time>2021-10-16T03:33:06.000Z</time>
      </trkpt>
      <trkpt lat="45.20948" lon="5.73259">
        <ele>539</ele>
        <time>2021-10-16T03:33:07.000Z</time>
      </trkpt>
      <trkpt lat="45.20952" lon="5.73256">
        <ele>540.40002441406</ele>
        <time>2021-10-16T03:33:12.000Z</time>
      </trkpt>
      <trkpt lat="45.20953" lon="5.73255">
        <ele>540.40002441406</ele>
        <time>2021-10-16T03:33:13.000Z</time>
      </trkpt>
      <trkpt lat="45.20955" lon="5.73254">
        <ele>540.59997558594</ele>
        <time>2021-10-16T03:33:15.000Z</time>
      </trkpt>
      <trkpt lat="45.20959" lon="5.73251">
        <ele>541.40002441406</ele>
        <time>2021-10-16T03:33:19.000Z</time>
      </trkpt>
      <trkpt lat="45.20966" lon="5.73249">
        <ele>542.40002441406</ele>
        <time>2021-10-16T03:33:25.000Z</time>
      </trkpt>
      <trkpt lat="45.20968" lon="5.73249">
        <ele>542.79998779297</ele>
        <time>2021-10-16T03:33:26.000Z</time>
      </trkpt>
      <trkpt lat="45.20973" lon="5.73249">
        <ele>543.59997558594</ele>
        <time>2021-10-16T03:33:29.000Z</time>
      </trkpt>
      <trkpt lat="45.20976" lon="5.73249">
        <ele>544.20001220703</ele>
        <time>2021-10-16T03:33:31.000Z</time>
      </trkpt>
      <trkpt lat="45.20981" lon="5.73246">
        <ele>545.20001220703</ele>
        <time>2021-10-16T03:33:35.000Z</time>
      </trkpt>
      <trkpt lat="45.20982" lon="5.73247">
        <ele>545.20001220703</ele>
        <time>2021-10-16T03:33:36.000Z</time>
      </trkpt>
      <trkpt lat="45.20984" lon="5.73247">
        <ele>546.20001220703</ele>
        <time>2021-10-16T03:33:38.000Z</time>
      </trkpt>
      <trkpt lat="45.20985" lon="5.73247">
        <ele>546.40002441406</ele>
        <time>2021-10-16T03:33:39.000Z</time>
      </trkpt>
      <trkpt lat="45.20985" lon="5.73247">
        <ele>546.79998779297</ele>
        <time>2021-10-16T03:33:41.000Z</time>
      </trkpt>
      <trkpt lat="45.20982" lon="5.73248">
        <ele>547.59997558594</ele>
        <time>2021-10-16T03:33:43.000Z</time>
      </trkpt>
      <trkpt lat="45.20977" lon="5.73247">
        <ele>549</ele>
        <time>2021-10-16T03:33:49.000Z</time>
      </trkpt>
      <trkpt lat="45.20969" lon="5.73246">
        <ele>550</ele>
        <time>2021-10-16T03:33:55.000Z</time>
      </trkpt>
      <trkpt lat="45.20967" lon="5.73246">
        <ele>550.20001220703</ele>
        <time>2021-10-16T03:33:56.000Z</time>
      </trkpt>
      <trkpt lat="45.2096" lon="5.73243">
        <ele>551.79998779297</ele>
        <time>2021-10-16T03:34:02.000Z</time>
      </trkpt>
      <trkpt lat="45.20956" lon="5.73243">
        <ele>552</ele>
        <time>2021-10-16T03:34:05.000Z</time>
      </trkpt>
      <trkpt lat="45.20953" lon="5.73243">
        <ele>553</ele>
        <time>2021-10-16T03:34:08.000Z</time>
      </trkpt>
      <trkpt lat="45.20948" lon="5.73242">
        <ele>553.40002441406</ele>
        <time>2021-10-16T03:34:12.000Z</time>
      </trkpt>
      <trkpt lat="45.20946" lon="5.73242">
        <ele>554</ele>
        <time>2021-10-16T03:34:14.000Z</time>
      </trkpt>
      <trkpt lat="45.2094" lon="5.73237">
        <ele>555.20001220703</ele>
        <time>2021-10-16T03:34:19.000Z</time>
      </trkpt>
      <trkpt lat="45.20939" lon="5.73236">
        <ele>555.20001220703</ele>
        <time>2021-10-16T03:34:20.000Z</time>
      </trkpt>
      <trkpt lat="45.20938" lon="5.73233">
        <ele>556</ele>
        <time>2021-10-16T03:34:22.000Z</time>
      </trkpt>
      <trkpt lat="45.20937" lon="5.73231">
        <ele>556.20001220703</ele>
        <time>2021-10-16T03:34:23.000Z</time>
      </trkpt>
      <trkpt lat="45.20932" lon="5.73228">
        <ele>556.79998779297</ele>
        <time>2021-10-16T03:34:27.000Z</time>
      </trkpt>
      <trkpt lat="45.20932" lon="5.73227">
        <ele>557.20001220703</ele>
        <time>2021-10-16T03:34:28.000Z</time>
      </trkpt>
      <trkpt lat="45.20932" lon="5.73226">
        <ele>557.59997558594</ele>
        <time>2021-10-16T03:34:29.000Z</time>
      </trkpt>
      <trkpt lat="45.20934" lon="5.73224">
        <ele>557.79998779297</ele>
        <time>2021-10-16T03:34:31.000Z</time>
      </trkpt>
      <trkpt lat="45.20938" lon="5.73225">
        <ele>558.79998779297</ele>
        <time>2021-10-16T03:34:35.000Z</time>
      </trkpt>
      <trkpt lat="45.20942" lon="5.73225">
        <ele>559.79998779297</ele>
        <time>2021-10-16T03:34:39.000Z</time>
      </trkpt>
      <trkpt lat="45.20945" lon="5.73225">
        <ele>560</ele>
        <time>2021-10-16T03:34:41.000Z</time>
      </trkpt>
      <trkpt lat="45.2095" lon="5.73225">
        <ele>560.79998779297</ele>
        <time>2021-10-16T03:34:45.000Z</time>
      </trkpt>
      <trkpt lat="45.20951" lon="5.73224">
        <ele>561</ele>
        <time>2021-10-16T03:34:46.000Z</time>
      </trkpt>
      <trkpt lat="45.20953" lon="5.73223">
        <ele>561.40002441406</ele>
        <time>2021-10-16T03:34:47.000Z</time>
      </trkpt>
      <trkpt lat="45.20954" lon="5.73222">
        <ele>561.40002441406</ele>
        <time>2021-10-16T03:34:48.000Z</time>
      </trkpt>
      <trkpt lat="45.20956" lon="5.73222">
        <ele>562</ele>
        <time>2021-10-16T03:34:50.000Z</time>
      </trkpt>
      <trkpt lat="45.20957" lon="5.73221">
        <ele>562.40002441406</ele>
        <time>2021-10-16T03:34:51.000Z</time>
      </trkpt>
      <trkpt lat="45.2096" lon="5.7322">
        <ele>562.59997558594</ele>
        <time>2021-10-16T03:34:53.000Z</time>
      </trkpt>
      <trkpt lat="45.20962" lon="5.73218">
        <ele>562.79998779297</ele>
        <time>2021-10-16T03:34:55.000Z</time>
      </trkpt>
      <trkpt lat="45.20965" lon="5.73218">
        <ele>563.59997558594</ele>
        <time>2021-10-16T03:34:57.000Z</time>
      </trkpt>
      <trkpt lat="45.20966" lon="5.73218">
        <ele>564</ele>
        <time>2021-10-16T03:34:59.000Z</time>
      </trkpt>
      <trkpt lat="45.20967" lon="5.73218">
        <ele>564.20001220703</ele>
        <time>2021-10-16T03:35:00.000Z</time>
      </trkpt>
      <trkpt lat="45.20968" lon="5.73217">
        <ele>564.20001220703</ele>
        <time>2021-10-16T03:35:01.000Z</time>
      </trkpt>
      <trkpt lat="45.20971" lon="5.73218">
        <ele>565</ele>
        <time>2021-10-16T03:35:03.000Z</time>
      </trkpt>
      <trkpt lat="45.20975" lon="5.73218">
        <ele>565.59997558594</ele>
        <time>2021-10-16T03:35:06.000Z</time>
      </trkpt>
      <trkpt lat="45.20975" lon="5.73217">
        <ele>566</ele>
        <time>2021-10-16T03:35:07.000Z</time>
      </trkpt>
      <trkpt lat="45.20979" lon="5.73213">
        <ele>566.79998779297</ele>
        <time>2021-10-16T03:35:11.000Z</time>
      </trkpt>
      <trkpt lat="45.20981" lon="5.73211">
        <ele>567.59997558594</ele>
        <time>2021-10-16T03:35:13.000Z</time>
      </trkpt>
      <trkpt lat="45.20984" lon="5.73211">
        <ele>568.40002441406</ele>
        <time>2021-10-16T03:35:15.000Z</time>
      </trkpt>
      <trkpt lat="45.20985" lon="5.73211">
        <ele>568.59997558594</ele>
        <time>2021-10-16T03:35:17.000Z</time>
      </trkpt>
      <trkpt lat="45.20984" lon="5.73213">
        <ele>569.59997558594</ele>
        <time>2021-10-16T03:35:19.000Z</time>
      </trkpt>
      <trkpt lat="45.20983" lon="5.73214">
        <ele>569.79998779297</ele>
        <time>2021-10-16T03:35:20.000Z</time>
      </trkpt>
      <trkpt lat="45.20981" lon="5.73214">
        <ele>570</ele>
        <time>2021-10-16T03:35:22.000Z</time>
      </trkpt>
      <trkpt lat="45.20977" lon="5.73216">
        <ele>570.40002441406</ele>
        <time>2021-10-16T03:35:26.000Z</time>
      </trkpt>
      <trkpt lat="45.20975" lon="5.73218">
        <ele>571.20001220703</ele>
        <time>2021-10-16T03:35:27.000Z</time>
      </trkpt>
      <trkpt lat="45.20973" lon="5.73217">
        <ele>571.40002441406</ele>
        <time>2021-10-16T03:35:29.000Z</time>
      </trkpt>
      <trkpt lat="45.20974" lon="5.73216">
        <ele>571.59997558594</ele>
        <time>2021-10-16T03:35:31.000Z</time>
      </trkpt>
      <trkpt lat="45.20975" lon="5.73213">
        <ele>572.40002441406</ele>
        <time>2021-10-16T03:35:33.000Z</time>
      </trkpt>
      <trkpt lat="45.20978" lon="5.7321">
        <ele>573.20001220703</ele>
        <time>2021-10-16T03:35:36.000Z</time>
      </trkpt>
      <trkpt lat="45.20983" lon="5.73208">
        <ele>573.79998779297</ele>
        <time>2021-10-16T03:35:39.000Z</time>
      </trkpt>
      <trkpt lat="45.20988" lon="5.73204">
        <ele>575</ele>
        <time>2021-10-16T03:35:43.000Z</time>
      </trkpt>
      <trkpt lat="45.20994" lon="5.73198">
        <ele>576.40002441406</ele>
        <time>2021-10-16T03:35:50.000Z</time>
      </trkpt>
      <trkpt lat="45.20996" lon="5.73195">
        <ele>576.79998779297</ele>
        <time>2021-10-16T03:35:52.000Z</time>
      </trkpt>
      <trkpt lat="45.21" lon="5.73191">
        <ele>577.59997558594</ele>
        <time>2021-10-16T03:35:56.000Z</time>
      </trkpt>
      <trkpt lat="45.21002" lon="5.73189">
        <ele>577.79998779297</ele>
        <time>2021-10-16T03:35:58.000Z</time>
      </trkpt>
      <trkpt lat="45.21003" lon="5.73188">
        <ele>578.20001220703</ele>
        <time>2021-10-16T03:36:00.000Z</time>
      </trkpt>
      <trkpt lat="45.21004" lon="5.73187">
        <ele>578.79998779297</ele>
        <time>2021-10-16T03:36:01.000Z</time>
      </trkpt>
      <trkpt lat="45.21006" lon="5.73183">
        <ele>579.20001220703</ele>
        <time>2021-10-16T03:36:04.000Z</time>
      </trkpt>
      <trkpt lat="45.21007" lon="5.73182">
        <ele>579.40002441406</ele>
        <time>2021-10-16T03:36:05.000Z</time>
      </trkpt>
      <trkpt lat="45.21008" lon="5.73179">
        <ele>580.40002441406</ele>
        <time>2021-10-16T03:36:07.000Z</time>
      </trkpt>
      <trkpt lat="45.21012" lon="5.73178">
        <ele>581</ele>
        <time>2021-10-16T03:36:09.000Z</time>
      </trkpt>
      <trkpt lat="45.21014" lon="5.73177">
        <ele>581</ele>
        <time>2021-10-16T03:36:11.000Z</time>
      </trkpt>
      <trkpt lat="45.21017" lon="5.73175">
        <ele>581.59997558594</ele>
        <time>2021-10-16T03:36:13.000Z</time>
      </trkpt>
      <trkpt lat="45.21021" lon="5.73173">
        <ele>582.40002441406</ele>
        <time>2021-10-16T03:36:16.000Z</time>
      </trkpt>
      <trkpt lat="45.21021" lon="5.73176">
        <ele>582.59997558594</ele>
        <time>2021-10-16T03:36:18.000Z</time>
      </trkpt>
      <trkpt lat="45.21021" lon="5.73177">
        <ele>582.79998779297</ele>
        <time>2021-10-16T03:36:19.000Z</time>
      </trkpt>
      <trkpt lat="45.21021" lon="5.73179">
        <ele>583</ele>
        <time>2021-10-16T03:36:20.000Z</time>
      </trkpt>
      <trkpt lat="45.21024" lon="5.73182">
        <ele>583</ele>
        <time>2021-10-16T03:36:22.000Z</time>
      </trkpt>
      <trkpt lat="45.21027" lon="5.73182">
        <ele>583.40002441406</ele>
        <time>2021-10-16T03:36:24.000Z</time>
      </trkpt>
      <trkpt lat="45.21028" lon="5.73182">
        <ele>584</ele>
        <time>2021-10-16T03:36:25.000Z</time>
      </trkpt>
      <trkpt lat="45.21031" lon="5.73182">
        <ele>584.40002441406</ele>
        <time>2021-10-16T03:36:27.000Z</time>
      </trkpt>
      <trkpt lat="45.21035" lon="5.73185">
        <ele>585.20001220703</ele>
        <time>2021-10-16T03:36:30.000Z</time>
      </trkpt>
      <trkpt lat="45.21038" lon="5.73189">
        <ele>585.79998779297</ele>
        <time>2021-10-16T03:36:33.000Z</time>
      </trkpt>
      <trkpt lat="45.2104" lon="5.73191">
        <ele>586.40002441406</ele>
        <time>2021-10-16T03:36:35.000Z</time>
      </trkpt>
      <trkpt lat="45.21041" lon="5.73192">
        <ele>586.59997558594</ele>
        <time>2021-10-16T03:36:36.000Z</time>
      </trkpt>
      <trkpt lat="45.21042" lon="5.73192">
        <ele>586.59997558594</ele>
        <time>2021-10-16T03:36:37.000Z</time>
      </trkpt>
      <trkpt lat="45.21046" lon="5.73192">
        <ele>587.20001220703</ele>
        <time>2021-10-16T03:36:40.000Z</time>
      </trkpt>
      <trkpt lat="45.21049" lon="5.7319">
        <ele>587.59997558594</ele>
        <time>2021-10-16T03:36:42.000Z</time>
      </trkpt>
      <trkpt lat="45.21051" lon="5.73188">
        <ele>588.40002441406</ele>
        <time>2021-10-16T03:36:44.000Z</time>
      </trkpt>
      <trkpt lat="45.21053" lon="5.73189">
        <ele>588.59997558594</ele>
        <time>2021-10-16T03:36:46.000Z</time>
      </trkpt>
      <trkpt lat="45.21053" lon="5.7319">
        <ele>588.79998779297</ele>
        <time>2021-10-16T03:36:47.000Z</time>
      </trkpt>
      <trkpt lat="45.21054" lon="5.73191">
        <ele>589</ele>
        <time>2021-10-16T03:36:48.000Z</time>
      </trkpt>
      <trkpt lat="45.21056" lon="5.73191">
        <ele>589.59997558594</ele>
        <time>2021-10-16T03:36:50.000Z</time>
      </trkpt>
      <trkpt lat="45.21057" lon="5.73192">
        <ele>590</ele>
        <time>2021-10-16T03:36:51.000Z</time>
      </trkpt>
      <trkpt lat="45.21058" lon="5.73193">
        <ele>590</ele>
        <time>2021-10-16T03:36:52.000Z</time>
      </trkpt>
      <trkpt lat="45.21058" lon="5.73196">
        <ele>590</ele>
        <time>2021-10-16T03:36:53.000Z</time>
      </trkpt>
      <trkpt lat="45.21063" lon="5.732">
        <ele>591</ele>
        <time>2021-10-16T03:36:56.000Z</time>
      </trkpt>
      <trkpt lat="45.21064" lon="5.73201">
        <ele>591</ele>
        <time>2021-10-16T03:36:57.000Z</time>
      </trkpt>
      <trkpt lat="45.2107" lon="5.73204">
        <ele>592</ele>
        <time>2021-10-16T03:37:01.000Z</time>
      </trkpt>
      <trkpt lat="45.21071" lon="5.73205">
        <ele>592.20001220703</ele>
        <time>2021-10-16T03:37:02.000Z</time>
      </trkpt>
      <trkpt lat="45.21074" lon="5.73209">
        <ele>593</ele>
        <time>2021-10-16T03:37:06.000Z</time>
      </trkpt>
      <trkpt lat="45.21075" lon="5.73209">
        <ele>593.20001220703</ele>
        <time>2021-10-16T03:37:07.000Z</time>
      </trkpt>
      <trkpt lat="45.21077" lon="5.73211">
        <ele>593.59997558594</ele>
        <time>2021-10-16T03:37:09.000Z</time>
      </trkpt>
      <trkpt lat="45.21081" lon="5.73213">
        <ele>594.59997558594</ele>
        <time>2021-10-16T03:37:13.000Z</time>
      </trkpt>
      <trkpt lat="45.21082" lon="5.73212">
        <ele>594.79998779297</ele>
        <time>2021-10-16T03:37:14.000Z</time>
      </trkpt>
      <trkpt lat="45.21083" lon="5.73211">
        <ele>595</ele>
        <time>2021-10-16T03:37:15.000Z</time>
      </trkpt>
      <trkpt lat="45.21084" lon="5.7321">
        <ele>596.20001220703</ele>
        <time>2021-10-16T03:37:17.000Z</time>
      </trkpt>
      <trkpt lat="45.21082" lon="5.73207">
        <ele>596.40002441406</ele>
        <time>2021-10-16T03:37:19.000Z</time>
      </trkpt>
      <trkpt lat="45.21078" lon="5.73206">
        <ele>597.40002441406</ele>
        <time>2021-10-16T03:37:23.000Z</time>
      </trkpt>
      <trkpt lat="45.21077" lon="5.73204">
        <ele>597.40002441406</ele>
        <time>2021-10-16T03:37:24.000Z</time>
      </trkpt>
      <trkpt lat="45.21075" lon="5.73198">
        <ele>598.79998779297</ele>
        <time>2021-10-16T03:37:28.000Z</time>
      </trkpt>
      <trkpt lat="45.21074" lon="5.73196">
        <ele>598.79998779297</ele>
        <time>2021-10-16T03:37:30.000Z</time>
      </trkpt>
      <trkpt lat="45.21074" lon="5.73193">
        <ele>599.40002441406</ele>
        <time>2021-10-16T03:37:32.000Z</time>
      </trkpt>
      <trkpt lat="45.21072" lon="5.73191">
        <ele>599.59997558594</ele>
        <time>2021-10-16T03:37:34.000Z</time>
      </trkpt>
      <trkpt lat="45.21072" lon="5.73191">
        <ele>600</ele>
        <time>2021-10-16T03:37:35.000Z</time>
      </trkpt>
      <trkpt lat="45.21069" lon="5.73187">
        <ele>600.20001220703</ele>
        <time>2021-10-16T03:37:38.000Z</time>
      </trkpt>
      <trkpt lat="45.21068" lon="5.73186">
        <ele>600.79998779297</ele>
        <time>2021-10-16T03:37:39.000Z</time>
      </trkpt>
      <trkpt lat="45.21067" lon="5.73184">
        <ele>601.20001220703</ele>
        <time>2021-10-16T03:37:40.000Z</time>
      </trkpt>
      <trkpt lat="45.21065" lon="5.73179">
        <ele>602.40002441406</ele>
        <time>2021-10-16T03:37:45.000Z</time>
      </trkpt>
      <trkpt lat="45.21065" lon="5.73172">
        <ele>603</ele>
        <time>2021-10-16T03:37:49.000Z</time>
      </trkpt>
      <trkpt lat="45.21064" lon="5.73171">
        <ele>603.79998779297</ele>
        <time>2021-10-16T03:37:50.000Z</time>
      </trkpt>
      <trkpt lat="45.21062" lon="5.73169">
        <ele>604.40002441406</ele>
        <time>2021-10-16T03:37:53.000Z</time>
      </trkpt>
      <trkpt lat="45.21061" lon="5.7317">
        <ele>604.40002441406</ele>
        <time>2021-10-16T03:37:54.000Z</time>
      </trkpt>
      <trkpt lat="45.2106" lon="5.7317">
        <ele>604.79998779297</ele>
        <time>2021-10-16T03:37:55.000Z</time>
      </trkpt>
      <trkpt lat="45.21054" lon="5.7317">
        <ele>605.20001220703</ele>
        <time>2021-10-16T03:38:00.000Z</time>
      </trkpt>
      <trkpt lat="45.21051" lon="5.73169">
        <ele>606</ele>
        <time>2021-10-16T03:38:02.000Z</time>
      </trkpt>
      <trkpt lat="45.21048" lon="5.7317">
        <ele>606.20001220703</ele>
        <time>2021-10-16T03:38:04.000Z</time>
      </trkpt>
      <trkpt lat="45.21047" lon="5.7317">
        <ele>606.40002441406</ele>
        <time>2021-10-16T03:38:05.000Z</time>
      </trkpt>
      <trkpt lat="45.21045" lon="5.73167">
        <ele>607.20001220703</ele>
        <time>2021-10-16T03:38:07.000Z</time>
      </trkpt>
      <trkpt lat="45.21039" lon="5.73158">
        <ele>607.79998779297</ele>
        <time>2021-10-16T03:38:12.000Z</time>
      </trkpt>
      <trkpt lat="45.21039" lon="5.73156">
        <ele>608.59997558594</ele>
        <time>2021-10-16T03:38:13.000Z</time>
      </trkpt>
      <trkpt lat="45.21034" lon="5.7315">
        <ele>609.79998779297</ele>
        <time>2021-10-16T03:38:18.000Z</time>
      </trkpt>
      <trkpt lat="45.21033" lon="5.73147">
        <ele>610.20001220703</ele>
        <time>2021-10-16T03:38:20.000Z</time>
      </trkpt>
      <trkpt lat="45.21029" lon="5.73142">
        <ele>611.40002441406</ele>
        <time>2021-10-16T03:38:24.000Z</time>
      </trkpt>
      <trkpt lat="45.21026" lon="5.7314">
        <ele>612</ele>
        <time>2021-10-16T03:38:27.000Z</time>
      </trkpt>
      <trkpt lat="45.21026" lon="5.73137">
        <ele>612.20001220703</ele>
        <time>2021-10-16T03:38:28.000Z</time>
      </trkpt>
      <trkpt lat="45.21026" lon="5.73136">
        <ele>612.79998779297</ele>
        <time>2021-10-16T03:38:29.000Z</time>
      </trkpt>
      <trkpt lat="45.21025" lon="5.73135">
        <ele>613</ele>
        <time>2021-10-16T03:38:30.000Z</time>
      </trkpt>
      <trkpt lat="45.21024" lon="5.73134">
        <ele>613.79998779297</ele>
        <time>2021-10-16T03:38:32.000Z</time>
      </trkpt>
      <trkpt lat="45.21022" lon="5.73136">
        <ele>614.40002441406</ele>
        <time>2021-10-16T03:38:35.000Z</time>
      </trkpt>
      <trkpt lat="45.21019" lon="5.73137">
        <ele>614.40002441406</ele>
        <time>2021-10-16T03:38:37.000Z</time>
      </trkpt>
      <trkpt lat="45.21016" lon="5.73135">
        <ele>614.79998779297</ele>
        <time>2021-10-16T03:38:40.000Z</time>
      </trkpt>
      <trkpt lat="45.21015" lon="5.73135">
        <ele>615.20001220703</ele>
        <time>2021-10-16T03:38:41.000Z</time>
      </trkpt>
      <trkpt lat="45.21014" lon="5.73135">
        <ele>615.59997558594</ele>
        <time>2021-10-16T03:38:42.000Z</time>
      </trkpt>
      <trkpt lat="45.21014" lon="5.73136">
        <ele>615.59997558594</ele>
        <time>2021-10-16T03:38:43.000Z</time>
      </trkpt>
      <trkpt lat="45.21013" lon="5.73136">
        <ele>615.59997558594</ele>
        <time>2021-10-16T03:38:45.000Z</time>
      </trkpt>
      <trkpt lat="45.21012" lon="5.73139">
        <ele>616</ele>
        <time>2021-10-16T03:38:47.000Z</time>
      </trkpt>
      <trkpt lat="45.21006" lon="5.73138">
        <ele>616.79998779297</ele>
        <time>2021-10-16T03:38:51.000Z</time>
      </trkpt>
      <trkpt lat="45.21003" lon="5.73139">
        <ele>617.20001220703</ele>
        <time>2021-10-16T03:38:53.000Z</time>
      </trkpt>
      <trkpt lat="45.21002" lon="5.7314">
        <ele>617.40002441406</ele>
        <time>2021-10-16T03:38:54.000Z</time>
      </trkpt>
      <trkpt lat="45.21001" lon="5.7314">
        <ele>617.79998779297</ele>
        <time>2021-10-16T03:38:55.000Z</time>
      </trkpt>
      <trkpt lat="45.21" lon="5.7314">
        <ele>618</ele>
        <time>2021-10-16T03:38:56.000Z</time>
      </trkpt>
      <trkpt lat="45.20998" lon="5.73141">
        <ele>618.59997558594</ele>
        <time>2021-10-16T03:38:58.000Z</time>
      </trkpt>
      <trkpt lat="45.20994" lon="5.73145">
        <ele>619.59997558594</ele>
        <time>2021-10-16T03:39:02.000Z</time>
      </trkpt>
      <trkpt lat="45.20992" lon="5.73146">
        <ele>620</ele>
        <time>2021-10-16T03:39:04.000Z</time>
      </trkpt>
      <trkpt lat="45.20991" lon="5.73146">
        <ele>620</ele>
        <time>2021-10-16T03:39:05.000Z</time>
      </trkpt>
      <trkpt lat="45.20991" lon="5.73145">
        <ele>620</ele>
        <time>2021-10-16T03:39:06.000Z</time>
      </trkpt>
      <trkpt lat="45.20989" lon="5.73144">
        <ele>620.40002441406</ele>
        <time>2021-10-16T03:39:08.000Z</time>
      </trkpt>
      <trkpt lat="45.20989" lon="5.73142">
        <ele>621.20001220703</ele>
        <time>2021-10-16T03:39:09.000Z</time>
      </trkpt>
      <trkpt lat="45.20991" lon="5.7314">
        <ele>621.59997558594</ele>
        <time>2021-10-16T03:39:11.000Z</time>
      </trkpt>
      <trkpt lat="45.20992" lon="5.73138">
        <ele>622.40002441406</ele>
        <time>2021-10-16T03:39:13.000Z</time>
      </trkpt>
      <trkpt lat="45.20993" lon="5.73137">
        <ele>622.59997558594</ele>
        <time>2021-10-16T03:39:15.000Z</time>
      </trkpt>
      <trkpt lat="45.20995" lon="5.73135">
        <ele>623.20001220703</ele>
        <time>2021-10-16T03:39:17.000Z</time>
      </trkpt>
      <trkpt lat="45.20998" lon="5.73132">
        <ele>623.59997558594</ele>
        <time>2021-10-16T03:39:19.000Z</time>
      </trkpt>
      <trkpt lat="45.21001" lon="5.73131">
        <ele>623.59997558594</ele>
        <time>2021-10-16T03:39:21.000Z</time>
      </trkpt>
      <trkpt lat="45.21004" lon="5.7313">
        <ele>624.59997558594</ele>
        <time>2021-10-16T03:39:24.000Z</time>
      </trkpt>
      <trkpt lat="45.21006" lon="5.73129">
        <ele>624.79998779297</ele>
        <time>2021-10-16T03:39:26.000Z</time>
      </trkpt>
      <trkpt lat="45.21009" lon="5.73126">
        <ele>625.79998779297</ele>
        <time>2021-10-16T03:39:30.000Z</time>
      </trkpt>
      <trkpt lat="45.2101" lon="5.73122">
        <ele>627</ele>
        <time>2021-10-16T03:39:33.000Z</time>
      </trkpt>
      <trkpt lat="45.21014" lon="5.73117">
        <ele>628</ele>
        <time>2021-10-16T03:39:39.000Z</time>
      </trkpt>
      <trkpt lat="45.21014" lon="5.73116">
        <ele>628.20001220703</ele>
        <time>2021-10-16T03:39:40.000Z</time>
      </trkpt>
      <trkpt lat="45.21016" lon="5.73115">
        <ele>628.40002441406</ele>
        <time>2021-10-16T03:39:41.000Z</time>
      </trkpt>
      <trkpt lat="45.21019" lon="5.73111">
        <ele>629.20001220703</ele>
        <time>2021-10-16T03:39:44.000Z</time>
      </trkpt>
      <trkpt lat="45.21019" lon="5.7311">
        <ele>629.40002441406</ele>
        <time>2021-10-16T03:39:45.000Z</time>
      </trkpt>
      <trkpt lat="45.21021" lon="5.73108">
        <ele>630</ele>
        <time>2021-10-16T03:39:47.000Z</time>
      </trkpt>
      <trkpt lat="45.21025" lon="5.73108">
        <ele>630.40002441406</ele>
        <time>2021-10-16T03:39:50.000Z</time>
      </trkpt>
      <trkpt lat="45.21026" lon="5.73109">
        <ele>630.40002441406</ele>
        <time>2021-10-16T03:39:51.000Z</time>
      </trkpt>
      <trkpt lat="45.2103" lon="5.73115">
        <ele>631</ele>
        <time>2021-10-16T03:39:55.000Z</time>
      </trkpt>
      <trkpt lat="45.21033" lon="5.73116">
        <ele>631.40002441406</ele>
        <time>2021-10-16T03:39:59.000Z</time>
      </trkpt>
      <trkpt lat="45.21034" lon="5.73116">
        <ele>632.20001220703</ele>
        <time>2021-10-16T03:40:00.000Z</time>
      </trkpt>
      <trkpt lat="45.21037" lon="5.73118">
        <ele>633</ele>
        <time>2021-10-16T03:40:03.000Z</time>
      </trkpt>
      <trkpt lat="45.21039" lon="5.7312">
        <ele>633.20001220703</ele>
        <time>2021-10-16T03:40:05.000Z</time>
      </trkpt>
      <trkpt lat="45.21043" lon="5.73121">
        <ele>634.20001220703</ele>
        <time>2021-10-16T03:40:08.000Z</time>
      </trkpt>
      <trkpt lat="45.21049" lon="5.73121">
        <ele>634.20001220703</ele>
        <time>2021-10-16T03:40:11.000Z</time>
      </trkpt>
      <trkpt lat="45.21052" lon="5.7312">
        <ele>635.40002441406</ele>
        <time>2021-10-16T03:40:13.000Z</time>
      </trkpt>
      <trkpt lat="45.21053" lon="5.73121">
        <ele>635.40002441406</ele>
        <time>2021-10-16T03:40:14.000Z</time>
      </trkpt>
      <trkpt lat="45.21055" lon="5.73121">
        <ele>635.59997558594</ele>
        <time>2021-10-16T03:40:15.000Z</time>
      </trkpt>
      <trkpt lat="45.21058" lon="5.7312">
        <ele>636.40002441406</ele>
        <time>2021-10-16T03:40:18.000Z</time>
      </trkpt>
      <trkpt lat="45.2106" lon="5.7312">
        <ele>636.59997558594</ele>
        <time>2021-10-16T03:40:19.000Z</time>
      </trkpt>
      <trkpt lat="45.21066" lon="5.73117">
        <ele>637.79998779297</ele>
        <time>2021-10-16T03:40:23.000Z</time>
      </trkpt>
      <trkpt lat="45.21072" lon="5.73111">
        <ele>638.59997558594</ele>
        <time>2021-10-16T03:40:27.000Z</time>
      </trkpt>
      <trkpt lat="45.21073" lon="5.73112">
        <ele>638.79998779297</ele>
        <time>2021-10-16T03:40:28.000Z</time>
      </trkpt>
      <trkpt lat="45.21075" lon="5.73112">
        <ele>639.79998779297</ele>
        <time>2021-10-16T03:40:30.000Z</time>
      </trkpt>
      <trkpt lat="45.21077" lon="5.73115">
        <ele>640</ele>
        <time>2021-10-16T03:40:32.000Z</time>
      </trkpt>
      <trkpt lat="45.2108" lon="5.73121">
        <ele>640.40002441406</ele>
        <time>2021-10-16T03:40:36.000Z</time>
      </trkpt>
      <trkpt lat="45.21083" lon="5.73123">
        <ele>640.79998779297</ele>
        <time>2021-10-16T03:40:38.000Z</time>
      </trkpt>
      <trkpt lat="45.21083" lon="5.73124">
        <ele>641</ele>
        <time>2021-10-16T03:40:39.000Z</time>
      </trkpt>
      <trkpt lat="45.21086" lon="5.73125">
        <ele>641.40002441406</ele>
        <time>2021-10-16T03:40:41.000Z</time>
      </trkpt>
      <trkpt lat="45.21088" lon="5.73127">
        <ele>641.40002441406</ele>
        <time>2021-10-16T03:40:43.000Z</time>
      </trkpt>
      <trkpt lat="45.2109" lon="5.7313">
        <ele>642.20001220703</ele>
        <time>2021-10-16T03:40:45.000Z</time>
      </trkpt>
      <trkpt lat="45.21091" lon="5.73131">
        <ele>642.40002441406</ele>
        <time>2021-10-16T03:40:47.000Z</time>
      </trkpt>
      <trkpt lat="45.21095" lon="5.73135">
        <ele>643.40002441406</ele>
        <time>2021-10-16T03:40:50.000Z</time>
      </trkpt>
      <trkpt lat="45.21097" lon="5.73138">
        <ele>643.59997558594</ele>
        <time>2021-10-16T03:40:52.000Z</time>
      </trkpt>
      <trkpt lat="45.21098" lon="5.73139">
        <ele>644.40002441406</ele>
        <time>2021-10-16T03:40:53.000Z</time>
      </trkpt>
      <trkpt lat="45.21102" lon="5.73144">
        <ele>645</ele>
        <time>2021-10-16T03:40:57.000Z</time>
      </trkpt>
      <trkpt lat="45.21103" lon="5.73146">
        <ele>646</ele>
        <time>2021-10-16T03:40:59.000Z</time>
      </trkpt>
      <trkpt lat="45.21106" lon="5.73148">
        <ele>646.40002441406</ele>
        <time>2021-10-16T03:41:02.000Z</time>
      </trkpt>
      <trkpt lat="45.21108" lon="5.73149">
        <ele>647.40002441406</ele>
        <time>2021-10-16T03:41:04.000Z</time>
      </trkpt>
      <trkpt lat="45.2111" lon="5.73147">
        <ele>647.59997558594</ele>
        <time>2021-10-16T03:41:05.000Z</time>
      </trkpt>
      <trkpt lat="45.21115" lon="5.73143">
        <ele>649</ele>
        <time>2021-10-16T03:41:09.000Z</time>
      </trkpt>
      <trkpt lat="45.21117" lon="5.73141">
        <ele>649.20001220703</ele>
        <time>2021-10-16T03:41:11.000Z</time>
      </trkpt>
      <trkpt lat="45.2112" lon="5.7314">
        <ele>649.40002441406</ele>
        <time>2021-10-16T03:41:13.000Z</time>
      </trkpt>
      <trkpt lat="45.21123" lon="5.73139">
        <ele>650</ele>
        <time>2021-10-16T03:41:15.000Z</time>
      </trkpt>
      <trkpt lat="45.21124" lon="5.73139">
        <ele>650.20001220703</ele>
        <time>2021-10-16T03:41:16.000Z</time>
      </trkpt>
      <trkpt lat="45.21128" lon="5.73138">
        <ele>650.20001220703</ele>
        <time>2021-10-16T03:41:18.000Z</time>
      </trkpt>
      <trkpt lat="45.21133" lon="5.73133">
        <ele>651.20001220703</ele>
        <time>2021-10-16T03:41:22.000Z</time>
      </trkpt>
      <trkpt lat="45.21135" lon="5.73131">
        <ele>652.40002441406</ele>
        <time>2021-10-16T03:41:25.000Z</time>
      </trkpt>
      <trkpt lat="45.21135" lon="5.73131">
        <ele>652.79998779297</ele>
        <time>2021-10-16T03:41:26.000Z</time>
      </trkpt>
      <trkpt lat="45.21134" lon="5.73132">
        <ele>653.40002441406</ele>
        <time>2021-10-16T03:41:28.000Z</time>
      </trkpt>
      <trkpt lat="45.21133" lon="5.73133">
        <ele>653.59997558594</ele>
        <time>2021-10-16T03:41:29.000Z</time>
      </trkpt>
      <trkpt lat="45.21129" lon="5.73134">
        <ele>654.40002441406</ele>
        <time>2021-10-16T03:41:32.000Z</time>
      </trkpt>
      <trkpt lat="45.21128" lon="5.73134">
        <ele>654.59997558594</ele>
        <time>2021-10-16T03:41:33.000Z</time>
      </trkpt>
      <trkpt lat="45.21124" lon="5.73135">
        <ele>655.40002441406</ele>
        <time>2021-10-16T03:41:37.000Z</time>
      </trkpt>
      <trkpt lat="45.21123" lon="5.73136">
        <ele>656</ele>
        <time>2021-10-16T03:41:38.000Z</time>
      </trkpt>
      <trkpt lat="45.2112" lon="5.73136">
        <ele>656.40002441406</ele>
        <time>2021-10-16T03:41:40.000Z</time>
      </trkpt>
      <trkpt lat="45.21118" lon="5.73137">
        <ele>656.59997558594</ele>
        <time>2021-10-16T03:41:42.000Z</time>
      </trkpt>
      <trkpt lat="45.21115" lon="5.7314">
        <ele>657.40002441406</ele>
        <time>2021-10-16T03:41:44.000Z</time>
      </trkpt>
      <trkpt lat="45.21112" lon="5.73142">
        <ele>657.79998779297</ele>
        <time>2021-10-16T03:41:46.000Z</time>
      </trkpt>
      <trkpt lat="45.21111" lon="5.73141">
        <ele>658</ele>
        <time>2021-10-16T03:41:48.000Z</time>
      </trkpt>
      <trkpt lat="45.21111" lon="5.73138">
        <ele>659.20001220703</ele>
        <time>2021-10-16T03:41:50.000Z</time>
      </trkpt>
      <trkpt lat="45.21112" lon="5.73135">
        <ele>659.40002441406</ele>
        <time>2021-10-16T03:41:52.000Z</time>
      </trkpt>
      <trkpt lat="45.21118" lon="5.73129">
        <ele>660.40002441406</ele>
        <time>2021-10-16T03:41:56.000Z</time>
      </trkpt>
      <trkpt lat="45.21121" lon="5.73127">
        <ele>661.59997558594</ele>
        <time>2021-10-16T03:41:59.000Z</time>
      </trkpt>
      <trkpt lat="45.21126" lon="5.73125">
        <ele>662.79998779297</ele>
        <time>2021-10-16T03:42:04.000Z</time>
      </trkpt>
      <trkpt lat="45.21131" lon="5.73123">
        <ele>663.79998779297</ele>
        <time>2021-10-16T03:42:08.000Z</time>
      </trkpt>
      <trkpt lat="45.21134" lon="5.73122">
        <ele>664.59997558594</ele>
        <time>2021-10-16T03:42:11.000Z</time>
      </trkpt>
      <trkpt lat="45.21138" lon="5.7312">
        <ele>664.79998779297</ele>
        <time>2021-10-16T03:42:14.000Z</time>
      </trkpt>
      <trkpt lat="45.21141" lon="5.73119">
        <ele>665.79998779297</ele>
        <time>2021-10-16T03:42:17.000Z</time>
      </trkpt>
      <trkpt lat="45.21142" lon="5.73119">
        <ele>666.40002441406</ele>
        <time>2021-10-16T03:42:18.000Z</time>
      </trkpt>
      <trkpt lat="45.21145" lon="5.73121">
        <ele>667</ele>
        <time>2021-10-16T03:42:21.000Z</time>
      </trkpt>
      <trkpt lat="45.21149" lon="5.73125">
        <ele>667.59997558594</ele>
        <time>2021-10-16T03:42:25.000Z</time>
      </trkpt>
      <trkpt lat="45.21151" lon="5.73128">
        <ele>668</ele>
        <time>2021-10-16T03:42:27.000Z</time>
      </trkpt>
      <trkpt lat="45.21154" lon="5.73134">
        <ele>668.79998779297</ele>
        <time>2021-10-16T03:42:31.000Z</time>
      </trkpt>
      <trkpt lat="45.21154" lon="5.73136">
        <ele>669.20001220703</ele>
        <time>2021-10-16T03:42:32.000Z</time>
      </trkpt>
      <trkpt lat="45.21155" lon="5.73138">
        <ele>670</ele>
        <time>2021-10-16T03:42:34.000Z</time>
      </trkpt>
      <trkpt lat="45.21156" lon="5.73139">
        <ele>670.20001220703</ele>
        <time>2021-10-16T03:42:35.000Z</time>
      </trkpt>
      <trkpt lat="45.21158" lon="5.73139">
        <ele>670.20001220703</ele>
        <time>2021-10-16T03:42:37.000Z</time>
      </trkpt>
      <trkpt lat="45.21164" lon="5.73141">
        <ele>671.59997558594</ele>
        <time>2021-10-16T03:42:41.000Z</time>
      </trkpt>
      <trkpt lat="45.21167" lon="5.73147">
        <ele>672.20001220703</ele>
        <time>2021-10-16T03:42:45.000Z</time>
      </trkpt>
      <trkpt lat="45.21169" lon="5.73148">
        <ele>673</ele>
        <time>2021-10-16T03:42:47.000Z</time>
      </trkpt>
      <trkpt lat="45.21174" lon="5.73153">
        <ele>673.79998779297</ele>
        <time>2021-10-16T03:42:52.000Z</time>
      </trkpt>
      <trkpt lat="45.21174" lon="5.73154">
        <ele>674.40002441406</ele>
        <time>2021-10-16T03:42:53.000Z</time>
      </trkpt>
      <trkpt lat="45.21181" lon="5.7316">
        <ele>676</ele>
        <time>2021-10-16T03:42:59.000Z</time>
      </trkpt>
      <trkpt lat="45.21183" lon="5.73161">
        <ele>676.40002441406</ele>
        <time>2021-10-16T03:43:01.000Z</time>
      </trkpt>
      <trkpt lat="45.21185" lon="5.73165">
        <ele>677.20001220703</ele>
        <time>2021-10-16T03:43:04.000Z</time>
      </trkpt>
      <trkpt lat="45.21186" lon="5.73166">
        <ele>677.20001220703</ele>
        <time>2021-10-16T03:43:05.000Z</time>
      </trkpt>
      <trkpt lat="45.21187" lon="5.73167">
        <ele>678.40002441406</ele>
        <time>2021-10-16T03:43:07.000Z</time>
      </trkpt>
      <trkpt lat="45.21188" lon="5.73169">
        <ele>678.40002441406</ele>
        <time>2021-10-16T03:43:08.000Z</time>
      </trkpt>
      <trkpt lat="45.21192" lon="5.73176">
        <ele>679</ele>
        <time>2021-10-16T03:43:13.000Z</time>
      </trkpt>
      <trkpt lat="45.21194" lon="5.73176">
        <ele>679.40002441406</ele>
        <time>2021-10-16T03:43:14.000Z</time>
      </trkpt>
      <trkpt lat="45.21195" lon="5.73177">
        <ele>680</ele>
        <time>2021-10-16T03:43:15.000Z</time>
      </trkpt>
      <trkpt lat="45.21196" lon="5.7318">
        <ele>680.20001220703</ele>
        <time>2021-10-16T03:43:17.000Z</time>
      </trkpt>
      <trkpt lat="45.21197" lon="5.73182">
        <ele>680.79998779297</ele>
        <time>2021-10-16T03:43:19.000Z</time>
      </trkpt>
      <trkpt lat="45.21199" lon="5.73184">
        <ele>681.20001220703</ele>
        <time>2021-10-16T03:43:21.000Z</time>
      </trkpt>
      <trkpt lat="45.21202" lon="5.73189">
        <ele>681.59997558594</ele>
        <time>2021-10-16T03:43:24.000Z</time>
      </trkpt>
      <trkpt lat="45.21202" lon="5.73189">
        <ele>682.40002441406</ele>
        <time>2021-10-16T03:43:25.000Z</time>
      </trkpt>
      <trkpt lat="45.21204" lon="5.73192">
        <ele>682.59997558594</ele>
        <time>2021-10-16T03:43:27.000Z</time>
      </trkpt>
      <trkpt lat="45.21205" lon="5.73193">
        <ele>683</ele>
        <time>2021-10-16T03:43:28.000Z</time>
      </trkpt>
      <trkpt lat="45.21207" lon="5.73195">
        <ele>683.40002441406</ele>
        <time>2021-10-16T03:43:30.000Z</time>
      </trkpt>
      <trkpt lat="45.21212" lon="5.73199">
        <ele>684.79998779297</ele>
        <time>2021-10-16T03:43:35.000Z</time>
      </trkpt>
      <trkpt lat="45.21214" lon="5.732">
        <ele>684.79998779297</ele>
        <time>2021-10-16T03:43:36.000Z</time>
      </trkpt>
      <trkpt lat="45.21216" lon="5.73202">
        <ele>685.59997558594</ele>
        <time>2021-10-16T03:43:39.000Z</time>
      </trkpt>
      <trkpt lat="45.21217" lon="5.73203">
        <ele>686.20001220703</ele>
        <time>2021-10-16T03:43:40.000Z</time>
      </trkpt>
      <trkpt lat="45.21218" lon="5.73206">
        <ele>686.79998779297</ele>
        <time>2021-10-16T03:43:42.000Z</time>
      </trkpt>
      <trkpt lat="45.21221" lon="5.7321">
        <ele>687.20001220703</ele>
        <time>2021-10-16T03:43:46.000Z</time>
      </trkpt>
      <trkpt lat="45.21225" lon="5.73214">
        <ele>688.20001220703</ele>
        <time>2021-10-16T03:43:50.000Z</time>
      </trkpt>
      <trkpt lat="45.21226" lon="5.73215">
        <ele>688.59997558594</ele>
        <time>2021-10-16T03:43:51.000Z</time>
      </trkpt>
      <trkpt lat="45.21229" lon="5.73216">
        <ele>689.40002441406</ele>
        <time>2021-10-16T03:43:54.000Z</time>
      </trkpt>
      <trkpt lat="45.21231" lon="5.73217">
        <ele>689.59997558594</ele>
        <time>2021-10-16T03:43:55.000Z</time>
      </trkpt>
      <trkpt lat="45.21236" lon="5.73218">
        <ele>691.20001220703</ele>
        <time>2021-10-16T03:43:59.000Z</time>
      </trkpt>
      <trkpt lat="45.21239" lon="5.73219">
        <ele>691.40002441406</ele>
        <time>2021-10-16T03:44:02.000Z</time>
      </trkpt>
      <trkpt lat="45.2124" lon="5.73221">
        <ele>692.20001220703</ele>
        <time>2021-10-16T03:44:04.000Z</time>
      </trkpt>
      <trkpt lat="45.21244" lon="5.73223">
        <ele>693.20001220703</ele>
        <time>2021-10-16T03:44:07.000Z</time>
      </trkpt>
      <trkpt lat="45.21245" lon="5.73224">
        <ele>693.40002441406</ele>
        <time>2021-10-16T03:44:08.000Z</time>
      </trkpt>
      <trkpt lat="45.21248" lon="5.73228">
        <ele>694.20001220703</ele>
        <time>2021-10-16T03:44:12.000Z</time>
      </trkpt>
      <trkpt lat="45.21251" lon="5.73231">
        <ele>694.79998779297</ele>
        <time>2021-10-16T03:44:14.000Z</time>
      </trkpt>
      <trkpt lat="45.21252" lon="5.73232">
        <ele>695.40002441406</ele>
        <time>2021-10-16T03:44:15.000Z</time>
      </trkpt>
      <trkpt lat="45.21253" lon="5.73233">
        <ele>695.40002441406</ele>
        <time>2021-10-16T03:44:16.000Z</time>
      </trkpt>
      <trkpt lat="45.21254" lon="5.73236">
        <ele>696</ele>
        <time>2021-10-16T03:44:19.000Z</time>
      </trkpt>
      <trkpt lat="45.21254" lon="5.73238">
        <ele>696.40002441406</ele>
        <time>2021-10-16T03:44:20.000Z</time>
      </trkpt>
      <trkpt lat="45.21255" lon="5.7324">
        <ele>697</ele>
        <time>2021-10-16T03:44:22.000Z</time>
      </trkpt>
      <trkpt lat="45.21256" lon="5.73242">
        <ele>697.20001220703</ele>
        <time>2021-10-16T03:44:24.000Z</time>
      </trkpt>
      <trkpt lat="45.21257" lon="5.73244">
        <ele>697.59997558594</ele>
        <time>2021-10-16T03:44:25.000Z</time>
      </trkpt>
      <trkpt lat="45.21261" lon="5.73251">
        <ele>698.20001220703</ele>
        <time>2021-10-16T03:44:29.000Z</time>
      </trkpt>
      <trkpt lat="45.21263" lon="5.73252">
        <ele>698.79998779297</ele>
        <time>2021-10-16T03:44:30.000Z</time>
      </trkpt>
      <trkpt lat="45.21266" lon="5.73256">
        <ele>699.40002441406</ele>
        <time>2021-10-16T03:44:33.000Z</time>
      </trkpt>
      <trkpt lat="45.21267" lon="5.73258">
        <ele>699.59997558594</ele>
        <time>2021-10-16T03:44:35.000Z</time>
      </trkpt>
      <trkpt lat="45.21268" lon="5.73259">
        <ele>700.20001220703</ele>
        <time>2021-10-16T03:44:36.000Z</time>
      </trkpt>
      <trkpt lat="45.21269" lon="5.7326">
        <ele>700.59997558594</ele>
        <time>2021-10-16T03:44:37.000Z</time>
      </trkpt>
      <trkpt lat="45.21273" lon="5.73262">
        <ele>701.20001220703</ele>
        <time>2021-10-16T03:44:41.000Z</time>
      </trkpt>
      <trkpt lat="45.21274" lon="5.73262">
        <ele>701.79998779297</ele>
        <time>2021-10-16T03:44:42.000Z</time>
      </trkpt>
      <trkpt lat="45.21275" lon="5.73263">
        <ele>702</ele>
        <time>2021-10-16T03:44:43.000Z</time>
      </trkpt>
      <trkpt lat="45.21277" lon="5.73265">
        <ele>702.59997558594</ele>
        <time>2021-10-16T03:44:45.000Z</time>
      </trkpt>
      <trkpt lat="45.21279" lon="5.7327">
        <ele>703.20001220703</ele>
        <time>2021-10-16T03:44:48.000Z</time>
      </trkpt>
      <trkpt lat="45.21281" lon="5.73271">
        <ele>703.40002441406</ele>
        <time>2021-10-16T03:44:50.000Z</time>
      </trkpt>
      <trkpt lat="45.21283" lon="5.73271">
        <ele>703.59997558594</ele>
        <time>2021-10-16T03:44:51.000Z</time>
      </trkpt>
      <trkpt lat="45.21289" lon="5.7327">
        <ele>704.40002441406</ele>
        <time>2021-10-16T03:44:55.000Z</time>
      </trkpt>
      <trkpt lat="45.21292" lon="5.73273">
        <ele>705.59997558594</ele>
        <time>2021-10-16T03:44:58.000Z</time>
      </trkpt>
      <trkpt lat="45.21293" lon="5.73277">
        <ele>705.79998779297</ele>
        <time>2021-10-16T03:45:00.000Z</time>
      </trkpt>
      <trkpt lat="45.21294" lon="5.73279">
        <ele>706</ele>
        <time>2021-10-16T03:45:01.000Z</time>
      </trkpt>
      <trkpt lat="45.21296" lon="5.73289">
        <ele>707</ele>
        <time>2021-10-16T03:45:06.000Z</time>
      </trkpt>
      <trkpt lat="45.21298" lon="5.7329">
        <ele>707.40002441406</ele>
        <time>2021-10-16T03:45:07.000Z</time>
      </trkpt>
      <trkpt lat="45.21301" lon="5.73292">
        <ele>708</ele>
        <time>2021-10-16T03:45:09.000Z</time>
      </trkpt>
      <trkpt lat="45.21303" lon="5.73293">
        <ele>708.40002441406</ele>
        <time>2021-10-16T03:45:11.000Z</time>
      </trkpt>
      <trkpt lat="45.21304" lon="5.73292">
        <ele>708.79998779297</ele>
        <time>2021-10-16T03:45:12.000Z</time>
      </trkpt>
      <trkpt lat="45.21306" lon="5.73292">
        <ele>709.40002441406</ele>
        <time>2021-10-16T03:45:13.000Z</time>
      </trkpt>
      <trkpt lat="45.21306" lon="5.73293">
        <ele>709.59997558594</ele>
        <time>2021-10-16T03:45:14.000Z</time>
      </trkpt>
      <trkpt lat="45.21308" lon="5.73293">
        <ele>709.79998779297</ele>
        <time>2021-10-16T03:45:16.000Z</time>
      </trkpt>
      <trkpt lat="45.2131" lon="5.73292">
        <ele>710.40002441406</ele>
        <time>2021-10-16T03:45:18.000Z</time>
      </trkpt>
      <trkpt lat="45.21311" lon="5.73292">
        <ele>711</ele>
        <time>2021-10-16T03:45:19.000Z</time>
      </trkpt>
      <trkpt lat="45.21319" lon="5.7329">
        <ele>712.20001220703</ele>
        <time>2021-10-16T03:45:25.000Z</time>
      </trkpt>
      <trkpt lat="45.21321" lon="5.73289">
        <ele>712.59997558594</ele>
        <time>2021-10-16T03:45:26.000Z</time>
      </trkpt>
      <trkpt lat="45.21326" lon="5.73286">
        <ele>713.59997558594</ele>
        <time>2021-10-16T03:45:30.000Z</time>
      </trkpt>
      <trkpt lat="45.21329" lon="5.73285">
        <ele>714.59997558594</ele>
        <time>2021-10-16T03:45:33.000Z</time>
      </trkpt>
      <trkpt lat="45.21329" lon="5.73286">
        <ele>715.20001220703</ele>
        <time>2021-10-16T03:45:34.000Z</time>
      </trkpt>
      <trkpt lat="45.21333" lon="5.73292">
        <ele>716.20001220703</ele>
        <time>2021-10-16T03:45:39.000Z</time>
      </trkpt>
      <trkpt lat="45.21334" lon="5.73294">
        <ele>716.20001220703</ele>
        <time>2021-10-16T03:45:40.000Z</time>
      </trkpt>
      <trkpt lat="45.21334" lon="5.73295">
        <ele>716.20001220703</ele>
        <time>2021-10-16T03:45:41.000Z</time>
      </trkpt>
      <trkpt lat="45.21337" lon="5.73301">
        <ele>716.59997558594</ele>
        <time>2021-10-16T03:45:46.000Z</time>
      </trkpt>
      <trkpt lat="45.21339" lon="5.73304">
        <ele>717.20001220703</ele>
        <time>2021-10-16T03:45:49.000Z</time>
      </trkpt>
      <trkpt lat="45.2134" lon="5.73306">
        <ele>717.59997558594</ele>
        <time>2021-10-16T03:45:50.000Z</time>
      </trkpt>
      <trkpt lat="45.21342" lon="5.73307">
        <ele>717.79998779297</ele>
        <time>2021-10-16T03:45:52.000Z</time>
      </trkpt>
      <trkpt lat="45.21343" lon="5.73307">
        <ele>718</ele>
        <time>2021-10-16T03:45:53.000Z</time>
      </trkpt>
      <trkpt lat="45.21345" lon="5.73308">
        <ele>718.79998779297</ele>
        <time>2021-10-16T03:45:54.000Z</time>
      </trkpt>
      <trkpt lat="45.21351" lon="5.73315">
        <ele>719.79998779297</ele>
        <time>2021-10-16T03:45:59.000Z</time>
      </trkpt>
      <trkpt lat="45.21352" lon="5.73316">
        <ele>720.20001220703</ele>
        <time>2021-10-16T03:46:00.000Z</time>
      </trkpt>
      <trkpt lat="45.21353" lon="5.73318">
        <ele>720.59997558594</ele>
        <time>2021-10-16T03:46:01.000Z</time>
      </trkpt>
      <trkpt lat="45.21356" lon="5.73324">
        <ele>721.20001220703</ele>
        <time>2021-10-16T03:46:05.000Z</time>
      </trkpt>
      <trkpt lat="45.21357" lon="5.73326">
        <ele>721.59997558594</ele>
        <time>2021-10-16T03:46:06.000Z</time>
      </trkpt>
      <trkpt lat="45.21357" lon="5.73327">
        <ele>721.59997558594</ele>
        <time>2021-10-16T03:46:07.000Z</time>
      </trkpt>
      <trkpt lat="45.21361" lon="5.73332">
        <ele>723.20001220703</ele>
        <time>2021-10-16T03:46:12.000Z</time>
      </trkpt>
      <trkpt lat="45.21361" lon="5.73333">
        <ele>723.20001220703</ele>
        <time>2021-10-16T03:46:13.000Z</time>
      </trkpt>
      <trkpt lat="45.21366" lon="5.73337">
        <ele>724.59997558594</ele>
        <time>2021-10-16T03:46:17.000Z</time>
      </trkpt>
      <trkpt lat="45.21366" lon="5.73338">
        <ele>725</ele>
        <time>2021-10-16T03:46:18.000Z</time>
      </trkpt>
      <trkpt lat="45.21369" lon="5.7334">
        <ele>725.79998779297</ele>
        <time>2021-10-16T03:46:20.000Z</time>
      </trkpt>
      <trkpt lat="45.2137" lon="5.73346">
        <ele>726.20001220703</ele>
        <time>2021-10-16T03:46:24.000Z</time>
      </trkpt>
      <trkpt lat="45.21371" lon="5.73347">
        <ele>726.40002441406</ele>
        <time>2021-10-16T03:46:25.000Z</time>
      </trkpt>
      <trkpt lat="45.21376" lon="5.73356">
        <ele>727.20001220703</ele>
        <time>2021-10-16T03:46:31.000Z</time>
      </trkpt>
      <trkpt lat="45.21379" lon="5.7336">
        <ele>728.20001220703</ele>
        <time>2021-10-16T03:46:34.000Z</time>
      </trkpt>
      <trkpt lat="45.21381" lon="5.73364">
        <ele>729.59997558594</ele>
        <time>2021-10-16T03:46:38.000Z</time>
      </trkpt>
      <trkpt lat="45.21381" lon="5.73366">
        <ele>729.79998779297</ele>
        <time>2021-10-16T03:46:39.000Z</time>
      </trkpt>
      <trkpt lat="45.21382" lon="5.73367">
        <ele>730</ele>
        <time>2021-10-16T03:46:40.000Z</time>
      </trkpt>
      <trkpt lat="45.21384" lon="5.73369">
        <ele>730.40002441406</ele>
        <time>2021-10-16T03:46:42.000Z</time>
      </trkpt>
      <trkpt lat="45.21385" lon="5.7337">
        <ele>730.59997558594</ele>
        <time>2021-10-16T03:46:43.000Z</time>
      </trkpt>
      <trkpt lat="45.21386" lon="5.73372">
        <ele>730.79998779297</ele>
        <time>2021-10-16T03:46:44.000Z</time>
      </trkpt>
      <trkpt lat="45.21392" lon="5.73377">
        <ele>731.79998779297</ele>
        <time>2021-10-16T03:46:49.000Z</time>
      </trkpt>
      <trkpt lat="45.21394" lon="5.73378">
        <ele>732</ele>
        <time>2021-10-16T03:46:51.000Z</time>
      </trkpt>
      <trkpt lat="45.21395" lon="5.73378">
        <ele>732</ele>
        <time>2021-10-16T03:46:52.000Z</time>
      </trkpt>
      <trkpt lat="45.21396" lon="5.73378">
        <ele>732.40002441406</ele>
        <time>2021-10-16T03:46:53.000Z</time>
      </trkpt>
      <trkpt lat="45.21398" lon="5.73377">
        <ele>733.40002441406</ele>
        <time>2021-10-16T03:46:55.000Z</time>
      </trkpt>
      <trkpt lat="45.214" lon="5.73378">
        <ele>733.40002441406</ele>
        <time>2021-10-16T03:46:56.000Z</time>
      </trkpt>
      <trkpt lat="45.21401" lon="5.7338">
        <ele>733.79998779297</ele>
        <time>2021-10-16T03:46:57.000Z</time>
      </trkpt>
      <trkpt lat="45.21403" lon="5.73389">
        <ele>734.59997558594</ele>
        <time>2021-10-16T03:47:01.000Z</time>
      </trkpt>
      <trkpt lat="45.21406" lon="5.73394">
        <ele>734.79998779297</ele>
        <time>2021-10-16T03:47:04.000Z</time>
      </trkpt>
      <trkpt lat="45.21408" lon="5.73397">
        <ele>735.59997558594</ele>
        <time>2021-10-16T03:47:06.000Z</time>
      </trkpt>
      <trkpt lat="45.21411" lon="5.73406">
        <ele>737</ele>
        <time>2021-10-16T03:47:11.000Z</time>
      </trkpt>
      <trkpt lat="45.21414" lon="5.73412">
        <ele>738</ele>
        <time>2021-10-16T03:47:15.000Z</time>
      </trkpt>
      <trkpt lat="45.21416" lon="5.73416">
        <ele>738.79998779297</ele>
        <time>2021-10-16T03:47:18.000Z</time>
      </trkpt>
      <trkpt lat="45.21417" lon="5.7342">
        <ele>738.79998779297</ele>
        <time>2021-10-16T03:47:20.000Z</time>
      </trkpt>
      <trkpt lat="45.21417" lon="5.73422">
        <ele>739.59997558594</ele>
        <time>2021-10-16T03:47:21.000Z</time>
      </trkpt>
      <trkpt lat="45.21421" lon="5.73428">
        <ele>740.40002441406</ele>
        <time>2021-10-16T03:47:26.000Z</time>
      </trkpt>
      <trkpt lat="45.21422" lon="5.73429">
        <ele>741.20001220703</ele>
        <time>2021-10-16T03:47:27.000Z</time>
      </trkpt>
      <trkpt lat="45.21425" lon="5.73435">
        <ele>741.40002441406</ele>
        <time>2021-10-16T03:47:30.000Z</time>
      </trkpt>
      <trkpt lat="45.21427" lon="5.73438">
        <ele>742.20001220703</ele>
        <time>2021-10-16T03:47:33.000Z</time>
      </trkpt>
      <trkpt lat="45.21428" lon="5.73439">
        <ele>742.20001220703</ele>
        <time>2021-10-16T03:47:34.000Z</time>
      </trkpt>
      <trkpt lat="45.2143" lon="5.73442">
        <ele>743.20001220703</ele>
        <time>2021-10-16T03:47:37.000Z</time>
      </trkpt>
      <trkpt lat="45.21431" lon="5.73443">
        <ele>743.20001220703</ele>
        <time>2021-10-16T03:47:38.000Z</time>
      </trkpt>
      <trkpt lat="45.21432" lon="5.73444">
        <ele>743.79998779297</ele>
        <time>2021-10-16T03:47:39.000Z</time>
      </trkpt>
      <trkpt lat="45.21432" lon="5.73446">
        <ele>744.20001220703</ele>
        <time>2021-10-16T03:47:40.000Z</time>
      </trkpt>
      <trkpt lat="45.21434" lon="5.7345">
        <ele>745.20001220703</ele>
        <time>2021-10-16T03:47:44.000Z</time>
      </trkpt>
      <trkpt lat="45.21435" lon="5.73452">
        <ele>745.40002441406</ele>
        <time>2021-10-16T03:47:45.000Z</time>
      </trkpt>
      <trkpt lat="45.21436" lon="5.73455">
        <ele>746.20001220703</ele>
        <time>2021-10-16T03:47:47.000Z</time>
      </trkpt>
      <trkpt lat="45.21439" lon="5.73462">
        <ele>746.59997558594</ele>
        <time>2021-10-16T03:47:51.000Z</time>
      </trkpt>
      <trkpt lat="45.21442" lon="5.73466">
        <ele>747.40002441406</ele>
        <time>2021-10-16T03:47:54.000Z</time>
      </trkpt>
      <trkpt lat="45.21445" lon="5.73471">
        <ele>747.79998779297</ele>
        <time>2021-10-16T03:47:58.000Z</time>
      </trkpt>
      <trkpt lat="45.21446" lon="5.73472">
        <ele>748.59997558594</ele>
        <time>2021-10-16T03:47:59.000Z</time>
      </trkpt>
      <trkpt lat="45.2145" lon="5.73479">
        <ele>749.40002441406</ele>
        <time>2021-10-16T03:48:03.000Z</time>
      </trkpt>
      <trkpt lat="45.21451" lon="5.73482">
        <ele>749.79998779297</ele>
        <time>2021-10-16T03:48:05.000Z</time>
      </trkpt>
      <trkpt lat="45.21455" lon="5.73484">
        <ele>750.79998779297</ele>
        <time>2021-10-16T03:48:09.000Z</time>
      </trkpt>
      <trkpt lat="45.21455" lon="5.73485">
        <ele>751.20001220703</ele>
        <time>2021-10-16T03:48:10.000Z</time>
      </trkpt>
      <trkpt lat="45.21459" lon="5.73488">
        <ele>752</ele>
        <time>2021-10-16T03:48:14.000Z</time>
      </trkpt>
      <trkpt lat="45.2146" lon="5.73488">
        <ele>752.40002441406</ele>
        <time>2021-10-16T03:48:15.000Z</time>
      </trkpt>
      <trkpt lat="45.2146" lon="5.73489">
        <ele>752.40002441406</ele>
        <time>2021-10-16T03:48:16.000Z</time>
      </trkpt>
      <trkpt lat="45.21461" lon="5.7349">
        <ele>753.40002441406</ele>
        <time>2021-10-16T03:48:17.000Z</time>
      </trkpt>
      <trkpt lat="45.21462" lon="5.73492">
        <ele>753.59997558594</ele>
        <time>2021-10-16T03:48:19.000Z</time>
      </trkpt>
      <trkpt lat="45.21464" lon="5.73498">
        <ele>754.40002441406</ele>
        <time>2021-10-16T03:48:23.000Z</time>
      </trkpt>
      <trkpt lat="45.21464" lon="5.735">
        <ele>755.20001220703</ele>
        <time>2021-10-16T03:48:24.000Z</time>
      </trkpt>
      <trkpt lat="45.21465" lon="5.73504">
        <ele>755.79998779297</ele>
        <time>2021-10-16T03:48:27.000Z</time>
      </trkpt>
      <trkpt lat="45.21466" lon="5.73507">
        <ele>756</ele>
        <time>2021-10-16T03:48:29.000Z</time>
      </trkpt>
      <trkpt lat="45.21467" lon="5.7351">
        <ele>756.79998779297</ele>
        <time>2021-10-16T03:48:31.000Z</time>
      </trkpt>
      <trkpt lat="45.21467" lon="5.73514">
        <ele>757.20001220703</ele>
        <time>2021-10-16T03:48:33.000Z</time>
      </trkpt>
      <trkpt lat="45.21468" lon="5.73519">
        <ele>758.20001220703</ele>
        <time>2021-10-16T03:48:36.000Z</time>
      </trkpt>
      <trkpt lat="45.21469" lon="5.7352">
        <ele>758.20001220703</ele>
        <time>2021-10-16T03:48:37.000Z</time>
      </trkpt>
      <trkpt lat="45.2147" lon="5.73526">
        <ele>759</ele>
        <time>2021-10-16T03:48:41.000Z</time>
      </trkpt>
      <trkpt lat="45.21471" lon="5.73527">
        <ele>759.20001220703</ele>
        <time>2021-10-16T03:48:42.000Z</time>
      </trkpt>
      <trkpt lat="45.21474" lon="5.73535">
        <ele>760</ele>
        <time>2021-10-16T03:48:47.000Z</time>
      </trkpt>
      <trkpt lat="45.21474" lon="5.73536">
        <ele>760.20001220703</ele>
        <time>2021-10-16T03:48:48.000Z</time>
      </trkpt>
      <trkpt lat="45.21476" lon="5.73541">
        <ele>761.59997558594</ele>
        <time>2021-10-16T03:48:52.000Z</time>
      </trkpt>
      <trkpt lat="45.21476" lon="5.73541">
        <ele>761.79998779297</ele>
        <time>2021-10-16T03:48:53.000Z</time>
      </trkpt>
      <trkpt lat="45.21477" lon="5.73542">
        <ele>762.20001220703</ele>
        <time>2021-10-16T03:48:54.000Z</time>
      </trkpt>
      <trkpt lat="45.2148" lon="5.73546">
        <ele>762.79998779297</ele>
        <time>2021-10-16T03:48:58.000Z</time>
      </trkpt>
      <trkpt lat="45.21485" lon="5.73548">
        <ele>763.59997558594</ele>
        <time>2021-10-16T03:49:03.000Z</time>
      </trkpt>
      <trkpt lat="45.21489" lon="5.73553">
        <ele>764.20001220703</ele>
        <time>2021-10-16T03:49:07.000Z</time>
      </trkpt>
      <trkpt lat="45.21492" lon="5.73555">
        <ele>764.59997558594</ele>
        <time>2021-10-16T03:49:09.000Z</time>
      </trkpt>
      <trkpt lat="45.21494" lon="5.73557">
        <ele>765</ele>
        <time>2021-10-16T03:49:11.000Z</time>
      </trkpt>
      <trkpt lat="45.21496" lon="5.73559">
        <ele>765.40002441406</ele>
        <time>2021-10-16T03:49:13.000Z</time>
      </trkpt>
      <trkpt lat="45.21497" lon="5.73559">
        <ele>766</ele>
        <time>2021-10-16T03:49:14.000Z</time>
      </trkpt>
      <trkpt lat="45.21498" lon="5.7356">
        <ele>766.40002441406</ele>
        <time>2021-10-16T03:49:15.000Z</time>
      </trkpt>
      <trkpt lat="45.215" lon="5.73562">
        <ele>766.59997558594</ele>
        <time>2021-10-16T03:49:17.000Z</time>
      </trkpt>
      <trkpt lat="45.21502" lon="5.73565">
        <ele>767.40002441406</ele>
        <time>2021-10-16T03:49:20.000Z</time>
      </trkpt>
      <trkpt lat="45.21502" lon="5.73565">
        <ele>768</ele>
        <time>2021-10-16T03:49:21.000Z</time>
      </trkpt>
      <trkpt lat="45.21503" lon="5.73572">
        <ele>768.20001220703</ele>
        <time>2021-10-16T03:49:24.000Z</time>
      </trkpt>
      <trkpt lat="45.21504" lon="5.73576">
        <ele>768.40002441406</ele>
        <time>2021-10-16T03:49:26.000Z</time>
      </trkpt>
      <trkpt lat="45.21505" lon="5.73579">
        <ele>769.20001220703</ele>
        <time>2021-10-16T03:49:28.000Z</time>
      </trkpt>
      <trkpt lat="45.21505" lon="5.73581">
        <ele>769.59997558594</ele>
        <time>2021-10-16T03:49:30.000Z</time>
      </trkpt>
      <trkpt lat="45.21505" lon="5.73582">
        <ele>769.59997558594</ele>
        <time>2021-10-16T03:49:31.000Z</time>
      </trkpt>
      <trkpt lat="45.21505" lon="5.73586">
        <ele>770.59997558594</ele>
        <time>2021-10-16T03:49:34.000Z</time>
      </trkpt>
      <trkpt lat="45.21505" lon="5.73587">
        <ele>770.59997558594</ele>
        <time>2021-10-16T03:49:35.000Z</time>
      </trkpt>
      <trkpt lat="45.21508" lon="5.73591">
        <ele>771.59997558594</ele>
        <time>2021-10-16T03:49:38.000Z</time>
      </trkpt>
      <trkpt lat="45.21511" lon="5.73594">
        <ele>772</ele>
        <time>2021-10-16T03:49:41.000Z</time>
      </trkpt>
      <trkpt lat="45.21512" lon="5.73594">
        <ele>773.20001220703</ele>
        <time>2021-10-16T03:49:43.000Z</time>
      </trkpt>
      <trkpt lat="45.21512" lon="5.73592">
        <ele>773.20001220703</ele>
        <time>2021-10-16T03:49:45.000Z</time>
      </trkpt>
      <trkpt lat="45.21511" lon="5.7359">
        <ele>773.79998779297</ele>
        <time>2021-10-16T03:49:47.000Z</time>
      </trkpt>
      <trkpt lat="45.2151" lon="5.73585">
        <ele>774.20001220703</ele>
        <time>2021-10-16T03:49:50.000Z</time>
      </trkpt>
      <trkpt lat="45.21514" lon="5.73577">
        <ele>775.40002441406</ele>
        <time>2021-10-16T03:49:55.000Z</time>
      </trkpt>
      <trkpt lat="45.21515" lon="5.73573">
        <ele>776.59997558594</ele>
        <time>2021-10-16T03:49:58.000Z</time>
      </trkpt>
      <trkpt lat="45.21517" lon="5.73577">
        <ele>777.59997558594</ele>
        <time>2021-10-16T03:50:02.000Z</time>
      </trkpt>
      <trkpt lat="45.21517" lon="5.73581">
        <ele>777.79998779297</ele>
        <time>2021-10-16T03:50:04.000Z</time>
      </trkpt>
      <trkpt lat="45.21518" lon="5.73584">
        <ele>778.20001220703</ele>
        <time>2021-10-16T03:50:06.000Z</time>
      </trkpt>
      <trkpt lat="45.21519" lon="5.73585">
        <ele>778.20001220703</ele>
        <time>2021-10-16T03:50:07.000Z</time>
      </trkpt>
      <trkpt lat="45.2152" lon="5.73587">
        <ele>778.79998779297</ele>
        <time>2021-10-16T03:50:08.000Z</time>
      </trkpt>
      <trkpt lat="45.21524" lon="5.73592">
        <ele>780</ele>
        <time>2021-10-16T03:50:14.000Z</time>
      </trkpt>
      <trkpt lat="45.21525" lon="5.73594">
        <ele>780.40002441406</ele>
        <time>2021-10-16T03:50:15.000Z</time>
      </trkpt>
      <trkpt lat="45.21525" lon="5.73594">
        <ele>780.40002441406</ele>
        <time>2021-10-16T03:50:16.000Z</time>
      </trkpt>
      <trkpt lat="45.21527" lon="5.73595">
        <ele>780.59997558594</ele>
        <time>2021-10-16T03:50:17.000Z</time>
      </trkpt>
      <trkpt lat="45.21528" lon="5.73596">
        <ele>781</ele>
        <time>2021-10-16T03:50:18.000Z</time>
      </trkpt>
      <trkpt lat="45.21528" lon="5.73598">
        <ele>781</ele>
        <time>2021-10-16T03:50:19.000Z</time>
      </trkpt>
      <trkpt lat="45.21531" lon="5.73603">
        <ele>781.79998779297</ele>
        <time>2021-10-16T03:50:22.000Z</time>
      </trkpt>
      <trkpt lat="45.21533" lon="5.73608">
        <ele>782</ele>
        <time>2021-10-16T03:50:25.000Z</time>
      </trkpt>
      <trkpt lat="45.21536" lon="5.73617">
        <ele>783.20001220703</ele>
        <time>2021-10-16T03:50:30.000Z</time>
      </trkpt>
      <trkpt lat="45.21536" lon="5.73618">
        <ele>783.20001220703</ele>
        <time>2021-10-16T03:50:31.000Z</time>
      </trkpt>
      <trkpt lat="45.21537" lon="5.73617">
        <ele>784.20001220703</ele>
        <time>2021-10-16T03:50:33.000Z</time>
      </trkpt>
      <trkpt lat="45.21538" lon="5.73615">
        <ele>784.59997558594</ele>
        <time>2021-10-16T03:50:35.000Z</time>
      </trkpt>
      <trkpt lat="45.21537" lon="5.73613">
        <ele>784.59997558594</ele>
        <time>2021-10-16T03:50:36.000Z</time>
      </trkpt>
      <trkpt lat="45.21537" lon="5.73609">
        <ele>785</ele>
        <time>2021-10-16T03:50:39.000Z</time>
      </trkpt>
      <trkpt lat="45.21537" lon="5.73608">
        <ele>785.79998779297</ele>
        <time>2021-10-16T03:50:40.000Z</time>
      </trkpt>
      <trkpt lat="45.21537" lon="5.73606">
        <ele>786.40002441406</ele>
        <time>2021-10-16T03:50:42.000Z</time>
      </trkpt>
      <trkpt lat="45.21537" lon="5.73605">
        <ele>786.40002441406</ele>
        <time>2021-10-16T03:50:43.000Z</time>
      </trkpt>
      <trkpt lat="45.21535" lon="5.73601">
        <ele>787</ele>
        <time>2021-10-16T03:50:47.000Z</time>
      </trkpt>
      <trkpt lat="45.21533" lon="5.73597">
        <ele>787.79998779297</ele>
        <time>2021-10-16T03:50:50.000Z</time>
      </trkpt>
      <trkpt lat="45.21534" lon="5.73596">
        <ele>788</ele>
        <time>2021-10-16T03:50:51.000Z</time>
      </trkpt>
      <trkpt lat="45.21536" lon="5.73596">
        <ele>788.40002441406</ele>
        <time>2021-10-16T03:50:54.000Z</time>
      </trkpt>
      <trkpt lat="45.21537" lon="5.73597">
        <ele>788.79998779297</ele>
        <time>2021-10-16T03:50:55.000Z</time>
      </trkpt>
      <trkpt lat="45.21537" lon="5.73598">
        <ele>789.40002441406</ele>
        <time>2021-10-16T03:50:56.000Z</time>
      </trkpt>
      <trkpt lat="45.21542" lon="5.73609">
        <ele>790</ele>
        <time>2021-10-16T03:51:02.000Z</time>
      </trkpt>
      <trkpt lat="45.21543" lon="5.73609">
        <ele>790.59997558594</ele>
        <time>2021-10-16T03:51:03.000Z</time>
      </trkpt>
      <trkpt lat="45.21543" lon="5.73609">
        <ele>791.20001220703</ele>
        <time>2021-10-16T03:51:05.000Z</time>
      </trkpt>
      <trkpt lat="45.21543" lon="5.73608">
        <ele>791.40002441406</ele>
        <time>2021-10-16T03:51:06.000Z</time>
      </trkpt>
      <trkpt lat="45.21542" lon="5.73606">
        <ele>791.79998779297</ele>
        <time>2021-10-16T03:51:08.000Z</time>
      </trkpt>
      <trkpt lat="45.21542" lon="5.73603">
        <ele>792.40002441406</ele>
        <time>2021-10-16T03:51:10.000Z</time>
      </trkpt>
      <trkpt lat="45.21542" lon="5.73601">
        <ele>792.40002441406</ele>
        <time>2021-10-16T03:51:11.000Z</time>
      </trkpt>
      <trkpt lat="45.21541" lon="5.73597">
        <ele>793</ele>
        <time>2021-10-16T03:51:14.000Z</time>
      </trkpt>
      <trkpt lat="45.21539" lon="5.73593">
        <ele>794</ele>
        <time>2021-10-16T03:51:18.000Z</time>
      </trkpt>
      <trkpt lat="45.21538" lon="5.73586">
        <ele>795.40002441406</ele>
        <time>2021-10-16T03:51:23.000Z</time>
      </trkpt>
      <trkpt lat="45.21537" lon="5.73582">
        <ele>795.59997558594</ele>
        <time>2021-10-16T03:51:25.000Z</time>
      </trkpt>
      <trkpt lat="45.21536" lon="5.73575">
        <ele>796.40002441406</ele>
        <time>2021-10-16T03:51:29.000Z</time>
      </trkpt>
      <trkpt lat="45.21536" lon="5.7357">
        <ele>797</ele>
        <time>2021-10-16T03:51:32.000Z</time>
      </trkpt>
      <trkpt lat="45.21535" lon="5.73568">
        <ele>797.40002441406</ele>
        <time>2021-10-16T03:51:33.000Z</time>
      </trkpt>
      <trkpt lat="45.21535" lon="5.7356">
        <ele>798.20001220703</ele>
        <time>2021-10-16T03:51:38.000Z</time>
      </trkpt>
      <trkpt lat="45.21535" lon="5.73558">
        <ele>799.20001220703</ele>
        <time>2021-10-16T03:51:39.000Z</time>
      </trkpt>
      <trkpt lat="45.21535" lon="5.73553">
        <ele>799.40002441406</ele>
        <time>2021-10-16T03:51:42.000Z</time>
      </trkpt>
      <trkpt lat="45.21536" lon="5.73546">
        <ele>800.40002441406</ele>
        <time>2021-10-16T03:51:46.000Z</time>
      </trkpt>
      <trkpt lat="45.21538" lon="5.73546">
        <ele>801</ele>
        <time>2021-10-16T03:51:49.000Z</time>
      </trkpt>
      <trkpt lat="45.21538" lon="5.73546">
        <ele>801.20001220703</ele>
        <time>2021-10-16T03:51:50.000Z</time>
      </trkpt>
      <trkpt lat="45.21538" lon="5.73548">
        <ele>801.59997558594</ele>
        <time>2021-10-16T03:51:52.000Z</time>
      </trkpt>
      <trkpt lat="45.21539" lon="5.73554">
        <ele>801.79998779297</ele>
        <time>2021-10-16T03:51:54.000Z</time>
      </trkpt>
      <trkpt lat="45.21542" lon="5.73558">
        <ele>802.79998779297</ele>
        <time>2021-10-16T03:51:58.000Z</time>
      </trkpt>
      <trkpt lat="45.21545" lon="5.73559">
        <ele>803</ele>
        <time>2021-10-16T03:52:00.000Z</time>
      </trkpt>
      <trkpt lat="45.21547" lon="5.7356">
        <ele>803.40002441406</ele>
        <time>2021-10-16T03:52:01.000Z</time>
      </trkpt>
      <trkpt lat="45.21548" lon="5.73561">
        <ele>804</ele>
        <time>2021-10-16T03:52:02.000Z</time>
      </trkpt>
      <trkpt lat="45.2155" lon="5.73565">
        <ele>804.79998779297</ele>
        <time>2021-10-16T03:52:05.000Z</time>
      </trkpt>
      <trkpt lat="45.2155" lon="5.73566">
        <ele>805</ele>
        <time>2021-10-16T03:52:06.000Z</time>
      </trkpt>
      <trkpt lat="45.21552" lon="5.73569">
        <ele>805.79998779297</ele>
        <time>2021-10-16T03:52:09.000Z</time>
      </trkpt>
      <trkpt lat="45.21553" lon="5.73572">
        <ele>806.40002441406</ele>
        <time>2021-10-16T03:52:11.000Z</time>
      </trkpt>
      <trkpt lat="45.21557" lon="5.73576">
        <ele>807.59997558594</ele>
        <time>2021-10-16T03:52:15.000Z</time>
      </trkpt>
      <trkpt lat="45.21558" lon="5.73578">
        <ele>807.59997558594</ele>
        <time>2021-10-16T03:52:16.000Z</time>
      </trkpt>
      <trkpt lat="45.21559" lon="5.73581">
        <ele>808</ele>
        <time>2021-10-16T03:52:18.000Z</time>
      </trkpt>
      <trkpt lat="45.21562" lon="5.73585">
        <ele>808.79998779297</ele>
        <time>2021-10-16T03:52:21.000Z</time>
      </trkpt>
      <trkpt lat="45.21564" lon="5.7359">
        <ele>809.59997558594</ele>
        <time>2021-10-16T03:52:25.000Z</time>
      </trkpt>
      <trkpt lat="45.21564" lon="5.7359">
        <ele>810</ele>
        <time>2021-10-16T03:52:26.000Z</time>
      </trkpt>
      <trkpt lat="45.21563" lon="5.73588">
        <ele>810.59997558594</ele>
        <time>2021-10-16T03:52:28.000Z</time>
      </trkpt>
      <trkpt lat="45.21563" lon="5.73585">
        <ele>810.79998779297</ele>
        <time>2021-10-16T03:52:30.000Z</time>
      </trkpt>
      <trkpt lat="45.21563" lon="5.73584">
        <ele>811.20001220703</ele>
        <time>2021-10-16T03:52:31.000Z</time>
      </trkpt>
      <trkpt lat="45.21562" lon="5.73577">
        <ele>812.59997558594</ele>
        <time>2021-10-16T03:52:35.000Z</time>
      </trkpt>
      <trkpt lat="45.21562" lon="5.73571">
        <ele>813.79998779297</ele>
        <time>2021-10-16T03:52:39.000Z</time>
      </trkpt>
      <trkpt lat="45.21559" lon="5.73561">
        <ele>814.79998779297</ele>
        <time>2021-10-16T03:52:44.000Z</time>
      </trkpt>
      <trkpt lat="45.21558" lon="5.73557">
        <ele>815</ele>
        <time>2021-10-16T03:52:46.000Z</time>
      </trkpt>
      <trkpt lat="45.21558" lon="5.73554">
        <ele>815.20001220703</ele>
        <time>2021-10-16T03:52:47.000Z</time>
      </trkpt>
      <trkpt lat="45.21558" lon="5.7355">
        <ele>816</ele>
        <time>2021-10-16T03:52:50.000Z</time>
      </trkpt>
      <trkpt lat="45.21558" lon="5.73546">
        <ele>816.59997558594</ele>
        <time>2021-10-16T03:52:53.000Z</time>
      </trkpt>
      <trkpt lat="45.21558" lon="5.73543">
        <ele>816.79998779297</ele>
        <time>2021-10-16T03:52:55.000Z</time>
      </trkpt>
      <trkpt lat="45.21558" lon="5.73541">
        <ele>817.59997558594</ele>
        <time>2021-10-16T03:52:56.000Z</time>
      </trkpt>
      <trkpt lat="45.21558" lon="5.73533">
        <ele>818</ele>
        <time>2021-10-16T03:53:00.000Z</time>
      </trkpt>
      <trkpt lat="45.21558" lon="5.73531">
        <ele>818.59997558594</ele>
        <time>2021-10-16T03:53:01.000Z</time>
      </trkpt>
      <trkpt lat="45.21557" lon="5.73526">
        <ele>819</ele>
        <time>2021-10-16T03:53:04.000Z</time>
      </trkpt>
      <trkpt lat="45.21559" lon="5.7352">
        <ele>819.59997558594</ele>
        <time>2021-10-16T03:53:07.000Z</time>
      </trkpt>
      <trkpt lat="45.2156" lon="5.73514">
        <ele>820.79998779297</ele>
        <time>2021-10-16T03:53:10.000Z</time>
      </trkpt>
      <trkpt lat="45.2156" lon="5.73512">
        <ele>820.79998779297</ele>
        <time>2021-10-16T03:53:11.000Z</time>
      </trkpt>
      <trkpt lat="45.21559" lon="5.73506">
        <ele>821.79998779297</ele>
        <time>2021-10-16T03:53:15.000Z</time>
      </trkpt>
      <trkpt lat="45.21559" lon="5.73505">
        <ele>822</ele>
        <time>2021-10-16T03:53:16.000Z</time>
      </trkpt>
      <trkpt lat="45.21559" lon="5.73503">
        <ele>822.20001220703</ele>
        <time>2021-10-16T03:53:17.000Z</time>
      </trkpt>
      <trkpt lat="45.21561" lon="5.73496">
        <ele>823</ele>
        <time>2021-10-16T03:53:21.000Z</time>
      </trkpt>
      <trkpt lat="45.21559" lon="5.73491">
        <ele>824</ele>
        <time>2021-10-16T03:53:25.000Z</time>
      </trkpt>
      <trkpt lat="45.21558" lon="5.73489">
        <ele>824.20001220703</ele>
        <time>2021-10-16T03:53:27.000Z</time>
      </trkpt>
      <trkpt lat="45.21556" lon="5.73487">
        <ele>824.20001220703</ele>
        <time>2021-10-16T03:53:29.000Z</time>
      </trkpt>
      <trkpt lat="45.21554" lon="5.73486">
        <ele>824.79998779297</ele>
        <time>2021-10-16T03:53:30.000Z</time>
      </trkpt>
      <trkpt lat="45.21551" lon="5.73485">
        <ele>825.20001220703</ele>
        <time>2021-10-16T03:53:33.000Z</time>
      </trkpt>
      <trkpt lat="45.21548" lon="5.73484">
        <ele>825.79998779297</ele>
        <time>2021-10-16T03:53:35.000Z</time>
      </trkpt>
      <trkpt lat="45.21543" lon="5.73482">
        <ele>826.20001220703</ele>
        <time>2021-10-16T03:53:38.000Z</time>
      </trkpt>
      <trkpt lat="45.21539" lon="5.7348">
        <ele>827.20001220703</ele>
        <time>2021-10-16T03:53:41.000Z</time>
      </trkpt>
      <trkpt lat="45.21538" lon="5.73479">
        <ele>827.59997558594</ele>
        <time>2021-10-16T03:53:42.000Z</time>
      </trkpt>
      <trkpt lat="45.21538" lon="5.73475">
        <ele>827.59997558594</ele>
        <time>2021-10-16T03:53:44.000Z</time>
      </trkpt>
      <trkpt lat="45.21538" lon="5.73474">
        <ele>827.59997558594</ele>
        <time>2021-10-16T03:53:45.000Z</time>
      </trkpt>
      <trkpt lat="45.2154" lon="5.73475">
        <ele>828.79998779297</ele>
        <time>2021-10-16T03:53:48.000Z</time>
      </trkpt>
      <trkpt lat="45.21542" lon="5.73476">
        <ele>829.59997558594</ele>
        <time>2021-10-16T03:53:50.000Z</time>
      </trkpt>
      <trkpt lat="45.21544" lon="5.73476">
        <ele>829.79998779297</ele>
        <time>2021-10-16T03:53:51.000Z</time>
      </trkpt>
      <trkpt lat="45.2155" lon="5.73473">
        <ele>830.40002441406</ele>
        <time>2021-10-16T03:53:56.000Z</time>
      </trkpt>
      <trkpt lat="45.21552" lon="5.73473">
        <ele>830.79998779297</ele>
        <time>2021-10-16T03:53:57.000Z</time>
      </trkpt>
      <trkpt lat="45.21553" lon="5.73473">
        <ele>831.40002441406</ele>
        <time>2021-10-16T03:53:58.000Z</time>
      </trkpt>
      <trkpt lat="45.21559" lon="5.73473">
        <ele>832.20001220703</ele>
        <time>2021-10-16T03:54:03.000Z</time>
      </trkpt>
      <trkpt lat="45.2156" lon="5.73473">
        <ele>832.40002441406</ele>
        <time>2021-10-16T03:54:04.000Z</time>
      </trkpt>
      <trkpt lat="45.21563" lon="5.73476">
        <ele>833.40002441406</ele>
        <time>2021-10-16T03:54:08.000Z</time>
      </trkpt>
      <trkpt lat="45.21564" lon="5.73477">
        <ele>833.59997558594</ele>
        <time>2021-10-16T03:54:09.000Z</time>
      </trkpt>
      <trkpt lat="45.21565" lon="5.73478">
        <ele>833.79998779297</ele>
        <time>2021-10-16T03:54:10.000Z</time>
      </trkpt>
      <trkpt lat="45.21567" lon="5.73482">
        <ele>834.59997558594</ele>
        <time>2021-10-16T03:54:14.000Z</time>
      </trkpt>
      <trkpt lat="45.21569" lon="5.73487">
        <ele>835</ele>
        <time>2021-10-16T03:54:17.000Z</time>
      </trkpt>
      <trkpt lat="45.21574" lon="5.73493">
        <ele>835.59997558594</ele>
        <time>2021-10-16T03:54:21.000Z</time>
      </trkpt>
      <trkpt lat="45.21574" lon="5.73495">
        <ele>836.20001220703</ele>
        <time>2021-10-16T03:54:22.000Z</time>
      </trkpt>
      <trkpt lat="45.21575" lon="5.73497">
        <ele>836.40002441406</ele>
        <time>2021-10-16T03:54:23.000Z</time>
      </trkpt>
      <trkpt lat="45.21575" lon="5.73499">
        <ele>837.20001220703</ele>
        <time>2021-10-16T03:54:24.000Z</time>
      </trkpt>
      <trkpt lat="45.21578" lon="5.7351">
        <ele>838.40002441406</ele>
        <time>2021-10-16T03:54:29.000Z</time>
      </trkpt>
      <trkpt lat="45.2158" lon="5.73516">
        <ele>838.79998779297</ele>
        <time>2021-10-16T03:54:32.000Z</time>
      </trkpt>
      <trkpt lat="45.21582" lon="5.73519">
        <ele>839.40002441406</ele>
        <time>2021-10-16T03:54:34.000Z</time>
      </trkpt>
      <trkpt lat="45.21583" lon="5.73525">
        <ele>840.40002441406</ele>
        <time>2021-10-16T03:54:38.000Z</time>
      </trkpt>
      <trkpt lat="45.21584" lon="5.73526">
        <ele>840.59997558594</ele>
        <time>2021-10-16T03:54:39.000Z</time>
      </trkpt>
      <trkpt lat="45.21586" lon="5.73528">
        <ele>841.20001220703</ele>
        <time>2021-10-16T03:54:41.000Z</time>
      </trkpt>
      <trkpt lat="45.21587" lon="5.7353">
        <ele>841.59997558594</ele>
        <time>2021-10-16T03:54:42.000Z</time>
      </trkpt>
      <trkpt lat="45.21589" lon="5.73535">
        <ele>842.20001220703</ele>
        <time>2021-10-16T03:54:45.000Z</time>
      </trkpt>
      <trkpt lat="45.2159" lon="5.73537">
        <ele>842.79998779297</ele>
        <time>2021-10-16T03:54:47.000Z</time>
      </trkpt>
      <trkpt lat="45.21594" lon="5.73543">
        <ele>844</ele>
        <time>2021-10-16T03:54:52.000Z</time>
      </trkpt>
      <trkpt lat="45.21596" lon="5.73545">
        <ele>844.59997558594</ele>
        <time>2021-10-16T03:54:54.000Z</time>
      </trkpt>
      <trkpt lat="45.21597" lon="5.73546">
        <ele>845</ele>
        <time>2021-10-16T03:54:55.000Z</time>
      </trkpt>
      <trkpt lat="45.21599" lon="5.73551">
        <ele>845.79998779297</ele>
        <time>2021-10-16T03:54:58.000Z</time>
      </trkpt>
      <trkpt lat="45.21602" lon="5.73556">
        <ele>846.20001220703</ele>
        <time>2021-10-16T03:55:01.000Z</time>
      </trkpt>
      <trkpt lat="45.21605" lon="5.73561">
        <ele>846.79998779297</ele>
        <time>2021-10-16T03:55:05.000Z</time>
      </trkpt>
      <trkpt lat="45.21606" lon="5.73561">
        <ele>847.40002441406</ele>
        <time>2021-10-16T03:55:06.000Z</time>
      </trkpt>
      <trkpt lat="45.21611" lon="5.73566">
        <ele>848.79998779297</ele>
        <time>2021-10-16T03:55:11.000Z</time>
      </trkpt>
      <trkpt lat="45.21612" lon="5.73569">
        <ele>849.40002441406</ele>
        <time>2021-10-16T03:55:13.000Z</time>
      </trkpt>
      <trkpt lat="45.21615" lon="5.7357">
        <ele>849.79998779297</ele>
        <time>2021-10-16T03:55:15.000Z</time>
      </trkpt>
      <trkpt lat="45.21616" lon="5.73571">
        <ele>849.79998779297</ele>
        <time>2021-10-16T03:55:16.000Z</time>
      </trkpt>
      <trkpt lat="45.21618" lon="5.73573">
        <ele>851</ele>
        <time>2021-10-16T03:55:19.000Z</time>
      </trkpt>
      <trkpt lat="45.21619" lon="5.73573">
        <ele>851</ele>
        <time>2021-10-16T03:55:20.000Z</time>
      </trkpt>
      <trkpt lat="45.21625" lon="5.73575">
        <ele>852.20001220703</ele>
        <time>2021-10-16T03:55:24.000Z</time>
      </trkpt>
      <trkpt lat="45.21626" lon="5.73576">
        <ele>852.59997558594</ele>
        <time>2021-10-16T03:55:26.000Z</time>
      </trkpt>
      <trkpt lat="45.21625" lon="5.73575">
        <ele>853</ele>
        <time>2021-10-16T03:55:29.000Z</time>
      </trkpt>
      <trkpt lat="45.21625" lon="5.73575">
        <ele>853.59997558594</ele>
        <time>2021-10-16T03:55:30.000Z</time>
      </trkpt>
      <trkpt lat="45.21624" lon="5.73575">
        <ele>854.20001220703</ele>
        <time>2021-10-16T03:55:32.000Z</time>
      </trkpt>
      <trkpt lat="45.21623" lon="5.73573">
        <ele>855</ele>
        <time>2021-10-16T03:55:34.000Z</time>
      </trkpt>
      <trkpt lat="45.21623" lon="5.73572">
        <ele>855</ele>
        <time>2021-10-16T03:55:35.000Z</time>
      </trkpt>
      <trkpt lat="45.21622" lon="5.73569">
        <ele>855.40002441406</ele>
        <time>2021-10-16T03:55:37.000Z</time>
      </trkpt>
      <trkpt lat="45.21621" lon="5.73567">
        <ele>856</ele>
        <time>2021-10-16T03:55:39.000Z</time>
      </trkpt>
      <trkpt lat="45.2162" lon="5.73563">
        <ele>856.59997558594</ele>
        <time>2021-10-16T03:55:41.000Z</time>
      </trkpt>
      <trkpt lat="45.21619" lon="5.73558">
        <ele>857</ele>
        <time>2021-10-16T03:55:44.000Z</time>
      </trkpt>
      <trkpt lat="45.21617" lon="5.7355">
        <ele>858.40002441406</ele>
        <time>2021-10-16T03:55:49.000Z</time>
      </trkpt>
      <trkpt lat="45.21618" lon="5.73548">
        <ele>858.59997558594</ele>
        <time>2021-10-16T03:55:50.000Z</time>
      </trkpt>
      <trkpt lat="45.21618" lon="5.73545">
        <ele>858.79998779297</ele>
        <time>2021-10-16T03:55:52.000Z</time>
      </trkpt>
      <trkpt lat="45.21617" lon="5.73544">
        <ele>859.40002441406</ele>
        <time>2021-10-16T03:55:53.000Z</time>
      </trkpt>
      <trkpt lat="45.21616" lon="5.73537">
        <ele>859.79998779297</ele>
        <time>2021-10-16T03:55:56.000Z</time>
      </trkpt>
      <trkpt lat="45.21615" lon="5.73535">
        <ele>860.59997558594</ele>
        <time>2021-10-16T03:55:58.000Z</time>
      </trkpt>
      <trkpt lat="45.21616" lon="5.73534">
        <ele>860.59997558594</ele>
        <time>2021-10-16T03:55:59.000Z</time>
      </trkpt>
      <trkpt lat="45.21617" lon="5.73532">
        <ele>861</ele>
        <time>2021-10-16T03:56:01.000Z</time>
      </trkpt>
      <trkpt lat="45.21619" lon="5.73534">
        <ele>861.79998779297</ele>
        <time>2021-10-16T03:56:03.000Z</time>
      </trkpt>
      <trkpt lat="45.2162" lon="5.73536">
        <ele>862</ele>
        <time>2021-10-16T03:56:05.000Z</time>
      </trkpt>
      <trkpt lat="45.21621" lon="5.73538">
        <ele>863</ele>
        <time>2021-10-16T03:56:07.000Z</time>
      </trkpt>
      <trkpt lat="45.21623" lon="5.73541">
        <ele>863.20001220703</ele>
        <time>2021-10-16T03:56:10.000Z</time>
      </trkpt>
      <trkpt lat="45.21626" lon="5.73544">
        <ele>863.79998779297</ele>
        <time>2021-10-16T03:56:13.000Z</time>
      </trkpt>
      <trkpt lat="45.21627" lon="5.73544">
        <ele>864.40002441406</ele>
        <time>2021-10-16T03:56:14.000Z</time>
      </trkpt>
      <trkpt lat="45.21629" lon="5.73548">
        <ele>865</ele>
        <time>2021-10-16T03:56:17.000Z</time>
      </trkpt>
      <trkpt lat="45.21631" lon="5.73552">
        <ele>865.59997558594</ele>
        <time>2021-10-16T03:56:20.000Z</time>
      </trkpt>
      <trkpt lat="45.21633" lon="5.73554">
        <ele>866.59997558594</ele>
        <time>2021-10-16T03:56:23.000Z</time>
      </trkpt>
      <trkpt lat="45.21635" lon="5.73556">
        <ele>866.59997558594</ele>
        <time>2021-10-16T03:56:25.000Z</time>
      </trkpt>
      <trkpt lat="45.21638" lon="5.73558">
        <ele>867.79998779297</ele>
        <time>2021-10-16T03:56:27.000Z</time>
      </trkpt>
      <trkpt lat="45.21643" lon="5.7356">
        <ele>868.59997558594</ele>
        <time>2021-10-16T03:56:33.000Z</time>
      </trkpt>
      <trkpt lat="45.21645" lon="5.7356">
        <ele>869.20001220703</ele>
        <time>2021-10-16T03:56:35.000Z</time>
      </trkpt>
      <trkpt lat="45.21647" lon="5.73561">
        <ele>870</ele>
        <time>2021-10-16T03:56:37.000Z</time>
      </trkpt>
      <trkpt lat="45.21651" lon="5.7356">
        <ele>870.40002441406</ele>
        <time>2021-10-16T03:56:41.000Z</time>
      </trkpt>
      <trkpt lat="45.21653" lon="5.73559">
        <ele>871.20001220703</ele>
        <time>2021-10-16T03:56:43.000Z</time>
      </trkpt>
      <trkpt lat="45.21655" lon="5.73559">
        <ele>871.59997558594</ele>
        <time>2021-10-16T03:56:45.000Z</time>
      </trkpt>
      <trkpt lat="45.21656" lon="5.73559">
        <ele>871.59997558594</ele>
        <time>2021-10-16T03:56:46.000Z</time>
      </trkpt>
      <trkpt lat="45.21658" lon="5.73558">
        <ele>872</ele>
        <time>2021-10-16T03:56:48.000Z</time>
      </trkpt>
      <trkpt lat="45.2166" lon="5.73558">
        <ele>872.79998779297</ele>
        <time>2021-10-16T03:56:50.000Z</time>
      </trkpt>
      <trkpt lat="45.21663" lon="5.73559">
        <ele>873.20001220703</ele>
        <time>2021-10-16T03:56:53.000Z</time>
      </trkpt>
      <trkpt lat="45.21667" lon="5.73559">
        <ele>873.79998779297</ele>
        <time>2021-10-16T03:56:56.000Z</time>
      </trkpt>
      <trkpt lat="45.21668" lon="5.73559">
        <ele>874.40002441406</ele>
        <time>2021-10-16T03:56:57.000Z</time>
      </trkpt>
      <trkpt lat="45.21673" lon="5.73557">
        <ele>875</ele>
        <time>2021-10-16T03:57:01.000Z</time>
      </trkpt>
      <trkpt lat="45.21678" lon="5.73556">
        <ele>875.40002441406</ele>
        <time>2021-10-16T03:57:03.000Z</time>
      </trkpt>
      <trkpt lat="45.21682" lon="5.73558">
        <ele>875.79998779297</ele>
        <time>2021-10-16T03:57:06.000Z</time>
      </trkpt>
      <trkpt lat="45.21683" lon="5.73559">
        <ele>875.79998779297</ele>
        <time>2021-10-16T03:57:07.000Z</time>
      </trkpt>
      <trkpt lat="45.21684" lon="5.73559">
        <ele>875.79998779297</ele>
        <time>2021-10-16T03:57:08.000Z</time>
      </trkpt>
      <trkpt lat="45.2169" lon="5.73561">
        <ele>876.79998779297</ele>
        <time>2021-10-16T03:57:12.000Z</time>
      </trkpt>
      <trkpt lat="45.21692" lon="5.73563">
        <ele>877.20001220703</ele>
        <time>2021-10-16T03:57:14.000Z</time>
      </trkpt>
      <trkpt lat="45.21695" lon="5.73563">
        <ele>878.20001220703</ele>
        <time>2021-10-16T03:57:17.000Z</time>
      </trkpt>
      <trkpt lat="45.217" lon="5.73567">
        <ele>878.79998779297</ele>
        <time>2021-10-16T03:57:21.000Z</time>
      </trkpt>
      <trkpt lat="45.21701" lon="5.73566">
        <ele>879.20001220703</ele>
        <time>2021-10-16T03:57:22.000Z</time>
      </trkpt>
      <trkpt lat="45.21702" lon="5.73566">
        <ele>880.20001220703</ele>
        <time>2021-10-16T03:57:25.000Z</time>
      </trkpt>
      <trkpt lat="45.21701" lon="5.73565">
        <ele>881</ele>
        <time>2021-10-16T03:57:26.000Z</time>
      </trkpt>
      <trkpt lat="45.217" lon="5.73564">
        <ele>881.20001220703</ele>
        <time>2021-10-16T03:57:28.000Z</time>
      </trkpt>
      <trkpt lat="45.21697" lon="5.73558">
        <ele>882.40002441406</ele>
        <time>2021-10-16T03:57:32.000Z</time>
      </trkpt>
      <trkpt lat="45.21695" lon="5.73554">
        <ele>882.79998779297</ele>
        <time>2021-10-16T03:57:35.000Z</time>
      </trkpt>
      <trkpt lat="45.21695" lon="5.73552">
        <ele>883.40002441406</ele>
        <time>2021-10-16T03:57:37.000Z</time>
      </trkpt>
      <trkpt lat="45.21694" lon="5.73551">
        <ele>883.59997558594</ele>
        <time>2021-10-16T03:57:38.000Z</time>
      </trkpt>
      <trkpt lat="45.21692" lon="5.7355">
        <ele>883.79998779297</ele>
        <time>2021-10-16T03:57:40.000Z</time>
      </trkpt>
      <trkpt lat="45.2169" lon="5.73547">
        <ele>884.40002441406</ele>
        <time>2021-10-16T03:57:42.000Z</time>
      </trkpt>
      <trkpt lat="45.21688" lon="5.73546">
        <ele>884.79998779297</ele>
        <time>2021-10-16T03:57:44.000Z</time>
      </trkpt>
      <trkpt lat="45.21687" lon="5.73545">
        <ele>884.79998779297</ele>
        <time>2021-10-16T03:57:45.000Z</time>
      </trkpt>
      <trkpt lat="45.21683" lon="5.73543">
        <ele>885.79998779297</ele>
        <time>2021-10-16T03:57:48.000Z</time>
      </trkpt>
      <trkpt lat="45.2168" lon="5.73542">
        <ele>886.20001220703</ele>
        <time>2021-10-16T03:57:50.000Z</time>
      </trkpt>
      <trkpt lat="45.21677" lon="5.7354">
        <ele>887</ele>
        <time>2021-10-16T03:57:54.000Z</time>
      </trkpt>
      <trkpt lat="45.21673" lon="5.73537">
        <ele>887.79998779297</ele>
        <time>2021-10-16T03:57:57.000Z</time>
      </trkpt>
      <trkpt lat="45.2167" lon="5.73536">
        <ele>888.79998779297</ele>
        <time>2021-10-16T03:58:00.000Z</time>
      </trkpt>
      <trkpt lat="45.21668" lon="5.73532">
        <ele>889.20001220703</ele>
        <time>2021-10-16T03:58:03.000Z</time>
      </trkpt>
      <trkpt lat="45.21667" lon="5.73529">
        <ele>889.79998779297</ele>
        <time>2021-10-16T03:58:05.000Z</time>
      </trkpt>
      <trkpt lat="45.21668" lon="5.73528">
        <ele>890</ele>
        <time>2021-10-16T03:58:06.000Z</time>
      </trkpt>
      <trkpt lat="45.21668" lon="5.73526">
        <ele>891.40002441406</ele>
        <time>2021-10-16T03:58:08.000Z</time>
      </trkpt>
      <trkpt lat="45.21669" lon="5.73526">
        <ele>891.59997558594</ele>
        <time>2021-10-16T03:58:09.000Z</time>
      </trkpt>
      <trkpt lat="45.21671" lon="5.73525">
        <ele>891.79998779297</ele>
        <time>2021-10-16T03:58:10.000Z</time>
      </trkpt>
      <trkpt lat="45.21675" lon="5.73524">
        <ele>892.40002441406</ele>
        <time>2021-10-16T03:58:13.000Z</time>
      </trkpt>
      <trkpt lat="45.21679" lon="5.73523">
        <ele>893.20001220703</ele>
        <time>2021-10-16T03:58:17.000Z</time>
      </trkpt>
      <trkpt lat="45.21682" lon="5.73522">
        <ele>893.59997558594</ele>
        <time>2021-10-16T03:58:19.000Z</time>
      </trkpt>
      <trkpt lat="45.21686" lon="5.73522">
        <ele>894.20001220703</ele>
        <time>2021-10-16T03:58:23.000Z</time>
      </trkpt>
      <trkpt lat="45.21689" lon="5.73522">
        <ele>895</ele>
        <time>2021-10-16T03:58:26.000Z</time>
      </trkpt>
      <trkpt lat="45.21694" lon="5.73523">
        <ele>895.40002441406</ele>
        <time>2021-10-16T03:58:30.000Z</time>
      </trkpt>
      <trkpt lat="45.21696" lon="5.73522">
        <ele>896.59997558594</ele>
        <time>2021-10-16T03:58:33.000Z</time>
      </trkpt>
      <trkpt lat="45.21698" lon="5.73521">
        <ele>896.59997558594</ele>
        <time>2021-10-16T03:58:35.000Z</time>
      </trkpt>
      <trkpt lat="45.21704" lon="5.73522">
        <ele>898.20001220703</ele>
        <time>2021-10-16T03:58:40.000Z</time>
      </trkpt>
      <trkpt lat="45.21707" lon="5.73523">
        <ele>898.40002441406</ele>
        <time>2021-10-16T03:58:42.000Z</time>
      </trkpt>
      <trkpt lat="45.21711" lon="5.73525">
        <ele>899.20001220703</ele>
        <time>2021-10-16T03:58:46.000Z</time>
      </trkpt>
      <trkpt lat="45.21713" lon="5.73526">
        <ele>900.20001220703</ele>
        <time>2021-10-16T03:58:49.000Z</time>
      </trkpt>
      <trkpt lat="45.21713" lon="5.73527">
        <ele>900.40002441406</ele>
        <time>2021-10-16T03:58:50.000Z</time>
      </trkpt>
      <trkpt lat="45.21712" lon="5.73527">
        <ele>901.20001220703</ele>
        <time>2021-10-16T03:58:52.000Z</time>
      </trkpt>
      <trkpt lat="45.21712" lon="5.73526">
        <ele>901.59997558594</ele>
        <time>2021-10-16T03:58:53.000Z</time>
      </trkpt>
      <trkpt lat="45.21711" lon="5.73525">
        <ele>901.79998779297</ele>
        <time>2021-10-16T03:58:54.000Z</time>
      </trkpt>
      <trkpt lat="45.21708" lon="5.73524">
        <ele>902</ele>
        <time>2021-10-16T03:58:57.000Z</time>
      </trkpt>
      <trkpt lat="45.21704" lon="5.73521">
        <ele>902.40002441406</ele>
        <time>2021-10-16T03:59:02.000Z</time>
      </trkpt>
      <trkpt lat="45.21703" lon="5.7352">
        <ele>902.59997558594</ele>
        <time>2021-10-16T03:59:03.000Z</time>
      </trkpt>
      <trkpt lat="45.21702" lon="5.73519">
        <ele>902.59997558594</ele>
        <time>2021-10-16T03:59:04.000Z</time>
      </trkpt>
      <trkpt lat="45.21701" lon="5.73517">
        <ele>903.40002441406</ele>
        <time>2021-10-16T03:59:06.000Z</time>
      </trkpt>
      <trkpt lat="45.217" lon="5.73515">
        <ele>903.59997558594</ele>
        <time>2021-10-16T03:59:07.000Z</time>
      </trkpt>
      <trkpt lat="45.21699" lon="5.73513">
        <ele>903.79998779297</ele>
        <time>2021-10-16T03:59:08.000Z</time>
      </trkpt>
      <trkpt lat="45.21695" lon="5.7351">
        <ele>905.20001220703</ele>
        <time>2021-10-16T03:59:13.000Z</time>
      </trkpt>
      <trkpt lat="45.21692" lon="5.73511">
        <ele>905.79998779297</ele>
        <time>2021-10-16T03:59:15.000Z</time>
      </trkpt>
      <trkpt lat="45.2169" lon="5.7351">
        <ele>906.40002441406</ele>
        <time>2021-10-16T03:59:18.000Z</time>
      </trkpt>
      <trkpt lat="45.21689" lon="5.7351">
        <ele>906.59997558594</ele>
        <time>2021-10-16T03:59:19.000Z</time>
      </trkpt>
      <trkpt lat="45.21687" lon="5.73509">
        <ele>907.59997558594</ele>
        <time>2021-10-16T03:59:22.000Z</time>
      </trkpt>
      <trkpt lat="45.21686" lon="5.73508">
        <ele>907.59997558594</ele>
        <time>2021-10-16T03:59:23.000Z</time>
      </trkpt>
      <trkpt lat="45.21685" lon="5.73508">
        <ele>907.79998779297</ele>
        <time>2021-10-16T03:59:24.000Z</time>
      </trkpt>
      <trkpt lat="45.21682" lon="5.73506">
        <ele>908.59997558594</ele>
        <time>2021-10-16T03:59:28.000Z</time>
      </trkpt>
      <trkpt lat="45.21682" lon="5.73505">
        <ele>909</ele>
        <time>2021-10-16T03:59:29.000Z</time>
      </trkpt>
      <trkpt lat="45.21679" lon="5.73504">
        <ele>909.79998779297</ele>
        <time>2021-10-16T03:59:32.000Z</time>
      </trkpt>
      <trkpt lat="45.21676" lon="5.73501">
        <ele>910.40002441406</ele>
        <time>2021-10-16T03:59:35.000Z</time>
      </trkpt>
      <trkpt lat="45.21676" lon="5.73499">
        <ele>910.40002441406</ele>
        <time>2021-10-16T03:59:36.000Z</time>
      </trkpt>
      <trkpt lat="45.21675" lon="5.73498">
        <ele>910.40002441406</ele>
        <time>2021-10-16T03:59:37.000Z</time>
      </trkpt>
      <trkpt lat="45.21675" lon="5.73496">
        <ele>910.79998779297</ele>
        <time>2021-10-16T03:59:39.000Z</time>
      </trkpt>
      <trkpt lat="45.21675" lon="5.73492">
        <ele>911.20001220703</ele>
        <time>2021-10-16T03:59:41.000Z</time>
      </trkpt>
      <trkpt lat="45.21675" lon="5.7349">
        <ele>911.20001220703</ele>
        <time>2021-10-16T03:59:42.000Z</time>
      </trkpt>
      <trkpt lat="45.21676" lon="5.7349">
        <ele>912</ele>
        <time>2021-10-16T03:59:43.000Z</time>
      </trkpt>
      <trkpt lat="45.21679" lon="5.73492">
        <ele>912.20001220703</ele>
        <time>2021-10-16T03:59:46.000Z</time>
      </trkpt>
      <trkpt lat="45.21689" lon="5.73496">
        <ele>913.20001220703</ele>
        <time>2021-10-16T03:59:51.000Z</time>
      </trkpt>
      <trkpt lat="45.21691" lon="5.73497">
        <ele>913.20001220703</ele>
        <time>2021-10-16T03:59:52.000Z</time>
      </trkpt>
      <trkpt lat="45.21704" lon="5.73496">
        <ele>913.40002441406</ele>
        <time>2021-10-16T03:59:58.000Z</time>
      </trkpt>
      <trkpt lat="45.21716" lon="5.73494">
        <ele>914</ele>
        <time>2021-10-16T04:00:04.000Z</time>
      </trkpt>
      <trkpt lat="45.21717" lon="5.73495">
        <ele>914.20001220703</ele>
        <time>2021-10-16T04:00:05.000Z</time>
      </trkpt>
      <trkpt lat="45.21718" lon="5.73497">
        <ele>914.20001220703</ele>
        <time>2021-10-16T04:00:06.000Z</time>
      </trkpt>
      <trkpt lat="45.21719" lon="5.73503">
        <ele>914.20001220703</ele>
        <time>2021-10-16T04:00:08.000Z</time>
      </trkpt>
      <trkpt lat="45.21721" lon="5.73504">
        <ele>914.20001220703</ele>
        <time>2021-10-16T04:00:09.000Z</time>
      </trkpt>
      <trkpt lat="45.21729" lon="5.73507">
        <ele>914.59997558594</ele>
        <time>2021-10-16T04:00:13.000Z</time>
      </trkpt>
      <trkpt lat="45.21735" lon="5.73515">
        <ele>914.79998779297</ele>
        <time>2021-10-16T04:00:17.000Z</time>
      </trkpt>
      <trkpt lat="45.21737" lon="5.73519">
        <ele>914.59997558594</ele>
        <time>2021-10-16T04:00:19.000Z</time>
      </trkpt>
      <trkpt lat="45.2174" lon="5.7352">
        <ele>914.59997558594</ele>
        <time>2021-10-16T04:00:20.000Z</time>
      </trkpt>
      <trkpt lat="45.21743" lon="5.7352">
        <ele>914.59997558594</ele>
        <time>2021-10-16T04:00:22.000Z</time>
      </trkpt>
      <trkpt lat="45.21757" lon="5.7352">
        <ele>914.40002441406</ele>
        <time>2021-10-16T04:00:28.000Z</time>
      </trkpt>
      <trkpt lat="45.21761" lon="5.7352">
        <ele>914.59997558594</ele>
        <time>2021-10-16T04:00:30.000Z</time>
      </trkpt>
      <trkpt lat="45.21765" lon="5.73521">
        <ele>915.59997558594</ele>
        <time>2021-10-16T04:00:32.000Z</time>
      </trkpt>
      <trkpt lat="45.21766" lon="5.73521">
        <ele>915.59997558594</ele>
        <time>2021-10-16T04:00:33.000Z</time>
      </trkpt>
      <trkpt lat="45.2177" lon="5.73523">
        <ele>915.59997558594</ele>
        <time>2021-10-16T04:00:35.000Z</time>
      </trkpt>
      <trkpt lat="45.21774" lon="5.73526">
        <ele>915</ele>
        <time>2021-10-16T04:00:38.000Z</time>
      </trkpt>
      <trkpt lat="45.21781" lon="5.7353">
        <ele>914.20001220703</ele>
        <time>2021-10-16T04:00:42.000Z</time>
      </trkpt>
      <trkpt lat="45.21785" lon="5.73536">
        <ele>913.20001220703</ele>
        <time>2021-10-16T04:00:45.000Z</time>
      </trkpt>
      <trkpt lat="45.21786" lon="5.73537">
        <ele>913.20001220703</ele>
        <time>2021-10-16T04:00:46.000Z</time>
      </trkpt>
      <trkpt lat="45.21787" lon="5.73538">
        <ele>913</ele>
        <time>2021-10-16T04:00:47.000Z</time>
      </trkpt>
      <trkpt lat="45.21789" lon="5.73543">
        <ele>912</ele>
        <time>2021-10-16T04:00:49.000Z</time>
      </trkpt>
      <trkpt lat="45.21791" lon="5.73546">
        <ele>911.79998779297</ele>
        <time>2021-10-16T04:00:51.000Z</time>
      </trkpt>
      <trkpt lat="45.21794" lon="5.7355">
        <ele>910.79998779297</ele>
        <time>2021-10-16T04:00:53.000Z</time>
      </trkpt>
      <trkpt lat="45.21795" lon="5.73555">
        <ele>909.79998779297</ele>
        <time>2021-10-16T04:00:55.000Z</time>
      </trkpt>
      <trkpt lat="45.21798" lon="5.73559">
        <ele>908.79998779297</ele>
        <time>2021-10-16T04:00:57.000Z</time>
      </trkpt>
      <trkpt lat="45.218" lon="5.73564">
        <ele>908.20001220703</ele>
        <time>2021-10-16T04:00:59.000Z</time>
      </trkpt>
      <trkpt lat="45.21803" lon="5.73571">
        <ele>907</ele>
        <time>2021-10-16T04:01:02.000Z</time>
      </trkpt>
      <trkpt lat="45.21804" lon="5.73573">
        <ele>906.79998779297</ele>
        <time>2021-10-16T04:01:03.000Z</time>
      </trkpt>
      <trkpt lat="45.21808" lon="5.73575">
        <ele>906.20001220703</ele>
        <time>2021-10-16T04:01:05.000Z</time>
      </trkpt>
      <trkpt lat="45.21809" lon="5.73577">
        <ele>905.59997558594</ele>
        <time>2021-10-16T04:01:06.000Z</time>
      </trkpt>
      <trkpt lat="45.21812" lon="5.7358">
        <ele>905.20001220703</ele>
        <time>2021-10-16T04:01:08.000Z</time>
      </trkpt>
      <trkpt lat="45.21815" lon="5.73584">
        <ele>904.20001220703</ele>
        <time>2021-10-16T04:01:11.000Z</time>
      </trkpt>
      <trkpt lat="45.21816" lon="5.73586">
        <ele>904.20001220703</ele>
        <time>2021-10-16T04:01:12.000Z</time>
      </trkpt>
      <trkpt lat="45.21817" lon="5.73586">
        <ele>903.59997558594</ele>
        <time>2021-10-16T04:01:13.000Z</time>
      </trkpt>
      <trkpt lat="45.21823" lon="5.73593">
        <ele>902.59997558594</ele>
        <time>2021-10-16T04:01:17.000Z</time>
      </trkpt>
      <trkpt lat="45.21826" lon="5.73596">
        <ele>902</ele>
        <time>2021-10-16T04:01:19.000Z</time>
      </trkpt>
      <trkpt lat="45.21829" lon="5.73603">
        <ele>901.59997558594</ele>
        <time>2021-10-16T04:01:22.000Z</time>
      </trkpt>
      <trkpt lat="45.21833" lon="5.73614">
        <ele>901.40002441406</ele>
        <time>2021-10-16T04:01:25.000Z</time>
      </trkpt>
      <trkpt lat="45.21836" lon="5.73623">
        <ele>901</ele>
        <time>2021-10-16T04:01:27.000Z</time>
      </trkpt>
      <trkpt lat="45.21844" lon="5.73636">
        <ele>900.20001220703</ele>
        <time>2021-10-16T04:01:31.000Z</time>
      </trkpt>
      <trkpt lat="45.21846" lon="5.73641">
        <ele>899.79998779297</ele>
        <time>2021-10-16T04:01:33.000Z</time>
      </trkpt>
      <trkpt lat="45.21848" lon="5.73644">
        <ele>899.40002441406</ele>
        <time>2021-10-16T04:01:34.000Z</time>
      </trkpt>
      <trkpt lat="45.21849" lon="5.7365">
        <ele>899.20001220703</ele>
        <time>2021-10-16T04:01:36.000Z</time>
      </trkpt>
      <trkpt lat="45.21851" lon="5.73658">
        <ele>898.79998779297</ele>
        <time>2021-10-16T04:01:38.000Z</time>
      </trkpt>
      <trkpt lat="45.21856" lon="5.73673">
        <ele>898.59997558594</ele>
        <time>2021-10-16T04:01:43.000Z</time>
      </trkpt>
      <trkpt lat="45.21863" lon="5.73678">
        <ele>899</ele>
        <time>2021-10-16T04:01:47.000Z</time>
      </trkpt>
      <trkpt lat="45.21864" lon="5.73682">
        <ele>899</ele>
        <time>2021-10-16T04:01:48.000Z</time>
      </trkpt>
      <trkpt lat="45.21867" lon="5.73687">
        <ele>899.40002441406</ele>
        <time>2021-10-16T04:01:50.000Z</time>
      </trkpt>
      <trkpt lat="45.2187" lon="5.73689">
        <ele>899.40002441406</ele>
        <time>2021-10-16T04:01:52.000Z</time>
      </trkpt>
      <trkpt lat="45.21873" lon="5.73692">
        <ele>899.40002441406</ele>
        <time>2021-10-16T04:01:54.000Z</time>
      </trkpt>
      <trkpt lat="45.21882" lon="5.73701">
        <ele>899.20001220703</ele>
        <time>2021-10-16T04:01:59.000Z</time>
      </trkpt>
      <trkpt lat="45.21888" lon="5.73704">
        <ele>898.59997558594</ele>
        <time>2021-10-16T04:02:02.000Z</time>
      </trkpt>
      <trkpt lat="45.21891" lon="5.73704">
        <ele>898</ele>
        <time>2021-10-16T04:02:04.000Z</time>
      </trkpt>
      <trkpt lat="45.21895" lon="5.73704">
        <ele>897</ele>
        <time>2021-10-16T04:02:07.000Z</time>
      </trkpt>
      <trkpt lat="45.219" lon="5.73704">
        <ele>895.79998779297</ele>
        <time>2021-10-16T04:02:10.000Z</time>
      </trkpt>
      <trkpt lat="45.21907" lon="5.73708">
        <ele>894.59997558594</ele>
        <time>2021-10-16T04:02:14.000Z</time>
      </trkpt>
      <trkpt lat="45.21911" lon="5.73711">
        <ele>893.40002441406</ele>
        <time>2021-10-16T04:02:16.000Z</time>
      </trkpt>
      <trkpt lat="45.21918" lon="5.73714">
        <ele>892</ele>
        <time>2021-10-16T04:02:20.000Z</time>
      </trkpt>
      <trkpt lat="45.21919" lon="5.73715">
        <ele>891.59997558594</ele>
        <time>2021-10-16T04:02:21.000Z</time>
      </trkpt>
      <trkpt lat="45.21921" lon="5.73716">
        <ele>890.79998779297</ele>
        <time>2021-10-16T04:02:22.000Z</time>
      </trkpt>
      <trkpt lat="45.21928" lon="5.73722">
        <ele>889.79998779297</ele>
        <time>2021-10-16T04:02:26.000Z</time>
      </trkpt>
      <trkpt lat="45.21931" lon="5.73724">
        <ele>889.40002441406</ele>
        <time>2021-10-16T04:02:27.000Z</time>
      </trkpt>
      <trkpt lat="45.21933" lon="5.73726">
        <ele>888.79998779297</ele>
        <time>2021-10-16T04:02:28.000Z</time>
      </trkpt>
      <trkpt lat="45.21934" lon="5.73729">
        <ele>888.59997558594</ele>
        <time>2021-10-16T04:02:29.000Z</time>
      </trkpt>
      <trkpt lat="45.21938" lon="5.73735">
        <ele>887.59997558594</ele>
        <time>2021-10-16T04:02:32.000Z</time>
      </trkpt>
      <trkpt lat="45.21944" lon="5.73741">
        <ele>886.59997558594</ele>
        <time>2021-10-16T04:02:35.000Z</time>
      </trkpt>
      <trkpt lat="45.21946" lon="5.73747">
        <ele>885.59997558594</ele>
        <time>2021-10-16T04:02:37.000Z</time>
      </trkpt>
      <trkpt lat="45.21947" lon="5.7375">
        <ele>885.40002441406</ele>
        <time>2021-10-16T04:02:38.000Z</time>
      </trkpt>
      <trkpt lat="45.21955" lon="5.73764">
        <ele>884.79998779297</ele>
        <time>2021-10-16T04:02:43.000Z</time>
      </trkpt>
      <trkpt lat="45.21956" lon="5.73766">
        <ele>884.40002441406</ele>
        <time>2021-10-16T04:02:44.000Z</time>
      </trkpt>
      <trkpt lat="45.21958" lon="5.73772">
        <ele>883.79998779297</ele>
        <time>2021-10-16T04:02:46.000Z</time>
      </trkpt>
      <trkpt lat="45.2196" lon="5.73774">
        <ele>883.79998779297</ele>
        <time>2021-10-16T04:02:47.000Z</time>
      </trkpt>
      <trkpt lat="45.21964" lon="5.73782">
        <ele>883.20001220703</ele>
        <time>2021-10-16T04:02:50.000Z</time>
      </trkpt>
      <trkpt lat="45.21968" lon="5.73789">
        <ele>882.79998779297</ele>
        <time>2021-10-16T04:02:53.000Z</time>
      </trkpt>
      <trkpt lat="45.21971" lon="5.73795">
        <ele>882</ele>
        <time>2021-10-16T04:02:56.000Z</time>
      </trkpt>
      <trkpt lat="45.21975" lon="5.738">
        <ele>881.40002441406</ele>
        <time>2021-10-16T04:02:59.000Z</time>
      </trkpt>
      <trkpt lat="45.21976" lon="5.73801">
        <ele>881.20001220703</ele>
        <time>2021-10-16T04:03:00.000Z</time>
      </trkpt>
      <trkpt lat="45.21978" lon="5.73801">
        <ele>880.59997558594</ele>
        <time>2021-10-16T04:03:01.000Z</time>
      </trkpt>
      <trkpt lat="45.21979" lon="5.73802">
        <ele>880.40002441406</ele>
        <time>2021-10-16T04:03:02.000Z</time>
      </trkpt>
      <trkpt lat="45.21985" lon="5.73805">
        <ele>879.40002441406</ele>
        <time>2021-10-16T04:03:06.000Z</time>
      </trkpt>
      <trkpt lat="45.2199" lon="5.73808">
        <ele>877.79998779297</ele>
        <time>2021-10-16T04:03:09.000Z</time>
      </trkpt>
      <trkpt lat="45.21996" lon="5.73813">
        <ele>876.40002441406</ele>
        <time>2021-10-16T04:03:12.000Z</time>
      </trkpt>
      <trkpt lat="45.21999" lon="5.73816">
        <ele>876.40002441406</ele>
        <time>2021-10-16T04:03:13.000Z</time>
      </trkpt>
      <trkpt lat="45.22011" lon="5.73823">
        <ele>875.20001220703</ele>
        <time>2021-10-16T04:03:17.000Z</time>
      </trkpt>
      <trkpt lat="45.22015" lon="5.73826">
        <ele>875.20001220703</ele>
        <time>2021-10-16T04:03:19.000Z</time>
      </trkpt>
      <trkpt lat="45.22016" lon="5.73827">
        <ele>874.79998779297</ele>
        <time>2021-10-16T04:03:20.000Z</time>
      </trkpt>
      <trkpt lat="45.22021" lon="5.73831">
        <ele>874.40002441406</ele>
        <time>2021-10-16T04:03:23.000Z</time>
      </trkpt>
      <trkpt lat="45.22022" lon="5.73833">
        <ele>874</ele>
        <time>2021-10-16T04:03:24.000Z</time>
      </trkpt>
      <trkpt lat="45.22023" lon="5.73834">
        <ele>874</ele>
        <time>2021-10-16T04:03:25.000Z</time>
      </trkpt>
      <trkpt lat="45.22025" lon="5.73835">
        <ele>873.79998779297</ele>
        <time>2021-10-16T04:03:26.000Z</time>
      </trkpt>
      <trkpt lat="45.22034" lon="5.73842">
        <ele>873</ele>
        <time>2021-10-16T04:03:29.000Z</time>
      </trkpt>
      <trkpt lat="45.22041" lon="5.73848">
        <ele>872.40002441406</ele>
        <time>2021-10-16T04:03:32.000Z</time>
      </trkpt>
      <trkpt lat="45.22043" lon="5.73849">
        <ele>872</ele>
        <time>2021-10-16T04:03:33.000Z</time>
      </trkpt>
      <trkpt lat="45.22055" lon="5.73855">
        <ele>871.20001220703</ele>
        <time>2021-10-16T04:03:39.000Z</time>
      </trkpt>
      <trkpt lat="45.2206" lon="5.73859">
        <ele>870.79998779297</ele>
        <time>2021-10-16T04:03:42.000Z</time>
      </trkpt>
      <trkpt lat="45.22068" lon="5.73864">
        <ele>870.59997558594</ele>
        <time>2021-10-16T04:03:45.000Z</time>
      </trkpt>
      <trkpt lat="45.22082" lon="5.73872">
        <ele>871.20001220703</ele>
        <time>2021-10-16T04:03:51.000Z</time>
      </trkpt>
      <trkpt lat="45.22086" lon="5.73875">
        <ele>871.40002441406</ele>
        <time>2021-10-16T04:03:53.000Z</time>
      </trkpt>
      <trkpt lat="45.22088" lon="5.73876">
        <ele>871.59997558594</ele>
        <time>2021-10-16T04:03:54.000Z</time>
      </trkpt>
      <trkpt lat="45.22091" lon="5.73877">
        <ele>872</ele>
        <time>2021-10-16T04:03:55.000Z</time>
      </trkpt>
      <trkpt lat="45.22097" lon="5.73878">
        <ele>872.40002441406</ele>
        <time>2021-10-16T04:03:58.000Z</time>
      </trkpt>
      <trkpt lat="45.22104" lon="5.73883">
        <ele>873</ele>
        <time>2021-10-16T04:04:01.000Z</time>
      </trkpt>
      <trkpt lat="45.22108" lon="5.73884">
        <ele>873.79998779297</ele>
        <time>2021-10-16T04:04:03.000Z</time>
      </trkpt>
      <trkpt lat="45.22115" lon="5.73886">
        <ele>874.20001220703</ele>
        <time>2021-10-16T04:04:07.000Z</time>
      </trkpt>
      <trkpt lat="45.22119" lon="5.73889">
        <ele>874.59997558594</ele>
        <time>2021-10-16T04:04:09.000Z</time>
      </trkpt>
      <trkpt lat="45.22121" lon="5.73889">
        <ele>874.59997558594</ele>
        <time>2021-10-16T04:04:10.000Z</time>
      </trkpt>
      <trkpt lat="45.22122" lon="5.73889">
        <ele>875</ele>
        <time>2021-10-16T04:04:11.000Z</time>
      </trkpt>
      <trkpt lat="45.22123" lon="5.7389">
        <ele>875.40002441406</ele>
        <time>2021-10-16T04:04:12.000Z</time>
      </trkpt>
      <trkpt lat="45.22126" lon="5.73892">
        <ele>875.40002441406</ele>
        <time>2021-10-16T04:04:14.000Z</time>
      </trkpt>
      <trkpt lat="45.22133" lon="5.73895">
        <ele>876.40002441406</ele>
        <time>2021-10-16T04:04:17.000Z</time>
      </trkpt>
      <trkpt lat="45.22134" lon="5.73895">
        <ele>876.59997558594</ele>
        <time>2021-10-16T04:04:18.000Z</time>
      </trkpt>
      <trkpt lat="45.22138" lon="5.73898">
        <ele>876.79998779297</ele>
        <time>2021-10-16T04:04:21.000Z</time>
      </trkpt>
      <trkpt lat="45.2214" lon="5.73899">
        <ele>877.20001220703</ele>
        <time>2021-10-16T04:04:22.000Z</time>
      </trkpt>
      <trkpt lat="45.22143" lon="5.73901">
        <ele>877.40002441406</ele>
        <time>2021-10-16T04:04:24.000Z</time>
      </trkpt>
      <trkpt lat="45.22145" lon="5.73901">
        <ele>877.40002441406</ele>
        <time>2021-10-16T04:04:25.000Z</time>
      </trkpt>
      <trkpt lat="45.2215" lon="5.73903">
        <ele>878.40002441406</ele>
        <time>2021-10-16T04:04:27.000Z</time>
      </trkpt>
      <trkpt lat="45.22154" lon="5.73908">
        <ele>878.59997558594</ele>
        <time>2021-10-16T04:04:29.000Z</time>
      </trkpt>
      <trkpt lat="45.22156" lon="5.73909">
        <ele>878.79998779297</ele>
        <time>2021-10-16T04:04:30.000Z</time>
      </trkpt>
      <trkpt lat="45.22162" lon="5.7391">
        <ele>879.40002441406</ele>
        <time>2021-10-16T04:04:33.000Z</time>
      </trkpt>
      <trkpt lat="45.22165" lon="5.7391">
        <ele>880</ele>
        <time>2021-10-16T04:04:35.000Z</time>
      </trkpt>
      <trkpt lat="45.22173" lon="5.73913">
        <ele>881.20001220703</ele>
        <time>2021-10-16T04:04:39.000Z</time>
      </trkpt>
      <trkpt lat="45.22179" lon="5.73916">
        <ele>881.59997558594</ele>
        <time>2021-10-16T04:04:42.000Z</time>
      </trkpt>
      <trkpt lat="45.22189" lon="5.73922">
        <ele>882.20001220703</ele>
        <time>2021-10-16T04:04:48.000Z</time>
      </trkpt>
      <trkpt lat="45.22193" lon="5.73926">
        <ele>882.79998779297</ele>
        <time>2021-10-16T04:04:50.000Z</time>
      </trkpt>
      <trkpt lat="45.22194" lon="5.73927">
        <ele>883</ele>
        <time>2021-10-16T04:04:51.000Z</time>
      </trkpt>
      <trkpt lat="45.22197" lon="5.73929">
        <ele>883.20001220703</ele>
        <time>2021-10-16T04:04:53.000Z</time>
      </trkpt>
      <trkpt lat="45.22202" lon="5.73934">
        <ele>884</ele>
        <time>2021-10-16T04:04:56.000Z</time>
      </trkpt>
      <trkpt lat="45.22206" lon="5.73939">
        <ele>884.59997558594</ele>
        <time>2021-10-16T04:04:58.000Z</time>
      </trkpt>
      <trkpt lat="45.22212" lon="5.73951">
        <ele>885</ele>
        <time>2021-10-16T04:05:02.000Z</time>
      </trkpt>
      <trkpt lat="45.22214" lon="5.73954">
        <ele>885.59997558594</ele>
        <time>2021-10-16T04:05:04.000Z</time>
      </trkpt>
      <trkpt lat="45.22217" lon="5.73961">
        <ele>886</ele>
        <time>2021-10-16T04:05:07.000Z</time>
      </trkpt>
      <trkpt lat="45.22221" lon="5.73966">
        <ele>886.59997558594</ele>
        <time>2021-10-16T04:05:10.000Z</time>
      </trkpt>
      <trkpt lat="45.22222" lon="5.73967">
        <ele>886.79998779297</ele>
        <time>2021-10-16T04:05:11.000Z</time>
      </trkpt>
      <trkpt lat="45.22224" lon="5.73969">
        <ele>887</ele>
        <time>2021-10-16T04:05:12.000Z</time>
      </trkpt>
      <trkpt lat="45.22233" lon="5.73975">
        <ele>888</ele>
        <time>2021-10-16T04:05:18.000Z</time>
      </trkpt>
      <trkpt lat="45.22236" lon="5.73975">
        <ele>888</ele>
        <time>2021-10-16T04:05:19.000Z</time>
      </trkpt>
      <trkpt lat="45.22254" lon="5.7398">
        <ele>888.59997558594</ele>
        <time>2021-10-16T04:05:26.000Z</time>
      </trkpt>
      <trkpt lat="45.22258" lon="5.73983">
        <ele>888.79998779297</ele>
        <time>2021-10-16T04:05:28.000Z</time>
      </trkpt>
      <trkpt lat="45.22263" lon="5.73985">
        <ele>889.59997558594</ele>
        <time>2021-10-16T04:05:30.000Z</time>
      </trkpt>
      <trkpt lat="45.22268" lon="5.73987">
        <ele>890</ele>
        <time>2021-10-16T04:05:32.000Z</time>
      </trkpt>
      <trkpt lat="45.22276" lon="5.73992">
        <ele>890.59997558594</ele>
        <time>2021-10-16T04:05:36.000Z</time>
      </trkpt>
      <trkpt lat="45.22277" lon="5.73993">
        <ele>890.79998779297</ele>
        <time>2021-10-16T04:05:37.000Z</time>
      </trkpt>
      <trkpt lat="45.22279" lon="5.73995">
        <ele>891.40002441406</ele>
        <time>2021-10-16T04:05:39.000Z</time>
      </trkpt>
      <trkpt lat="45.22283" lon="5.73997">
        <ele>891.40002441406</ele>
        <time>2021-10-16T04:05:41.000Z</time>
      </trkpt>
      <trkpt lat="45.22284" lon="5.73998">
        <ele>891.59997558594</ele>
        <time>2021-10-16T04:05:42.000Z</time>
      </trkpt>
      <trkpt lat="45.22289" lon="5.74003">
        <ele>892.40002441406</ele>
        <time>2021-10-16T04:05:45.000Z</time>
      </trkpt>
      <trkpt lat="45.2229" lon="5.74004">
        <ele>892.79998779297</ele>
        <time>2021-10-16T04:05:46.000Z</time>
      </trkpt>
      <trkpt lat="45.22293" lon="5.74005">
        <ele>892.79998779297</ele>
        <time>2021-10-16T04:05:47.000Z</time>
      </trkpt>
      <trkpt lat="45.22298" lon="5.74006">
        <ele>893.79998779297</ele>
        <time>2021-10-16T04:05:51.000Z</time>
      </trkpt>
      <trkpt lat="45.223" lon="5.74006">
        <ele>894</ele>
        <time>2021-10-16T04:05:52.000Z</time>
      </trkpt>
      <trkpt lat="45.22316" lon="5.7401">
        <ele>895</ele>
        <time>2021-10-16T04:05:58.000Z</time>
      </trkpt>
      <trkpt lat="45.22323" lon="5.74013">
        <ele>896</ele>
        <time>2021-10-16T04:06:02.000Z</time>
      </trkpt>
      <trkpt lat="45.22327" lon="5.74015">
        <ele>896.20001220703</ele>
        <time>2021-10-16T04:06:04.000Z</time>
      </trkpt>
      <trkpt lat="45.22342" lon="5.74023">
        <ele>897.40002441406</ele>
        <time>2021-10-16T04:06:12.000Z</time>
      </trkpt>
      <trkpt lat="45.22343" lon="5.74023">
        <ele>897.79998779297</ele>
        <time>2021-10-16T04:06:13.000Z</time>
      </trkpt>
      <trkpt lat="45.2235" lon="5.74028">
        <ele>898.40002441406</ele>
        <time>2021-10-16T04:06:18.000Z</time>
      </trkpt>
      <trkpt lat="45.22351" lon="5.7403">
        <ele>899</ele>
        <time>2021-10-16T04:06:19.000Z</time>
      </trkpt>
      <trkpt lat="45.22352" lon="5.74031">
        <ele>899.20001220703</ele>
        <time>2021-10-16T04:06:20.000Z</time>
      </trkpt>
      <trkpt lat="45.22364" lon="5.74041">
        <ele>900</ele>
        <time>2021-10-16T04:06:26.000Z</time>
      </trkpt>
      <trkpt lat="45.22366" lon="5.74044">
        <ele>900</ele>
        <time>2021-10-16T04:06:27.000Z</time>
      </trkpt>
      <trkpt lat="45.22373" lon="5.7405">
        <ele>900</ele>
        <time>2021-10-16T04:06:30.000Z</time>
      </trkpt>
      <trkpt lat="45.22375" lon="5.74054">
        <ele>900</ele>
        <time>2021-10-16T04:06:32.000Z</time>
      </trkpt>
      <trkpt lat="45.22386" lon="5.74067">
        <ele>899</ele>
        <time>2021-10-16T04:06:39.000Z</time>
      </trkpt>
      <trkpt lat="45.22389" lon="5.74069">
        <ele>899</ele>
        <time>2021-10-16T04:06:40.000Z</time>
      </trkpt>
      <trkpt lat="45.22403" lon="5.74082">
        <ele>898.40002441406</ele>
        <time>2021-10-16T04:06:47.000Z</time>
      </trkpt>
      <trkpt lat="45.22406" lon="5.74085">
        <ele>897.79998779297</ele>
        <time>2021-10-16T04:06:49.000Z</time>
      </trkpt>
      <trkpt lat="45.22413" lon="5.74093">
        <ele>897</ele>
        <time>2021-10-16T04:06:53.000Z</time>
      </trkpt>
      <trkpt lat="45.22416" lon="5.74096">
        <ele>896.59997558594</ele>
        <time>2021-10-16T04:06:55.000Z</time>
      </trkpt>
      <trkpt lat="45.22419" lon="5.74099">
        <ele>896.40002441406</ele>
        <time>2021-10-16T04:06:57.000Z</time>
      </trkpt>
      <trkpt lat="45.22421" lon="5.74102">
        <ele>895.40002441406</ele>
        <time>2021-10-16T04:06:59.000Z</time>
      </trkpt>
      <trkpt lat="45.22423" lon="5.74104">
        <ele>895.40002441406</ele>
        <time>2021-10-16T04:07:00.000Z</time>
      </trkpt>
      <trkpt lat="45.22424" lon="5.74106">
        <ele>895.40002441406</ele>
        <time>2021-10-16T04:07:01.000Z</time>
      </trkpt>
      <trkpt lat="45.22428" lon="5.74111">
        <ele>894.40002441406</ele>
        <time>2021-10-16T04:07:04.000Z</time>
      </trkpt>
      <trkpt lat="45.22432" lon="5.74119">
        <ele>893</ele>
        <time>2021-10-16T04:07:08.000Z</time>
      </trkpt>
      <trkpt lat="45.22434" lon="5.74123">
        <ele>893</ele>
        <time>2021-10-16T04:07:10.000Z</time>
      </trkpt>
      <trkpt lat="45.22441" lon="5.74133">
        <ele>892</ele>
        <time>2021-10-16T04:07:16.000Z</time>
      </trkpt>
      <trkpt lat="45.22443" lon="5.74135">
        <ele>891.79998779297</ele>
        <time>2021-10-16T04:07:17.000Z</time>
      </trkpt>
      <trkpt lat="45.22445" lon="5.74139">
        <ele>891.59997558594</ele>
        <time>2021-10-16T04:07:19.000Z</time>
      </trkpt>
      <trkpt lat="45.22446" lon="5.74141">
        <ele>890.79998779297</ele>
        <time>2021-10-16T04:07:20.000Z</time>
      </trkpt>
      <trkpt lat="45.22451" lon="5.74148">
        <ele>890.20001220703</ele>
        <time>2021-10-16T04:07:24.000Z</time>
      </trkpt>
      <trkpt lat="45.22453" lon="5.74152">
        <ele>890</ele>
        <time>2021-10-16T04:07:26.000Z</time>
      </trkpt>
      <trkpt lat="45.22454" lon="5.74155">
        <ele>889.59997558594</ele>
        <time>2021-10-16T04:07:27.000Z</time>
      </trkpt>
      <trkpt lat="45.22457" lon="5.74159">
        <ele>889.40002441406</ele>
        <time>2021-10-16T04:07:29.000Z</time>
      </trkpt>
      <trkpt lat="45.22458" lon="5.74161">
        <ele>889.20001220703</ele>
        <time>2021-10-16T04:07:30.000Z</time>
      </trkpt>
      <trkpt lat="45.22461" lon="5.74165">
        <ele>888.40002441406</ele>
        <time>2021-10-16T04:07:32.000Z</time>
      </trkpt>
      <trkpt lat="45.22468" lon="5.74176">
        <ele>887.40002441406</ele>
        <time>2021-10-16T04:07:37.000Z</time>
      </trkpt>
      <trkpt lat="45.22469" lon="5.74178">
        <ele>887</ele>
        <time>2021-10-16T04:07:38.000Z</time>
      </trkpt>
      <trkpt lat="45.22476" lon="5.74187">
        <ele>886.20001220703</ele>
        <time>2021-10-16T04:07:42.000Z</time>
      </trkpt>
      <trkpt lat="45.22478" lon="5.7419">
        <ele>886</ele>
        <time>2021-10-16T04:07:43.000Z</time>
      </trkpt>
      <trkpt lat="45.2248" lon="5.74191">
        <ele>886</ele>
        <time>2021-10-16T04:07:44.000Z</time>
      </trkpt>
      <trkpt lat="45.22485" lon="5.74198">
        <ele>884.59997558594</ele>
        <time>2021-10-16T04:07:47.000Z</time>
      </trkpt>
      <trkpt lat="45.2249" lon="5.74203">
        <ele>884.20001220703</ele>
        <time>2021-10-16T04:07:50.000Z</time>
      </trkpt>
      <trkpt lat="45.22491" lon="5.74204">
        <ele>883.79998779297</ele>
        <time>2021-10-16T04:07:51.000Z</time>
      </trkpt>
      <trkpt lat="45.22493" lon="5.74204">
        <ele>883.40002441406</ele>
        <time>2021-10-16T04:07:52.000Z</time>
      </trkpt>
      <trkpt lat="45.22495" lon="5.74207">
        <ele>883.20001220703</ele>
        <time>2021-10-16T04:07:54.000Z</time>
      </trkpt>
      <trkpt lat="45.22503" lon="5.74211">
        <ele>882.20001220703</ele>
        <time>2021-10-16T04:07:58.000Z</time>
      </trkpt>
      <trkpt lat="45.22509" lon="5.74213">
        <ele>881.79998779297</ele>
        <time>2021-10-16T04:08:00.000Z</time>
      </trkpt>
      <trkpt lat="45.22515" lon="5.74215">
        <ele>881.20001220703</ele>
        <time>2021-10-16T04:08:02.000Z</time>
      </trkpt>
      <trkpt lat="45.2252" lon="5.74222">
        <ele>880.79998779297</ele>
        <time>2021-10-16T04:08:05.000Z</time>
      </trkpt>
      <trkpt lat="45.22522" lon="5.74224">
        <ele>880.79998779297</ele>
        <time>2021-10-16T04:08:06.000Z</time>
      </trkpt>
      <trkpt lat="45.22525" lon="5.74226">
        <ele>879.79998779297</ele>
        <time>2021-10-16T04:08:08.000Z</time>
      </trkpt>
      <trkpt lat="45.22527" lon="5.74227">
        <ele>879.40002441406</ele>
        <time>2021-10-16T04:08:09.000Z</time>
      </trkpt>
      <trkpt lat="45.22533" lon="5.74232">
        <ele>878.79998779297</ele>
        <time>2021-10-16T04:08:12.000Z</time>
      </trkpt>
      <trkpt lat="45.22535" lon="5.74233">
        <ele>878.59997558594</ele>
        <time>2021-10-16T04:08:13.000Z</time>
      </trkpt>
      <trkpt lat="45.22543" lon="5.74235">
        <ele>877.59997558594</ele>
        <time>2021-10-16T04:08:17.000Z</time>
      </trkpt>
      <trkpt lat="45.22548" lon="5.74237">
        <ele>876.79998779297</ele>
        <time>2021-10-16T04:08:19.000Z</time>
      </trkpt>
      <trkpt lat="45.22554" lon="5.74241">
        <ele>876.20001220703</ele>
        <time>2021-10-16T04:08:22.000Z</time>
      </trkpt>
      <trkpt lat="45.22565" lon="5.74245">
        <ele>875.20001220703</ele>
        <time>2021-10-16T04:08:26.000Z</time>
      </trkpt>
      <trkpt lat="45.22568" lon="5.74247">
        <ele>875</ele>
        <time>2021-10-16T04:08:27.000Z</time>
      </trkpt>
      <trkpt lat="45.22577" lon="5.74251">
        <ele>873.79998779297</ele>
        <time>2021-10-16T04:08:32.000Z</time>
      </trkpt>
      <trkpt lat="45.2258" lon="5.74253">
        <ele>873.40002441406</ele>
        <time>2021-10-16T04:08:33.000Z</time>
      </trkpt>
      <trkpt lat="45.22588" lon="5.74258">
        <ele>872.79998779297</ele>
        <time>2021-10-16T04:08:37.000Z</time>
      </trkpt>
      <trkpt lat="45.22593" lon="5.7426">
        <ele>872.20001220703</ele>
        <time>2021-10-16T04:08:39.000Z</time>
      </trkpt>
      <trkpt lat="45.22595" lon="5.74261">
        <ele>871.79998779297</ele>
        <time>2021-10-16T04:08:40.000Z</time>
      </trkpt>
      <trkpt lat="45.22605" lon="5.74263">
        <ele>870.20001220703</ele>
        <time>2021-10-16T04:08:45.000Z</time>
      </trkpt>
      <trkpt lat="45.22616" lon="5.74267">
        <ele>868.79998779297</ele>
        <time>2021-10-16T04:08:49.000Z</time>
      </trkpt>
      <trkpt lat="45.22619" lon="5.74267">
        <ele>868.20001220703</ele>
        <time>2021-10-16T04:08:50.000Z</time>
      </trkpt>
      <trkpt lat="45.22621" lon="5.74268">
        <ele>868.20001220703</ele>
        <time>2021-10-16T04:08:51.000Z</time>
      </trkpt>
      <trkpt lat="45.22624" lon="5.74267">
        <ele>867.79998779297</ele>
        <time>2021-10-16T04:08:53.000Z</time>
      </trkpt>
      <trkpt lat="45.22629" lon="5.74268">
        <ele>867.40002441406</ele>
        <time>2021-10-16T04:08:55.000Z</time>
      </trkpt>
      <trkpt lat="45.22635" lon="5.74272">
        <ele>866.79998779297</ele>
        <time>2021-10-16T04:08:59.000Z</time>
      </trkpt>
      <trkpt lat="45.22642" lon="5.74274">
        <ele>865.79998779297</ele>
        <time>2021-10-16T04:09:02.000Z</time>
      </trkpt>
      <trkpt lat="45.22647" lon="5.74275">
        <ele>865.59997558594</ele>
        <time>2021-10-16T04:09:04.000Z</time>
      </trkpt>
      <trkpt lat="45.22652" lon="5.74278">
        <ele>864.59997558594</ele>
        <time>2021-10-16T04:09:06.000Z</time>
      </trkpt>
      <trkpt lat="45.22659" lon="5.74278">
        <ele>864</ele>
        <time>2021-10-16T04:09:09.000Z</time>
      </trkpt>
      <trkpt lat="45.2267" lon="5.74281">
        <ele>862.40002441406</ele>
        <time>2021-10-16T04:09:14.000Z</time>
      </trkpt>
      <trkpt lat="45.22673" lon="5.74284">
        <ele>862.40002441406</ele>
        <time>2021-10-16T04:09:15.000Z</time>
      </trkpt>
      <trkpt lat="45.22683" lon="5.74299">
        <ele>861.40002441406</ele>
        <time>2021-10-16T04:09:20.000Z</time>
      </trkpt>
      <trkpt lat="45.22686" lon="5.74304">
        <ele>861.20001220703</ele>
        <time>2021-10-16T04:09:22.000Z</time>
      </trkpt>
      <trkpt lat="45.22692" lon="5.74312">
        <ele>860.40002441406</ele>
        <time>2021-10-16T04:09:26.000Z</time>
      </trkpt>
      <trkpt lat="45.22694" lon="5.74314">
        <ele>859.40002441406</ele>
        <time>2021-10-16T04:09:27.000Z</time>
      </trkpt>
      <trkpt lat="45.22696" lon="5.74315">
        <ele>859.40002441406</ele>
        <time>2021-10-16T04:09:28.000Z</time>
      </trkpt>
      <trkpt lat="45.22704" lon="5.74323">
        <ele>858.20001220703</ele>
        <time>2021-10-16T04:09:31.000Z</time>
      </trkpt>
      <trkpt lat="45.22708" lon="5.74327">
        <ele>858</ele>
        <time>2021-10-16T04:09:33.000Z</time>
      </trkpt>
      <trkpt lat="45.22712" lon="5.74327">
        <ele>857.40002441406</ele>
        <time>2021-10-16T04:09:34.000Z</time>
      </trkpt>
      <trkpt lat="45.22715" lon="5.74328">
        <ele>857.20001220703</ele>
        <time>2021-10-16T04:09:35.000Z</time>
      </trkpt>
      <trkpt lat="45.22732" lon="5.74337">
        <ele>855.40002441406</ele>
        <time>2021-10-16T04:09:40.000Z</time>
      </trkpt>
      <trkpt lat="45.22737" lon="5.7434">
        <ele>855.20001220703</ele>
        <time>2021-10-16T04:09:42.000Z</time>
      </trkpt>
      <trkpt lat="45.22738" lon="5.74342">
        <ele>854.79998779297</ele>
        <time>2021-10-16T04:09:43.000Z</time>
      </trkpt>
      <trkpt lat="45.22742" lon="5.74347">
        <ele>854.20001220703</ele>
        <time>2021-10-16T04:09:45.000Z</time>
      </trkpt>
      <trkpt lat="45.22744" lon="5.7435">
        <ele>854.20001220703</ele>
        <time>2021-10-16T04:09:46.000Z</time>
      </trkpt>
      <trkpt lat="45.22753" lon="5.74355">
        <ele>852.79998779297</ele>
        <time>2021-10-16T04:09:51.000Z</time>
      </trkpt>
      <trkpt lat="45.22755" lon="5.74357">
        <ele>852.59997558594</ele>
        <time>2021-10-16T04:09:52.000Z</time>
      </trkpt>
      <trkpt lat="45.22761" lon="5.74361">
        <ele>851.79998779297</ele>
        <time>2021-10-16T04:09:55.000Z</time>
      </trkpt>
      <trkpt lat="45.22765" lon="5.74364">
        <ele>851.40002441406</ele>
        <time>2021-10-16T04:09:58.000Z</time>
      </trkpt>
      <trkpt lat="45.2277" lon="5.74367">
        <ele>850.59997558594</ele>
        <time>2021-10-16T04:10:00.000Z</time>
      </trkpt>
      <trkpt lat="45.22775" lon="5.7437">
        <ele>850.40002441406</ele>
        <time>2021-10-16T04:10:02.000Z</time>
      </trkpt>
      <trkpt lat="45.22778" lon="5.74371">
        <ele>850.40002441406</ele>
        <time>2021-10-16T04:10:03.000Z</time>
      </trkpt>
      <trkpt lat="45.22783" lon="5.74376">
        <ele>849.40002441406</ele>
        <time>2021-10-16T04:10:05.000Z</time>
      </trkpt>
      <trkpt lat="45.22791" lon="5.74381">
        <ele>848.40002441406</ele>
        <time>2021-10-16T04:10:08.000Z</time>
      </trkpt>
      <trkpt lat="45.22794" lon="5.74383">
        <ele>848.40002441406</ele>
        <time>2021-10-16T04:10:09.000Z</time>
      </trkpt>
      <trkpt lat="45.22795" lon="5.74385">
        <ele>847.40002441406</ele>
        <time>2021-10-16T04:10:10.000Z</time>
      </trkpt>
      <trkpt lat="45.22796" lon="5.74387">
        <ele>847.40002441406</ele>
        <time>2021-10-16T04:10:11.000Z</time>
      </trkpt>
      <trkpt lat="45.22797" lon="5.74392">
        <ele>846.79998779297</ele>
        <time>2021-10-16T04:10:14.000Z</time>
      </trkpt>
      <trkpt lat="45.22802" lon="5.74395">
        <ele>846.20001220703</ele>
        <time>2021-10-16T04:10:16.000Z</time>
      </trkpt>
      <trkpt lat="45.22811" lon="5.74398">
        <ele>845.59997558594</ele>
        <time>2021-10-16T04:10:19.000Z</time>
      </trkpt>
      <trkpt lat="45.22817" lon="5.74399">
        <ele>845.20001220703</ele>
        <time>2021-10-16T04:10:21.000Z</time>
      </trkpt>
      <trkpt lat="45.22823" lon="5.74401">
        <ele>844.79998779297</ele>
        <time>2021-10-16T04:10:24.000Z</time>
      </trkpt>
      <trkpt lat="45.22828" lon="5.74404">
        <ele>844</ele>
        <time>2021-10-16T04:10:26.000Z</time>
      </trkpt>
      <trkpt lat="45.2284" lon="5.74407">
        <ele>842.59997558594</ele>
        <time>2021-10-16T04:10:30.000Z</time>
      </trkpt>
      <trkpt lat="45.22846" lon="5.74412">
        <ele>842.20001220703</ele>
        <time>2021-10-16T04:10:34.000Z</time>
      </trkpt>
      <trkpt lat="45.2285" lon="5.74417">
        <ele>841.40002441406</ele>
        <time>2021-10-16T04:10:36.000Z</time>
      </trkpt>
      <trkpt lat="45.22858" lon="5.74426">
        <ele>840.40002441406</ele>
        <time>2021-10-16T04:10:40.000Z</time>
      </trkpt>
      <trkpt lat="45.22861" lon="5.74428">
        <ele>840.20001220703</ele>
        <time>2021-10-16T04:10:41.000Z</time>
      </trkpt>
      <trkpt lat="45.2287" lon="5.74437">
        <ele>839.20001220703</ele>
        <time>2021-10-16T04:10:45.000Z</time>
      </trkpt>
      <trkpt lat="45.22873" lon="5.7444">
        <ele>839</ele>
        <time>2021-10-16T04:10:46.000Z</time>
      </trkpt>
      <trkpt lat="45.2288" lon="5.74447">
        <ele>838</ele>
        <time>2021-10-16T04:10:49.000Z</time>
      </trkpt>
      <trkpt lat="45.22883" lon="5.74448">
        <ele>837.79998779297</ele>
        <time>2021-10-16T04:10:51.000Z</time>
      </trkpt>
      <trkpt lat="45.22887" lon="5.74452">
        <ele>837</ele>
        <time>2021-10-16T04:10:53.000Z</time>
      </trkpt>
      <trkpt lat="45.22889" lon="5.74453">
        <ele>836.79998779297</ele>
        <time>2021-10-16T04:10:54.000Z</time>
      </trkpt>
      <trkpt lat="45.22891" lon="5.74455">
        <ele>836.59997558594</ele>
        <time>2021-10-16T04:10:55.000Z</time>
      </trkpt>
      <trkpt lat="45.22894" lon="5.74458">
        <ele>835.59997558594</ele>
        <time>2021-10-16T04:10:57.000Z</time>
      </trkpt>
      <trkpt lat="45.22899" lon="5.74461">
        <ele>835.20001220703</ele>
        <time>2021-10-16T04:11:00.000Z</time>
      </trkpt>
      <trkpt lat="45.22901" lon="5.74462">
        <ele>835</ele>
        <time>2021-10-16T04:11:01.000Z</time>
      </trkpt>
      <trkpt lat="45.22903" lon="5.74463">
        <ele>834.59997558594</ele>
        <time>2021-10-16T04:11:02.000Z</time>
      </trkpt>
      <trkpt lat="45.22906" lon="5.74465">
        <ele>834.40002441406</ele>
        <time>2021-10-16T04:11:03.000Z</time>
      </trkpt>
      <trkpt lat="45.22912" lon="5.74472">
        <ele>833.40002441406</ele>
        <time>2021-10-16T04:11:06.000Z</time>
      </trkpt>
      <trkpt lat="45.22923" lon="5.74479">
        <ele>832.40002441406</ele>
        <time>2021-10-16T04:11:11.000Z</time>
      </trkpt>
      <trkpt lat="45.2293" lon="5.74483">
        <ele>831.40002441406</ele>
        <time>2021-10-16T04:11:14.000Z</time>
      </trkpt>
      <trkpt lat="45.22932" lon="5.74485">
        <ele>831.20001220703</ele>
        <time>2021-10-16T04:11:15.000Z</time>
      </trkpt>
      <trkpt lat="45.22934" lon="5.74487">
        <ele>831</ele>
        <time>2021-10-16T04:11:16.000Z</time>
      </trkpt>
      <trkpt lat="45.22945" lon="5.745">
        <ele>829.59997558594</ele>
        <time>2021-10-16T04:11:21.000Z</time>
      </trkpt>
      <trkpt lat="45.22948" lon="5.74503">
        <ele>829.20001220703</ele>
        <time>2021-10-16T04:11:22.000Z</time>
      </trkpt>
      <trkpt lat="45.22954" lon="5.74513">
        <ele>828.20001220703</ele>
        <time>2021-10-16T04:11:26.000Z</time>
      </trkpt>
      <trkpt lat="45.22958" lon="5.74517">
        <ele>827.59997558594</ele>
        <time>2021-10-16T04:11:28.000Z</time>
      </trkpt>
      <trkpt lat="45.22961" lon="5.74522">
        <ele>827.40002441406</ele>
        <time>2021-10-16T04:11:30.000Z</time>
      </trkpt>
      <trkpt lat="45.22964" lon="5.74526">
        <ele>827.40002441406</ele>
        <time>2021-10-16T04:11:32.000Z</time>
      </trkpt>
      <trkpt lat="45.22966" lon="5.74528">
        <ele>826.59997558594</ele>
        <time>2021-10-16T04:11:33.000Z</time>
      </trkpt>
      <trkpt lat="45.22971" lon="5.74533">
        <ele>825.59997558594</ele>
        <time>2021-10-16T04:11:35.000Z</time>
      </trkpt>
      <trkpt lat="45.22973" lon="5.74534">
        <ele>825.40002441406</ele>
        <time>2021-10-16T04:11:36.000Z</time>
      </trkpt>
      <trkpt lat="45.22978" lon="5.7454">
        <ele>824.59997558594</ele>
        <time>2021-10-16T04:11:38.000Z</time>
      </trkpt>
      <trkpt lat="45.22981" lon="5.74543">
        <ele>824.40002441406</ele>
        <time>2021-10-16T04:11:39.000Z</time>
      </trkpt>
      <trkpt lat="45.22983" lon="5.74544">
        <ele>824.20001220703</ele>
        <time>2021-10-16T04:11:40.000Z</time>
      </trkpt>
      <trkpt lat="45.22989" lon="5.74548">
        <ele>823.40002441406</ele>
        <time>2021-10-16T04:11:43.000Z</time>
      </trkpt>
      <trkpt lat="45.22991" lon="5.7455">
        <ele>822.79998779297</ele>
        <time>2021-10-16T04:11:44.000Z</time>
      </trkpt>
      <trkpt lat="45.22998" lon="5.74556">
        <ele>821.79998779297</ele>
        <time>2021-10-16T04:11:48.000Z</time>
      </trkpt>
      <trkpt lat="45.22999" lon="5.74558">
        <ele>821.59997558594</ele>
        <time>2021-10-16T04:11:49.000Z</time>
      </trkpt>
      <trkpt lat="45.23001" lon="5.7456">
        <ele>821.20001220703</ele>
        <time>2021-10-16T04:11:50.000Z</time>
      </trkpt>
      <trkpt lat="45.23003" lon="5.74563">
        <ele>820.59997558594</ele>
        <time>2021-10-16T04:11:51.000Z</time>
      </trkpt>
      <trkpt lat="45.23008" lon="5.74572">
        <ele>820.20001220703</ele>
        <time>2021-10-16T04:11:55.000Z</time>
      </trkpt>
      <trkpt lat="45.2301" lon="5.74575">
        <ele>819.40002441406</ele>
        <time>2021-10-16T04:11:56.000Z</time>
      </trkpt>
      <trkpt lat="45.23019" lon="5.74585">
        <ele>818.20001220703</ele>
        <time>2021-10-16T04:12:00.000Z</time>
      </trkpt>
      <trkpt lat="45.23023" lon="5.7459">
        <ele>818.20001220703</ele>
        <time>2021-10-16T04:12:02.000Z</time>
      </trkpt>
      <trkpt lat="45.23029" lon="5.74598">
        <ele>816.79998779297</ele>
        <time>2021-10-16T04:12:05.000Z</time>
      </trkpt>
      <trkpt lat="45.23037" lon="5.74609">
        <ele>815.59997558594</ele>
        <time>2021-10-16T04:12:10.000Z</time>
      </trkpt>
      <trkpt lat="45.23039" lon="5.74611">
        <ele>815.40002441406</ele>
        <time>2021-10-16T04:12:11.000Z</time>
      </trkpt>
      <trkpt lat="45.23043" lon="5.74616">
        <ele>814.59997558594</ele>
        <time>2021-10-16T04:12:14.000Z</time>
      </trkpt>
      <trkpt lat="45.23049" lon="5.74622">
        <ele>814</ele>
        <time>2021-10-16T04:12:17.000Z</time>
      </trkpt>
      <trkpt lat="45.23055" lon="5.74629">
        <ele>813.79998779297</ele>
        <time>2021-10-16T04:12:20.000Z</time>
      </trkpt>
      <trkpt lat="45.23057" lon="5.74632">
        <ele>813.59997558594</ele>
        <time>2021-10-16T04:12:21.000Z</time>
      </trkpt>
      <trkpt lat="45.23059" lon="5.74635">
        <ele>813</ele>
        <time>2021-10-16T04:12:22.000Z</time>
      </trkpt>
      <trkpt lat="45.23065" lon="5.74642">
        <ele>811.59997558594</ele>
        <time>2021-10-16T04:12:25.000Z</time>
      </trkpt>
      <trkpt lat="45.23071" lon="5.74656">
        <ele>810.79998779297</ele>
        <time>2021-10-16T04:12:29.000Z</time>
      </trkpt>
      <trkpt lat="45.23073" lon="5.7466">
        <ele>810.40002441406</ele>
        <time>2021-10-16T04:12:30.000Z</time>
      </trkpt>
      <trkpt lat="45.23077" lon="5.74662">
        <ele>810.20001220703</ele>
        <time>2021-10-16T04:12:31.000Z</time>
      </trkpt>
      <trkpt lat="45.23084" lon="5.74671">
        <ele>809.20001220703</ele>
        <time>2021-10-16T04:12:34.000Z</time>
      </trkpt>
      <trkpt lat="45.2309" lon="5.74683">
        <ele>808</ele>
        <time>2021-10-16T04:12:38.000Z</time>
      </trkpt>
      <trkpt lat="45.23095" lon="5.74692">
        <ele>807.20001220703</ele>
        <time>2021-10-16T04:12:41.000Z</time>
      </trkpt>
      <trkpt lat="45.23096" lon="5.74695">
        <ele>806.79998779297</ele>
        <time>2021-10-16T04:12:42.000Z</time>
      </trkpt>
      <trkpt lat="45.23106" lon="5.74707">
        <ele>805.59997558594</ele>
        <time>2021-10-16T04:12:47.000Z</time>
      </trkpt>
      <trkpt lat="45.23107" lon="5.74711">
        <ele>805.20001220703</ele>
        <time>2021-10-16T04:12:48.000Z</time>
      </trkpt>
      <trkpt lat="45.23114" lon="5.7472">
        <ele>804.40002441406</ele>
        <time>2021-10-16T04:12:51.000Z</time>
      </trkpt>
      <trkpt lat="45.23123" lon="5.74732">
        <ele>803.20001220703</ele>
        <time>2021-10-16T04:12:55.000Z</time>
      </trkpt>
      <trkpt lat="45.2313" lon="5.74743">
        <ele>801.79998779297</ele>
        <time>2021-10-16T04:12:59.000Z</time>
      </trkpt>
      <trkpt lat="45.23134" lon="5.74752">
        <ele>800.59997558594</ele>
        <time>2021-10-16T04:13:02.000Z</time>
      </trkpt>
      <trkpt lat="45.2314" lon="5.74766">
        <ele>799.59997558594</ele>
        <time>2021-10-16T04:13:07.000Z</time>
      </trkpt>
      <trkpt lat="45.23144" lon="5.74772">
        <ele>799</ele>
        <time>2021-10-16T04:13:09.000Z</time>
      </trkpt>
      <trkpt lat="45.23147" lon="5.74778">
        <ele>798.40002441406</ele>
        <time>2021-10-16T04:13:11.000Z</time>
      </trkpt>
      <trkpt lat="45.23154" lon="5.7479">
        <ele>797.20001220703</ele>
        <time>2021-10-16T04:13:15.000Z</time>
      </trkpt>
      <trkpt lat="45.23161" lon="5.748">
        <ele>796</ele>
        <time>2021-10-16T04:13:19.000Z</time>
      </trkpt>
      <trkpt lat="45.23166" lon="5.74806">
        <ele>795.79998779297</ele>
        <time>2021-10-16T04:13:21.000Z</time>
      </trkpt>
      <trkpt lat="45.23174" lon="5.74816">
        <ele>794.79998779297</ele>
        <time>2021-10-16T04:13:24.000Z</time>
      </trkpt>
      <trkpt lat="45.23181" lon="5.74827">
        <ele>794.20001220703</ele>
        <time>2021-10-16T04:13:28.000Z</time>
      </trkpt>
      <trkpt lat="45.23182" lon="5.74831">
        <ele>793.20001220703</ele>
        <time>2021-10-16T04:13:29.000Z</time>
      </trkpt>
      <trkpt lat="45.23187" lon="5.74838">
        <ele>792.40002441406</ele>
        <time>2021-10-16T04:13:33.000Z</time>
      </trkpt>
      <trkpt lat="45.23193" lon="5.74841">
        <ele>792</ele>
        <time>2021-10-16T04:13:35.000Z</time>
      </trkpt>
      <trkpt lat="45.23196" lon="5.74845">
        <ele>791.79998779297</ele>
        <time>2021-10-16T04:13:37.000Z</time>
      </trkpt>
      <trkpt lat="45.232" lon="5.74849">
        <ele>790.79998779297</ele>
        <time>2021-10-16T04:13:39.000Z</time>
      </trkpt>
      <trkpt lat="45.23204" lon="5.74853">
        <ele>790.20001220703</ele>
        <time>2021-10-16T04:13:42.000Z</time>
      </trkpt>
      <trkpt lat="45.23205" lon="5.74854">
        <ele>789.20001220703</ele>
        <time>2021-10-16T04:13:43.000Z</time>
      </trkpt>
      <trkpt lat="45.23215" lon="5.74867">
        <ele>788.59997558594</ele>
        <time>2021-10-16T04:13:47.000Z</time>
      </trkpt>
      <trkpt lat="45.23218" lon="5.74874">
        <ele>788.20001220703</ele>
        <time>2021-10-16T04:13:49.000Z</time>
      </trkpt>
      <trkpt lat="45.23221" lon="5.74883">
        <ele>787.20001220703</ele>
        <time>2021-10-16T04:13:52.000Z</time>
      </trkpt>
      <trkpt lat="45.23222" lon="5.74886">
        <ele>787</ele>
        <time>2021-10-16T04:13:53.000Z</time>
      </trkpt>
      <trkpt lat="45.23223" lon="5.74889">
        <ele>787</ele>
        <time>2021-10-16T04:13:54.000Z</time>
      </trkpt>
      <trkpt lat="45.23226" lon="5.74893">
        <ele>786.40002441406</ele>
        <time>2021-10-16T04:13:56.000Z</time>
      </trkpt>
      <trkpt lat="45.23228" lon="5.74895">
        <ele>785.79998779297</ele>
        <time>2021-10-16T04:13:57.000Z</time>
      </trkpt>
      <trkpt lat="45.23239" lon="5.74906">
        <ele>784.40002441406</ele>
        <time>2021-10-16T04:14:03.000Z</time>
      </trkpt>
      <trkpt lat="45.23248" lon="5.74917">
        <ele>782.79998779297</ele>
        <time>2021-10-16T04:14:08.000Z</time>
      </trkpt>
      <trkpt lat="45.2325" lon="5.7492">
        <ele>782.59997558594</ele>
        <time>2021-10-16T04:14:09.000Z</time>
      </trkpt>
      <trkpt lat="45.23256" lon="5.74928">
        <ele>781.59997558594</ele>
        <time>2021-10-16T04:14:12.000Z</time>
      </trkpt>
      <trkpt lat="45.23264" lon="5.74936">
        <ele>781.20001220703</ele>
        <time>2021-10-16T04:14:15.000Z</time>
      </trkpt>
      <trkpt lat="45.23266" lon="5.74939">
        <ele>780.59997558594</ele>
        <time>2021-10-16T04:14:16.000Z</time>
      </trkpt>
      <trkpt lat="45.23274" lon="5.74948">
        <ele>779.79998779297</ele>
        <time>2021-10-16T04:14:19.000Z</time>
      </trkpt>
      <trkpt lat="45.23276" lon="5.74952">
        <ele>779.59997558594</ele>
        <time>2021-10-16T04:14:20.000Z</time>
      </trkpt>
      <trkpt lat="45.23277" lon="5.74954">
        <ele>779.59997558594</ele>
        <time>2021-10-16T04:14:21.000Z</time>
      </trkpt>
      <trkpt lat="45.23287" lon="5.74972">
        <ele>778.20001220703</ele>
        <time>2021-10-16T04:14:27.000Z</time>
      </trkpt>
      <trkpt lat="45.2329" lon="5.7498">
        <ele>777.20001220703</ele>
        <time>2021-10-16T04:14:29.000Z</time>
      </trkpt>
      <trkpt lat="45.23296" lon="5.74993">
        <ele>776</ele>
        <time>2021-10-16T04:14:33.000Z</time>
      </trkpt>
      <trkpt lat="45.23298" lon="5.74996">
        <ele>776</ele>
        <time>2021-10-16T04:14:34.000Z</time>
      </trkpt>
      <trkpt lat="45.23305" lon="5.75008">
        <ele>775</ele>
        <time>2021-10-16T04:14:38.000Z</time>
      </trkpt>
      <trkpt lat="45.23308" lon="5.75014">
        <ele>774.40002441406</ele>
        <time>2021-10-16T04:14:40.000Z</time>
      </trkpt>
      <trkpt lat="45.2331" lon="5.75016">
        <ele>773.79998779297</ele>
        <time>2021-10-16T04:14:41.000Z</time>
      </trkpt>
      <trkpt lat="45.23316" lon="5.75031">
        <ele>772.40002441406</ele>
        <time>2021-10-16T04:14:46.000Z</time>
      </trkpt>
      <trkpt lat="45.23324" lon="5.75047">
        <ele>771.40002441406</ele>
        <time>2021-10-16T04:14:51.000Z</time>
      </trkpt>
      <trkpt lat="45.23325" lon="5.75051">
        <ele>770.20001220703</ele>
        <time>2021-10-16T04:14:52.000Z</time>
      </trkpt>
      <trkpt lat="45.23326" lon="5.75054">
        <ele>770</ele>
        <time>2021-10-16T04:14:53.000Z</time>
      </trkpt>
      <trkpt lat="45.23326" lon="5.75066">
        <ele>768.79998779297</ele>
        <time>2021-10-16T04:14:57.000Z</time>
      </trkpt>
      <trkpt lat="45.23325" lon="5.75069">
        <ele>768.59997558594</ele>
        <time>2021-10-16T04:14:58.000Z</time>
      </trkpt>
      <trkpt lat="45.23324" lon="5.75072">
        <ele>768.20001220703</ele>
        <time>2021-10-16T04:14:59.000Z</time>
      </trkpt>
      <trkpt lat="45.23321" lon="5.75081">
        <ele>767.40002441406</ele>
        <time>2021-10-16T04:15:02.000Z</time>
      </trkpt>
      <trkpt lat="45.2332" lon="5.75089">
        <ele>767.20001220703</ele>
        <time>2021-10-16T04:15:04.000Z</time>
      </trkpt>
      <trkpt lat="45.23319" lon="5.75105">
        <ele>767</ele>
        <time>2021-10-16T04:15:08.000Z</time>
      </trkpt>
      <trkpt lat="45.2332" lon="5.75106">
        <ele>767</ele>
        <time>2021-10-16T04:15:09.000Z</time>
      </trkpt>
      <trkpt lat="45.23323" lon="5.75105">
        <ele>767.20001220703</ele>
        <time>2021-10-16T04:15:11.000Z</time>
      </trkpt>
      <trkpt lat="45.23334" lon="5.75103">
        <ele>768.40002441406</ele>
        <time>2021-10-16T04:15:16.000Z</time>
      </trkpt>
      <trkpt lat="45.23346" lon="5.75101">
        <ele>769.20001220703</ele>
        <time>2021-10-16T04:15:21.000Z</time>
      </trkpt>
      <trkpt lat="45.23348" lon="5.75101">
        <ele>769.40002441406</ele>
        <time>2021-10-16T04:15:22.000Z</time>
      </trkpt>
      <trkpt lat="45.23358" lon="5.75101">
        <ele>770.40002441406</ele>
        <time>2021-10-16T04:15:26.000Z</time>
      </trkpt>
      <trkpt lat="45.23365" lon="5.75103">
        <ele>770.79998779297</ele>
        <time>2021-10-16T04:15:29.000Z</time>
      </trkpt>
      <trkpt lat="45.23376" lon="5.75103">
        <ele>771.40002441406</ele>
        <time>2021-10-16T04:15:34.000Z</time>
      </trkpt>
      <trkpt lat="45.23381" lon="5.75104">
        <ele>772</ele>
        <time>2021-10-16T04:15:36.000Z</time>
      </trkpt>
      <trkpt lat="45.23386" lon="5.75104">
        <ele>772.40002441406</ele>
        <time>2021-10-16T04:15:38.000Z</time>
      </trkpt>
      <trkpt lat="45.23388" lon="5.75104">
        <ele>772.79998779297</ele>
        <time>2021-10-16T04:15:39.000Z</time>
      </trkpt>
      <trkpt lat="45.23398" lon="5.75105">
        <ele>773.20001220703</ele>
        <time>2021-10-16T04:15:43.000Z</time>
      </trkpt>
      <trkpt lat="45.23403" lon="5.75107">
        <ele>773.40002441406</ele>
        <time>2021-10-16T04:15:45.000Z</time>
      </trkpt>
      <trkpt lat="45.23406" lon="5.75108">
        <ele>773.79998779297</ele>
        <time>2021-10-16T04:15:46.000Z</time>
      </trkpt>
      <trkpt lat="45.2342" lon="5.75109">
        <ele>774.59997558594</ele>
        <time>2021-10-16T04:15:52.000Z</time>
      </trkpt>
      <trkpt lat="45.23422" lon="5.75109">
        <ele>774.79998779297</ele>
        <time>2021-10-16T04:15:53.000Z</time>
      </trkpt>
      <trkpt lat="45.23424" lon="5.75109">
        <ele>774.79998779297</ele>
        <time>2021-10-16T04:15:54.000Z</time>
      </trkpt>
      <trkpt lat="45.23435" lon="5.75104">
        <ele>776</ele>
        <time>2021-10-16T04:16:00.000Z</time>
      </trkpt>
      <trkpt lat="45.23439" lon="5.75103">
        <ele>776</ele>
        <time>2021-10-16T04:16:02.000Z</time>
      </trkpt>
      <trkpt lat="45.23445" lon="5.751">
        <ele>776.20001220703</ele>
        <time>2021-10-16T04:16:05.000Z</time>
      </trkpt>
      <trkpt lat="45.23453" lon="5.75093">
        <ele>776.79998779297</ele>
        <time>2021-10-16T04:16:10.000Z</time>
      </trkpt>
      <trkpt lat="45.23455" lon="5.75092">
        <ele>777.40002441406</ele>
        <time>2021-10-16T04:16:11.000Z</time>
      </trkpt>
      <trkpt lat="45.23457" lon="5.75091">
        <ele>777.59997558594</ele>
        <time>2021-10-16T04:16:12.000Z</time>
      </trkpt>
      <trkpt lat="45.2347" lon="5.75087">
        <ele>778.20001220703</ele>
        <time>2021-10-16T04:16:18.000Z</time>
      </trkpt>
      <trkpt lat="45.23479" lon="5.75084">
        <ele>778.59997558594</ele>
        <time>2021-10-16T04:16:22.000Z</time>
      </trkpt>
      <trkpt lat="45.23483" lon="5.75083">
        <ele>779.40002441406</ele>
        <time>2021-10-16T04:16:24.000Z</time>
      </trkpt>
      <trkpt lat="45.23493" lon="5.75078">
        <ele>780</ele>
        <time>2021-10-16T04:16:29.000Z</time>
      </trkpt>
      <trkpt lat="45.23494" lon="5.75077">
        <ele>780</ele>
        <time>2021-10-16T04:16:30.000Z</time>
      </trkpt>
      <trkpt lat="45.23496" lon="5.75076">
        <ele>780.40002441406</ele>
        <time>2021-10-16T04:16:31.000Z</time>
      </trkpt>
      <trkpt lat="45.23511" lon="5.75076">
        <ele>781.20001220703</ele>
        <time>2021-10-16T04:16:37.000Z</time>
      </trkpt>
      <trkpt lat="45.23514" lon="5.75075">
        <ele>781.20001220703</ele>
        <time>2021-10-16T04:16:38.000Z</time>
      </trkpt>
      <trkpt lat="45.23527" lon="5.75076">
        <ele>782.40002441406</ele>
        <time>2021-10-16T04:16:44.000Z</time>
      </trkpt>
      <trkpt lat="45.23529" lon="5.75076">
        <ele>782.40002441406</ele>
        <time>2021-10-16T04:16:45.000Z</time>
      </trkpt>
      <trkpt lat="45.23543" lon="5.75081">
        <ele>783.20001220703</ele>
        <time>2021-10-16T04:16:51.000Z</time>
      </trkpt>
      <trkpt lat="45.23545" lon="5.75083">
        <ele>783.59997558594</ele>
        <time>2021-10-16T04:16:52.000Z</time>
      </trkpt>
      <trkpt lat="45.23549" lon="5.75089">
        <ele>783.79998779297</ele>
        <time>2021-10-16T04:16:55.000Z</time>
      </trkpt>
      <trkpt lat="45.23552" lon="5.75093">
        <ele>784.79998779297</ele>
        <time>2021-10-16T04:16:59.000Z</time>
      </trkpt>
      <trkpt lat="45.23554" lon="5.75096">
        <ele>785.20001220703</ele>
        <time>2021-10-16T04:17:02.000Z</time>
      </trkpt>
      <trkpt lat="45.23554" lon="5.75096">
        <ele>786</ele>
        <time>2021-10-16T04:17:03.000Z</time>
      </trkpt>
      <trkpt lat="45.23555" lon="5.75097">
        <ele>786.40002441406</ele>
        <time>2021-10-16T04:17:04.000Z</time>
      </trkpt>
      <trkpt lat="45.23556" lon="5.75096">
        <ele>787</ele>
        <time>2021-10-16T04:17:07.000Z</time>
      </trkpt>
      <trkpt lat="45.23558" lon="5.75097">
        <ele>787.59997558594</ele>
        <time>2021-10-16T04:17:08.000Z</time>
      </trkpt>
      <trkpt lat="45.23561" lon="5.75102">
        <ele>788.40002441406</ele>
        <time>2021-10-16T04:17:12.000Z</time>
      </trkpt>
      <trkpt lat="45.23563" lon="5.75104">
        <ele>788.79998779297</ele>
        <time>2021-10-16T04:17:14.000Z</time>
      </trkpt>
      <trkpt lat="45.23564" lon="5.75105">
        <ele>789.20001220703</ele>
        <time>2021-10-16T04:17:15.000Z</time>
      </trkpt>
      <trkpt lat="45.23566" lon="5.75107">
        <ele>789.79998779297</ele>
        <time>2021-10-16T04:17:17.000Z</time>
      </trkpt>
      <trkpt lat="45.23567" lon="5.75108">
        <ele>789.79998779297</ele>
        <time>2021-10-16T04:17:18.000Z</time>
      </trkpt>
      <trkpt lat="45.23571" lon="5.75112">
        <ele>791</ele>
        <time>2021-10-16T04:17:21.000Z</time>
      </trkpt>
      <trkpt lat="45.23574" lon="5.75115">
        <ele>792</ele>
        <time>2021-10-16T04:17:24.000Z</time>
      </trkpt>
      <trkpt lat="45.23576" lon="5.75117">
        <ele>792.40002441406</ele>
        <time>2021-10-16T04:17:27.000Z</time>
      </trkpt>
      <trkpt lat="45.23578" lon="5.75118">
        <ele>793.40002441406</ele>
        <time>2021-10-16T04:17:29.000Z</time>
      </trkpt>
      <trkpt lat="45.23581" lon="5.75126">
        <ele>793.79998779297</ele>
        <time>2021-10-16T04:17:32.000Z</time>
      </trkpt>
      <trkpt lat="45.23581" lon="5.75129">
        <ele>794.79998779297</ele>
        <time>2021-10-16T04:17:34.000Z</time>
      </trkpt>
      <trkpt lat="45.2358" lon="5.75131">
        <ele>795</ele>
        <time>2021-10-16T04:17:35.000Z</time>
      </trkpt>
      <trkpt lat="45.23579" lon="5.75132">
        <ele>795.40002441406</ele>
        <time>2021-10-16T04:17:36.000Z</time>
      </trkpt>
      <trkpt lat="45.23577" lon="5.75134">
        <ele>796</ele>
        <time>2021-10-16T04:17:38.000Z</time>
      </trkpt>
      <trkpt lat="45.23576" lon="5.75135">
        <ele>796.40002441406</ele>
        <time>2021-10-16T04:17:39.000Z</time>
      </trkpt>
      <trkpt lat="45.23573" lon="5.75135">
        <ele>797.20001220703</ele>
        <time>2021-10-16T04:17:41.000Z</time>
      </trkpt>
      <trkpt lat="45.23572" lon="5.75137">
        <ele>797.20001220703</ele>
        <time>2021-10-16T04:17:42.000Z</time>
      </trkpt>
      <trkpt lat="45.23568" lon="5.7514">
        <ele>798.40002441406</ele>
        <time>2021-10-16T04:17:47.000Z</time>
      </trkpt>
      <trkpt lat="45.23566" lon="5.75141">
        <ele>798.59997558594</ele>
        <time>2021-10-16T04:17:48.000Z</time>
      </trkpt>
      <trkpt lat="45.23565" lon="5.75142">
        <ele>798.79998779297</ele>
        <time>2021-10-16T04:17:49.000Z</time>
      </trkpt>
      <trkpt lat="45.23562" lon="5.75143">
        <ele>799.59997558594</ele>
        <time>2021-10-16T04:17:52.000Z</time>
      </trkpt>
      <trkpt lat="45.23561" lon="5.75143">
        <ele>800</ele>
        <time>2021-10-16T04:17:53.000Z</time>
      </trkpt>
      <trkpt lat="45.23558" lon="5.75143">
        <ele>800.40002441406</ele>
        <time>2021-10-16T04:17:55.000Z</time>
      </trkpt>
      <trkpt lat="45.23556" lon="5.75145">
        <ele>800.79998779297</ele>
        <time>2021-10-16T04:17:57.000Z</time>
      </trkpt>
      <trkpt lat="45.23551" lon="5.75149">
        <ele>801.79998779297</ele>
        <time>2021-10-16T04:18:01.000Z</time>
      </trkpt>
      <trkpt lat="45.2355" lon="5.7515">
        <ele>802.79998779297</ele>
        <time>2021-10-16T04:18:03.000Z</time>
      </trkpt>
      <trkpt lat="45.23549" lon="5.7515">
        <ele>803</ele>
        <time>2021-10-16T04:18:04.000Z</time>
      </trkpt>
      <trkpt lat="45.23546" lon="5.75151">
        <ele>803.79998779297</ele>
        <time>2021-10-16T04:18:08.000Z</time>
      </trkpt>
      <trkpt lat="45.23545" lon="5.75151">
        <ele>804</ele>
        <time>2021-10-16T04:18:09.000Z</time>
      </trkpt>
      <trkpt lat="45.23545" lon="5.75152">
        <ele>804.59997558594</ele>
        <time>2021-10-16T04:18:10.000Z</time>
      </trkpt>
      <trkpt lat="45.23544" lon="5.75153">
        <ele>805.20001220703</ele>
        <time>2021-10-16T04:18:11.000Z</time>
      </trkpt>
      <trkpt lat="45.23541" lon="5.75153">
        <ele>805.20001220703</ele>
        <time>2021-10-16T04:18:14.000Z</time>
      </trkpt>
      <trkpt lat="45.2354" lon="5.75154">
        <ele>805.40002441406</ele>
        <time>2021-10-16T04:18:15.000Z</time>
      </trkpt>
      <trkpt lat="45.23537" lon="5.75155">
        <ele>806.20001220703</ele>
        <time>2021-10-16T04:18:17.000Z</time>
      </trkpt>
      <trkpt lat="45.23534" lon="5.75156">
        <ele>807.40002441406</ele>
        <time>2021-10-16T04:18:21.000Z</time>
      </trkpt>
      <trkpt lat="45.2353" lon="5.75158">
        <ele>808</ele>
        <time>2021-10-16T04:18:25.000Z</time>
      </trkpt>
      <trkpt lat="45.23528" lon="5.75157">
        <ele>808.59997558594</ele>
        <time>2021-10-16T04:18:27.000Z</time>
      </trkpt>
      <trkpt lat="45.23521" lon="5.7516">
        <ele>809.59997558594</ele>
        <time>2021-10-16T04:18:31.000Z</time>
      </trkpt>
      <trkpt lat="45.2352" lon="5.75161">
        <ele>809.79998779297</ele>
        <time>2021-10-16T04:18:33.000Z</time>
      </trkpt>
      <trkpt lat="45.23518" lon="5.75162">
        <ele>810.79998779297</ele>
        <time>2021-10-16T04:18:35.000Z</time>
      </trkpt>
      <trkpt lat="45.23516" lon="5.75166">
        <ele>811</ele>
        <time>2021-10-16T04:18:38.000Z</time>
      </trkpt>
      <trkpt lat="45.23516" lon="5.75167">
        <ele>811.40002441406</ele>
        <time>2021-10-16T04:18:39.000Z</time>
      </trkpt>
      <trkpt lat="45.23513" lon="5.75168">
        <ele>812.20001220703</ele>
        <time>2021-10-16T04:18:41.000Z</time>
      </trkpt>
      <trkpt lat="45.23511" lon="5.75169">
        <ele>812.40002441406</ele>
        <time>2021-10-16T04:18:42.000Z</time>
      </trkpt>
      <trkpt lat="45.2351" lon="5.75169">
        <ele>812.59997558594</ele>
        <time>2021-10-16T04:18:43.000Z</time>
      </trkpt>
      <trkpt lat="45.23507" lon="5.75171">
        <ele>813.20001220703</ele>
        <time>2021-10-16T04:18:46.000Z</time>
      </trkpt>
      <trkpt lat="45.23507" lon="5.75172">
        <ele>813.40002441406</ele>
        <time>2021-10-16T04:18:47.000Z</time>
      </trkpt>
      <trkpt lat="45.23504" lon="5.75177">
        <ele>814.59997558594</ele>
        <time>2021-10-16T04:18:51.000Z</time>
      </trkpt>
      <trkpt lat="45.23501" lon="5.75182">
        <ele>815.20001220703</ele>
        <time>2021-10-16T04:18:54.000Z</time>
      </trkpt>
      <trkpt lat="45.235" lon="5.75184">
        <ele>815.59997558594</ele>
        <time>2021-10-16T04:18:55.000Z</time>
      </trkpt>
      <trkpt lat="45.23497" lon="5.75188">
        <ele>816.20001220703</ele>
        <time>2021-10-16T04:18:57.000Z</time>
      </trkpt>
      <trkpt lat="45.23496" lon="5.75189">
        <ele>816.59997558594</ele>
        <time>2021-10-16T04:18:59.000Z</time>
      </trkpt>
      <trkpt lat="45.23495" lon="5.7519">
        <ele>816.59997558594</ele>
        <time>2021-10-16T04:19:00.000Z</time>
      </trkpt>
      <trkpt lat="45.23495" lon="5.75191">
        <ele>816.79998779297</ele>
        <time>2021-10-16T04:19:01.000Z</time>
      </trkpt>
      <trkpt lat="45.23494" lon="5.75192">
        <ele>817</ele>
        <time>2021-10-16T04:19:02.000Z</time>
      </trkpt>
      <trkpt lat="45.23492" lon="5.75195">
        <ele>817.79998779297</ele>
        <time>2021-10-16T04:19:04.000Z</time>
      </trkpt>
      <trkpt lat="45.2349" lon="5.75197">
        <ele>818.40002441406</ele>
        <time>2021-10-16T04:19:06.000Z</time>
      </trkpt>
      <trkpt lat="45.23486" lon="5.752">
        <ele>818.79998779297</ele>
        <time>2021-10-16T04:19:09.000Z</time>
      </trkpt>
      <trkpt lat="45.23484" lon="5.75202">
        <ele>820</ele>
        <time>2021-10-16T04:19:11.000Z</time>
      </trkpt>
      <trkpt lat="45.23483" lon="5.75204">
        <ele>820</ele>
        <time>2021-10-16T04:19:12.000Z</time>
      </trkpt>
      <trkpt lat="45.23483" lon="5.75205">
        <ele>820.20001220703</ele>
        <time>2021-10-16T04:19:13.000Z</time>
      </trkpt>
      <trkpt lat="45.23479" lon="5.75208">
        <ele>821.40002441406</ele>
        <time>2021-10-16T04:19:17.000Z</time>
      </trkpt>
      <trkpt lat="45.23475" lon="5.75213">
        <ele>822.79998779297</ele>
        <time>2021-10-16T04:19:22.000Z</time>
      </trkpt>
      <trkpt lat="45.23471" lon="5.75216">
        <ele>823.40002441406</ele>
        <time>2021-10-16T04:19:25.000Z</time>
      </trkpt>
      <trkpt lat="45.2347" lon="5.75217">
        <ele>824</ele>
        <time>2021-10-16T04:19:26.000Z</time>
      </trkpt>
      <trkpt lat="45.23466" lon="5.7522">
        <ele>825</ele>
        <time>2021-10-16T04:19:30.000Z</time>
      </trkpt>
      <trkpt lat="45.23465" lon="5.75221">
        <ele>825.40002441406</ele>
        <time>2021-10-16T04:19:32.000Z</time>
      </trkpt>
      <trkpt lat="45.23464" lon="5.75223">
        <ele>826.20001220703</ele>
        <time>2021-10-16T04:19:33.000Z</time>
      </trkpt>
      <trkpt lat="45.2346" lon="5.75226">
        <ele>827</ele>
        <time>2021-10-16T04:19:36.000Z</time>
      </trkpt>
      <trkpt lat="45.2346" lon="5.75226">
        <ele>827</ele>
        <time>2021-10-16T04:19:37.000Z</time>
      </trkpt>
      <trkpt lat="45.23459" lon="5.75227">
        <ele>827.20001220703</ele>
        <time>2021-10-16T04:19:38.000Z</time>
      </trkpt>
      <trkpt lat="45.23454" lon="5.75231">
        <ele>828.59997558594</ele>
        <time>2021-10-16T04:19:43.000Z</time>
      </trkpt>
      <trkpt lat="45.23453" lon="5.75232">
        <ele>829</ele>
        <time>2021-10-16T04:19:44.000Z</time>
      </trkpt>
      <trkpt lat="45.23452" lon="5.75235">
        <ele>829</ele>
        <time>2021-10-16T04:19:46.000Z</time>
      </trkpt>
      <trkpt lat="45.23452" lon="5.75235">
        <ele>829.40002441406</ele>
        <time>2021-10-16T04:19:47.000Z</time>
      </trkpt>
      <trkpt lat="45.2345" lon="5.75238">
        <ele>829.79998779297</ele>
        <time>2021-10-16T04:19:49.000Z</time>
      </trkpt>
      <trkpt lat="45.23449" lon="5.75241">
        <ele>830.79998779297</ele>
        <time>2021-10-16T04:19:51.000Z</time>
      </trkpt>
      <trkpt lat="45.23449" lon="5.75242">
        <ele>831.20001220703</ele>
        <time>2021-10-16T04:19:52.000Z</time>
      </trkpt>
      <trkpt lat="45.23445" lon="5.75248">
        <ele>832.40002441406</ele>
        <time>2021-10-16T04:19:57.000Z</time>
      </trkpt>
      <trkpt lat="45.23444" lon="5.75252">
        <ele>833.20001220703</ele>
        <time>2021-10-16T04:19:59.000Z</time>
      </trkpt>
      <trkpt lat="45.23443" lon="5.75254">
        <ele>833.40002441406</ele>
        <time>2021-10-16T04:20:01.000Z</time>
      </trkpt>
      <trkpt lat="45.23442" lon="5.75258">
        <ele>834</ele>
        <time>2021-10-16T04:20:03.000Z</time>
      </trkpt>
      <trkpt lat="45.23441" lon="5.75262">
        <ele>834.79998779297</ele>
        <time>2021-10-16T04:20:05.000Z</time>
      </trkpt>
      <trkpt lat="45.23437" lon="5.75268">
        <ele>836</ele>
        <time>2021-10-16T04:20:10.000Z</time>
      </trkpt>
      <trkpt lat="45.23434" lon="5.75268">
        <ele>836.59997558594</ele>
        <time>2021-10-16T04:20:12.000Z</time>
      </trkpt>
      <trkpt lat="45.23432" lon="5.75268">
        <ele>836.79998779297</ele>
        <time>2021-10-16T04:20:14.000Z</time>
      </trkpt>
      <trkpt lat="45.23431" lon="5.75269">
        <ele>837</ele>
        <time>2021-10-16T04:20:15.000Z</time>
      </trkpt>
      <trkpt lat="45.23429" lon="5.75271">
        <ele>837.59997558594</ele>
        <time>2021-10-16T04:20:17.000Z</time>
      </trkpt>
      <trkpt lat="45.23429" lon="5.75273">
        <ele>838</ele>
        <time>2021-10-16T04:20:18.000Z</time>
      </trkpt>
      <trkpt lat="45.23427" lon="5.75276">
        <ele>838.59997558594</ele>
        <time>2021-10-16T04:20:20.000Z</time>
      </trkpt>
      <trkpt lat="45.23426" lon="5.75278">
        <ele>838.79998779297</ele>
        <time>2021-10-16T04:20:22.000Z</time>
      </trkpt>
      <trkpt lat="45.23424" lon="5.7528">
        <ele>839.59997558594</ele>
        <time>2021-10-16T04:20:24.000Z</time>
      </trkpt>
      <trkpt lat="45.23421" lon="5.75287">
        <ele>840.79998779297</ele>
        <time>2021-10-16T04:20:28.000Z</time>
      </trkpt>
      <trkpt lat="45.23418" lon="5.75292">
        <ele>841.40002441406</ele>
        <time>2021-10-16T04:20:31.000Z</time>
      </trkpt>
      <trkpt lat="45.23417" lon="5.75296">
        <ele>842</ele>
        <time>2021-10-16T04:20:33.000Z</time>
      </trkpt>
      <trkpt lat="45.23416" lon="5.75297">
        <ele>842.59997558594</ele>
        <time>2021-10-16T04:20:34.000Z</time>
      </trkpt>
      <trkpt lat="45.23415" lon="5.75301">
        <ele>842.79998779297</ele>
        <time>2021-10-16T04:20:36.000Z</time>
      </trkpt>
      <trkpt lat="45.23415" lon="5.75302">
        <ele>843</ele>
        <time>2021-10-16T04:20:37.000Z</time>
      </trkpt>
      <trkpt lat="45.23415" lon="5.75304">
        <ele>843.40002441406</ele>
        <time>2021-10-16T04:20:38.000Z</time>
      </trkpt>
      <trkpt lat="45.23415" lon="5.75305">
        <ele>843.59997558594</ele>
        <time>2021-10-16T04:20:39.000Z</time>
      </trkpt>
      <trkpt lat="45.23414" lon="5.75306">
        <ele>844.79998779297</ele>
        <time>2021-10-16T04:20:41.000Z</time>
      </trkpt>
      <trkpt lat="45.23414" lon="5.75307">
        <ele>844.79998779297</ele>
        <time>2021-10-16T04:20:42.000Z</time>
      </trkpt>
      <trkpt lat="45.23417" lon="5.75311">
        <ele>845.40002441406</ele>
        <time>2021-10-16T04:20:44.000Z</time>
      </trkpt>
      <trkpt lat="45.23419" lon="5.75314">
        <ele>845.79998779297</ele>
        <time>2021-10-16T04:20:46.000Z</time>
      </trkpt>
      <trkpt lat="45.23419" lon="5.75316">
        <ele>846.40002441406</ele>
        <time>2021-10-16T04:20:47.000Z</time>
      </trkpt>
      <trkpt lat="45.23419" lon="5.75319">
        <ele>846.40002441406</ele>
        <time>2021-10-16T04:20:48.000Z</time>
      </trkpt>
      <trkpt lat="45.2342" lon="5.75325">
        <ele>847</ele>
        <time>2021-10-16T04:20:51.000Z</time>
      </trkpt>
      <trkpt lat="45.23417" lon="5.75328">
        <ele>848.20001220703</ele>
        <time>2021-10-16T04:20:54.000Z</time>
      </trkpt>
      <trkpt lat="45.23413" lon="5.75333">
        <ele>849.20001220703</ele>
        <time>2021-10-16T04:20:58.000Z</time>
      </trkpt>
      <trkpt lat="45.23412" lon="5.75335">
        <ele>849.79998779297</ele>
        <time>2021-10-16T04:20:59.000Z</time>
      </trkpt>
      <trkpt lat="45.23412" lon="5.75336">
        <ele>850</ele>
        <time>2021-10-16T04:21:00.000Z</time>
      </trkpt>
      <trkpt lat="45.23409" lon="5.75337">
        <ele>850.59997558594</ele>
        <time>2021-10-16T04:21:03.000Z</time>
      </trkpt>
      <trkpt lat="45.23408" lon="5.75338">
        <ele>851</ele>
        <time>2021-10-16T04:21:04.000Z</time>
      </trkpt>
      <trkpt lat="45.23404" lon="5.7534">
        <ele>851.79998779297</ele>
        <time>2021-10-16T04:21:06.000Z</time>
      </trkpt>
      <trkpt lat="45.23403" lon="5.75341">
        <ele>852</ele>
        <time>2021-10-16T04:21:07.000Z</time>
      </trkpt>
      <trkpt lat="45.23401" lon="5.75341">
        <ele>852.20001220703</ele>
        <time>2021-10-16T04:21:08.000Z</time>
      </trkpt>
      <trkpt lat="45.234" lon="5.75343">
        <ele>852.40002441406</ele>
        <time>2021-10-16T04:21:10.000Z</time>
      </trkpt>
      <trkpt lat="45.23398" lon="5.75343">
        <ele>853.40002441406</ele>
        <time>2021-10-16T04:21:12.000Z</time>
      </trkpt>
      <trkpt lat="45.23392" lon="5.75346">
        <ele>854.59997558594</ele>
        <time>2021-10-16T04:21:16.000Z</time>
      </trkpt>
      <trkpt lat="45.23388" lon="5.75351">
        <ele>855.59997558594</ele>
        <time>2021-10-16T04:21:21.000Z</time>
      </trkpt>
      <trkpt lat="45.23385" lon="5.75351">
        <ele>856</ele>
        <time>2021-10-16T04:21:23.000Z</time>
      </trkpt>
      <trkpt lat="45.23383" lon="5.75352">
        <ele>856.20001220703</ele>
        <time>2021-10-16T04:21:25.000Z</time>
      </trkpt>
      <trkpt lat="45.23381" lon="5.75352">
        <ele>856.79998779297</ele>
        <time>2021-10-16T04:21:27.000Z</time>
      </trkpt>
      <trkpt lat="45.23377" lon="5.75354">
        <ele>858</ele>
        <time>2021-10-16T04:21:30.000Z</time>
      </trkpt>
      <trkpt lat="45.23375" lon="5.75356">
        <ele>858.79998779297</ele>
        <time>2021-10-16T04:21:33.000Z</time>
      </trkpt>
      <trkpt lat="45.23373" lon="5.75357">
        <ele>859.40002441406</ele>
        <time>2021-10-16T04:21:35.000Z</time>
      </trkpt>
      <trkpt lat="45.23369" lon="5.7536">
        <ele>860.40002441406</ele>
        <time>2021-10-16T04:21:38.000Z</time>
      </trkpt>
      <trkpt lat="45.23367" lon="5.75362">
        <ele>860.59997558594</ele>
        <time>2021-10-16T04:21:40.000Z</time>
      </trkpt>
      <trkpt lat="45.23362" lon="5.75366">
        <ele>861.59997558594</ele>
        <time>2021-10-16T04:21:44.000Z</time>
      </trkpt>
      <trkpt lat="45.2336" lon="5.75367">
        <ele>862.40002441406</ele>
        <time>2021-10-16T04:21:46.000Z</time>
      </trkpt>
      <trkpt lat="45.23359" lon="5.75366">
        <ele>862.59997558594</ele>
        <time>2021-10-16T04:21:47.000Z</time>
      </trkpt>
      <trkpt lat="45.23357" lon="5.75366">
        <ele>862.79998779297</ele>
        <time>2021-10-16T04:21:48.000Z</time>
      </trkpt>
      <trkpt lat="45.23355" lon="5.75367">
        <ele>863.59997558594</ele>
        <time>2021-10-16T04:21:51.000Z</time>
      </trkpt>
      <trkpt lat="45.23353" lon="5.75367">
        <ele>863.79998779297</ele>
        <time>2021-10-16T04:21:52.000Z</time>
      </trkpt>
      <trkpt lat="45.2335" lon="5.75368">
        <ele>864.40002441406</ele>
        <time>2021-10-16T04:21:54.000Z</time>
      </trkpt>
      <trkpt lat="45.23347" lon="5.75371">
        <ele>865</ele>
        <time>2021-10-16T04:21:57.000Z</time>
      </trkpt>
      <trkpt lat="45.23346" lon="5.75372">
        <ele>865.59997558594</ele>
        <time>2021-10-16T04:21:59.000Z</time>
      </trkpt>
      <trkpt lat="45.23345" lon="5.75373">
        <ele>866</ele>
        <time>2021-10-16T04:22:01.000Z</time>
      </trkpt>
      <trkpt lat="45.23344" lon="5.75374">
        <ele>866.20001220703</ele>
        <time>2021-10-16T04:22:02.000Z</time>
      </trkpt>
      <trkpt lat="45.23343" lon="5.75376">
        <ele>867.20001220703</ele>
        <time>2021-10-16T04:22:05.000Z</time>
      </trkpt>
      <trkpt lat="45.2334" lon="5.75376">
        <ele>868</ele>
        <time>2021-10-16T04:22:07.000Z</time>
      </trkpt>
      <trkpt lat="45.23339" lon="5.75377">
        <ele>868</ele>
        <time>2021-10-16T04:22:08.000Z</time>
      </trkpt>
      <trkpt lat="45.23339" lon="5.75378">
        <ele>868.20001220703</ele>
        <time>2021-10-16T04:22:09.000Z</time>
      </trkpt>
      <trkpt lat="45.23334" lon="5.75382">
        <ele>868.79998779297</ele>
        <time>2021-10-16T04:22:12.000Z</time>
      </trkpt>
      <trkpt lat="45.23332" lon="5.75384">
        <ele>869.59997558594</ele>
        <time>2021-10-16T04:22:14.000Z</time>
      </trkpt>
      <trkpt lat="45.23332" lon="5.75385">
        <ele>870</ele>
        <time>2021-10-16T04:22:15.000Z</time>
      </trkpt>
      <trkpt lat="45.23332" lon="5.75387">
        <ele>870.20001220703</ele>
        <time>2021-10-16T04:22:16.000Z</time>
      </trkpt>
      <trkpt lat="45.23331" lon="5.75388">
        <ele>870.40002441406</ele>
        <time>2021-10-16T04:22:17.000Z</time>
      </trkpt>
      <trkpt lat="45.23328" lon="5.7539">
        <ele>871</ele>
        <time>2021-10-16T04:22:19.000Z</time>
      </trkpt>
      <trkpt lat="45.23326" lon="5.75392">
        <ele>872</ele>
        <time>2021-10-16T04:22:22.000Z</time>
      </trkpt>
      <trkpt lat="45.23325" lon="5.75392">
        <ele>872</ele>
        <time>2021-10-16T04:22:23.000Z</time>
      </trkpt>
      <trkpt lat="45.23324" lon="5.75393">
        <ele>872.20001220703</ele>
        <time>2021-10-16T04:22:24.000Z</time>
      </trkpt>
      <trkpt lat="45.2332" lon="5.75399">
        <ele>873.40002441406</ele>
        <time>2021-10-16T04:22:29.000Z</time>
      </trkpt>
      <trkpt lat="45.23317" lon="5.75406">
        <ele>874.20001220703</ele>
        <time>2021-10-16T04:22:33.000Z</time>
      </trkpt>
      <trkpt lat="45.23315" lon="5.75409">
        <ele>875</ele>
        <time>2021-10-16T04:22:35.000Z</time>
      </trkpt>
      <trkpt lat="45.23313" lon="5.75413">
        <ele>876.20001220703</ele>
        <time>2021-10-16T04:22:39.000Z</time>
      </trkpt>
      <trkpt lat="45.23312" lon="5.75417">
        <ele>876.40002441406</ele>
        <time>2021-10-16T04:22:41.000Z</time>
      </trkpt>
      <trkpt lat="45.2331" lon="5.75423">
        <ele>877.40002441406</ele>
        <time>2021-10-16T04:22:44.000Z</time>
      </trkpt>
      <trkpt lat="45.23307" lon="5.75429">
        <ele>878.20001220703</ele>
        <time>2021-10-16T04:22:49.000Z</time>
      </trkpt>
      <trkpt lat="45.23306" lon="5.75432">
        <ele>878.79998779297</ele>
        <time>2021-10-16T04:22:51.000Z</time>
      </trkpt>
      <trkpt lat="45.23304" lon="5.75434">
        <ele>879.40002441406</ele>
        <time>2021-10-16T04:22:53.000Z</time>
      </trkpt>
      <trkpt lat="45.23302" lon="5.75436">
        <ele>880.20001220703</ele>
        <time>2021-10-16T04:22:55.000Z</time>
      </trkpt>
      <trkpt lat="45.233" lon="5.75441">
        <ele>881.20001220703</ele>
        <time>2021-10-16T04:23:00.000Z</time>
      </trkpt>
      <trkpt lat="45.23299" lon="5.75443">
        <ele>881.79998779297</ele>
        <time>2021-10-16T04:23:01.000Z</time>
      </trkpt>
      <trkpt lat="45.23299" lon="5.75444">
        <ele>882</ele>
        <time>2021-10-16T04:23:02.000Z</time>
      </trkpt>
      <trkpt lat="45.23299" lon="5.75445">
        <ele>882.20001220703</ele>
        <time>2021-10-16T04:23:04.000Z</time>
      </trkpt>
      <trkpt lat="45.23296" lon="5.75448">
        <ele>882.40002441406</ele>
        <time>2021-10-16T04:23:08.000Z</time>
      </trkpt>
      <trkpt lat="45.23296" lon="5.75449">
        <ele>882.59997558594</ele>
        <time>2021-10-16T04:23:09.000Z</time>
      </trkpt>
      <trkpt lat="45.23294" lon="5.75451">
        <ele>883</ele>
        <time>2021-10-16T04:23:11.000Z</time>
      </trkpt>
      <trkpt lat="45.23294" lon="5.75452">
        <ele>883</ele>
        <time>2021-10-16T04:23:12.000Z</time>
      </trkpt>
      <trkpt lat="45.23294" lon="5.75452">
        <ele>883.40002441406</ele>
        <time>2021-10-16T04:23:13.000Z</time>
      </trkpt>
      <trkpt lat="45.23294" lon="5.75454">
        <ele>883.40002441406</ele>
        <time>2021-10-16T04:23:14.000Z</time>
      </trkpt>
      <trkpt lat="45.23294" lon="5.75455">
        <ele>883.59997558594</ele>
        <time>2021-10-16T04:23:15.000Z</time>
      </trkpt>
      <trkpt lat="45.23294" lon="5.75457">
        <ele>884.40002441406</ele>
        <time>2021-10-16T04:23:16.000Z</time>
      </trkpt>
      <trkpt lat="45.23292" lon="5.75461">
        <ele>885.20001220703</ele>
        <time>2021-10-16T04:23:19.000Z</time>
      </trkpt>
      <trkpt lat="45.23291" lon="5.75464">
        <ele>886</ele>
        <time>2021-10-16T04:23:21.000Z</time>
      </trkpt>
      <trkpt lat="45.23288" lon="5.75469">
        <ele>886.40002441406</ele>
        <time>2021-10-16T04:23:25.000Z</time>
      </trkpt>
      <trkpt lat="45.23287" lon="5.7547">
        <ele>886.40002441406</ele>
        <time>2021-10-16T04:23:26.000Z</time>
      </trkpt>
      <trkpt lat="45.23285" lon="5.7547">
        <ele>887.40002441406</ele>
        <time>2021-10-16T04:23:27.000Z</time>
      </trkpt>
      <trkpt lat="45.23281" lon="5.75472">
        <ele>888</ele>
        <time>2021-10-16T04:23:31.000Z</time>
      </trkpt>
      <trkpt lat="45.2328" lon="5.75473">
        <ele>888.79998779297</ele>
        <time>2021-10-16T04:23:32.000Z</time>
      </trkpt>
      <trkpt lat="45.23279" lon="5.75475">
        <ele>889</ele>
        <time>2021-10-16T04:23:33.000Z</time>
      </trkpt>
      <trkpt lat="45.23274" lon="5.7548">
        <ele>889.40002441406</ele>
        <time>2021-10-16T04:23:37.000Z</time>
      </trkpt>
      <trkpt lat="45.23273" lon="5.75481">
        <ele>889.79998779297</ele>
        <time>2021-10-16T04:23:38.000Z</time>
      </trkpt>
      <trkpt lat="45.23271" lon="5.75484">
        <ele>890.20001220703</ele>
        <time>2021-10-16T04:23:40.000Z</time>
      </trkpt>
      <trkpt lat="45.2327" lon="5.75489">
        <ele>891.20001220703</ele>
        <time>2021-10-16T04:23:43.000Z</time>
      </trkpt>
      <trkpt lat="45.2327" lon="5.75487">
        <ele>892</ele>
        <time>2021-10-16T04:23:45.000Z</time>
      </trkpt>
      <trkpt lat="45.23271" lon="5.75486">
        <ele>892.20001220703</ele>
        <time>2021-10-16T04:23:47.000Z</time>
      </trkpt>
      <trkpt lat="45.23272" lon="5.75485">
        <ele>892.59997558594</ele>
        <time>2021-10-16T04:23:48.000Z</time>
      </trkpt>
      <trkpt lat="45.23272" lon="5.75484">
        <ele>892.59997558594</ele>
        <time>2021-10-16T04:23:49.000Z</time>
      </trkpt>
      <trkpt lat="45.23274" lon="5.75481">
        <ele>893</ele>
        <time>2021-10-16T04:23:51.000Z</time>
      </trkpt>
      <trkpt lat="45.23275" lon="5.7548">
        <ele>893.40002441406</ele>
        <time>2021-10-16T04:23:52.000Z</time>
      </trkpt>
      <trkpt lat="45.23279" lon="5.75481">
        <ele>894.59997558594</ele>
        <time>2021-10-16T04:23:57.000Z</time>
      </trkpt>
      <trkpt lat="45.23284" lon="5.75479">
        <ele>895.79998779297</ele>
        <time>2021-10-16T04:24:01.000Z</time>
      </trkpt>
      <trkpt lat="45.23287" lon="5.75472">
        <ele>896.79998779297</ele>
        <time>2021-10-16T04:24:06.000Z</time>
      </trkpt>
      <trkpt lat="45.23288" lon="5.75471">
        <ele>897</ele>
        <time>2021-10-16T04:24:07.000Z</time>
      </trkpt>
      <trkpt lat="45.23288" lon="5.75471">
        <ele>897.20001220703</ele>
        <time>2021-10-16T04:24:08.000Z</time>
      </trkpt>
      <trkpt lat="45.23289" lon="5.75471">
        <ele>898</ele>
        <time>2021-10-16T04:24:09.000Z</time>
      </trkpt>
      <trkpt lat="45.23296" lon="5.75467">
        <ele>899.40002441406</ele>
        <time>2021-10-16T04:24:16.000Z</time>
      </trkpt>
      <trkpt lat="45.23297" lon="5.75466">
        <ele>900.20001220703</ele>
        <time>2021-10-16T04:24:18.000Z</time>
      </trkpt>
      <trkpt lat="45.23298" lon="5.75465">
        <ele>900.40002441406</ele>
        <time>2021-10-16T04:24:19.000Z</time>
      </trkpt>
      <trkpt lat="45.23299" lon="5.75464">
        <ele>900.59997558594</ele>
        <time>2021-10-16T04:24:20.000Z</time>
      </trkpt>
      <trkpt lat="45.23303" lon="5.75462">
        <ele>901.20001220703</ele>
        <time>2021-10-16T04:24:23.000Z</time>
      </trkpt>
      <trkpt lat="45.23304" lon="5.75461">
        <ele>901.20001220703</ele>
        <time>2021-10-16T04:24:24.000Z</time>
      </trkpt>
      <trkpt lat="45.23304" lon="5.7546">
        <ele>901.59997558594</ele>
        <time>2021-10-16T04:24:25.000Z</time>
      </trkpt>
      <trkpt lat="45.23308" lon="5.75459">
        <ele>903</ele>
        <time>2021-10-16T04:24:30.000Z</time>
      </trkpt>
      <trkpt lat="45.23313" lon="5.75455">
        <ele>903.40002441406</ele>
        <time>2021-10-16T04:24:34.000Z</time>
      </trkpt>
      <trkpt lat="45.23313" lon="5.75454">
        <ele>904.40002441406</ele>
        <time>2021-10-16T04:24:35.000Z</time>
      </trkpt>
      <trkpt lat="45.23315" lon="5.75454">
        <ele>904.59997558594</ele>
        <time>2021-10-16T04:24:37.000Z</time>
      </trkpt>
      <trkpt lat="45.2332" lon="5.75455">
        <ele>905.40002441406</ele>
        <time>2021-10-16T04:24:42.000Z</time>
      </trkpt>
      <trkpt lat="45.23322" lon="5.75454">
        <ele>906.40002441406</ele>
        <time>2021-10-16T04:24:44.000Z</time>
      </trkpt>
      <trkpt lat="45.23324" lon="5.75454">
        <ele>906.79998779297</ele>
        <time>2021-10-16T04:24:45.000Z</time>
      </trkpt>
      <trkpt lat="45.23329" lon="5.75453">
        <ele>907.40002441406</ele>
        <time>2021-10-16T04:24:49.000Z</time>
      </trkpt>
      <trkpt lat="45.23332" lon="5.75453">
        <ele>907.79998779297</ele>
        <time>2021-10-16T04:24:51.000Z</time>
      </trkpt>
      <trkpt lat="45.23338" lon="5.75453">
        <ele>908.79998779297</ele>
        <time>2021-10-16T04:24:56.000Z</time>
      </trkpt>
      <trkpt lat="45.23339" lon="5.75453">
        <ele>909.40002441406</ele>
        <time>2021-10-16T04:24:57.000Z</time>
      </trkpt>
      <trkpt lat="45.2334" lon="5.75453">
        <ele>909.40002441406</ele>
        <time>2021-10-16T04:24:58.000Z</time>
      </trkpt>
      <trkpt lat="45.23341" lon="5.75453">
        <ele>909.79998779297</ele>
        <time>2021-10-16T04:24:59.000Z</time>
      </trkpt>
      <trkpt lat="45.23345" lon="5.75452">
        <ele>910.59997558594</ele>
        <time>2021-10-16T04:25:03.000Z</time>
      </trkpt>
      <trkpt lat="45.23347" lon="5.75452">
        <ele>910.79998779297</ele>
        <time>2021-10-16T04:25:04.000Z</time>
      </trkpt>
      <trkpt lat="45.23352" lon="5.75454">
        <ele>911.79998779297</ele>
        <time>2021-10-16T04:25:07.000Z</time>
      </trkpt>
      <trkpt lat="45.23355" lon="5.75453">
        <ele>912.20001220703</ele>
        <time>2021-10-16T04:25:09.000Z</time>
      </trkpt>
      <trkpt lat="45.23358" lon="5.75452">
        <ele>913</ele>
        <time>2021-10-16T04:25:12.000Z</time>
      </trkpt>
      <trkpt lat="45.23363" lon="5.75454">
        <ele>914.20001220703</ele>
        <time>2021-10-16T04:25:16.000Z</time>
      </trkpt>
      <trkpt lat="45.23367" lon="5.75453">
        <ele>915.20001220703</ele>
        <time>2021-10-16T04:25:19.000Z</time>
      </trkpt>
      <trkpt lat="45.23368" lon="5.75453">
        <ele>915.20001220703</ele>
        <time>2021-10-16T04:25:20.000Z</time>
      </trkpt>
      <trkpt lat="45.23374" lon="5.75454">
        <ele>916</ele>
        <time>2021-10-16T04:25:24.000Z</time>
      </trkpt>
      <trkpt lat="45.23374" lon="5.75453">
        <ele>916.59997558594</ele>
        <time>2021-10-16T04:25:25.000Z</time>
      </trkpt>
      <trkpt lat="45.23379" lon="5.75451">
        <ele>918</ele>
        <time>2021-10-16T04:25:29.000Z</time>
      </trkpt>
      <trkpt lat="45.23384" lon="5.75453">
        <ele>918.79998779297</ele>
        <time>2021-10-16T04:25:33.000Z</time>
      </trkpt>
      <trkpt lat="45.23385" lon="5.75453">
        <ele>919</ele>
        <time>2021-10-16T04:25:34.000Z</time>
      </trkpt>
      <trkpt lat="45.23393" lon="5.75451">
        <ele>920</ele>
        <time>2021-10-16T04:25:40.000Z</time>
      </trkpt>
      <trkpt lat="45.23394" lon="5.75451">
        <ele>920.79998779297</ele>
        <time>2021-10-16T04:25:42.000Z</time>
      </trkpt>
      <trkpt lat="45.23396" lon="5.75452">
        <ele>921.40002441406</ele>
        <time>2021-10-16T04:25:44.000Z</time>
      </trkpt>
      <trkpt lat="45.23401" lon="5.75452">
        <ele>923</ele>
        <time>2021-10-16T04:25:49.000Z</time>
      </trkpt>
      <trkpt lat="45.23401" lon="5.75452">
        <ele>923</ele>
        <time>2021-10-16T04:25:50.000Z</time>
      </trkpt>
      <trkpt lat="45.23405" lon="5.7545">
        <ele>924</ele>
        <time>2021-10-16T04:25:53.000Z</time>
      </trkpt>
      <trkpt lat="45.23407" lon="5.75449">
        <ele>924.20001220703</ele>
        <time>2021-10-16T04:25:55.000Z</time>
      </trkpt>
      <trkpt lat="45.23409" lon="5.75448">
        <ele>924.20001220703</ele>
        <time>2021-10-16T04:25:57.000Z</time>
      </trkpt>
      <trkpt lat="45.2341" lon="5.75448">
        <ele>925.20001220703</ele>
        <time>2021-10-16T04:25:59.000Z</time>
      </trkpt>
      <trkpt lat="45.23411" lon="5.75448">
        <ele>925.59997558594</ele>
        <time>2021-10-16T04:26:00.000Z</time>
      </trkpt>
      <trkpt lat="45.23414" lon="5.75447">
        <ele>926</ele>
        <time>2021-10-16T04:26:02.000Z</time>
      </trkpt>
      <trkpt lat="45.23416" lon="5.75445">
        <ele>926.40002441406</ele>
        <time>2021-10-16T04:26:05.000Z</time>
      </trkpt>
      <trkpt lat="45.23419" lon="5.75446">
        <ele>927.59997558594</ele>
        <time>2021-10-16T04:26:08.000Z</time>
      </trkpt>
      <trkpt lat="45.23424" lon="5.75447">
        <ele>928</ele>
        <time>2021-10-16T04:26:10.000Z</time>
      </trkpt>
      <trkpt lat="45.23426" lon="5.75446">
        <ele>928.59997558594</ele>
        <time>2021-10-16T04:26:13.000Z</time>
      </trkpt>
      <trkpt lat="45.23427" lon="5.75447">
        <ele>929</ele>
        <time>2021-10-16T04:26:14.000Z</time>
      </trkpt>
      <trkpt lat="45.23429" lon="5.75448">
        <ele>929.59997558594</ele>
        <time>2021-10-16T04:26:15.000Z</time>
      </trkpt>
      <trkpt lat="45.23433" lon="5.7545">
        <ele>930.20001220703</ele>
        <time>2021-10-16T04:26:18.000Z</time>
      </trkpt>
      <trkpt lat="45.23437" lon="5.75451">
        <ele>931.20001220703</ele>
        <time>2021-10-16T04:26:21.000Z</time>
      </trkpt>
      <trkpt lat="45.23438" lon="5.75452">
        <ele>931.59997558594</ele>
        <time>2021-10-16T04:26:22.000Z</time>
      </trkpt>
      <trkpt lat="45.23443" lon="5.75453">
        <ele>932.40002441406</ele>
        <time>2021-10-16T04:26:27.000Z</time>
      </trkpt>
      <trkpt lat="45.23444" lon="5.75453">
        <ele>933</ele>
        <time>2021-10-16T04:26:28.000Z</time>
      </trkpt>
      <trkpt lat="45.23445" lon="5.75454">
        <ele>933</ele>
        <time>2021-10-16T04:26:29.000Z</time>
      </trkpt>
      <trkpt lat="45.23447" lon="5.75456">
        <ele>934</ele>
        <time>2021-10-16T04:26:31.000Z</time>
      </trkpt>
      <trkpt lat="45.23448" lon="5.75456">
        <ele>934.20001220703</ele>
        <time>2021-10-16T04:26:32.000Z</time>
      </trkpt>
      <trkpt lat="45.23449" lon="5.75455">
        <ele>934.20001220703</ele>
        <time>2021-10-16T04:26:33.000Z</time>
      </trkpt>
      <trkpt lat="45.23451" lon="5.75455">
        <ele>934.79998779297</ele>
        <time>2021-10-16T04:26:35.000Z</time>
      </trkpt>
      <trkpt lat="45.23452" lon="5.75455">
        <ele>935.40002441406</ele>
        <time>2021-10-16T04:26:36.000Z</time>
      </trkpt>
      <trkpt lat="45.23453" lon="5.75456">
        <ele>935.40002441406</ele>
        <time>2021-10-16T04:26:37.000Z</time>
      </trkpt>
      <trkpt lat="45.23458" lon="5.75456">
        <ele>935.79998779297</ele>
        <time>2021-10-16T04:26:40.000Z</time>
      </trkpt>
      <trkpt lat="45.2346" lon="5.75457">
        <ele>935.79998779297</ele>
        <time>2021-10-16T04:26:41.000Z</time>
      </trkpt>
      <trkpt lat="45.23463" lon="5.75457">
        <ele>936.59997558594</ele>
        <time>2021-10-16T04:26:43.000Z</time>
      </trkpt>
      <trkpt lat="45.23466" lon="5.75459">
        <ele>937.59997558594</ele>
        <time>2021-10-16T04:26:47.000Z</time>
      </trkpt>
      <trkpt lat="45.23468" lon="5.75459">
        <ele>938.20001220703</ele>
        <time>2021-10-16T04:26:49.000Z</time>
      </trkpt>
      <trkpt lat="45.23469" lon="5.75461">
        <ele>938.79998779297</ele>
        <time>2021-10-16T04:26:51.000Z</time>
      </trkpt>
      <trkpt lat="45.23472" lon="5.75462">
        <ele>939</ele>
        <time>2021-10-16T04:26:53.000Z</time>
      </trkpt>
      <trkpt lat="45.23476" lon="5.75462">
        <ele>939.79998779297</ele>
        <time>2021-10-16T04:26:55.000Z</time>
      </trkpt>
      <trkpt lat="45.23481" lon="5.7546">
        <ele>940.59997558594</ele>
        <time>2021-10-16T04:26:58.000Z</time>
      </trkpt>
      <trkpt lat="45.23483" lon="5.7546">
        <ele>941.20001220703</ele>
        <time>2021-10-16T04:26:59.000Z</time>
      </trkpt>
      <trkpt lat="45.23484" lon="5.7546">
        <ele>941.20001220703</ele>
        <time>2021-10-16T04:27:00.000Z</time>
      </trkpt>
      <trkpt lat="45.23484" lon="5.75463">
        <ele>941.40002441406</ele>
        <time>2021-10-16T04:27:02.000Z</time>
      </trkpt>
      <trkpt lat="45.23481" lon="5.75468">
        <ele>942.40002441406</ele>
        <time>2021-10-16T04:27:04.000Z</time>
      </trkpt>
      <trkpt lat="45.23479" lon="5.7547">
        <ele>943.59997558594</ele>
        <time>2021-10-16T04:27:07.000Z</time>
      </trkpt>
      <trkpt lat="45.23476" lon="5.75471">
        <ele>944.20001220703</ele>
        <time>2021-10-16T04:27:10.000Z</time>
      </trkpt>
      <trkpt lat="45.23475" lon="5.75473">
        <ele>944.40002441406</ele>
        <time>2021-10-16T04:27:12.000Z</time>
      </trkpt>
      <trkpt lat="45.23473" lon="5.75473">
        <ele>945.40002441406</ele>
        <time>2021-10-16T04:27:14.000Z</time>
      </trkpt>
      <trkpt lat="45.23472" lon="5.75474">
        <ele>945.40002441406</ele>
        <time>2021-10-16T04:27:15.000Z</time>
      </trkpt>
      <trkpt lat="45.2347" lon="5.75476">
        <ele>946</ele>
        <time>2021-10-16T04:27:17.000Z</time>
      </trkpt>
      <trkpt lat="45.23469" lon="5.75477">
        <ele>946.79998779297</ele>
        <time>2021-10-16T04:27:18.000Z</time>
      </trkpt>
      <trkpt lat="45.23467" lon="5.75478">
        <ele>946.79998779297</ele>
        <time>2021-10-16T04:27:19.000Z</time>
      </trkpt>
      <trkpt lat="45.23463" lon="5.7548">
        <ele>947.59997558594</ele>
        <time>2021-10-16T04:27:21.000Z</time>
      </trkpt>
      <trkpt lat="45.23462" lon="5.75482">
        <ele>948</ele>
        <time>2021-10-16T04:27:22.000Z</time>
      </trkpt>
      <trkpt lat="45.23461" lon="5.75484">
        <ele>948</ele>
        <time>2021-10-16T04:27:24.000Z</time>
      </trkpt>
      <trkpt lat="45.23462" lon="5.75489">
        <ele>949.40002441406</ele>
        <time>2021-10-16T04:27:28.000Z</time>
      </trkpt>
      <trkpt lat="45.23461" lon="5.75491">
        <ele>949.79998779297</ele>
        <time>2021-10-16T04:27:30.000Z</time>
      </trkpt>
      <trkpt lat="45.23457" lon="5.75492">
        <ele>950.59997558594</ele>
        <time>2021-10-16T04:27:32.000Z</time>
      </trkpt>
      <trkpt lat="45.23451" lon="5.75493">
        <ele>950.79998779297</ele>
        <time>2021-10-16T04:27:35.000Z</time>
      </trkpt>
      <trkpt lat="45.23444" lon="5.75493">
        <ele>952</ele>
        <time>2021-10-16T04:27:41.000Z</time>
      </trkpt>
      <trkpt lat="45.23442" lon="5.75493">
        <ele>952.40002441406</ele>
        <time>2021-10-16T04:27:43.000Z</time>
      </trkpt>
      <trkpt lat="45.23441" lon="5.75498">
        <ele>953.20001220703</ele>
        <time>2021-10-16T04:27:46.000Z</time>
      </trkpt>
      <trkpt lat="45.23437" lon="5.75501">
        <ele>954.20001220703</ele>
        <time>2021-10-16T04:27:50.000Z</time>
      </trkpt>
      <trkpt lat="45.23433" lon="5.75501">
        <ele>955.20001220703</ele>
        <time>2021-10-16T04:27:54.000Z</time>
      </trkpt>
      <trkpt lat="45.23431" lon="5.75503">
        <ele>955.79998779297</ele>
        <time>2021-10-16T04:27:56.000Z</time>
      </trkpt>
      <trkpt lat="45.23428" lon="5.75507">
        <ele>956.20001220703</ele>
        <time>2021-10-16T04:27:59.000Z</time>
      </trkpt>
      <trkpt lat="45.23427" lon="5.75508">
        <ele>956.40002441406</ele>
        <time>2021-10-16T04:28:00.000Z</time>
      </trkpt>
      <trkpt lat="45.23423" lon="5.75507">
        <ele>957.40002441406</ele>
        <time>2021-10-16T04:28:03.000Z</time>
      </trkpt>
      <trkpt lat="45.23422" lon="5.75509">
        <ele>957.40002441406</ele>
        <time>2021-10-16T04:28:04.000Z</time>
      </trkpt>
      <trkpt lat="45.2342" lon="5.75512">
        <ele>957.40002441406</ele>
        <time>2021-10-16T04:28:05.000Z</time>
      </trkpt>
      <trkpt lat="45.23419" lon="5.75514">
        <ele>958.20001220703</ele>
        <time>2021-10-16T04:28:07.000Z</time>
      </trkpt>
      <trkpt lat="45.23418" lon="5.75514">
        <ele>958.20001220703</ele>
        <time>2021-10-16T04:28:08.000Z</time>
      </trkpt>
      <trkpt lat="45.23416" lon="5.75514">
        <ele>958.59997558594</ele>
        <time>2021-10-16T04:28:09.000Z</time>
      </trkpt>
      <trkpt lat="45.23414" lon="5.75514">
        <ele>959</ele>
        <time>2021-10-16T04:28:11.000Z</time>
      </trkpt>
      <trkpt lat="45.23411" lon="5.75515">
        <ele>959.79998779297</ele>
        <time>2021-10-16T04:28:14.000Z</time>
      </trkpt>
      <trkpt lat="45.23409" lon="5.75516">
        <ele>960.59997558594</ele>
        <time>2021-10-16T04:28:16.000Z</time>
      </trkpt>
      <trkpt lat="45.23408" lon="5.75517">
        <ele>960.79998779297</ele>
        <time>2021-10-16T04:28:17.000Z</time>
      </trkpt>
      <trkpt lat="45.23408" lon="5.75519">
        <ele>961</ele>
        <time>2021-10-16T04:28:18.000Z</time>
      </trkpt>
      <trkpt lat="45.23403" lon="5.75525">
        <ele>962</ele>
        <time>2021-10-16T04:28:22.000Z</time>
      </trkpt>
      <trkpt lat="45.23401" lon="5.75524">
        <ele>962.20001220703</ele>
        <time>2021-10-16T04:28:23.000Z</time>
      </trkpt>
      <trkpt lat="45.23396" lon="5.75526">
        <ele>963.40002441406</ele>
        <time>2021-10-16T04:28:27.000Z</time>
      </trkpt>
      <trkpt lat="45.23394" lon="5.75527">
        <ele>963.59997558594</ele>
        <time>2021-10-16T04:28:28.000Z</time>
      </trkpt>
      <trkpt lat="45.23392" lon="5.7553">
        <ele>964.40002441406</ele>
        <time>2021-10-16T04:28:31.000Z</time>
      </trkpt>
      <trkpt lat="45.23391" lon="5.75531">
        <ele>965</ele>
        <time>2021-10-16T04:28:33.000Z</time>
      </trkpt>
      <trkpt lat="45.2339" lon="5.75531">
        <ele>965.59997558594</ele>
        <time>2021-10-16T04:28:35.000Z</time>
      </trkpt>
      <trkpt lat="45.23389" lon="5.75535">
        <ele>966</ele>
        <time>2021-10-16T04:28:38.000Z</time>
      </trkpt>
      <trkpt lat="45.23387" lon="5.75537">
        <ele>966.59997558594</ele>
        <time>2021-10-16T04:28:40.000Z</time>
      </trkpt>
      <trkpt lat="45.23384" lon="5.75538">
        <ele>967.40002441406</ele>
        <time>2021-10-16T04:28:43.000Z</time>
      </trkpt>
      <trkpt lat="45.23384" lon="5.7554">
        <ele>967.79998779297</ele>
        <time>2021-10-16T04:28:44.000Z</time>
      </trkpt>
      <trkpt lat="45.23382" lon="5.75546">
        <ele>968.59997558594</ele>
        <time>2021-10-16T04:28:48.000Z</time>
      </trkpt>
      <trkpt lat="45.2338" lon="5.75546">
        <ele>969</ele>
        <time>2021-10-16T04:28:49.000Z</time>
      </trkpt>
      <trkpt lat="45.23379" lon="5.75546">
        <ele>969.20001220703</ele>
        <time>2021-10-16T04:28:50.000Z</time>
      </trkpt>
      <trkpt lat="45.23374" lon="5.75551">
        <ele>970</ele>
        <time>2021-10-16T04:28:54.000Z</time>
      </trkpt>
      <trkpt lat="45.23369" lon="5.75551">
        <ele>971.20001220703</ele>
        <time>2021-10-16T04:28:57.000Z</time>
      </trkpt>
      <trkpt lat="45.23367" lon="5.75554">
        <ele>971.59997558594</ele>
        <time>2021-10-16T04:28:59.000Z</time>
      </trkpt>
      <trkpt lat="45.23366" lon="5.75556">
        <ele>972.20001220703</ele>
        <time>2021-10-16T04:29:01.000Z</time>
      </trkpt>
      <trkpt lat="45.23365" lon="5.75558">
        <ele>972.20001220703</ele>
        <time>2021-10-16T04:29:02.000Z</time>
      </trkpt>
      <trkpt lat="45.23364" lon="5.75559">
        <ele>972.79998779297</ele>
        <time>2021-10-16T04:29:03.000Z</time>
      </trkpt>
      <trkpt lat="45.23362" lon="5.75562">
        <ele>973.40002441406</ele>
        <time>2021-10-16T04:29:05.000Z</time>
      </trkpt>
      <trkpt lat="45.2336" lon="5.75565">
        <ele>974</ele>
        <time>2021-10-16T04:29:08.000Z</time>
      </trkpt>
      <trkpt lat="45.23358" lon="5.75566">
        <ele>974.40002441406</ele>
        <time>2021-10-16T04:29:09.000Z</time>
      </trkpt>
      <trkpt lat="45.23356" lon="5.75569">
        <ele>975.20001220703</ele>
        <time>2021-10-16T04:29:11.000Z</time>
      </trkpt>
      <trkpt lat="45.23354" lon="5.75573">
        <ele>975.59997558594</ele>
        <time>2021-10-16T04:29:13.000Z</time>
      </trkpt>
      <trkpt lat="45.23354" lon="5.75574">
        <ele>975.59997558594</ele>
        <time>2021-10-16T04:29:14.000Z</time>
      </trkpt>
      <trkpt lat="45.23352" lon="5.75574">
        <ele>976.20001220703</ele>
        <time>2021-10-16T04:29:15.000Z</time>
      </trkpt>
      <trkpt lat="45.2335" lon="5.75575">
        <ele>977</ele>
        <time>2021-10-16T04:29:17.000Z</time>
      </trkpt>
      <trkpt lat="45.23348" lon="5.75577">
        <ele>977.20001220703</ele>
        <time>2021-10-16T04:29:19.000Z</time>
      </trkpt>
      <trkpt lat="45.23348" lon="5.75578">
        <ele>977.40002441406</ele>
        <time>2021-10-16T04:29:20.000Z</time>
      </trkpt>
      <trkpt lat="45.23347" lon="5.75579">
        <ele>977.79998779297</ele>
        <time>2021-10-16T04:29:21.000Z</time>
      </trkpt>
      <trkpt lat="45.23346" lon="5.75579">
        <ele>978.20001220703</ele>
        <time>2021-10-16T04:29:22.000Z</time>
      </trkpt>
      <trkpt lat="45.23344" lon="5.75584">
        <ele>979</ele>
        <time>2021-10-16T04:29:25.000Z</time>
      </trkpt>
      <trkpt lat="45.23343" lon="5.75585">
        <ele>979</ele>
        <time>2021-10-16T04:29:26.000Z</time>
      </trkpt>
      <trkpt lat="45.23343" lon="5.75587">
        <ele>979.20001220703</ele>
        <time>2021-10-16T04:29:27.000Z</time>
      </trkpt>
      <trkpt lat="45.23338" lon="5.75595">
        <ele>980.59997558594</ele>
        <time>2021-10-16T04:29:33.000Z</time>
      </trkpt>
      <trkpt lat="45.23338" lon="5.75596">
        <ele>981.20001220703</ele>
        <time>2021-10-16T04:29:34.000Z</time>
      </trkpt>
      <trkpt lat="45.23339" lon="5.75594">
        <ele>982</ele>
        <time>2021-10-16T04:29:37.000Z</time>
      </trkpt>
      <trkpt lat="45.2334" lon="5.75591">
        <ele>982.20001220703</ele>
        <time>2021-10-16T04:29:39.000Z</time>
      </trkpt>
      <trkpt lat="45.23341" lon="5.75591">
        <ele>982.40002441406</ele>
        <time>2021-10-16T04:29:40.000Z</time>
      </trkpt>
      <trkpt lat="45.23341" lon="5.75589">
        <ele>983</ele>
        <time>2021-10-16T04:29:41.000Z</time>
      </trkpt>
      <trkpt lat="45.23344" lon="5.75588">
        <ele>983.79998779297</ele>
        <time>2021-10-16T04:29:44.000Z</time>
      </trkpt>
      <trkpt lat="45.23346" lon="5.75587">
        <ele>984</ele>
        <time>2021-10-16T04:29:45.000Z</time>
      </trkpt>
      <trkpt lat="45.23346" lon="5.75585">
        <ele>984.59997558594</ele>
        <time>2021-10-16T04:29:47.000Z</time>
      </trkpt>
      <trkpt lat="45.23348" lon="5.75584">
        <ele>984.79998779297</ele>
        <time>2021-10-16T04:29:49.000Z</time>
      </trkpt>
      <trkpt lat="45.2335" lon="5.75583">
        <ele>985.40002441406</ele>
        <time>2021-10-16T04:29:51.000Z</time>
      </trkpt>
      <trkpt lat="45.23349" lon="5.75582">
        <ele>985.59997558594</ele>
        <time>2021-10-16T04:29:52.000Z</time>
      </trkpt>
      <trkpt lat="45.2335" lon="5.75581">
        <ele>985.79998779297</ele>
        <time>2021-10-16T04:29:53.000Z</time>
      </trkpt>
      <trkpt lat="45.23352" lon="5.75578">
        <ele>986.40002441406</ele>
        <time>2021-10-16T04:29:55.000Z</time>
      </trkpt>
      <trkpt lat="45.23353" lon="5.75578">
        <ele>987</ele>
        <time>2021-10-16T04:29:57.000Z</time>
      </trkpt>
      <trkpt lat="45.23354" lon="5.75577">
        <ele>987.20001220703</ele>
        <time>2021-10-16T04:29:58.000Z</time>
      </trkpt>
      <trkpt lat="45.23358" lon="5.75574">
        <ele>987.79998779297</ele>
        <time>2021-10-16T04:30:02.000Z</time>
      </trkpt>
      <trkpt lat="45.23361" lon="5.75574">
        <ele>988.59997558594</ele>
        <time>2021-10-16T04:30:04.000Z</time>
      </trkpt>
      <trkpt lat="45.23362" lon="5.75574">
        <ele>988.79998779297</ele>
        <time>2021-10-16T04:30:05.000Z</time>
      </trkpt>
      <trkpt lat="45.23367" lon="5.75576">
        <ele>989.40002441406</ele>
        <time>2021-10-16T04:30:09.000Z</time>
      </trkpt>
      <trkpt lat="45.23368" lon="5.75577">
        <ele>989.40002441406</ele>
        <time>2021-10-16T04:30:10.000Z</time>
      </trkpt>
      <trkpt lat="45.23369" lon="5.75576">
        <ele>990</ele>
        <time>2021-10-16T04:30:11.000Z</time>
      </trkpt>
      <trkpt lat="45.23373" lon="5.75575">
        <ele>991</ele>
        <time>2021-10-16T04:30:14.000Z</time>
      </trkpt>
      <trkpt lat="45.23376" lon="5.75575">
        <ele>991.40002441406</ele>
        <time>2021-10-16T04:30:16.000Z</time>
      </trkpt>
      <trkpt lat="45.23377" lon="5.75575">
        <ele>991.40002441406</ele>
        <time>2021-10-16T04:30:17.000Z</time>
      </trkpt>
      <trkpt lat="45.2338" lon="5.75575">
        <ele>992</ele>
        <time>2021-10-16T04:30:20.000Z</time>
      </trkpt>
      <trkpt lat="45.23385" lon="5.75572">
        <ele>993</ele>
        <time>2021-10-16T04:30:23.000Z</time>
      </trkpt>
      <trkpt lat="45.23386" lon="5.75572">
        <ele>993.20001220703</ele>
        <time>2021-10-16T04:30:24.000Z</time>
      </trkpt>
      <trkpt lat="45.23392" lon="5.75568">
        <ele>994.59997558594</ele>
        <time>2021-10-16T04:30:29.000Z</time>
      </trkpt>
      <trkpt lat="45.23393" lon="5.75568">
        <ele>994.79998779297</ele>
        <time>2021-10-16T04:30:30.000Z</time>
      </trkpt>
      <trkpt lat="45.23394" lon="5.75569">
        <ele>995</ele>
        <time>2021-10-16T04:30:31.000Z</time>
      </trkpt>
      <trkpt lat="45.23395" lon="5.75569">
        <ele>995.40002441406</ele>
        <time>2021-10-16T04:30:32.000Z</time>
      </trkpt>
      <trkpt lat="45.23398" lon="5.75568">
        <ele>995.79998779297</ele>
        <time>2021-10-16T04:30:34.000Z</time>
      </trkpt>
      <trkpt lat="45.23402" lon="5.75566">
        <ele>997</ele>
        <time>2021-10-16T04:30:37.000Z</time>
      </trkpt>
      <trkpt lat="45.23407" lon="5.75564">
        <ele>997.59997558594</ele>
        <time>2021-10-16T04:30:41.000Z</time>
      </trkpt>
      <trkpt lat="45.23409" lon="5.75563">
        <ele>998</ele>
        <time>2021-10-16T04:30:43.000Z</time>
      </trkpt>
      <trkpt lat="45.23414" lon="5.75565">
        <ele>999</ele>
        <time>2021-10-16T04:30:48.000Z</time>
      </trkpt>
      <trkpt lat="45.23417" lon="5.75567">
        <ele>999.59997558594</ele>
        <time>2021-10-16T04:30:50.000Z</time>
      </trkpt>
      <trkpt lat="45.23418" lon="5.75567">
        <ele>1000.4000244141</ele>
        <time>2021-10-16T04:30:52.000Z</time>
      </trkpt>
      <trkpt lat="45.23422" lon="5.75569">
        <ele>1001.4000244141</ele>
        <time>2021-10-16T04:30:55.000Z</time>
      </trkpt>
      <trkpt lat="45.23423" lon="5.7557">
        <ele>1001.5999755859</ele>
        <time>2021-10-16T04:30:56.000Z</time>
      </trkpt>
      <trkpt lat="45.23428" lon="5.7557">
        <ele>1002.5999755859</ele>
        <time>2021-10-16T04:31:00.000Z</time>
      </trkpt>
      <trkpt lat="45.23429" lon="5.75569">
        <ele>1003.4000244141</ele>
        <time>2021-10-16T04:31:02.000Z</time>
      </trkpt>
      <trkpt lat="45.23432" lon="5.75569">
        <ele>1003.799987793</ele>
        <time>2021-10-16T04:31:05.000Z</time>
      </trkpt>
      <trkpt lat="45.23438" lon="5.75569">
        <ele>1004.799987793</ele>
        <time>2021-10-16T04:31:09.000Z</time>
      </trkpt>
      <trkpt lat="45.23442" lon="5.75568">
        <ele>1005.200012207</ele>
        <time>2021-10-16T04:31:13.000Z</time>
      </trkpt>
      <trkpt lat="45.23444" lon="5.75568">
        <ele>1006.4000244141</ele>
        <time>2021-10-16T04:31:15.000Z</time>
      </trkpt>
      <trkpt lat="45.23445" lon="5.75567">
        <ele>1006.4000244141</ele>
        <time>2021-10-16T04:31:16.000Z</time>
      </trkpt>
      <trkpt lat="45.23447" lon="5.75566">
        <ele>1007</ele>
        <time>2021-10-16T04:31:19.000Z</time>
      </trkpt>
      <trkpt lat="45.23449" lon="5.75566">
        <ele>1007.5999755859</ele>
        <time>2021-10-16T04:31:21.000Z</time>
      </trkpt>
      <trkpt lat="45.23453" lon="5.75567">
        <ele>1009</ele>
        <time>2021-10-16T04:31:25.000Z</time>
      </trkpt>
      <trkpt lat="45.23454" lon="5.75568">
        <ele>1009.200012207</ele>
        <time>2021-10-16T04:31:26.000Z</time>
      </trkpt>
      <trkpt lat="45.23461" lon="5.75567">
        <ele>1010.200012207</ele>
        <time>2021-10-16T04:31:32.000Z</time>
      </trkpt>
      <trkpt lat="45.23462" lon="5.75568">
        <ele>1010.799987793</ele>
        <time>2021-10-16T04:31:33.000Z</time>
      </trkpt>
      <trkpt lat="45.23466" lon="5.75568">
        <ele>1011.200012207</ele>
        <time>2021-10-16T04:31:35.000Z</time>
      </trkpt>
      <trkpt lat="45.2347" lon="5.75573">
        <ele>1011.799987793</ele>
        <time>2021-10-16T04:31:39.000Z</time>
      </trkpt>
      <trkpt lat="45.23471" lon="5.75573">
        <ele>1011.799987793</ele>
        <time>2021-10-16T04:31:40.000Z</time>
      </trkpt>
      <trkpt lat="45.23473" lon="5.75574">
        <ele>1012.799987793</ele>
        <time>2021-10-16T04:31:41.000Z</time>
      </trkpt>
      <trkpt lat="45.23476" lon="5.75575">
        <ele>1013.4000244141</ele>
        <time>2021-10-16T04:31:43.000Z</time>
      </trkpt>
      <trkpt lat="45.23477" lon="5.75575">
        <ele>1014</ele>
        <time>2021-10-16T04:31:44.000Z</time>
      </trkpt>
      <trkpt lat="45.23478" lon="5.75577">
        <ele>1014.4000244141</ele>
        <time>2021-10-16T04:31:46.000Z</time>
      </trkpt>
      <trkpt lat="45.23481" lon="5.75577">
        <ele>1015</ele>
        <time>2021-10-16T04:31:49.000Z</time>
      </trkpt>
      <trkpt lat="45.23482" lon="5.75577">
        <ele>1015.200012207</ele>
        <time>2021-10-16T04:31:51.000Z</time>
      </trkpt>
      <trkpt lat="45.23484" lon="5.75575">
        <ele>1015.799987793</ele>
        <time>2021-10-16T04:31:53.000Z</time>
      </trkpt>
      <trkpt lat="45.23486" lon="5.75574">
        <ele>1015.799987793</ele>
        <time>2021-10-16T04:31:55.000Z</time>
      </trkpt>
      <trkpt lat="45.23487" lon="5.75574">
        <ele>1016.200012207</ele>
        <time>2021-10-16T04:31:56.000Z</time>
      </trkpt>
      <trkpt lat="45.23489" lon="5.75572">
        <ele>1016.799987793</ele>
        <time>2021-10-16T04:31:58.000Z</time>
      </trkpt>
      <trkpt lat="45.2349" lon="5.75572">
        <ele>1017.4000244141</ele>
        <time>2021-10-16T04:31:59.000Z</time>
      </trkpt>
      <trkpt lat="45.23493" lon="5.75574">
        <ele>1017.4000244141</ele>
        <time>2021-10-16T04:32:01.000Z</time>
      </trkpt>
      <trkpt lat="45.23497" lon="5.75576">
        <ele>1018.799987793</ele>
        <time>2021-10-16T04:32:05.000Z</time>
      </trkpt>
      <trkpt lat="45.23499" lon="5.75576">
        <ele>1019</ele>
        <time>2021-10-16T04:32:06.000Z</time>
      </trkpt>
      <trkpt lat="45.235" lon="5.75576">
        <ele>1019.200012207</ele>
        <time>2021-10-16T04:32:07.000Z</time>
      </trkpt>
      <trkpt lat="45.23501" lon="5.75575">
        <ele>1019.4000244141</ele>
        <time>2021-10-16T04:32:09.000Z</time>
      </trkpt>
      <trkpt lat="45.23502" lon="5.75576">
        <ele>1019.799987793</ele>
        <time>2021-10-16T04:32:10.000Z</time>
      </trkpt>
      <trkpt lat="45.23505" lon="5.7558">
        <ele>1021.200012207</ele>
        <time>2021-10-16T04:32:13.000Z</time>
      </trkpt>
      <trkpt lat="45.23507" lon="5.75582">
        <ele>1022</ele>
        <time>2021-10-16T04:32:15.000Z</time>
      </trkpt>
      <trkpt lat="45.2351" lon="5.75585">
        <ele>1022.200012207</ele>
        <time>2021-10-16T04:32:17.000Z</time>
      </trkpt>
      <trkpt lat="45.23514" lon="5.75588">
        <ele>1023.200012207</ele>
        <time>2021-10-16T04:32:20.000Z</time>
      </trkpt>
      <trkpt lat="45.23516" lon="5.75588">
        <ele>1023.200012207</ele>
        <time>2021-10-16T04:32:21.000Z</time>
      </trkpt>
      <trkpt lat="45.2352" lon="5.75588">
        <ele>1024</ele>
        <time>2021-10-16T04:32:25.000Z</time>
      </trkpt>
      <trkpt lat="45.23522" lon="5.75588">
        <ele>1024.4000244141</ele>
        <time>2021-10-16T04:32:27.000Z</time>
      </trkpt>
      <trkpt lat="45.23524" lon="5.75589">
        <ele>1025</ele>
        <time>2021-10-16T04:32:29.000Z</time>
      </trkpt>
      <trkpt lat="45.23527" lon="5.75591">
        <ele>1025.4000244141</ele>
        <time>2021-10-16T04:32:32.000Z</time>
      </trkpt>
      <trkpt lat="45.23529" lon="5.75592">
        <ele>1025.5999755859</ele>
        <time>2021-10-16T04:32:33.000Z</time>
      </trkpt>
      <trkpt lat="45.23529" lon="5.75593">
        <ele>1026.1999511719</ele>
        <time>2021-10-16T04:32:34.000Z</time>
      </trkpt>
      <trkpt lat="45.23528" lon="5.75597">
        <ele>1026.8000488281</ele>
        <time>2021-10-16T04:32:36.000Z</time>
      </trkpt>
      <trkpt lat="45.23528" lon="5.75599">
        <ele>1027.4000244141</ele>
        <time>2021-10-16T04:32:37.000Z</time>
      </trkpt>
      <trkpt lat="45.23524" lon="5.756">
        <ele>1028</ele>
        <time>2021-10-16T04:32:40.000Z</time>
      </trkpt>
      <trkpt lat="45.2352" lon="5.75603">
        <ele>1029</ele>
        <time>2021-10-16T04:32:44.000Z</time>
      </trkpt>
      <trkpt lat="45.23519" lon="5.75603">
        <ele>1029.4000244141</ele>
        <time>2021-10-16T04:32:45.000Z</time>
      </trkpt>
      <trkpt lat="45.23516" lon="5.75604">
        <ele>1030</ele>
        <time>2021-10-16T04:32:48.000Z</time>
      </trkpt>
      <trkpt lat="45.23516" lon="5.75606">
        <ele>1030.1999511719</ele>
        <time>2021-10-16T04:32:50.000Z</time>
      </trkpt>
      <trkpt lat="45.23515" lon="5.75608">
        <ele>1030.8000488281</ele>
        <time>2021-10-16T04:32:51.000Z</time>
      </trkpt>
      <trkpt lat="45.23513" lon="5.75609">
        <ele>1031.5999755859</ele>
        <time>2021-10-16T04:32:53.000Z</time>
      </trkpt>
      <trkpt lat="45.23511" lon="5.7561">
        <ele>1031.5999755859</ele>
        <time>2021-10-16T04:32:54.000Z</time>
      </trkpt>
      <trkpt lat="45.23509" lon="5.75613">
        <ele>1032.4000244141</ele>
        <time>2021-10-16T04:32:57.000Z</time>
      </trkpt>
      <trkpt lat="45.23508" lon="5.75614">
        <ele>1032.8000488281</ele>
        <time>2021-10-16T04:32:59.000Z</time>
      </trkpt>
      <trkpt lat="45.23505" lon="5.75612">
        <ele>1034</ele>
        <time>2021-10-16T04:33:03.000Z</time>
      </trkpt>
      <trkpt lat="45.23498" lon="5.75612">
        <ele>1034.8000488281</ele>
        <time>2021-10-16T04:33:09.000Z</time>
      </trkpt>
      <trkpt lat="45.23496" lon="5.75612">
        <ele>1035.4000244141</ele>
        <time>2021-10-16T04:33:11.000Z</time>
      </trkpt>
      <trkpt lat="45.23492" lon="5.75613">
        <ele>1036.5999755859</ele>
        <time>2021-10-16T04:33:15.000Z</time>
      </trkpt>
      <trkpt lat="45.23491" lon="5.75614">
        <ele>1036.8000488281</ele>
        <time>2021-10-16T04:33:16.000Z</time>
      </trkpt>
      <trkpt lat="45.23487" lon="5.75617">
        <ele>1037.8000488281</ele>
        <time>2021-10-16T04:33:21.000Z</time>
      </trkpt>
      <trkpt lat="45.23482" lon="5.7562">
        <ele>1039</ele>
        <time>2021-10-16T04:33:25.000Z</time>
      </trkpt>
      <trkpt lat="45.23479" lon="5.75624">
        <ele>1040</ele>
        <time>2021-10-16T04:33:28.000Z</time>
      </trkpt>
      <trkpt lat="45.23477" lon="5.75624">
        <ele>1040.1999511719</ele>
        <time>2021-10-16T04:33:30.000Z</time>
      </trkpt>
      <trkpt lat="45.23474" lon="5.75625">
        <ele>1041.4000244141</ele>
        <time>2021-10-16T04:33:33.000Z</time>
      </trkpt>
      <trkpt lat="45.2347" lon="5.75625">
        <ele>1042.5999755859</ele>
        <time>2021-10-16T04:33:38.000Z</time>
      </trkpt>
      <trkpt lat="45.23469" lon="5.75626">
        <ele>1042.5999755859</ele>
        <time>2021-10-16T04:33:39.000Z</time>
      </trkpt>
      <trkpt lat="45.23466" lon="5.75626">
        <ele>1043</ele>
        <time>2021-10-16T04:33:41.000Z</time>
      </trkpt>
      <trkpt lat="45.23465" lon="5.75627">
        <ele>1043.5999755859</ele>
        <time>2021-10-16T04:33:44.000Z</time>
      </trkpt>
      <trkpt lat="45.23464" lon="5.75628">
        <ele>1043.8000488281</ele>
        <time>2021-10-16T04:33:45.000Z</time>
      </trkpt>
      <trkpt lat="45.23461" lon="5.7563">
        <ele>1044.5999755859</ele>
        <time>2021-10-16T04:33:48.000Z</time>
      </trkpt>
      <trkpt lat="45.2346" lon="5.75631">
        <ele>1044.5999755859</ele>
        <time>2021-10-16T04:33:49.000Z</time>
      </trkpt>
      <trkpt lat="45.23459" lon="5.75632">
        <ele>1044.8000488281</ele>
        <time>2021-10-16T04:33:50.000Z</time>
      </trkpt>
      <trkpt lat="45.23457" lon="5.75633">
        <ele>1045.4000244141</ele>
        <time>2021-10-16T04:33:52.000Z</time>
      </trkpt>
      <trkpt lat="45.23456" lon="5.75635">
        <ele>1046.1999511719</ele>
        <time>2021-10-16T04:33:54.000Z</time>
      </trkpt>
      <trkpt lat="45.23455" lon="5.75636">
        <ele>1046.4000244141</ele>
        <time>2021-10-16T04:33:55.000Z</time>
      </trkpt>
      <trkpt lat="45.23455" lon="5.75637">
        <ele>1046.5999755859</ele>
        <time>2021-10-16T04:33:56.000Z</time>
      </trkpt>
      <trkpt lat="45.23451" lon="5.75639">
        <ele>1047.4000244141</ele>
        <time>2021-10-16T04:33:59.000Z</time>
      </trkpt>
      <trkpt lat="45.2345" lon="5.75639">
        <ele>1047.8000488281</ele>
        <time>2021-10-16T04:34:00.000Z</time>
      </trkpt>
      <trkpt lat="45.23448" lon="5.75639">
        <ele>1048.1999511719</ele>
        <time>2021-10-16T04:34:01.000Z</time>
      </trkpt>
      <trkpt lat="45.23445" lon="5.7564">
        <ele>1048.8000488281</ele>
        <time>2021-10-16T04:34:03.000Z</time>
      </trkpt>
      <trkpt lat="45.23442" lon="5.75641">
        <ele>1049</ele>
        <time>2021-10-16T04:34:05.000Z</time>
      </trkpt>
      <trkpt lat="45.23441" lon="5.75642">
        <ele>1049.5999755859</ele>
        <time>2021-10-16T04:34:07.000Z</time>
      </trkpt>
      <trkpt lat="45.2344" lon="5.75643">
        <ele>1049.8000488281</ele>
        <time>2021-10-16T04:34:08.000Z</time>
      </trkpt>
      <trkpt lat="45.23437" lon="5.75646">
        <ele>1050.1999511719</ele>
        <time>2021-10-16T04:34:10.000Z</time>
      </trkpt>
      <trkpt lat="45.23435" lon="5.75647">
        <ele>1050.5999755859</ele>
        <time>2021-10-16T04:34:12.000Z</time>
      </trkpt>
      <trkpt lat="45.23433" lon="5.75649">
        <ele>1051.1999511719</ele>
        <time>2021-10-16T04:34:15.000Z</time>
      </trkpt>
      <trkpt lat="45.23432" lon="5.75649">
        <ele>1051.5999755859</ele>
        <time>2021-10-16T04:34:16.000Z</time>
      </trkpt>
      <trkpt lat="45.2343" lon="5.75649">
        <ele>1051.8000488281</ele>
        <time>2021-10-16T04:34:17.000Z</time>
      </trkpt>
      <trkpt lat="45.23428" lon="5.75651">
        <ele>1052.1999511719</ele>
        <time>2021-10-16T04:34:19.000Z</time>
      </trkpt>
      <trkpt lat="45.23427" lon="5.75652">
        <ele>1052.4000244141</ele>
        <time>2021-10-16T04:34:20.000Z</time>
      </trkpt>
      <trkpt lat="45.23425" lon="5.75655">
        <ele>1053.5999755859</ele>
        <time>2021-10-16T04:34:25.000Z</time>
      </trkpt>
      <trkpt lat="45.23424" lon="5.75657">
        <ele>1054</ele>
        <time>2021-10-16T04:34:26.000Z</time>
      </trkpt>
      <trkpt lat="45.23422" lon="5.75658">
        <ele>1054.4000244141</ele>
        <time>2021-10-16T04:34:28.000Z</time>
      </trkpt>
      <trkpt lat="45.2342" lon="5.7566">
        <ele>1054.5999755859</ele>
        <time>2021-10-16T04:34:30.000Z</time>
      </trkpt>
      <trkpt lat="45.2342" lon="5.75667">
        <ele>1055.5999755859</ele>
        <time>2021-10-16T04:34:33.000Z</time>
      </trkpt>
      <trkpt lat="45.2342" lon="5.75669">
        <ele>1055.5999755859</ele>
        <time>2021-10-16T04:34:34.000Z</time>
      </trkpt>
      <trkpt lat="45.23417" lon="5.75674">
        <ele>1056.8000488281</ele>
        <time>2021-10-16T04:34:39.000Z</time>
      </trkpt>
      <trkpt lat="45.23413" lon="5.7568">
        <ele>1057.8000488281</ele>
        <time>2021-10-16T04:34:44.000Z</time>
      </trkpt>
      <trkpt lat="45.23413" lon="5.75681">
        <ele>1058.1999511719</ele>
        <time>2021-10-16T04:34:45.000Z</time>
      </trkpt>
      <trkpt lat="45.23413" lon="5.75683">
        <ele>1058.1999511719</ele>
        <time>2021-10-16T04:34:46.000Z</time>
      </trkpt>
      <trkpt lat="45.23412" lon="5.75687">
        <ele>1058.8000488281</ele>
        <time>2021-10-16T04:34:48.000Z</time>
      </trkpt>
      <trkpt lat="45.23411" lon="5.75688">
        <ele>1059.1999511719</ele>
        <time>2021-10-16T04:34:49.000Z</time>
      </trkpt>
      <trkpt lat="45.2341" lon="5.75694">
        <ele>1060.1999511719</ele>
        <time>2021-10-16T04:34:53.000Z</time>
      </trkpt>
      <trkpt lat="45.23409" lon="5.75699">
        <ele>1061.1999511719</ele>
        <time>2021-10-16T04:34:56.000Z</time>
      </trkpt>
      <trkpt lat="45.23408" lon="5.75699">
        <ele>1061.5999755859</ele>
        <time>2021-10-16T04:34:57.000Z</time>
      </trkpt>
      <trkpt lat="45.23407" lon="5.75705">
        <ele>1062.1999511719</ele>
        <time>2021-10-16T04:35:01.000Z</time>
      </trkpt>
      <trkpt lat="45.23406" lon="5.75706">
        <ele>1062.5999755859</ele>
        <time>2021-10-16T04:35:02.000Z</time>
      </trkpt>
      <trkpt lat="45.23402" lon="5.75712">
        <ele>1063.8000488281</ele>
        <time>2021-10-16T04:35:06.000Z</time>
      </trkpt>
      <trkpt lat="45.23401" lon="5.75714">
        <ele>1063.8000488281</ele>
        <time>2021-10-16T04:35:07.000Z</time>
      </trkpt>
      <trkpt lat="45.234" lon="5.75722">
        <ele>1065</ele>
        <time>2021-10-16T04:35:11.000Z</time>
      </trkpt>
      <trkpt lat="45.23399" lon="5.75723">
        <ele>1065</ele>
        <time>2021-10-16T04:35:12.000Z</time>
      </trkpt>
      <trkpt lat="45.23398" lon="5.75725">
        <ele>1065.1999511719</ele>
        <time>2021-10-16T04:35:14.000Z</time>
      </trkpt>
      <trkpt lat="45.23398" lon="5.75727">
        <ele>1066</ele>
        <time>2021-10-16T04:35:16.000Z</time>
      </trkpt>
      <trkpt lat="45.23399" lon="5.75727">
        <ele>1066.4000244141</ele>
        <time>2021-10-16T04:35:17.000Z</time>
      </trkpt>
      <trkpt lat="45.23399" lon="5.75725">
        <ele>1067</ele>
        <time>2021-10-16T04:35:19.000Z</time>
      </trkpt>
      <trkpt lat="45.23399" lon="5.75723">
        <ele>1067.5999755859</ele>
        <time>2021-10-16T04:35:21.000Z</time>
      </trkpt>
      <trkpt lat="45.23401" lon="5.75722">
        <ele>1068.1999511719</ele>
        <time>2021-10-16T04:35:23.000Z</time>
      </trkpt>
      <trkpt lat="45.23401" lon="5.75721">
        <ele>1068.4000244141</ele>
        <time>2021-10-16T04:35:24.000Z</time>
      </trkpt>
      <trkpt lat="45.23403" lon="5.7572">
        <ele>1068.5999755859</ele>
        <time>2021-10-16T04:35:26.000Z</time>
      </trkpt>
      <trkpt lat="45.23404" lon="5.75719">
        <ele>1068.8000488281</ele>
        <time>2021-10-16T04:35:28.000Z</time>
      </trkpt>
      <trkpt lat="45.23405" lon="5.75716">
        <ele>1070</ele>
        <time>2021-10-16T04:35:30.000Z</time>
      </trkpt>
      <trkpt lat="45.23409" lon="5.75712">
        <ele>1070.4000244141</ele>
        <time>2021-10-16T04:35:34.000Z</time>
      </trkpt>
      <trkpt lat="45.23411" lon="5.75711">
        <ele>1071</ele>
        <time>2021-10-16T04:35:36.000Z</time>
      </trkpt>
      <trkpt lat="45.23413" lon="5.75707">
        <ele>1072.1999511719</ele>
        <time>2021-10-16T04:35:40.000Z</time>
      </trkpt>
      <trkpt lat="45.23414" lon="5.75706">
        <ele>1072.5999755859</ele>
        <time>2021-10-16T04:35:42.000Z</time>
      </trkpt>
      <trkpt lat="45.23415" lon="5.757">
        <ele>1073.1999511719</ele>
        <time>2021-10-16T04:35:45.000Z</time>
      </trkpt>
      <trkpt lat="45.23421" lon="5.75695">
        <ele>1074</ele>
        <time>2021-10-16T04:35:50.000Z</time>
      </trkpt>
      <trkpt lat="45.23423" lon="5.75692">
        <ele>1074.8000488281</ele>
        <time>2021-10-16T04:35:53.000Z</time>
      </trkpt>
      <trkpt lat="45.23427" lon="5.75691">
        <ele>1075.5999755859</ele>
        <time>2021-10-16T04:35:56.000Z</time>
      </trkpt>
      <trkpt lat="45.23432" lon="5.75689">
        <ele>1076.1999511719</ele>
        <time>2021-10-16T04:35:59.000Z</time>
      </trkpt>
      <trkpt lat="45.23434" lon="5.75691">
        <ele>1076.8000488281</ele>
        <time>2021-10-16T04:36:01.000Z</time>
      </trkpt>
      <trkpt lat="45.23436" lon="5.75694">
        <ele>1077.1999511719</ele>
        <time>2021-10-16T04:36:03.000Z</time>
      </trkpt>
      <trkpt lat="45.23436" lon="5.75695">
        <ele>1077.1999511719</ele>
        <time>2021-10-16T04:36:04.000Z</time>
      </trkpt>
      <trkpt lat="45.23435" lon="5.75698">
        <ele>1077.5999755859</ele>
        <time>2021-10-16T04:36:06.000Z</time>
      </trkpt>
      <trkpt lat="45.23434" lon="5.75699">
        <ele>1077.8000488281</ele>
        <time>2021-10-16T04:36:07.000Z</time>
      </trkpt>
      <trkpt lat="45.23433" lon="5.75703">
        <ele>1078.5999755859</ele>
        <time>2021-10-16T04:36:09.000Z</time>
      </trkpt>
      <trkpt lat="45.23433" lon="5.75706">
        <ele>1078.8000488281</ele>
        <time>2021-10-16T04:36:11.000Z</time>
      </trkpt>
      <trkpt lat="45.23431" lon="5.75711">
        <ele>1079.4000244141</ele>
        <time>2021-10-16T04:36:15.000Z</time>
      </trkpt>
      <trkpt lat="45.23431" lon="5.75713">
        <ele>1079.5999755859</ele>
        <time>2021-10-16T04:36:16.000Z</time>
      </trkpt>
      <trkpt lat="45.23431" lon="5.75715">
        <ele>1080</ele>
        <time>2021-10-16T04:36:17.000Z</time>
      </trkpt>
      <trkpt lat="45.23431" lon="5.75718">
        <ele>1080.5999755859</ele>
        <time>2021-10-16T04:36:19.000Z</time>
      </trkpt>
      <trkpt lat="45.23431" lon="5.75719">
        <ele>1080.8000488281</ele>
        <time>2021-10-16T04:36:20.000Z</time>
      </trkpt>
      <trkpt lat="45.2343" lon="5.75725">
        <ele>1081.5999755859</ele>
        <time>2021-10-16T04:36:24.000Z</time>
      </trkpt>
      <trkpt lat="45.2343" lon="5.75725">
        <ele>1081.8000488281</ele>
        <time>2021-10-16T04:36:25.000Z</time>
      </trkpt>
      <trkpt lat="45.23431" lon="5.75727">
        <ele>1082</ele>
        <time>2021-10-16T04:36:26.000Z</time>
      </trkpt>
      <trkpt lat="45.23431" lon="5.75728">
        <ele>1082</ele>
        <time>2021-10-16T04:36:27.000Z</time>
      </trkpt>
      <trkpt lat="45.2343" lon="5.75735">
        <ele>1082.8000488281</ele>
        <time>2021-10-16T04:36:30.000Z</time>
      </trkpt>
      <trkpt lat="45.23429" lon="5.75736">
        <ele>1083.5999755859</ele>
        <time>2021-10-16T04:36:31.000Z</time>
      </trkpt>
      <trkpt lat="45.23428" lon="5.7574">
        <ele>1084.8000488281</ele>
        <time>2021-10-16T04:36:35.000Z</time>
      </trkpt>
      <trkpt lat="45.23428" lon="5.75742">
        <ele>1085.1999511719</ele>
        <time>2021-10-16T04:36:36.000Z</time>
      </trkpt>
      <trkpt lat="45.23426" lon="5.75747">
        <ele>1085.8000488281</ele>
        <time>2021-10-16T04:36:40.000Z</time>
      </trkpt>
      <trkpt lat="45.23425" lon="5.75748">
        <ele>1086.1999511719</ele>
        <time>2021-10-16T04:36:41.000Z</time>
      </trkpt>
      <trkpt lat="45.23425" lon="5.7575">
        <ele>1087.1999511719</ele>
        <time>2021-10-16T04:36:43.000Z</time>
      </trkpt>
      <trkpt lat="45.23425" lon="5.75751">
        <ele>1087.4000244141</ele>
        <time>2021-10-16T04:36:44.000Z</time>
      </trkpt>
      <trkpt lat="45.23424" lon="5.75753">
        <ele>1088.1999511719</ele>
        <time>2021-10-16T04:36:46.000Z</time>
      </trkpt>
      <trkpt lat="45.23424" lon="5.75756">
        <ele>1088.4000244141</ele>
        <time>2021-10-16T04:36:48.000Z</time>
      </trkpt>
      <trkpt lat="45.23423" lon="5.75757">
        <ele>1088.4000244141</ele>
        <time>2021-10-16T04:36:49.000Z</time>
      </trkpt>
      <trkpt lat="45.23422" lon="5.75758">
        <ele>1089.4000244141</ele>
        <time>2021-10-16T04:36:51.000Z</time>
      </trkpt>
      <trkpt lat="45.23422" lon="5.75758">
        <ele>1089.4000244141</ele>
        <time>2021-10-16T04:36:52.000Z</time>
      </trkpt>
      <trkpt lat="45.23421" lon="5.75763">
        <ele>1090.5999755859</ele>
        <time>2021-10-16T04:36:55.000Z</time>
      </trkpt>
      <trkpt lat="45.23421" lon="5.75765">
        <ele>1091</ele>
        <time>2021-10-16T04:36:56.000Z</time>
      </trkpt>
      <trkpt lat="45.23421" lon="5.75772">
        <ele>1091.4000244141</ele>
        <time>2021-10-16T04:36:59.000Z</time>
      </trkpt>
      <trkpt lat="45.23419" lon="5.75773">
        <ele>1091.4000244141</ele>
        <time>2021-10-16T04:37:00.000Z</time>
      </trkpt>
      <trkpt lat="45.23417" lon="5.75778">
        <ele>1091.8000488281</ele>
        <time>2021-10-16T04:37:02.000Z</time>
      </trkpt>
      <trkpt lat="45.23415" lon="5.75782">
        <ele>1092.1999511719</ele>
        <time>2021-10-16T04:37:04.000Z</time>
      </trkpt>
      <trkpt lat="45.23413" lon="5.75784">
        <ele>1092.5999755859</ele>
        <time>2021-10-16T04:37:06.000Z</time>
      </trkpt>
      <trkpt lat="45.23411" lon="5.75787">
        <ele>1093</ele>
        <time>2021-10-16T04:37:08.000Z</time>
      </trkpt>
      <trkpt lat="45.23408" lon="5.75791">
        <ele>1093.5999755859</ele>
        <time>2021-10-16T04:37:11.000Z</time>
      </trkpt>
      <trkpt lat="45.23407" lon="5.75793">
        <ele>1094</ele>
        <time>2021-10-16T04:37:13.000Z</time>
      </trkpt>
      <trkpt lat="45.23407" lon="5.75794">
        <ele>1094.4000244141</ele>
        <time>2021-10-16T04:37:15.000Z</time>
      </trkpt>
      <trkpt lat="45.23406" lon="5.75797">
        <ele>1095.1999511719</ele>
        <time>2021-10-16T04:37:17.000Z</time>
      </trkpt>
      <trkpt lat="45.23406" lon="5.75799">
        <ele>1095.1999511719</ele>
        <time>2021-10-16T04:37:18.000Z</time>
      </trkpt>
      <trkpt lat="45.23405" lon="5.75802">
        <ele>1096</ele>
        <time>2021-10-16T04:37:20.000Z</time>
      </trkpt>
      <trkpt lat="45.23404" lon="5.75808">
        <ele>1097</ele>
        <time>2021-10-16T04:37:24.000Z</time>
      </trkpt>
      <trkpt lat="45.23402" lon="5.75815">
        <ele>1097.5999755859</ele>
        <time>2021-10-16T04:37:27.000Z</time>
      </trkpt>
      <trkpt lat="45.23401" lon="5.75817">
        <ele>1097.8000488281</ele>
        <time>2021-10-16T04:37:28.000Z</time>
      </trkpt>
      <trkpt lat="45.234" lon="5.75818">
        <ele>1098</ele>
        <time>2021-10-16T04:37:29.000Z</time>
      </trkpt>
      <trkpt lat="45.23399" lon="5.75822">
        <ele>1098.8000488281</ele>
        <time>2021-10-16T04:37:32.000Z</time>
      </trkpt>
      <trkpt lat="45.23399" lon="5.75823">
        <ele>1098.8000488281</ele>
        <time>2021-10-16T04:37:33.000Z</time>
      </trkpt>
      <trkpt lat="45.23398" lon="5.75824">
        <ele>1099.1999511719</ele>
        <time>2021-10-16T04:37:34.000Z</time>
      </trkpt>
      <trkpt lat="45.23395" lon="5.7583">
        <ele>1100.5999755859</ele>
        <time>2021-10-16T04:37:39.000Z</time>
      </trkpt>
      <trkpt lat="45.23392" lon="5.75832">
        <ele>1101.1999511719</ele>
        <time>2021-10-16T04:37:42.000Z</time>
      </trkpt>
      <trkpt lat="45.2339" lon="5.75833">
        <ele>1101.5999755859</ele>
        <time>2021-10-16T04:37:44.000Z</time>
      </trkpt>
      <trkpt lat="45.23389" lon="5.75833">
        <ele>1102.1999511719</ele>
        <time>2021-10-16T04:37:45.000Z</time>
      </trkpt>
      <trkpt lat="45.23388" lon="5.75834">
        <ele>1102.8000488281</ele>
        <time>2021-10-16T04:37:46.000Z</time>
      </trkpt>
      <trkpt lat="45.23381" lon="5.75835">
        <ele>1104</ele>
        <time>2021-10-16T04:37:51.000Z</time>
      </trkpt>
      <trkpt lat="45.2338" lon="5.75835">
        <ele>1104.4000244141</ele>
        <time>2021-10-16T04:37:52.000Z</time>
      </trkpt>
      <trkpt lat="45.23375" lon="5.75836">
        <ele>1105</ele>
        <time>2021-10-16T04:37:55.000Z</time>
      </trkpt>
      <trkpt lat="45.23374" lon="5.75837">
        <ele>1105.1999511719</ele>
        <time>2021-10-16T04:37:56.000Z</time>
      </trkpt>
      <trkpt lat="45.23372" lon="5.75837">
        <ele>1105.1999511719</ele>
        <time>2021-10-16T04:37:57.000Z</time>
      </trkpt>
      <trkpt lat="45.23368" lon="5.7584">
        <ele>1106.1999511719</ele>
        <time>2021-10-16T04:38:02.000Z</time>
      </trkpt>
      <trkpt lat="45.23366" lon="5.75841">
        <ele>1106.5999755859</ele>
        <time>2021-10-16T04:38:03.000Z</time>
      </trkpt>
      <trkpt lat="45.23361" lon="5.75849">
        <ele>1107.1999511719</ele>
        <time>2021-10-16T04:38:07.000Z</time>
      </trkpt>
      <trkpt lat="45.23357" lon="5.75853">
        <ele>1107.8000488281</ele>
        <time>2021-10-16T04:38:10.000Z</time>
      </trkpt>
      <trkpt lat="45.23354" lon="5.75859">
        <ele>1108.5999755859</ele>
        <time>2021-10-16T04:38:14.000Z</time>
      </trkpt>
      <trkpt lat="45.23353" lon="5.75865">
        <ele>1109</ele>
        <time>2021-10-16T04:38:18.000Z</time>
      </trkpt>
      <trkpt lat="45.23352" lon="5.7587">
        <ele>1109.5999755859</ele>
        <time>2021-10-16T04:38:21.000Z</time>
      </trkpt>
      <trkpt lat="45.23349" lon="5.75876">
        <ele>1110</ele>
        <time>2021-10-16T04:38:24.000Z</time>
      </trkpt>
      <trkpt lat="45.2335" lon="5.7588">
        <ele>1111</ele>
        <time>2021-10-16T04:38:27.000Z</time>
      </trkpt>
      <trkpt lat="45.2335" lon="5.75886">
        <ele>1111.8000488281</ele>
        <time>2021-10-16T04:38:30.000Z</time>
      </trkpt>
      <trkpt lat="45.23351" lon="5.75886">
        <ele>1112.1999511719</ele>
        <time>2021-10-16T04:38:31.000Z</time>
      </trkpt>
      <trkpt lat="45.23354" lon="5.75894">
        <ele>1113.5999755859</ele>
        <time>2021-10-16T04:38:37.000Z</time>
      </trkpt>
      <trkpt lat="45.23355" lon="5.75896">
        <ele>1113.5999755859</ele>
        <time>2021-10-16T04:38:38.000Z</time>
      </trkpt>
      <trkpt lat="45.23357" lon="5.75899">
        <ele>1114.1999511719</ele>
        <time>2021-10-16T04:38:41.000Z</time>
      </trkpt>
      <trkpt lat="45.23357" lon="5.75899">
        <ele>1114.8000488281</ele>
        <time>2021-10-16T04:38:42.000Z</time>
      </trkpt>
      <trkpt lat="45.23357" lon="5.75899">
        <ele>1114.8000488281</ele>
        <time>2021-10-16T04:38:43.000Z</time>
      </trkpt>
      <trkpt lat="45.23357" lon="5.75901">
        <ele>1115.1999511719</ele>
        <time>2021-10-16T04:38:44.000Z</time>
      </trkpt>
      <trkpt lat="45.23355" lon="5.75903">
        <ele>1115.4000244141</ele>
        <time>2021-10-16T04:38:46.000Z</time>
      </trkpt>
      <trkpt lat="45.23357" lon="5.75905">
        <ele>1116</ele>
        <time>2021-10-16T04:38:48.000Z</time>
      </trkpt>
      <trkpt lat="45.23358" lon="5.75909">
        <ele>1116</ele>
        <time>2021-10-16T04:38:50.000Z</time>
      </trkpt>
      <trkpt lat="45.23359" lon="5.75911">
        <ele>1117</ele>
        <time>2021-10-16T04:38:51.000Z</time>
      </trkpt>
      <trkpt lat="45.23359" lon="5.75912">
        <ele>1117.1999511719</ele>
        <time>2021-10-16T04:38:52.000Z</time>
      </trkpt>
      <trkpt lat="45.23359" lon="5.75915">
        <ele>1117.8000488281</ele>
        <time>2021-10-16T04:38:55.000Z</time>
      </trkpt>
      <trkpt lat="45.2336" lon="5.75916">
        <ele>1118.1999511719</ele>
        <time>2021-10-16T04:38:56.000Z</time>
      </trkpt>
      <trkpt lat="45.23361" lon="5.75918">
        <ele>1118.8000488281</ele>
        <time>2021-10-16T04:38:59.000Z</time>
      </trkpt>
      <trkpt lat="45.23361" lon="5.75919">
        <ele>1118.8000488281</ele>
        <time>2021-10-16T04:39:00.000Z</time>
      </trkpt>
      <trkpt lat="45.23361" lon="5.7592">
        <ele>1119.4000244141</ele>
        <time>2021-10-16T04:39:01.000Z</time>
      </trkpt>
      <trkpt lat="45.23362" lon="5.75923">
        <ele>1120</ele>
        <time>2021-10-16T04:39:04.000Z</time>
      </trkpt>
      <trkpt lat="45.23362" lon="5.75924">
        <ele>1120.4000244141</ele>
        <time>2021-10-16T04:39:05.000Z</time>
      </trkpt>
      <trkpt lat="45.23362" lon="5.75925">
        <ele>1120.4000244141</ele>
        <time>2021-10-16T04:39:06.000Z</time>
      </trkpt>
      <trkpt lat="45.23362" lon="5.75928">
        <ele>1120.5999755859</ele>
        <time>2021-10-16T04:39:08.000Z</time>
      </trkpt>
      <trkpt lat="45.23366" lon="5.7593">
        <ele>1121.5999755859</ele>
        <time>2021-10-16T04:39:11.000Z</time>
      </trkpt>
      <trkpt lat="45.23367" lon="5.75928">
        <ele>1122</ele>
        <time>2021-10-16T04:39:12.000Z</time>
      </trkpt>
      <trkpt lat="45.23368" lon="5.75924">
        <ele>1122.8000488281</ele>
        <time>2021-10-16T04:39:18.000Z</time>
      </trkpt>
      <trkpt lat="45.2337" lon="5.7592">
        <ele>1123.8000488281</ele>
        <time>2021-10-16T04:39:21.000Z</time>
      </trkpt>
      <trkpt lat="45.23371" lon="5.75914">
        <ele>1125.1999511719</ele>
        <time>2021-10-16T04:39:26.000Z</time>
      </trkpt>
      <trkpt lat="45.23371" lon="5.75913">
        <ele>1125.1999511719</ele>
        <time>2021-10-16T04:39:27.000Z</time>
      </trkpt>
      <trkpt lat="45.23371" lon="5.75905">
        <ele>1126.1999511719</ele>
        <time>2021-10-16T04:39:32.000Z</time>
      </trkpt>
      <trkpt lat="45.23372" lon="5.75903">
        <ele>1126.4000244141</ele>
        <time>2021-10-16T04:39:33.000Z</time>
      </trkpt>
      <trkpt lat="45.23372" lon="5.75899">
        <ele>1127.4000244141</ele>
        <time>2021-10-16T04:39:36.000Z</time>
      </trkpt>
      <trkpt lat="45.23375" lon="5.75894">
        <ele>1127.8000488281</ele>
        <time>2021-10-16T04:39:40.000Z</time>
      </trkpt>
      <trkpt lat="45.23378" lon="5.75894">
        <ele>1128.4000244141</ele>
        <time>2021-10-16T04:39:42.000Z</time>
      </trkpt>
      <trkpt lat="45.23379" lon="5.75892">
        <ele>1129.4000244141</ele>
        <time>2021-10-16T04:39:44.000Z</time>
      </trkpt>
      <trkpt lat="45.2338" lon="5.7589">
        <ele>1129.5999755859</ele>
        <time>2021-10-16T04:39:45.000Z</time>
      </trkpt>
      <trkpt lat="45.23381" lon="5.75889">
        <ele>1129.5999755859</ele>
        <time>2021-10-16T04:39:46.000Z</time>
      </trkpt>
      <trkpt lat="45.23385" lon="5.75886">
        <ele>1131</ele>
        <time>2021-10-16T04:39:51.000Z</time>
      </trkpt>
      <trkpt lat="45.23386" lon="5.75886">
        <ele>1131</ele>
        <time>2021-10-16T04:39:52.000Z</time>
      </trkpt>
      <trkpt lat="45.23393" lon="5.75888">
        <ele>1132</ele>
        <time>2021-10-16T04:39:56.000Z</time>
      </trkpt>
      <trkpt lat="45.23396" lon="5.7589">
        <ele>1132.1999511719</ele>
        <time>2021-10-16T04:39:59.000Z</time>
      </trkpt>
      <trkpt lat="45.23397" lon="5.7589">
        <ele>1132.5999755859</ele>
        <time>2021-10-16T04:40:00.000Z</time>
      </trkpt>
      <trkpt lat="45.23398" lon="5.7589">
        <ele>1133.1999511719</ele>
        <time>2021-10-16T04:40:01.000Z</time>
      </trkpt>
      <trkpt lat="45.234" lon="5.75891">
        <ele>1134</ele>
        <time>2021-10-16T04:40:03.000Z</time>
      </trkpt>
      <trkpt lat="45.23401" lon="5.7589">
        <ele>1134</ele>
        <time>2021-10-16T04:40:04.000Z</time>
      </trkpt>
      <trkpt lat="45.23402" lon="5.7589">
        <ele>1134.1999511719</ele>
        <time>2021-10-16T04:40:05.000Z</time>
      </trkpt>
      <trkpt lat="45.23403" lon="5.7589">
        <ele>1134.4000244141</ele>
        <time>2021-10-16T04:40:06.000Z</time>
      </trkpt>
      <trkpt lat="45.23404" lon="5.75889">
        <ele>1134.5999755859</ele>
        <time>2021-10-16T04:40:07.000Z</time>
      </trkpt>
      <trkpt lat="45.23408" lon="5.75887">
        <ele>1135.8000488281</ele>
        <time>2021-10-16T04:40:11.000Z</time>
      </trkpt>
      <trkpt lat="45.23411" lon="5.75886">
        <ele>1136.1999511719</ele>
        <time>2021-10-16T04:40:13.000Z</time>
      </trkpt>
      <trkpt lat="45.23418" lon="5.75883">
        <ele>1137.4000244141</ele>
        <time>2021-10-16T04:40:17.000Z</time>
      </trkpt>
      <trkpt lat="45.23421" lon="5.75883">
        <ele>1137.8000488281</ele>
        <time>2021-10-16T04:40:19.000Z</time>
      </trkpt>
      <trkpt lat="45.23422" lon="5.75883">
        <ele>1137.8000488281</ele>
        <time>2021-10-16T04:40:20.000Z</time>
      </trkpt>
      <trkpt lat="45.23425" lon="5.7588">
        <ele>1138.5999755859</ele>
        <time>2021-10-16T04:40:22.000Z</time>
      </trkpt>
      <trkpt lat="45.23427" lon="5.75878">
        <ele>1139</ele>
        <time>2021-10-16T04:40:24.000Z</time>
      </trkpt>
      <trkpt lat="45.23428" lon="5.75877">
        <ele>1139.8000488281</ele>
        <time>2021-10-16T04:40:25.000Z</time>
      </trkpt>
      <trkpt lat="45.23429" lon="5.75874">
        <ele>1140</ele>
        <time>2021-10-16T04:40:28.000Z</time>
      </trkpt>
      <trkpt lat="45.23431" lon="5.75873">
        <ele>1140.8000488281</ele>
        <time>2021-10-16T04:40:30.000Z</time>
      </trkpt>
      <trkpt lat="45.23431" lon="5.75873">
        <ele>1141.1999511719</ele>
        <time>2021-10-16T04:40:31.000Z</time>
      </trkpt>
      <trkpt lat="45.23432" lon="5.75873">
        <ele>1141.4000244141</ele>
        <time>2021-10-16T04:40:32.000Z</time>
      </trkpt>
      <trkpt lat="45.23434" lon="5.75871">
        <ele>1141.8000488281</ele>
        <time>2021-10-16T04:40:34.000Z</time>
      </trkpt>
      <trkpt lat="45.23436" lon="5.75869">
        <ele>1142</ele>
        <time>2021-10-16T04:40:36.000Z</time>
      </trkpt>
      <trkpt lat="45.23437" lon="5.75868">
        <ele>1142.5999755859</ele>
        <time>2021-10-16T04:40:37.000Z</time>
      </trkpt>
      <trkpt lat="45.23439" lon="5.75865">
        <ele>1143.1999511719</ele>
        <time>2021-10-16T04:40:39.000Z</time>
      </trkpt>
      <trkpt lat="45.23441" lon="5.75863">
        <ele>1143.8000488281</ele>
        <time>2021-10-16T04:40:40.000Z</time>
      </trkpt>
      <trkpt lat="45.23441" lon="5.75863">
        <ele>1144</ele>
        <time>2021-10-16T04:40:41.000Z</time>
      </trkpt>
      <trkpt lat="45.23445" lon="5.75861">
        <ele>1144.8000488281</ele>
        <time>2021-10-16T04:40:45.000Z</time>
      </trkpt>
      <trkpt lat="45.23447" lon="5.75861">
        <ele>1145.5999755859</ele>
        <time>2021-10-16T04:40:47.000Z</time>
      </trkpt>
      <trkpt lat="45.23448" lon="5.7586">
        <ele>1145.8000488281</ele>
        <time>2021-10-16T04:40:48.000Z</time>
      </trkpt>
      <trkpt lat="45.23449" lon="5.75859">
        <ele>1146</ele>
        <time>2021-10-16T04:40:49.000Z</time>
      </trkpt>
      <trkpt lat="45.23454" lon="5.75856">
        <ele>1147.1999511719</ele>
        <time>2021-10-16T04:40:53.000Z</time>
      </trkpt>
      <trkpt lat="45.23455" lon="5.75855">
        <ele>1147.1999511719</ele>
        <time>2021-10-16T04:40:54.000Z</time>
      </trkpt>
      <trkpt lat="45.23457" lon="5.75853">
        <ele>1148.1999511719</ele>
        <time>2021-10-16T04:40:56.000Z</time>
      </trkpt>
      <trkpt lat="45.23459" lon="5.75851">
        <ele>1148.4000244141</ele>
        <time>2021-10-16T04:40:58.000Z</time>
      </trkpt>
      <trkpt lat="45.23462" lon="5.75849">
        <ele>1149.4000244141</ele>
        <time>2021-10-16T04:41:01.000Z</time>
      </trkpt>
      <trkpt lat="45.23464" lon="5.75849">
        <ele>1149.5999755859</ele>
        <time>2021-10-16T04:41:02.000Z</time>
      </trkpt>
      <trkpt lat="45.23465" lon="5.75849">
        <ele>1150.4000244141</ele>
        <time>2021-10-16T04:41:04.000Z</time>
      </trkpt>
      <trkpt lat="45.23466" lon="5.75848">
        <ele>1150.5999755859</ele>
        <time>2021-10-16T04:41:06.000Z</time>
      </trkpt>
      <trkpt lat="45.23467" lon="5.75847">
        <ele>1151.4000244141</ele>
        <time>2021-10-16T04:41:08.000Z</time>
      </trkpt>
      <trkpt lat="45.23469" lon="5.75846">
        <ele>1151.8000488281</ele>
        <time>2021-10-16T04:41:10.000Z</time>
      </trkpt>
      <trkpt lat="45.23475" lon="5.75843">
        <ele>1153</ele>
        <time>2021-10-16T04:41:15.000Z</time>
      </trkpt>
      <trkpt lat="45.23476" lon="5.75843">
        <ele>1153.1999511719</ele>
        <time>2021-10-16T04:41:16.000Z</time>
      </trkpt>
      <trkpt lat="45.23477" lon="5.7584">
        <ele>1153.8000488281</ele>
        <time>2021-10-16T04:41:19.000Z</time>
      </trkpt>
      <trkpt lat="45.23478" lon="5.7584">
        <ele>1154.4000244141</ele>
        <time>2021-10-16T04:41:20.000Z</time>
      </trkpt>
      <trkpt lat="45.2348" lon="5.7584">
        <ele>1154.4000244141</ele>
        <time>2021-10-16T04:41:22.000Z</time>
      </trkpt>
      <trkpt lat="45.23483" lon="5.75841">
        <ele>1155.5999755859</ele>
        <time>2021-10-16T04:41:25.000Z</time>
      </trkpt>
      <trkpt lat="45.23484" lon="5.7584">
        <ele>1156</ele>
        <time>2021-10-16T04:41:26.000Z</time>
      </trkpt>
      <trkpt lat="45.23487" lon="5.7584">
        <ele>1157</ele>
        <time>2021-10-16T04:41:29.000Z</time>
      </trkpt>
      <trkpt lat="45.23488" lon="5.7584">
        <ele>1157.1999511719</ele>
        <time>2021-10-16T04:41:31.000Z</time>
      </trkpt>
      <trkpt lat="45.23489" lon="5.7584">
        <ele>1157.4000244141</ele>
        <time>2021-10-16T04:41:32.000Z</time>
      </trkpt>
      <trkpt lat="45.23491" lon="5.75839">
        <ele>1157.4000244141</ele>
        <time>2021-10-16T04:41:33.000Z</time>
      </trkpt>
      <trkpt lat="45.23495" lon="5.75837">
        <ele>1158.5999755859</ele>
        <time>2021-10-16T04:41:35.000Z</time>
      </trkpt>
      <trkpt lat="45.23499" lon="5.75831">
        <ele>1159.5999755859</ele>
        <time>2021-10-16T04:41:40.000Z</time>
      </trkpt>
      <trkpt lat="45.235" lon="5.75831">
        <ele>1159.8000488281</ele>
        <time>2021-10-16T04:41:41.000Z</time>
      </trkpt>
      <trkpt lat="45.23502" lon="5.75831">
        <ele>1160.5999755859</ele>
        <time>2021-10-16T04:41:43.000Z</time>
      </trkpt>
      <trkpt lat="45.23503" lon="5.7583">
        <ele>1160.5999755859</ele>
        <time>2021-10-16T04:41:44.000Z</time>
      </trkpt>
      <trkpt lat="45.23504" lon="5.7583">
        <ele>1160.8000488281</ele>
        <time>2021-10-16T04:41:45.000Z</time>
      </trkpt>
      <trkpt lat="45.23505" lon="5.75828">
        <ele>1161.1999511719</ele>
        <time>2021-10-16T04:41:47.000Z</time>
      </trkpt>
      <trkpt lat="45.23506" lon="5.75828">
        <ele>1161.5999755859</ele>
        <time>2021-10-16T04:41:49.000Z</time>
      </trkpt>
      <trkpt lat="45.23507" lon="5.75826">
        <ele>1162.1999511719</ele>
        <time>2021-10-16T04:41:51.000Z</time>
      </trkpt>
      <trkpt lat="45.2351" lon="5.75824">
        <ele>1162.8000488281</ele>
        <time>2021-10-16T04:41:53.000Z</time>
      </trkpt>
      <trkpt lat="45.23511" lon="5.75823">
        <ele>1163.1999511719</ele>
        <time>2021-10-16T04:41:54.000Z</time>
      </trkpt>
      <trkpt lat="45.23514" lon="5.75822">
        <ele>1163.8000488281</ele>
        <time>2021-10-16T04:41:58.000Z</time>
      </trkpt>
      <trkpt lat="45.23514" lon="5.7582">
        <ele>1164</ele>
        <time>2021-10-16T04:41:59.000Z</time>
      </trkpt>
      <trkpt lat="45.23515" lon="5.75819">
        <ele>1164.8000488281</ele>
        <time>2021-10-16T04:42:00.000Z</time>
      </trkpt>
      <trkpt lat="45.23516" lon="5.75818">
        <ele>1165.1999511719</ele>
        <time>2021-10-16T04:42:01.000Z</time>
      </trkpt>
      <trkpt lat="45.23517" lon="5.75817">
        <ele>1165.1999511719</ele>
        <time>2021-10-16T04:42:02.000Z</time>
      </trkpt>
      <trkpt lat="45.23521" lon="5.75814">
        <ele>1166.1999511719</ele>
        <time>2021-10-16T04:42:06.000Z</time>
      </trkpt>
      <trkpt lat="45.23523" lon="5.75813">
        <ele>1166.1999511719</ele>
        <time>2021-10-16T04:42:08.000Z</time>
      </trkpt>
      <trkpt lat="45.23524" lon="5.75813">
        <ele>1167.1999511719</ele>
        <time>2021-10-16T04:42:09.000Z</time>
      </trkpt>
      <trkpt lat="45.23527" lon="5.75811">
        <ele>1168.1999511719</ele>
        <time>2021-10-16T04:42:12.000Z</time>
      </trkpt>
      <trkpt lat="45.23528" lon="5.75811">
        <ele>1168.4000244141</ele>
        <time>2021-10-16T04:42:13.000Z</time>
      </trkpt>
      <trkpt lat="45.23532" lon="5.7581">
        <ele>1168.8000488281</ele>
        <time>2021-10-16T04:42:16.000Z</time>
      </trkpt>
      <trkpt lat="45.23534" lon="5.75807">
        <ele>1169.5999755859</ele>
        <time>2021-10-16T04:42:18.000Z</time>
      </trkpt>
      <trkpt lat="45.23535" lon="5.75807">
        <ele>1170.1999511719</ele>
        <time>2021-10-16T04:42:20.000Z</time>
      </trkpt>
      <trkpt lat="45.23539" lon="5.75807">
        <ele>1170.8000488281</ele>
        <time>2021-10-16T04:42:23.000Z</time>
      </trkpt>
      <trkpt lat="45.2354" lon="5.75807">
        <ele>1171.1999511719</ele>
        <time>2021-10-16T04:42:24.000Z</time>
      </trkpt>
      <trkpt lat="45.23544" lon="5.75806">
        <ele>1171.4000244141</ele>
        <time>2021-10-16T04:42:27.000Z</time>
      </trkpt>
      <trkpt lat="45.23546" lon="5.75806">
        <ele>1172</ele>
        <time>2021-10-16T04:42:29.000Z</time>
      </trkpt>
      <trkpt lat="45.23548" lon="5.75806">
        <ele>1172.5999755859</ele>
        <time>2021-10-16T04:42:31.000Z</time>
      </trkpt>
      <trkpt lat="45.2355" lon="5.75806">
        <ele>1173.1999511719</ele>
        <time>2021-10-16T04:42:33.000Z</time>
      </trkpt>
      <trkpt lat="45.23552" lon="5.75805">
        <ele>1174</ele>
        <time>2021-10-16T04:42:35.000Z</time>
      </trkpt>
      <trkpt lat="45.23553" lon="5.75803">
        <ele>1174.4000244141</ele>
        <time>2021-10-16T04:42:37.000Z</time>
      </trkpt>
      <trkpt lat="45.23555" lon="5.75802">
        <ele>1175.5999755859</ele>
        <time>2021-10-16T04:42:39.000Z</time>
      </trkpt>
      <trkpt lat="45.23558" lon="5.75799">
        <ele>1176</ele>
        <time>2021-10-16T04:42:42.000Z</time>
      </trkpt>
      <trkpt lat="45.23559" lon="5.75799">
        <ele>1176.5999755859</ele>
        <time>2021-10-16T04:42:43.000Z</time>
      </trkpt>
      <trkpt lat="45.23563" lon="5.75796">
        <ele>1177.4000244141</ele>
        <time>2021-10-16T04:42:47.000Z</time>
      </trkpt>
      <trkpt lat="45.23564" lon="5.75796">
        <ele>1177.5999755859</ele>
        <time>2021-10-16T04:42:48.000Z</time>
      </trkpt>
      <trkpt lat="45.23568" lon="5.75795">
        <ele>1178.5999755859</ele>
        <time>2021-10-16T04:42:51.000Z</time>
      </trkpt>
      <trkpt lat="45.2357" lon="5.75795">
        <ele>1179.1999511719</ele>
        <time>2021-10-16T04:42:52.000Z</time>
      </trkpt>
      <trkpt lat="45.2357" lon="5.75795">
        <ele>1179.1999511719</ele>
        <time>2021-10-16T04:42:53.000Z</time>
      </trkpt>
      <trkpt lat="45.23571" lon="5.75796">
        <ele>1179.1999511719</ele>
        <time>2021-10-16T04:42:54.000Z</time>
      </trkpt>
      <trkpt lat="45.23574" lon="5.75796">
        <ele>1180</ele>
        <time>2021-10-16T04:42:56.000Z</time>
      </trkpt>
      <trkpt lat="45.23575" lon="5.75796">
        <ele>1180.5999755859</ele>
        <time>2021-10-16T04:42:57.000Z</time>
      </trkpt>
      <trkpt lat="45.23577" lon="5.75795">
        <ele>1181</ele>
        <time>2021-10-16T04:43:00.000Z</time>
      </trkpt>
      <trkpt lat="45.23577" lon="5.75796">
        <ele>1181.1999511719</ele>
        <time>2021-10-16T04:43:01.000Z</time>
      </trkpt>
      <trkpt lat="45.23579" lon="5.75797">
        <ele>1181.8000488281</ele>
        <time>2021-10-16T04:43:03.000Z</time>
      </trkpt>
      <trkpt lat="45.23582" lon="5.75797">
        <ele>1182.5999755859</ele>
        <time>2021-10-16T04:43:07.000Z</time>
      </trkpt>
      <trkpt lat="45.23583" lon="5.75796">
        <ele>1183</ele>
        <time>2021-10-16T04:43:08.000Z</time>
      </trkpt>
      <trkpt lat="45.23585" lon="5.75793">
        <ele>1184.1999511719</ele>
        <time>2021-10-16T04:43:11.000Z</time>
      </trkpt>
      <trkpt lat="45.23588" lon="5.75792">
        <ele>1184.5999755859</ele>
        <time>2021-10-16T04:43:14.000Z</time>
      </trkpt>
      <trkpt lat="45.23589" lon="5.75792">
        <ele>1185.5999755859</ele>
        <time>2021-10-16T04:43:16.000Z</time>
      </trkpt>
      <trkpt lat="45.23592" lon="5.75791">
        <ele>1186.1999511719</ele>
        <time>2021-10-16T04:43:19.000Z</time>
      </trkpt>
      <trkpt lat="45.23593" lon="5.75791">
        <ele>1186.1999511719</ele>
        <time>2021-10-16T04:43:20.000Z</time>
      </trkpt>
      <trkpt lat="45.23596" lon="5.75789">
        <ele>1186.5999755859</ele>
        <time>2021-10-16T04:43:23.000Z</time>
      </trkpt>
      <trkpt lat="45.23599" lon="5.75787">
        <ele>1187.4000244141</ele>
        <time>2021-10-16T04:43:25.000Z</time>
      </trkpt>
      <trkpt lat="45.236" lon="5.75787">
        <ele>1187.8000488281</ele>
        <time>2021-10-16T04:43:26.000Z</time>
      </trkpt>
      <trkpt lat="45.236" lon="5.75789">
        <ele>1188</ele>
        <time>2021-10-16T04:43:27.000Z</time>
      </trkpt>
      <trkpt lat="45.23601" lon="5.7579">
        <ele>1188.1999511719</ele>
        <time>2021-10-16T04:43:28.000Z</time>
      </trkpt>
      <trkpt lat="45.236" lon="5.75794">
        <ele>1189.1999511719</ele>
        <time>2021-10-16T04:43:32.000Z</time>
      </trkpt>
      <trkpt lat="45.23597" lon="5.75796">
        <ele>1190</ele>
        <time>2021-10-16T04:43:35.000Z</time>
      </trkpt>
      <trkpt lat="45.23597" lon="5.75799">
        <ele>1190.1999511719</ele>
        <time>2021-10-16T04:43:37.000Z</time>
      </trkpt>
      <trkpt lat="45.23595" lon="5.75801">
        <ele>1191</ele>
        <time>2021-10-16T04:43:39.000Z</time>
      </trkpt>
      <trkpt lat="45.23594" lon="5.75803">
        <ele>1191.4000244141</ele>
        <time>2021-10-16T04:43:42.000Z</time>
      </trkpt>
      <trkpt lat="45.23593" lon="5.75805">
        <ele>1191.4000244141</ele>
        <time>2021-10-16T04:43:43.000Z</time>
      </trkpt>
      <trkpt lat="45.23591" lon="5.75809">
        <ele>1192.4000244141</ele>
        <time>2021-10-16T04:43:46.000Z</time>
      </trkpt>
      <trkpt lat="45.23589" lon="5.75813">
        <ele>1193</ele>
        <time>2021-10-16T04:43:49.000Z</time>
      </trkpt>
      <trkpt lat="45.23588" lon="5.75814">
        <ele>1193.5999755859</ele>
        <time>2021-10-16T04:43:50.000Z</time>
      </trkpt>
      <trkpt lat="45.23585" lon="5.7582">
        <ele>1194.4000244141</ele>
        <time>2021-10-16T04:43:54.000Z</time>
      </trkpt>
      <trkpt lat="45.23585" lon="5.75822">
        <ele>1194.5999755859</ele>
        <time>2021-10-16T04:43:55.000Z</time>
      </trkpt>
      <trkpt lat="45.23583" lon="5.75828">
        <ele>1195.8000488281</ele>
        <time>2021-10-16T04:43:59.000Z</time>
      </trkpt>
      <trkpt lat="45.23581" lon="5.75831">
        <ele>1197</ele>
        <time>2021-10-16T04:44:03.000Z</time>
      </trkpt>
      <trkpt lat="45.2358" lon="5.75833">
        <ele>1197.1999511719</ele>
        <time>2021-10-16T04:44:04.000Z</time>
      </trkpt>
      <trkpt lat="45.23576" lon="5.75839">
        <ele>1198</ele>
        <time>2021-10-16T04:44:07.000Z</time>
      </trkpt>
      <trkpt lat="45.23574" lon="5.75842">
        <ele>1198.4000244141</ele>
        <time>2021-10-16T04:44:10.000Z</time>
      </trkpt>
      <trkpt lat="45.23573" lon="5.75845">
        <ele>1199.5999755859</ele>
        <time>2021-10-16T04:44:13.000Z</time>
      </trkpt>
      <trkpt lat="45.23572" lon="5.75848">
        <ele>1199.8000488281</ele>
        <time>2021-10-16T04:44:15.000Z</time>
      </trkpt>
      <trkpt lat="45.23572" lon="5.75853">
        <ele>1200.5999755859</ele>
        <time>2021-10-16T04:44:18.000Z</time>
      </trkpt>
      <trkpt lat="45.2357" lon="5.75857">
        <ele>1201.8000488281</ele>
        <time>2021-10-16T04:44:21.000Z</time>
      </trkpt>
      <trkpt lat="45.23568" lon="5.75859">
        <ele>1202</ele>
        <time>2021-10-16T04:44:23.000Z</time>
      </trkpt>
      <trkpt lat="45.23564" lon="5.75864">
        <ele>1203</ele>
        <time>2021-10-16T04:44:28.000Z</time>
      </trkpt>
      <trkpt lat="45.23562" lon="5.75867">
        <ele>1204</ele>
        <time>2021-10-16T04:44:31.000Z</time>
      </trkpt>
      <trkpt lat="45.23559" lon="5.75869">
        <ele>1204.4000244141</ele>
        <time>2021-10-16T04:44:34.000Z</time>
      </trkpt>
      <trkpt lat="45.23555" lon="5.75872">
        <ele>1205</ele>
        <time>2021-10-16T04:44:36.000Z</time>
      </trkpt>
      <trkpt lat="45.23554" lon="5.75874">
        <ele>1205.5999755859</ele>
        <time>2021-10-16T04:44:38.000Z</time>
      </trkpt>
      <trkpt lat="45.23553" lon="5.75875">
        <ele>1206.4000244141</ele>
        <time>2021-10-16T04:44:40.000Z</time>
      </trkpt>
      <trkpt lat="45.23552" lon="5.75876">
        <ele>1206.4000244141</ele>
        <time>2021-10-16T04:44:41.000Z</time>
      </trkpt>
      <trkpt lat="45.23547" lon="5.75878">
        <ele>1207.4000244141</ele>
        <time>2021-10-16T04:44:44.000Z</time>
      </trkpt>
      <trkpt lat="45.23546" lon="5.7588">
        <ele>1207.5999755859</ele>
        <time>2021-10-16T04:44:45.000Z</time>
      </trkpt>
      <trkpt lat="45.23546" lon="5.75887">
        <ele>1208.1999511719</ele>
        <time>2021-10-16T04:44:48.000Z</time>
      </trkpt>
      <trkpt lat="45.23545" lon="5.75891">
        <ele>1208.5999755859</ele>
        <time>2021-10-16T04:44:50.000Z</time>
      </trkpt>
      <trkpt lat="45.23545" lon="5.75892">
        <ele>1209.1999511719</ele>
        <time>2021-10-16T04:44:51.000Z</time>
      </trkpt>
      <trkpt lat="45.23546" lon="5.75892">
        <ele>1209.1999511719</ele>
        <time>2021-10-16T04:44:52.000Z</time>
      </trkpt>
      <trkpt lat="45.23545" lon="5.75895">
        <ele>1210</ele>
        <time>2021-10-16T04:44:54.000Z</time>
      </trkpt>
      <trkpt lat="45.23543" lon="5.75897">
        <ele>1210.4000244141</ele>
        <time>2021-10-16T04:44:57.000Z</time>
      </trkpt>
      <trkpt lat="45.23543" lon="5.75897">
        <ele>1210.4000244141</ele>
        <time>2021-10-16T04:44:58.000Z</time>
      </trkpt>
      <trkpt lat="45.23541" lon="5.75901">
        <ele>1211.4000244141</ele>
        <time>2021-10-16T04:45:00.000Z</time>
      </trkpt>
      <trkpt lat="45.2354" lon="5.75904">
        <ele>1211.5999755859</ele>
        <time>2021-10-16T04:45:01.000Z</time>
      </trkpt>
      <trkpt lat="45.23539" lon="5.75909">
        <ele>1212.1999511719</ele>
        <time>2021-10-16T04:45:04.000Z</time>
      </trkpt>
      <trkpt lat="45.23537" lon="5.75911">
        <ele>1212.4000244141</ele>
        <time>2021-10-16T04:45:06.000Z</time>
      </trkpt>
      <trkpt lat="45.23537" lon="5.75914">
        <ele>1212.8000488281</ele>
        <time>2021-10-16T04:45:07.000Z</time>
      </trkpt>
      <trkpt lat="45.23536" lon="5.75919">
        <ele>1213.4000244141</ele>
        <time>2021-10-16T04:45:09.000Z</time>
      </trkpt>
      <trkpt lat="45.23536" lon="5.7592">
        <ele>1213.8000488281</ele>
        <time>2021-10-16T04:45:10.000Z</time>
      </trkpt>
      <trkpt lat="45.23535" lon="5.75922">
        <ele>1214</ele>
        <time>2021-10-16T04:45:11.000Z</time>
      </trkpt>
      <trkpt lat="45.23533" lon="5.75926">
        <ele>1214.4000244141</ele>
        <time>2021-10-16T04:45:14.000Z</time>
      </trkpt>
      <trkpt lat="45.23533" lon="5.75928">
        <ele>1215</ele>
        <time>2021-10-16T04:45:15.000Z</time>
      </trkpt>
      <trkpt lat="45.23531" lon="5.75934">
        <ele>1215.8000488281</ele>
        <time>2021-10-16T04:45:18.000Z</time>
      </trkpt>
      <trkpt lat="45.2353" lon="5.75936">
        <ele>1216</ele>
        <time>2021-10-16T04:45:19.000Z</time>
      </trkpt>
      <trkpt lat="45.23529" lon="5.75943">
        <ele>1217.1999511719</ele>
        <time>2021-10-16T04:45:24.000Z</time>
      </trkpt>
      <trkpt lat="45.23527" lon="5.75946">
        <ele>1218</ele>
        <time>2021-10-16T04:45:27.000Z</time>
      </trkpt>
      <trkpt lat="45.23527" lon="5.75949">
        <ele>1218.4000244141</ele>
        <time>2021-10-16T04:45:29.000Z</time>
      </trkpt>
      <trkpt lat="45.23526" lon="5.75951">
        <ele>1219</ele>
        <time>2021-10-16T04:45:31.000Z</time>
      </trkpt>
      <trkpt lat="45.23526" lon="5.75952">
        <ele>1219.4000244141</ele>
        <time>2021-10-16T04:45:32.000Z</time>
      </trkpt>
      <trkpt lat="45.23524" lon="5.75953">
        <ele>1219.5999755859</ele>
        <time>2021-10-16T04:45:34.000Z</time>
      </trkpt>
      <trkpt lat="45.23522" lon="5.75959">
        <ele>1220.8000488281</ele>
        <time>2021-10-16T04:45:38.000Z</time>
      </trkpt>
      <trkpt lat="45.23521" lon="5.7596">
        <ele>1221</ele>
        <time>2021-10-16T04:45:39.000Z</time>
      </trkpt>
      <trkpt lat="45.23517" lon="5.75967">
        <ele>1222</ele>
        <time>2021-10-16T04:45:45.000Z</time>
      </trkpt>
      <trkpt lat="45.23517" lon="5.7597">
        <ele>1222.1999511719</ele>
        <time>2021-10-16T04:45:46.000Z</time>
      </trkpt>
      <trkpt lat="45.23517" lon="5.75972">
        <ele>1222.8000488281</ele>
        <time>2021-10-16T04:45:47.000Z</time>
      </trkpt>
      <trkpt lat="45.23514" lon="5.75978">
        <ele>1223.1999511719</ele>
        <time>2021-10-16T04:45:50.000Z</time>
      </trkpt>
      <trkpt lat="45.23513" lon="5.75979">
        <ele>1223.1999511719</ele>
        <time>2021-10-16T04:45:51.000Z</time>
      </trkpt>
      <trkpt lat="45.23512" lon="5.75988">
        <ele>1224.4000244141</ele>
        <time>2021-10-16T04:45:55.000Z</time>
      </trkpt>
      <trkpt lat="45.23512" lon="5.75989">
        <ele>1224.8000488281</ele>
        <time>2021-10-16T04:45:56.000Z</time>
      </trkpt>
      <trkpt lat="45.2351" lon="5.75994">
        <ele>1225.8000488281</ele>
        <time>2021-10-16T04:46:00.000Z</time>
      </trkpt>
      <trkpt lat="45.23509" lon="5.75995">
        <ele>1226.1999511719</ele>
        <time>2021-10-16T04:46:02.000Z</time>
      </trkpt>
      <trkpt lat="45.23507" lon="5.75996">
        <ele>1226.4000244141</ele>
        <time>2021-10-16T04:46:03.000Z</time>
      </trkpt>
      <trkpt lat="45.23504" lon="5.76002">
        <ele>1227</ele>
        <time>2021-10-16T04:46:07.000Z</time>
      </trkpt>
      <trkpt lat="45.23504" lon="5.76005">
        <ele>1227.4000244141</ele>
        <time>2021-10-16T04:46:08.000Z</time>
      </trkpt>
      <trkpt lat="45.23504" lon="5.76007">
        <ele>1228</ele>
        <time>2021-10-16T04:46:10.000Z</time>
      </trkpt>
      <trkpt lat="45.23504" lon="5.7601">
        <ele>1228.4000244141</ele>
        <time>2021-10-16T04:46:13.000Z</time>
      </trkpt>
      <trkpt lat="45.23505" lon="5.76012">
        <ele>1229.4000244141</ele>
        <time>2021-10-16T04:46:15.000Z</time>
      </trkpt>
      <trkpt lat="45.23507" lon="5.7601">
        <ele>1230.1999511719</ele>
        <time>2021-10-16T04:46:19.000Z</time>
      </trkpt>
      <trkpt lat="45.23508" lon="5.76009">
        <ele>1230.4000244141</ele>
        <time>2021-10-16T04:46:20.000Z</time>
      </trkpt>
      <trkpt lat="45.2351" lon="5.76005">
        <ele>1231.5999755859</ele>
        <time>2021-10-16T04:46:24.000Z</time>
      </trkpt>
      <trkpt lat="45.23512" lon="5.76003">
        <ele>1231.8000488281</ele>
        <time>2021-10-16T04:46:26.000Z</time>
      </trkpt>
      <trkpt lat="45.23512" lon="5.76">
        <ele>1232.5999755859</ele>
        <time>2021-10-16T04:46:28.000Z</time>
      </trkpt>
      <trkpt lat="45.23514" lon="5.76">
        <ele>1232.8000488281</ele>
        <time>2021-10-16T04:46:30.000Z</time>
      </trkpt>
      <trkpt lat="45.23515" lon="5.75999">
        <ele>1233</ele>
        <time>2021-10-16T04:46:32.000Z</time>
      </trkpt>
      <trkpt lat="45.23517" lon="5.75997">
        <ele>1233.8000488281</ele>
        <time>2021-10-16T04:46:34.000Z</time>
      </trkpt>
      <trkpt lat="45.23518" lon="5.75995">
        <ele>1234.4000244141</ele>
        <time>2021-10-16T04:46:35.000Z</time>
      </trkpt>
      <trkpt lat="45.2352" lon="5.75993">
        <ele>1234.5999755859</ele>
        <time>2021-10-16T04:46:37.000Z</time>
      </trkpt>
      <trkpt lat="45.23522" lon="5.75992">
        <ele>1234.8000488281</ele>
        <time>2021-10-16T04:46:38.000Z</time>
      </trkpt>
      <trkpt lat="45.23524" lon="5.75988">
        <ele>1235.8000488281</ele>
        <time>2021-10-16T04:46:42.000Z</time>
      </trkpt>
      <trkpt lat="45.23526" lon="5.75988">
        <ele>1236.1999511719</ele>
        <time>2021-10-16T04:46:43.000Z</time>
      </trkpt>
      <trkpt lat="45.23532" lon="5.75989">
        <ele>1237</ele>
        <time>2021-10-16T04:46:47.000Z</time>
      </trkpt>
      <trkpt lat="45.23533" lon="5.7599">
        <ele>1237</ele>
        <time>2021-10-16T04:46:48.000Z</time>
      </trkpt>
      <trkpt lat="45.23535" lon="5.75987">
        <ele>1237.5999755859</ele>
        <time>2021-10-16T04:46:50.000Z</time>
      </trkpt>
      <trkpt lat="45.23536" lon="5.75986">
        <ele>1238</ele>
        <time>2021-10-16T04:46:51.000Z</time>
      </trkpt>
      <trkpt lat="45.23539" lon="5.75984">
        <ele>1238.4000244141</ele>
        <time>2021-10-16T04:46:54.000Z</time>
      </trkpt>
      <trkpt lat="45.23541" lon="5.75983">
        <ele>1239.4000244141</ele>
        <time>2021-10-16T04:46:57.000Z</time>
      </trkpt>
      <trkpt lat="45.23547" lon="5.75983">
        <ele>1240.1999511719</ele>
        <time>2021-10-16T04:47:02.000Z</time>
      </trkpt>
      <trkpt lat="45.23548" lon="5.75981">
        <ele>1240.5999755859</ele>
        <time>2021-10-16T04:47:04.000Z</time>
      </trkpt>
      <trkpt lat="45.23553" lon="5.75978">
        <ele>1242</ele>
        <time>2021-10-16T04:47:09.000Z</time>
      </trkpt>
      <trkpt lat="45.23557" lon="5.75976">
        <ele>1243</ele>
        <time>2021-10-16T04:47:14.000Z</time>
      </trkpt>
      <trkpt lat="45.23558" lon="5.75975">
        <ele>1243.1999511719</ele>
        <time>2021-10-16T04:47:15.000Z</time>
      </trkpt>
      <trkpt lat="45.23559" lon="5.75974">
        <ele>1243.8000488281</ele>
        <time>2021-10-16T04:47:17.000Z</time>
      </trkpt>
      <trkpt lat="45.23559" lon="5.75974">
        <ele>1244.1999511719</ele>
        <time>2021-10-16T04:47:18.000Z</time>
      </trkpt>
      <trkpt lat="45.23563" lon="5.75971">
        <ele>1244.4000244141</ele>
        <time>2021-10-16T04:47:21.000Z</time>
      </trkpt>
      <trkpt lat="45.23565" lon="5.75971">
        <ele>1245.4000244141</ele>
        <time>2021-10-16T04:47:23.000Z</time>
      </trkpt>
      <trkpt lat="45.23568" lon="5.75971">
        <ele>1246</ele>
        <time>2021-10-16T04:47:26.000Z</time>
      </trkpt>
      <trkpt lat="45.23569" lon="5.75969">
        <ele>1246.4000244141</ele>
        <time>2021-10-16T04:47:28.000Z</time>
      </trkpt>
      <trkpt lat="45.2357" lon="5.7597">
        <ele>1246.5999755859</ele>
        <time>2021-10-16T04:47:29.000Z</time>
      </trkpt>
      <trkpt lat="45.23572" lon="5.75969">
        <ele>1247</ele>
        <time>2021-10-16T04:47:30.000Z</time>
      </trkpt>
      <trkpt lat="45.23573" lon="5.75969">
        <ele>1247.4000244141</ele>
        <time>2021-10-16T04:47:31.000Z</time>
      </trkpt>
      <trkpt lat="45.23575" lon="5.75968">
        <ele>1247.8000488281</ele>
        <time>2021-10-16T04:47:32.000Z</time>
      </trkpt>
      <trkpt lat="45.23577" lon="5.75968">
        <ele>1248.8000488281</ele>
        <time>2021-10-16T04:47:36.000Z</time>
      </trkpt>
      <trkpt lat="45.23584" lon="5.75966">
        <ele>1249.8000488281</ele>
        <time>2021-10-16T04:47:41.000Z</time>
      </trkpt>
      <trkpt lat="45.23585" lon="5.75966">
        <ele>1250.4000244141</ele>
        <time>2021-10-16T04:47:42.000Z</time>
      </trkpt>
      <trkpt lat="45.23588" lon="5.75965">
        <ele>1251.1999511719</ele>
        <time>2021-10-16T04:47:45.000Z</time>
      </trkpt>
      <trkpt lat="45.23593" lon="5.75964">
        <ele>1252.1999511719</ele>
        <time>2021-10-16T04:47:50.000Z</time>
      </trkpt>
      <trkpt lat="45.23594" lon="5.75963">
        <ele>1252.1999511719</ele>
        <time>2021-10-16T04:47:51.000Z</time>
      </trkpt>
      <trkpt lat="45.23597" lon="5.75958">
        <ele>1253.4000244141</ele>
        <time>2021-10-16T04:47:54.000Z</time>
      </trkpt>
      <trkpt lat="45.23599" lon="5.75957">
        <ele>1253.5999755859</ele>
        <time>2021-10-16T04:47:55.000Z</time>
      </trkpt>
      <trkpt lat="45.23603" lon="5.75954">
        <ele>1254.1999511719</ele>
        <time>2021-10-16T04:47:58.000Z</time>
      </trkpt>
      <trkpt lat="45.23604" lon="5.75954">
        <ele>1254.1999511719</ele>
        <time>2021-10-16T04:47:59.000Z</time>
      </trkpt>
      <trkpt lat="45.23606" lon="5.75953">
        <ele>1254.8000488281</ele>
        <time>2021-10-16T04:48:00.000Z</time>
      </trkpt>
      <trkpt lat="45.23611" lon="5.75951">
        <ele>1256</ele>
        <time>2021-10-16T04:48:03.000Z</time>
      </trkpt>
      <trkpt lat="45.23613" lon="5.7595">
        <ele>1256</ele>
        <time>2021-10-16T04:48:04.000Z</time>
      </trkpt>
      <trkpt lat="45.23619" lon="5.75947">
        <ele>1257.4000244141</ele>
        <time>2021-10-16T04:48:09.000Z</time>
      </trkpt>
      <trkpt lat="45.23622" lon="5.75945">
        <ele>1258.1999511719</ele>
        <time>2021-10-16T04:48:11.000Z</time>
      </trkpt>
      <trkpt lat="45.23624" lon="5.75943">
        <ele>1258.5999755859</ele>
        <time>2021-10-16T04:48:13.000Z</time>
      </trkpt>
      <trkpt lat="45.23624" lon="5.75943">
        <ele>1258.8000488281</ele>
        <time>2021-10-16T04:48:14.000Z</time>
      </trkpt>
      <trkpt lat="45.23626" lon="5.75943">
        <ele>1259.1999511719</ele>
        <time>2021-10-16T04:48:16.000Z</time>
      </trkpt>
      <trkpt lat="45.23627" lon="5.75947">
        <ele>1259.8000488281</ele>
        <time>2021-10-16T04:48:18.000Z</time>
      </trkpt>
      <trkpt lat="45.23627" lon="5.7595">
        <ele>1260.1999511719</ele>
        <time>2021-10-16T04:48:20.000Z</time>
      </trkpt>
      <trkpt lat="45.23627" lon="5.75952">
        <ele>1260.1999511719</ele>
        <time>2021-10-16T04:48:21.000Z</time>
      </trkpt>
      <trkpt lat="45.23625" lon="5.75954">
        <ele>1261.4000244141</ele>
        <time>2021-10-16T04:48:24.000Z</time>
      </trkpt>
      <trkpt lat="45.23625" lon="5.75956">
        <ele>1262</ele>
        <time>2021-10-16T04:48:26.000Z</time>
      </trkpt>
      <trkpt lat="45.23623" lon="5.75959">
        <ele>1262.4000244141</ele>
        <time>2021-10-16T04:48:28.000Z</time>
      </trkpt>
      <trkpt lat="45.23622" lon="5.7596">
        <ele>1262.5999755859</ele>
        <time>2021-10-16T04:48:29.000Z</time>
      </trkpt>
      <trkpt lat="45.23622" lon="5.75961">
        <ele>1263</ele>
        <time>2021-10-16T04:48:30.000Z</time>
      </trkpt>
      <trkpt lat="45.23617" lon="5.75965">
        <ele>1263.5999755859</ele>
        <time>2021-10-16T04:48:35.000Z</time>
      </trkpt>
      <trkpt lat="45.23614" lon="5.7597">
        <ele>1264.4000244141</ele>
        <time>2021-10-16T04:48:39.000Z</time>
      </trkpt>
      <trkpt lat="45.23613" lon="5.75971">
        <ele>1264.5999755859</ele>
        <time>2021-10-16T04:48:40.000Z</time>
      </trkpt>
      <trkpt lat="45.2361" lon="5.75974">
        <ele>1265.4000244141</ele>
        <time>2021-10-16T04:48:43.000Z</time>
      </trkpt>
      <trkpt lat="45.23609" lon="5.75974">
        <ele>1265.8000488281</ele>
        <time>2021-10-16T04:48:44.000Z</time>
      </trkpt>
      <trkpt lat="45.23608" lon="5.75976">
        <ele>1265.8000488281</ele>
        <time>2021-10-16T04:48:45.000Z</time>
      </trkpt>
      <trkpt lat="45.23605" lon="5.75977">
        <ele>1266</ele>
        <time>2021-10-16T04:48:47.000Z</time>
      </trkpt>
      <trkpt lat="45.23601" lon="5.75978">
        <ele>1266.8000488281</ele>
        <time>2021-10-16T04:48:49.000Z</time>
      </trkpt>
      <trkpt lat="45.236" lon="5.75978">
        <ele>1267</ele>
        <time>2021-10-16T04:48:50.000Z</time>
      </trkpt>
      <trkpt lat="45.23598" lon="5.75981">
        <ele>1267.4000244141</ele>
        <time>2021-10-16T04:48:53.000Z</time>
      </trkpt>
      <trkpt lat="45.23597" lon="5.75985">
        <ele>1268.5999755859</ele>
        <time>2021-10-16T04:48:55.000Z</time>
      </trkpt>
      <trkpt lat="45.23594" lon="5.7599">
        <ele>1269.5999755859</ele>
        <time>2021-10-16T04:49:00.000Z</time>
      </trkpt>
      <trkpt lat="45.23591" lon="5.75996">
        <ele>1270.8000488281</ele>
        <time>2021-10-16T04:49:04.000Z</time>
      </trkpt>
      <trkpt lat="45.23592" lon="5.75997">
        <ele>1270.8000488281</ele>
        <time>2021-10-16T04:49:05.000Z</time>
      </trkpt>
      <trkpt lat="45.2359" lon="5.76001">
        <ele>1272.1999511719</ele>
        <time>2021-10-16T04:49:09.000Z</time>
      </trkpt>
      <trkpt lat="45.2359" lon="5.76002">
        <ele>1272.1999511719</ele>
        <time>2021-10-16T04:49:10.000Z</time>
      </trkpt>
      <trkpt lat="45.23587" lon="5.76006">
        <ele>1273.1999511719</ele>
        <time>2021-10-16T04:49:15.000Z</time>
      </trkpt>
      <trkpt lat="45.23587" lon="5.76009">
        <ele>1274.5999755859</ele>
        <time>2021-10-16T04:49:18.000Z</time>
      </trkpt>
      <trkpt lat="45.23586" lon="5.7601">
        <ele>1274.8000488281</ele>
        <time>2021-10-16T04:49:19.000Z</time>
      </trkpt>
      <trkpt lat="45.23584" lon="5.76013">
        <ele>1275</ele>
        <time>2021-10-16T04:49:21.000Z</time>
      </trkpt>
      <trkpt lat="45.23583" lon="5.76018">
        <ele>1276</ele>
        <time>2021-10-16T04:49:25.000Z</time>
      </trkpt>
      <trkpt lat="45.23583" lon="5.76019">
        <ele>1276.4000244141</ele>
        <time>2021-10-16T04:49:26.000Z</time>
      </trkpt>
      <trkpt lat="45.23583" lon="5.7602">
        <ele>1277</ele>
        <time>2021-10-16T04:49:27.000Z</time>
      </trkpt>
      <trkpt lat="45.23579" lon="5.76022">
        <ele>1277.8000488281</ele>
        <time>2021-10-16T04:49:31.000Z</time>
      </trkpt>
      <trkpt lat="45.23578" lon="5.76024">
        <ele>1277.8000488281</ele>
        <time>2021-10-16T04:49:32.000Z</time>
      </trkpt>
      <trkpt lat="45.23578" lon="5.76026">
        <ele>1278.1999511719</ele>
        <time>2021-10-16T04:49:33.000Z</time>
      </trkpt>
      <trkpt lat="45.23576" lon="5.7603">
        <ele>1279</ele>
        <time>2021-10-16T04:49:35.000Z</time>
      </trkpt>
      <trkpt lat="45.23575" lon="5.7603">
        <ele>1279.1999511719</ele>
        <time>2021-10-16T04:49:36.000Z</time>
      </trkpt>
      <trkpt lat="45.23572" lon="5.76031">
        <ele>1279.8000488281</ele>
        <time>2021-10-16T04:49:38.000Z</time>
      </trkpt>
      <trkpt lat="45.23569" lon="5.76032">
        <ele>1280.1999511719</ele>
        <time>2021-10-16T04:49:41.000Z</time>
      </trkpt>
      <trkpt lat="45.23568" lon="5.76035">
        <ele>1281</ele>
        <time>2021-10-16T04:49:44.000Z</time>
      </trkpt>
      <trkpt lat="45.23567" lon="5.76037">
        <ele>1282</ele>
        <time>2021-10-16T04:49:46.000Z</time>
      </trkpt>
      <trkpt lat="45.23563" lon="5.76041">
        <ele>1282.4000244141</ele>
        <time>2021-10-16T04:49:50.000Z</time>
      </trkpt>
      <trkpt lat="45.23563" lon="5.76042">
        <ele>1282.8000488281</ele>
        <time>2021-10-16T04:49:51.000Z</time>
      </trkpt>
      <trkpt lat="45.23562" lon="5.76043">
        <ele>1283.4000244141</ele>
        <time>2021-10-16T04:49:52.000Z</time>
      </trkpt>
      <trkpt lat="45.23559" lon="5.7605">
        <ele>1284.4000244141</ele>
        <time>2021-10-16T04:49:56.000Z</time>
      </trkpt>
      <trkpt lat="45.23559" lon="5.76053">
        <ele>1285.1999511719</ele>
        <time>2021-10-16T04:49:58.000Z</time>
      </trkpt>
      <trkpt lat="45.23558" lon="5.76055">
        <ele>1285.5999755859</ele>
        <time>2021-10-16T04:50:00.000Z</time>
      </trkpt>
      <trkpt lat="45.23557" lon="5.76058">
        <ele>1286.8000488281</ele>
        <time>2021-10-16T04:50:02.000Z</time>
      </trkpt>
      <trkpt lat="45.23556" lon="5.76059">
        <ele>1286.8000488281</ele>
        <time>2021-10-16T04:50:03.000Z</time>
      </trkpt>
      <trkpt lat="45.23555" lon="5.76059">
        <ele>1287.4000244141</ele>
        <time>2021-10-16T04:50:04.000Z</time>
      </trkpt>
      <trkpt lat="45.23554" lon="5.76061">
        <ele>1287.8000488281</ele>
        <time>2021-10-16T04:50:07.000Z</time>
      </trkpt>
      <trkpt lat="45.23553" lon="5.76062">
        <ele>1288</ele>
        <time>2021-10-16T04:50:08.000Z</time>
      </trkpt>
      <trkpt lat="45.23551" lon="5.76063">
        <ele>1288.8000488281</ele>
        <time>2021-10-16T04:50:09.000Z</time>
      </trkpt>
      <trkpt lat="45.23551" lon="5.76063">
        <ele>1289.4000244141</ele>
        <time>2021-10-16T04:50:10.000Z</time>
      </trkpt>
      <trkpt lat="45.2355" lon="5.76067">
        <ele>1290</ele>
        <time>2021-10-16T04:50:14.000Z</time>
      </trkpt>
      <trkpt lat="45.2355" lon="5.76068">
        <ele>1290.8000488281</ele>
        <time>2021-10-16T04:50:15.000Z</time>
      </trkpt>
      <trkpt lat="45.23551" lon="5.76068">
        <ele>1290.8000488281</ele>
        <time>2021-10-16T04:50:16.000Z</time>
      </trkpt>
      <trkpt lat="45.23553" lon="5.76067">
        <ele>1291.1999511719</ele>
        <time>2021-10-16T04:50:19.000Z</time>
      </trkpt>
      <trkpt lat="45.23554" lon="5.76064">
        <ele>1292</ele>
        <time>2021-10-16T04:50:22.000Z</time>
      </trkpt>
      <trkpt lat="45.23556" lon="5.76062">
        <ele>1293.1999511719</ele>
        <time>2021-10-16T04:50:25.000Z</time>
      </trkpt>
      <trkpt lat="45.23558" lon="5.7606">
        <ele>1293.8000488281</ele>
        <time>2021-10-16T04:50:27.000Z</time>
      </trkpt>
      <trkpt lat="45.23562" lon="5.76058">
        <ele>1294.4000244141</ele>
        <time>2021-10-16T04:50:31.000Z</time>
      </trkpt>
      <trkpt lat="45.23562" lon="5.76059">
        <ele>1294.8000488281</ele>
        <time>2021-10-16T04:50:33.000Z</time>
      </trkpt>
      <trkpt lat="45.23563" lon="5.76059">
        <ele>1295.1999511719</ele>
        <time>2021-10-16T04:50:34.000Z</time>
      </trkpt>
      <trkpt lat="45.23563" lon="5.76058">
        <ele>1295.8000488281</ele>
        <time>2021-10-16T04:50:35.000Z</time>
      </trkpt>
      <trkpt lat="45.23564" lon="5.76057">
        <ele>1296.4000244141</ele>
        <time>2021-10-16T04:50:38.000Z</time>
      </trkpt>
      <trkpt lat="45.23566" lon="5.76055">
        <ele>1297</ele>
        <time>2021-10-16T04:50:40.000Z</time>
      </trkpt>
      <trkpt lat="45.23567" lon="5.76055">
        <ele>1297.4000244141</ele>
        <time>2021-10-16T04:50:41.000Z</time>
      </trkpt>
      <trkpt lat="45.2357" lon="5.76056">
        <ele>1297.4000244141</ele>
        <time>2021-10-16T04:50:44.000Z</time>
      </trkpt>
      <trkpt lat="45.23571" lon="5.76056">
        <ele>1298</ele>
        <time>2021-10-16T04:50:46.000Z</time>
      </trkpt>
      <trkpt lat="45.23575" lon="5.76054">
        <ele>1299.1999511719</ele>
        <time>2021-10-16T04:50:50.000Z</time>
      </trkpt>
      <trkpt lat="45.23576" lon="5.76054">
        <ele>1299.5999755859</ele>
        <time>2021-10-16T04:50:51.000Z</time>
      </trkpt>
      <trkpt lat="45.23577" lon="5.76054">
        <ele>1300</ele>
        <time>2021-10-16T04:50:52.000Z</time>
      </trkpt>
      <trkpt lat="45.23578" lon="5.76054">
        <ele>1300.1999511719</ele>
        <time>2021-10-16T04:50:53.000Z</time>
      </trkpt>
      <trkpt lat="45.23581" lon="5.76054">
        <ele>1300.5999755859</ele>
        <time>2021-10-16T04:50:55.000Z</time>
      </trkpt>
      <trkpt lat="45.23581" lon="5.76055">
        <ele>1301.1999511719</ele>
        <time>2021-10-16T04:50:56.000Z</time>
      </trkpt>
      <trkpt lat="45.23581" lon="5.76057">
        <ele>1301.8000488281</ele>
        <time>2021-10-16T04:50:58.000Z</time>
      </trkpt>
      <trkpt lat="45.23581" lon="5.76058">
        <ele>1301.8000488281</ele>
        <time>2021-10-16T04:50:59.000Z</time>
      </trkpt>
      <trkpt lat="45.23579" lon="5.76059">
        <ele>1302.8000488281</ele>
        <time>2021-10-16T04:51:01.000Z</time>
      </trkpt>
      <trkpt lat="45.23578" lon="5.7606">
        <ele>1302.8000488281</ele>
        <time>2021-10-16T04:51:02.000Z</time>
      </trkpt>
      <trkpt lat="45.23578" lon="5.76064">
        <ele>1303</ele>
        <time>2021-10-16T04:51:04.000Z</time>
      </trkpt>
      <trkpt lat="45.23577" lon="5.76065">
        <ele>1303.8000488281</ele>
        <time>2021-10-16T04:51:06.000Z</time>
      </trkpt>
      <trkpt lat="45.23576" lon="5.76066">
        <ele>1304.1999511719</ele>
        <time>2021-10-16T04:51:08.000Z</time>
      </trkpt>
      <trkpt lat="45.23575" lon="5.76067">
        <ele>1304.4000244141</ele>
        <time>2021-10-16T04:51:09.000Z</time>
      </trkpt>
      <trkpt lat="45.2357" lon="5.76069">
        <ele>1305.1999511719</ele>
        <time>2021-10-16T04:51:14.000Z</time>
      </trkpt>
      <trkpt lat="45.2357" lon="5.7607">
        <ele>1305.8000488281</ele>
        <time>2021-10-16T04:51:15.000Z</time>
      </trkpt>
      <trkpt lat="45.23568" lon="5.76073">
        <ele>1306.1999511719</ele>
        <time>2021-10-16T04:51:17.000Z</time>
      </trkpt>
      <trkpt lat="45.23567" lon="5.76074">
        <ele>1306.5999755859</ele>
        <time>2021-10-16T04:51:18.000Z</time>
      </trkpt>
      <trkpt lat="45.23565" lon="5.76077">
        <ele>1306.8000488281</ele>
        <time>2021-10-16T04:51:20.000Z</time>
      </trkpt>
      <trkpt lat="45.23563" lon="5.7608">
        <ele>1306.8000488281</ele>
        <time>2021-10-16T04:51:22.000Z</time>
      </trkpt>
      <trkpt lat="45.23561" lon="5.76082">
        <ele>1307.4000244141</ele>
        <time>2021-10-16T04:51:24.000Z</time>
      </trkpt>
      <trkpt lat="45.23559" lon="5.76084">
        <ele>1308.5999755859</ele>
        <time>2021-10-16T04:51:27.000Z</time>
      </trkpt>
      <trkpt lat="45.23555" lon="5.7609">
        <ele>1309.8000488281</ele>
        <time>2021-10-16T04:51:32.000Z</time>
      </trkpt>
      <trkpt lat="45.23554" lon="5.76091">
        <ele>1310</ele>
        <time>2021-10-16T04:51:33.000Z</time>
      </trkpt>
      <trkpt lat="45.23553" lon="5.76094">
        <ele>1310.4000244141</ele>
        <time>2021-10-16T04:51:35.000Z</time>
      </trkpt>
      <trkpt lat="45.23552" lon="5.76096">
        <ele>1310.8000488281</ele>
        <time>2021-10-16T04:51:36.000Z</time>
      </trkpt>
      <trkpt lat="45.23551" lon="5.76099">
        <ele>1311.4000244141</ele>
        <time>2021-10-16T04:51:39.000Z</time>
      </trkpt>
      <trkpt lat="45.23548" lon="5.761">
        <ele>1312</ele>
        <time>2021-10-16T04:51:41.000Z</time>
      </trkpt>
      <trkpt lat="45.23547" lon="5.76101">
        <ele>1312.1999511719</ele>
        <time>2021-10-16T04:51:42.000Z</time>
      </trkpt>
      <trkpt lat="45.23545" lon="5.76104">
        <ele>1312.5999755859</ele>
        <time>2021-10-16T04:51:44.000Z</time>
      </trkpt>
      <trkpt lat="45.23545" lon="5.76105">
        <ele>1312.8000488281</ele>
        <time>2021-10-16T04:51:45.000Z</time>
      </trkpt>
      <trkpt lat="45.23545" lon="5.76105">
        <ele>1313.5999755859</ele>
        <time>2021-10-16T04:51:46.000Z</time>
      </trkpt>
      <trkpt lat="45.23547" lon="5.76106">
        <ele>1313.5999755859</ele>
        <time>2021-10-16T04:51:48.000Z</time>
      </trkpt>
      <trkpt lat="45.2355" lon="5.76106">
        <ele>1314.4000244141</ele>
        <time>2021-10-16T04:51:50.000Z</time>
      </trkpt>
      <trkpt lat="45.23553" lon="5.76105">
        <ele>1314.8000488281</ele>
        <time>2021-10-16T04:51:53.000Z</time>
      </trkpt>
      <trkpt lat="45.23557" lon="5.76103">
        <ele>1315.4000244141</ele>
        <time>2021-10-16T04:51:57.000Z</time>
      </trkpt>
      <trkpt lat="45.23557" lon="5.76102">
        <ele>1315.5999755859</ele>
        <time>2021-10-16T04:51:58.000Z</time>
      </trkpt>
      <trkpt lat="45.23558" lon="5.76101">
        <ele>1316.4000244141</ele>
        <time>2021-10-16T04:51:59.000Z</time>
      </trkpt>
      <trkpt lat="45.2356" lon="5.76101">
        <ele>1316.8000488281</ele>
        <time>2021-10-16T04:52:01.000Z</time>
      </trkpt>
      <trkpt lat="45.23564" lon="5.76102">
        <ele>1317.4000244141</ele>
        <time>2021-10-16T04:52:05.000Z</time>
      </trkpt>
      <trkpt lat="45.23568" lon="5.76101">
        <ele>1318.8000488281</ele>
        <time>2021-10-16T04:52:09.000Z</time>
      </trkpt>
      <trkpt lat="45.23569" lon="5.761">
        <ele>1318.8000488281</ele>
        <time>2021-10-16T04:52:10.000Z</time>
      </trkpt>
      <trkpt lat="45.23574" lon="5.76099">
        <ele>1320.1999511719</ele>
        <time>2021-10-16T04:52:14.000Z</time>
      </trkpt>
      <trkpt lat="45.23576" lon="5.76098">
        <ele>1320.4000244141</ele>
        <time>2021-10-16T04:52:16.000Z</time>
      </trkpt>
      <trkpt lat="45.23576" lon="5.76098">
        <ele>1321</ele>
        <time>2021-10-16T04:52:17.000Z</time>
      </trkpt>
      <trkpt lat="45.23577" lon="5.76099">
        <ele>1321</ele>
        <time>2021-10-16T04:52:18.000Z</time>
      </trkpt>
      <trkpt lat="45.23575" lon="5.76101">
        <ele>1321.1999511719</ele>
        <time>2021-10-16T04:52:20.000Z</time>
      </trkpt>
      <trkpt lat="45.23574" lon="5.76102">
        <ele>1321.1999511719</ele>
        <time>2021-10-16T04:52:21.000Z</time>
      </trkpt>
      <trkpt lat="45.23573" lon="5.76103">
        <ele>1321.4000244141</ele>
        <time>2021-10-16T04:52:22.000Z</time>
      </trkpt>
      <trkpt lat="45.23571" lon="5.76105">
        <ele>1322.1999511719</ele>
        <time>2021-10-16T04:52:24.000Z</time>
      </trkpt>
      <trkpt lat="45.23569" lon="5.76106">
        <ele>1322.5999755859</ele>
        <time>2021-10-16T04:52:26.000Z</time>
      </trkpt>
      <trkpt lat="45.23568" lon="5.76109">
        <ele>1323.1999511719</ele>
        <time>2021-10-16T04:52:28.000Z</time>
      </trkpt>
      <trkpt lat="45.23568" lon="5.76115">
        <ele>1323.4000244141</ele>
        <time>2021-10-16T04:52:30.000Z</time>
      </trkpt>
      <trkpt lat="45.23567" lon="5.76116">
        <ele>1323.8000488281</ele>
        <time>2021-10-16T04:52:31.000Z</time>
      </trkpt>
      <trkpt lat="45.23566" lon="5.76117">
        <ele>1324.1999511719</ele>
        <time>2021-10-16T04:52:32.000Z</time>
      </trkpt>
      <trkpt lat="45.2356" lon="5.76116">
        <ele>1325</ele>
        <time>2021-10-16T04:52:36.000Z</time>
      </trkpt>
      <trkpt lat="45.23558" lon="5.76117">
        <ele>1325.8000488281</ele>
        <time>2021-10-16T04:52:38.000Z</time>
      </trkpt>
      <trkpt lat="45.23556" lon="5.76117">
        <ele>1326.1999511719</ele>
        <time>2021-10-16T04:52:40.000Z</time>
      </trkpt>
      <trkpt lat="45.23553" lon="5.76118">
        <ele>1326.4000244141</ele>
        <time>2021-10-16T04:52:42.000Z</time>
      </trkpt>
      <trkpt lat="45.23552" lon="5.7612">
        <ele>1327</ele>
        <time>2021-10-16T04:52:44.000Z</time>
      </trkpt>
      <trkpt lat="45.23552" lon="5.76121">
        <ele>1327</ele>
        <time>2021-10-16T04:52:45.000Z</time>
      </trkpt>
      <trkpt lat="45.2355" lon="5.76123">
        <ele>1328</ele>
        <time>2021-10-16T04:52:47.000Z</time>
      </trkpt>
      <trkpt lat="45.23549" lon="5.76124">
        <ele>1328.1999511719</ele>
        <time>2021-10-16T04:52:48.000Z</time>
      </trkpt>
      <trkpt lat="45.23546" lon="5.76126">
        <ele>1328.5999755859</ele>
        <time>2021-10-16T04:52:50.000Z</time>
      </trkpt>
      <trkpt lat="45.23543" lon="5.76129">
        <ele>1329.5999755859</ele>
        <time>2021-10-16T04:52:54.000Z</time>
      </trkpt>
      <trkpt lat="45.23541" lon="5.7613">
        <ele>1329.5999755859</ele>
        <time>2021-10-16T04:52:56.000Z</time>
      </trkpt>
      <trkpt lat="45.23536" lon="5.76133">
        <ele>1330.5999755859</ele>
        <time>2021-10-16T04:53:00.000Z</time>
      </trkpt>
      <trkpt lat="45.23534" lon="5.76134">
        <ele>1330.8000488281</ele>
        <time>2021-10-16T04:53:01.000Z</time>
      </trkpt>
      <trkpt lat="45.23531" lon="5.76135">
        <ele>1331.8000488281</ele>
        <time>2021-10-16T04:53:05.000Z</time>
      </trkpt>
      <trkpt lat="45.2353" lon="5.76136">
        <ele>1332</ele>
        <time>2021-10-16T04:53:06.000Z</time>
      </trkpt>
      <trkpt lat="45.23531" lon="5.76139">
        <ele>1332.4000244141</ele>
        <time>2021-10-16T04:53:09.000Z</time>
      </trkpt>
      <trkpt lat="45.23533" lon="5.76141">
        <ele>1332.5999755859</ele>
        <time>2021-10-16T04:53:11.000Z</time>
      </trkpt>
      <trkpt lat="45.23534" lon="5.76142">
        <ele>1332.8000488281</ele>
        <time>2021-10-16T04:53:12.000Z</time>
      </trkpt>
      <trkpt lat="45.23535" lon="5.76142">
        <ele>1333</ele>
        <time>2021-10-16T04:53:13.000Z</time>
      </trkpt>
      <trkpt lat="45.23535" lon="5.7614">
        <ele>1334.5999755859</ele>
        <time>2021-10-16T04:53:15.000Z</time>
      </trkpt>
      <trkpt lat="45.23536" lon="5.76139">
        <ele>1334.5999755859</ele>
        <time>2021-10-16T04:53:16.000Z</time>
      </trkpt>
      <trkpt lat="45.23536" lon="5.76139">
        <ele>1335</ele>
        <time>2021-10-16T04:53:17.000Z</time>
      </trkpt>
      <trkpt lat="45.23538" lon="5.76138">
        <ele>1336.4000244141</ele>
        <time>2021-10-16T04:53:19.000Z</time>
      </trkpt>
      <trkpt lat="45.23538" lon="5.76138">
        <ele>1337</ele>
        <time>2021-10-16T04:53:21.000Z</time>
      </trkpt>
      <trkpt lat="45.23539" lon="5.76138">
        <ele>1337.8000488281</ele>
        <time>2021-10-16T04:53:23.000Z</time>
      </trkpt>
      <trkpt lat="45.23541" lon="5.76136">
        <ele>1338.8000488281</ele>
        <time>2021-10-16T04:53:25.000Z</time>
      </trkpt>
      <trkpt lat="45.23544" lon="5.76135">
        <ele>1338.8000488281</ele>
        <time>2021-10-16T04:53:27.000Z</time>
      </trkpt>
      <trkpt lat="45.23548" lon="5.76134">
        <ele>1338.8000488281</ele>
        <time>2021-10-16T04:53:31.000Z</time>
      </trkpt>
      <trkpt lat="45.23548" lon="5.76134">
        <ele>1339.4000244141</ele>
        <time>2021-10-16T04:53:34.000Z</time>
      </trkpt>
      <trkpt lat="45.23547" lon="5.76134">
        <ele>1339.5999755859</ele>
        <time>2021-10-16T04:53:35.000Z</time>
      </trkpt>
      <trkpt lat="45.23547" lon="5.76134">
        <ele>1340.4000244141</ele>
        <time>2021-10-16T04:53:36.000Z</time>
      </trkpt>
      <trkpt lat="45.23548" lon="5.76137">
        <ele>1341</ele>
        <time>2021-10-16T04:53:38.000Z</time>
      </trkpt>
      <trkpt lat="45.23548" lon="5.7614">
        <ele>1342</ele>
        <time>2021-10-16T04:53:42.000Z</time>
      </trkpt>
      <trkpt lat="45.23548" lon="5.76142">
        <ele>1342.8000488281</ele>
        <time>2021-10-16T04:53:44.000Z</time>
      </trkpt>
      <trkpt lat="45.23548" lon="5.76143">
        <ele>1343.4000244141</ele>
        <time>2021-10-16T04:53:45.000Z</time>
      </trkpt>
      <trkpt lat="45.2355" lon="5.76144">
        <ele>1343.8000488281</ele>
        <time>2021-10-16T04:53:48.000Z</time>
      </trkpt>
      <trkpt lat="45.23551" lon="5.76144">
        <ele>1344.1999511719</ele>
        <time>2021-10-16T04:53:49.000Z</time>
      </trkpt>
      <trkpt lat="45.23556" lon="5.76143">
        <ele>1344.5999755859</ele>
        <time>2021-10-16T04:53:53.000Z</time>
      </trkpt>
      <trkpt lat="45.23558" lon="5.76141">
        <ele>1345.4000244141</ele>
        <time>2021-10-16T04:53:55.000Z</time>
      </trkpt>
      <trkpt lat="45.2356" lon="5.76139">
        <ele>1345.5999755859</ele>
        <time>2021-10-16T04:53:58.000Z</time>
      </trkpt>
      <trkpt lat="45.23563" lon="5.76138">
        <ele>1346</ele>
        <time>2021-10-16T04:54:00.000Z</time>
      </trkpt>
      <trkpt lat="45.23569" lon="5.76135">
        <ele>1345.8000488281</ele>
        <time>2021-10-16T04:54:05.000Z</time>
      </trkpt>
      <trkpt lat="45.23573" lon="5.76132">
        <ele>1345.8000488281</ele>
        <time>2021-10-16T04:54:08.000Z</time>
      </trkpt>
      <trkpt lat="45.2358" lon="5.76131">
        <ele>1346</ele>
        <time>2021-10-16T04:54:12.000Z</time>
      </trkpt>
      <trkpt lat="45.23583" lon="5.7613">
        <ele>1346.4000244141</ele>
        <time>2021-10-16T04:54:15.000Z</time>
      </trkpt>
      <trkpt lat="45.23586" lon="5.76128">
        <ele>1346.4000244141</ele>
        <time>2021-10-16T04:54:18.000Z</time>
      </trkpt>
      <trkpt lat="45.23587" lon="5.76127">
        <ele>1346.5999755859</ele>
        <time>2021-10-16T04:54:19.000Z</time>
      </trkpt>
      <trkpt lat="45.2359" lon="5.76124">
        <ele>1347</ele>
        <time>2021-10-16T04:54:23.000Z</time>
      </trkpt>
      <trkpt lat="45.23592" lon="5.76124">
        <ele>1347.1999511719</ele>
        <time>2021-10-16T04:54:25.000Z</time>
      </trkpt>
      <trkpt lat="45.23594" lon="5.76122">
        <ele>1347.5999755859</ele>
        <time>2021-10-16T04:54:27.000Z</time>
      </trkpt>
      <trkpt lat="45.23597" lon="5.76119">
        <ele>1348.4000244141</ele>
        <time>2021-10-16T04:54:31.000Z</time>
      </trkpt>
      <trkpt lat="45.23597" lon="5.76118">
        <ele>1348.4000244141</ele>
        <time>2021-10-16T04:54:32.000Z</time>
      </trkpt>
      <trkpt lat="45.23598" lon="5.76117">
        <ele>1348.5999755859</ele>
        <time>2021-10-16T04:54:33.000Z</time>
      </trkpt>
      <trkpt lat="45.23598" lon="5.76116">
        <ele>1349</ele>
        <time>2021-10-16T04:54:34.000Z</time>
      </trkpt>
      <trkpt lat="45.23598" lon="5.76116">
        <ele>1349.1999511719</ele>
        <time>2021-10-16T04:54:35.000Z</time>
      </trkpt>
      <trkpt lat="45.236" lon="5.76117">
        <ele>1350.4000244141</ele>
        <time>2021-10-16T04:54:37.000Z</time>
      </trkpt>
      <trkpt lat="45.23601" lon="5.76116">
        <ele>1350.4000244141</ele>
        <time>2021-10-16T04:54:38.000Z</time>
      </trkpt>
      <trkpt lat="45.23604" lon="5.76113">
        <ele>1351</ele>
        <time>2021-10-16T04:54:43.000Z</time>
      </trkpt>
      <trkpt lat="45.23605" lon="5.76112">
        <ele>1352</ele>
        <time>2021-10-16T04:54:44.000Z</time>
      </trkpt>
      <trkpt lat="45.23607" lon="5.76111">
        <ele>1352.4000244141</ele>
        <time>2021-10-16T04:54:47.000Z</time>
      </trkpt>
      <trkpt lat="45.23608" lon="5.76109">
        <ele>1353</ele>
        <time>2021-10-16T04:54:49.000Z</time>
      </trkpt>
      <trkpt lat="45.2361" lon="5.76107">
        <ele>1353.5999755859</ele>
        <time>2021-10-16T04:54:51.000Z</time>
      </trkpt>
      <trkpt lat="45.2362" lon="5.76101">
        <ele>1353.5999755859</ele>
        <time>2021-10-16T04:54:58.000Z</time>
      </trkpt>
      <trkpt lat="45.23629" lon="5.76097">
        <ele>1353.1999511719</ele>
        <time>2021-10-16T04:55:05.000Z</time>
      </trkpt>
      <trkpt lat="45.23635" lon="5.76096">
        <ele>1354</ele>
        <time>2021-10-16T04:55:10.000Z</time>
      </trkpt>
      <trkpt lat="45.23636" lon="5.76096">
        <ele>1354</ele>
        <time>2021-10-16T04:55:11.000Z</time>
      </trkpt>
      <trkpt lat="45.23643" lon="5.76091">
        <ele>1355</ele>
        <time>2021-10-16T04:55:16.000Z</time>
      </trkpt>
      <trkpt lat="45.23645" lon="5.76091">
        <ele>1355</ele>
        <time>2021-10-16T04:55:19.000Z</time>
      </trkpt>
      <trkpt lat="45.2365" lon="5.76087">
        <ele>1355.4000244141</ele>
        <time>2021-10-16T04:55:21.000Z</time>
      </trkpt>
      <trkpt lat="45.23657" lon="5.76081">
        <ele>1355.8000488281</ele>
        <time>2021-10-16T04:55:26.000Z</time>
      </trkpt>
      <trkpt lat="45.23659" lon="5.76082">
        <ele>1356</ele>
        <time>2021-10-16T04:55:27.000Z</time>
      </trkpt>
      <trkpt lat="45.23661" lon="5.76082">
        <ele>1356.8000488281</ele>
        <time>2021-10-16T04:55:28.000Z</time>
      </trkpt>
      <trkpt lat="45.23665" lon="5.76079">
        <ele>1358</ele>
        <time>2021-10-16T04:55:32.000Z</time>
      </trkpt>
      <trkpt lat="45.23666" lon="5.76078">
        <ele>1358.1999511719</ele>
        <time>2021-10-16T04:55:33.000Z</time>
      </trkpt>
      <trkpt lat="45.23669" lon="5.76077">
        <ele>1359.1999511719</ele>
        <time>2021-10-16T04:55:37.000Z</time>
      </trkpt>
      <trkpt lat="45.2367" lon="5.76077">
        <ele>1359.1999511719</ele>
        <time>2021-10-16T04:55:39.000Z</time>
      </trkpt>
      <trkpt lat="45.23673" lon="5.76072">
        <ele>1360</ele>
        <time>2021-10-16T04:55:44.000Z</time>
      </trkpt>
      <trkpt lat="45.23673" lon="5.76072">
        <ele>1360.4000244141</ele>
        <time>2021-10-16T04:55:45.000Z</time>
      </trkpt>
      <trkpt lat="45.23674" lon="5.76071">
        <ele>1361.1999511719</ele>
        <time>2021-10-16T04:55:47.000Z</time>
      </trkpt>
      <trkpt lat="45.23674" lon="5.7607">
        <ele>1361.5999755859</ele>
        <time>2021-10-16T04:55:49.000Z</time>
      </trkpt>
      <trkpt lat="45.23675" lon="5.76068">
        <ele>1362.4000244141</ele>
        <time>2021-10-16T04:55:52.000Z</time>
      </trkpt>
      <trkpt lat="45.23676" lon="5.76068">
        <ele>1362.5999755859</ele>
        <time>2021-10-16T04:55:53.000Z</time>
      </trkpt>
      <trkpt lat="45.23677" lon="5.76064">
        <ele>1363.5999755859</ele>
        <time>2021-10-16T04:55:57.000Z</time>
      </trkpt>
      <trkpt lat="45.23677" lon="5.76064">
        <ele>1363.8000488281</ele>
        <time>2021-10-16T04:55:58.000Z</time>
      </trkpt>
      <trkpt lat="45.23679" lon="5.76062">
        <ele>1363.8000488281</ele>
        <time>2021-10-16T04:56:02.000Z</time>
      </trkpt>
      <trkpt lat="45.2368" lon="5.76063">
        <ele>1363.8000488281</ele>
        <time>2021-10-16T04:56:04.000Z</time>
      </trkpt>
      <trkpt lat="45.23681" lon="5.76064">
        <ele>1363.8000488281</ele>
        <time>2021-10-16T04:56:13.000Z</time>
      </trkpt>
      <trkpt lat="45.2368" lon="5.76064">
        <ele>1363.4000244141</ele>
        <time>2021-10-16T04:56:22.000Z</time>
      </trkpt>
      <trkpt lat="45.2368" lon="5.76064">
        <ele>1363.4000244141</ele>
        <time>2021-10-16T04:56:33.000Z</time>
      </trkpt>
      <trkpt lat="45.2368" lon="5.76064">
        <ele>1363.5999755859</ele>
        <time>2021-10-16T04:56:36.000Z</time>
      </trkpt>
      <trkpt lat="45.2368" lon="5.76064">
        <ele>1363.4000244141</ele>
        <time>2021-10-16T04:56:40.000Z</time>
      </trkpt>
      <trkpt lat="45.2368" lon="5.76064">
        <ele>1363.1999511719</ele>
        <time>2021-10-16T04:56:43.000Z</time>
      </trkpt>
      <trkpt lat="45.23681" lon="5.76064">
        <ele>1363</ele>
        <time>2021-10-16T04:56:45.000Z</time>
      </trkpt>
      <trkpt lat="45.23681" lon="5.76064">
        <ele>1363</ele>
        <time>2021-10-16T04:56:48.000Z</time>
      </trkpt>
      <trkpt lat="45.23681" lon="5.76064">
        <ele>1362.5999755859</ele>
        <time>2021-10-16T04:57:00.000Z</time>
      </trkpt>
      <trkpt lat="45.23681" lon="5.76064">
        <ele>1362.5999755859</ele>
        <time>2021-10-16T04:57:06.000Z</time>
      </trkpt>
      <trkpt lat="45.23681" lon="5.76064">
        <ele>1362.5999755859</ele>
        <time>2021-10-16T04:57:08.000Z</time>
      </trkpt>
      <trkpt lat="45.23681" lon="5.76064">
        <ele>1362.5999755859</ele>
        <time>2021-10-16T04:57:24.000Z</time>
      </trkpt>
      <trkpt lat="45.23681" lon="5.76064">
        <ele>1362.5999755859</ele>
        <time>2021-10-16T04:57:27.000Z</time>
      </trkpt>
      <trkpt lat="45.23682" lon="5.76064">
        <ele>1362.5999755859</ele>
        <time>2021-10-16T04:57:31.000Z</time>
      </trkpt>
      <trkpt lat="45.23682" lon="5.76064">
        <ele>1362.5999755859</ele>
        <time>2021-10-16T04:57:34.000Z</time>
      </trkpt>
      <trkpt lat="45.23682" lon="5.76064">
        <ele>1362.5999755859</ele>
        <time>2021-10-16T04:57:38.000Z</time>
      </trkpt>
      <trkpt lat="45.23682" lon="5.76064">
        <ele>1362.5999755859</ele>
        <time>2021-10-16T04:57:45.000Z</time>
      </trkpt>
      <trkpt lat="45.23682" lon="5.76064">
        <ele>1362.5999755859</ele>
        <time>2021-10-16T04:57:47.000Z</time>
      </trkpt>
      <trkpt lat="45.23682" lon="5.76064">
        <ele>1362.5999755859</ele>
        <time>2021-10-16T04:57:51.000Z</time>
      </trkpt>
      <trkpt lat="45.23682" lon="5.76063">
        <ele>1362.5999755859</ele>
        <time>2021-10-16T04:57:56.000Z</time>
      </trkpt>
      <trkpt lat="45.23682" lon="5.76063">
        <ele>1362.5999755859</ele>
        <time>2021-10-16T04:58:03.000Z</time>
      </trkpt>
      <trkpt lat="45.23682" lon="5.76063">
        <ele>1362.5999755859</ele>
        <time>2021-10-16T04:58:14.000Z</time>
      </trkpt>
      <trkpt lat="45.23682" lon="5.76063">
        <ele>1362.5999755859</ele>
        <time>2021-10-16T04:58:22.000Z</time>
      </trkpt>
      <trkpt lat="45.23681" lon="5.76064">
        <ele>1362.5999755859</ele>
        <time>2021-10-16T04:58:38.000Z</time>
      </trkpt>
      <trkpt lat="45.23681" lon="5.76064">
        <ele>1362.5999755859</ele>
        <time>2021-10-16T04:59:03.000Z</time>
      </trkpt>
      <trkpt lat="45.23681" lon="5.76064">
        <ele>1362.5999755859</ele>
        <time>2021-10-16T04:59:12.000Z</time>
      </trkpt>
      <trkpt lat="45.23681" lon="5.76064">
        <ele>1362.5999755859</ele>
        <time>2021-10-16T04:59:23.000Z</time>
      </trkpt>
      <trkpt lat="45.23681" lon="5.76064">
        <ele>1362.5999755859</ele>
        <time>2021-10-16T04:59:26.000Z</time>
      </trkpt>
      <trkpt lat="45.23681" lon="5.76064">
        <ele>1362.5999755859</ele>
        <time>2021-10-16T04:59:37.000Z</time>
      </trkpt>
      <trkpt lat="45.23682" lon="5.76064">
        <ele>1362.5999755859</ele>
        <time>2021-10-16T04:59:46.000Z</time>
      </trkpt>
      <trkpt lat="45.23682" lon="5.76064">
        <ele>1362.5999755859</ele>
        <time>2021-10-16T04:59:49.000Z</time>
      </trkpt>
      <trkpt lat="45.23682" lon="5.76064">
        <ele>1362.5999755859</ele>
        <time>2021-10-16T04:59:54.000Z</time>
      </trkpt>
      <trkpt lat="45.23682" lon="5.76064">
        <ele>1362.5999755859</ele>
        <time>2021-10-16T04:59:56.000Z</time>
      </trkpt>
      <trkpt lat="45.23682" lon="5.76064">
        <ele>1362.5999755859</ele>
        <time>2021-10-16T04:59:58.000Z</time>
      </trkpt>
      <trkpt lat="45.23682" lon="5.76064">
        <ele>1362.5999755859</ele>
        <time>2021-10-16T05:00:00.000Z</time>
      </trkpt>
      <trkpt lat="45.23682" lon="5.76064">
        <ele>1362.5999755859</ele>
        <time>2021-10-16T05:00:13.000Z</time>
      </trkpt>
      <trkpt lat="45.23682" lon="5.76064">
        <ele>1362.5999755859</ele>
        <time>2021-10-16T05:00:17.000Z</time>
      </trkpt>
      <trkpt lat="45.23682" lon="5.76064">
        <ele>1362.5999755859</ele>
        <time>2021-10-16T05:00:18.000Z</time>
      </trkpt>
      <trkpt lat="45.23682" lon="5.76064">
        <ele>1362.5999755859</ele>
        <time>2021-10-16T05:00:27.000Z</time>
      </trkpt>
      <trkpt lat="45.23678" lon="5.76072">
        <ele>1362.5999755859</ele>
        <time>2021-10-16T05:00:38.000Z</time>
      </trkpt>
      <trkpt lat="45.23671" lon="5.7608">
        <ele>1362.5999755859</ele>
        <time>2021-10-16T05:00:44.000Z</time>
      </trkpt>
      <trkpt lat="45.23669" lon="5.7608">
        <ele>1362.5999755859</ele>
        <time>2021-10-16T05:00:47.000Z</time>
      </trkpt>
      <trkpt lat="45.23668" lon="5.76081">
        <ele>1362.5999755859</ele>
        <time>2021-10-16T05:00:49.000Z</time>
      </trkpt>
      <trkpt lat="45.23663" lon="5.76084">
        <ele>1362.5999755859</ele>
        <time>2021-10-16T05:00:53.000Z</time>
      </trkpt>
      <trkpt lat="45.2366" lon="5.76087">
        <ele>1361.5999755859</ele>
        <time>2021-10-16T05:00:58.000Z</time>
      </trkpt>
      <trkpt lat="45.23659" lon="5.76088">
        <ele>1361.5999755859</ele>
        <time>2021-10-16T05:00:59.000Z</time>
      </trkpt>
      <trkpt lat="45.23657" lon="5.76089">
        <ele>1360.4000244141</ele>
        <time>2021-10-16T05:01:01.000Z</time>
      </trkpt>
      <trkpt lat="45.23652" lon="5.7609">
        <ele>1360</ele>
        <time>2021-10-16T05:01:04.000Z</time>
      </trkpt>
      <trkpt lat="45.2365" lon="5.76091">
        <ele>1359.8000488281</ele>
        <time>2021-10-16T05:01:06.000Z</time>
      </trkpt>
      <trkpt lat="45.23646" lon="5.76095">
        <ele>1359</ele>
        <time>2021-10-16T05:01:09.000Z</time>
      </trkpt>
      <trkpt lat="45.23642" lon="5.76097">
        <ele>1358.5999755859</ele>
        <time>2021-10-16T05:01:13.000Z</time>
      </trkpt>
      <trkpt lat="45.2364" lon="5.76097">
        <ele>1357.8000488281</ele>
        <time>2021-10-16T05:01:15.000Z</time>
      </trkpt>
      <trkpt lat="45.23637" lon="5.76099">
        <ele>1357.5999755859</ele>
        <time>2021-10-16T05:01:17.000Z</time>
      </trkpt>
      <trkpt lat="45.23634" lon="5.761">
        <ele>1357.1999511719</ele>
        <time>2021-10-16T05:01:19.000Z</time>
      </trkpt>
      <trkpt lat="45.23632" lon="5.761">
        <ele>1357.1999511719</ele>
        <time>2021-10-16T05:01:20.000Z</time>
      </trkpt>
      <trkpt lat="45.23626" lon="5.76102">
        <ele>1357.4000244141</ele>
        <time>2021-10-16T05:01:24.000Z</time>
      </trkpt>
      <trkpt lat="45.23625" lon="5.76102">
        <ele>1357.4000244141</ele>
        <time>2021-10-16T05:01:25.000Z</time>
      </trkpt>
      <trkpt lat="45.23622" lon="5.76105">
        <ele>1357.4000244141</ele>
        <time>2021-10-16T05:01:28.000Z</time>
      </trkpt>
      <trkpt lat="45.2362" lon="5.76106">
        <ele>1357.4000244141</ele>
        <time>2021-10-16T05:01:29.000Z</time>
      </trkpt>
      <trkpt lat="45.23617" lon="5.76108">
        <ele>1356.8000488281</ele>
        <time>2021-10-16T05:01:32.000Z</time>
      </trkpt>
      <trkpt lat="45.23615" lon="5.7611">
        <ele>1356</ele>
        <time>2021-10-16T05:01:34.000Z</time>
      </trkpt>
      <trkpt lat="45.23614" lon="5.76112">
        <ele>1355.4000244141</ele>
        <time>2021-10-16T05:01:35.000Z</time>
      </trkpt>
      <trkpt lat="45.23611" lon="5.76115">
        <ele>1355</ele>
        <time>2021-10-16T05:01:38.000Z</time>
      </trkpt>
      <trkpt lat="45.2361" lon="5.76116">
        <ele>1354.4000244141</ele>
        <time>2021-10-16T05:01:39.000Z</time>
      </trkpt>
      <trkpt lat="45.23609" lon="5.76116">
        <ele>1354.1999511719</ele>
        <time>2021-10-16T05:01:40.000Z</time>
      </trkpt>
      <trkpt lat="45.23607" lon="5.76115">
        <ele>1353.8000488281</ele>
        <time>2021-10-16T05:01:42.000Z</time>
      </trkpt>
      <trkpt lat="45.23607" lon="5.76116">
        <ele>1353.1999511719</ele>
        <time>2021-10-16T05:01:46.000Z</time>
      </trkpt>
      <trkpt lat="45.23606" lon="5.76116">
        <ele>1353</ele>
        <time>2021-10-16T05:01:47.000Z</time>
      </trkpt>
      <trkpt lat="45.23605" lon="5.7612">
        <ele>1352.4000244141</ele>
        <time>2021-10-16T05:01:50.000Z</time>
      </trkpt>
      <trkpt lat="45.23604" lon="5.76121">
        <ele>1352.1999511719</ele>
        <time>2021-10-16T05:01:51.000Z</time>
      </trkpt>
      <trkpt lat="45.23602" lon="5.76121">
        <ele>1351.8000488281</ele>
        <time>2021-10-16T05:01:52.000Z</time>
      </trkpt>
      <trkpt lat="45.23599" lon="5.76124">
        <ele>1351</ele>
        <time>2021-10-16T05:01:55.000Z</time>
      </trkpt>
      <trkpt lat="45.23596" lon="5.76127">
        <ele>1350.5999755859</ele>
        <time>2021-10-16T05:01:57.000Z</time>
      </trkpt>
      <trkpt lat="45.23589" lon="5.76133">
        <ele>1349.5999755859</ele>
        <time>2021-10-16T05:02:02.000Z</time>
      </trkpt>
      <trkpt lat="45.23586" lon="5.76135">
        <ele>1349.4000244141</ele>
        <time>2021-10-16T05:02:04.000Z</time>
      </trkpt>
      <trkpt lat="45.23584" lon="5.76136">
        <ele>1349.1999511719</ele>
        <time>2021-10-16T05:02:06.000Z</time>
      </trkpt>
      <trkpt lat="45.23582" lon="5.76136">
        <ele>1349</ele>
        <time>2021-10-16T05:02:08.000Z</time>
      </trkpt>
      <trkpt lat="45.23581" lon="5.76137">
        <ele>1349</ele>
        <time>2021-10-16T05:02:09.000Z</time>
      </trkpt>
      <trkpt lat="45.23578" lon="5.76137">
        <ele>1348.8000488281</ele>
        <time>2021-10-16T05:02:11.000Z</time>
      </trkpt>
      <trkpt lat="45.2357" lon="5.76141">
        <ele>1348.1999511719</ele>
        <time>2021-10-16T05:02:16.000Z</time>
      </trkpt>
      <trkpt lat="45.23568" lon="5.76142">
        <ele>1348</ele>
        <time>2021-10-16T05:02:17.000Z</time>
      </trkpt>
      <trkpt lat="45.23561" lon="5.76145">
        <ele>1347.1999511719</ele>
        <time>2021-10-16T05:02:21.000Z</time>
      </trkpt>
      <trkpt lat="45.23554" lon="5.76151">
        <ele>1346.4000244141</ele>
        <time>2021-10-16T05:02:25.000Z</time>
      </trkpt>
      <trkpt lat="45.23553" lon="5.76152">
        <ele>1346.1999511719</ele>
        <time>2021-10-16T05:02:26.000Z</time>
      </trkpt>
      <trkpt lat="45.23553" lon="5.76153">
        <ele>1345.8000488281</ele>
        <time>2021-10-16T05:02:27.000Z</time>
      </trkpt>
      <trkpt lat="45.23553" lon="5.76155">
        <ele>1345.4000244141</ele>
        <time>2021-10-16T05:02:30.000Z</time>
      </trkpt>
      <trkpt lat="45.23553" lon="5.76157">
        <ele>1345</ele>
        <time>2021-10-16T05:02:33.000Z</time>
      </trkpt>
      <trkpt lat="45.23553" lon="5.76157">
        <ele>1344.1999511719</ele>
        <time>2021-10-16T05:02:35.000Z</time>
      </trkpt>
      <trkpt lat="45.23554" lon="5.76158">
        <ele>1344</ele>
        <time>2021-10-16T05:02:36.000Z</time>
      </trkpt>
      <trkpt lat="45.23555" lon="5.76159">
        <ele>1343.5999755859</ele>
        <time>2021-10-16T05:02:37.000Z</time>
      </trkpt>
      <trkpt lat="45.23558" lon="5.7616">
        <ele>1343</ele>
        <time>2021-10-16T05:02:39.000Z</time>
      </trkpt>
      <trkpt lat="45.23559" lon="5.76161">
        <ele>1341.5999755859</ele>
        <time>2021-10-16T05:02:42.000Z</time>
      </trkpt>
      <trkpt lat="45.23561" lon="5.76162">
        <ele>1340.8000488281</ele>
        <time>2021-10-16T05:02:45.000Z</time>
      </trkpt>
      <trkpt lat="45.23562" lon="5.76163">
        <ele>1340.5999755859</ele>
        <time>2021-10-16T05:02:47.000Z</time>
      </trkpt>
      <trkpt lat="45.23563" lon="5.76165">
        <ele>1339.4000244141</ele>
        <time>2021-10-16T05:02:48.000Z</time>
      </trkpt>
      <trkpt lat="45.23563" lon="5.76166">
        <ele>1339.4000244141</ele>
        <time>2021-10-16T05:02:49.000Z</time>
      </trkpt>
      <trkpt lat="45.23563" lon="5.76167">
        <ele>1338.8000488281</ele>
        <time>2021-10-16T05:02:50.000Z</time>
      </trkpt>
      <trkpt lat="45.23565" lon="5.76168">
        <ele>1338.4000244141</ele>
        <time>2021-10-16T05:02:52.000Z</time>
      </trkpt>
      <trkpt lat="45.23567" lon="5.76168">
        <ele>1337.5999755859</ele>
        <time>2021-10-16T05:02:53.000Z</time>
      </trkpt>
      <trkpt lat="45.23569" lon="5.76167">
        <ele>1337.1999511719</ele>
        <time>2021-10-16T05:02:55.000Z</time>
      </trkpt>
      <trkpt lat="45.23572" lon="5.76168">
        <ele>1336.1999511719</ele>
        <time>2021-10-16T05:02:59.000Z</time>
      </trkpt>
      <trkpt lat="45.23574" lon="5.76169">
        <ele>1335.1999511719</ele>
        <time>2021-10-16T05:03:02.000Z</time>
      </trkpt>
      <trkpt lat="45.23575" lon="5.76168">
        <ele>1334</ele>
        <time>2021-10-16T05:03:03.000Z</time>
      </trkpt>
      <trkpt lat="45.23579" lon="5.76166">
        <ele>1333.4000244141</ele>
        <time>2021-10-16T05:03:06.000Z</time>
      </trkpt>
      <trkpt lat="45.2358" lon="5.76167">
        <ele>1332.1999511719</ele>
        <time>2021-10-16T05:03:08.000Z</time>
      </trkpt>
      <trkpt lat="45.23579" lon="5.76175">
        <ele>1331</ele>
        <time>2021-10-16T05:03:12.000Z</time>
      </trkpt>
      <trkpt lat="45.23578" lon="5.76176">
        <ele>1330.4000244141</ele>
        <time>2021-10-16T05:03:13.000Z</time>
      </trkpt>
      <trkpt lat="45.23577" lon="5.76178">
        <ele>1330</ele>
        <time>2021-10-16T05:03:15.000Z</time>
      </trkpt>
      <trkpt lat="45.23578" lon="5.76179">
        <ele>1329.1999511719</ele>
        <time>2021-10-16T05:03:17.000Z</time>
      </trkpt>
      <trkpt lat="45.23578" lon="5.7618">
        <ele>1328.8000488281</ele>
        <time>2021-10-16T05:03:19.000Z</time>
      </trkpt>
      <trkpt lat="45.23578" lon="5.76183">
        <ele>1328.4000244141</ele>
        <time>2021-10-16T05:03:21.000Z</time>
      </trkpt>
      <trkpt lat="45.2358" lon="5.76185">
        <ele>1327.5999755859</ele>
        <time>2021-10-16T05:03:23.000Z</time>
      </trkpt>
      <trkpt lat="45.23581" lon="5.76187">
        <ele>1327.4000244141</ele>
        <time>2021-10-16T05:03:24.000Z</time>
      </trkpt>
      <trkpt lat="45.23584" lon="5.76188">
        <ele>1326.5999755859</ele>
        <time>2021-10-16T05:03:26.000Z</time>
      </trkpt>
      <trkpt lat="45.23587" lon="5.7619">
        <ele>1326.4000244141</ele>
        <time>2021-10-16T05:03:28.000Z</time>
      </trkpt>
      <trkpt lat="45.23589" lon="5.76195">
        <ele>1325.5999755859</ele>
        <time>2021-10-16T05:03:30.000Z</time>
      </trkpt>
      <trkpt lat="45.23589" lon="5.76197">
        <ele>1325.4000244141</ele>
        <time>2021-10-16T05:03:31.000Z</time>
      </trkpt>
      <trkpt lat="45.23588" lon="5.76201">
        <ele>1324.5999755859</ele>
        <time>2021-10-16T05:03:32.000Z</time>
      </trkpt>
      <trkpt lat="45.23587" lon="5.76206">
        <ele>1324.1999511719</ele>
        <time>2021-10-16T05:03:33.000Z</time>
      </trkpt>
      <trkpt lat="45.23581" lon="5.76216">
        <ele>1323.5999755859</ele>
        <time>2021-10-16T05:03:36.000Z</time>
      </trkpt>
      <trkpt lat="45.23577" lon="5.76221">
        <ele>1323.1999511719</ele>
        <time>2021-10-16T05:03:38.000Z</time>
      </trkpt>
      <trkpt lat="45.23573" lon="5.76228">
        <ele>1323.1999511719</ele>
        <time>2021-10-16T05:03:40.000Z</time>
      </trkpt>
      <trkpt lat="45.23568" lon="5.76235">
        <ele>1323.1999511719</ele>
        <time>2021-10-16T05:03:43.000Z</time>
      </trkpt>
      <trkpt lat="45.23562" lon="5.76243">
        <ele>1323.5999755859</ele>
        <time>2021-10-16T05:03:47.000Z</time>
      </trkpt>
      <trkpt lat="45.2355" lon="5.76253">
        <ele>1324.1999511719</ele>
        <time>2021-10-16T05:03:53.000Z</time>
      </trkpt>
      <trkpt lat="45.23548" lon="5.76254">
        <ele>1324.4000244141</ele>
        <time>2021-10-16T05:03:54.000Z</time>
      </trkpt>
      <trkpt lat="45.2354" lon="5.76259">
        <ele>1325.1999511719</ele>
        <time>2021-10-16T05:03:59.000Z</time>
      </trkpt>
      <trkpt lat="45.23538" lon="5.76262">
        <ele>1325.1999511719</ele>
        <time>2021-10-16T05:04:00.000Z</time>
      </trkpt>
      <trkpt lat="45.23536" lon="5.76266">
        <ele>1325.8000488281</ele>
        <time>2021-10-16T05:04:02.000Z</time>
      </trkpt>
      <trkpt lat="45.23536" lon="5.76274">
        <ele>1326</ele>
        <time>2021-10-16T05:04:05.000Z</time>
      </trkpt>
      <trkpt lat="45.2354" lon="5.76294">
        <ele>1324.5999755859</ele>
        <time>2021-10-16T05:04:12.000Z</time>
      </trkpt>
      <trkpt lat="45.2354" lon="5.76297">
        <ele>1324.5999755859</ele>
        <time>2021-10-16T05:04:13.000Z</time>
      </trkpt>
      <trkpt lat="45.23541" lon="5.763">
        <ele>1323.8000488281</ele>
        <time>2021-10-16T05:04:14.000Z</time>
      </trkpt>
      <trkpt lat="45.23545" lon="5.76316">
        <ele>1322.5999755859</ele>
        <time>2021-10-16T05:04:19.000Z</time>
      </trkpt>
      <trkpt lat="45.23546" lon="5.76325">
        <ele>1321.8000488281</ele>
        <time>2021-10-16T05:04:22.000Z</time>
      </trkpt>
      <trkpt lat="45.23546" lon="5.76328">
        <ele>1321.5999755859</ele>
        <time>2021-10-16T05:04:23.000Z</time>
      </trkpt>
      <trkpt lat="45.23547" lon="5.7634">
        <ele>1320</ele>
        <time>2021-10-16T05:04:27.000Z</time>
      </trkpt>
      <trkpt lat="45.23548" lon="5.76343">
        <ele>1320</ele>
        <time>2021-10-16T05:04:28.000Z</time>
      </trkpt>
      <trkpt lat="45.23548" lon="5.76356">
        <ele>1319.1999511719</ele>
        <time>2021-10-16T05:04:32.000Z</time>
      </trkpt>
      <trkpt lat="45.23549" lon="5.76363">
        <ele>1319.1999511719</ele>
        <time>2021-10-16T05:04:34.000Z</time>
      </trkpt>
      <trkpt lat="45.23549" lon="5.76366">
        <ele>1319</ele>
        <time>2021-10-16T05:04:35.000Z</time>
      </trkpt>
      <trkpt lat="45.23544" lon="5.76383">
        <ele>1319.8000488281</ele>
        <time>2021-10-16T05:04:41.000Z</time>
      </trkpt>
      <trkpt lat="45.23541" lon="5.76384">
        <ele>1320.4000244141</ele>
        <time>2021-10-16T05:04:44.000Z</time>
      </trkpt>
      <trkpt lat="45.23538" lon="5.76385">
        <ele>1321.4000244141</ele>
        <time>2021-10-16T05:04:47.000Z</time>
      </trkpt>
      <trkpt lat="45.23535" lon="5.76384">
        <ele>1321.8000488281</ele>
        <time>2021-10-16T05:04:49.000Z</time>
      </trkpt>
      <trkpt lat="45.23532" lon="5.76382">
        <ele>1322.4000244141</ele>
        <time>2021-10-16T05:04:51.000Z</time>
      </trkpt>
      <trkpt lat="45.2353" lon="5.76382">
        <ele>1322.5999755859</ele>
        <time>2021-10-16T05:04:52.000Z</time>
      </trkpt>
      <trkpt lat="45.23528" lon="5.76384">
        <ele>1323.1999511719</ele>
        <time>2021-10-16T05:04:53.000Z</time>
      </trkpt>
      <trkpt lat="45.23527" lon="5.76385">
        <ele>1323.4000244141</ele>
        <time>2021-10-16T05:04:54.000Z</time>
      </trkpt>
      <trkpt lat="45.23523" lon="5.76388">
        <ele>1324.4000244141</ele>
        <time>2021-10-16T05:04:56.000Z</time>
      </trkpt>
      <trkpt lat="45.23523" lon="5.76395">
        <ele>1324.5999755859</ele>
        <time>2021-10-16T05:04:59.000Z</time>
      </trkpt>
      <trkpt lat="45.23522" lon="5.76399">
        <ele>1325.5999755859</ele>
        <time>2021-10-16T05:05:01.000Z</time>
      </trkpt>
      <trkpt lat="45.23518" lon="5.76401">
        <ele>1327</ele>
        <time>2021-10-16T05:05:05.000Z</time>
      </trkpt>
      <trkpt lat="45.23516" lon="5.764">
        <ele>1327.1999511719</ele>
        <time>2021-10-16T05:05:07.000Z</time>
      </trkpt>
      <trkpt lat="45.23515" lon="5.764">
        <ele>1328.4000244141</ele>
        <time>2021-10-16T05:05:08.000Z</time>
      </trkpt>
      <trkpt lat="45.23512" lon="5.76398">
        <ele>1329.4000244141</ele>
        <time>2021-10-16T05:05:12.000Z</time>
      </trkpt>
      <trkpt lat="45.23511" lon="5.76398">
        <ele>1330.1999511719</ele>
        <time>2021-10-16T05:05:13.000Z</time>
      </trkpt>
      <trkpt lat="45.23506" lon="5.76398">
        <ele>1330.5999755859</ele>
        <time>2021-10-16T05:05:16.000Z</time>
      </trkpt>
      <trkpt lat="45.23502" lon="5.76396">
        <ele>1330.8000488281</ele>
        <time>2021-10-16T05:05:18.000Z</time>
      </trkpt>
      <trkpt lat="45.23497" lon="5.76386">
        <ele>1331.1999511719</ele>
        <time>2021-10-16T05:05:22.000Z</time>
      </trkpt>
      <trkpt lat="45.23496" lon="5.76384">
        <ele>1331.4000244141</ele>
        <time>2021-10-16T05:05:23.000Z</time>
      </trkpt>
      <trkpt lat="45.23493" lon="5.76365">
        <ele>1331.5999755859</ele>
        <time>2021-10-16T05:05:30.000Z</time>
      </trkpt>
      <trkpt lat="45.23493" lon="5.76362">
        <ele>1331.5999755859</ele>
        <time>2021-10-16T05:05:31.000Z</time>
      </trkpt>
      <trkpt lat="45.23493" lon="5.76362">
        <ele>1331.1999511719</ele>
        <time>2021-10-16T05:05:35.000Z</time>
      </trkpt>
      <trkpt lat="45.23493" lon="5.76363">
        <ele>1331.1999511719</ele>
        <time>2021-10-16T05:05:36.000Z</time>
      </trkpt>
      <trkpt lat="45.23494" lon="5.7638">
        <ele>1331</ele>
        <time>2021-10-16T05:05:43.000Z</time>
      </trkpt>
      <trkpt lat="45.23498" lon="5.76394">
        <ele>1330.4000244141</ele>
        <time>2021-10-16T05:05:48.000Z</time>
      </trkpt>
      <trkpt lat="45.23499" lon="5.76395">
        <ele>1330</ele>
        <time>2021-10-16T05:05:49.000Z</time>
      </trkpt>
      <trkpt lat="45.23509" lon="5.76399">
        <ele>1329.4000244141</ele>
        <time>2021-10-16T05:05:55.000Z</time>
      </trkpt>
      <trkpt lat="45.2351" lon="5.76401">
        <ele>1328.8000488281</ele>
        <time>2021-10-16T05:05:57.000Z</time>
      </trkpt>
      <trkpt lat="45.2351" lon="5.76401">
        <ele>1328.4000244141</ele>
        <time>2021-10-16T05:05:59.000Z</time>
      </trkpt>
      <trkpt lat="45.2351" lon="5.76402">
        <ele>1328.1999511719</ele>
        <time>2021-10-16T05:06:00.000Z</time>
      </trkpt>
      <trkpt lat="45.23512" lon="5.76403">
        <ele>1327.4000244141</ele>
        <time>2021-10-16T05:06:02.000Z</time>
      </trkpt>
      <trkpt lat="45.23515" lon="5.76403">
        <ele>1326.4000244141</ele>
        <time>2021-10-16T05:06:04.000Z</time>
      </trkpt>
      <trkpt lat="45.23517" lon="5.76401">
        <ele>1326.1999511719</ele>
        <time>2021-10-16T05:06:06.000Z</time>
      </trkpt>
      <trkpt lat="45.23518" lon="5.76399">
        <ele>1324.5999755859</ele>
        <time>2021-10-16T05:06:08.000Z</time>
      </trkpt>
      <trkpt lat="45.2352" lon="5.76393">
        <ele>1323.5999755859</ele>
        <time>2021-10-16T05:06:11.000Z</time>
      </trkpt>
      <trkpt lat="45.23521" lon="5.76392">
        <ele>1323.1999511719</ele>
        <time>2021-10-16T05:06:12.000Z</time>
      </trkpt>
      <trkpt lat="45.23525" lon="5.7639">
        <ele>1322</ele>
        <time>2021-10-16T05:06:14.000Z</time>
      </trkpt>
      <trkpt lat="45.2353" lon="5.7639">
        <ele>1321.8000488281</ele>
        <time>2021-10-16T05:06:16.000Z</time>
      </trkpt>
      <trkpt lat="45.23534" lon="5.76389">
        <ele>1320.4000244141</ele>
        <time>2021-10-16T05:06:18.000Z</time>
      </trkpt>
      <trkpt lat="45.23539" lon="5.76386">
        <ele>1319.1999511719</ele>
        <time>2021-10-16T05:06:21.000Z</time>
      </trkpt>
      <trkpt lat="45.2354" lon="5.76385">
        <ele>1319</ele>
        <time>2021-10-16T05:06:22.000Z</time>
      </trkpt>
      <trkpt lat="45.23544" lon="5.76381">
        <ele>1318.1999511719</ele>
        <time>2021-10-16T05:06:24.000Z</time>
      </trkpt>
      <trkpt lat="45.23545" lon="5.76379">
        <ele>1317.8000488281</ele>
        <time>2021-10-16T05:06:25.000Z</time>
      </trkpt>
      <trkpt lat="45.23545" lon="5.76372">
        <ele>1317.4000244141</ele>
        <time>2021-10-16T05:06:27.000Z</time>
      </trkpt>
      <trkpt lat="45.23544" lon="5.76365">
        <ele>1317.1999511719</ele>
        <time>2021-10-16T05:06:29.000Z</time>
      </trkpt>
      <trkpt lat="45.23543" lon="5.76345">
        <ele>1317.1999511719</ele>
        <time>2021-10-16T05:06:35.000Z</time>
      </trkpt>
      <trkpt lat="45.2354" lon="5.76332">
        <ele>1318.1999511719</ele>
        <time>2021-10-16T05:06:40.000Z</time>
      </trkpt>
      <trkpt lat="45.23539" lon="5.76326">
        <ele>1318.8000488281</ele>
        <time>2021-10-16T05:06:42.000Z</time>
      </trkpt>
      <trkpt lat="45.23539" lon="5.76319">
        <ele>1319.5999755859</ele>
        <time>2021-10-16T05:06:45.000Z</time>
      </trkpt>
      <trkpt lat="45.23537" lon="5.76304">
        <ele>1320.4000244141</ele>
        <time>2021-10-16T05:06:51.000Z</time>
      </trkpt>
      <trkpt lat="45.23537" lon="5.763">
        <ele>1320.8000488281</ele>
        <time>2021-10-16T05:06:53.000Z</time>
      </trkpt>
      <trkpt lat="45.23537" lon="5.76298">
        <ele>1320.8000488281</ele>
        <time>2021-10-16T05:06:54.000Z</time>
      </trkpt>
      <trkpt lat="45.23536" lon="5.76287">
        <ele>1321.5999755859</ele>
        <time>2021-10-16T05:07:00.000Z</time>
      </trkpt>
      <trkpt lat="45.23536" lon="5.76285">
        <ele>1322.1999511719</ele>
        <time>2021-10-16T05:07:01.000Z</time>
      </trkpt>
      <trkpt lat="45.23533" lon="5.76267">
        <ele>1323.4000244141</ele>
        <time>2021-10-16T05:07:08.000Z</time>
      </trkpt>
      <trkpt lat="45.23532" lon="5.76262">
        <ele>1323.4000244141</ele>
        <time>2021-10-16T05:07:10.000Z</time>
      </trkpt>
      <trkpt lat="45.23533" lon="5.7626">
        <ele>1323.1999511719</ele>
        <time>2021-10-16T05:07:11.000Z</time>
      </trkpt>
      <trkpt lat="45.23541" lon="5.76255">
        <ele>1322.5999755859</ele>
        <time>2021-10-16T05:07:15.000Z</time>
      </trkpt>
      <trkpt lat="45.23546" lon="5.76251">
        <ele>1322.1999511719</ele>
        <time>2021-10-16T05:07:18.000Z</time>
      </trkpt>
      <trkpt lat="45.23552" lon="5.76248">
        <ele>1321.8000488281</ele>
        <time>2021-10-16T05:07:21.000Z</time>
      </trkpt>
      <trkpt lat="45.23556" lon="5.76246">
        <ele>1321.5999755859</ele>
        <time>2021-10-16T05:07:23.000Z</time>
      </trkpt>
      <trkpt lat="45.23561" lon="5.76241">
        <ele>1321.1999511719</ele>
        <time>2021-10-16T05:07:26.000Z</time>
      </trkpt>
      <trkpt lat="45.23562" lon="5.76238">
        <ele>1321.1999511719</ele>
        <time>2021-10-16T05:07:27.000Z</time>
      </trkpt>
      <trkpt lat="45.23566" lon="5.76231">
        <ele>1321</ele>
        <time>2021-10-16T05:07:30.000Z</time>
      </trkpt>
      <trkpt lat="45.2358" lon="5.76214">
        <ele>1320.8000488281</ele>
        <time>2021-10-16T05:07:39.000Z</time>
      </trkpt>
      <trkpt lat="45.23581" lon="5.76211">
        <ele>1320.8000488281</ele>
        <time>2021-10-16T05:07:40.000Z</time>
      </trkpt>
      <trkpt lat="45.23583" lon="5.76208">
        <ele>1321.1999511719</ele>
        <time>2021-10-16T05:07:42.000Z</time>
      </trkpt>
      <trkpt lat="45.23585" lon="5.76207">
        <ele>1321.5999755859</ele>
        <time>2021-10-16T05:07:44.000Z</time>
      </trkpt>
      <trkpt lat="45.23586" lon="5.76205">
        <ele>1321.5999755859</ele>
        <time>2021-10-16T05:07:45.000Z</time>
      </trkpt>
      <trkpt lat="45.23586" lon="5.76204">
        <ele>1322.1999511719</ele>
        <time>2021-10-16T05:07:46.000Z</time>
      </trkpt>
      <trkpt lat="45.23586" lon="5.76197">
        <ele>1323</ele>
        <time>2021-10-16T05:07:50.000Z</time>
      </trkpt>
      <trkpt lat="45.23586" lon="5.76196">
        <ele>1323.5999755859</ele>
        <time>2021-10-16T05:07:51.000Z</time>
      </trkpt>
      <trkpt lat="45.23585" lon="5.76194">
        <ele>1323.5999755859</ele>
        <time>2021-10-16T05:07:52.000Z</time>
      </trkpt>
      <trkpt lat="45.23582" lon="5.7619">
        <ele>1324.1999511719</ele>
        <time>2021-10-16T05:07:55.000Z</time>
      </trkpt>
      <trkpt lat="45.23581" lon="5.76188">
        <ele>1324.5999755859</ele>
        <time>2021-10-16T05:07:56.000Z</time>
      </trkpt>
      <trkpt lat="45.23579" lon="5.76186">
        <ele>1325</ele>
        <time>2021-10-16T05:07:57.000Z</time>
      </trkpt>
      <trkpt lat="45.23579" lon="5.76185">
        <ele>1325</ele>
        <time>2021-10-16T05:07:58.000Z</time>
      </trkpt>
      <trkpt lat="45.23581" lon="5.76181">
        <ele>1325.8000488281</ele>
        <time>2021-10-16T05:08:01.000Z</time>
      </trkpt>
      <trkpt lat="45.2358" lon="5.76179">
        <ele>1326</ele>
        <time>2021-10-16T05:08:03.000Z</time>
      </trkpt>
      <trkpt lat="45.2358" lon="5.76178">
        <ele>1327</ele>
        <time>2021-10-16T05:08:04.000Z</time>
      </trkpt>
      <trkpt lat="45.23581" lon="5.76177">
        <ele>1327.4000244141</ele>
        <time>2021-10-16T05:08:05.000Z</time>
      </trkpt>
      <trkpt lat="45.23582" lon="5.76176">
        <ele>1328</ele>
        <time>2021-10-16T05:08:07.000Z</time>
      </trkpt>
      <trkpt lat="45.23583" lon="5.76173">
        <ele>1328.1999511719</ele>
        <time>2021-10-16T05:08:09.000Z</time>
      </trkpt>
      <trkpt lat="45.23584" lon="5.76172">
        <ele>1328.4000244141</ele>
        <time>2021-10-16T05:08:10.000Z</time>
      </trkpt>
      <trkpt lat="45.23585" lon="5.76172">
        <ele>1328.8000488281</ele>
        <time>2021-10-16T05:08:11.000Z</time>
      </trkpt>
      <trkpt lat="45.23585" lon="5.76172">
        <ele>1329</ele>
        <time>2021-10-16T05:08:12.000Z</time>
      </trkpt>
      <trkpt lat="45.23586" lon="5.76171">
        <ele>1329.4000244141</ele>
        <time>2021-10-16T05:08:15.000Z</time>
      </trkpt>
      <trkpt lat="45.23586" lon="5.76171">
        <ele>1329.4000244141</ele>
        <time>2021-10-16T05:08:16.000Z</time>
      </trkpt>
      <trkpt lat="45.23585" lon="5.76171">
        <ele>1329.4000244141</ele>
        <time>2021-10-16T05:08:17.000Z</time>
      </trkpt>
      <trkpt lat="45.23581" lon="5.76173">
        <ele>1329.5999755859</ele>
        <time>2021-10-16T05:08:21.000Z</time>
      </trkpt>
      <trkpt lat="45.2358" lon="5.76174">
        <ele>1330</ele>
        <time>2021-10-16T05:08:22.000Z</time>
      </trkpt>
      <trkpt lat="45.23578" lon="5.76175">
        <ele>1330.5999755859</ele>
        <time>2021-10-16T05:08:24.000Z</time>
      </trkpt>
      <trkpt lat="45.23576" lon="5.76175">
        <ele>1330.8000488281</ele>
        <time>2021-10-16T05:08:26.000Z</time>
      </trkpt>
      <trkpt lat="45.23573" lon="5.76174">
        <ele>1331.8000488281</ele>
        <time>2021-10-16T05:08:29.000Z</time>
      </trkpt>
      <trkpt lat="45.2357" lon="5.76172">
        <ele>1332.8000488281</ele>
        <time>2021-10-16T05:08:33.000Z</time>
      </trkpt>
      <trkpt lat="45.23569" lon="5.76172">
        <ele>1332.8000488281</ele>
        <time>2021-10-16T05:08:34.000Z</time>
      </trkpt>
      <trkpt lat="45.23567" lon="5.76172">
        <ele>1333.8000488281</ele>
        <time>2021-10-16T05:08:36.000Z</time>
      </trkpt>
      <trkpt lat="45.23564" lon="5.76172">
        <ele>1334.1999511719</ele>
        <time>2021-10-16T05:08:40.000Z</time>
      </trkpt>
      <trkpt lat="45.23561" lon="5.76172">
        <ele>1335</ele>
        <time>2021-10-16T05:08:43.000Z</time>
      </trkpt>
      <trkpt lat="45.23558" lon="5.76169">
        <ele>1335.8000488281</ele>
        <time>2021-10-16T05:08:48.000Z</time>
      </trkpt>
      <trkpt lat="45.23557" lon="5.76168">
        <ele>1336</ele>
        <time>2021-10-16T05:08:49.000Z</time>
      </trkpt>
      <trkpt lat="45.23557" lon="5.76167">
        <ele>1337</ele>
        <time>2021-10-16T05:08:51.000Z</time>
      </trkpt>
      <trkpt lat="45.23556" lon="5.76166">
        <ele>1337.5999755859</ele>
        <time>2021-10-16T05:08:53.000Z</time>
      </trkpt>
      <trkpt lat="45.23556" lon="5.76166">
        <ele>1338.4000244141</ele>
        <time>2021-10-16T05:08:54.000Z</time>
      </trkpt>
      <trkpt lat="45.23556" lon="5.76165">
        <ele>1338.4000244141</ele>
        <time>2021-10-16T05:08:55.000Z</time>
      </trkpt>
      <trkpt lat="45.23553" lon="5.76164">
        <ele>1339.4000244141</ele>
        <time>2021-10-16T05:08:59.000Z</time>
      </trkpt>
      <trkpt lat="45.23551" lon="5.76164">
        <ele>1339.5999755859</ele>
        <time>2021-10-16T05:09:01.000Z</time>
      </trkpt>
      <trkpt lat="45.2355" lon="5.76163">
        <ele>1339.5999755859</ele>
        <time>2021-10-16T05:09:02.000Z</time>
      </trkpt>
      <trkpt lat="45.23549" lon="5.7616">
        <ele>1341</ele>
        <time>2021-10-16T05:09:05.000Z</time>
      </trkpt>
      <trkpt lat="45.23547" lon="5.76159">
        <ele>1342.1999511719</ele>
        <time>2021-10-16T05:09:08.000Z</time>
      </trkpt>
      <trkpt lat="45.23547" lon="5.76157">
        <ele>1342.1999511719</ele>
        <time>2021-10-16T05:09:09.000Z</time>
      </trkpt>
      <trkpt lat="45.23547" lon="5.76155">
        <ele>1342.4000244141</ele>
        <time>2021-10-16T05:09:11.000Z</time>
      </trkpt>
      <trkpt lat="45.23549" lon="5.76152">
        <ele>1342.5999755859</ele>
        <time>2021-10-16T05:09:13.000Z</time>
      </trkpt>
      <trkpt lat="45.23551" lon="5.7615">
        <ele>1342.5999755859</ele>
        <time>2021-10-16T05:09:16.000Z</time>
      </trkpt>
      <trkpt lat="45.23554" lon="5.76145">
        <ele>1342.1999511719</ele>
        <time>2021-10-16T05:09:22.000Z</time>
      </trkpt>
      <trkpt lat="45.23555" lon="5.76144">
        <ele>1341.8000488281</ele>
        <time>2021-10-16T05:09:24.000Z</time>
      </trkpt>
      <trkpt lat="45.23556" lon="5.76144">
        <ele>1341.1999511719</ele>
        <time>2021-10-16T05:09:25.000Z</time>
      </trkpt>
      <trkpt lat="45.23556" lon="5.76143">
        <ele>1340.8000488281</ele>
        <time>2021-10-16T05:09:26.000Z</time>
      </trkpt>
      <trkpt lat="45.23557" lon="5.76143">
        <ele>1340.5999755859</ele>
        <time>2021-10-16T05:09:27.000Z</time>
      </trkpt>
      <trkpt lat="45.23559" lon="5.76143">
        <ele>1339</ele>
        <time>2021-10-16T05:09:28.000Z</time>
      </trkpt>
      <trkpt lat="45.23559" lon="5.76142">
        <ele>1338</ele>
        <time>2021-10-16T05:09:31.000Z</time>
      </trkpt>
      <trkpt lat="45.23558" lon="5.76143">
        <ele>1337.5999755859</ele>
        <time>2021-10-16T05:09:32.000Z</time>
      </trkpt>
      <trkpt lat="45.23556" lon="5.76143">
        <ele>1337.5999755859</ele>
        <time>2021-10-16T05:09:33.000Z</time>
      </trkpt>
      <trkpt lat="45.23552" lon="5.76145">
        <ele>1337.1999511719</ele>
        <time>2021-10-16T05:09:35.000Z</time>
      </trkpt>
      <trkpt lat="45.23551" lon="5.76145">
        <ele>1337.1999511719</ele>
        <time>2021-10-16T05:09:36.000Z</time>
      </trkpt>
      <trkpt lat="45.23548" lon="5.76145">
        <ele>1337</ele>
        <time>2021-10-16T05:09:38.000Z</time>
      </trkpt>
      <trkpt lat="45.23546" lon="5.76144">
        <ele>1336.5999755859</ele>
        <time>2021-10-16T05:09:40.000Z</time>
      </trkpt>
      <trkpt lat="45.23546" lon="5.76144">
        <ele>1335.4000244141</ele>
        <time>2021-10-16T05:09:41.000Z</time>
      </trkpt>
      <trkpt lat="45.23545" lon="5.76144">
        <ele>1334.8000488281</ele>
        <time>2021-10-16T05:09:42.000Z</time>
      </trkpt>
      <trkpt lat="45.23544" lon="5.76144">
        <ele>1334.1999511719</ele>
        <time>2021-10-16T05:09:43.000Z</time>
      </trkpt>
      <trkpt lat="45.23544" lon="5.76141">
        <ele>1330</ele>
        <time>2021-10-16T05:09:58.000Z</time>
      </trkpt>
      <trkpt lat="45.23545" lon="5.76136">
        <ele>1329</ele>
        <time>2021-10-16T05:10:01.000Z</time>
      </trkpt>
      <trkpt lat="45.23548" lon="5.76134">
        <ele>1328.8000488281</ele>
        <time>2021-10-16T05:10:03.000Z</time>
      </trkpt>
      <trkpt lat="45.23548" lon="5.76132">
        <ele>1328</ele>
        <time>2021-10-16T05:10:05.000Z</time>
      </trkpt>
      <trkpt lat="45.23549" lon="5.7613">
        <ele>1327.5999755859</ele>
        <time>2021-10-16T05:10:06.000Z</time>
      </trkpt>
      <trkpt lat="45.23555" lon="5.76128">
        <ele>1326.5999755859</ele>
        <time>2021-10-16T05:10:10.000Z</time>
      </trkpt>
      <trkpt lat="45.23556" lon="5.76127">
        <ele>1326</ele>
        <time>2021-10-16T05:10:11.000Z</time>
      </trkpt>
      <trkpt lat="45.23559" lon="5.76125">
        <ele>1325.5999755859</ele>
        <time>2021-10-16T05:10:13.000Z</time>
      </trkpt>
      <trkpt lat="45.23563" lon="5.76122">
        <ele>1324.4000244141</ele>
        <time>2021-10-16T05:10:16.000Z</time>
      </trkpt>
      <trkpt lat="45.23566" lon="5.76121">
        <ele>1324</ele>
        <time>2021-10-16T05:10:18.000Z</time>
      </trkpt>
      <trkpt lat="45.2357" lon="5.76118">
        <ele>1322.8000488281</ele>
        <time>2021-10-16T05:10:21.000Z</time>
      </trkpt>
      <trkpt lat="45.23571" lon="5.76116">
        <ele>1322.5999755859</ele>
        <time>2021-10-16T05:10:22.000Z</time>
      </trkpt>
      <trkpt lat="45.23574" lon="5.76112">
        <ele>1321.8000488281</ele>
        <time>2021-10-16T05:10:25.000Z</time>
      </trkpt>
      <trkpt lat="45.23575" lon="5.76111">
        <ele>1321.5999755859</ele>
        <time>2021-10-16T05:10:26.000Z</time>
      </trkpt>
      <trkpt lat="45.23579" lon="5.76107">
        <ele>1320.5999755859</ele>
        <time>2021-10-16T05:10:29.000Z</time>
      </trkpt>
      <trkpt lat="45.2358" lon="5.76105">
        <ele>1319.8000488281</ele>
        <time>2021-10-16T05:10:30.000Z</time>
      </trkpt>
      <trkpt lat="45.23582" lon="5.76103">
        <ele>1319</ele>
        <time>2021-10-16T05:10:32.000Z</time>
      </trkpt>
      <trkpt lat="45.23581" lon="5.76102">
        <ele>1318.8000488281</ele>
        <time>2021-10-16T05:10:34.000Z</time>
      </trkpt>
      <trkpt lat="45.23577" lon="5.76103">
        <ele>1317.8000488281</ele>
        <time>2021-10-16T05:10:38.000Z</time>
      </trkpt>
      <trkpt lat="45.23575" lon="5.76104">
        <ele>1317.4000244141</ele>
        <time>2021-10-16T05:10:39.000Z</time>
      </trkpt>
      <trkpt lat="45.23574" lon="5.76105">
        <ele>1316.8000488281</ele>
        <time>2021-10-16T05:10:40.000Z</time>
      </trkpt>
      <trkpt lat="45.23571" lon="5.76106">
        <ele>1316.4000244141</ele>
        <time>2021-10-16T05:10:42.000Z</time>
      </trkpt>
      <trkpt lat="45.23565" lon="5.76106">
        <ele>1315.5999755859</ele>
        <time>2021-10-16T05:10:45.000Z</time>
      </trkpt>
      <trkpt lat="45.23563" lon="5.76106">
        <ele>1315.5999755859</ele>
        <time>2021-10-16T05:10:46.000Z</time>
      </trkpt>
      <trkpt lat="45.23562" lon="5.76106">
        <ele>1314.4000244141</ele>
        <time>2021-10-16T05:10:47.000Z</time>
      </trkpt>
      <trkpt lat="45.23556" lon="5.76107">
        <ele>1313.5999755859</ele>
        <time>2021-10-16T05:10:51.000Z</time>
      </trkpt>
      <trkpt lat="45.23555" lon="5.76107">
        <ele>1313.1999511719</ele>
        <time>2021-10-16T05:10:52.000Z</time>
      </trkpt>
      <trkpt lat="45.23553" lon="5.76108">
        <ele>1312.8000488281</ele>
        <time>2021-10-16T05:10:53.000Z</time>
      </trkpt>
      <trkpt lat="45.23552" lon="5.76108">
        <ele>1312.1999511719</ele>
        <time>2021-10-16T05:10:54.000Z</time>
      </trkpt>
      <trkpt lat="45.23551" lon="5.76105">
        <ele>1311.5999755859</ele>
        <time>2021-10-16T05:10:56.000Z</time>
      </trkpt>
      <trkpt lat="45.23551" lon="5.76104">
        <ele>1311.1999511719</ele>
        <time>2021-10-16T05:10:57.000Z</time>
      </trkpt>
      <trkpt lat="45.23553" lon="5.76102">
        <ele>1310.8000488281</ele>
        <time>2021-10-16T05:10:59.000Z</time>
      </trkpt>
      <trkpt lat="45.23556" lon="5.761">
        <ele>1310.4000244141</ele>
        <time>2021-10-16T05:11:01.000Z</time>
      </trkpt>
      <trkpt lat="45.23557" lon="5.76098">
        <ele>1309.5999755859</ele>
        <time>2021-10-16T05:11:02.000Z</time>
      </trkpt>
      <trkpt lat="45.2356" lon="5.76096">
        <ele>1309.1999511719</ele>
        <time>2021-10-16T05:11:04.000Z</time>
      </trkpt>
      <trkpt lat="45.23562" lon="5.76094">
        <ele>1309</ele>
        <time>2021-10-16T05:11:06.000Z</time>
      </trkpt>
      <trkpt lat="45.23563" lon="5.76093">
        <ele>1308.4000244141</ele>
        <time>2021-10-16T05:11:07.000Z</time>
      </trkpt>
      <trkpt lat="45.23563" lon="5.76092">
        <ele>1308</ele>
        <time>2021-10-16T05:11:08.000Z</time>
      </trkpt>
      <trkpt lat="45.23567" lon="5.76087">
        <ele>1307.1999511719</ele>
        <time>2021-10-16T05:11:11.000Z</time>
      </trkpt>
      <trkpt lat="45.23572" lon="5.76078">
        <ele>1306.1999511719</ele>
        <time>2021-10-16T05:11:16.000Z</time>
      </trkpt>
      <trkpt lat="45.23574" lon="5.76075">
        <ele>1304.5999755859</ele>
        <time>2021-10-16T05:11:18.000Z</time>
      </trkpt>
      <trkpt lat="45.23578" lon="5.76071">
        <ele>1303.1999511719</ele>
        <time>2021-10-16T05:11:22.000Z</time>
      </trkpt>
      <trkpt lat="45.23579" lon="5.76071">
        <ele>1303.1999511719</ele>
        <time>2021-10-16T05:11:23.000Z</time>
      </trkpt>
      <trkpt lat="45.2358" lon="5.7607">
        <ele>1302.8000488281</ele>
        <time>2021-10-16T05:11:24.000Z</time>
      </trkpt>
      <trkpt lat="45.23583" lon="5.76068">
        <ele>1302.5999755859</ele>
        <time>2021-10-16T05:11:27.000Z</time>
      </trkpt>
      <trkpt lat="45.23583" lon="5.76066">
        <ele>1302</ele>
        <time>2021-10-16T05:11:28.000Z</time>
      </trkpt>
      <trkpt lat="45.23584" lon="5.76064">
        <ele>1302</ele>
        <time>2021-10-16T05:11:29.000Z</time>
      </trkpt>
      <trkpt lat="45.23587" lon="5.76062">
        <ele>1300.8000488281</ele>
        <time>2021-10-16T05:11:31.000Z</time>
      </trkpt>
      <trkpt lat="45.23587" lon="5.76061">
        <ele>1300.5999755859</ele>
        <time>2021-10-16T05:11:32.000Z</time>
      </trkpt>
      <trkpt lat="45.23586" lon="5.76061">
        <ele>1299.8000488281</ele>
        <time>2021-10-16T05:11:34.000Z</time>
      </trkpt>
      <trkpt lat="45.23585" lon="5.76062">
        <ele>1299.8000488281</ele>
        <time>2021-10-16T05:11:35.000Z</time>
      </trkpt>
      <trkpt lat="45.2358" lon="5.76064">
        <ele>1298.5999755859</ele>
        <time>2021-10-16T05:11:38.000Z</time>
      </trkpt>
      <trkpt lat="45.23577" lon="5.76066">
        <ele>1297.8000488281</ele>
        <time>2021-10-16T05:11:41.000Z</time>
      </trkpt>
      <trkpt lat="45.23576" lon="5.76066">
        <ele>1297.4000244141</ele>
        <time>2021-10-16T05:11:42.000Z</time>
      </trkpt>
      <trkpt lat="45.23573" lon="5.76067">
        <ele>1296.1999511719</ele>
        <time>2021-10-16T05:11:45.000Z</time>
      </trkpt>
      <trkpt lat="45.2357" lon="5.76067">
        <ele>1295.5999755859</ele>
        <time>2021-10-16T05:11:48.000Z</time>
      </trkpt>
      <trkpt lat="45.23569" lon="5.76066">
        <ele>1294.8000488281</ele>
        <time>2021-10-16T05:11:49.000Z</time>
      </trkpt>
      <trkpt lat="45.23567" lon="5.76066">
        <ele>1294.4000244141</ele>
        <time>2021-10-16T05:11:50.000Z</time>
      </trkpt>
      <trkpt lat="45.23564" lon="5.76065">
        <ele>1293.4000244141</ele>
        <time>2021-10-16T05:11:53.000Z</time>
      </trkpt>
      <trkpt lat="45.23559" lon="5.76065">
        <ele>1292.1999511719</ele>
        <time>2021-10-16T05:11:56.000Z</time>
      </trkpt>
      <trkpt lat="45.23555" lon="5.76068">
        <ele>1290.8000488281</ele>
        <time>2021-10-16T05:11:59.000Z</time>
      </trkpt>
      <trkpt lat="45.23554" lon="5.76068">
        <ele>1290.4000244141</ele>
        <time>2021-10-16T05:12:00.000Z</time>
      </trkpt>
      <trkpt lat="45.23553" lon="5.76068">
        <ele>1290.4000244141</ele>
        <time>2021-10-16T05:12:01.000Z</time>
      </trkpt>
      <trkpt lat="45.23554" lon="5.76067">
        <ele>1289.5999755859</ele>
        <time>2021-10-16T05:12:02.000Z</time>
      </trkpt>
      <trkpt lat="45.23555" lon="5.76066">
        <ele>1289.4000244141</ele>
        <time>2021-10-16T05:12:03.000Z</time>
      </trkpt>
      <trkpt lat="45.23557" lon="5.76063">
        <ele>1288.5999755859</ele>
        <time>2021-10-16T05:12:07.000Z</time>
      </trkpt>
      <trkpt lat="45.23559" lon="5.76059">
        <ele>1287.1999511719</ele>
        <time>2021-10-16T05:12:10.000Z</time>
      </trkpt>
      <trkpt lat="45.2356" lon="5.76054">
        <ele>1286.5999755859</ele>
        <time>2021-10-16T05:12:14.000Z</time>
      </trkpt>
      <trkpt lat="45.23561" lon="5.76053">
        <ele>1286</ele>
        <time>2021-10-16T05:12:15.000Z</time>
      </trkpt>
      <trkpt lat="45.23562" lon="5.76051">
        <ele>1285.4000244141</ele>
        <time>2021-10-16T05:12:16.000Z</time>
      </trkpt>
      <trkpt lat="45.23562" lon="5.7605">
        <ele>1285</ele>
        <time>2021-10-16T05:12:17.000Z</time>
      </trkpt>
      <trkpt lat="45.23564" lon="5.76047">
        <ele>1283.5999755859</ele>
        <time>2021-10-16T05:12:19.000Z</time>
      </trkpt>
      <trkpt lat="45.23567" lon="5.7604">
        <ele>1282.8000488281</ele>
        <time>2021-10-16T05:12:23.000Z</time>
      </trkpt>
      <trkpt lat="45.23568" lon="5.76039">
        <ele>1281.8000488281</ele>
        <time>2021-10-16T05:12:24.000Z</time>
      </trkpt>
      <trkpt lat="45.23571" lon="5.76034">
        <ele>1280.8000488281</ele>
        <time>2021-10-16T05:12:27.000Z</time>
      </trkpt>
      <trkpt lat="45.23576" lon="5.7603">
        <ele>1279.8000488281</ele>
        <time>2021-10-16T05:12:30.000Z</time>
      </trkpt>
      <trkpt lat="45.23578" lon="5.76025">
        <ele>1278.8000488281</ele>
        <time>2021-10-16T05:12:33.000Z</time>
      </trkpt>
      <trkpt lat="45.23579" lon="5.76024">
        <ele>1278.1999511719</ele>
        <time>2021-10-16T05:12:34.000Z</time>
      </trkpt>
      <trkpt lat="45.2358" lon="5.76015">
        <ele>1276.5999755859</ele>
        <time>2021-10-16T05:12:39.000Z</time>
      </trkpt>
      <trkpt lat="45.2358" lon="5.76014">
        <ele>1276.4000244141</ele>
        <time>2021-10-16T05:12:40.000Z</time>
      </trkpt>
      <trkpt lat="45.23581" lon="5.76011">
        <ele>1275.4000244141</ele>
        <time>2021-10-16T05:12:42.000Z</time>
      </trkpt>
      <trkpt lat="45.23582" lon="5.76009">
        <ele>1275</ele>
        <time>2021-10-16T05:12:43.000Z</time>
      </trkpt>
      <trkpt lat="45.23585" lon="5.76005">
        <ele>1274</ele>
        <time>2021-10-16T05:12:46.000Z</time>
      </trkpt>
      <trkpt lat="45.23588" lon="5.76002">
        <ele>1273.8000488281</ele>
        <time>2021-10-16T05:12:48.000Z</time>
      </trkpt>
      <trkpt lat="45.2359" lon="5.76">
        <ele>1272.5999755859</ele>
        <time>2021-10-16T05:12:50.000Z</time>
      </trkpt>
      <trkpt lat="45.23593" lon="5.75995">
        <ele>1271.1999511719</ele>
        <time>2021-10-16T05:12:53.000Z</time>
      </trkpt>
      <trkpt lat="45.23595" lon="5.75992">
        <ele>1270.5999755859</ele>
        <time>2021-10-16T05:12:55.000Z</time>
      </trkpt>
      <trkpt lat="45.23596" lon="5.75991">
        <ele>1270</ele>
        <time>2021-10-16T05:12:56.000Z</time>
      </trkpt>
      <trkpt lat="45.23599" lon="5.75987">
        <ele>1269.1999511719</ele>
        <time>2021-10-16T05:12:59.000Z</time>
      </trkpt>
      <trkpt lat="45.23602" lon="5.75984">
        <ele>1268.4000244141</ele>
        <time>2021-10-16T05:13:01.000Z</time>
      </trkpt>
      <trkpt lat="45.23604" lon="5.75982">
        <ele>1268.1999511719</ele>
        <time>2021-10-16T05:13:02.000Z</time>
      </trkpt>
      <trkpt lat="45.23607" lon="5.75977">
        <ele>1267</ele>
        <time>2021-10-16T05:13:05.000Z</time>
      </trkpt>
      <trkpt lat="45.23609" lon="5.75973">
        <ele>1266.4000244141</ele>
        <time>2021-10-16T05:13:07.000Z</time>
      </trkpt>
      <trkpt lat="45.23611" lon="5.75972">
        <ele>1266.1999511719</ele>
        <time>2021-10-16T05:13:08.000Z</time>
      </trkpt>
      <trkpt lat="45.23612" lon="5.7597">
        <ele>1265.1999511719</ele>
        <time>2021-10-16T05:13:09.000Z</time>
      </trkpt>
      <trkpt lat="45.23615" lon="5.75967">
        <ele>1264.8000488281</ele>
        <time>2021-10-16T05:13:11.000Z</time>
      </trkpt>
      <trkpt lat="45.23617" lon="5.75964">
        <ele>1264</ele>
        <time>2021-10-16T05:13:13.000Z</time>
      </trkpt>
      <trkpt lat="45.23619" lon="5.75963">
        <ele>1263.8000488281</ele>
        <time>2021-10-16T05:13:14.000Z</time>
      </trkpt>
      <trkpt lat="45.2362" lon="5.75962">
        <ele>1263</ele>
        <time>2021-10-16T05:13:15.000Z</time>
      </trkpt>
      <trkpt lat="45.23623" lon="5.75959">
        <ele>1262.8000488281</ele>
        <time>2021-10-16T05:13:18.000Z</time>
      </trkpt>
      <trkpt lat="45.23625" lon="5.75957">
        <ele>1262.1999511719</ele>
        <time>2021-10-16T05:13:20.000Z</time>
      </trkpt>
      <trkpt lat="45.23628" lon="5.75954">
        <ele>1262</ele>
        <time>2021-10-16T05:13:22.000Z</time>
      </trkpt>
      <trkpt lat="45.23628" lon="5.75953">
        <ele>1261</ele>
        <time>2021-10-16T05:13:23.000Z</time>
      </trkpt>
      <trkpt lat="45.23628" lon="5.75951">
        <ele>1260.5999755859</ele>
        <time>2021-10-16T05:13:24.000Z</time>
      </trkpt>
      <trkpt lat="45.23623" lon="5.7595">
        <ele>1259.1999511719</ele>
        <time>2021-10-16T05:13:27.000Z</time>
      </trkpt>
      <trkpt lat="45.23622" lon="5.75949">
        <ele>1258.8000488281</ele>
        <time>2021-10-16T05:13:28.000Z</time>
      </trkpt>
      <trkpt lat="45.2362" lon="5.75949">
        <ele>1258.8000488281</ele>
        <time>2021-10-16T05:13:29.000Z</time>
      </trkpt>
      <trkpt lat="45.23618" lon="5.75951">
        <ele>1258.4000244141</ele>
        <time>2021-10-16T05:13:31.000Z</time>
      </trkpt>
      <trkpt lat="45.23615" lon="5.75952">
        <ele>1257.8000488281</ele>
        <time>2021-10-16T05:13:33.000Z</time>
      </trkpt>
      <trkpt lat="45.23614" lon="5.75953">
        <ele>1256.8000488281</ele>
        <time>2021-10-16T05:13:34.000Z</time>
      </trkpt>
      <trkpt lat="45.23611" lon="5.75954">
        <ele>1256</ele>
        <time>2021-10-16T05:13:36.000Z</time>
      </trkpt>
      <trkpt lat="45.23604" lon="5.75954">
        <ele>1254.8000488281</ele>
        <time>2021-10-16T05:13:40.000Z</time>
      </trkpt>
      <trkpt lat="45.23602" lon="5.75955">
        <ele>1254</ele>
        <time>2021-10-16T05:13:41.000Z</time>
      </trkpt>
      <trkpt lat="45.23599" lon="5.75956">
        <ele>1253.4000244141</ele>
        <time>2021-10-16T05:13:43.000Z</time>
      </trkpt>
      <trkpt lat="45.23594" lon="5.75958">
        <ele>1252.4000244141</ele>
        <time>2021-10-16T05:13:46.000Z</time>
      </trkpt>
      <trkpt lat="45.23593" lon="5.75959">
        <ele>1251.8000488281</ele>
        <time>2021-10-16T05:13:47.000Z</time>
      </trkpt>
      <trkpt lat="45.23591" lon="5.7596">
        <ele>1251.1999511719</ele>
        <time>2021-10-16T05:13:48.000Z</time>
      </trkpt>
      <trkpt lat="45.23588" lon="5.75962">
        <ele>1250</ele>
        <time>2021-10-16T05:13:51.000Z</time>
      </trkpt>
      <trkpt lat="45.23586" lon="5.75963">
        <ele>1249.1999511719</ele>
        <time>2021-10-16T05:13:53.000Z</time>
      </trkpt>
      <trkpt lat="45.23585" lon="5.75964">
        <ele>1248.8000488281</ele>
        <time>2021-10-16T05:13:54.000Z</time>
      </trkpt>
      <trkpt lat="45.23582" lon="5.75965">
        <ele>1247.5999755859</ele>
        <time>2021-10-16T05:13:56.000Z</time>
      </trkpt>
      <trkpt lat="45.2358" lon="5.75964">
        <ele>1247.4000244141</ele>
        <time>2021-10-16T05:13:57.000Z</time>
      </trkpt>
      <trkpt lat="45.23579" lon="5.75965">
        <ele>1247</ele>
        <time>2021-10-16T05:13:58.000Z</time>
      </trkpt>
      <trkpt lat="45.23577" lon="5.75967">
        <ele>1246.5999755859</ele>
        <time>2021-10-16T05:14:00.000Z</time>
      </trkpt>
      <trkpt lat="45.23575" lon="5.75969">
        <ele>1245.8000488281</ele>
        <time>2021-10-16T05:14:01.000Z</time>
      </trkpt>
      <trkpt lat="45.23571" lon="5.75972">
        <ele>1244.5999755859</ele>
        <time>2021-10-16T05:14:03.000Z</time>
      </trkpt>
      <trkpt lat="45.23569" lon="5.75972">
        <ele>1244.4000244141</ele>
        <time>2021-10-16T05:14:04.000Z</time>
      </trkpt>
      <trkpt lat="45.23562" lon="5.75973">
        <ele>1243.5999755859</ele>
        <time>2021-10-16T05:14:07.000Z</time>
      </trkpt>
      <trkpt lat="45.2356" lon="5.75974">
        <ele>1242.1999511719</ele>
        <time>2021-10-16T05:14:09.000Z</time>
      </trkpt>
      <trkpt lat="45.23559" lon="5.75974">
        <ele>1242.1999511719</ele>
        <time>2021-10-16T05:14:10.000Z</time>
      </trkpt>
      <trkpt lat="45.23552" lon="5.75977">
        <ele>1240.8000488281</ele>
        <time>2021-10-16T05:14:14.000Z</time>
      </trkpt>
      <trkpt lat="45.2355" lon="5.75977">
        <ele>1240.8000488281</ele>
        <time>2021-10-16T05:14:15.000Z</time>
      </trkpt>
      <trkpt lat="45.23548" lon="5.7598">
        <ele>1240.1999511719</ele>
        <time>2021-10-16T05:14:16.000Z</time>
      </trkpt>
      <trkpt lat="45.23544" lon="5.75984">
        <ele>1239.5999755859</ele>
        <time>2021-10-16T05:14:18.000Z</time>
      </trkpt>
      <trkpt lat="45.23538" lon="5.75987">
        <ele>1239</ele>
        <time>2021-10-16T05:14:20.000Z</time>
      </trkpt>
      <trkpt lat="45.23537" lon="5.75987">
        <ele>1238.1999511719</ele>
        <time>2021-10-16T05:14:21.000Z</time>
      </trkpt>
      <trkpt lat="45.23532" lon="5.75991">
        <ele>1236.4000244141</ele>
        <time>2021-10-16T05:14:25.000Z</time>
      </trkpt>
      <trkpt lat="45.2353" lon="5.75992">
        <ele>1235.8000488281</ele>
        <time>2021-10-16T05:14:27.000Z</time>
      </trkpt>
      <trkpt lat="45.23525" lon="5.75993">
        <ele>1235.1999511719</ele>
        <time>2021-10-16T05:14:29.000Z</time>
      </trkpt>
      <trkpt lat="45.23521" lon="5.75998">
        <ele>1234</ele>
        <time>2021-10-16T05:14:31.000Z</time>
      </trkpt>
      <trkpt lat="45.23518" lon="5.76001">
        <ele>1233.8000488281</ele>
        <time>2021-10-16T05:14:33.000Z</time>
      </trkpt>
      <trkpt lat="45.23517" lon="5.76003">
        <ele>1232.5999755859</ele>
        <time>2021-10-16T05:14:34.000Z</time>
      </trkpt>
      <trkpt lat="45.23513" lon="5.76008">
        <ele>1231.8000488281</ele>
        <time>2021-10-16T05:14:37.000Z</time>
      </trkpt>
      <trkpt lat="45.23512" lon="5.76009">
        <ele>1231.5999755859</ele>
        <time>2021-10-16T05:14:38.000Z</time>
      </trkpt>
      <trkpt lat="45.23509" lon="5.76011">
        <ele>1230.4000244141</ele>
        <time>2021-10-16T05:14:40.000Z</time>
      </trkpt>
      <trkpt lat="45.23507" lon="5.76011">
        <ele>1230.1999511719</ele>
        <time>2021-10-16T05:14:41.000Z</time>
      </trkpt>
      <trkpt lat="45.23505" lon="5.76005">
        <ele>1228.8000488281</ele>
        <time>2021-10-16T05:14:44.000Z</time>
      </trkpt>
      <trkpt lat="45.23506" lon="5.76003">
        <ele>1228.4000244141</ele>
        <time>2021-10-16T05:14:45.000Z</time>
      </trkpt>
      <trkpt lat="45.23508" lon="5.75996">
        <ele>1227.8000488281</ele>
        <time>2021-10-16T05:14:48.000Z</time>
      </trkpt>
      <trkpt lat="45.2351" lon="5.75992">
        <ele>1226.5999755859</ele>
        <time>2021-10-16T05:14:50.000Z</time>
      </trkpt>
      <trkpt lat="45.23512" lon="5.75985">
        <ele>1225.1999511719</ele>
        <time>2021-10-16T05:14:54.000Z</time>
      </trkpt>
      <trkpt lat="45.23513" lon="5.75981">
        <ele>1224.8000488281</ele>
        <time>2021-10-16T05:14:56.000Z</time>
      </trkpt>
      <trkpt lat="45.23514" lon="5.75979">
        <ele>1223.8000488281</ele>
        <time>2021-10-16T05:14:57.000Z</time>
      </trkpt>
      <trkpt lat="45.23518" lon="5.75971">
        <ele>1223</ele>
        <time>2021-10-16T05:15:01.000Z</time>
      </trkpt>
      <trkpt lat="45.23519" lon="5.7597">
        <ele>1221.8000488281</ele>
        <time>2021-10-16T05:15:02.000Z</time>
      </trkpt>
      <trkpt lat="45.23523" lon="5.7596">
        <ele>1220.8000488281</ele>
        <time>2021-10-16T05:15:07.000Z</time>
      </trkpt>
      <trkpt lat="45.23526" lon="5.75957">
        <ele>1219.4000244141</ele>
        <time>2021-10-16T05:15:09.000Z</time>
      </trkpt>
      <trkpt lat="45.23528" lon="5.75951">
        <ele>1218.1999511719</ele>
        <time>2021-10-16T05:15:12.000Z</time>
      </trkpt>
      <trkpt lat="45.23527" lon="5.75943">
        <ele>1217.1999511719</ele>
        <time>2021-10-16T05:15:15.000Z</time>
      </trkpt>
      <trkpt lat="45.23527" lon="5.7594">
        <ele>1217</ele>
        <time>2021-10-16T05:15:16.000Z</time>
      </trkpt>
      <trkpt lat="45.23528" lon="5.75936">
        <ele>1216.4000244141</ele>
        <time>2021-10-16T05:15:18.000Z</time>
      </trkpt>
      <trkpt lat="45.2353" lon="5.7593">
        <ele>1215</ele>
        <time>2021-10-16T05:15:20.000Z</time>
      </trkpt>
      <trkpt lat="45.23531" lon="5.75928">
        <ele>1214.8000488281</ele>
        <time>2021-10-16T05:15:21.000Z</time>
      </trkpt>
      <trkpt lat="45.23532" lon="5.75926">
        <ele>1214.8000488281</ele>
        <time>2021-10-16T05:15:22.000Z</time>
      </trkpt>
      <trkpt lat="45.23534" lon="5.75921">
        <ele>1214.1999511719</ele>
        <time>2021-10-16T05:15:24.000Z</time>
      </trkpt>
      <trkpt lat="45.23534" lon="5.75918">
        <ele>1213</ele>
        <time>2021-10-16T05:15:25.000Z</time>
      </trkpt>
      <trkpt lat="45.23537" lon="5.75911">
        <ele>1211.8000488281</ele>
        <time>2021-10-16T05:15:28.000Z</time>
      </trkpt>
      <trkpt lat="45.23538" lon="5.75909">
        <ele>1211.4000244141</ele>
        <time>2021-10-16T05:15:29.000Z</time>
      </trkpt>
      <trkpt lat="45.23539" lon="5.75904">
        <ele>1210.4000244141</ele>
        <time>2021-10-16T05:15:31.000Z</time>
      </trkpt>
      <trkpt lat="45.23541" lon="5.75898">
        <ele>1209</ele>
        <time>2021-10-16T05:15:33.000Z</time>
      </trkpt>
      <trkpt lat="45.23543" lon="5.75891">
        <ele>1208.4000244141</ele>
        <time>2021-10-16T05:15:35.000Z</time>
      </trkpt>
      <trkpt lat="45.23546" lon="5.75887">
        <ele>1207.8000488281</ele>
        <time>2021-10-16T05:15:37.000Z</time>
      </trkpt>
      <trkpt lat="45.23549" lon="5.75883">
        <ele>1206.5999755859</ele>
        <time>2021-10-16T05:15:39.000Z</time>
      </trkpt>
      <trkpt lat="45.23549" lon="5.7588">
        <ele>1206.5999755859</ele>
        <time>2021-10-16T05:15:40.000Z</time>
      </trkpt>
      <trkpt lat="45.23552" lon="5.75873">
        <ele>1205.1999511719</ele>
        <time>2021-10-16T05:15:42.000Z</time>
      </trkpt>
      <trkpt lat="45.23557" lon="5.75866">
        <ele>1204.1999511719</ele>
        <time>2021-10-16T05:15:45.000Z</time>
      </trkpt>
      <trkpt lat="45.23559" lon="5.75861">
        <ele>1203.4000244141</ele>
        <time>2021-10-16T05:15:47.000Z</time>
      </trkpt>
      <trkpt lat="45.23561" lon="5.7586">
        <ele>1202.8000488281</ele>
        <time>2021-10-16T05:15:48.000Z</time>
      </trkpt>
      <trkpt lat="45.23565" lon="5.75854">
        <ele>1201.5999755859</ele>
        <time>2021-10-16T05:15:51.000Z</time>
      </trkpt>
      <trkpt lat="45.23565" lon="5.75851">
        <ele>1200.4000244141</ele>
        <time>2021-10-16T05:15:52.000Z</time>
      </trkpt>
      <trkpt lat="45.23566" lon="5.75848">
        <ele>1200.1999511719</ele>
        <time>2021-10-16T05:15:53.000Z</time>
      </trkpt>
      <trkpt lat="45.23567" lon="5.75846">
        <ele>1200.1999511719</ele>
        <time>2021-10-16T05:15:54.000Z</time>
      </trkpt>
      <trkpt lat="45.23571" lon="5.75839">
        <ele>1199.4000244141</ele>
        <time>2021-10-16T05:15:57.000Z</time>
      </trkpt>
      <trkpt lat="45.23574" lon="5.75834">
        <ele>1198.1999511719</ele>
        <time>2021-10-16T05:15:59.000Z</time>
      </trkpt>
      <trkpt lat="45.23576" lon="5.75829">
        <ele>1197.4000244141</ele>
        <time>2021-10-16T05:16:02.000Z</time>
      </trkpt>
      <trkpt lat="45.23577" lon="5.75827">
        <ele>1196.5999755859</ele>
        <time>2021-10-16T05:16:03.000Z</time>
      </trkpt>
      <trkpt lat="45.2358" lon="5.75822">
        <ele>1195.5999755859</ele>
        <time>2021-10-16T05:16:06.000Z</time>
      </trkpt>
      <trkpt lat="45.2358" lon="5.7582">
        <ele>1194.1999511719</ele>
        <time>2021-10-16T05:16:07.000Z</time>
      </trkpt>
      <trkpt lat="45.23581" lon="5.75817">
        <ele>1193.5999755859</ele>
        <time>2021-10-16T05:16:08.000Z</time>
      </trkpt>
      <trkpt lat="45.23584" lon="5.75811">
        <ele>1192.8000488281</ele>
        <time>2021-10-16T05:16:11.000Z</time>
      </trkpt>
      <trkpt lat="45.23591" lon="5.75804">
        <ele>1191.1999511719</ele>
        <time>2021-10-16T05:16:15.000Z</time>
      </trkpt>
      <trkpt lat="45.23595" lon="5.75796">
        <ele>1190.1999511719</ele>
        <time>2021-10-16T05:16:18.000Z</time>
      </trkpt>
      <trkpt lat="45.23602" lon="5.7579">
        <ele>1189</ele>
        <time>2021-10-16T05:16:22.000Z</time>
      </trkpt>
      <trkpt lat="45.23601" lon="5.75789">
        <ele>1188.5999755859</ele>
        <time>2021-10-16T05:16:24.000Z</time>
      </trkpt>
      <trkpt lat="45.236" lon="5.75789">
        <ele>1187.8000488281</ele>
        <time>2021-10-16T05:16:25.000Z</time>
      </trkpt>
      <trkpt lat="45.23598" lon="5.7579">
        <ele>1185.5999755859</ele>
        <time>2021-10-16T05:16:27.000Z</time>
      </trkpt>
      <trkpt lat="45.23595" lon="5.75792">
        <ele>1185.5999755859</ele>
        <time>2021-10-16T05:16:29.000Z</time>
      </trkpt>
      <trkpt lat="45.2359" lon="5.75794">
        <ele>1184.4000244141</ele>
        <time>2021-10-16T05:16:32.000Z</time>
      </trkpt>
      <trkpt lat="45.23588" lon="5.75795">
        <ele>1183.4000244141</ele>
        <time>2021-10-16T05:16:34.000Z</time>
      </trkpt>
      <trkpt lat="45.2358" lon="5.75799">
        <ele>1182.1999511719</ele>
        <time>2021-10-16T05:16:38.000Z</time>
      </trkpt>
      <trkpt lat="45.23577" lon="5.75799">
        <ele>1180.5999755859</ele>
        <time>2021-10-16T05:16:40.000Z</time>
      </trkpt>
      <trkpt lat="45.23572" lon="5.75799">
        <ele>1179.4000244141</ele>
        <time>2021-10-16T05:16:42.000Z</time>
      </trkpt>
      <trkpt lat="45.23564" lon="5.75798">
        <ele>1177.5999755859</ele>
        <time>2021-10-16T05:16:46.000Z</time>
      </trkpt>
      <trkpt lat="45.23559" lon="5.758">
        <ele>1176.4000244141</ele>
        <time>2021-10-16T05:16:49.000Z</time>
      </trkpt>
      <trkpt lat="45.23557" lon="5.75801">
        <ele>1176.4000244141</ele>
        <time>2021-10-16T05:16:50.000Z</time>
      </trkpt>
      <trkpt lat="45.23554" lon="5.75801">
        <ele>1175.4000244141</ele>
        <time>2021-10-16T05:16:52.000Z</time>
      </trkpt>
      <trkpt lat="45.23551" lon="5.75804">
        <ele>1174</ele>
        <time>2021-10-16T05:16:55.000Z</time>
      </trkpt>
      <trkpt lat="45.2355" lon="5.75804">
        <ele>1173.5999755859</ele>
        <time>2021-10-16T05:16:57.000Z</time>
      </trkpt>
      <trkpt lat="45.23548" lon="5.75806">
        <ele>1172</ele>
        <time>2021-10-16T05:16:59.000Z</time>
      </trkpt>
      <trkpt lat="45.23547" lon="5.75806">
        <ele>1172</ele>
        <time>2021-10-16T05:17:00.000Z</time>
      </trkpt>
      <trkpt lat="45.23543" lon="5.75806">
        <ele>1171.1999511719</ele>
        <time>2021-10-16T05:17:03.000Z</time>
      </trkpt>
      <trkpt lat="45.23541" lon="5.75806">
        <ele>1169.8000488281</ele>
        <time>2021-10-16T05:17:04.000Z</time>
      </trkpt>
      <trkpt lat="45.2354" lon="5.75806">
        <ele>1169.5999755859</ele>
        <time>2021-10-16T05:17:05.000Z</time>
      </trkpt>
      <trkpt lat="45.23537" lon="5.75807">
        <ele>1168.8000488281</ele>
        <time>2021-10-16T05:17:07.000Z</time>
      </trkpt>
      <trkpt lat="45.23537" lon="5.75807">
        <ele>1168.4000244141</ele>
        <time>2021-10-16T05:17:08.000Z</time>
      </trkpt>
      <trkpt lat="45.23536" lon="5.75807">
        <ele>1168.1999511719</ele>
        <time>2021-10-16T05:17:09.000Z</time>
      </trkpt>
      <trkpt lat="45.23534" lon="5.75807">
        <ele>1168</ele>
        <time>2021-10-16T05:17:10.000Z</time>
      </trkpt>
      <trkpt lat="45.23532" lon="5.75808">
        <ele>1167.4000244141</ele>
        <time>2021-10-16T05:17:11.000Z</time>
      </trkpt>
      <trkpt lat="45.23528" lon="5.75812">
        <ele>1165.8000488281</ele>
        <time>2021-10-16T05:17:14.000Z</time>
      </trkpt>
      <trkpt lat="45.23523" lon="5.75816">
        <ele>1164.4000244141</ele>
        <time>2021-10-16T05:17:17.000Z</time>
      </trkpt>
      <trkpt lat="45.23515" lon="5.75818">
        <ele>1163</ele>
        <time>2021-10-16T05:17:20.000Z</time>
      </trkpt>
      <trkpt lat="45.2351" lon="5.75822">
        <ele>1161.5999755859</ele>
        <time>2021-10-16T05:17:24.000Z</time>
      </trkpt>
      <trkpt lat="45.23508" lon="5.75823">
        <ele>1161.1999511719</ele>
        <time>2021-10-16T05:17:25.000Z</time>
      </trkpt>
      <trkpt lat="45.23506" lon="5.75824">
        <ele>1160.4000244141</ele>
        <time>2021-10-16T05:17:26.000Z</time>
      </trkpt>
      <trkpt lat="45.235" lon="5.75829">
        <ele>1159.1999511719</ele>
        <time>2021-10-16T05:17:29.000Z</time>
      </trkpt>
      <trkpt lat="45.23497" lon="5.75831">
        <ele>1158</ele>
        <time>2021-10-16T05:17:32.000Z</time>
      </trkpt>
      <trkpt lat="45.23495" lon="5.75833">
        <ele>1157</ele>
        <time>2021-10-16T05:17:34.000Z</time>
      </trkpt>
      <trkpt lat="45.23492" lon="5.75836">
        <ele>1156</ele>
        <time>2021-10-16T05:17:37.000Z</time>
      </trkpt>
      <trkpt lat="45.23492" lon="5.75837">
        <ele>1155.8000488281</ele>
        <time>2021-10-16T05:17:38.000Z</time>
      </trkpt>
      <trkpt lat="45.2349" lon="5.75837">
        <ele>1155.8000488281</ele>
        <time>2021-10-16T05:17:39.000Z</time>
      </trkpt>
      <trkpt lat="45.23489" lon="5.75838">
        <ele>1154.5999755859</ele>
        <time>2021-10-16T05:17:40.000Z</time>
      </trkpt>
      <trkpt lat="45.23487" lon="5.75839">
        <ele>1154.4000244141</ele>
        <time>2021-10-16T05:17:41.000Z</time>
      </trkpt>
      <trkpt lat="45.23481" lon="5.75843">
        <ele>1153.4000244141</ele>
        <time>2021-10-16T05:17:44.000Z</time>
      </trkpt>
      <trkpt lat="45.23476" lon="5.75847">
        <ele>1151.5999755859</ele>
        <time>2021-10-16T05:17:47.000Z</time>
      </trkpt>
      <trkpt lat="45.23475" lon="5.75849">
        <ele>1151.4000244141</ele>
        <time>2021-10-16T05:17:49.000Z</time>
      </trkpt>
      <trkpt lat="45.23473" lon="5.75849">
        <ele>1150.5999755859</ele>
        <time>2021-10-16T05:17:50.000Z</time>
      </trkpt>
      <trkpt lat="45.23472" lon="5.75848">
        <ele>1150.5999755859</ele>
        <time>2021-10-16T05:17:51.000Z</time>
      </trkpt>
      <trkpt lat="45.23468" lon="5.75849">
        <ele>1149.1999511719</ele>
        <time>2021-10-16T05:17:53.000Z</time>
      </trkpt>
      <trkpt lat="45.23466" lon="5.7585">
        <ele>1149</ele>
        <time>2021-10-16T05:17:54.000Z</time>
      </trkpt>
      <trkpt lat="45.23464" lon="5.75852">
        <ele>1147.8000488281</ele>
        <time>2021-10-16T05:17:57.000Z</time>
      </trkpt>
      <trkpt lat="45.23463" lon="5.75852">
        <ele>1147.5999755859</ele>
        <time>2021-10-16T05:17:58.000Z</time>
      </trkpt>
      <trkpt lat="45.23463" lon="5.75853">
        <ele>1146.8000488281</ele>
        <time>2021-10-16T05:17:59.000Z</time>
      </trkpt>
      <trkpt lat="45.23462" lon="5.75853">
        <ele>1146.8000488281</ele>
        <time>2021-10-16T05:18:00.000Z</time>
      </trkpt>
      <trkpt lat="45.23461" lon="5.75854">
        <ele>1146.5999755859</ele>
        <time>2021-10-16T05:18:01.000Z</time>
      </trkpt>
      <trkpt lat="45.2346" lon="5.75854">
        <ele>1145.5999755859</ele>
        <time>2021-10-16T05:18:02.000Z</time>
      </trkpt>
      <trkpt lat="45.23456" lon="5.75857">
        <ele>1144.5999755859</ele>
        <time>2021-10-16T05:18:05.000Z</time>
      </trkpt>
      <trkpt lat="45.23454" lon="5.75858">
        <ele>1144.1999511719</ele>
        <time>2021-10-16T05:18:06.000Z</time>
      </trkpt>
      <trkpt lat="45.23452" lon="5.75859">
        <ele>1143.4000244141</ele>
        <time>2021-10-16T05:18:07.000Z</time>
      </trkpt>
      <trkpt lat="45.2345" lon="5.75861">
        <ele>1143.4000244141</ele>
        <time>2021-10-16T05:18:08.000Z</time>
      </trkpt>
      <trkpt lat="45.23448" lon="5.75862">
        <ele>1142.4000244141</ele>
        <time>2021-10-16T05:18:09.000Z</time>
      </trkpt>
      <trkpt lat="45.23445" lon="5.75864">
        <ele>1142.4000244141</ele>
        <time>2021-10-16T05:18:10.000Z</time>
      </trkpt>
      <trkpt lat="45.23444" lon="5.75866">
        <ele>1141.8000488281</ele>
        <time>2021-10-16T05:18:11.000Z</time>
      </trkpt>
      <trkpt lat="45.23442" lon="5.75869">
        <ele>1141.1999511719</ele>
        <time>2021-10-16T05:18:13.000Z</time>
      </trkpt>
      <trkpt lat="45.23437" lon="5.75873">
        <ele>1140</ele>
        <time>2021-10-16T05:18:15.000Z</time>
      </trkpt>
      <trkpt lat="45.23431" lon="5.75877">
        <ele>1139</ele>
        <time>2021-10-16T05:18:18.000Z</time>
      </trkpt>
      <trkpt lat="45.23431" lon="5.75879">
        <ele>1138.8000488281</ele>
        <time>2021-10-16T05:18:19.000Z</time>
      </trkpt>
      <trkpt lat="45.23429" lon="5.7588">
        <ele>1137.5999755859</ele>
        <time>2021-10-16T05:18:21.000Z</time>
      </trkpt>
      <trkpt lat="45.2342" lon="5.75885">
        <ele>1136.8000488281</ele>
        <time>2021-10-16T05:18:25.000Z</time>
      </trkpt>
      <trkpt lat="45.23418" lon="5.75887">
        <ele>1135.8000488281</ele>
        <time>2021-10-16T05:18:26.000Z</time>
      </trkpt>
      <trkpt lat="45.23415" lon="5.75889">
        <ele>1134.8000488281</ele>
        <time>2021-10-16T05:18:28.000Z</time>
      </trkpt>
      <trkpt lat="45.2341" lon="5.75888">
        <ele>1133.8000488281</ele>
        <time>2021-10-16T05:18:30.000Z</time>
      </trkpt>
      <trkpt lat="45.23407" lon="5.75889">
        <ele>1133.1999511719</ele>
        <time>2021-10-16T05:18:32.000Z</time>
      </trkpt>
      <trkpt lat="45.23405" lon="5.7589">
        <ele>1132.5999755859</ele>
        <time>2021-10-16T05:18:33.000Z</time>
      </trkpt>
      <trkpt lat="45.234" lon="5.75893">
        <ele>1131.4000244141</ele>
        <time>2021-10-16T05:18:36.000Z</time>
      </trkpt>
      <trkpt lat="45.23394" lon="5.75893">
        <ele>1129.8000488281</ele>
        <time>2021-10-16T05:18:39.000Z</time>
      </trkpt>
      <trkpt lat="45.23387" lon="5.75897">
        <ele>1127.8000488281</ele>
        <time>2021-10-16T05:18:44.000Z</time>
      </trkpt>
      <trkpt lat="45.23386" lon="5.75899">
        <ele>1127.8000488281</ele>
        <time>2021-10-16T05:18:45.000Z</time>
      </trkpt>
      <trkpt lat="45.23386" lon="5.759">
        <ele>1127.4000244141</ele>
        <time>2021-10-16T05:18:46.000Z</time>
      </trkpt>
      <trkpt lat="45.23385" lon="5.75902">
        <ele>1126.5999755859</ele>
        <time>2021-10-16T05:18:47.000Z</time>
      </trkpt>
      <trkpt lat="45.23382" lon="5.7591">
        <ele>1125</ele>
        <time>2021-10-16T05:18:51.000Z</time>
      </trkpt>
      <trkpt lat="45.23381" lon="5.75911">
        <ele>1125</ele>
        <time>2021-10-16T05:18:52.000Z</time>
      </trkpt>
      <trkpt lat="45.23381" lon="5.75913">
        <ele>1124.5999755859</ele>
        <time>2021-10-16T05:18:53.000Z</time>
      </trkpt>
      <trkpt lat="45.2338" lon="5.75915">
        <ele>1124.4000244141</ele>
        <time>2021-10-16T05:18:54.000Z</time>
      </trkpt>
      <trkpt lat="45.23379" lon="5.75918">
        <ele>1123.8000488281</ele>
        <time>2021-10-16T05:18:56.000Z</time>
      </trkpt>
      <trkpt lat="45.23378" lon="5.75928">
        <ele>1122.4000244141</ele>
        <time>2021-10-16T05:18:59.000Z</time>
      </trkpt>
      <trkpt lat="45.23377" lon="5.75932">
        <ele>1122.1999511719</ele>
        <time>2021-10-16T05:19:01.000Z</time>
      </trkpt>
      <trkpt lat="45.23377" lon="5.75934">
        <ele>1121.5999755859</ele>
        <time>2021-10-16T05:19:02.000Z</time>
      </trkpt>
      <trkpt lat="45.23377" lon="5.75937">
        <ele>1120.5999755859</ele>
        <time>2021-10-16T05:19:03.000Z</time>
      </trkpt>
      <trkpt lat="45.23375" lon="5.75939">
        <ele>1120.4000244141</ele>
        <time>2021-10-16T05:19:04.000Z</time>
      </trkpt>
      <trkpt lat="45.23371" lon="5.75939">
        <ele>1120</ele>
        <time>2021-10-16T05:19:06.000Z</time>
      </trkpt>
      <trkpt lat="45.2337" lon="5.75937">
        <ele>1119.8000488281</ele>
        <time>2021-10-16T05:19:07.000Z</time>
      </trkpt>
      <trkpt lat="45.2337" lon="5.75935">
        <ele>1119.4000244141</ele>
        <time>2021-10-16T05:19:08.000Z</time>
      </trkpt>
      <trkpt lat="45.23367" lon="5.7593">
        <ele>1118.5999755859</ele>
        <time>2021-10-16T05:19:10.000Z</time>
      </trkpt>
      <trkpt lat="45.23366" lon="5.75929">
        <ele>1118</ele>
        <time>2021-10-16T05:19:11.000Z</time>
      </trkpt>
      <trkpt lat="45.23363" lon="5.75923">
        <ele>1116.8000488281</ele>
        <time>2021-10-16T05:19:14.000Z</time>
      </trkpt>
      <trkpt lat="45.23361" lon="5.7592">
        <ele>1116.1999511719</ele>
        <time>2021-10-16T05:19:16.000Z</time>
      </trkpt>
      <trkpt lat="45.2336" lon="5.75918">
        <ele>1115.8000488281</ele>
        <time>2021-10-16T05:19:17.000Z</time>
      </trkpt>
      <trkpt lat="45.23356" lon="5.75913">
        <ele>1114.4000244141</ele>
        <time>2021-10-16T05:19:21.000Z</time>
      </trkpt>
      <trkpt lat="45.23352" lon="5.75907">
        <ele>1113.4000244141</ele>
        <time>2021-10-16T05:19:25.000Z</time>
      </trkpt>
      <trkpt lat="45.2335" lon="5.75901">
        <ele>1112</ele>
        <time>2021-10-16T05:19:28.000Z</time>
      </trkpt>
      <trkpt lat="45.23347" lon="5.75894">
        <ele>1110.5999755859</ele>
        <time>2021-10-16T05:19:32.000Z</time>
      </trkpt>
      <trkpt lat="45.23346" lon="5.75892">
        <ele>1110.4000244141</ele>
        <time>2021-10-16T05:19:33.000Z</time>
      </trkpt>
      <trkpt lat="45.23343" lon="5.75883">
        <ele>1109.1999511719</ele>
        <time>2021-10-16T05:19:36.000Z</time>
      </trkpt>
      <trkpt lat="45.23344" lon="5.75874">
        <ele>1108.4000244141</ele>
        <time>2021-10-16T05:19:38.000Z</time>
      </trkpt>
      <trkpt lat="45.23346" lon="5.75866">
        <ele>1108</ele>
        <time>2021-10-16T05:19:40.000Z</time>
      </trkpt>
      <trkpt lat="45.23349" lon="5.75857">
        <ele>1107</ele>
        <time>2021-10-16T05:19:43.000Z</time>
      </trkpt>
      <trkpt lat="45.23352" lon="5.75852">
        <ele>1106.4000244141</ele>
        <time>2021-10-16T05:19:45.000Z</time>
      </trkpt>
      <trkpt lat="45.23355" lon="5.75851">
        <ele>1106</ele>
        <time>2021-10-16T05:19:46.000Z</time>
      </trkpt>
      <trkpt lat="45.23362" lon="5.75848">
        <ele>1105</ele>
        <time>2021-10-16T05:19:49.000Z</time>
      </trkpt>
      <trkpt lat="45.23363" lon="5.75847">
        <ele>1104.8000488281</ele>
        <time>2021-10-16T05:19:50.000Z</time>
      </trkpt>
      <trkpt lat="45.2337" lon="5.75843">
        <ele>1103.5999755859</ele>
        <time>2021-10-16T05:19:54.000Z</time>
      </trkpt>
      <trkpt lat="45.23373" lon="5.75842">
        <ele>1102.8000488281</ele>
        <time>2021-10-16T05:19:56.000Z</time>
      </trkpt>
      <trkpt lat="45.23374" lon="5.75841">
        <ele>1102.4000244141</ele>
        <time>2021-10-16T05:19:57.000Z</time>
      </trkpt>
      <trkpt lat="45.23381" lon="5.75836">
        <ele>1100.5999755859</ele>
        <time>2021-10-16T05:20:02.000Z</time>
      </trkpt>
      <trkpt lat="45.23382" lon="5.75836">
        <ele>1100.4000244141</ele>
        <time>2021-10-16T05:20:03.000Z</time>
      </trkpt>
      <trkpt lat="45.23384" lon="5.75835">
        <ele>1100</ele>
        <time>2021-10-16T05:20:05.000Z</time>
      </trkpt>
      <trkpt lat="45.23386" lon="5.75835">
        <ele>1099.5999755859</ele>
        <time>2021-10-16T05:20:06.000Z</time>
      </trkpt>
      <trkpt lat="45.2339" lon="5.75832">
        <ele>1098.5999755859</ele>
        <time>2021-10-16T05:20:09.000Z</time>
      </trkpt>
      <trkpt lat="45.23392" lon="5.7583">
        <ele>1098</ele>
        <time>2021-10-16T05:20:10.000Z</time>
      </trkpt>
      <trkpt lat="45.23394" lon="5.75829">
        <ele>1097.5999755859</ele>
        <time>2021-10-16T05:20:11.000Z</time>
      </trkpt>
      <trkpt lat="45.23397" lon="5.75823">
        <ele>1097.4000244141</ele>
        <time>2021-10-16T05:20:14.000Z</time>
      </trkpt>
      <trkpt lat="45.23397" lon="5.75819">
        <ele>1096.4000244141</ele>
        <time>2021-10-16T05:20:15.000Z</time>
      </trkpt>
      <trkpt lat="45.23398" lon="5.75814">
        <ele>1095.8000488281</ele>
        <time>2021-10-16T05:20:17.000Z</time>
      </trkpt>
      <trkpt lat="45.23398" lon="5.75812">
        <ele>1095.1999511719</ele>
        <time>2021-10-16T05:20:18.000Z</time>
      </trkpt>
      <trkpt lat="45.23398" lon="5.7581">
        <ele>1095.1999511719</ele>
        <time>2021-10-16T05:20:19.000Z</time>
      </trkpt>
      <trkpt lat="45.23399" lon="5.75805">
        <ele>1094.1999511719</ele>
        <time>2021-10-16T05:20:21.000Z</time>
      </trkpt>
      <trkpt lat="45.234" lon="5.75803">
        <ele>1093.8000488281</ele>
        <time>2021-10-16T05:20:22.000Z</time>
      </trkpt>
      <trkpt lat="45.234" lon="5.75799">
        <ele>1093</ele>
        <time>2021-10-16T05:20:24.000Z</time>
      </trkpt>
      <trkpt lat="45.23401" lon="5.75789">
        <ele>1091.8000488281</ele>
        <time>2021-10-16T05:20:27.000Z</time>
      </trkpt>
      <trkpt lat="45.23402" lon="5.75785">
        <ele>1091.8000488281</ele>
        <time>2021-10-16T05:20:28.000Z</time>
      </trkpt>
      <trkpt lat="45.23404" lon="5.7578">
        <ele>1090.8000488281</ele>
        <time>2021-10-16T05:20:30.000Z</time>
      </trkpt>
      <trkpt lat="45.23409" lon="5.75771">
        <ele>1089.1999511719</ele>
        <time>2021-10-16T05:20:34.000Z</time>
      </trkpt>
      <trkpt lat="45.23409" lon="5.75768">
        <ele>1089.1999511719</ele>
        <time>2021-10-16T05:20:35.000Z</time>
      </trkpt>
      <trkpt lat="45.23412" lon="5.75761">
        <ele>1088</ele>
        <time>2021-10-16T05:20:39.000Z</time>
      </trkpt>
      <trkpt lat="45.23413" lon="5.75759">
        <ele>1087.5999755859</ele>
        <time>2021-10-16T05:20:40.000Z</time>
      </trkpt>
      <trkpt lat="45.23413" lon="5.75755">
        <ele>1087</ele>
        <time>2021-10-16T05:20:42.000Z</time>
      </trkpt>
      <trkpt lat="45.23414" lon="5.75753">
        <ele>1086.5999755859</ele>
        <time>2021-10-16T05:20:43.000Z</time>
      </trkpt>
      <trkpt lat="45.23416" lon="5.7575">
        <ele>1086</ele>
        <time>2021-10-16T05:20:45.000Z</time>
      </trkpt>
      <trkpt lat="45.23416" lon="5.75747">
        <ele>1085</ele>
        <time>2021-10-16T05:20:46.000Z</time>
      </trkpt>
      <trkpt lat="45.23417" lon="5.7574">
        <ele>1083.4000244141</ele>
        <time>2021-10-16T05:20:50.000Z</time>
      </trkpt>
      <trkpt lat="45.23417" lon="5.75738">
        <ele>1083</ele>
        <time>2021-10-16T05:20:51.000Z</time>
      </trkpt>
      <trkpt lat="45.23419" lon="5.75735">
        <ele>1082.1999511719</ele>
        <time>2021-10-16T05:20:53.000Z</time>
      </trkpt>
      <trkpt lat="45.2342" lon="5.75731">
        <ele>1081</ele>
        <time>2021-10-16T05:20:55.000Z</time>
      </trkpt>
      <trkpt lat="45.23423" lon="5.75717">
        <ele>1080.1999511719</ele>
        <time>2021-10-16T05:20:58.000Z</time>
      </trkpt>
      <trkpt lat="45.23423" lon="5.75714">
        <ele>1079.4000244141</ele>
        <time>2021-10-16T05:20:59.000Z</time>
      </trkpt>
      <trkpt lat="45.23424" lon="5.75709">
        <ele>1078.1999511719</ele>
        <time>2021-10-16T05:21:01.000Z</time>
      </trkpt>
      <trkpt lat="45.23428" lon="5.75701">
        <ele>1077</ele>
        <time>2021-10-16T05:21:05.000Z</time>
      </trkpt>
      <trkpt lat="45.23428" lon="5.75699">
        <ele>1076.5999755859</ele>
        <time>2021-10-16T05:21:06.000Z</time>
      </trkpt>
      <trkpt lat="45.2343" lon="5.75695">
        <ele>1076</ele>
        <time>2021-10-16T05:21:08.000Z</time>
      </trkpt>
      <trkpt lat="45.23431" lon="5.75694">
        <ele>1075.5999755859</ele>
        <time>2021-10-16T05:21:09.000Z</time>
      </trkpt>
      <trkpt lat="45.23432" lon="5.75692">
        <ele>1074.8000488281</ele>
        <time>2021-10-16T05:21:11.000Z</time>
      </trkpt>
      <trkpt lat="45.23431" lon="5.75693">
        <ele>1074.8000488281</ele>
        <time>2021-10-16T05:21:12.000Z</time>
      </trkpt>
      <trkpt lat="45.2343" lon="5.75694">
        <ele>1074.5999755859</ele>
        <time>2021-10-16T05:21:13.000Z</time>
      </trkpt>
      <trkpt lat="45.2343" lon="5.75696">
        <ele>1074</ele>
        <time>2021-10-16T05:21:14.000Z</time>
      </trkpt>
      <trkpt lat="45.23428" lon="5.75699">
        <ele>1073.4000244141</ele>
        <time>2021-10-16T05:21:16.000Z</time>
      </trkpt>
      <trkpt lat="45.23427" lon="5.75701">
        <ele>1073</ele>
        <time>2021-10-16T05:21:17.000Z</time>
      </trkpt>
      <trkpt lat="45.23423" lon="5.75704">
        <ele>1072</ele>
        <time>2021-10-16T05:21:20.000Z</time>
      </trkpt>
      <trkpt lat="45.23421" lon="5.75706">
        <ele>1071.8000488281</ele>
        <time>2021-10-16T05:21:22.000Z</time>
      </trkpt>
      <trkpt lat="45.23419" lon="5.75706">
        <ele>1070.5999755859</ele>
        <time>2021-10-16T05:21:23.000Z</time>
      </trkpt>
      <trkpt lat="45.23416" lon="5.75708">
        <ele>1069.5999755859</ele>
        <time>2021-10-16T05:21:25.000Z</time>
      </trkpt>
      <trkpt lat="45.23414" lon="5.75709">
        <ele>1069.4000244141</ele>
        <time>2021-10-16T05:21:26.000Z</time>
      </trkpt>
      <trkpt lat="45.2341" lon="5.75713">
        <ele>1068.5999755859</ele>
        <time>2021-10-16T05:21:28.000Z</time>
      </trkpt>
      <trkpt lat="45.23408" lon="5.75713">
        <ele>1068</ele>
        <time>2021-10-16T05:21:30.000Z</time>
      </trkpt>
      <trkpt lat="45.23406" lon="5.75714">
        <ele>1067.1999511719</ele>
        <time>2021-10-16T05:21:32.000Z</time>
      </trkpt>
      <trkpt lat="45.23402" lon="5.75715">
        <ele>1066.4000244141</ele>
        <time>2021-10-16T05:21:34.000Z</time>
      </trkpt>
      <trkpt lat="45.234" lon="5.75716">
        <ele>1066.1999511719</ele>
        <time>2021-10-16T05:21:35.000Z</time>
      </trkpt>
      <trkpt lat="45.23396" lon="5.75719">
        <ele>1065.4000244141</ele>
        <time>2021-10-16T05:21:37.000Z</time>
      </trkpt>
      <trkpt lat="45.23393" lon="5.75721">
        <ele>1064.1999511719</ele>
        <time>2021-10-16T05:21:39.000Z</time>
      </trkpt>
      <trkpt lat="45.23393" lon="5.7572">
        <ele>1063.8000488281</ele>
        <time>2021-10-16T05:21:40.000Z</time>
      </trkpt>
      <trkpt lat="45.23393" lon="5.75719">
        <ele>1063.5999755859</ele>
        <time>2021-10-16T05:21:41.000Z</time>
      </trkpt>
      <trkpt lat="45.23394" lon="5.75717">
        <ele>1063.1999511719</ele>
        <time>2021-10-16T05:21:42.000Z</time>
      </trkpt>
      <trkpt lat="45.23399" lon="5.75707">
        <ele>1061.1999511719</ele>
        <time>2021-10-16T05:21:47.000Z</time>
      </trkpt>
      <trkpt lat="45.23399" lon="5.75704">
        <ele>1061.1999511719</ele>
        <time>2021-10-16T05:21:48.000Z</time>
      </trkpt>
      <trkpt lat="45.23399" lon="5.75699">
        <ele>1060</ele>
        <time>2021-10-16T05:21:50.000Z</time>
      </trkpt>
      <trkpt lat="45.23399" lon="5.75691">
        <ele>1059</ele>
        <time>2021-10-16T05:21:53.000Z</time>
      </trkpt>
      <trkpt lat="45.234" lon="5.75689">
        <ele>1058.4000244141</ele>
        <time>2021-10-16T05:21:54.000Z</time>
      </trkpt>
      <trkpt lat="45.23401" lon="5.75688">
        <ele>1058</ele>
        <time>2021-10-16T05:21:55.000Z</time>
      </trkpt>
      <trkpt lat="45.23403" lon="5.75684">
        <ele>1057</ele>
        <time>2021-10-16T05:21:58.000Z</time>
      </trkpt>
      <trkpt lat="45.23404" lon="5.75683">
        <ele>1056.5999755859</ele>
        <time>2021-10-16T05:21:59.000Z</time>
      </trkpt>
      <trkpt lat="45.23407" lon="5.7568">
        <ele>1055.8000488281</ele>
        <time>2021-10-16T05:22:01.000Z</time>
      </trkpt>
      <trkpt lat="45.23409" lon="5.75675">
        <ele>1055</ele>
        <time>2021-10-16T05:22:03.000Z</time>
      </trkpt>
      <trkpt lat="45.2341" lon="5.75671">
        <ele>1054.8000488281</ele>
        <time>2021-10-16T05:22:05.000Z</time>
      </trkpt>
      <trkpt lat="45.23412" lon="5.75663">
        <ele>1053</ele>
        <time>2021-10-16T05:22:08.000Z</time>
      </trkpt>
      <trkpt lat="45.23413" lon="5.7566">
        <ele>1053</ele>
        <time>2021-10-16T05:22:09.000Z</time>
      </trkpt>
      <trkpt lat="45.23416" lon="5.75653">
        <ele>1052</ele>
        <time>2021-10-16T05:22:12.000Z</time>
      </trkpt>
      <trkpt lat="45.23417" lon="5.75651">
        <ele>1051.5999755859</ele>
        <time>2021-10-16T05:22:13.000Z</time>
      </trkpt>
      <trkpt lat="45.23419" lon="5.75649">
        <ele>1050.5999755859</ele>
        <time>2021-10-16T05:22:14.000Z</time>
      </trkpt>
      <trkpt lat="45.23423" lon="5.75645">
        <ele>1050.1999511719</ele>
        <time>2021-10-16T05:22:17.000Z</time>
      </trkpt>
      <trkpt lat="45.23425" lon="5.75645">
        <ele>1049.4000244141</ele>
        <time>2021-10-16T05:22:18.000Z</time>
      </trkpt>
      <trkpt lat="45.23429" lon="5.75644">
        <ele>1048.4000244141</ele>
        <time>2021-10-16T05:22:20.000Z</time>
      </trkpt>
      <trkpt lat="45.23432" lon="5.75643">
        <ele>1048</ele>
        <time>2021-10-16T05:22:22.000Z</time>
      </trkpt>
      <trkpt lat="45.23436" lon="5.75642">
        <ele>1047</ele>
        <time>2021-10-16T05:22:24.000Z</time>
      </trkpt>
      <trkpt lat="45.23443" lon="5.7564">
        <ele>1045</ele>
        <time>2021-10-16T05:22:29.000Z</time>
      </trkpt>
      <trkpt lat="45.23445" lon="5.75638">
        <ele>1044.8000488281</ele>
        <time>2021-10-16T05:22:30.000Z</time>
      </trkpt>
      <trkpt lat="45.2345" lon="5.75632">
        <ele>1043.1999511719</ele>
        <time>2021-10-16T05:22:33.000Z</time>
      </trkpt>
      <trkpt lat="45.23457" lon="5.75629">
        <ele>1042.5999755859</ele>
        <time>2021-10-16T05:22:36.000Z</time>
      </trkpt>
      <trkpt lat="45.23459" lon="5.75628">
        <ele>1042</ele>
        <time>2021-10-16T05:22:37.000Z</time>
      </trkpt>
      <trkpt lat="45.23462" lon="5.75627">
        <ele>1041</ele>
        <time>2021-10-16T05:22:39.000Z</time>
      </trkpt>
      <trkpt lat="45.23467" lon="5.75627">
        <ele>1039.8000488281</ele>
        <time>2021-10-16T05:22:42.000Z</time>
      </trkpt>
      <trkpt lat="45.2347" lon="5.75627">
        <ele>1039.8000488281</ele>
        <time>2021-10-16T05:22:43.000Z</time>
      </trkpt>
      <trkpt lat="45.23475" lon="5.75627">
        <ele>1038.4000244141</ele>
        <time>2021-10-16T05:22:46.000Z</time>
      </trkpt>
      <trkpt lat="45.23477" lon="5.75627">
        <ele>1038.1999511719</ele>
        <time>2021-10-16T05:22:47.000Z</time>
      </trkpt>
      <trkpt lat="45.23479" lon="5.75627">
        <ele>1037.4000244141</ele>
        <time>2021-10-16T05:22:48.000Z</time>
      </trkpt>
      <trkpt lat="45.23481" lon="5.75627">
        <ele>1036.8000488281</ele>
        <time>2021-10-16T05:22:49.000Z</time>
      </trkpt>
      <trkpt lat="45.23486" lon="5.75626">
        <ele>1036</ele>
        <time>2021-10-16T05:22:52.000Z</time>
      </trkpt>
      <trkpt lat="45.23487" lon="5.75624">
        <ele>1035.4000244141</ele>
        <time>2021-10-16T05:22:53.000Z</time>
      </trkpt>
      <trkpt lat="45.2349" lon="5.75625">
        <ele>1034.5999755859</ele>
        <time>2021-10-16T05:22:54.000Z</time>
      </trkpt>
      <trkpt lat="45.23494" lon="5.75624">
        <ele>1034</ele>
        <time>2021-10-16T05:22:56.000Z</time>
      </trkpt>
      <trkpt lat="45.23497" lon="5.75625">
        <ele>1033</ele>
        <time>2021-10-16T05:22:58.000Z</time>
      </trkpt>
      <trkpt lat="45.23504" lon="5.75625">
        <ele>1032.4000244141</ele>
        <time>2021-10-16T05:23:01.000Z</time>
      </trkpt>
      <trkpt lat="45.23506" lon="5.75626">
        <ele>1031.4000244141</ele>
        <time>2021-10-16T05:23:02.000Z</time>
      </trkpt>
      <trkpt lat="45.23508" lon="5.75627">
        <ele>1031</ele>
        <time>2021-10-16T05:23:03.000Z</time>
      </trkpt>
      <trkpt lat="45.23513" lon="5.75628">
        <ele>1030.4000244141</ele>
        <time>2021-10-16T05:23:06.000Z</time>
      </trkpt>
      <trkpt lat="45.23514" lon="5.75628">
        <ele>1029.4000244141</ele>
        <time>2021-10-16T05:23:07.000Z</time>
      </trkpt>
      <trkpt lat="45.23516" lon="5.75627">
        <ele>1029.4000244141</ele>
        <time>2021-10-16T05:23:08.000Z</time>
      </trkpt>
      <trkpt lat="45.23517" lon="5.75625">
        <ele>1028.4000244141</ele>
        <time>2021-10-16T05:23:09.000Z</time>
      </trkpt>
      <trkpt lat="45.23518" lon="5.75624">
        <ele>1028.1999511719</ele>
        <time>2021-10-16T05:23:10.000Z</time>
      </trkpt>
      <trkpt lat="45.2352" lon="5.75623">
        <ele>1028.1999511719</ele>
        <time>2021-10-16T05:23:11.000Z</time>
      </trkpt>
      <trkpt lat="45.23526" lon="5.7562">
        <ele>1026.4000244141</ele>
        <time>2021-10-16T05:23:14.000Z</time>
      </trkpt>
      <trkpt lat="45.23528" lon="5.75618">
        <ele>1026.1999511719</ele>
        <time>2021-10-16T05:23:15.000Z</time>
      </trkpt>
      <trkpt lat="45.23532" lon="5.75616">
        <ele>1025</ele>
        <time>2021-10-16T05:23:17.000Z</time>
      </trkpt>
      <trkpt lat="45.23534" lon="5.75615">
        <ele>1024.8000488281</ele>
        <time>2021-10-16T05:23:18.000Z</time>
      </trkpt>
      <trkpt lat="45.23533" lon="5.75612">
        <ele>1024.1999511719</ele>
        <time>2021-10-16T05:23:20.000Z</time>
      </trkpt>
      <trkpt lat="45.23531" lon="5.75612">
        <ele>1023.4000244141</ele>
        <time>2021-10-16T05:23:21.000Z</time>
      </trkpt>
      <trkpt lat="45.2353" lon="5.75611">
        <ele>1022.799987793</ele>
        <time>2021-10-16T05:23:23.000Z</time>
      </trkpt>
      <trkpt lat="45.23527" lon="5.7561">
        <ele>1022.200012207</ele>
        <time>2021-10-16T05:23:25.000Z</time>
      </trkpt>
      <trkpt lat="45.23524" lon="5.75609">
        <ele>1021.4000244141</ele>
        <time>2021-10-16T05:23:27.000Z</time>
      </trkpt>
      <trkpt lat="45.23522" lon="5.75609">
        <ele>1021</ele>
        <time>2021-10-16T05:23:28.000Z</time>
      </trkpt>
      <trkpt lat="45.23517" lon="5.75607">
        <ele>1019.799987793</ele>
        <time>2021-10-16T05:23:32.000Z</time>
      </trkpt>
      <trkpt lat="45.23513" lon="5.75605">
        <ele>1019.4000244141</ele>
        <time>2021-10-16T05:23:34.000Z</time>
      </trkpt>
      <trkpt lat="45.23512" lon="5.75602">
        <ele>1018</ele>
        <time>2021-10-16T05:23:35.000Z</time>
      </trkpt>
      <trkpt lat="45.23506" lon="5.75598">
        <ele>1017</ele>
        <time>2021-10-16T05:23:38.000Z</time>
      </trkpt>
      <trkpt lat="45.23504" lon="5.75596">
        <ele>1016.5999755859</ele>
        <time>2021-10-16T05:23:39.000Z</time>
      </trkpt>
      <trkpt lat="45.23501" lon="5.75594">
        <ele>1016.200012207</ele>
        <time>2021-10-16T05:23:41.000Z</time>
      </trkpt>
      <trkpt lat="45.23499" lon="5.75594">
        <ele>1015.4000244141</ele>
        <time>2021-10-16T05:23:42.000Z</time>
      </trkpt>
      <trkpt lat="45.23492" lon="5.75594">
        <ele>1014</ele>
        <time>2021-10-16T05:23:46.000Z</time>
      </trkpt>
      <trkpt lat="45.23486" lon="5.75595">
        <ele>1013.200012207</ele>
        <time>2021-10-16T05:23:48.000Z</time>
      </trkpt>
      <trkpt lat="45.23484" lon="5.75595">
        <ele>1013</ele>
        <time>2021-10-16T05:23:49.000Z</time>
      </trkpt>
      <trkpt lat="45.2348" lon="5.75594">
        <ele>1012</ele>
        <time>2021-10-16T05:23:51.000Z</time>
      </trkpt>
      <trkpt lat="45.23479" lon="5.75593">
        <ele>1012</ele>
        <time>2021-10-16T05:23:52.000Z</time>
      </trkpt>
      <trkpt lat="45.23477" lon="5.7559">
        <ele>1010.5999755859</ele>
        <time>2021-10-16T05:23:54.000Z</time>
      </trkpt>
      <trkpt lat="45.2347" lon="5.75587">
        <ele>1009.200012207</ele>
        <time>2021-10-16T05:23:57.000Z</time>
      </trkpt>
      <trkpt lat="45.23464" lon="5.75586">
        <ele>1008.200012207</ele>
        <time>2021-10-16T05:24:00.000Z</time>
      </trkpt>
      <trkpt lat="45.23459" lon="5.75585">
        <ele>1007.200012207</ele>
        <time>2021-10-16T05:24:02.000Z</time>
      </trkpt>
      <trkpt lat="45.23456" lon="5.75585">
        <ele>1006.5999755859</ele>
        <time>2021-10-16T05:24:04.000Z</time>
      </trkpt>
      <trkpt lat="45.23454" lon="5.75585">
        <ele>1006.200012207</ele>
        <time>2021-10-16T05:24:05.000Z</time>
      </trkpt>
      <trkpt lat="45.2345" lon="5.75583">
        <ele>1004.799987793</ele>
        <time>2021-10-16T05:24:07.000Z</time>
      </trkpt>
      <trkpt lat="45.23448" lon="5.75583">
        <ele>1004.4000244141</ele>
        <time>2021-10-16T05:24:08.000Z</time>
      </trkpt>
      <trkpt lat="45.23445" lon="5.75583">
        <ele>1003.5999755859</ele>
        <time>2021-10-16T05:24:10.000Z</time>
      </trkpt>
      <trkpt lat="45.2344" lon="5.75585">
        <ele>1002.5999755859</ele>
        <time>2021-10-16T05:24:12.000Z</time>
      </trkpt>
      <trkpt lat="45.23436" lon="5.75584">
        <ele>1001.5999755859</ele>
        <time>2021-10-16T05:24:15.000Z</time>
      </trkpt>
      <trkpt lat="45.23434" lon="5.75585">
        <ele>1001.200012207</ele>
        <time>2021-10-16T05:24:16.000Z</time>
      </trkpt>
      <trkpt lat="45.23429" lon="5.75586">
        <ele>1000.4000244141</ele>
        <time>2021-10-16T05:24:19.000Z</time>
      </trkpt>
      <trkpt lat="45.23427" lon="5.75586">
        <ele>1000</ele>
        <time>2021-10-16T05:24:20.000Z</time>
      </trkpt>
      <trkpt lat="45.23425" lon="5.75585">
        <ele>999</ele>
        <time>2021-10-16T05:24:21.000Z</time>
      </trkpt>
      <trkpt lat="45.23417" lon="5.7558">
        <ele>997.79998779297</ele>
        <time>2021-10-16T05:24:25.000Z</time>
      </trkpt>
      <trkpt lat="45.23411" lon="5.75577">
        <ele>997.40002441406</ele>
        <time>2021-10-16T05:24:27.000Z</time>
      </trkpt>
      <trkpt lat="45.23409" lon="5.75576">
        <ele>996.59997558594</ele>
        <time>2021-10-16T05:24:28.000Z</time>
      </trkpt>
      <trkpt lat="45.23404" lon="5.75574">
        <ele>995.20001220703</ele>
        <time>2021-10-16T05:24:30.000Z</time>
      </trkpt>
      <trkpt lat="45.23396" lon="5.75572">
        <ele>993.79998779297</ele>
        <time>2021-10-16T05:24:34.000Z</time>
      </trkpt>
      <trkpt lat="45.23395" lon="5.75572">
        <ele>993.20001220703</ele>
        <time>2021-10-16T05:24:35.000Z</time>
      </trkpt>
      <trkpt lat="45.23391" lon="5.75572">
        <ele>992.40002441406</ele>
        <time>2021-10-16T05:24:37.000Z</time>
      </trkpt>
      <trkpt lat="45.23388" lon="5.75572">
        <ele>992.40002441406</ele>
        <time>2021-10-16T05:24:38.000Z</time>
      </trkpt>
      <trkpt lat="45.23384" lon="5.75571">
        <ele>991</ele>
        <time>2021-10-16T05:24:40.000Z</time>
      </trkpt>
      <trkpt lat="45.23378" lon="5.75571">
        <ele>990</ele>
        <time>2021-10-16T05:24:43.000Z</time>
      </trkpt>
      <trkpt lat="45.23376" lon="5.75571">
        <ele>989.79998779297</ele>
        <time>2021-10-16T05:24:44.000Z</time>
      </trkpt>
      <trkpt lat="45.23374" lon="5.75571">
        <ele>988.40002441406</ele>
        <time>2021-10-16T05:24:45.000Z</time>
      </trkpt>
      <trkpt lat="45.23366" lon="5.75573">
        <ele>987.20001220703</ele>
        <time>2021-10-16T05:24:49.000Z</time>
      </trkpt>
      <trkpt lat="45.23363" lon="5.75572">
        <ele>987.20001220703</ele>
        <time>2021-10-16T05:24:50.000Z</time>
      </trkpt>
      <trkpt lat="45.2336" lon="5.75571">
        <ele>985.20001220703</ele>
        <time>2021-10-16T05:24:52.000Z</time>
      </trkpt>
      <trkpt lat="45.23358" lon="5.75572">
        <ele>985.20001220703</ele>
        <time>2021-10-16T05:24:53.000Z</time>
      </trkpt>
      <trkpt lat="45.23355" lon="5.75575">
        <ele>984.59997558594</ele>
        <time>2021-10-16T05:24:55.000Z</time>
      </trkpt>
      <trkpt lat="45.23351" lon="5.75577">
        <ele>983.40002441406</ele>
        <time>2021-10-16T05:24:57.000Z</time>
      </trkpt>
      <trkpt lat="45.23349" lon="5.75578">
        <ele>983</ele>
        <time>2021-10-16T05:24:58.000Z</time>
      </trkpt>
      <trkpt lat="45.23347" lon="5.75581">
        <ele>982.59997558594</ele>
        <time>2021-10-16T05:25:00.000Z</time>
      </trkpt>
      <trkpt lat="45.23346" lon="5.75582">
        <ele>982</ele>
        <time>2021-10-16T05:25:01.000Z</time>
      </trkpt>
      <trkpt lat="45.23345" lon="5.75582">
        <ele>981.20001220703</ele>
        <time>2021-10-16T05:25:02.000Z</time>
      </trkpt>
      <trkpt lat="45.23343" lon="5.75582">
        <ele>980.20001220703</ele>
        <time>2021-10-16T05:25:03.000Z</time>
      </trkpt>
      <trkpt lat="45.23341" lon="5.75583">
        <ele>980.20001220703</ele>
        <time>2021-10-16T05:25:04.000Z</time>
      </trkpt>
      <trkpt lat="45.23337" lon="5.75585">
        <ele>979</ele>
        <time>2021-10-16T05:25:07.000Z</time>
      </trkpt>
      <trkpt lat="45.23332" lon="5.75587">
        <ele>977.59997558594</ele>
        <time>2021-10-16T05:25:10.000Z</time>
      </trkpt>
      <trkpt lat="45.23335" lon="5.75582">
        <ele>977.20001220703</ele>
        <time>2021-10-16T05:25:13.000Z</time>
      </trkpt>
      <trkpt lat="45.23338" lon="5.75579">
        <ele>976</ele>
        <time>2021-10-16T05:25:15.000Z</time>
      </trkpt>
      <trkpt lat="45.23343" lon="5.75572">
        <ele>974</ele>
        <time>2021-10-16T05:25:19.000Z</time>
      </trkpt>
      <trkpt lat="45.23346" lon="5.7557">
        <ele>973.40002441406</ele>
        <time>2021-10-16T05:25:21.000Z</time>
      </trkpt>
      <trkpt lat="45.23348" lon="5.75569">
        <ele>972.59997558594</ele>
        <time>2021-10-16T05:25:22.000Z</time>
      </trkpt>
      <trkpt lat="45.2335" lon="5.75565">
        <ele>972.40002441406</ele>
        <time>2021-10-16T05:25:24.000Z</time>
      </trkpt>
      <trkpt lat="45.23351" lon="5.75564">
        <ele>971.59997558594</ele>
        <time>2021-10-16T05:25:25.000Z</time>
      </trkpt>
      <trkpt lat="45.23355" lon="5.75559">
        <ele>969.79998779297</ele>
        <time>2021-10-16T05:25:29.000Z</time>
      </trkpt>
      <trkpt lat="45.23356" lon="5.75557">
        <ele>969.40002441406</ele>
        <time>2021-10-16T05:25:30.000Z</time>
      </trkpt>
      <trkpt lat="45.23359" lon="5.75554">
        <ele>968.59997558594</ele>
        <time>2021-10-16T05:25:32.000Z</time>
      </trkpt>
      <trkpt lat="45.23362" lon="5.7555">
        <ele>967.20001220703</ele>
        <time>2021-10-16T05:25:35.000Z</time>
      </trkpt>
      <trkpt lat="45.23365" lon="5.75549">
        <ele>966.79998779297</ele>
        <time>2021-10-16T05:25:36.000Z</time>
      </trkpt>
      <trkpt lat="45.23368" lon="5.75547">
        <ele>965.59997558594</ele>
        <time>2021-10-16T05:25:38.000Z</time>
      </trkpt>
      <trkpt lat="45.23375" lon="5.75539">
        <ele>963.79998779297</ele>
        <time>2021-10-16T05:25:43.000Z</time>
      </trkpt>
      <trkpt lat="45.2338" lon="5.75532">
        <ele>962</ele>
        <time>2021-10-16T05:25:47.000Z</time>
      </trkpt>
      <trkpt lat="45.23382" lon="5.75529">
        <ele>961.79998779297</ele>
        <time>2021-10-16T05:25:49.000Z</time>
      </trkpt>
      <trkpt lat="45.23385" lon="5.75526">
        <ele>960.79998779297</ele>
        <time>2021-10-16T05:25:51.000Z</time>
      </trkpt>
      <trkpt lat="45.2339" lon="5.75524">
        <ele>959.79998779297</ele>
        <time>2021-10-16T05:25:54.000Z</time>
      </trkpt>
      <trkpt lat="45.23395" lon="5.7552">
        <ele>958.59997558594</ele>
        <time>2021-10-16T05:25:57.000Z</time>
      </trkpt>
      <trkpt lat="45.23397" lon="5.75519">
        <ele>957.79998779297</ele>
        <time>2021-10-16T05:25:58.000Z</time>
      </trkpt>
      <trkpt lat="45.23398" lon="5.75517">
        <ele>957.40002441406</ele>
        <time>2021-10-16T05:25:59.000Z</time>
      </trkpt>
      <trkpt lat="45.23404" lon="5.75513">
        <ele>956.20001220703</ele>
        <time>2021-10-16T05:26:02.000Z</time>
      </trkpt>
      <trkpt lat="45.23405" lon="5.75513">
        <ele>955.79998779297</ele>
        <time>2021-10-16T05:26:03.000Z</time>
      </trkpt>
      <trkpt lat="45.23409" lon="5.75513">
        <ele>955</ele>
        <time>2021-10-16T05:26:05.000Z</time>
      </trkpt>
      <trkpt lat="45.23413" lon="5.75512">
        <ele>953.79998779297</ele>
        <time>2021-10-16T05:26:07.000Z</time>
      </trkpt>
      <trkpt lat="45.23423" lon="5.75514">
        <ele>952.40002441406</ele>
        <time>2021-10-16T05:26:11.000Z</time>
      </trkpt>
      <trkpt lat="45.23426" lon="5.75514">
        <ele>952.20001220703</ele>
        <time>2021-10-16T05:26:12.000Z</time>
      </trkpt>
      <trkpt lat="45.23427" lon="5.75513">
        <ele>952</ele>
        <time>2021-10-16T05:26:13.000Z</time>
      </trkpt>
      <trkpt lat="45.2343" lon="5.75512">
        <ele>950.59997558594</ele>
        <time>2021-10-16T05:26:15.000Z</time>
      </trkpt>
      <trkpt lat="45.23438" lon="5.75508">
        <ele>949.20001220703</ele>
        <time>2021-10-16T05:26:19.000Z</time>
      </trkpt>
      <trkpt lat="45.23442" lon="5.75507">
        <ele>948.20001220703</ele>
        <time>2021-10-16T05:26:21.000Z</time>
      </trkpt>
      <trkpt lat="45.23447" lon="5.75504">
        <ele>947.20001220703</ele>
        <time>2021-10-16T05:26:23.000Z</time>
      </trkpt>
      <trkpt lat="45.23449" lon="5.75503">
        <ele>947</ele>
        <time>2021-10-16T05:26:24.000Z</time>
      </trkpt>
      <trkpt lat="45.23452" lon="5.75503">
        <ele>946.59997558594</ele>
        <time>2021-10-16T05:26:25.000Z</time>
      </trkpt>
      <trkpt lat="45.23457" lon="5.755">
        <ele>946</ele>
        <time>2021-10-16T05:26:28.000Z</time>
      </trkpt>
      <trkpt lat="45.23458" lon="5.75495">
        <ele>945.59997558594</ele>
        <time>2021-10-16T05:26:30.000Z</time>
      </trkpt>
      <trkpt lat="45.23459" lon="5.75493">
        <ele>944.59997558594</ele>
        <time>2021-10-16T05:26:31.000Z</time>
      </trkpt>
      <trkpt lat="45.23461" lon="5.7549">
        <ele>943.79998779297</ele>
        <time>2021-10-16T05:26:33.000Z</time>
      </trkpt>
      <trkpt lat="45.23462" lon="5.7549">
        <ele>943.40002441406</ele>
        <time>2021-10-16T05:26:34.000Z</time>
      </trkpt>
      <trkpt lat="45.23464" lon="5.7549">
        <ele>942.79998779297</ele>
        <time>2021-10-16T05:26:35.000Z</time>
      </trkpt>
      <trkpt lat="45.23467" lon="5.75487">
        <ele>942</ele>
        <time>2021-10-16T05:26:37.000Z</time>
      </trkpt>
      <trkpt lat="45.23474" lon="5.75483">
        <ele>940.79998779297</ele>
        <time>2021-10-16T05:26:40.000Z</time>
      </trkpt>
      <trkpt lat="45.23479" lon="5.75481">
        <ele>939.40002441406</ele>
        <time>2021-10-16T05:26:43.000Z</time>
      </trkpt>
      <trkpt lat="45.2348" lon="5.75478">
        <ele>938.20001220703</ele>
        <time>2021-10-16T05:26:45.000Z</time>
      </trkpt>
      <trkpt lat="45.2348" lon="5.75478">
        <ele>938</ele>
        <time>2021-10-16T05:26:46.000Z</time>
      </trkpt>
      <trkpt lat="45.23479" lon="5.75477">
        <ele>937.40002441406</ele>
        <time>2021-10-16T05:26:47.000Z</time>
      </trkpt>
      <trkpt lat="45.23476" lon="5.75478">
        <ele>936.20001220703</ele>
        <time>2021-10-16T05:26:49.000Z</time>
      </trkpt>
      <trkpt lat="45.23473" lon="5.75477">
        <ele>935.40002441406</ele>
        <time>2021-10-16T05:26:52.000Z</time>
      </trkpt>
      <trkpt lat="45.23472" lon="5.75476">
        <ele>935.20001220703</ele>
        <time>2021-10-16T05:26:53.000Z</time>
      </trkpt>
      <trkpt lat="45.2347" lon="5.75476">
        <ele>934.40002441406</ele>
        <time>2021-10-16T05:26:54.000Z</time>
      </trkpt>
      <trkpt lat="45.23469" lon="5.75476">
        <ele>934</ele>
        <time>2021-10-16T05:26:55.000Z</time>
      </trkpt>
      <trkpt lat="45.23469" lon="5.75475">
        <ele>933.59997558594</ele>
        <time>2021-10-16T05:26:56.000Z</time>
      </trkpt>
      <trkpt lat="45.23468" lon="5.75474">
        <ele>933</ele>
        <time>2021-10-16T05:26:57.000Z</time>
      </trkpt>
      <trkpt lat="45.23466" lon="5.75473">
        <ele>932.59997558594</ele>
        <time>2021-10-16T05:26:58.000Z</time>
      </trkpt>
      <trkpt lat="45.23462" lon="5.75473">
        <ele>931.79998779297</ele>
        <time>2021-10-16T05:27:00.000Z</time>
      </trkpt>
      <trkpt lat="45.23452" lon="5.75475">
        <ele>931.20001220703</ele>
        <time>2021-10-16T05:27:04.000Z</time>
      </trkpt>
      <trkpt lat="45.2345" lon="5.75476">
        <ele>930.59997558594</ele>
        <time>2021-10-16T05:27:06.000Z</time>
      </trkpt>
      <trkpt lat="45.23449" lon="5.75476">
        <ele>930.40002441406</ele>
        <time>2021-10-16T05:27:07.000Z</time>
      </trkpt>
      <trkpt lat="45.23447" lon="5.75476">
        <ele>929.59997558594</ele>
        <time>2021-10-16T05:27:08.000Z</time>
      </trkpt>
      <trkpt lat="45.23443" lon="5.75474">
        <ele>928.40002441406</ele>
        <time>2021-10-16T05:27:10.000Z</time>
      </trkpt>
      <trkpt lat="45.23442" lon="5.75473">
        <ele>928.20001220703</ele>
        <time>2021-10-16T05:27:11.000Z</time>
      </trkpt>
      <trkpt lat="45.2344" lon="5.75472">
        <ele>927.20001220703</ele>
        <time>2021-10-16T05:27:13.000Z</time>
      </trkpt>
      <trkpt lat="45.23434" lon="5.75469">
        <ele>926</ele>
        <time>2021-10-16T05:27:17.000Z</time>
      </trkpt>
      <trkpt lat="45.23431" lon="5.75469">
        <ele>925</ele>
        <time>2021-10-16T05:27:18.000Z</time>
      </trkpt>
      <trkpt lat="45.23424" lon="5.75467">
        <ele>924.20001220703</ele>
        <time>2021-10-16T05:27:21.000Z</time>
      </trkpt>
      <trkpt lat="45.23423" lon="5.75465">
        <ele>923.79998779297</ele>
        <time>2021-10-16T05:27:22.000Z</time>
      </trkpt>
      <trkpt lat="45.23421" lon="5.75464">
        <ele>923</ele>
        <time>2021-10-16T05:27:23.000Z</time>
      </trkpt>
      <trkpt lat="45.23419" lon="5.75463">
        <ele>923</ele>
        <time>2021-10-16T05:27:24.000Z</time>
      </trkpt>
      <trkpt lat="45.23417" lon="5.75463">
        <ele>922.20001220703</ele>
        <time>2021-10-16T05:27:25.000Z</time>
      </trkpt>
      <trkpt lat="45.23415" lon="5.75463">
        <ele>922</ele>
        <time>2021-10-16T05:27:26.000Z</time>
      </trkpt>
      <trkpt lat="45.2341" lon="5.75465">
        <ele>921.20001220703</ele>
        <time>2021-10-16T05:27:28.000Z</time>
      </trkpt>
      <trkpt lat="45.23408" lon="5.75465">
        <ele>921.20001220703</ele>
        <time>2021-10-16T05:27:29.000Z</time>
      </trkpt>
      <trkpt lat="45.23406" lon="5.75464">
        <ele>920.20001220703</ele>
        <time>2021-10-16T05:27:30.000Z</time>
      </trkpt>
      <trkpt lat="45.23402" lon="5.75462">
        <ele>920</ele>
        <time>2021-10-16T05:27:32.000Z</time>
      </trkpt>
      <trkpt lat="45.234" lon="5.75461">
        <ele>918.79998779297</ele>
        <time>2021-10-16T05:27:33.000Z</time>
      </trkpt>
      <trkpt lat="45.23394" lon="5.7546">
        <ele>917.79998779297</ele>
        <time>2021-10-16T05:27:37.000Z</time>
      </trkpt>
      <trkpt lat="45.2339" lon="5.75461">
        <ele>916.40002441406</ele>
        <time>2021-10-16T05:27:39.000Z</time>
      </trkpt>
      <trkpt lat="45.23386" lon="5.75461">
        <ele>915.79998779297</ele>
        <time>2021-10-16T05:27:41.000Z</time>
      </trkpt>
      <trkpt lat="45.23384" lon="5.75461">
        <ele>915.20001220703</ele>
        <time>2021-10-16T05:27:42.000Z</time>
      </trkpt>
      <trkpt lat="45.2338" lon="5.75461">
        <ele>914.59997558594</ele>
        <time>2021-10-16T05:27:44.000Z</time>
      </trkpt>
      <trkpt lat="45.23377" lon="5.7546">
        <ele>913.20001220703</ele>
        <time>2021-10-16T05:27:46.000Z</time>
      </trkpt>
      <trkpt lat="45.23372" lon="5.75458">
        <ele>912.79998779297</ele>
        <time>2021-10-16T05:27:49.000Z</time>
      </trkpt>
      <trkpt lat="45.23371" lon="5.75459">
        <ele>911.59997558594</ele>
        <time>2021-10-16T05:27:50.000Z</time>
      </trkpt>
      <trkpt lat="45.2337" lon="5.75459">
        <ele>911.59997558594</ele>
        <time>2021-10-16T05:27:51.000Z</time>
      </trkpt>
      <trkpt lat="45.23363" lon="5.75456">
        <ele>910.40002441406</ele>
        <time>2021-10-16T05:27:54.000Z</time>
      </trkpt>
      <trkpt lat="45.23358" lon="5.75458">
        <ele>910.20001220703</ele>
        <time>2021-10-16T05:27:56.000Z</time>
      </trkpt>
      <trkpt lat="45.23355" lon="5.75459">
        <ele>909.40002441406</ele>
        <time>2021-10-16T05:27:58.000Z</time>
      </trkpt>
      <trkpt lat="45.23352" lon="5.75459">
        <ele>908.20001220703</ele>
        <time>2021-10-16T05:28:00.000Z</time>
      </trkpt>
      <trkpt lat="45.23346" lon="5.75461">
        <ele>907.20001220703</ele>
        <time>2021-10-16T05:28:03.000Z</time>
      </trkpt>
      <trkpt lat="45.23344" lon="5.75462">
        <ele>906.20001220703</ele>
        <time>2021-10-16T05:28:04.000Z</time>
      </trkpt>
      <trkpt lat="45.23341" lon="5.75462">
        <ele>905.79998779297</ele>
        <time>2021-10-16T05:28:06.000Z</time>
      </trkpt>
      <trkpt lat="45.23338" lon="5.75464">
        <ele>905</ele>
        <time>2021-10-16T05:28:08.000Z</time>
      </trkpt>
      <trkpt lat="45.23334" lon="5.75465">
        <ele>904</ele>
        <time>2021-10-16T05:28:10.000Z</time>
      </trkpt>
      <trkpt lat="45.23331" lon="5.75466">
        <ele>903.20001220703</ele>
        <time>2021-10-16T05:28:12.000Z</time>
      </trkpt>
      <trkpt lat="45.2333" lon="5.75466">
        <ele>903</ele>
        <time>2021-10-16T05:28:13.000Z</time>
      </trkpt>
      <trkpt lat="45.23328" lon="5.75467">
        <ele>902</ele>
        <time>2021-10-16T05:28:14.000Z</time>
      </trkpt>
      <trkpt lat="45.2332" lon="5.75469">
        <ele>900.20001220703</ele>
        <time>2021-10-16T05:28:19.000Z</time>
      </trkpt>
      <trkpt lat="45.23315" lon="5.75472">
        <ele>898.79998779297</ele>
        <time>2021-10-16T05:28:22.000Z</time>
      </trkpt>
      <trkpt lat="45.23311" lon="5.75473">
        <ele>898.20001220703</ele>
        <time>2021-10-16T05:28:25.000Z</time>
      </trkpt>
      <trkpt lat="45.2331" lon="5.75474">
        <ele>897.59997558594</ele>
        <time>2021-10-16T05:28:26.000Z</time>
      </trkpt>
      <trkpt lat="45.23309" lon="5.75473">
        <ele>897</ele>
        <time>2021-10-16T05:28:27.000Z</time>
      </trkpt>
      <trkpt lat="45.23306" lon="5.75473">
        <ele>896.59997558594</ele>
        <time>2021-10-16T05:28:29.000Z</time>
      </trkpt>
      <trkpt lat="45.23305" lon="5.75473">
        <ele>895.79998779297</ele>
        <time>2021-10-16T05:28:30.000Z</time>
      </trkpt>
      <trkpt lat="45.23296" lon="5.7548">
        <ele>894.20001220703</ele>
        <time>2021-10-16T05:28:35.000Z</time>
      </trkpt>
      <trkpt lat="45.23291" lon="5.75483">
        <ele>892.79998779297</ele>
        <time>2021-10-16T05:28:38.000Z</time>
      </trkpt>
      <trkpt lat="45.23283" lon="5.75486">
        <ele>892</ele>
        <time>2021-10-16T05:28:42.000Z</time>
      </trkpt>
      <trkpt lat="45.23281" lon="5.75486">
        <ele>890.79998779297</ele>
        <time>2021-10-16T05:28:43.000Z</time>
      </trkpt>
      <trkpt lat="45.23279" lon="5.75486">
        <ele>890.59997558594</ele>
        <time>2021-10-16T05:28:44.000Z</time>
      </trkpt>
      <trkpt lat="45.23277" lon="5.75487">
        <ele>889.59997558594</ele>
        <time>2021-10-16T05:28:46.000Z</time>
      </trkpt>
      <trkpt lat="45.23272" lon="5.75492">
        <ele>889</ele>
        <time>2021-10-16T05:28:49.000Z</time>
      </trkpt>
      <trkpt lat="45.23271" lon="5.75492">
        <ele>888.20001220703</ele>
        <time>2021-10-16T05:28:50.000Z</time>
      </trkpt>
      <trkpt lat="45.23266" lon="5.7549">
        <ele>887.40002441406</ele>
        <time>2021-10-16T05:28:53.000Z</time>
      </trkpt>
      <trkpt lat="45.23265" lon="5.75487">
        <ele>887</ele>
        <time>2021-10-16T05:28:54.000Z</time>
      </trkpt>
      <trkpt lat="45.23266" lon="5.75479">
        <ele>885.59997558594</ele>
        <time>2021-10-16T05:28:58.000Z</time>
      </trkpt>
      <trkpt lat="45.23271" lon="5.75473">
        <ele>884.40002441406</ele>
        <time>2021-10-16T05:29:01.000Z</time>
      </trkpt>
      <trkpt lat="45.23276" lon="5.75468">
        <ele>883.40002441406</ele>
        <time>2021-10-16T05:29:05.000Z</time>
      </trkpt>
      <trkpt lat="45.23278" lon="5.75462">
        <ele>882.40002441406</ele>
        <time>2021-10-16T05:29:09.000Z</time>
      </trkpt>
      <trkpt lat="45.23279" lon="5.7546">
        <ele>881.59997558594</ele>
        <time>2021-10-16T05:29:10.000Z</time>
      </trkpt>
      <trkpt lat="45.23281" lon="5.75454">
        <ele>880.59997558594</ele>
        <time>2021-10-16T05:29:13.000Z</time>
      </trkpt>
      <trkpt lat="45.23284" lon="5.75447">
        <ele>879.40002441406</ele>
        <time>2021-10-16T05:29:17.000Z</time>
      </trkpt>
      <trkpt lat="45.23288" lon="5.75441">
        <ele>878.40002441406</ele>
        <time>2021-10-16T05:29:20.000Z</time>
      </trkpt>
      <trkpt lat="45.23291" lon="5.75439">
        <ele>877</ele>
        <time>2021-10-16T05:29:22.000Z</time>
      </trkpt>
      <trkpt lat="45.23292" lon="5.75437">
        <ele>877</ele>
        <time>2021-10-16T05:29:23.000Z</time>
      </trkpt>
      <trkpt lat="45.23294" lon="5.7543">
        <ele>875.79998779297</ele>
        <time>2021-10-16T05:29:26.000Z</time>
      </trkpt>
      <trkpt lat="45.23296" lon="5.75422">
        <ele>874.20001220703</ele>
        <time>2021-10-16T05:29:31.000Z</time>
      </trkpt>
      <trkpt lat="45.23298" lon="5.75417">
        <ele>873.59997558594</ele>
        <time>2021-10-16T05:29:33.000Z</time>
      </trkpt>
      <trkpt lat="45.23299" lon="5.75415">
        <ele>873</ele>
        <time>2021-10-16T05:29:34.000Z</time>
      </trkpt>
      <trkpt lat="45.23303" lon="5.75412">
        <ele>872.20001220703</ele>
        <time>2021-10-16T05:29:37.000Z</time>
      </trkpt>
      <trkpt lat="45.23304" lon="5.75409">
        <ele>871.59997558594</ele>
        <time>2021-10-16T05:29:38.000Z</time>
      </trkpt>
      <trkpt lat="45.23308" lon="5.75402">
        <ele>870</ele>
        <time>2021-10-16T05:29:42.000Z</time>
      </trkpt>
      <trkpt lat="45.23311" lon="5.754">
        <ele>869.79998779297</ele>
        <time>2021-10-16T05:29:44.000Z</time>
      </trkpt>
      <trkpt lat="45.23312" lon="5.75399">
        <ele>869.40002441406</ele>
        <time>2021-10-16T05:29:45.000Z</time>
      </trkpt>
      <trkpt lat="45.23314" lon="5.75398">
        <ele>868.79998779297</ele>
        <time>2021-10-16T05:29:46.000Z</time>
      </trkpt>
      <trkpt lat="45.23316" lon="5.75396">
        <ele>867.40002441406</ele>
        <time>2021-10-16T05:29:48.000Z</time>
      </trkpt>
      <trkpt lat="45.23319" lon="5.75392">
        <ele>867.20001220703</ele>
        <time>2021-10-16T05:29:50.000Z</time>
      </trkpt>
      <trkpt lat="45.23321" lon="5.7539">
        <ele>866</ele>
        <time>2021-10-16T05:29:52.000Z</time>
      </trkpt>
      <trkpt lat="45.23323" lon="5.75389">
        <ele>865.79998779297</ele>
        <time>2021-10-16T05:29:53.000Z</time>
      </trkpt>
      <trkpt lat="45.23326" lon="5.75387">
        <ele>865.59997558594</ele>
        <time>2021-10-16T05:29:55.000Z</time>
      </trkpt>
      <trkpt lat="45.23328" lon="5.75386">
        <ele>865</ele>
        <time>2021-10-16T05:29:56.000Z</time>
      </trkpt>
      <trkpt lat="45.23331" lon="5.75381">
        <ele>864</ele>
        <time>2021-10-16T05:29:59.000Z</time>
      </trkpt>
      <trkpt lat="45.23332" lon="5.7538">
        <ele>863.20001220703</ele>
        <time>2021-10-16T05:30:00.000Z</time>
      </trkpt>
      <trkpt lat="45.23335" lon="5.75377">
        <ele>862.20001220703</ele>
        <time>2021-10-16T05:30:03.000Z</time>
      </trkpt>
      <trkpt lat="45.23336" lon="5.75376">
        <ele>861.59997558594</ele>
        <time>2021-10-16T05:30:04.000Z</time>
      </trkpt>
      <trkpt lat="45.23337" lon="5.75374">
        <ele>861.20001220703</ele>
        <time>2021-10-16T05:30:05.000Z</time>
      </trkpt>
      <trkpt lat="45.23341" lon="5.75373">
        <ele>860</ele>
        <time>2021-10-16T05:30:08.000Z</time>
      </trkpt>
      <trkpt lat="45.23343" lon="5.7537">
        <ele>859.59997558594</ele>
        <time>2021-10-16T05:30:10.000Z</time>
      </trkpt>
      <trkpt lat="45.23346" lon="5.75369">
        <ele>859</ele>
        <time>2021-10-16T05:30:12.000Z</time>
      </trkpt>
      <trkpt lat="45.23348" lon="5.75369">
        <ele>858.79998779297</ele>
        <time>2021-10-16T05:30:13.000Z</time>
      </trkpt>
      <trkpt lat="45.23351" lon="5.75368">
        <ele>858</ele>
        <time>2021-10-16T05:30:15.000Z</time>
      </trkpt>
      <trkpt lat="45.23357" lon="5.75361">
        <ele>856.40002441406</ele>
        <time>2021-10-16T05:30:19.000Z</time>
      </trkpt>
      <trkpt lat="45.23364" lon="5.75355">
        <ele>854.40002441406</ele>
        <time>2021-10-16T05:30:23.000Z</time>
      </trkpt>
      <trkpt lat="45.2337" lon="5.7535">
        <ele>853.40002441406</ele>
        <time>2021-10-16T05:30:27.000Z</time>
      </trkpt>
      <trkpt lat="45.23372" lon="5.75349">
        <ele>852.20001220703</ele>
        <time>2021-10-16T05:30:28.000Z</time>
      </trkpt>
      <trkpt lat="45.23378" lon="5.75345">
        <ele>850.79998779297</ele>
        <time>2021-10-16T05:30:32.000Z</time>
      </trkpt>
      <trkpt lat="45.2338" lon="5.75344">
        <ele>850.40002441406</ele>
        <time>2021-10-16T05:30:33.000Z</time>
      </trkpt>
      <trkpt lat="45.23382" lon="5.75341">
        <ele>849.59997558594</ele>
        <time>2021-10-16T05:30:35.000Z</time>
      </trkpt>
      <trkpt lat="45.23386" lon="5.75337">
        <ele>849.40002441406</ele>
        <time>2021-10-16T05:30:37.000Z</time>
      </trkpt>
      <trkpt lat="45.23388" lon="5.75333">
        <ele>848.59997558594</ele>
        <time>2021-10-16T05:30:39.000Z</time>
      </trkpt>
      <trkpt lat="45.23391" lon="5.7533">
        <ele>848</ele>
        <time>2021-10-16T05:30:41.000Z</time>
      </trkpt>
      <trkpt lat="45.23392" lon="5.75329">
        <ele>847.40002441406</ele>
        <time>2021-10-16T05:30:42.000Z</time>
      </trkpt>
      <trkpt lat="45.23398" lon="5.75322">
        <ele>846</ele>
        <time>2021-10-16T05:30:45.000Z</time>
      </trkpt>
      <trkpt lat="45.23404" lon="5.75315">
        <ele>844.79998779297</ele>
        <time>2021-10-16T05:30:49.000Z</time>
      </trkpt>
      <trkpt lat="45.23403" lon="5.75307">
        <ele>843.79998779297</ele>
        <time>2021-10-16T05:30:52.000Z</time>
      </trkpt>
      <trkpt lat="45.23403" lon="5.75304">
        <ele>842.59997558594</ele>
        <time>2021-10-16T05:30:54.000Z</time>
      </trkpt>
      <trkpt lat="45.23402" lon="5.753">
        <ele>841.20001220703</ele>
        <time>2021-10-16T05:30:56.000Z</time>
      </trkpt>
      <trkpt lat="45.23404" lon="5.7529">
        <ele>839.79998779297</ele>
        <time>2021-10-16T05:31:00.000Z</time>
      </trkpt>
      <trkpt lat="45.23405" lon="5.75288">
        <ele>838.59997558594</ele>
        <time>2021-10-16T05:31:01.000Z</time>
      </trkpt>
      <trkpt lat="45.23409" lon="5.75283">
        <ele>837.79998779297</ele>
        <time>2021-10-16T05:31:04.000Z</time>
      </trkpt>
      <trkpt lat="45.2341" lon="5.7528">
        <ele>837.59997558594</ele>
        <time>2021-10-16T05:31:05.000Z</time>
      </trkpt>
      <trkpt lat="45.23411" lon="5.75279">
        <ele>837.40002441406</ele>
        <time>2021-10-16T05:31:06.000Z</time>
      </trkpt>
      <trkpt lat="45.23412" lon="5.75277">
        <ele>836.20001220703</ele>
        <time>2021-10-16T05:31:07.000Z</time>
      </trkpt>
      <trkpt lat="45.23416" lon="5.7527">
        <ele>835</ele>
        <time>2021-10-16T05:31:10.000Z</time>
      </trkpt>
      <trkpt lat="45.23418" lon="5.75268">
        <ele>835</ele>
        <time>2021-10-16T05:31:11.000Z</time>
      </trkpt>
      <trkpt lat="45.23423" lon="5.75266">
        <ele>833.59997558594</ele>
        <time>2021-10-16T05:31:13.000Z</time>
      </trkpt>
      <trkpt lat="45.2343" lon="5.75259">
        <ele>832</ele>
        <time>2021-10-16T05:31:17.000Z</time>
      </trkpt>
      <trkpt lat="45.23431" lon="5.75257">
        <ele>831.40002441406</ele>
        <time>2021-10-16T05:31:18.000Z</time>
      </trkpt>
      <trkpt lat="45.23433" lon="5.75253">
        <ele>831</ele>
        <time>2021-10-16T05:31:20.000Z</time>
      </trkpt>
      <trkpt lat="45.23434" lon="5.75251">
        <ele>830.40002441406</ele>
        <time>2021-10-16T05:31:21.000Z</time>
      </trkpt>
      <trkpt lat="45.23434" lon="5.75249">
        <ele>829.40002441406</ele>
        <time>2021-10-16T05:31:22.000Z</time>
      </trkpt>
      <trkpt lat="45.23436" lon="5.75241">
        <ele>828.59997558594</ele>
        <time>2021-10-16T05:31:25.000Z</time>
      </trkpt>
      <trkpt lat="45.23436" lon="5.75238">
        <ele>827.59997558594</ele>
        <time>2021-10-16T05:31:26.000Z</time>
      </trkpt>
      <trkpt lat="45.23437" lon="5.75236">
        <ele>827.59997558594</ele>
        <time>2021-10-16T05:31:27.000Z</time>
      </trkpt>
      <trkpt lat="45.23439" lon="5.75232">
        <ele>827.20001220703</ele>
        <time>2021-10-16T05:31:29.000Z</time>
      </trkpt>
      <trkpt lat="45.2344" lon="5.7523">
        <ele>826.40002441406</ele>
        <time>2021-10-16T05:31:30.000Z</time>
      </trkpt>
      <trkpt lat="45.23443" lon="5.75226">
        <ele>825.20001220703</ele>
        <time>2021-10-16T05:31:32.000Z</time>
      </trkpt>
      <trkpt lat="45.23448" lon="5.75221">
        <ele>824</ele>
        <time>2021-10-16T05:31:35.000Z</time>
      </trkpt>
      <trkpt lat="45.23451" lon="5.75217">
        <ele>823.40002441406</ele>
        <time>2021-10-16T05:31:37.000Z</time>
      </trkpt>
      <trkpt lat="45.23454" lon="5.75214">
        <ele>823</ele>
        <time>2021-10-16T05:31:39.000Z</time>
      </trkpt>
      <trkpt lat="45.23456" lon="5.75213">
        <ele>821.79998779297</ele>
        <time>2021-10-16T05:31:40.000Z</time>
      </trkpt>
      <trkpt lat="45.23461" lon="5.75208">
        <ele>820.40002441406</ele>
        <time>2021-10-16T05:31:43.000Z</time>
      </trkpt>
      <trkpt lat="45.23466" lon="5.75204">
        <ele>819.40002441406</ele>
        <time>2021-10-16T05:31:46.000Z</time>
      </trkpt>
      <trkpt lat="45.2347" lon="5.752">
        <ele>818</ele>
        <time>2021-10-16T05:31:48.000Z</time>
      </trkpt>
      <trkpt lat="45.23476" lon="5.75197">
        <ele>817.20001220703</ele>
        <time>2021-10-16T05:31:51.000Z</time>
      </trkpt>
      <trkpt lat="45.23477" lon="5.75196">
        <ele>816.59997558594</ele>
        <time>2021-10-16T05:31:52.000Z</time>
      </trkpt>
      <trkpt lat="45.23483" lon="5.75189">
        <ele>814.79998779297</ele>
        <time>2021-10-16T05:31:56.000Z</time>
      </trkpt>
      <trkpt lat="45.23488" lon="5.75185">
        <ele>814.20001220703</ele>
        <time>2021-10-16T05:31:59.000Z</time>
      </trkpt>
      <trkpt lat="45.2349" lon="5.75183">
        <ele>813.59997558594</ele>
        <time>2021-10-16T05:32:00.000Z</time>
      </trkpt>
      <trkpt lat="45.23493" lon="5.75178">
        <ele>812.20001220703</ele>
        <time>2021-10-16T05:32:02.000Z</time>
      </trkpt>
      <trkpt lat="45.23497" lon="5.75172">
        <ele>810.79998779297</ele>
        <time>2021-10-16T05:32:05.000Z</time>
      </trkpt>
      <trkpt lat="45.23501" lon="5.7517">
        <ele>809.79998779297</ele>
        <time>2021-10-16T05:32:08.000Z</time>
      </trkpt>
      <trkpt lat="45.23504" lon="5.75168">
        <ele>809</ele>
        <time>2021-10-16T05:32:10.000Z</time>
      </trkpt>
      <trkpt lat="45.23505" lon="5.75167">
        <ele>808.40002441406</ele>
        <time>2021-10-16T05:32:11.000Z</time>
      </trkpt>
      <trkpt lat="45.23508" lon="5.75165">
        <ele>807.40002441406</ele>
        <time>2021-10-16T05:32:13.000Z</time>
      </trkpt>
      <trkpt lat="45.23509" lon="5.75164">
        <ele>807.40002441406</ele>
        <time>2021-10-16T05:32:14.000Z</time>
      </trkpt>
      <trkpt lat="45.23512" lon="5.75162">
        <ele>806.79998779297</ele>
        <time>2021-10-16T05:32:16.000Z</time>
      </trkpt>
      <trkpt lat="45.23514" lon="5.75161">
        <ele>806</ele>
        <time>2021-10-16T05:32:17.000Z</time>
      </trkpt>
      <trkpt lat="45.23517" lon="5.75159">
        <ele>805.59997558594</ele>
        <time>2021-10-16T05:32:19.000Z</time>
      </trkpt>
      <trkpt lat="45.23518" lon="5.75158">
        <ele>804.59997558594</ele>
        <time>2021-10-16T05:32:20.000Z</time>
      </trkpt>
      <trkpt lat="45.23521" lon="5.75155">
        <ele>804.59997558594</ele>
        <time>2021-10-16T05:32:21.000Z</time>
      </trkpt>
      <trkpt lat="45.23523" lon="5.75151">
        <ele>804.40002441406</ele>
        <time>2021-10-16T05:32:22.000Z</time>
      </trkpt>
      <trkpt lat="45.23525" lon="5.7515">
        <ele>804.40002441406</ele>
        <time>2021-10-16T05:32:23.000Z</time>
      </trkpt>
      <trkpt lat="45.23529" lon="5.75146">
        <ele>803</ele>
        <time>2021-10-16T05:32:25.000Z</time>
      </trkpt>
      <trkpt lat="45.23533" lon="5.75144">
        <ele>802.40002441406</ele>
        <time>2021-10-16T05:32:27.000Z</time>
      </trkpt>
      <trkpt lat="45.23535" lon="5.75142">
        <ele>802</ele>
        <time>2021-10-16T05:32:28.000Z</time>
      </trkpt>
      <trkpt lat="45.23544" lon="5.75136">
        <ele>800.20001220703</ele>
        <time>2021-10-16T05:32:32.000Z</time>
      </trkpt>
      <trkpt lat="45.2355" lon="5.75133">
        <ele>798.79998779297</ele>
        <time>2021-10-16T05:32:35.000Z</time>
      </trkpt>
      <trkpt lat="45.23558" lon="5.75132">
        <ele>796.79998779297</ele>
        <time>2021-10-16T05:32:38.000Z</time>
      </trkpt>
      <trkpt lat="45.23565" lon="5.7513">
        <ele>795.59997558594</ele>
        <time>2021-10-16T05:32:42.000Z</time>
      </trkpt>
      <trkpt lat="45.23567" lon="5.7513">
        <ele>794.59997558594</ele>
        <time>2021-10-16T05:32:43.000Z</time>
      </trkpt>
      <trkpt lat="45.23573" lon="5.75131">
        <ele>793.20001220703</ele>
        <time>2021-10-16T05:32:46.000Z</time>
      </trkpt>
      <trkpt lat="45.23575" lon="5.7513">
        <ele>793.20001220703</ele>
        <time>2021-10-16T05:32:47.000Z</time>
      </trkpt>
      <trkpt lat="45.23576" lon="5.75129">
        <ele>793</ele>
        <time>2021-10-16T05:32:48.000Z</time>
      </trkpt>
      <trkpt lat="45.23577" lon="5.75128">
        <ele>792</ele>
        <time>2021-10-16T05:32:49.000Z</time>
      </trkpt>
      <trkpt lat="45.23575" lon="5.75127">
        <ele>790.59997558594</ele>
        <time>2021-10-16T05:32:52.000Z</time>
      </trkpt>
      <trkpt lat="45.23575" lon="5.75127">
        <ele>790.59997558594</ele>
        <time>2021-10-16T05:32:53.000Z</time>
      </trkpt>
      <trkpt lat="45.23572" lon="5.75124">
        <ele>789.59997558594</ele>
        <time>2021-10-16T05:32:55.000Z</time>
      </trkpt>
      <trkpt lat="45.23569" lon="5.7512">
        <ele>788.59997558594</ele>
        <time>2021-10-16T05:32:57.000Z</time>
      </trkpt>
      <trkpt lat="45.23567" lon="5.75116">
        <ele>788</ele>
        <time>2021-10-16T05:32:59.000Z</time>
      </trkpt>
      <trkpt lat="45.23566" lon="5.75115">
        <ele>786.59997558594</ele>
        <time>2021-10-16T05:33:00.000Z</time>
      </trkpt>
      <trkpt lat="45.23561" lon="5.75108">
        <ele>785.79998779297</ele>
        <time>2021-10-16T05:33:04.000Z</time>
      </trkpt>
      <trkpt lat="45.2356" lon="5.75107">
        <ele>784.79998779297</ele>
        <time>2021-10-16T05:33:05.000Z</time>
      </trkpt>
      <trkpt lat="45.23552" lon="5.75102">
        <ele>783.40002441406</ele>
        <time>2021-10-16T05:33:09.000Z</time>
      </trkpt>
      <trkpt lat="45.23551" lon="5.75101">
        <ele>782.40002441406</ele>
        <time>2021-10-16T05:33:10.000Z</time>
      </trkpt>
      <trkpt lat="45.23547" lon="5.75097">
        <ele>781.79998779297</ele>
        <time>2021-10-16T05:33:13.000Z</time>
      </trkpt>
      <trkpt lat="45.23545" lon="5.75095">
        <ele>781.59997558594</ele>
        <time>2021-10-16T05:33:14.000Z</time>
      </trkpt>
      <trkpt lat="45.23543" lon="5.75094">
        <ele>781.20001220703</ele>
        <time>2021-10-16T05:33:15.000Z</time>
      </trkpt>
      <trkpt lat="45.23526" lon="5.7509">
        <ele>780</ele>
        <time>2021-10-16T05:33:21.000Z</time>
      </trkpt>
      <trkpt lat="45.23506" lon="5.7509">
        <ele>779.40002441406</ele>
        <time>2021-10-16T05:33:27.000Z</time>
      </trkpt>
      <trkpt lat="45.23504" lon="5.75089">
        <ele>779</ele>
        <time>2021-10-16T05:33:28.000Z</time>
      </trkpt>
      <trkpt lat="45.23486" lon="5.75092">
        <ele>777.79998779297</ele>
        <time>2021-10-16T05:33:35.000Z</time>
      </trkpt>
      <trkpt lat="45.23483" lon="5.75093">
        <ele>777.79998779297</ele>
        <time>2021-10-16T05:33:36.000Z</time>
      </trkpt>
      <trkpt lat="45.23471" lon="5.75092">
        <ele>777</ele>
        <time>2021-10-16T05:33:41.000Z</time>
      </trkpt>
      <trkpt lat="45.23462" lon="5.75094">
        <ele>776.40002441406</ele>
        <time>2021-10-16T05:33:44.000Z</time>
      </trkpt>
      <trkpt lat="45.23454" lon="5.75094">
        <ele>775.40002441406</ele>
        <time>2021-10-16T05:33:47.000Z</time>
      </trkpt>
      <trkpt lat="45.23449" lon="5.75095">
        <ele>774.40002441406</ele>
        <time>2021-10-16T05:33:49.000Z</time>
      </trkpt>
      <trkpt lat="45.23439" lon="5.75095">
        <ele>773.79998779297</ele>
        <time>2021-10-16T05:33:53.000Z</time>
      </trkpt>
      <trkpt lat="45.23433" lon="5.75097">
        <ele>772.79998779297</ele>
        <time>2021-10-16T05:33:55.000Z</time>
      </trkpt>
      <trkpt lat="45.23414" lon="5.75098">
        <ele>771.79998779297</ele>
        <time>2021-10-16T05:34:02.000Z</time>
      </trkpt>
      <trkpt lat="45.23411" lon="5.75097">
        <ele>771.79998779297</ele>
        <time>2021-10-16T05:34:03.000Z</time>
      </trkpt>
      <trkpt lat="45.234" lon="5.75098">
        <ele>771.59997558594</ele>
        <time>2021-10-16T05:34:07.000Z</time>
      </trkpt>
      <trkpt lat="45.23394" lon="5.751">
        <ele>771.20001220703</ele>
        <time>2021-10-16T05:34:09.000Z</time>
      </trkpt>
      <trkpt lat="45.23381" lon="5.75104">
        <ele>770.40002441406</ele>
        <time>2021-10-16T05:34:14.000Z</time>
      </trkpt>
      <trkpt lat="45.2337" lon="5.75106">
        <ele>770.40002441406</ele>
        <time>2021-10-16T05:34:18.000Z</time>
      </trkpt>
      <trkpt lat="45.23362" lon="5.75105">
        <ele>769.79998779297</ele>
        <time>2021-10-16T05:34:21.000Z</time>
      </trkpt>
      <trkpt lat="45.23354" lon="5.75105">
        <ele>768.79998779297</ele>
        <time>2021-10-16T05:34:24.000Z</time>
      </trkpt>
      <trkpt lat="45.23351" lon="5.75105">
        <ele>768.79998779297</ele>
        <time>2021-10-16T05:34:25.000Z</time>
      </trkpt>
      <trkpt lat="45.23343" lon="5.75106">
        <ele>768.20001220703</ele>
        <time>2021-10-16T05:34:28.000Z</time>
      </trkpt>
      <trkpt lat="45.23341" lon="5.75106">
        <ele>767.59997558594</ele>
        <time>2021-10-16T05:34:29.000Z</time>
      </trkpt>
      <trkpt lat="45.23338" lon="5.75107">
        <ele>767.40002441406</ele>
        <time>2021-10-16T05:34:30.000Z</time>
      </trkpt>
      <trkpt lat="45.23327" lon="5.75109">
        <ele>766.20001220703</ele>
        <time>2021-10-16T05:34:34.000Z</time>
      </trkpt>
      <trkpt lat="45.23321" lon="5.75107">
        <ele>765.79998779297</ele>
        <time>2021-10-16T05:34:37.000Z</time>
      </trkpt>
      <trkpt lat="45.23321" lon="5.75105">
        <ele>765.40002441406</ele>
        <time>2021-10-16T05:34:38.000Z</time>
      </trkpt>
      <trkpt lat="45.23321" lon="5.75101">
        <ele>765.20001220703</ele>
        <time>2021-10-16T05:34:39.000Z</time>
      </trkpt>
      <trkpt lat="45.23321" lon="5.75097">
        <ele>765.20001220703</ele>
        <time>2021-10-16T05:34:40.000Z</time>
      </trkpt>
      <trkpt lat="45.23324" lon="5.75087">
        <ele>765.20001220703</ele>
        <time>2021-10-16T05:34:43.000Z</time>
      </trkpt>
      <trkpt lat="45.23325" lon="5.75084">
        <ele>765.20001220703</ele>
        <time>2021-10-16T05:34:44.000Z</time>
      </trkpt>
      <trkpt lat="45.23325" lon="5.75081">
        <ele>765.20001220703</ele>
        <time>2021-10-16T05:34:45.000Z</time>
      </trkpt>
      <trkpt lat="45.23327" lon="5.75063">
        <ele>766.40002441406</ele>
        <time>2021-10-16T05:34:50.000Z</time>
      </trkpt>
      <trkpt lat="45.23325" lon="5.75051">
        <ele>767.59997558594</ele>
        <time>2021-10-16T05:34:55.000Z</time>
      </trkpt>
      <trkpt lat="45.23318" lon="5.75036">
        <ele>768.59997558594</ele>
        <time>2021-10-16T05:35:01.000Z</time>
      </trkpt>
      <trkpt lat="45.23316" lon="5.75034">
        <ele>769.20001220703</ele>
        <time>2021-10-16T05:35:02.000Z</time>
      </trkpt>
      <trkpt lat="45.23312" lon="5.75029">
        <ele>769.79998779297</ele>
        <time>2021-10-16T05:35:05.000Z</time>
      </trkpt>
      <trkpt lat="45.23308" lon="5.75018">
        <ele>771</ele>
        <time>2021-10-16T05:35:10.000Z</time>
      </trkpt>
      <trkpt lat="45.23301" lon="5.75004">
        <ele>772.20001220703</ele>
        <time>2021-10-16T05:35:16.000Z</time>
      </trkpt>
      <trkpt lat="45.23295" lon="5.74993">
        <ele>773</ele>
        <time>2021-10-16T05:35:21.000Z</time>
      </trkpt>
      <trkpt lat="45.23293" lon="5.74992">
        <ele>773.20001220703</ele>
        <time>2021-10-16T05:35:22.000Z</time>
      </trkpt>
      <trkpt lat="45.23289" lon="5.74982">
        <ele>774.40002441406</ele>
        <time>2021-10-16T05:35:26.000Z</time>
      </trkpt>
      <trkpt lat="45.23286" lon="5.74976">
        <ele>774.59997558594</ele>
        <time>2021-10-16T05:35:29.000Z</time>
      </trkpt>
      <trkpt lat="45.23283" lon="5.74972">
        <ele>775</ele>
        <time>2021-10-16T05:35:31.000Z</time>
      </trkpt>
      <trkpt lat="45.23283" lon="5.74969">
        <ele>775.40002441406</ele>
        <time>2021-10-16T05:35:32.000Z</time>
      </trkpt>
      <trkpt lat="45.23275" lon="5.74955">
        <ele>776.40002441406</ele>
        <time>2021-10-16T05:35:39.000Z</time>
      </trkpt>
      <trkpt lat="45.23274" lon="5.74954">
        <ele>776.59997558594</ele>
        <time>2021-10-16T05:35:40.000Z</time>
      </trkpt>
      <trkpt lat="45.23267" lon="5.74944">
        <ele>777.59997558594</ele>
        <time>2021-10-16T05:35:45.000Z</time>
      </trkpt>
      <trkpt lat="45.23263" lon="5.74939">
        <ele>778.20001220703</ele>
        <time>2021-10-16T05:35:48.000Z</time>
      </trkpt>
      <trkpt lat="45.2326" lon="5.74935">
        <ele>778.59997558594</ele>
        <time>2021-10-16T05:35:50.000Z</time>
      </trkpt>
      <trkpt lat="45.23253" lon="5.74929">
        <ele>779.40002441406</ele>
        <time>2021-10-16T05:35:54.000Z</time>
      </trkpt>
      <trkpt lat="45.23249" lon="5.74925">
        <ele>779.79998779297</ele>
        <time>2021-10-16T05:35:56.000Z</time>
      </trkpt>
      <trkpt lat="45.23248" lon="5.74924">
        <ele>780.20001220703</ele>
        <time>2021-10-16T05:35:57.000Z</time>
      </trkpt>
      <trkpt lat="45.23242" lon="5.74917">
        <ele>781</ele>
        <time>2021-10-16T05:36:01.000Z</time>
      </trkpt>
      <trkpt lat="45.23236" lon="5.74911">
        <ele>782</ele>
        <time>2021-10-16T05:36:06.000Z</time>
      </trkpt>
      <trkpt lat="45.23228" lon="5.74903">
        <ele>783.40002441406</ele>
        <time>2021-10-16T05:36:12.000Z</time>
      </trkpt>
      <trkpt lat="45.23225" lon="5.74899">
        <ele>783.59997558594</ele>
        <time>2021-10-16T05:36:14.000Z</time>
      </trkpt>
      <trkpt lat="45.23223" lon="5.74895">
        <ele>784.20001220703</ele>
        <time>2021-10-16T05:36:16.000Z</time>
      </trkpt>
      <trkpt lat="45.23222" lon="5.7489">
        <ele>784.20001220703</ele>
        <time>2021-10-16T05:36:18.000Z</time>
      </trkpt>
      <trkpt lat="45.23221" lon="5.74886">
        <ele>784.79998779297</ele>
        <time>2021-10-16T05:36:20.000Z</time>
      </trkpt>
      <trkpt lat="45.23218" lon="5.74872">
        <ele>785.59997558594</ele>
        <time>2021-10-16T05:36:25.000Z</time>
      </trkpt>
      <trkpt lat="45.23217" lon="5.74866">
        <ele>786</ele>
        <time>2021-10-16T05:36:27.000Z</time>
      </trkpt>
      <trkpt lat="45.23215" lon="5.74865">
        <ele>786.20001220703</ele>
        <time>2021-10-16T05:36:28.000Z</time>
      </trkpt>
      <trkpt lat="45.23209" lon="5.74863">
        <ele>786.79998779297</ele>
        <time>2021-10-16T05:36:31.000Z</time>
      </trkpt>
      <trkpt lat="45.23207" lon="5.74862">
        <ele>787.20001220703</ele>
        <time>2021-10-16T05:36:32.000Z</time>
      </trkpt>
      <trkpt lat="45.23199" lon="5.74862">
        <ele>788.20001220703</ele>
        <time>2021-10-16T05:36:37.000Z</time>
      </trkpt>
      <trkpt lat="45.23193" lon="5.74856">
        <ele>789.40002441406</ele>
        <time>2021-10-16T05:36:42.000Z</time>
      </trkpt>
      <trkpt lat="45.23189" lon="5.74851">
        <ele>789.59997558594</ele>
        <time>2021-10-16T05:36:44.000Z</time>
      </trkpt>
      <trkpt lat="45.23185" lon="5.74848">
        <ele>790.40002441406</ele>
        <time>2021-10-16T05:36:46.000Z</time>
      </trkpt>
      <trkpt lat="45.23178" lon="5.74836">
        <ele>791.40002441406</ele>
        <time>2021-10-16T05:36:52.000Z</time>
      </trkpt>
      <trkpt lat="45.23174" lon="5.74828">
        <ele>792</ele>
        <time>2021-10-16T05:36:56.000Z</time>
      </trkpt>
      <trkpt lat="45.23173" lon="5.74826">
        <ele>792.40002441406</ele>
        <time>2021-10-16T05:36:57.000Z</time>
      </trkpt>
      <trkpt lat="45.23172" lon="5.74824">
        <ele>792.40002441406</ele>
        <time>2021-10-16T05:36:58.000Z</time>
      </trkpt>
      <trkpt lat="45.2317" lon="5.74817">
        <ele>793</ele>
        <time>2021-10-16T05:37:01.000Z</time>
      </trkpt>
      <trkpt lat="45.23169" lon="5.74813">
        <ele>793.79998779297</ele>
        <time>2021-10-16T05:37:03.000Z</time>
      </trkpt>
      <trkpt lat="45.23168" lon="5.74811">
        <ele>793.79998779297</ele>
        <time>2021-10-16T05:37:04.000Z</time>
      </trkpt>
      <trkpt lat="45.23166" lon="5.7481">
        <ele>793.79998779297</ele>
        <time>2021-10-16T05:37:05.000Z</time>
      </trkpt>
      <trkpt lat="45.23162" lon="5.74802">
        <ele>794.20001220703</ele>
        <time>2021-10-16T05:37:10.000Z</time>
      </trkpt>
      <trkpt lat="45.2316" lon="5.74798">
        <ele>794.79998779297</ele>
        <time>2021-10-16T05:37:12.000Z</time>
      </trkpt>
      <trkpt lat="45.23155" lon="5.74786">
        <ele>796</ele>
        <time>2021-10-16T05:37:17.000Z</time>
      </trkpt>
      <trkpt lat="45.23148" lon="5.74775">
        <ele>798</ele>
        <time>2021-10-16T05:37:23.000Z</time>
      </trkpt>
      <trkpt lat="45.23147" lon="5.74774">
        <ele>798</ele>
        <time>2021-10-16T05:37:24.000Z</time>
      </trkpt>
      <trkpt lat="45.23141" lon="5.7476">
        <ele>798.79998779297</ele>
        <time>2021-10-16T05:37:30.000Z</time>
      </trkpt>
      <trkpt lat="45.2314" lon="5.74759">
        <ele>799</ele>
        <time>2021-10-16T05:37:31.000Z</time>
      </trkpt>
      <trkpt lat="45.23133" lon="5.7475">
        <ele>800.20001220703</ele>
        <time>2021-10-16T05:37:36.000Z</time>
      </trkpt>
      <trkpt lat="45.23132" lon="5.74748">
        <ele>800.20001220703</ele>
        <time>2021-10-16T05:37:37.000Z</time>
      </trkpt>
      <trkpt lat="45.23132" lon="5.74746">
        <ele>800.40002441406</ele>
        <time>2021-10-16T05:37:38.000Z</time>
      </trkpt>
      <trkpt lat="45.2313" lon="5.74742">
        <ele>801</ele>
        <time>2021-10-16T05:37:40.000Z</time>
      </trkpt>
      <trkpt lat="45.23127" lon="5.74738">
        <ele>801</ele>
        <time>2021-10-16T05:37:42.000Z</time>
      </trkpt>
      <trkpt lat="45.23126" lon="5.74736">
        <ele>801.20001220703</ele>
        <time>2021-10-16T05:37:43.000Z</time>
      </trkpt>
      <trkpt lat="45.2312" lon="5.74727">
        <ele>802.59997558594</ele>
        <time>2021-10-16T05:37:48.000Z</time>
      </trkpt>
      <trkpt lat="45.23117" lon="5.74724">
        <ele>802.79998779297</ele>
        <time>2021-10-16T05:37:50.000Z</time>
      </trkpt>
      <trkpt lat="45.23113" lon="5.74715">
        <ele>803.79998779297</ele>
        <time>2021-10-16T05:37:54.000Z</time>
      </trkpt>
      <trkpt lat="45.2311" lon="5.74712">
        <ele>804.20001220703</ele>
        <time>2021-10-16T05:37:56.000Z</time>
      </trkpt>
      <trkpt lat="45.23104" lon="5.74705">
        <ele>805</ele>
        <time>2021-10-16T05:38:00.000Z</time>
      </trkpt>
      <trkpt lat="45.231" lon="5.74699">
        <ele>805.79998779297</ele>
        <time>2021-10-16T05:38:03.000Z</time>
      </trkpt>
      <trkpt lat="45.23096" lon="5.74697">
        <ele>806.20001220703</ele>
        <time>2021-10-16T05:38:05.000Z</time>
      </trkpt>
      <trkpt lat="45.2309" lon="5.7469">
        <ele>806.79998779297</ele>
        <time>2021-10-16T05:38:09.000Z</time>
      </trkpt>
      <trkpt lat="45.23089" lon="5.74687">
        <ele>807.20001220703</ele>
        <time>2021-10-16T05:38:10.000Z</time>
      </trkpt>
      <trkpt lat="45.23088" lon="5.74686">
        <ele>807.20001220703</ele>
        <time>2021-10-16T05:38:11.000Z</time>
      </trkpt>
      <trkpt lat="45.23084" lon="5.74678">
        <ele>808</ele>
        <time>2021-10-16T05:38:15.000Z</time>
      </trkpt>
      <trkpt lat="45.23083" lon="5.74676">
        <ele>808.59997558594</ele>
        <time>2021-10-16T05:38:16.000Z</time>
      </trkpt>
      <trkpt lat="45.2308" lon="5.74672">
        <ele>809</ele>
        <time>2021-10-16T05:38:18.000Z</time>
      </trkpt>
      <trkpt lat="45.23075" lon="5.74664">
        <ele>809.79998779297</ele>
        <time>2021-10-16T05:38:22.000Z</time>
      </trkpt>
      <trkpt lat="45.23073" lon="5.74661">
        <ele>810.20001220703</ele>
        <time>2021-10-16T05:38:24.000Z</time>
      </trkpt>
      <trkpt lat="45.23071" lon="5.74657">
        <ele>810.79998779297</ele>
        <time>2021-10-16T05:38:26.000Z</time>
      </trkpt>
      <trkpt lat="45.23063" lon="5.74646">
        <ele>811.59997558594</ele>
        <time>2021-10-16T05:38:32.000Z</time>
      </trkpt>
      <trkpt lat="45.23062" lon="5.74644">
        <ele>812</ele>
        <time>2021-10-16T05:38:33.000Z</time>
      </trkpt>
      <trkpt lat="45.23057" lon="5.74634">
        <ele>812.79998779297</ele>
        <time>2021-10-16T05:38:38.000Z</time>
      </trkpt>
      <trkpt lat="45.23054" lon="5.74632">
        <ele>813.20001220703</ele>
        <time>2021-10-16T05:38:39.000Z</time>
      </trkpt>
      <trkpt lat="45.23052" lon="5.74627">
        <ele>813.79998779297</ele>
        <time>2021-10-16T05:38:42.000Z</time>
      </trkpt>
      <trkpt lat="45.23051" lon="5.74625">
        <ele>813.79998779297</ele>
        <time>2021-10-16T05:38:43.000Z</time>
      </trkpt>
      <trkpt lat="45.23049" lon="5.74621">
        <ele>814.20001220703</ele>
        <time>2021-10-16T05:38:45.000Z</time>
      </trkpt>
      <trkpt lat="45.2304" lon="5.74614">
        <ele>815.40002441406</ele>
        <time>2021-10-16T05:38:50.000Z</time>
      </trkpt>
      <trkpt lat="45.2303" lon="5.74607">
        <ele>816.40002441406</ele>
        <time>2021-10-16T05:38:55.000Z</time>
      </trkpt>
      <trkpt lat="45.23028" lon="5.74606">
        <ele>816.40002441406</ele>
        <time>2021-10-16T05:38:56.000Z</time>
      </trkpt>
      <trkpt lat="45.23027" lon="5.74606">
        <ele>817</ele>
        <time>2021-10-16T05:38:57.000Z</time>
      </trkpt>
      <trkpt lat="45.23023" lon="5.74599">
        <ele>817.59997558594</ele>
        <time>2021-10-16T05:39:01.000Z</time>
      </trkpt>
      <trkpt lat="45.23021" lon="5.74596">
        <ele>818.20001220703</ele>
        <time>2021-10-16T05:39:03.000Z</time>
      </trkpt>
      <trkpt lat="45.23019" lon="5.74595">
        <ele>818.59997558594</ele>
        <time>2021-10-16T05:39:04.000Z</time>
      </trkpt>
      <trkpt lat="45.23015" lon="5.74591">
        <ele>818.79998779297</ele>
        <time>2021-10-16T05:39:07.000Z</time>
      </trkpt>
      <trkpt lat="45.23011" lon="5.74586">
        <ele>819.59997558594</ele>
        <time>2021-10-16T05:39:10.000Z</time>
      </trkpt>
      <trkpt lat="45.2301" lon="5.74584">
        <ele>820</ele>
        <time>2021-10-16T05:39:11.000Z</time>
      </trkpt>
      <trkpt lat="45.23008" lon="5.74584">
        <ele>820</ele>
        <time>2021-10-16T05:39:12.000Z</time>
      </trkpt>
      <trkpt lat="45.23002" lon="5.74576">
        <ele>820.79998779297</ele>
        <time>2021-10-16T05:39:16.000Z</time>
      </trkpt>
      <trkpt lat="45.23001" lon="5.74574">
        <ele>821</ele>
        <time>2021-10-16T05:39:17.000Z</time>
      </trkpt>
      <trkpt lat="45.22996" lon="5.74567">
        <ele>821.59997558594</ele>
        <time>2021-10-16T05:39:21.000Z</time>
      </trkpt>
      <trkpt lat="45.22994" lon="5.74566">
        <ele>822</ele>
        <time>2021-10-16T05:39:22.000Z</time>
      </trkpt>
      <trkpt lat="45.22993" lon="5.74565">
        <ele>822.40002441406</ele>
        <time>2021-10-16T05:39:23.000Z</time>
      </trkpt>
      <trkpt lat="45.22989" lon="5.74562">
        <ele>823</ele>
        <time>2021-10-16T05:39:26.000Z</time>
      </trkpt>
      <trkpt lat="45.22983" lon="5.74555">
        <ele>824</ele>
        <time>2021-10-16T05:39:30.000Z</time>
      </trkpt>
      <trkpt lat="45.22975" lon="5.74551">
        <ele>825.40002441406</ele>
        <time>2021-10-16T05:39:35.000Z</time>
      </trkpt>
      <trkpt lat="45.22971" lon="5.74546">
        <ele>826</ele>
        <time>2021-10-16T05:39:38.000Z</time>
      </trkpt>
      <trkpt lat="45.22968" lon="5.74542">
        <ele>826.40002441406</ele>
        <time>2021-10-16T05:39:41.000Z</time>
      </trkpt>
      <trkpt lat="45.22962" lon="5.74534">
        <ele>827.59997558594</ele>
        <time>2021-10-16T05:39:46.000Z</time>
      </trkpt>
      <trkpt lat="45.22958" lon="5.74529">
        <ele>828</ele>
        <time>2021-10-16T05:39:49.000Z</time>
      </trkpt>
      <trkpt lat="45.22954" lon="5.74524">
        <ele>829</ele>
        <time>2021-10-16T05:39:52.000Z</time>
      </trkpt>
      <trkpt lat="45.22954" lon="5.74522">
        <ele>829</ele>
        <time>2021-10-16T05:39:53.000Z</time>
      </trkpt>
      <trkpt lat="45.2295" lon="5.74514">
        <ele>829.59997558594</ele>
        <time>2021-10-16T05:39:57.000Z</time>
      </trkpt>
      <trkpt lat="45.22946" lon="5.74509">
        <ele>830.40002441406</ele>
        <time>2021-10-16T05:40:00.000Z</time>
      </trkpt>
      <trkpt lat="45.2294" lon="5.74502">
        <ele>831</ele>
        <time>2021-10-16T05:40:04.000Z</time>
      </trkpt>
      <trkpt lat="45.22938" lon="5.74499">
        <ele>831.40002441406</ele>
        <time>2021-10-16T05:40:06.000Z</time>
      </trkpt>
      <trkpt lat="45.2293" lon="5.7449">
        <ele>832.59997558594</ele>
        <time>2021-10-16T05:40:11.000Z</time>
      </trkpt>
      <trkpt lat="45.22923" lon="5.74487">
        <ele>833.59997558594</ele>
        <time>2021-10-16T05:40:15.000Z</time>
      </trkpt>
      <trkpt lat="45.2292" lon="5.74485">
        <ele>833.79998779297</ele>
        <time>2021-10-16T05:40:16.000Z</time>
      </trkpt>
      <trkpt lat="45.22917" lon="5.7448">
        <ele>834.40002441406</ele>
        <time>2021-10-16T05:40:18.000Z</time>
      </trkpt>
      <trkpt lat="45.22913" lon="5.74478">
        <ele>834.79998779297</ele>
        <time>2021-10-16T05:40:20.000Z</time>
      </trkpt>
      <trkpt lat="45.22904" lon="5.74473">
        <ele>835.79998779297</ele>
        <time>2021-10-16T05:40:25.000Z</time>
      </trkpt>
      <trkpt lat="45.22897" lon="5.74466">
        <ele>837</ele>
        <time>2021-10-16T05:40:30.000Z</time>
      </trkpt>
      <trkpt lat="45.22891" lon="5.74463">
        <ele>838</ele>
        <time>2021-10-16T05:40:34.000Z</time>
      </trkpt>
      <trkpt lat="45.22888" lon="5.74462">
        <ele>838.40002441406</ele>
        <time>2021-10-16T05:40:36.000Z</time>
      </trkpt>
      <trkpt lat="45.22879" lon="5.74455">
        <ele>839.40002441406</ele>
        <time>2021-10-16T05:40:41.000Z</time>
      </trkpt>
      <trkpt lat="45.22874" lon="5.7445">
        <ele>840.20001220703</ele>
        <time>2021-10-16T05:40:44.000Z</time>
      </trkpt>
      <trkpt lat="45.22871" lon="5.74447">
        <ele>840.59997558594</ele>
        <time>2021-10-16T05:40:47.000Z</time>
      </trkpt>
      <trkpt lat="45.22868" lon="5.74447">
        <ele>840.59997558594</ele>
        <time>2021-10-16T05:40:49.000Z</time>
      </trkpt>
      <trkpt lat="45.22868" lon="5.74446">
        <ele>840.40002441406</ele>
        <time>2021-10-16T05:40:51.000Z</time>
      </trkpt>
      <trkpt lat="45.22867" lon="5.74446">
        <ele>839.79998779297</ele>
        <time>2021-10-16T05:40:52.000Z</time>
      </trkpt>
      <trkpt lat="45.22865" lon="5.74446">
        <ele>839.40002441406</ele>
        <time>2021-10-16T05:40:54.000Z</time>
      </trkpt>
      <trkpt lat="45.22863" lon="5.74446">
        <ele>838.59997558594</ele>
        <time>2021-10-16T05:40:55.000Z</time>
      </trkpt>
      <trkpt lat="45.22861" lon="5.74445">
        <ele>838.20001220703</ele>
        <time>2021-10-16T05:40:57.000Z</time>
      </trkpt>
      <trkpt lat="45.22859" lon="5.74446">
        <ele>837.79998779297</ele>
        <time>2021-10-16T05:40:59.000Z</time>
      </trkpt>
      <trkpt lat="45.22859" lon="5.74445">
        <ele>836.59997558594</ele>
        <time>2021-10-16T05:41:00.000Z</time>
      </trkpt>
      <trkpt lat="45.22857" lon="5.74445">
        <ele>836.20001220703</ele>
        <time>2021-10-16T05:41:02.000Z</time>
      </trkpt>
      <trkpt lat="45.22856" lon="5.74444">
        <ele>835.40002441406</ele>
        <time>2021-10-16T05:41:04.000Z</time>
      </trkpt>
      <trkpt lat="45.22855" lon="5.74443">
        <ele>834.59997558594</ele>
        <time>2021-10-16T05:41:05.000Z</time>
      </trkpt>
      <trkpt lat="45.22854" lon="5.74443">
        <ele>833.79998779297</ele>
        <time>2021-10-16T05:41:06.000Z</time>
      </trkpt>
      <trkpt lat="45.22852" lon="5.74442">
        <ele>832.79998779297</ele>
        <time>2021-10-16T05:41:09.000Z</time>
      </trkpt>
      <trkpt lat="45.22851" lon="5.74442">
        <ele>832.59997558594</ele>
        <time>2021-10-16T05:41:10.000Z</time>
      </trkpt>
      <trkpt lat="45.22848" lon="5.74443">
        <ele>832</ele>
        <time>2021-10-16T05:41:12.000Z</time>
      </trkpt>
      <trkpt lat="45.22847" lon="5.74443">
        <ele>830.79998779297</ele>
        <time>2021-10-16T05:41:13.000Z</time>
      </trkpt>
      <trkpt lat="45.22845" lon="5.74444">
        <ele>830.79998779297</ele>
        <time>2021-10-16T05:41:15.000Z</time>
      </trkpt>
      <trkpt lat="45.22843" lon="5.74444">
        <ele>830.59997558594</ele>
        <time>2021-10-16T05:41:16.000Z</time>
      </trkpt>
      <trkpt lat="45.22842" lon="5.74444">
        <ele>829.40002441406</ele>
        <time>2021-10-16T05:41:18.000Z</time>
      </trkpt>
      <trkpt lat="45.22839" lon="5.74446">
        <ele>828.59997558594</ele>
        <time>2021-10-16T05:41:21.000Z</time>
      </trkpt>
      <trkpt lat="45.22838" lon="5.74446">
        <ele>827.79998779297</ele>
        <time>2021-10-16T05:41:22.000Z</time>
      </trkpt>
      <trkpt lat="45.22837" lon="5.74446">
        <ele>827.59997558594</ele>
        <time>2021-10-16T05:41:23.000Z</time>
      </trkpt>
      <trkpt lat="45.22834" lon="5.74449">
        <ele>826.59997558594</ele>
        <time>2021-10-16T05:41:25.000Z</time>
      </trkpt>
      <trkpt lat="45.22831" lon="5.74449">
        <ele>825.40002441406</ele>
        <time>2021-10-16T05:41:27.000Z</time>
      </trkpt>
      <trkpt lat="45.22827" lon="5.7445">
        <ele>824.40002441406</ele>
        <time>2021-10-16T05:41:30.000Z</time>
      </trkpt>
      <trkpt lat="45.22826" lon="5.74451">
        <ele>823.79998779297</ele>
        <time>2021-10-16T05:41:31.000Z</time>
      </trkpt>
      <trkpt lat="45.22823" lon="5.74452">
        <ele>822.79998779297</ele>
        <time>2021-10-16T05:41:33.000Z</time>
      </trkpt>
      <trkpt lat="45.22819" lon="5.74454">
        <ele>821.40002441406</ele>
        <time>2021-10-16T05:41:36.000Z</time>
      </trkpt>
      <trkpt lat="45.22818" lon="5.74454">
        <ele>820.79998779297</ele>
        <time>2021-10-16T05:41:37.000Z</time>
      </trkpt>
      <trkpt lat="45.22816" lon="5.74454">
        <ele>820.40002441406</ele>
        <time>2021-10-16T05:41:38.000Z</time>
      </trkpt>
      <trkpt lat="45.22815" lon="5.74454">
        <ele>819.79998779297</ele>
        <time>2021-10-16T05:41:39.000Z</time>
      </trkpt>
      <trkpt lat="45.22813" lon="5.74454">
        <ele>819</ele>
        <time>2021-10-16T05:41:41.000Z</time>
      </trkpt>
      <trkpt lat="45.22812" lon="5.74454">
        <ele>818.40002441406</ele>
        <time>2021-10-16T05:41:42.000Z</time>
      </trkpt>
      <trkpt lat="45.2281" lon="5.74455">
        <ele>817.40002441406</ele>
        <time>2021-10-16T05:41:43.000Z</time>
      </trkpt>
      <trkpt lat="45.22807" lon="5.74455">
        <ele>816.59997558594</ele>
        <time>2021-10-16T05:41:45.000Z</time>
      </trkpt>
      <trkpt lat="45.22805" lon="5.74455">
        <ele>815.79998779297</ele>
        <time>2021-10-16T05:41:46.000Z</time>
      </trkpt>
      <trkpt lat="45.22803" lon="5.74456">
        <ele>815.20001220703</ele>
        <time>2021-10-16T05:41:47.000Z</time>
      </trkpt>
      <trkpt lat="45.22798" lon="5.74457">
        <ele>814.40002441406</ele>
        <time>2021-10-16T05:41:50.000Z</time>
      </trkpt>
      <trkpt lat="45.22795" lon="5.74457">
        <ele>813</ele>
        <time>2021-10-16T05:41:53.000Z</time>
      </trkpt>
      <trkpt lat="45.22794" lon="5.74457">
        <ele>812.79998779297</ele>
        <time>2021-10-16T05:41:54.000Z</time>
      </trkpt>
      <trkpt lat="45.22791" lon="5.74459">
        <ele>811.59997558594</ele>
        <time>2021-10-16T05:41:56.000Z</time>
      </trkpt>
      <trkpt lat="45.22785" lon="5.74461">
        <ele>810.20001220703</ele>
        <time>2021-10-16T05:41:59.000Z</time>
      </trkpt>
      <trkpt lat="45.22783" lon="5.74462">
        <ele>809.59997558594</ele>
        <time>2021-10-16T05:42:00.000Z</time>
      </trkpt>
      <trkpt lat="45.22781" lon="5.74462">
        <ele>809.59997558594</ele>
        <time>2021-10-16T05:42:01.000Z</time>
      </trkpt>
      <trkpt lat="45.2278" lon="5.74463">
        <ele>808.20001220703</ele>
        <time>2021-10-16T05:42:02.000Z</time>
      </trkpt>
      <trkpt lat="45.22779" lon="5.74464">
        <ele>807.20001220703</ele>
        <time>2021-10-16T05:42:03.000Z</time>
      </trkpt>
      <trkpt lat="45.22775" lon="5.74466">
        <ele>806.40002441406</ele>
        <time>2021-10-16T05:42:06.000Z</time>
      </trkpt>
      <trkpt lat="45.22773" lon="5.74467">
        <ele>806.20001220703</ele>
        <time>2021-10-16T05:42:07.000Z</time>
      </trkpt>
      <trkpt lat="45.22772" lon="5.74468">
        <ele>805</ele>
        <time>2021-10-16T05:42:08.000Z</time>
      </trkpt>
      <trkpt lat="45.22766" lon="5.74473">
        <ele>803.20001220703</ele>
        <time>2021-10-16T05:42:12.000Z</time>
      </trkpt>
      <trkpt lat="45.22764" lon="5.74475">
        <ele>802.59997558594</ele>
        <time>2021-10-16T05:42:13.000Z</time>
      </trkpt>
      <trkpt lat="45.22762" lon="5.74475">
        <ele>802.20001220703</ele>
        <time>2021-10-16T05:42:14.000Z</time>
      </trkpt>
      <trkpt lat="45.2276" lon="5.74476">
        <ele>802</ele>
        <time>2021-10-16T05:42:15.000Z</time>
      </trkpt>
      <trkpt lat="45.22757" lon="5.74478">
        <ele>801.59997558594</ele>
        <time>2021-10-16T05:42:17.000Z</time>
      </trkpt>
      <trkpt lat="45.22756" lon="5.74478">
        <ele>800.40002441406</ele>
        <time>2021-10-16T05:42:18.000Z</time>
      </trkpt>
      <trkpt lat="45.22752" lon="5.7448">
        <ele>799.79998779297</ele>
        <time>2021-10-16T05:42:20.000Z</time>
      </trkpt>
      <trkpt lat="45.2275" lon="5.7448">
        <ele>798.59997558594</ele>
        <time>2021-10-16T05:42:21.000Z</time>
      </trkpt>
      <trkpt lat="45.22746" lon="5.74481">
        <ele>797.20001220703</ele>
        <time>2021-10-16T05:42:24.000Z</time>
      </trkpt>
      <trkpt lat="45.22744" lon="5.74481">
        <ele>796.59997558594</ele>
        <time>2021-10-16T05:42:25.000Z</time>
      </trkpt>
      <trkpt lat="45.22743" lon="5.74481">
        <ele>796.59997558594</ele>
        <time>2021-10-16T05:42:26.000Z</time>
      </trkpt>
      <trkpt lat="45.22739" lon="5.74482">
        <ele>795.79998779297</ele>
        <time>2021-10-16T05:42:28.000Z</time>
      </trkpt>
      <trkpt lat="45.22734" lon="5.74483">
        <ele>794</ele>
        <time>2021-10-16T05:42:31.000Z</time>
      </trkpt>
      <trkpt lat="45.2273" lon="5.74483">
        <ele>792.79998779297</ele>
        <time>2021-10-16T05:42:33.000Z</time>
      </trkpt>
      <trkpt lat="45.22726" lon="5.74484">
        <ele>792</ele>
        <time>2021-10-16T05:42:35.000Z</time>
      </trkpt>
      <trkpt lat="45.22722" lon="5.74485">
        <ele>791.20001220703</ele>
        <time>2021-10-16T05:42:37.000Z</time>
      </trkpt>
      <trkpt lat="45.2272" lon="5.74485">
        <ele>790.59997558594</ele>
        <time>2021-10-16T05:42:38.000Z</time>
      </trkpt>
      <trkpt lat="45.22719" lon="5.74485">
        <ele>790</ele>
        <time>2021-10-16T05:42:39.000Z</time>
      </trkpt>
      <trkpt lat="45.22715" lon="5.74486">
        <ele>789</ele>
        <time>2021-10-16T05:42:41.000Z</time>
      </trkpt>
      <trkpt lat="45.22712" lon="5.74485">
        <ele>787.79998779297</ele>
        <time>2021-10-16T05:42:43.000Z</time>
      </trkpt>
      <trkpt lat="45.2271" lon="5.74484">
        <ele>787.20001220703</ele>
        <time>2021-10-16T05:42:45.000Z</time>
      </trkpt>
      <trkpt lat="45.22706" lon="5.74483">
        <ele>786.40002441406</ele>
        <time>2021-10-16T05:42:47.000Z</time>
      </trkpt>
      <trkpt lat="45.22702" lon="5.74482">
        <ele>785.40002441406</ele>
        <time>2021-10-16T05:42:49.000Z</time>
      </trkpt>
      <trkpt lat="45.22697" lon="5.74479">
        <ele>784</ele>
        <time>2021-10-16T05:42:52.000Z</time>
      </trkpt>
      <trkpt lat="45.22695" lon="5.7448">
        <ele>783.40002441406</ele>
        <time>2021-10-16T05:42:53.000Z</time>
      </trkpt>
      <trkpt lat="45.22691" lon="5.74479">
        <ele>782.59997558594</ele>
        <time>2021-10-16T05:42:55.000Z</time>
      </trkpt>
      <trkpt lat="45.22688" lon="5.74478">
        <ele>781.40002441406</ele>
        <time>2021-10-16T05:42:58.000Z</time>
      </trkpt>
      <trkpt lat="45.22687" lon="5.74477">
        <ele>780.40002441406</ele>
        <time>2021-10-16T05:42:59.000Z</time>
      </trkpt>
      <trkpt lat="45.22686" lon="5.74475">
        <ele>780.20001220703</ele>
        <time>2021-10-16T05:43:00.000Z</time>
      </trkpt>
      <trkpt lat="45.22684" lon="5.74476">
        <ele>779.79998779297</ele>
        <time>2021-10-16T05:43:01.000Z</time>
      </trkpt>
      <trkpt lat="45.22682" lon="5.74477">
        <ele>779.40002441406</ele>
        <time>2021-10-16T05:43:02.000Z</time>
      </trkpt>
      <trkpt lat="45.2268" lon="5.74478">
        <ele>778.79998779297</ele>
        <time>2021-10-16T05:43:03.000Z</time>
      </trkpt>
      <trkpt lat="45.22678" lon="5.74479">
        <ele>778.40002441406</ele>
        <time>2021-10-16T05:43:04.000Z</time>
      </trkpt>
      <trkpt lat="45.22672" lon="5.74481">
        <ele>777</ele>
        <time>2021-10-16T05:43:07.000Z</time>
      </trkpt>
      <trkpt lat="45.22668" lon="5.74483">
        <ele>776</ele>
        <time>2021-10-16T05:43:09.000Z</time>
      </trkpt>
      <trkpt lat="45.22666" lon="5.74484">
        <ele>776</ele>
        <time>2021-10-16T05:43:10.000Z</time>
      </trkpt>
      <trkpt lat="45.22665" lon="5.74485">
        <ele>775.20001220703</ele>
        <time>2021-10-16T05:43:11.000Z</time>
      </trkpt>
      <trkpt lat="45.22663" lon="5.74484">
        <ele>774.20001220703</ele>
        <time>2021-10-16T05:43:13.000Z</time>
      </trkpt>
      <trkpt lat="45.22658" lon="5.74486">
        <ele>773.20001220703</ele>
        <time>2021-10-16T05:43:15.000Z</time>
      </trkpt>
      <trkpt lat="45.22655" lon="5.74487">
        <ele>772.59997558594</ele>
        <time>2021-10-16T05:43:17.000Z</time>
      </trkpt>
      <trkpt lat="45.22654" lon="5.74488">
        <ele>771.59997558594</ele>
        <time>2021-10-16T05:43:18.000Z</time>
      </trkpt>
      <trkpt lat="45.22649" lon="5.7449">
        <ele>771.20001220703</ele>
        <time>2021-10-16T05:43:20.000Z</time>
      </trkpt>
      <trkpt lat="45.22645" lon="5.74492">
        <ele>770.40002441406</ele>
        <time>2021-10-16T05:43:22.000Z</time>
      </trkpt>
      <trkpt lat="45.22641" lon="5.74493">
        <ele>770.20001220703</ele>
        <time>2021-10-16T05:43:24.000Z</time>
      </trkpt>
      <trkpt lat="45.22637" lon="5.74494">
        <ele>768.79998779297</ele>
        <time>2021-10-16T05:43:26.000Z</time>
      </trkpt>
      <trkpt lat="45.22629" lon="5.74496">
        <ele>767.59997558594</ele>
        <time>2021-10-16T05:43:29.000Z</time>
      </trkpt>
      <trkpt lat="45.22627" lon="5.74496">
        <ele>767.20001220703</ele>
        <time>2021-10-16T05:43:31.000Z</time>
      </trkpt>
      <trkpt lat="45.22626" lon="5.74496">
        <ele>766.59997558594</ele>
        <time>2021-10-16T05:43:32.000Z</time>
      </trkpt>
      <trkpt lat="45.22624" lon="5.74496">
        <ele>765.40002441406</ele>
        <time>2021-10-16T05:43:34.000Z</time>
      </trkpt>
      <trkpt lat="45.22618" lon="5.74498">
        <ele>764</ele>
        <time>2021-10-16T05:43:37.000Z</time>
      </trkpt>
      <trkpt lat="45.22617" lon="5.74499">
        <ele>764</ele>
        <time>2021-10-16T05:43:38.000Z</time>
      </trkpt>
      <trkpt lat="45.22615" lon="5.745">
        <ele>762.79998779297</ele>
        <time>2021-10-16T05:43:40.000Z</time>
      </trkpt>
      <trkpt lat="45.22613" lon="5.74501">
        <ele>762.40002441406</ele>
        <time>2021-10-16T05:43:41.000Z</time>
      </trkpt>
      <trkpt lat="45.22611" lon="5.74501">
        <ele>761.20001220703</ele>
        <time>2021-10-16T05:43:42.000Z</time>
      </trkpt>
      <trkpt lat="45.22609" lon="5.74503">
        <ele>760.20001220703</ele>
        <time>2021-10-16T05:43:44.000Z</time>
      </trkpt>
      <trkpt lat="45.22606" lon="5.74507">
        <ele>758.79998779297</ele>
        <time>2021-10-16T05:43:47.000Z</time>
      </trkpt>
      <trkpt lat="45.22605" lon="5.7451">
        <ele>758.20001220703</ele>
        <time>2021-10-16T05:43:49.000Z</time>
      </trkpt>
      <trkpt lat="45.22603" lon="5.74511">
        <ele>757</ele>
        <time>2021-10-16T05:43:50.000Z</time>
      </trkpt>
      <trkpt lat="45.22602" lon="5.74511">
        <ele>757</ele>
        <time>2021-10-16T05:43:51.000Z</time>
      </trkpt>
      <trkpt lat="45.22599" lon="5.74512">
        <ele>755.79998779297</ele>
        <time>2021-10-16T05:43:54.000Z</time>
      </trkpt>
      <trkpt lat="45.22599" lon="5.74513">
        <ele>754.79998779297</ele>
        <time>2021-10-16T05:43:55.000Z</time>
      </trkpt>
      <trkpt lat="45.22598" lon="5.74515">
        <ele>754.20001220703</ele>
        <time>2021-10-16T05:43:57.000Z</time>
      </trkpt>
      <trkpt lat="45.22596" lon="5.74518">
        <ele>753</ele>
        <time>2021-10-16T05:43:59.000Z</time>
      </trkpt>
      <trkpt lat="45.22594" lon="5.74522">
        <ele>752</ele>
        <time>2021-10-16T05:44:01.000Z</time>
      </trkpt>
      <trkpt lat="45.22593" lon="5.74526">
        <ele>750.20001220703</ele>
        <time>2021-10-16T05:44:03.000Z</time>
      </trkpt>
      <trkpt lat="45.22594" lon="5.74532">
        <ele>749.20001220703</ele>
        <time>2021-10-16T05:44:06.000Z</time>
      </trkpt>
      <trkpt lat="45.22594" lon="5.74534">
        <ele>748.59997558594</ele>
        <time>2021-10-16T05:44:07.000Z</time>
      </trkpt>
      <trkpt lat="45.22594" lon="5.74536">
        <ele>748</ele>
        <time>2021-10-16T05:44:08.000Z</time>
      </trkpt>
      <trkpt lat="45.22594" lon="5.74544">
        <ele>747</ele>
        <time>2021-10-16T05:44:10.000Z</time>
      </trkpt>
      <trkpt lat="45.22594" lon="5.74551">
        <ele>745.79998779297</ele>
        <time>2021-10-16T05:44:12.000Z</time>
      </trkpt>
      <trkpt lat="45.22593" lon="5.74555">
        <ele>745.40002441406</ele>
        <time>2021-10-16T05:44:13.000Z</time>
      </trkpt>
      <trkpt lat="45.2259" lon="5.74561">
        <ele>744.20001220703</ele>
        <time>2021-10-16T05:44:15.000Z</time>
      </trkpt>
      <trkpt lat="45.22587" lon="5.74568">
        <ele>742.79998779297</ele>
        <time>2021-10-16T05:44:18.000Z</time>
      </trkpt>
      <trkpt lat="45.22586" lon="5.74571">
        <ele>741.79998779297</ele>
        <time>2021-10-16T05:44:20.000Z</time>
      </trkpt>
      <trkpt lat="45.22585" lon="5.74575">
        <ele>741</ele>
        <time>2021-10-16T05:44:22.000Z</time>
      </trkpt>
      <trkpt lat="45.22582" lon="5.74581">
        <ele>740.20001220703</ele>
        <time>2021-10-16T05:44:24.000Z</time>
      </trkpt>
      <trkpt lat="45.22581" lon="5.74583">
        <ele>739.20001220703</ele>
        <time>2021-10-16T05:44:25.000Z</time>
      </trkpt>
      <trkpt lat="45.22581" lon="5.74588">
        <ele>738</ele>
        <time>2021-10-16T05:44:27.000Z</time>
      </trkpt>
      <trkpt lat="45.22581" lon="5.7459">
        <ele>738</ele>
        <time>2021-10-16T05:44:28.000Z</time>
      </trkpt>
      <trkpt lat="45.2258" lon="5.74592">
        <ele>737.79998779297</ele>
        <time>2021-10-16T05:44:29.000Z</time>
      </trkpt>
      <trkpt lat="45.22579" lon="5.74594">
        <ele>737</ele>
        <time>2021-10-16T05:44:30.000Z</time>
      </trkpt>
      <trkpt lat="45.22577" lon="5.74598">
        <ele>736.20001220703</ele>
        <time>2021-10-16T05:44:33.000Z</time>
      </trkpt>
      <trkpt lat="45.22576" lon="5.746">
        <ele>735.40002441406</ele>
        <time>2021-10-16T05:44:34.000Z</time>
      </trkpt>
      <trkpt lat="45.22575" lon="5.74601">
        <ele>735.20001220703</ele>
        <time>2021-10-16T05:44:35.000Z</time>
      </trkpt>
      <trkpt lat="45.22573" lon="5.74605">
        <ele>734.40002441406</ele>
        <time>2021-10-16T05:44:37.000Z</time>
      </trkpt>
      <trkpt lat="45.22573" lon="5.74608">
        <ele>733.59997558594</ele>
        <time>2021-10-16T05:44:38.000Z</time>
      </trkpt>
      <trkpt lat="45.22571" lon="5.74611">
        <ele>733.20001220703</ele>
        <time>2021-10-16T05:44:39.000Z</time>
      </trkpt>
      <trkpt lat="45.22571" lon="5.74613">
        <ele>732.20001220703</ele>
        <time>2021-10-16T05:44:40.000Z</time>
      </trkpt>
      <trkpt lat="45.2257" lon="5.74616">
        <ele>730.59997558594</ele>
        <time>2021-10-16T05:44:42.000Z</time>
      </trkpt>
      <trkpt lat="45.22569" lon="5.7462">
        <ele>730.20001220703</ele>
        <time>2021-10-16T05:44:44.000Z</time>
      </trkpt>
      <trkpt lat="45.22567" lon="5.74623">
        <ele>730.20001220703</ele>
        <time>2021-10-16T05:44:45.000Z</time>
      </trkpt>
      <trkpt lat="45.22565" lon="5.74625">
        <ele>729.20001220703</ele>
        <time>2021-10-16T05:44:46.000Z</time>
      </trkpt>
      <trkpt lat="45.22557" lon="5.74629">
        <ele>728.40002441406</ele>
        <time>2021-10-16T05:44:50.000Z</time>
      </trkpt>
      <trkpt lat="45.22557" lon="5.74631">
        <ele>728.20001220703</ele>
        <time>2021-10-16T05:44:52.000Z</time>
      </trkpt>
      <trkpt lat="45.22555" lon="5.74633">
        <ele>727.40002441406</ele>
        <time>2021-10-16T05:44:54.000Z</time>
      </trkpt>
      <trkpt lat="45.22553" lon="5.74634">
        <ele>726.40002441406</ele>
        <time>2021-10-16T05:44:55.000Z</time>
      </trkpt>
      <trkpt lat="45.2255" lon="5.74636">
        <ele>725.59997558594</ele>
        <time>2021-10-16T05:44:57.000Z</time>
      </trkpt>
      <trkpt lat="45.22549" lon="5.74637">
        <ele>725.40002441406</ele>
        <time>2021-10-16T05:44:58.000Z</time>
      </trkpt>
      <trkpt lat="45.22547" lon="5.74637">
        <ele>724.79998779297</ele>
        <time>2021-10-16T05:44:59.000Z</time>
      </trkpt>
      <trkpt lat="45.22546" lon="5.74637">
        <ele>723.59997558594</ele>
        <time>2021-10-16T05:45:00.000Z</time>
      </trkpt>
      <trkpt lat="45.22544" lon="5.74637">
        <ele>723.40002441406</ele>
        <time>2021-10-16T05:45:01.000Z</time>
      </trkpt>
      <trkpt lat="45.22541" lon="5.74638">
        <ele>722.59997558594</ele>
        <time>2021-10-16T05:45:03.000Z</time>
      </trkpt>
      <trkpt lat="45.22537" lon="5.7464">
        <ele>721</ele>
        <time>2021-10-16T05:45:06.000Z</time>
      </trkpt>
      <trkpt lat="45.22532" lon="5.74641">
        <ele>719.40002441406</ele>
        <time>2021-10-16T05:45:09.000Z</time>
      </trkpt>
      <trkpt lat="45.22528" lon="5.74645">
        <ele>719</ele>
        <time>2021-10-16T05:45:11.000Z</time>
      </trkpt>
      <trkpt lat="45.22527" lon="5.74647">
        <ele>719</ele>
        <time>2021-10-16T05:45:12.000Z</time>
      </trkpt>
      <trkpt lat="45.22525" lon="5.74649">
        <ele>718</ele>
        <time>2021-10-16T05:45:13.000Z</time>
      </trkpt>
      <trkpt lat="45.22523" lon="5.74651">
        <ele>716.79998779297</ele>
        <time>2021-10-16T05:45:14.000Z</time>
      </trkpt>
      <trkpt lat="45.2252" lon="5.74654">
        <ele>715.79998779297</ele>
        <time>2021-10-16T05:45:16.000Z</time>
      </trkpt>
      <trkpt lat="45.22519" lon="5.74655">
        <ele>715.20001220703</ele>
        <time>2021-10-16T05:45:17.000Z</time>
      </trkpt>
      <trkpt lat="45.22515" lon="5.74657">
        <ele>714.40002441406</ele>
        <time>2021-10-16T05:45:19.000Z</time>
      </trkpt>
      <trkpt lat="45.22511" lon="5.74663">
        <ele>713.59997558594</ele>
        <time>2021-10-16T05:45:22.000Z</time>
      </trkpt>
      <trkpt lat="45.22509" lon="5.74665">
        <ele>712.40002441406</ele>
        <time>2021-10-16T05:45:23.000Z</time>
      </trkpt>
      <trkpt lat="45.22508" lon="5.74667">
        <ele>712</ele>
        <time>2021-10-16T05:45:24.000Z</time>
      </trkpt>
      <trkpt lat="45.22506" lon="5.74667">
        <ele>711.20001220703</ele>
        <time>2021-10-16T05:45:25.000Z</time>
      </trkpt>
      <trkpt lat="45.225" lon="5.74671">
        <ele>709.79998779297</ele>
        <time>2021-10-16T05:45:29.000Z</time>
      </trkpt>
      <trkpt lat="45.22498" lon="5.74672">
        <ele>709</ele>
        <time>2021-10-16T05:45:30.000Z</time>
      </trkpt>
      <trkpt lat="45.22497" lon="5.74673">
        <ele>708.40002441406</ele>
        <time>2021-10-16T05:45:31.000Z</time>
      </trkpt>
      <trkpt lat="45.22492" lon="5.74676">
        <ele>707.40002441406</ele>
        <time>2021-10-16T05:45:33.000Z</time>
      </trkpt>
      <trkpt lat="45.22489" lon="5.74677">
        <ele>706.20001220703</ele>
        <time>2021-10-16T05:45:35.000Z</time>
      </trkpt>
      <trkpt lat="45.22483" lon="5.7468">
        <ele>704.59997558594</ele>
        <time>2021-10-16T05:45:39.000Z</time>
      </trkpt>
      <trkpt lat="45.22479" lon="5.74682">
        <ele>703.20001220703</ele>
        <time>2021-10-16T05:45:42.000Z</time>
      </trkpt>
      <trkpt lat="45.22478" lon="5.74682">
        <ele>702.79998779297</ele>
        <time>2021-10-16T05:45:43.000Z</time>
      </trkpt>
      <trkpt lat="45.22475" lon="5.74682">
        <ele>702.20001220703</ele>
        <time>2021-10-16T05:45:45.000Z</time>
      </trkpt>
      <trkpt lat="45.2247" lon="5.74684">
        <ele>700.79998779297</ele>
        <time>2021-10-16T05:45:49.000Z</time>
      </trkpt>
      <trkpt lat="45.22466" lon="5.74685">
        <ele>700.20001220703</ele>
        <time>2021-10-16T05:45:51.000Z</time>
      </trkpt>
      <trkpt lat="45.22464" lon="5.74685">
        <ele>699.40002441406</ele>
        <time>2021-10-16T05:45:52.000Z</time>
      </trkpt>
      <trkpt lat="45.22456" lon="5.74686">
        <ele>698.20001220703</ele>
        <time>2021-10-16T05:45:56.000Z</time>
      </trkpt>
      <trkpt lat="45.22452" lon="5.74684">
        <ele>696.79998779297</ele>
        <time>2021-10-16T05:45:58.000Z</time>
      </trkpt>
      <trkpt lat="45.22446" lon="5.74684">
        <ele>695.59997558594</ele>
        <time>2021-10-16T05:46:01.000Z</time>
      </trkpt>
      <trkpt lat="45.22442" lon="5.74683">
        <ele>695</ele>
        <time>2021-10-16T05:46:03.000Z</time>
      </trkpt>
      <trkpt lat="45.22438" lon="5.74684">
        <ele>694.59997558594</ele>
        <time>2021-10-16T05:46:05.000Z</time>
      </trkpt>
      <trkpt lat="45.22435" lon="5.74684">
        <ele>693.40002441406</ele>
        <time>2021-10-16T05:46:07.000Z</time>
      </trkpt>
      <trkpt lat="45.22432" lon="5.74684">
        <ele>692.40002441406</ele>
        <time>2021-10-16T05:46:09.000Z</time>
      </trkpt>
      <trkpt lat="45.22431" lon="5.74683">
        <ele>691.79998779297</ele>
        <time>2021-10-16T05:46:10.000Z</time>
      </trkpt>
      <trkpt lat="45.22429" lon="5.74683">
        <ele>691</ele>
        <time>2021-10-16T05:46:12.000Z</time>
      </trkpt>
      <trkpt lat="45.22427" lon="5.74683">
        <ele>691</ele>
        <time>2021-10-16T05:46:13.000Z</time>
      </trkpt>
      <trkpt lat="45.22423" lon="5.74682">
        <ele>688.79998779297</ele>
        <time>2021-10-16T05:46:15.000Z</time>
      </trkpt>
      <trkpt lat="45.22418" lon="5.74681">
        <ele>687.59997558594</ele>
        <time>2021-10-16T05:46:18.000Z</time>
      </trkpt>
      <trkpt lat="45.22417" lon="5.74681">
        <ele>687.20001220703</ele>
        <time>2021-10-16T05:46:19.000Z</time>
      </trkpt>
      <trkpt lat="45.22414" lon="5.7468">
        <ele>686.20001220703</ele>
        <time>2021-10-16T05:46:21.000Z</time>
      </trkpt>
      <trkpt lat="45.2241" lon="5.7468">
        <ele>685.79998779297</ele>
        <time>2021-10-16T05:46:23.000Z</time>
      </trkpt>
      <trkpt lat="45.22408" lon="5.7468">
        <ele>685</ele>
        <time>2021-10-16T05:46:24.000Z</time>
      </trkpt>
      <trkpt lat="45.22407" lon="5.74684">
        <ele>684.59997558594</ele>
        <time>2021-10-16T05:46:26.000Z</time>
      </trkpt>
      <trkpt lat="45.22407" lon="5.74685">
        <ele>684.40002441406</ele>
        <time>2021-10-16T05:46:27.000Z</time>
      </trkpt>
      <trkpt lat="45.22408" lon="5.74689">
        <ele>683.20001220703</ele>
        <time>2021-10-16T05:46:29.000Z</time>
      </trkpt>
      <trkpt lat="45.2241" lon="5.74692">
        <ele>682.40002441406</ele>
        <time>2021-10-16T05:46:32.000Z</time>
      </trkpt>
      <trkpt lat="45.2241" lon="5.74693">
        <ele>681.59997558594</ele>
        <time>2021-10-16T05:46:33.000Z</time>
      </trkpt>
      <trkpt lat="45.2241" lon="5.74694">
        <ele>681.20001220703</ele>
        <time>2021-10-16T05:46:34.000Z</time>
      </trkpt>
      <trkpt lat="45.22411" lon="5.74695">
        <ele>680</ele>
        <time>2021-10-16T05:46:36.000Z</time>
      </trkpt>
      <trkpt lat="45.22413" lon="5.74698">
        <ele>679.40002441406</ele>
        <time>2021-10-16T05:46:38.000Z</time>
      </trkpt>
      <trkpt lat="45.22414" lon="5.74698">
        <ele>678.79998779297</ele>
        <time>2021-10-16T05:46:39.000Z</time>
      </trkpt>
      <trkpt lat="45.22417" lon="5.74701">
        <ele>677.79998779297</ele>
        <time>2021-10-16T05:46:42.000Z</time>
      </trkpt>
      <trkpt lat="45.22418" lon="5.74702">
        <ele>677.20001220703</ele>
        <time>2021-10-16T05:46:43.000Z</time>
      </trkpt>
      <trkpt lat="45.22418" lon="5.74704">
        <ele>676.79998779297</ele>
        <time>2021-10-16T05:46:44.000Z</time>
      </trkpt>
      <trkpt lat="45.22419" lon="5.74711">
        <ele>675</ele>
        <time>2021-10-16T05:46:47.000Z</time>
      </trkpt>
      <trkpt lat="45.22417" lon="5.74719">
        <ele>673.40002441406</ele>
        <time>2021-10-16T05:46:51.000Z</time>
      </trkpt>
      <trkpt lat="45.22416" lon="5.74721">
        <ele>673.20001220703</ele>
        <time>2021-10-16T05:46:52.000Z</time>
      </trkpt>
      <trkpt lat="45.22415" lon="5.74722">
        <ele>672.20001220703</ele>
        <time>2021-10-16T05:46:53.000Z</time>
      </trkpt>
      <trkpt lat="45.22411" lon="5.74725">
        <ele>671.40002441406</ele>
        <time>2021-10-16T05:46:57.000Z</time>
      </trkpt>
      <trkpt lat="45.22409" lon="5.74726">
        <ele>670.59997558594</ele>
        <time>2021-10-16T05:46:58.000Z</time>
      </trkpt>
      <trkpt lat="45.22406" lon="5.74728">
        <ele>669</ele>
        <time>2021-10-16T05:47:01.000Z</time>
      </trkpt>
      <trkpt lat="45.22405" lon="5.74729">
        <ele>668.79998779297</ele>
        <time>2021-10-16T05:47:02.000Z</time>
      </trkpt>
      <trkpt lat="45.22403" lon="5.74733">
        <ele>667.79998779297</ele>
        <time>2021-10-16T05:47:04.000Z</time>
      </trkpt>
      <trkpt lat="45.22401" lon="5.74737">
        <ele>666.79998779297</ele>
        <time>2021-10-16T05:47:06.000Z</time>
      </trkpt>
      <trkpt lat="45.22398" lon="5.74743">
        <ele>665.59997558594</ele>
        <time>2021-10-16T05:47:09.000Z</time>
      </trkpt>
      <trkpt lat="45.22395" lon="5.74748">
        <ele>664.59997558594</ele>
        <time>2021-10-16T05:47:12.000Z</time>
      </trkpt>
      <trkpt lat="45.22391" lon="5.74756">
        <ele>662.79998779297</ele>
        <time>2021-10-16T05:47:16.000Z</time>
      </trkpt>
      <trkpt lat="45.22388" lon="5.74761">
        <ele>662</ele>
        <time>2021-10-16T05:47:19.000Z</time>
      </trkpt>
      <trkpt lat="45.22387" lon="5.74762">
        <ele>661.59997558594</ele>
        <time>2021-10-16T05:47:20.000Z</time>
      </trkpt>
      <trkpt lat="45.22385" lon="5.74768">
        <ele>660.20001220703</ele>
        <time>2021-10-16T05:47:23.000Z</time>
      </trkpt>
      <trkpt lat="45.22382" lon="5.74773">
        <ele>659</ele>
        <time>2021-10-16T05:47:25.000Z</time>
      </trkpt>
      <trkpt lat="45.22381" lon="5.74775">
        <ele>658.79998779297</ele>
        <time>2021-10-16T05:47:26.000Z</time>
      </trkpt>
      <trkpt lat="45.22378" lon="5.74778">
        <ele>658</ele>
        <time>2021-10-16T05:47:28.000Z</time>
      </trkpt>
      <trkpt lat="45.22377" lon="5.74782">
        <ele>657.20001220703</ele>
        <time>2021-10-16T05:47:30.000Z</time>
      </trkpt>
      <trkpt lat="45.22376" lon="5.74784">
        <ele>657.20001220703</ele>
        <time>2021-10-16T05:47:31.000Z</time>
      </trkpt>
      <trkpt lat="45.22374" lon="5.74786">
        <ele>656.40002441406</ele>
        <time>2021-10-16T05:47:32.000Z</time>
      </trkpt>
      <trkpt lat="45.22371" lon="5.74791">
        <ele>655</ele>
        <time>2021-10-16T05:47:35.000Z</time>
      </trkpt>
      <trkpt lat="45.22369" lon="5.74793">
        <ele>654.20001220703</ele>
        <time>2021-10-16T05:47:37.000Z</time>
      </trkpt>
      <trkpt lat="45.22368" lon="5.74795">
        <ele>653.79998779297</ele>
        <time>2021-10-16T05:47:38.000Z</time>
      </trkpt>
      <trkpt lat="45.22363" lon="5.748">
        <ele>652.59997558594</ele>
        <time>2021-10-16T05:47:41.000Z</time>
      </trkpt>
      <trkpt lat="45.2236" lon="5.74803">
        <ele>651.59997558594</ele>
        <time>2021-10-16T05:47:43.000Z</time>
      </trkpt>
      <trkpt lat="45.22356" lon="5.74806">
        <ele>650.59997558594</ele>
        <time>2021-10-16T05:47:46.000Z</time>
      </trkpt>
      <trkpt lat="45.22354" lon="5.74809">
        <ele>649.40002441406</ele>
        <time>2021-10-16T05:47:47.000Z</time>
      </trkpt>
      <trkpt lat="45.22351" lon="5.74813">
        <ele>648.79998779297</ele>
        <time>2021-10-16T05:47:50.000Z</time>
      </trkpt>
      <trkpt lat="45.2235" lon="5.74814">
        <ele>648</ele>
        <time>2021-10-16T05:47:51.000Z</time>
      </trkpt>
      <trkpt lat="45.22344" lon="5.74818">
        <ele>647</ele>
        <time>2021-10-16T05:47:54.000Z</time>
      </trkpt>
      <trkpt lat="45.2234" lon="5.74822">
        <ele>645.40002441406</ele>
        <time>2021-10-16T05:47:57.000Z</time>
      </trkpt>
      <trkpt lat="45.22338" lon="5.74823">
        <ele>644.79998779297</ele>
        <time>2021-10-16T05:47:59.000Z</time>
      </trkpt>
      <trkpt lat="45.22337" lon="5.74825">
        <ele>644.20001220703</ele>
        <time>2021-10-16T05:48:00.000Z</time>
      </trkpt>
      <trkpt lat="45.22336" lon="5.74826">
        <ele>644.20001220703</ele>
        <time>2021-10-16T05:48:01.000Z</time>
      </trkpt>
      <trkpt lat="45.22334" lon="5.74828">
        <ele>643.40002441406</ele>
        <time>2021-10-16T05:48:03.000Z</time>
      </trkpt>
      <trkpt lat="45.22333" lon="5.74829">
        <ele>643.20001220703</ele>
        <time>2021-10-16T05:48:04.000Z</time>
      </trkpt>
      <trkpt lat="45.22334" lon="5.7483">
        <ele>643.20001220703</ele>
        <time>2021-10-16T05:48:05.000Z</time>
      </trkpt>
      <trkpt lat="45.22335" lon="5.74831">
        <ele>641.59997558594</ele>
        <time>2021-10-16T05:48:07.000Z</time>
      </trkpt>
      <trkpt lat="45.22337" lon="5.74833">
        <ele>640.40002441406</ele>
        <time>2021-10-16T05:48:09.000Z</time>
      </trkpt>
      <trkpt lat="45.22339" lon="5.74835">
        <ele>639.79998779297</ele>
        <time>2021-10-16T05:48:12.000Z</time>
      </trkpt>
      <trkpt lat="45.22341" lon="5.74837">
        <ele>639</ele>
        <time>2021-10-16T05:48:13.000Z</time>
      </trkpt>
      <trkpt lat="45.22344" lon="5.74841">
        <ele>637.40002441406</ele>
        <time>2021-10-16T05:48:16.000Z</time>
      </trkpt>
      <trkpt lat="45.22344" lon="5.74842">
        <ele>637.20001220703</ele>
        <time>2021-10-16T05:48:17.000Z</time>
      </trkpt>
      <trkpt lat="45.22345" lon="5.74847">
        <ele>636</ele>
        <time>2021-10-16T05:48:20.000Z</time>
      </trkpt>
      <trkpt lat="45.22346" lon="5.74849">
        <ele>635.59997558594</ele>
        <time>2021-10-16T05:48:21.000Z</time>
      </trkpt>
      <trkpt lat="45.22346" lon="5.74852">
        <ele>634.59997558594</ele>
        <time>2021-10-16T05:48:22.000Z</time>
      </trkpt>
      <trkpt lat="45.22345" lon="5.74858">
        <ele>634</ele>
        <time>2021-10-16T05:48:25.000Z</time>
      </trkpt>
      <trkpt lat="45.22345" lon="5.7486">
        <ele>633.40002441406</ele>
        <time>2021-10-16T05:48:26.000Z</time>
      </trkpt>
      <trkpt lat="45.22346" lon="5.74863">
        <ele>632.20001220703</ele>
        <time>2021-10-16T05:48:28.000Z</time>
      </trkpt>
      <trkpt lat="45.2235" lon="5.74871">
        <ele>630.59997558594</ele>
        <time>2021-10-16T05:48:31.000Z</time>
      </trkpt>
      <trkpt lat="45.22353" lon="5.74879">
        <ele>629.59997558594</ele>
        <time>2021-10-16T05:48:34.000Z</time>
      </trkpt>
      <trkpt lat="45.22354" lon="5.74881">
        <ele>629</ele>
        <time>2021-10-16T05:48:35.000Z</time>
      </trkpt>
      <trkpt lat="45.22357" lon="5.7489">
        <ele>628</ele>
        <time>2021-10-16T05:48:38.000Z</time>
      </trkpt>
      <trkpt lat="45.22358" lon="5.74895">
        <ele>626.79998779297</ele>
        <time>2021-10-16T05:48:40.000Z</time>
      </trkpt>
      <trkpt lat="45.2236" lon="5.74903">
        <ele>625.59997558594</ele>
        <time>2021-10-16T05:48:43.000Z</time>
      </trkpt>
      <trkpt lat="45.22361" lon="5.74911">
        <ele>624.20001220703</ele>
        <time>2021-10-16T05:48:46.000Z</time>
      </trkpt>
      <trkpt lat="45.2236" lon="5.74914">
        <ele>623.40002441406</ele>
        <time>2021-10-16T05:48:47.000Z</time>
      </trkpt>
      <trkpt lat="45.2236" lon="5.74916">
        <ele>623.40002441406</ele>
        <time>2021-10-16T05:48:48.000Z</time>
      </trkpt>
      <trkpt lat="45.22359" lon="5.74919">
        <ele>622.59997558594</ele>
        <time>2021-10-16T05:48:49.000Z</time>
      </trkpt>
      <trkpt lat="45.22358" lon="5.74926">
        <ele>621.59997558594</ele>
        <time>2021-10-16T05:48:52.000Z</time>
      </trkpt>
      <trkpt lat="45.22357" lon="5.74928">
        <ele>620.79998779297</ele>
        <time>2021-10-16T05:48:53.000Z</time>
      </trkpt>
      <trkpt lat="45.22357" lon="5.74931">
        <ele>620</ele>
        <time>2021-10-16T05:48:54.000Z</time>
      </trkpt>
      <trkpt lat="45.22356" lon="5.74936">
        <ele>619</ele>
        <time>2021-10-16T05:48:56.000Z</time>
      </trkpt>
      <trkpt lat="45.22355" lon="5.74942">
        <ele>617.79998779297</ele>
        <time>2021-10-16T05:48:58.000Z</time>
      </trkpt>
      <trkpt lat="45.22354" lon="5.74949">
        <ele>616.79998779297</ele>
        <time>2021-10-16T05:49:01.000Z</time>
      </trkpt>
      <trkpt lat="45.22355" lon="5.74954">
        <ele>615.59997558594</ele>
        <time>2021-10-16T05:49:03.000Z</time>
      </trkpt>
      <trkpt lat="45.22356" lon="5.74959">
        <ele>614.79998779297</ele>
        <time>2021-10-16T05:49:05.000Z</time>
      </trkpt>
      <trkpt lat="45.22357" lon="5.74962">
        <ele>614.40002441406</ele>
        <time>2021-10-16T05:49:06.000Z</time>
      </trkpt>
      <trkpt lat="45.22358" lon="5.74968">
        <ele>613</ele>
        <time>2021-10-16T05:49:08.000Z</time>
      </trkpt>
      <trkpt lat="45.22357" lon="5.7498">
        <ele>611.79998779297</ele>
        <time>2021-10-16T05:49:12.000Z</time>
      </trkpt>
      <trkpt lat="45.22357" lon="5.7498">
        <ele>611.59997558594</ele>
        <time>2021-10-16T05:49:13.000Z</time>
      </trkpt>
      <trkpt lat="45.22357" lon="5.74976">
        <ele>611.40002441406</ele>
        <time>2021-10-16T05:49:15.000Z</time>
      </trkpt>
      <trkpt lat="45.22354" lon="5.74965">
        <ele>611.59997558594</ele>
        <time>2021-10-16T05:49:22.000Z</time>
      </trkpt>
      <trkpt lat="45.22353" lon="5.74958">
        <ele>613.40002441406</ele>
        <time>2021-10-16T05:49:27.000Z</time>
      </trkpt>
      <trkpt lat="45.22353" lon="5.74954">
        <ele>614</ele>
        <time>2021-10-16T05:49:30.000Z</time>
      </trkpt>
      <trkpt lat="45.22352" lon="5.7495">
        <ele>614.59997558594</ele>
        <time>2021-10-16T05:49:32.000Z</time>
      </trkpt>
      <trkpt lat="45.22353" lon="5.74946">
        <ele>615.79998779297</ele>
        <time>2021-10-16T05:49:35.000Z</time>
      </trkpt>
      <trkpt lat="45.22353" lon="5.74943">
        <ele>616.20001220703</ele>
        <time>2021-10-16T05:49:37.000Z</time>
      </trkpt>
      <trkpt lat="45.22353" lon="5.7494">
        <ele>616.79998779297</ele>
        <time>2021-10-16T05:49:39.000Z</time>
      </trkpt>
      <trkpt lat="45.22353" lon="5.74936">
        <ele>618</ele>
        <time>2021-10-16T05:49:41.000Z</time>
      </trkpt>
      <trkpt lat="45.22353" lon="5.74932">
        <ele>618.20001220703</ele>
        <time>2021-10-16T05:49:43.000Z</time>
      </trkpt>
      <trkpt lat="45.22354" lon="5.74929">
        <ele>619.20001220703</ele>
        <time>2021-10-16T05:49:45.000Z</time>
      </trkpt>
      <trkpt lat="45.22356" lon="5.74924">
        <ele>620</ele>
        <time>2021-10-16T05:49:49.000Z</time>
      </trkpt>
      <trkpt lat="45.22356" lon="5.74922">
        <ele>620.40002441406</ele>
        <time>2021-10-16T05:49:50.000Z</time>
      </trkpt>
      <trkpt lat="45.22358" lon="5.7492">
        <ele>621.20001220703</ele>
        <time>2021-10-16T05:49:52.000Z</time>
      </trkpt>
      <trkpt lat="45.22358" lon="5.74918">
        <ele>621.59997558594</ele>
        <time>2021-10-16T05:49:53.000Z</time>
      </trkpt>
      <trkpt lat="45.22358" lon="5.74913">
        <ele>622.40002441406</ele>
        <time>2021-10-16T05:49:56.000Z</time>
      </trkpt>
      <trkpt lat="45.22359" lon="5.74911">
        <ele>622.59997558594</ele>
        <time>2021-10-16T05:49:57.000Z</time>
      </trkpt>
      <trkpt lat="45.22359" lon="5.74908">
        <ele>623.40002441406</ele>
        <time>2021-10-16T05:49:59.000Z</time>
      </trkpt>
      <trkpt lat="45.2236" lon="5.74904">
        <ele>623.79998779297</ele>
        <time>2021-10-16T05:50:02.000Z</time>
      </trkpt>
      <trkpt lat="45.22359" lon="5.74903">
        <ele>624.40002441406</ele>
        <time>2021-10-16T05:50:03.000Z</time>
      </trkpt>
      <trkpt lat="45.22358" lon="5.74901">
        <ele>624.79998779297</ele>
        <time>2021-10-16T05:50:05.000Z</time>
      </trkpt>
      <trkpt lat="45.22357" lon="5.749">
        <ele>624.79998779297</ele>
        <time>2021-10-16T05:50:06.000Z</time>
      </trkpt>
      <trkpt lat="45.22356" lon="5.74897">
        <ele>625.20001220703</ele>
        <time>2021-10-16T05:50:08.000Z</time>
      </trkpt>
      <trkpt lat="45.22355" lon="5.74894">
        <ele>626</ele>
        <time>2021-10-16T05:50:10.000Z</time>
      </trkpt>
      <trkpt lat="45.22353" lon="5.74889">
        <ele>626.59997558594</ele>
        <time>2021-10-16T05:50:13.000Z</time>
      </trkpt>
      <trkpt lat="45.22352" lon="5.74888">
        <ele>627</ele>
        <time>2021-10-16T05:50:14.000Z</time>
      </trkpt>
      <trkpt lat="45.22349" lon="5.74881">
        <ele>628.20001220703</ele>
        <time>2021-10-16T05:50:19.000Z</time>
      </trkpt>
      <trkpt lat="45.22347" lon="5.74877">
        <ele>629.40002441406</ele>
        <time>2021-10-16T05:50:22.000Z</time>
      </trkpt>
      <trkpt lat="45.22346" lon="5.74874">
        <ele>630</ele>
        <time>2021-10-16T05:50:24.000Z</time>
      </trkpt>
      <trkpt lat="45.22345" lon="5.74872">
        <ele>630.40002441406</ele>
        <time>2021-10-16T05:50:26.000Z</time>
      </trkpt>
      <trkpt lat="45.22342" lon="5.74867">
        <ele>631.20001220703</ele>
        <time>2021-10-16T05:50:30.000Z</time>
      </trkpt>
      <trkpt lat="45.22342" lon="5.74866">
        <ele>631.59997558594</ele>
        <time>2021-10-16T05:50:31.000Z</time>
      </trkpt>
      <trkpt lat="45.22341" lon="5.74864">
        <ele>632.20001220703</ele>
        <time>2021-10-16T05:50:33.000Z</time>
      </trkpt>
      <trkpt lat="45.2234" lon="5.74863">
        <ele>632.79998779297</ele>
        <time>2021-10-16T05:50:34.000Z</time>
      </trkpt>
      <trkpt lat="45.22341" lon="5.74862">
        <ele>632.79998779297</ele>
        <time>2021-10-16T05:50:35.000Z</time>
      </trkpt>
      <trkpt lat="45.22341" lon="5.7486">
        <ele>633.40002441406</ele>
        <time>2021-10-16T05:50:37.000Z</time>
      </trkpt>
      <trkpt lat="45.22341" lon="5.74859">
        <ele>633.40002441406</ele>
        <time>2021-10-16T05:50:38.000Z</time>
      </trkpt>
      <trkpt lat="45.22342" lon="5.74858">
        <ele>633.59997558594</ele>
        <time>2021-10-16T05:50:39.000Z</time>
      </trkpt>
      <trkpt lat="45.22342" lon="5.74858">
        <ele>634</ele>
        <time>2021-10-16T05:50:40.000Z</time>
      </trkpt>
      <trkpt lat="45.22341" lon="5.74855">
        <ele>634.59997558594</ele>
        <time>2021-10-16T05:50:43.000Z</time>
      </trkpt>
      <trkpt lat="45.22342" lon="5.74854">
        <ele>635</ele>
        <time>2021-10-16T05:50:44.000Z</time>
      </trkpt>
      <trkpt lat="45.2234" lon="5.7485">
        <ele>635.79998779297</ele>
        <time>2021-10-16T05:50:48.000Z</time>
      </trkpt>
      <trkpt lat="45.2234" lon="5.74849">
        <ele>636</ele>
        <time>2021-10-16T05:50:49.000Z</time>
      </trkpt>
      <trkpt lat="45.22339" lon="5.74849">
        <ele>636.59997558594</ele>
        <time>2021-10-16T05:50:50.000Z</time>
      </trkpt>
      <trkpt lat="45.22339" lon="5.74848">
        <ele>637</ele>
        <time>2021-10-16T05:50:52.000Z</time>
      </trkpt>
      <trkpt lat="45.22338" lon="5.74847">
        <ele>637.59997558594</ele>
        <time>2021-10-16T05:50:53.000Z</time>
      </trkpt>
      <trkpt lat="45.22338" lon="5.74845">
        <ele>637.59997558594</ele>
        <time>2021-10-16T05:50:55.000Z</time>
      </trkpt>
      <trkpt lat="45.22338" lon="5.74845">
        <ele>638</ele>
        <time>2021-10-16T05:50:56.000Z</time>
      </trkpt>
      <trkpt lat="45.22335" lon="5.74842">
        <ele>638.79998779297</ele>
        <time>2021-10-16T05:50:59.000Z</time>
      </trkpt>
      <trkpt lat="45.22334" lon="5.74841">
        <ele>639.20001220703</ele>
        <time>2021-10-16T05:51:00.000Z</time>
      </trkpt>
      <trkpt lat="45.22333" lon="5.74838">
        <ele>639.79998779297</ele>
        <time>2021-10-16T05:51:03.000Z</time>
      </trkpt>
      <trkpt lat="45.22332" lon="5.74836">
        <ele>641</ele>
        <time>2021-10-16T05:51:06.000Z</time>
      </trkpt>
      <trkpt lat="45.22332" lon="5.74835">
        <ele>641.20001220703</ele>
        <time>2021-10-16T05:51:07.000Z</time>
      </trkpt>
      <trkpt lat="45.22332" lon="5.74829">
        <ele>642</ele>
        <time>2021-10-16T05:51:11.000Z</time>
      </trkpt>
      <trkpt lat="45.22333" lon="5.74827">
        <ele>643</ele>
        <time>2021-10-16T05:51:13.000Z</time>
      </trkpt>
      <trkpt lat="45.22333" lon="5.74826">
        <ele>643</ele>
        <time>2021-10-16T05:51:14.000Z</time>
      </trkpt>
      <trkpt lat="45.22334" lon="5.74825">
        <ele>643.20001220703</ele>
        <time>2021-10-16T05:51:15.000Z</time>
      </trkpt>
      <trkpt lat="45.22337" lon="5.74824">
        <ele>643.59997558594</ele>
        <time>2021-10-16T05:51:18.000Z</time>
      </trkpt>
      <trkpt lat="45.22339" lon="5.74823">
        <ele>644.20001220703</ele>
        <time>2021-10-16T05:51:20.000Z</time>
      </trkpt>
      <trkpt lat="45.22343" lon="5.74819">
        <ele>645.20001220703</ele>
        <time>2021-10-16T05:51:24.000Z</time>
      </trkpt>
      <trkpt lat="45.22344" lon="5.74816">
        <ele>645.59997558594</ele>
        <time>2021-10-16T05:51:27.000Z</time>
      </trkpt>
      <trkpt lat="45.22345" lon="5.74814">
        <ele>646.59997558594</ele>
        <time>2021-10-16T05:51:29.000Z</time>
      </trkpt>
      <trkpt lat="45.22347" lon="5.74813">
        <ele>647.20001220703</ele>
        <time>2021-10-16T05:51:31.000Z</time>
      </trkpt>
      <trkpt lat="45.22348" lon="5.74812">
        <ele>647.20001220703</ele>
        <time>2021-10-16T05:51:33.000Z</time>
      </trkpt>
      <trkpt lat="45.22349" lon="5.74811">
        <ele>647.79998779297</ele>
        <time>2021-10-16T05:51:35.000Z</time>
      </trkpt>
      <trkpt lat="45.22351" lon="5.7481">
        <ele>648.59997558594</ele>
        <time>2021-10-16T05:51:37.000Z</time>
      </trkpt>
      <trkpt lat="45.22353" lon="5.7481">
        <ele>648.59997558594</ele>
        <time>2021-10-16T05:51:38.000Z</time>
      </trkpt>
      <trkpt lat="45.22354" lon="5.74809">
        <ele>648.79998779297</ele>
        <time>2021-10-16T05:51:39.000Z</time>
      </trkpt>
      <trkpt lat="45.22355" lon="5.74809">
        <ele>649</ele>
        <time>2021-10-16T05:51:40.000Z</time>
      </trkpt>
      <trkpt lat="45.22357" lon="5.74809">
        <ele>649.79998779297</ele>
        <time>2021-10-16T05:51:42.000Z</time>
      </trkpt>
      <trkpt lat="45.22357" lon="5.74808">
        <ele>650.20001220703</ele>
        <time>2021-10-16T05:51:43.000Z</time>
      </trkpt>
      <trkpt lat="45.22358" lon="5.74807">
        <ele>650.40002441406</ele>
        <time>2021-10-16T05:51:44.000Z</time>
      </trkpt>
      <trkpt lat="45.2236" lon="5.74806">
        <ele>651</ele>
        <time>2021-10-16T05:51:47.000Z</time>
      </trkpt>
      <trkpt lat="45.22361" lon="5.74805">
        <ele>651.59997558594</ele>
        <time>2021-10-16T05:51:48.000Z</time>
      </trkpt>
      <trkpt lat="45.22364" lon="5.74804">
        <ele>652.20001220703</ele>
        <time>2021-10-16T05:51:51.000Z</time>
      </trkpt>
      <trkpt lat="45.22365" lon="5.74802">
        <ele>653</ele>
        <time>2021-10-16T05:51:53.000Z</time>
      </trkpt>
      <trkpt lat="45.22366" lon="5.74802">
        <ele>653.59997558594</ele>
        <time>2021-10-16T05:51:55.000Z</time>
      </trkpt>
      <trkpt lat="45.22367" lon="5.74802">
        <ele>654</ele>
        <time>2021-10-16T05:51:57.000Z</time>
      </trkpt>
      <trkpt lat="45.22369" lon="5.74799">
        <ele>654.40002441406</ele>
        <time>2021-10-16T05:52:00.000Z</time>
      </trkpt>
      <trkpt lat="45.2237" lon="5.74796">
        <ele>655</ele>
        <time>2021-10-16T05:52:02.000Z</time>
      </trkpt>
      <trkpt lat="45.2237" lon="5.74795">
        <ele>655.40002441406</ele>
        <time>2021-10-16T05:52:03.000Z</time>
      </trkpt>
      <trkpt lat="45.22371" lon="5.74791">
        <ele>655.79998779297</ele>
        <time>2021-10-16T05:52:05.000Z</time>
      </trkpt>
      <trkpt lat="45.22372" lon="5.7479">
        <ele>656</ele>
        <time>2021-10-16T05:52:06.000Z</time>
      </trkpt>
      <trkpt lat="45.22374" lon="5.74788">
        <ele>657</ele>
        <time>2021-10-16T05:52:10.000Z</time>
      </trkpt>
      <trkpt lat="45.22375" lon="5.74787">
        <ele>657.20001220703</ele>
        <time>2021-10-16T05:52:11.000Z</time>
      </trkpt>
      <trkpt lat="45.22377" lon="5.74786">
        <ele>657.59997558594</ele>
        <time>2021-10-16T05:52:12.000Z</time>
      </trkpt>
      <trkpt lat="45.22377" lon="5.74782">
        <ele>657.79998779297</ele>
        <time>2021-10-16T05:52:14.000Z</time>
      </trkpt>
      <trkpt lat="45.22379" lon="5.74779">
        <ele>658.20001220703</ele>
        <time>2021-10-16T05:52:17.000Z</time>
      </trkpt>
      <trkpt lat="45.2238" lon="5.74777">
        <ele>659</ele>
        <time>2021-10-16T05:52:19.000Z</time>
      </trkpt>
      <trkpt lat="45.22382" lon="5.74776">
        <ele>659.20001220703</ele>
        <time>2021-10-16T05:52:20.000Z</time>
      </trkpt>
      <trkpt lat="45.22383" lon="5.74775">
        <ele>659.40002441406</ele>
        <time>2021-10-16T05:52:21.000Z</time>
      </trkpt>
      <trkpt lat="45.22385" lon="5.74773">
        <ele>660</ele>
        <time>2021-10-16T05:52:24.000Z</time>
      </trkpt>
      <trkpt lat="45.22386" lon="5.74772">
        <ele>660.59997558594</ele>
        <time>2021-10-16T05:52:25.000Z</time>
      </trkpt>
      <trkpt lat="45.2239" lon="5.74767">
        <ele>661.59997558594</ele>
        <time>2021-10-16T05:52:30.000Z</time>
      </trkpt>
      <trkpt lat="45.22391" lon="5.74766">
        <ele>661.79998779297</ele>
        <time>2021-10-16T05:52:31.000Z</time>
      </trkpt>
      <trkpt lat="45.22394" lon="5.74762">
        <ele>662.79998779297</ele>
        <time>2021-10-16T05:52:34.000Z</time>
      </trkpt>
      <trkpt lat="45.22399" lon="5.74755">
        <ele>664</ele>
        <time>2021-10-16T05:52:39.000Z</time>
      </trkpt>
      <trkpt lat="45.224" lon="5.74752">
        <ele>664.40002441406</ele>
        <time>2021-10-16T05:52:40.000Z</time>
      </trkpt>
      <trkpt lat="45.224" lon="5.74751">
        <ele>665</ele>
        <time>2021-10-16T05:52:41.000Z</time>
      </trkpt>
      <trkpt lat="45.22402" lon="5.74747">
        <ele>666.20001220703</ele>
        <time>2021-10-16T05:52:45.000Z</time>
      </trkpt>
      <trkpt lat="45.22404" lon="5.74744">
        <ele>666.40002441406</ele>
        <time>2021-10-16T05:52:48.000Z</time>
      </trkpt>
      <trkpt lat="45.22404" lon="5.74743">
        <ele>667.20001220703</ele>
        <time>2021-10-16T05:52:49.000Z</time>
      </trkpt>
      <trkpt lat="45.22404" lon="5.74743">
        <ele>667.20001220703</ele>
        <time>2021-10-16T05:52:50.000Z</time>
      </trkpt>
      <trkpt lat="45.22405" lon="5.74741">
        <ele>667.79998779297</ele>
        <time>2021-10-16T05:52:52.000Z</time>
      </trkpt>
      <trkpt lat="45.22406" lon="5.7474">
        <ele>668</ele>
        <time>2021-10-16T05:52:53.000Z</time>
      </trkpt>
      <trkpt lat="45.22407" lon="5.74738">
        <ele>668.20001220703</ele>
        <time>2021-10-16T05:52:54.000Z</time>
      </trkpt>
      <trkpt lat="45.22409" lon="5.74736">
        <ele>669.40002441406</ele>
        <time>2021-10-16T05:52:57.000Z</time>
      </trkpt>
      <trkpt lat="45.2241" lon="5.74736">
        <ele>669.59997558594</ele>
        <time>2021-10-16T05:52:58.000Z</time>
      </trkpt>
      <trkpt lat="45.22411" lon="5.74735">
        <ele>670.59997558594</ele>
        <time>2021-10-16T05:53:02.000Z</time>
      </trkpt>
      <trkpt lat="45.2241" lon="5.74735">
        <ele>671</ele>
        <time>2021-10-16T05:53:03.000Z</time>
      </trkpt>
      <trkpt lat="45.22412" lon="5.74733">
        <ele>671.40002441406</ele>
        <time>2021-10-16T05:53:05.000Z</time>
      </trkpt>
      <trkpt lat="45.22412" lon="5.74731">
        <ele>672</ele>
        <time>2021-10-16T05:53:07.000Z</time>
      </trkpt>
      <trkpt lat="45.22413" lon="5.74729">
        <ele>673</ele>
        <time>2021-10-16T05:53:09.000Z</time>
      </trkpt>
      <trkpt lat="45.22414" lon="5.74727">
        <ele>673</ele>
        <time>2021-10-16T05:53:10.000Z</time>
      </trkpt>
      <trkpt lat="45.22414" lon="5.74726">
        <ele>673.59997558594</ele>
        <time>2021-10-16T05:53:11.000Z</time>
      </trkpt>
      <trkpt lat="45.22415" lon="5.74724">
        <ele>674.40002441406</ele>
        <time>2021-10-16T05:53:13.000Z</time>
      </trkpt>
      <trkpt lat="45.22415" lon="5.74721">
        <ele>674.40002441406</ele>
        <time>2021-10-16T05:53:14.000Z</time>
      </trkpt>
      <trkpt lat="45.22415" lon="5.74714">
        <ele>675.20001220703</ele>
        <time>2021-10-16T05:53:17.000Z</time>
      </trkpt>
      <trkpt lat="45.22415" lon="5.74713">
        <ele>675.20001220703</ele>
        <time>2021-10-16T05:53:18.000Z</time>
      </trkpt>
      <trkpt lat="45.22415" lon="5.74712">
        <ele>675.59997558594</ele>
        <time>2021-10-16T05:53:19.000Z</time>
      </trkpt>
      <trkpt lat="45.22414" lon="5.74708">
        <ele>677</ele>
        <time>2021-10-16T05:53:22.000Z</time>
      </trkpt>
      <trkpt lat="45.22412" lon="5.74705">
        <ele>677.40002441406</ele>
        <time>2021-10-16T05:53:25.000Z</time>
      </trkpt>
      <trkpt lat="45.22411" lon="5.74704">
        <ele>678</ele>
        <time>2021-10-16T05:53:27.000Z</time>
      </trkpt>
      <trkpt lat="45.22409" lon="5.747">
        <ele>678.40002441406</ele>
        <time>2021-10-16T05:53:30.000Z</time>
      </trkpt>
      <trkpt lat="45.22407" lon="5.74699">
        <ele>679.40002441406</ele>
        <time>2021-10-16T05:53:33.000Z</time>
      </trkpt>
      <trkpt lat="45.22405" lon="5.74696">
        <ele>680</ele>
        <time>2021-10-16T05:53:36.000Z</time>
      </trkpt>
      <trkpt lat="45.22404" lon="5.74695">
        <ele>680.59997558594</ele>
        <time>2021-10-16T05:53:38.000Z</time>
      </trkpt>
      <trkpt lat="45.22404" lon="5.74692">
        <ele>681.40002441406</ele>
        <time>2021-10-16T05:53:40.000Z</time>
      </trkpt>
      <trkpt lat="45.22403" lon="5.74691">
        <ele>681.40002441406</ele>
        <time>2021-10-16T05:53:41.000Z</time>
      </trkpt>
      <trkpt lat="45.22403" lon="5.74689">
        <ele>681.79998779297</ele>
        <time>2021-10-16T05:53:42.000Z</time>
      </trkpt>
      <trkpt lat="45.22402" lon="5.74684">
        <ele>682.79998779297</ele>
        <time>2021-10-16T05:53:46.000Z</time>
      </trkpt>
      <trkpt lat="45.22402" lon="5.74681">
        <ele>683.40002441406</ele>
        <time>2021-10-16T05:53:48.000Z</time>
      </trkpt>
      <trkpt lat="45.22402" lon="5.7468">
        <ele>683.79998779297</ele>
        <time>2021-10-16T05:53:49.000Z</time>
      </trkpt>
      <trkpt lat="45.22403" lon="5.74678">
        <ele>684</ele>
        <time>2021-10-16T05:53:50.000Z</time>
      </trkpt>
      <trkpt lat="45.22403" lon="5.74676">
        <ele>684.40002441406</ele>
        <time>2021-10-16T05:53:52.000Z</time>
      </trkpt>
      <trkpt lat="45.22404" lon="5.74676">
        <ele>684.40002441406</ele>
        <time>2021-10-16T05:53:53.000Z</time>
      </trkpt>
      <trkpt lat="45.22406" lon="5.74677">
        <ele>685.20001220703</ele>
        <time>2021-10-16T05:53:55.000Z</time>
      </trkpt>
      <trkpt lat="45.2241" lon="5.7468">
        <ele>685.79998779297</ele>
        <time>2021-10-16T05:53:59.000Z</time>
      </trkpt>
      <trkpt lat="45.2241" lon="5.74681">
        <ele>685.79998779297</ele>
        <time>2021-10-16T05:54:00.000Z</time>
      </trkpt>
      <trkpt lat="45.2241" lon="5.74681">
        <ele>686.20001220703</ele>
        <time>2021-10-16T05:54:01.000Z</time>
      </trkpt>
      <trkpt lat="45.22411" lon="5.74682">
        <ele>686.40002441406</ele>
        <time>2021-10-16T05:54:02.000Z</time>
      </trkpt>
      <trkpt lat="45.22415" lon="5.74681">
        <ele>687.59997558594</ele>
        <time>2021-10-16T05:54:05.000Z</time>
      </trkpt>
      <trkpt lat="45.22416" lon="5.74681">
        <ele>687.79998779297</ele>
        <time>2021-10-16T05:54:06.000Z</time>
      </trkpt>
      <trkpt lat="45.22416" lon="5.74681">
        <ele>688.20001220703</ele>
        <time>2021-10-16T05:54:07.000Z</time>
      </trkpt>
      <trkpt lat="45.22418" lon="5.74681">
        <ele>688.59997558594</ele>
        <time>2021-10-16T05:54:09.000Z</time>
      </trkpt>
      <trkpt lat="45.22418" lon="5.74681">
        <ele>688.59997558594</ele>
        <time>2021-10-16T05:54:10.000Z</time>
      </trkpt>
      <trkpt lat="45.22419" lon="5.74682">
        <ele>689</ele>
        <time>2021-10-16T05:54:11.000Z</time>
      </trkpt>
      <trkpt lat="45.22419" lon="5.74682">
        <ele>689.79998779297</ele>
        <time>2021-10-16T05:54:14.000Z</time>
      </trkpt>
      <trkpt lat="45.2242" lon="5.74682">
        <ele>689.79998779297</ele>
        <time>2021-10-16T05:54:15.000Z</time>
      </trkpt>
      <trkpt lat="45.22423" lon="5.74679">
        <ele>690.59997558594</ele>
        <time>2021-10-16T05:54:18.000Z</time>
      </trkpt>
      <trkpt lat="45.22423" lon="5.74679">
        <ele>691</ele>
        <time>2021-10-16T05:54:19.000Z</time>
      </trkpt>
      <trkpt lat="45.22424" lon="5.7468">
        <ele>691.20001220703</ele>
        <time>2021-10-16T05:54:20.000Z</time>
      </trkpt>
      <trkpt lat="45.22426" lon="5.7468">
        <ele>692</ele>
        <time>2021-10-16T05:54:22.000Z</time>
      </trkpt>
      <trkpt lat="45.22429" lon="5.7468">
        <ele>692.59997558594</ele>
        <time>2021-10-16T05:54:25.000Z</time>
      </trkpt>
      <trkpt lat="45.22431" lon="5.74681">
        <ele>693</ele>
        <time>2021-10-16T05:54:27.000Z</time>
      </trkpt>
      <trkpt lat="45.22435" lon="5.74682">
        <ele>693.79998779297</ele>
        <time>2021-10-16T05:54:31.000Z</time>
      </trkpt>
      <trkpt lat="45.22437" lon="5.74683">
        <ele>694.40002441406</ele>
        <time>2021-10-16T05:54:33.000Z</time>
      </trkpt>
      <trkpt lat="45.22437" lon="5.74683">
        <ele>695</ele>
        <time>2021-10-16T05:54:34.000Z</time>
      </trkpt>
      <trkpt lat="45.22439" lon="5.74684">
        <ele>695.59997558594</ele>
        <time>2021-10-16T05:54:38.000Z</time>
      </trkpt>
      <trkpt lat="45.22441" lon="5.74685">
        <ele>695.79998779297</ele>
        <time>2021-10-16T05:54:40.000Z</time>
      </trkpt>
      <trkpt lat="45.22445" lon="5.74686">
        <ele>696.79998779297</ele>
        <time>2021-10-16T05:54:44.000Z</time>
      </trkpt>
      <trkpt lat="45.22445" lon="5.74687">
        <ele>697</ele>
        <time>2021-10-16T05:54:45.000Z</time>
      </trkpt>
      <trkpt lat="45.22447" lon="5.74688">
        <ele>698</ele>
        <time>2021-10-16T05:54:49.000Z</time>
      </trkpt>
      <trkpt lat="45.22448" lon="5.74689">
        <ele>698</ele>
        <time>2021-10-16T05:54:50.000Z</time>
      </trkpt>
      <trkpt lat="45.22453" lon="5.7469">
        <ele>699.40002441406</ele>
        <time>2021-10-16T05:54:55.000Z</time>
      </trkpt>
      <trkpt lat="45.22455" lon="5.74689">
        <ele>699.79998779297</ele>
        <time>2021-10-16T05:54:57.000Z</time>
      </trkpt>
      <trkpt lat="45.22457" lon="5.74689">
        <ele>700</ele>
        <time>2021-10-16T05:54:59.000Z</time>
      </trkpt>
      <trkpt lat="45.22458" lon="5.74689">
        <ele>700.20001220703</ele>
        <time>2021-10-16T05:55:00.000Z</time>
      </trkpt>
      <trkpt lat="45.2246" lon="5.74689">
        <ele>700.40002441406</ele>
        <time>2021-10-16T05:55:01.000Z</time>
      </trkpt>
      <trkpt lat="45.22465" lon="5.74689">
        <ele>701.40002441406</ele>
        <time>2021-10-16T05:55:05.000Z</time>
      </trkpt>
      <trkpt lat="45.22466" lon="5.74689">
        <ele>701.79998779297</ele>
        <time>2021-10-16T05:55:06.000Z</time>
      </trkpt>
      <trkpt lat="45.22472" lon="5.74686">
        <ele>702.79998779297</ele>
        <time>2021-10-16T05:55:11.000Z</time>
      </trkpt>
      <trkpt lat="45.22473" lon="5.74685">
        <ele>703.40002441406</ele>
        <time>2021-10-16T05:55:12.000Z</time>
      </trkpt>
      <trkpt lat="45.22477" lon="5.74683">
        <ele>704.20001220703</ele>
        <time>2021-10-16T05:55:16.000Z</time>
      </trkpt>
      <trkpt lat="45.22478" lon="5.74682">
        <ele>705</ele>
        <time>2021-10-16T05:55:17.000Z</time>
      </trkpt>
      <trkpt lat="45.22483" lon="5.74679">
        <ele>705.40002441406</ele>
        <time>2021-10-16T05:55:22.000Z</time>
      </trkpt>
      <trkpt lat="45.22485" lon="5.74678">
        <ele>705.79998779297</ele>
        <time>2021-10-16T05:55:23.000Z</time>
      </trkpt>
      <trkpt lat="45.22486" lon="5.74678">
        <ele>706.20001220703</ele>
        <time>2021-10-16T05:55:24.000Z</time>
      </trkpt>
      <trkpt lat="45.22487" lon="5.74677">
        <ele>706.79998779297</ele>
        <time>2021-10-16T05:55:25.000Z</time>
      </trkpt>
      <trkpt lat="45.22489" lon="5.74676">
        <ele>707.20001220703</ele>
        <time>2021-10-16T05:55:26.000Z</time>
      </trkpt>
      <trkpt lat="45.2249" lon="5.74676">
        <ele>707.20001220703</ele>
        <time>2021-10-16T05:55:27.000Z</time>
      </trkpt>
      <trkpt lat="45.22492" lon="5.74677">
        <ele>707.79998779297</ele>
        <time>2021-10-16T05:55:29.000Z</time>
      </trkpt>
      <trkpt lat="45.22494" lon="5.74677">
        <ele>708.40002441406</ele>
        <time>2021-10-16T05:55:30.000Z</time>
      </trkpt>
      <trkpt lat="45.22495" lon="5.74675">
        <ele>708.59997558594</ele>
        <time>2021-10-16T05:55:32.000Z</time>
      </trkpt>
      <trkpt lat="45.22495" lon="5.74673">
        <ele>708.79998779297</ele>
        <time>2021-10-16T05:55:34.000Z</time>
      </trkpt>
      <trkpt lat="45.22493" lon="5.74671">
        <ele>709.79998779297</ele>
        <time>2021-10-16T05:55:37.000Z</time>
      </trkpt>
      <trkpt lat="45.22493" lon="5.74671">
        <ele>709.79998779297</ele>
        <time>2021-10-16T05:55:38.000Z</time>
      </trkpt>
      <trkpt lat="45.22492" lon="5.7467">
        <ele>710.20001220703</ele>
        <time>2021-10-16T05:55:39.000Z</time>
      </trkpt>
      <trkpt lat="45.22491" lon="5.7467">
        <ele>711</ele>
        <time>2021-10-16T05:55:41.000Z</time>
      </trkpt>
      <trkpt lat="45.22489" lon="5.74669">
        <ele>711.40002441406</ele>
        <time>2021-10-16T05:55:44.000Z</time>
      </trkpt>
      <trkpt lat="45.22487" lon="5.74668">
        <ele>712</ele>
        <time>2021-10-16T05:55:47.000Z</time>
      </trkpt>
      <trkpt lat="45.22486" lon="5.74668">
        <ele>713.20001220703</ele>
        <time>2021-10-16T05:55:49.000Z</time>
      </trkpt>
      <trkpt lat="45.22486" lon="5.74668">
        <ele>713.20001220703</ele>
        <time>2021-10-16T05:55:50.000Z</time>
      </trkpt>
      <trkpt lat="45.22485" lon="5.74668">
        <ele>713.40002441406</ele>
        <time>2021-10-16T05:55:51.000Z</time>
      </trkpt>
      <trkpt lat="45.22484" lon="5.74666">
        <ele>714</ele>
        <time>2021-10-16T05:55:53.000Z</time>
      </trkpt>
      <trkpt lat="45.22483" lon="5.74665">
        <ele>714.40002441406</ele>
        <time>2021-10-16T05:55:54.000Z</time>
      </trkpt>
      <trkpt lat="45.22482" lon="5.74664">
        <ele>715</ele>
        <time>2021-10-16T05:55:56.000Z</time>
      </trkpt>
      <trkpt lat="45.22481" lon="5.74664">
        <ele>715.20001220703</ele>
        <time>2021-10-16T05:55:57.000Z</time>
      </trkpt>
      <trkpt lat="45.22479" lon="5.74663">
        <ele>715.59997558594</ele>
        <time>2021-10-16T05:56:00.000Z</time>
      </trkpt>
      <trkpt lat="45.22479" lon="5.74663">
        <ele>716.20001220703</ele>
        <time>2021-10-16T05:56:01.000Z</time>
      </trkpt>
      <trkpt lat="45.22478" lon="5.74662">
        <ele>716.40002441406</ele>
        <time>2021-10-16T05:56:02.000Z</time>
      </trkpt>
      <trkpt lat="45.22478" lon="5.74661">
        <ele>716.79998779297</ele>
        <time>2021-10-16T05:56:03.000Z</time>
      </trkpt>
      <trkpt lat="45.22478" lon="5.74659">
        <ele>717</ele>
        <time>2021-10-16T05:56:04.000Z</time>
      </trkpt>
      <trkpt lat="45.2248" lon="5.74655">
        <ele>718</ele>
        <time>2021-10-16T05:56:08.000Z</time>
      </trkpt>
      <trkpt lat="45.22481" lon="5.74655">
        <ele>718</ele>
        <time>2021-10-16T05:56:09.000Z</time>
      </trkpt>
      <trkpt lat="45.22483" lon="5.74655">
        <ele>718.40002441406</ele>
        <time>2021-10-16T05:56:12.000Z</time>
      </trkpt>
      <trkpt lat="45.22484" lon="5.74654">
        <ele>718.59997558594</ele>
        <time>2021-10-16T05:56:14.000Z</time>
      </trkpt>
      <trkpt lat="45.22486" lon="5.74651">
        <ele>719.20001220703</ele>
        <time>2021-10-16T05:56:17.000Z</time>
      </trkpt>
      <trkpt lat="45.2249" lon="5.74648">
        <ele>719.79998779297</ele>
        <time>2021-10-16T05:56:20.000Z</time>
      </trkpt>
      <trkpt lat="45.22492" lon="5.74647">
        <ele>720.59997558594</ele>
        <time>2021-10-16T05:56:23.000Z</time>
      </trkpt>
      <trkpt lat="45.22492" lon="5.74646">
        <ele>721</ele>
        <time>2021-10-16T05:56:24.000Z</time>
      </trkpt>
      <trkpt lat="45.22492" lon="5.74646">
        <ele>721</ele>
        <time>2021-10-16T05:56:25.000Z</time>
      </trkpt>
      <trkpt lat="45.22492" lon="5.74645">
        <ele>721.79998779297</ele>
        <time>2021-10-16T05:56:26.000Z</time>
      </trkpt>
      <trkpt lat="45.22492" lon="5.74644">
        <ele>721.79998779297</ele>
        <time>2021-10-16T05:56:27.000Z</time>
      </trkpt>
      <trkpt lat="45.22494" lon="5.74642">
        <ele>722.40002441406</ele>
        <time>2021-10-16T05:56:29.000Z</time>
      </trkpt>
      <trkpt lat="45.22495" lon="5.74641">
        <ele>722.59997558594</ele>
        <time>2021-10-16T05:56:31.000Z</time>
      </trkpt>
      <trkpt lat="45.22495" lon="5.74641">
        <ele>723.20001220703</ele>
        <time>2021-10-16T05:56:32.000Z</time>
      </trkpt>
      <trkpt lat="45.22495" lon="5.7464">
        <ele>723.40002441406</ele>
        <time>2021-10-16T05:56:33.000Z</time>
      </trkpt>
      <trkpt lat="45.22495" lon="5.74637">
        <ele>724</ele>
        <time>2021-10-16T05:56:35.000Z</time>
      </trkpt>
      <trkpt lat="45.22495" lon="5.74636">
        <ele>724.20001220703</ele>
        <time>2021-10-16T05:56:36.000Z</time>
      </trkpt>
      <trkpt lat="45.22494" lon="5.74635">
        <ele>724.79998779297</ele>
        <time>2021-10-16T05:56:37.000Z</time>
      </trkpt>
      <trkpt lat="45.22494" lon="5.74634">
        <ele>724.79998779297</ele>
        <time>2021-10-16T05:56:38.000Z</time>
      </trkpt>
      <trkpt lat="45.22493" lon="5.74632">
        <ele>725.20001220703</ele>
        <time>2021-10-16T05:56:40.000Z</time>
      </trkpt>
      <trkpt lat="45.22494" lon="5.74631">
        <ele>725.40002441406</ele>
        <time>2021-10-16T05:56:41.000Z</time>
      </trkpt>
      <trkpt lat="45.22494" lon="5.7463">
        <ele>725.40002441406</ele>
        <time>2021-10-16T05:56:42.000Z</time>
      </trkpt>
      <trkpt lat="45.22494" lon="5.74629">
        <ele>725.59997558594</ele>
        <time>2021-10-16T05:56:44.000Z</time>
      </trkpt>
      <trkpt lat="45.22492" lon="5.74626">
        <ele>726.59997558594</ele>
        <time>2021-10-16T05:56:48.000Z</time>
      </trkpt>
      <trkpt lat="45.22491" lon="5.74621">
        <ele>727.40002441406</ele>
        <time>2021-10-16T05:56:50.000Z</time>
      </trkpt>
      <trkpt lat="45.22491" lon="5.7462">
        <ele>727.79998779297</ele>
        <time>2021-10-16T05:56:51.000Z</time>
      </trkpt>
      <trkpt lat="45.22492" lon="5.74619">
        <ele>727.79998779297</ele>
        <time>2021-10-16T05:56:52.000Z</time>
      </trkpt>
      <trkpt lat="45.22494" lon="5.74616">
        <ele>728.79998779297</ele>
        <time>2021-10-16T05:56:55.000Z</time>
      </trkpt>
      <trkpt lat="45.22495" lon="5.74615">
        <ele>729</ele>
        <time>2021-10-16T05:56:56.000Z</time>
      </trkpt>
      <trkpt lat="45.22498" lon="5.74611">
        <ele>730.40002441406</ele>
        <time>2021-10-16T05:57:00.000Z</time>
      </trkpt>
      <trkpt lat="45.22498" lon="5.74611">
        <ele>730.59997558594</ele>
        <time>2021-10-16T05:57:01.000Z</time>
      </trkpt>
      <trkpt lat="45.22502" lon="5.74611">
        <ele>731</ele>
        <time>2021-10-16T05:57:06.000Z</time>
      </trkpt>
      <trkpt lat="45.22503" lon="5.74612">
        <ele>731.40002441406</ele>
        <time>2021-10-16T05:57:07.000Z</time>
      </trkpt>
      <trkpt lat="45.22504" lon="5.74612">
        <ele>731.40002441406</ele>
        <time>2021-10-16T05:57:08.000Z</time>
      </trkpt>
      <trkpt lat="45.22509" lon="5.74613">
        <ele>731.59997558594</ele>
        <time>2021-10-16T05:57:13.000Z</time>
      </trkpt>
      <trkpt lat="45.2251" lon="5.74614">
        <ele>732</ele>
        <time>2021-10-16T05:57:15.000Z</time>
      </trkpt>
      <trkpt lat="45.22512" lon="5.74615">
        <ele>732.20001220703</ele>
        <time>2021-10-16T05:57:18.000Z</time>
      </trkpt>
      <trkpt lat="45.22516" lon="5.74617">
        <ele>732.40002441406</ele>
        <time>2021-10-16T05:57:21.000Z</time>
      </trkpt>
      <trkpt lat="45.2252" lon="5.74617">
        <ele>732.59997558594</ele>
        <time>2021-10-16T05:57:25.000Z</time>
      </trkpt>
      <trkpt lat="45.22526" lon="5.74614">
        <ele>733</ele>
        <time>2021-10-16T05:57:30.000Z</time>
      </trkpt>
      <trkpt lat="45.22527" lon="5.74613">
        <ele>733.40002441406</ele>
        <time>2021-10-16T05:57:31.000Z</time>
      </trkpt>
      <trkpt lat="45.22528" lon="5.74611">
        <ele>733.59997558594</ele>
        <time>2021-10-16T05:57:32.000Z</time>
      </trkpt>
      <trkpt lat="45.2253" lon="5.74609">
        <ele>733.59997558594</ele>
        <time>2021-10-16T05:57:34.000Z</time>
      </trkpt>
      <trkpt lat="45.22532" lon="5.74606">
        <ele>734</ele>
        <time>2021-10-16T05:57:36.000Z</time>
      </trkpt>
      <trkpt lat="45.22534" lon="5.74605">
        <ele>734.59997558594</ele>
        <time>2021-10-16T05:57:38.000Z</time>
      </trkpt>
      <trkpt lat="45.22539" lon="5.74601">
        <ele>735.59997558594</ele>
        <time>2021-10-16T05:57:42.000Z</time>
      </trkpt>
      <trkpt lat="45.22542" lon="5.74596">
        <ele>735.40002441406</ele>
        <time>2021-10-16T05:57:46.000Z</time>
      </trkpt>
      <trkpt lat="45.22543" lon="5.74593">
        <ele>735.20001220703</ele>
        <time>2021-10-16T05:57:48.000Z</time>
      </trkpt>
      <trkpt lat="45.22542" lon="5.7459">
        <ele>735.40002441406</ele>
        <time>2021-10-16T05:57:50.000Z</time>
      </trkpt>
      <trkpt lat="45.22538" lon="5.74588">
        <ele>736.79998779297</ele>
        <time>2021-10-16T05:57:56.000Z</time>
      </trkpt>
      <trkpt lat="45.22538" lon="5.74587">
        <ele>737</ele>
        <time>2021-10-16T05:57:57.000Z</time>
      </trkpt>
      <trkpt lat="45.22537" lon="5.74586">
        <ele>737.79998779297</ele>
        <time>2021-10-16T05:57:59.000Z</time>
      </trkpt>
      <trkpt lat="45.22535" lon="5.74585">
        <ele>738.79998779297</ele>
        <time>2021-10-16T05:58:02.000Z</time>
      </trkpt>
      <trkpt lat="45.22534" lon="5.74584">
        <ele>738.79998779297</ele>
        <time>2021-10-16T05:58:03.000Z</time>
      </trkpt>
      <trkpt lat="45.22534" lon="5.74583">
        <ele>739.20001220703</ele>
        <time>2021-10-16T05:58:05.000Z</time>
      </trkpt>
      <trkpt lat="45.22533" lon="5.74582">
        <ele>739.59997558594</ele>
        <time>2021-10-16T05:58:06.000Z</time>
      </trkpt>
      <trkpt lat="45.22532" lon="5.74582">
        <ele>740</ele>
        <time>2021-10-16T05:58:07.000Z</time>
      </trkpt>
      <trkpt lat="45.22532" lon="5.74582">
        <ele>740.59997558594</ele>
        <time>2021-10-16T05:58:08.000Z</time>
      </trkpt>
      <trkpt lat="45.22531" lon="5.74581">
        <ele>741.20001220703</ele>
        <time>2021-10-16T05:58:10.000Z</time>
      </trkpt>
      <trkpt lat="45.22529" lon="5.7458">
        <ele>741.40002441406</ele>
        <time>2021-10-16T05:58:13.000Z</time>
      </trkpt>
      <trkpt lat="45.22528" lon="5.74578">
        <ele>742.20001220703</ele>
        <time>2021-10-16T05:58:16.000Z</time>
      </trkpt>
      <trkpt lat="45.22526" lon="5.74576">
        <ele>743.40002441406</ele>
        <time>2021-10-16T05:58:20.000Z</time>
      </trkpt>
      <trkpt lat="45.22524" lon="5.74573">
        <ele>744</ele>
        <time>2021-10-16T05:58:23.000Z</time>
      </trkpt>
      <trkpt lat="45.22522" lon="5.74569">
        <ele>744.40002441406</ele>
        <time>2021-10-16T05:58:27.000Z</time>
      </trkpt>
      <trkpt lat="45.22521" lon="5.74567">
        <ele>745</ele>
        <time>2021-10-16T05:58:29.000Z</time>
      </trkpt>
      <trkpt lat="45.22519" lon="5.74566">
        <ele>745.40002441406</ele>
        <time>2021-10-16T05:58:31.000Z</time>
      </trkpt>
      <trkpt lat="45.22515" lon="5.74565">
        <ele>745.79998779297</ele>
        <time>2021-10-16T05:58:35.000Z</time>
      </trkpt>
      <trkpt lat="45.22514" lon="5.74563">
        <ele>746</ele>
        <time>2021-10-16T05:58:36.000Z</time>
      </trkpt>
      <trkpt lat="45.22514" lon="5.74561">
        <ele>746.59997558594</ele>
        <time>2021-10-16T05:58:38.000Z</time>
      </trkpt>
      <trkpt lat="45.22513" lon="5.7456">
        <ele>747</ele>
        <time>2021-10-16T05:58:39.000Z</time>
      </trkpt>
      <trkpt lat="45.2251" lon="5.74558">
        <ele>747.40002441406</ele>
        <time>2021-10-16T05:58:41.000Z</time>
      </trkpt>
      <trkpt lat="45.22508" lon="5.74556">
        <ele>747.59997558594</ele>
        <time>2021-10-16T05:58:43.000Z</time>
      </trkpt>
      <trkpt lat="45.22503" lon="5.74549">
        <ele>748.40002441406</ele>
        <time>2021-10-16T05:58:48.000Z</time>
      </trkpt>
      <trkpt lat="45.22502" lon="5.74547">
        <ele>748.79998779297</ele>
        <time>2021-10-16T05:58:49.000Z</time>
      </trkpt>
      <trkpt lat="45.22497" lon="5.74537">
        <ele>749.40002441406</ele>
        <time>2021-10-16T05:58:54.000Z</time>
      </trkpt>
      <trkpt lat="45.22494" lon="5.74534">
        <ele>749.79998779297</ele>
        <time>2021-10-16T05:58:56.000Z</time>
      </trkpt>
      <trkpt lat="45.22493" lon="5.74532">
        <ele>750.40002441406</ele>
        <time>2021-10-16T05:58:59.000Z</time>
      </trkpt>
      <trkpt lat="45.22493" lon="5.7453">
        <ele>750.79998779297</ele>
        <time>2021-10-16T05:59:00.000Z</time>
      </trkpt>
      <trkpt lat="45.22492" lon="5.74529">
        <ele>751</ele>
        <time>2021-10-16T05:59:01.000Z</time>
      </trkpt>
      <trkpt lat="45.22491" lon="5.74528">
        <ele>751.20001220703</ele>
        <time>2021-10-16T05:59:03.000Z</time>
      </trkpt>
      <trkpt lat="45.2249" lon="5.74526">
        <ele>751.20001220703</ele>
        <time>2021-10-16T05:59:05.000Z</time>
      </trkpt>
      <trkpt lat="45.22489" lon="5.74525">
        <ele>751.59997558594</ele>
        <time>2021-10-16T05:59:06.000Z</time>
      </trkpt>
      <trkpt lat="45.22487" lon="5.74526">
        <ele>752.20001220703</ele>
        <time>2021-10-16T05:59:08.000Z</time>
      </trkpt>
      <trkpt lat="45.22483" lon="5.74524">
        <ele>752.79998779297</ele>
        <time>2021-10-16T05:59:11.000Z</time>
      </trkpt>
      <trkpt lat="45.22482" lon="5.74523">
        <ele>753</ele>
        <time>2021-10-16T05:59:13.000Z</time>
      </trkpt>
      <trkpt lat="45.22481" lon="5.74523">
        <ele>753.40002441406</ele>
        <time>2021-10-16T05:59:14.000Z</time>
      </trkpt>
      <trkpt lat="45.22479" lon="5.74524">
        <ele>753.40002441406</ele>
        <time>2021-10-16T05:59:15.000Z</time>
      </trkpt>
      <trkpt lat="45.22476" lon="5.74524">
        <ele>754.20001220703</ele>
        <time>2021-10-16T05:59:17.000Z</time>
      </trkpt>
      <trkpt lat="45.22475" lon="5.74525">
        <ele>754.40002441406</ele>
        <time>2021-10-16T05:59:18.000Z</time>
      </trkpt>
      <trkpt lat="45.22469" lon="5.74523">
        <ele>755.79998779297</ele>
        <time>2021-10-16T05:59:23.000Z</time>
      </trkpt>
      <trkpt lat="45.22469" lon="5.74522">
        <ele>756</ele>
        <time>2021-10-16T05:59:24.000Z</time>
      </trkpt>
      <trkpt lat="45.22468" lon="5.74521">
        <ele>757</ele>
        <time>2021-10-16T05:59:26.000Z</time>
      </trkpt>
      <trkpt lat="45.22466" lon="5.7452">
        <ele>757.20001220703</ele>
        <time>2021-10-16T05:59:28.000Z</time>
      </trkpt>
      <trkpt lat="45.22464" lon="5.74518">
        <ele>758</ele>
        <time>2021-10-16T05:59:31.000Z</time>
      </trkpt>
      <trkpt lat="45.22464" lon="5.74518">
        <ele>758</ele>
        <time>2021-10-16T05:59:32.000Z</time>
      </trkpt>
      <trkpt lat="45.22463" lon="5.74517">
        <ele>758.20001220703</ele>
        <time>2021-10-16T05:59:33.000Z</time>
      </trkpt>
      <trkpt lat="45.22459" lon="5.74515">
        <ele>759</ele>
        <time>2021-10-16T05:59:37.000Z</time>
      </trkpt>
      <trkpt lat="45.22459" lon="5.74514">
        <ele>759.20001220703</ele>
        <time>2021-10-16T05:59:38.000Z</time>
      </trkpt>
      <trkpt lat="45.22457" lon="5.74512">
        <ele>760</ele>
        <time>2021-10-16T05:59:40.000Z</time>
      </trkpt>
      <trkpt lat="45.22456" lon="5.7451">
        <ele>760.20001220703</ele>
        <time>2021-10-16T05:59:41.000Z</time>
      </trkpt>
      <trkpt lat="45.22456" lon="5.74509">
        <ele>760.59997558594</ele>
        <time>2021-10-16T05:59:42.000Z</time>
      </trkpt>
      <trkpt lat="45.22455" lon="5.74508">
        <ele>760.79998779297</ele>
        <time>2021-10-16T05:59:43.000Z</time>
      </trkpt>
      <trkpt lat="45.22454" lon="5.74504">
        <ele>761</ele>
        <time>2021-10-16T05:59:46.000Z</time>
      </trkpt>
      <trkpt lat="45.22454" lon="5.74501">
        <ele>761.20001220703</ele>
        <time>2021-10-16T05:59:48.000Z</time>
      </trkpt>
      <trkpt lat="45.22454" lon="5.74499">
        <ele>761.40002441406</ele>
        <time>2021-10-16T05:59:49.000Z</time>
      </trkpt>
      <trkpt lat="45.22454" lon="5.74495">
        <ele>762.20001220703</ele>
        <time>2021-10-16T05:59:52.000Z</time>
      </trkpt>
      <trkpt lat="45.22451" lon="5.74491">
        <ele>762.79998779297</ele>
        <time>2021-10-16T05:59:54.000Z</time>
      </trkpt>
      <trkpt lat="45.22451" lon="5.74489">
        <ele>763.40002441406</ele>
        <time>2021-10-16T05:59:56.000Z</time>
      </trkpt>
      <trkpt lat="45.2245" lon="5.74487">
        <ele>763.79998779297</ele>
        <time>2021-10-16T05:59:58.000Z</time>
      </trkpt>
      <trkpt lat="45.22449" lon="5.74484">
        <ele>764.40002441406</ele>
        <time>2021-10-16T06:00:00.000Z</time>
      </trkpt>
      <trkpt lat="45.22449" lon="5.74484">
        <ele>764.40002441406</ele>
        <time>2021-10-16T06:00:01.000Z</time>
      </trkpt>
      <trkpt lat="45.22449" lon="5.74482">
        <ele>764.79998779297</ele>
        <time>2021-10-16T06:00:03.000Z</time>
      </trkpt>
      <trkpt lat="45.22447" lon="5.74478">
        <ele>765.59997558594</ele>
        <time>2021-10-16T06:00:06.000Z</time>
      </trkpt>
      <trkpt lat="45.22446" lon="5.74477">
        <ele>765.79998779297</ele>
        <time>2021-10-16T06:00:07.000Z</time>
      </trkpt>
      <trkpt lat="45.22446" lon="5.74475">
        <ele>766</ele>
        <time>2021-10-16T06:00:08.000Z</time>
      </trkpt>
      <trkpt lat="45.22445" lon="5.74473">
        <ele>766.59997558594</ele>
        <time>2021-10-16T06:00:09.000Z</time>
      </trkpt>
      <trkpt lat="45.22445" lon="5.7447">
        <ele>766.59997558594</ele>
        <time>2021-10-16T06:00:10.000Z</time>
      </trkpt>
      <trkpt lat="45.22445" lon="5.74469">
        <ele>767</ele>
        <time>2021-10-16T06:00:12.000Z</time>
      </trkpt>
      <trkpt lat="45.22444" lon="5.74468">
        <ele>767.40002441406</ele>
        <time>2021-10-16T06:00:13.000Z</time>
      </trkpt>
      <trkpt lat="45.22445" lon="5.74465">
        <ele>767.40002441406</ele>
        <time>2021-10-16T06:00:15.000Z</time>
      </trkpt>
      <trkpt lat="45.22446" lon="5.74464">
        <ele>767.79998779297</ele>
        <time>2021-10-16T06:00:16.000Z</time>
      </trkpt>
      <trkpt lat="45.22446" lon="5.74463">
        <ele>767.79998779297</ele>
        <time>2021-10-16T06:00:17.000Z</time>
      </trkpt>
      <trkpt lat="45.22446" lon="5.74462">
        <ele>768.20001220703</ele>
        <time>2021-10-16T06:00:18.000Z</time>
      </trkpt>
      <trkpt lat="45.22445" lon="5.74461">
        <ele>768.79998779297</ele>
        <time>2021-10-16T06:00:19.000Z</time>
      </trkpt>
      <trkpt lat="45.22445" lon="5.7446">
        <ele>769.20001220703</ele>
        <time>2021-10-16T06:00:20.000Z</time>
      </trkpt>
      <trkpt lat="45.22444" lon="5.74454">
        <ele>770</ele>
        <time>2021-10-16T06:00:23.000Z</time>
      </trkpt>
      <trkpt lat="45.22443" lon="5.74453">
        <ele>770.20001220703</ele>
        <time>2021-10-16T06:00:24.000Z</time>
      </trkpt>
      <trkpt lat="45.22442" lon="5.74451">
        <ele>770.40002441406</ele>
        <time>2021-10-16T06:00:26.000Z</time>
      </trkpt>
      <trkpt lat="45.22439" lon="5.74446">
        <ele>771</ele>
        <time>2021-10-16T06:00:29.000Z</time>
      </trkpt>
      <trkpt lat="45.22439" lon="5.74441">
        <ele>772.20001220703</ele>
        <time>2021-10-16T06:00:32.000Z</time>
      </trkpt>
      <trkpt lat="45.22438" lon="5.74439">
        <ele>772.40002441406</ele>
        <time>2021-10-16T06:00:33.000Z</time>
      </trkpt>
      <trkpt lat="45.22437" lon="5.74438">
        <ele>772.40002441406</ele>
        <time>2021-10-16T06:00:34.000Z</time>
      </trkpt>
      <trkpt lat="45.22436" lon="5.74438">
        <ele>772.79998779297</ele>
        <time>2021-10-16T06:00:35.000Z</time>
      </trkpt>
      <trkpt lat="45.22435" lon="5.74435">
        <ele>773.40002441406</ele>
        <time>2021-10-16T06:00:38.000Z</time>
      </trkpt>
      <trkpt lat="45.22434" lon="5.74434">
        <ele>773.40002441406</ele>
        <time>2021-10-16T06:00:39.000Z</time>
      </trkpt>
      <trkpt lat="45.22431" lon="5.74428">
        <ele>774.40002441406</ele>
        <time>2021-10-16T06:00:45.000Z</time>
      </trkpt>
      <trkpt lat="45.22428" lon="5.74424">
        <ele>774.79998779297</ele>
        <time>2021-10-16T06:00:48.000Z</time>
      </trkpt>
      <trkpt lat="45.22426" lon="5.74421">
        <ele>775.40002441406</ele>
        <time>2021-10-16T06:00:50.000Z</time>
      </trkpt>
      <trkpt lat="45.22426" lon="5.74421">
        <ele>775.40002441406</ele>
        <time>2021-10-16T06:00:51.000Z</time>
      </trkpt>
      <trkpt lat="45.22425" lon="5.74418">
        <ele>775.59997558594</ele>
        <time>2021-10-16T06:00:53.000Z</time>
      </trkpt>
      <trkpt lat="45.22424" lon="5.74414">
        <ele>776.59997558594</ele>
        <time>2021-10-16T06:00:57.000Z</time>
      </trkpt>
      <trkpt lat="45.22425" lon="5.74413">
        <ele>776.79998779297</ele>
        <time>2021-10-16T06:00:58.000Z</time>
      </trkpt>
      <trkpt lat="45.22424" lon="5.74409">
        <ele>777.59997558594</ele>
        <time>2021-10-16T06:01:01.000Z</time>
      </trkpt>
      <trkpt lat="45.22424" lon="5.74407">
        <ele>777.59997558594</ele>
        <time>2021-10-16T06:01:02.000Z</time>
      </trkpt>
      <trkpt lat="45.22423" lon="5.74406">
        <ele>777.79998779297</ele>
        <time>2021-10-16T06:01:03.000Z</time>
      </trkpt>
      <trkpt lat="45.22422" lon="5.74404">
        <ele>777.79998779297</ele>
        <time>2021-10-16T06:01:04.000Z</time>
      </trkpt>
      <trkpt lat="45.2242" lon="5.74403">
        <ele>777.79998779297</ele>
        <time>2021-10-16T06:01:05.000Z</time>
      </trkpt>
      <trkpt lat="45.22419" lon="5.74401">
        <ele>778.20001220703</ele>
        <time>2021-10-16T06:01:07.000Z</time>
      </trkpt>
      <trkpt lat="45.22417" lon="5.74399">
        <ele>779</ele>
        <time>2021-10-16T06:01:09.000Z</time>
      </trkpt>
      <trkpt lat="45.22416" lon="5.74398">
        <ele>779</ele>
        <time>2021-10-16T06:01:10.000Z</time>
      </trkpt>
      <trkpt lat="45.22416" lon="5.74397">
        <ele>779.40002441406</ele>
        <time>2021-10-16T06:01:11.000Z</time>
      </trkpt>
      <trkpt lat="45.22415" lon="5.74392">
        <ele>779.79998779297</ele>
        <time>2021-10-16T06:01:14.000Z</time>
      </trkpt>
      <trkpt lat="45.22414" lon="5.7439">
        <ele>780</ele>
        <time>2021-10-16T06:01:15.000Z</time>
      </trkpt>
      <trkpt lat="45.22414" lon="5.74389">
        <ele>780</ele>
        <time>2021-10-16T06:01:16.000Z</time>
      </trkpt>
      <trkpt lat="45.22413" lon="5.74385">
        <ele>781.40002441406</ele>
        <time>2021-10-16T06:01:19.000Z</time>
      </trkpt>
      <trkpt lat="45.22413" lon="5.74382">
        <ele>781.79998779297</ele>
        <time>2021-10-16T06:01:21.000Z</time>
      </trkpt>
      <trkpt lat="45.22411" lon="5.74377">
        <ele>782.59997558594</ele>
        <time>2021-10-16T06:01:26.000Z</time>
      </trkpt>
      <trkpt lat="45.22411" lon="5.74376">
        <ele>783.20001220703</ele>
        <time>2021-10-16T06:01:27.000Z</time>
      </trkpt>
      <trkpt lat="45.22409" lon="5.74374">
        <ele>783.59997558594</ele>
        <time>2021-10-16T06:01:30.000Z</time>
      </trkpt>
      <trkpt lat="45.22409" lon="5.74372">
        <ele>783.79998779297</ele>
        <time>2021-10-16T06:01:31.000Z</time>
      </trkpt>
      <trkpt lat="45.22408" lon="5.74368">
        <ele>784.40002441406</ele>
        <time>2021-10-16T06:01:33.000Z</time>
      </trkpt>
      <trkpt lat="45.22404" lon="5.74363">
        <ele>785</ele>
        <time>2021-10-16T06:01:36.000Z</time>
      </trkpt>
      <trkpt lat="45.22404" lon="5.7436">
        <ele>785.40002441406</ele>
        <time>2021-10-16T06:01:39.000Z</time>
      </trkpt>
      <trkpt lat="45.22403" lon="5.74358">
        <ele>786.20001220703</ele>
        <time>2021-10-16T06:01:41.000Z</time>
      </trkpt>
      <trkpt lat="45.22403" lon="5.74356">
        <ele>786.20001220703</ele>
        <time>2021-10-16T06:01:42.000Z</time>
      </trkpt>
      <trkpt lat="45.22403" lon="5.74351">
        <ele>786.59997558594</ele>
        <time>2021-10-16T06:01:45.000Z</time>
      </trkpt>
      <trkpt lat="45.22402" lon="5.74349">
        <ele>787.20001220703</ele>
        <time>2021-10-16T06:01:47.000Z</time>
      </trkpt>
      <trkpt lat="45.224" lon="5.74346">
        <ele>787.59997558594</ele>
        <time>2021-10-16T06:01:49.000Z</time>
      </trkpt>
      <trkpt lat="45.22398" lon="5.74343">
        <ele>788.20001220703</ele>
        <time>2021-10-16T06:01:51.000Z</time>
      </trkpt>
      <trkpt lat="45.22394" lon="5.74335">
        <ele>789.59997558594</ele>
        <time>2021-10-16T06:01:55.000Z</time>
      </trkpt>
      <trkpt lat="45.22393" lon="5.74334">
        <ele>789.79998779297</ele>
        <time>2021-10-16T06:01:56.000Z</time>
      </trkpt>
      <trkpt lat="45.22392" lon="5.74332">
        <ele>790.20001220703</ele>
        <time>2021-10-16T06:01:58.000Z</time>
      </trkpt>
      <trkpt lat="45.22391" lon="5.74329">
        <ele>790.79998779297</ele>
        <time>2021-10-16T06:02:01.000Z</time>
      </trkpt>
      <trkpt lat="45.22391" lon="5.74328">
        <ele>790.79998779297</ele>
        <time>2021-10-16T06:02:02.000Z</time>
      </trkpt>
      <trkpt lat="45.2239" lon="5.74325">
        <ele>792</ele>
        <time>2021-10-16T06:02:05.000Z</time>
      </trkpt>
      <trkpt lat="45.22388" lon="5.74321">
        <ele>792.79998779297</ele>
        <time>2021-10-16T06:02:07.000Z</time>
      </trkpt>
      <trkpt lat="45.22388" lon="5.74317">
        <ele>793</ele>
        <time>2021-10-16T06:02:10.000Z</time>
      </trkpt>
      <trkpt lat="45.22387" lon="5.74315">
        <ele>793</ele>
        <time>2021-10-16T06:02:11.000Z</time>
      </trkpt>
      <trkpt lat="45.22387" lon="5.74314">
        <ele>794.20001220703</ele>
        <time>2021-10-16T06:02:15.000Z</time>
      </trkpt>
      <trkpt lat="45.22387" lon="5.74313">
        <ele>794.59997558594</ele>
        <time>2021-10-16T06:02:16.000Z</time>
      </trkpt>
      <trkpt lat="45.22386" lon="5.7431">
        <ele>795.20001220703</ele>
        <time>2021-10-16T06:02:18.000Z</time>
      </trkpt>
      <trkpt lat="45.22385" lon="5.74308">
        <ele>795.59997558594</ele>
        <time>2021-10-16T06:02:20.000Z</time>
      </trkpt>
      <trkpt lat="45.22385" lon="5.74307">
        <ele>795.79998779297</ele>
        <time>2021-10-16T06:02:21.000Z</time>
      </trkpt>
      <trkpt lat="45.22385" lon="5.74307">
        <ele>796</ele>
        <time>2021-10-16T06:02:22.000Z</time>
      </trkpt>
      <trkpt lat="45.22385" lon="5.74306">
        <ele>796</ele>
        <time>2021-10-16T06:02:23.000Z</time>
      </trkpt>
      <trkpt lat="45.22383" lon="5.74304">
        <ele>796.79998779297</ele>
        <time>2021-10-16T06:02:25.000Z</time>
      </trkpt>
      <trkpt lat="45.22382" lon="5.74302">
        <ele>797.40002441406</ele>
        <time>2021-10-16T06:02:27.000Z</time>
      </trkpt>
      <trkpt lat="45.22382" lon="5.74301">
        <ele>797.79998779297</ele>
        <time>2021-10-16T06:02:28.000Z</time>
      </trkpt>
      <trkpt lat="45.2238" lon="5.743">
        <ele>798</ele>
        <time>2021-10-16T06:02:29.000Z</time>
      </trkpt>
      <trkpt lat="45.22378" lon="5.74297">
        <ele>798.20001220703</ele>
        <time>2021-10-16T06:02:31.000Z</time>
      </trkpt>
      <trkpt lat="45.22377" lon="5.74295">
        <ele>798.59997558594</ele>
        <time>2021-10-16T06:02:33.000Z</time>
      </trkpt>
      <trkpt lat="45.22376" lon="5.74294">
        <ele>799.20001220703</ele>
        <time>2021-10-16T06:02:34.000Z</time>
      </trkpt>
      <trkpt lat="45.22374" lon="5.7429">
        <ele>799.79998779297</ele>
        <time>2021-10-16T06:02:37.000Z</time>
      </trkpt>
      <trkpt lat="45.22372" lon="5.74286">
        <ele>800.40002441406</ele>
        <time>2021-10-16T06:02:39.000Z</time>
      </trkpt>
      <trkpt lat="45.22371" lon="5.74285">
        <ele>800.59997558594</ele>
        <time>2021-10-16T06:02:40.000Z</time>
      </trkpt>
      <trkpt lat="45.22368" lon="5.74278">
        <ele>801.40002441406</ele>
        <time>2021-10-16T06:02:43.000Z</time>
      </trkpt>
      <trkpt lat="45.22367" lon="5.74272">
        <ele>802.79998779297</ele>
        <time>2021-10-16T06:02:48.000Z</time>
      </trkpt>
      <trkpt lat="45.22364" lon="5.74265">
        <ele>803.79998779297</ele>
        <time>2021-10-16T06:02:53.000Z</time>
      </trkpt>
      <trkpt lat="45.22362" lon="5.74263">
        <ele>804.40002441406</ele>
        <time>2021-10-16T06:02:55.000Z</time>
      </trkpt>
      <trkpt lat="45.22357" lon="5.74259">
        <ele>805</ele>
        <time>2021-10-16T06:03:00.000Z</time>
      </trkpt>
      <trkpt lat="45.22357" lon="5.74257">
        <ele>805.59997558594</ele>
        <time>2021-10-16T06:03:02.000Z</time>
      </trkpt>
      <trkpt lat="45.22356" lon="5.74252">
        <ele>806</ele>
        <time>2021-10-16T06:03:05.000Z</time>
      </trkpt>
      <trkpt lat="45.22355" lon="5.74247">
        <ele>806.59997558594</ele>
        <time>2021-10-16T06:03:09.000Z</time>
      </trkpt>
      <trkpt lat="45.22354" lon="5.74246">
        <ele>807.20001220703</ele>
        <time>2021-10-16T06:03:10.000Z</time>
      </trkpt>
      <trkpt lat="45.22354" lon="5.74243">
        <ele>807.59997558594</ele>
        <time>2021-10-16T06:03:12.000Z</time>
      </trkpt>
      <trkpt lat="45.22352" lon="5.74239">
        <ele>808.20001220703</ele>
        <time>2021-10-16T06:03:15.000Z</time>
      </trkpt>
      <trkpt lat="45.2235" lon="5.74236">
        <ele>808.59997558594</ele>
        <time>2021-10-16T06:03:17.000Z</time>
      </trkpt>
      <trkpt lat="45.22347" lon="5.74233">
        <ele>809.59997558594</ele>
        <time>2021-10-16T06:03:21.000Z</time>
      </trkpt>
      <trkpt lat="45.22345" lon="5.7423">
        <ele>810.79998779297</ele>
        <time>2021-10-16T06:03:25.000Z</time>
      </trkpt>
      <trkpt lat="45.22344" lon="5.74229">
        <ele>811</ele>
        <time>2021-10-16T06:03:26.000Z</time>
      </trkpt>
      <trkpt lat="45.22342" lon="5.74227">
        <ele>811.20001220703</ele>
        <time>2021-10-16T06:03:28.000Z</time>
      </trkpt>
      <trkpt lat="45.22338" lon="5.74225">
        <ele>812.20001220703</ele>
        <time>2021-10-16T06:03:31.000Z</time>
      </trkpt>
      <trkpt lat="45.22337" lon="5.74224">
        <ele>812.20001220703</ele>
        <time>2021-10-16T06:03:32.000Z</time>
      </trkpt>
      <trkpt lat="45.22334" lon="5.74223">
        <ele>813.20001220703</ele>
        <time>2021-10-16T06:03:35.000Z</time>
      </trkpt>
      <trkpt lat="45.22333" lon="5.74222">
        <ele>813.59997558594</ele>
        <time>2021-10-16T06:03:36.000Z</time>
      </trkpt>
      <trkpt lat="45.22332" lon="5.74221">
        <ele>813.79998779297</ele>
        <time>2021-10-16T06:03:37.000Z</time>
      </trkpt>
      <trkpt lat="45.22331" lon="5.74218">
        <ele>814.40002441406</ele>
        <time>2021-10-16T06:03:39.000Z</time>
      </trkpt>
      <trkpt lat="45.2233" lon="5.74217">
        <ele>814.59997558594</ele>
        <time>2021-10-16T06:03:41.000Z</time>
      </trkpt>
      <trkpt lat="45.22328" lon="5.74217">
        <ele>815.79998779297</ele>
        <time>2021-10-16T06:03:44.000Z</time>
      </trkpt>
      <trkpt lat="45.22327" lon="5.74218">
        <ele>816.20001220703</ele>
        <time>2021-10-16T06:03:45.000Z</time>
      </trkpt>
      <trkpt lat="45.22322" lon="5.74213">
        <ele>816.79998779297</ele>
        <time>2021-10-16T06:03:49.000Z</time>
      </trkpt>
      <trkpt lat="45.2232" lon="5.74212">
        <ele>817</ele>
        <time>2021-10-16T06:03:50.000Z</time>
      </trkpt>
      <trkpt lat="45.22317" lon="5.74207">
        <ele>818</ele>
        <time>2021-10-16T06:03:54.000Z</time>
      </trkpt>
      <trkpt lat="45.22316" lon="5.74206">
        <ele>818</ele>
        <time>2021-10-16T06:03:55.000Z</time>
      </trkpt>
      <trkpt lat="45.22315" lon="5.74204">
        <ele>818.59997558594</ele>
        <time>2021-10-16T06:03:56.000Z</time>
      </trkpt>
      <trkpt lat="45.22314" lon="5.74203">
        <ele>819</ele>
        <time>2021-10-16T06:03:57.000Z</time>
      </trkpt>
      <trkpt lat="45.22311" lon="5.74199">
        <ele>819.20001220703</ele>
        <time>2021-10-16T06:04:00.000Z</time>
      </trkpt>
      <trkpt lat="45.2231" lon="5.74196">
        <ele>819.40002441406</ele>
        <time>2021-10-16T06:04:02.000Z</time>
      </trkpt>
      <trkpt lat="45.22309" lon="5.74192">
        <ele>819.79998779297</ele>
        <time>2021-10-16T06:04:05.000Z</time>
      </trkpt>
      <trkpt lat="45.22308" lon="5.74191">
        <ele>820</ele>
        <time>2021-10-16T06:04:06.000Z</time>
      </trkpt>
      <trkpt lat="45.22307" lon="5.7419">
        <ele>820</ele>
        <time>2021-10-16T06:04:07.000Z</time>
      </trkpt>
      <trkpt lat="45.22304" lon="5.74183">
        <ele>820.59997558594</ele>
        <time>2021-10-16T06:04:11.000Z</time>
      </trkpt>
      <trkpt lat="45.22303" lon="5.74181">
        <ele>820.79998779297</ele>
        <time>2021-10-16T06:04:12.000Z</time>
      </trkpt>
      <trkpt lat="45.22302" lon="5.7418">
        <ele>820.79998779297</ele>
        <time>2021-10-16T06:04:13.000Z</time>
      </trkpt>
      <trkpt lat="45.22301" lon="5.74178">
        <ele>821</ele>
        <time>2021-10-16T06:04:14.000Z</time>
      </trkpt>
      <trkpt lat="45.223" lon="5.74177">
        <ele>821.20001220703</ele>
        <time>2021-10-16T06:04:15.000Z</time>
      </trkpt>
      <trkpt lat="45.22298" lon="5.74174">
        <ele>821.20001220703</ele>
        <time>2021-10-16T06:04:17.000Z</time>
      </trkpt>
      <trkpt lat="45.22296" lon="5.74171">
        <ele>821.59997558594</ele>
        <time>2021-10-16T06:04:19.000Z</time>
      </trkpt>
      <trkpt lat="45.22292" lon="5.74163">
        <ele>822.20001220703</ele>
        <time>2021-10-16T06:04:23.000Z</time>
      </trkpt>
      <trkpt lat="45.22291" lon="5.74161">
        <ele>822.20001220703</ele>
        <time>2021-10-16T06:04:24.000Z</time>
      </trkpt>
      <trkpt lat="45.22291" lon="5.74158">
        <ele>822.40002441406</ele>
        <time>2021-10-16T06:04:26.000Z</time>
      </trkpt>
      <trkpt lat="45.22287" lon="5.74153">
        <ele>823.20001220703</ele>
        <time>2021-10-16T06:04:29.000Z</time>
      </trkpt>
      <trkpt lat="45.22286" lon="5.74151">
        <ele>823.20001220703</ele>
        <time>2021-10-16T06:04:31.000Z</time>
      </trkpt>
      <trkpt lat="45.22286" lon="5.74148">
        <ele>824</ele>
        <time>2021-10-16T06:04:34.000Z</time>
      </trkpt>
      <trkpt lat="45.22285" lon="5.74147">
        <ele>824</ele>
        <time>2021-10-16T06:04:35.000Z</time>
      </trkpt>
      <trkpt lat="45.22285" lon="5.74145">
        <ele>824</ele>
        <time>2021-10-16T06:04:36.000Z</time>
      </trkpt>
      <trkpt lat="45.22282" lon="5.74141">
        <ele>824.59997558594</ele>
        <time>2021-10-16T06:04:39.000Z</time>
      </trkpt>
      <trkpt lat="45.22281" lon="5.7414">
        <ele>824.59997558594</ele>
        <time>2021-10-16T06:04:40.000Z</time>
      </trkpt>
      <trkpt lat="45.22281" lon="5.74138">
        <ele>824.79998779297</ele>
        <time>2021-10-16T06:04:41.000Z</time>
      </trkpt>
      <trkpt lat="45.22279" lon="5.74134">
        <ele>825.59997558594</ele>
        <time>2021-10-16T06:04:44.000Z</time>
      </trkpt>
      <trkpt lat="45.22275" lon="5.7413">
        <ele>826.40002441406</ele>
        <time>2021-10-16T06:04:47.000Z</time>
      </trkpt>
      <trkpt lat="45.22274" lon="5.74126">
        <ele>826.59997558594</ele>
        <time>2021-10-16T06:04:49.000Z</time>
      </trkpt>
      <trkpt lat="45.22274" lon="5.74125">
        <ele>827.40002441406</ele>
        <time>2021-10-16T06:04:50.000Z</time>
      </trkpt>
      <trkpt lat="45.22272" lon="5.74121">
        <ele>827.79998779297</ele>
        <time>2021-10-16T06:04:53.000Z</time>
      </trkpt>
      <trkpt lat="45.22269" lon="5.74118">
        <ele>828.79998779297</ele>
        <time>2021-10-16T06:04:56.000Z</time>
      </trkpt>
      <trkpt lat="45.22267" lon="5.74117">
        <ele>829</ele>
        <time>2021-10-16T06:04:57.000Z</time>
      </trkpt>
      <trkpt lat="45.22265" lon="5.74112">
        <ele>829.79998779297</ele>
        <time>2021-10-16T06:05:01.000Z</time>
      </trkpt>
      <trkpt lat="45.22263" lon="5.74111">
        <ele>830.40002441406</ele>
        <time>2021-10-16T06:05:03.000Z</time>
      </trkpt>
      <trkpt lat="45.22261" lon="5.74109">
        <ele>831.20001220703</ele>
        <time>2021-10-16T06:05:05.000Z</time>
      </trkpt>
      <trkpt lat="45.22259" lon="5.74106">
        <ele>831.79998779297</ele>
        <time>2021-10-16T06:05:08.000Z</time>
      </trkpt>
      <trkpt lat="45.22257" lon="5.74106">
        <ele>831.79998779297</ele>
        <time>2021-10-16T06:05:09.000Z</time>
      </trkpt>
      <trkpt lat="45.22255" lon="5.74103">
        <ele>832.59997558594</ele>
        <time>2021-10-16T06:05:11.000Z</time>
      </trkpt>
      <trkpt lat="45.22254" lon="5.74102">
        <ele>832.59997558594</ele>
        <time>2021-10-16T06:05:12.000Z</time>
      </trkpt>
      <trkpt lat="45.22254" lon="5.74102">
        <ele>833</ele>
        <time>2021-10-16T06:05:13.000Z</time>
      </trkpt>
      <trkpt lat="45.22253" lon="5.74102">
        <ele>833.40002441406</ele>
        <time>2021-10-16T06:05:14.000Z</time>
      </trkpt>
      <trkpt lat="45.22252" lon="5.74101">
        <ele>833.79998779297</ele>
        <time>2021-10-16T06:05:15.000Z</time>
      </trkpt>
      <trkpt lat="45.22252" lon="5.741">
        <ele>834</ele>
        <time>2021-10-16T06:05:16.000Z</time>
      </trkpt>
      <trkpt lat="45.2225" lon="5.74099">
        <ele>834.20001220703</ele>
        <time>2021-10-16T06:05:18.000Z</time>
      </trkpt>
      <trkpt lat="45.22248" lon="5.74099">
        <ele>834.40002441406</ele>
        <time>2021-10-16T06:05:19.000Z</time>
      </trkpt>
      <trkpt lat="45.22245" lon="5.74098">
        <ele>835.20001220703</ele>
        <time>2021-10-16T06:05:22.000Z</time>
      </trkpt>
      <trkpt lat="45.22244" lon="5.74097">
        <ele>835.59997558594</ele>
        <time>2021-10-16T06:05:23.000Z</time>
      </trkpt>
      <trkpt lat="45.22242" lon="5.74095">
        <ele>836.20001220703</ele>
        <time>2021-10-16T06:05:25.000Z</time>
      </trkpt>
      <trkpt lat="45.22237" lon="5.74091">
        <ele>837.40002441406</ele>
        <time>2021-10-16T06:05:31.000Z</time>
      </trkpt>
      <trkpt lat="45.22232" lon="5.74087">
        <ele>837.59997558594</ele>
        <time>2021-10-16T06:05:34.000Z</time>
      </trkpt>
      <trkpt lat="45.22227" lon="5.74082">
        <ele>838</ele>
        <time>2021-10-16T06:05:38.000Z</time>
      </trkpt>
      <trkpt lat="45.22226" lon="5.74081">
        <ele>838.40002441406</ele>
        <time>2021-10-16T06:05:39.000Z</time>
      </trkpt>
      <trkpt lat="45.22225" lon="5.74079">
        <ele>838.59997558594</ele>
        <time>2021-10-16T06:05:40.000Z</time>
      </trkpt>
      <trkpt lat="45.22224" lon="5.74078">
        <ele>838.59997558594</ele>
        <time>2021-10-16T06:05:42.000Z</time>
      </trkpt>
      <trkpt lat="45.22223" lon="5.74076">
        <ele>838.79998779297</ele>
        <time>2021-10-16T06:05:44.000Z</time>
      </trkpt>
      <trkpt lat="45.22223" lon="5.74075">
        <ele>838.79998779297</ele>
        <time>2021-10-16T06:05:45.000Z</time>
      </trkpt>
      <trkpt lat="45.22222" lon="5.74073">
        <ele>839.59997558594</ele>
        <time>2021-10-16T06:05:48.000Z</time>
      </trkpt>
      <trkpt lat="45.22221" lon="5.74068">
        <ele>839.59997558594</ele>
        <time>2021-10-16T06:05:51.000Z</time>
      </trkpt>
      <trkpt lat="45.22219" lon="5.74067">
        <ele>839.79998779297</ele>
        <time>2021-10-16T06:05:52.000Z</time>
      </trkpt>
      <trkpt lat="45.22217" lon="5.74063">
        <ele>840.59997558594</ele>
        <time>2021-10-16T06:05:55.000Z</time>
      </trkpt>
      <trkpt lat="45.22215" lon="5.74059">
        <ele>841</ele>
        <time>2021-10-16T06:05:57.000Z</time>
      </trkpt>
      <trkpt lat="45.22212" lon="5.74056">
        <ele>841.20001220703</ele>
        <time>2021-10-16T06:05:59.000Z</time>
      </trkpt>
      <trkpt lat="45.22209" lon="5.74052">
        <ele>842</ele>
        <time>2021-10-16T06:06:02.000Z</time>
      </trkpt>
      <trkpt lat="45.22209" lon="5.74051">
        <ele>842.20001220703</ele>
        <time>2021-10-16T06:06:03.000Z</time>
      </trkpt>
      <trkpt lat="45.22205" lon="5.74046">
        <ele>842.79998779297</ele>
        <time>2021-10-16T06:06:07.000Z</time>
      </trkpt>
      <trkpt lat="45.22204" lon="5.74044">
        <ele>843.20001220703</ele>
        <time>2021-10-16T06:06:08.000Z</time>
      </trkpt>
      <trkpt lat="45.22201" lon="5.7404">
        <ele>843.40002441406</ele>
        <time>2021-10-16T06:06:11.000Z</time>
      </trkpt>
      <trkpt lat="45.222" lon="5.74036">
        <ele>844.20001220703</ele>
        <time>2021-10-16T06:06:13.000Z</time>
      </trkpt>
      <trkpt lat="45.22198" lon="5.74035">
        <ele>844.40002441406</ele>
        <time>2021-10-16T06:06:14.000Z</time>
      </trkpt>
      <trkpt lat="45.22197" lon="5.74032">
        <ele>844.59997558594</ele>
        <time>2021-10-16T06:06:16.000Z</time>
      </trkpt>
      <trkpt lat="45.22196" lon="5.74028">
        <ele>845.40002441406</ele>
        <time>2021-10-16T06:06:18.000Z</time>
      </trkpt>
      <trkpt lat="45.22196" lon="5.74026">
        <ele>845.59997558594</ele>
        <time>2021-10-16T06:06:19.000Z</time>
      </trkpt>
      <trkpt lat="45.22196" lon="5.74024">
        <ele>846</ele>
        <time>2021-10-16T06:06:20.000Z</time>
      </trkpt>
      <trkpt lat="45.22195" lon="5.74019">
        <ele>846.59997558594</ele>
        <time>2021-10-16T06:06:23.000Z</time>
      </trkpt>
      <trkpt lat="45.22194" lon="5.74018">
        <ele>847.40002441406</ele>
        <time>2021-10-16T06:06:25.000Z</time>
      </trkpt>
      <trkpt lat="45.22194" lon="5.74017">
        <ele>847.79998779297</ele>
        <time>2021-10-16T06:06:26.000Z</time>
      </trkpt>
      <trkpt lat="45.22193" lon="5.74015">
        <ele>848.40002441406</ele>
        <time>2021-10-16T06:06:27.000Z</time>
      </trkpt>
      <trkpt lat="45.2219" lon="5.74012">
        <ele>848.59997558594</ele>
        <time>2021-10-16T06:06:30.000Z</time>
      </trkpt>
      <trkpt lat="45.2219" lon="5.74012">
        <ele>849</ele>
        <time>2021-10-16T06:06:31.000Z</time>
      </trkpt>
      <trkpt lat="45.22188" lon="5.74008">
        <ele>849.79998779297</ele>
        <time>2021-10-16T06:06:34.000Z</time>
      </trkpt>
      <trkpt lat="45.22188" lon="5.74007">
        <ele>850</ele>
        <time>2021-10-16T06:06:35.000Z</time>
      </trkpt>
      <trkpt lat="45.22187" lon="5.74006">
        <ele>850.40002441406</ele>
        <time>2021-10-16T06:06:36.000Z</time>
      </trkpt>
      <trkpt lat="45.22186" lon="5.74004">
        <ele>850.40002441406</ele>
        <time>2021-10-16T06:06:38.000Z</time>
      </trkpt>
      <trkpt lat="45.22182" lon="5.74001">
        <ele>850.79998779297</ele>
        <time>2021-10-16T06:06:40.000Z</time>
      </trkpt>
      <trkpt lat="45.22182" lon="5.74">
        <ele>851.20001220703</ele>
        <time>2021-10-16T06:06:41.000Z</time>
      </trkpt>
      <trkpt lat="45.22181" lon="5.73999">
        <ele>851.59997558594</ele>
        <time>2021-10-16T06:06:42.000Z</time>
      </trkpt>
      <trkpt lat="45.22178" lon="5.73995">
        <ele>852.20001220703</ele>
        <time>2021-10-16T06:06:45.000Z</time>
      </trkpt>
      <trkpt lat="45.22177" lon="5.73991">
        <ele>852.20001220703</ele>
        <time>2021-10-16T06:06:47.000Z</time>
      </trkpt>
      <trkpt lat="45.22176" lon="5.7399">
        <ele>852.40002441406</ele>
        <time>2021-10-16T06:06:48.000Z</time>
      </trkpt>
      <trkpt lat="45.22173" lon="5.73986">
        <ele>853.20001220703</ele>
        <time>2021-10-16T06:06:52.000Z</time>
      </trkpt>
      <trkpt lat="45.22173" lon="5.73985">
        <ele>853.59997558594</ele>
        <time>2021-10-16T06:06:53.000Z</time>
      </trkpt>
      <trkpt lat="45.22171" lon="5.73983">
        <ele>853.79998779297</ele>
        <time>2021-10-16T06:06:54.000Z</time>
      </trkpt>
      <trkpt lat="45.22166" lon="5.73979">
        <ele>854.40002441406</ele>
        <time>2021-10-16T06:06:59.000Z</time>
      </trkpt>
      <trkpt lat="45.22165" lon="5.73979">
        <ele>854.59997558594</ele>
        <time>2021-10-16T06:07:00.000Z</time>
      </trkpt>
      <trkpt lat="45.22162" lon="5.73975">
        <ele>855.59997558594</ele>
        <time>2021-10-16T06:07:04.000Z</time>
      </trkpt>
      <trkpt lat="45.22161" lon="5.73974">
        <ele>855.59997558594</ele>
        <time>2021-10-16T06:07:05.000Z</time>
      </trkpt>
      <trkpt lat="45.2216" lon="5.73973">
        <ele>855.59997558594</ele>
        <time>2021-10-16T06:07:06.000Z</time>
      </trkpt>
      <trkpt lat="45.22157" lon="5.73971">
        <ele>855.79998779297</ele>
        <time>2021-10-16T06:07:09.000Z</time>
      </trkpt>
      <trkpt lat="45.22155" lon="5.73969">
        <ele>856.79998779297</ele>
        <time>2021-10-16T06:07:11.000Z</time>
      </trkpt>
      <trkpt lat="45.22151" lon="5.73963">
        <ele>857.40002441406</ele>
        <time>2021-10-16T06:07:17.000Z</time>
      </trkpt>
      <trkpt lat="45.22149" lon="5.7396">
        <ele>857.79998779297</ele>
        <time>2021-10-16T06:07:19.000Z</time>
      </trkpt>
      <trkpt lat="45.22145" lon="5.73954">
        <ele>858.59997558594</ele>
        <time>2021-10-16T06:07:24.000Z</time>
      </trkpt>
      <trkpt lat="45.22144" lon="5.73953">
        <ele>859</ele>
        <time>2021-10-16T06:07:25.000Z</time>
      </trkpt>
      <trkpt lat="45.22141" lon="5.73949">
        <ele>860.20001220703</ele>
        <time>2021-10-16T06:07:29.000Z</time>
      </trkpt>
      <trkpt lat="45.2214" lon="5.73947">
        <ele>860.40002441406</ele>
        <time>2021-10-16T06:07:31.000Z</time>
      </trkpt>
      <trkpt lat="45.2214" lon="5.73946">
        <ele>861.59997558594</ele>
        <time>2021-10-16T06:07:33.000Z</time>
      </trkpt>
      <trkpt lat="45.22139" lon="5.73945">
        <ele>861.79998779297</ele>
        <time>2021-10-16T06:07:34.000Z</time>
      </trkpt>
      <trkpt lat="45.22137" lon="5.73942">
        <ele>862</ele>
        <time>2021-10-16T06:07:35.000Z</time>
      </trkpt>
      <trkpt lat="45.22135" lon="5.73938">
        <ele>862.59997558594</ele>
        <time>2021-10-16T06:07:37.000Z</time>
      </trkpt>
      <trkpt lat="45.22132" lon="5.73936">
        <ele>862.79998779297</ele>
        <time>2021-10-16T06:07:39.000Z</time>
      </trkpt>
      <trkpt lat="45.22131" lon="5.73935">
        <ele>863.40002441406</ele>
        <time>2021-10-16T06:07:40.000Z</time>
      </trkpt>
      <trkpt lat="45.2213" lon="5.73934">
        <ele>863.59997558594</ele>
        <time>2021-10-16T06:07:41.000Z</time>
      </trkpt>
      <trkpt lat="45.22128" lon="5.73932">
        <ele>864.40002441406</ele>
        <time>2021-10-16T06:07:43.000Z</time>
      </trkpt>
      <trkpt lat="45.22127" lon="5.73931">
        <ele>864.79998779297</ele>
        <time>2021-10-16T06:07:44.000Z</time>
      </trkpt>
      <trkpt lat="45.22125" lon="5.73929">
        <ele>865</ele>
        <time>2021-10-16T06:07:46.000Z</time>
      </trkpt>
      <trkpt lat="45.22122" lon="5.73926">
        <ele>866</ele>
        <time>2021-10-16T06:07:49.000Z</time>
      </trkpt>
      <trkpt lat="45.22119" lon="5.73923">
        <ele>866.40002441406</ele>
        <time>2021-10-16T06:07:53.000Z</time>
      </trkpt>
      <trkpt lat="45.22118" lon="5.73922">
        <ele>866.59997558594</ele>
        <time>2021-10-16T06:07:55.000Z</time>
      </trkpt>
      <trkpt lat="45.22116" lon="5.7392">
        <ele>867</ele>
        <time>2021-10-16T06:07:58.000Z</time>
      </trkpt>
      <trkpt lat="45.22115" lon="5.73918">
        <ele>867.20001220703</ele>
        <time>2021-10-16T06:07:59.000Z</time>
      </trkpt>
      <trkpt lat="45.22114" lon="5.73917">
        <ele>867.40002441406</ele>
        <time>2021-10-16T06:08:00.000Z</time>
      </trkpt>
      <trkpt lat="45.22111" lon="5.73913">
        <ele>867.59997558594</ele>
        <time>2021-10-16T06:08:04.000Z</time>
      </trkpt>
      <trkpt lat="45.2211" lon="5.73912">
        <ele>868</ele>
        <time>2021-10-16T06:08:05.000Z</time>
      </trkpt>
      <trkpt lat="45.22105" lon="5.73908">
        <ele>868.59997558594</ele>
        <time>2021-10-16T06:08:10.000Z</time>
      </trkpt>
      <trkpt lat="45.221" lon="5.73903">
        <ele>869.20001220703</ele>
        <time>2021-10-16T06:08:16.000Z</time>
      </trkpt>
      <trkpt lat="45.22099" lon="5.73902">
        <ele>869.59997558594</ele>
        <time>2021-10-16T06:08:17.000Z</time>
      </trkpt>
      <trkpt lat="45.22095" lon="5.73898">
        <ele>870.20001220703</ele>
        <time>2021-10-16T06:08:20.000Z</time>
      </trkpt>
      <trkpt lat="45.22095" lon="5.73898">
        <ele>870.40002441406</ele>
        <time>2021-10-16T06:08:21.000Z</time>
      </trkpt>
      <trkpt lat="45.22094" lon="5.73897">
        <ele>870.40002441406</ele>
        <time>2021-10-16T06:08:22.000Z</time>
      </trkpt>
      <trkpt lat="45.22093" lon="5.73896">
        <ele>871</ele>
        <time>2021-10-16T06:08:23.000Z</time>
      </trkpt>
      <trkpt lat="45.22091" lon="5.73893">
        <ele>871.59997558594</ele>
        <time>2021-10-16T06:08:25.000Z</time>
      </trkpt>
      <trkpt lat="45.2209" lon="5.73892">
        <ele>871.59997558594</ele>
        <time>2021-10-16T06:08:26.000Z</time>
      </trkpt>
      <trkpt lat="45.22086" lon="5.73884">
        <ele>872.40002441406</ele>
        <time>2021-10-16T06:08:29.000Z</time>
      </trkpt>
      <trkpt lat="45.22085" lon="5.73882">
        <ele>872.59997558594</ele>
        <time>2021-10-16T06:08:30.000Z</time>
      </trkpt>
      <trkpt lat="45.22086" lon="5.7388">
        <ele>873.79998779297</ele>
        <time>2021-10-16T06:08:32.000Z</time>
      </trkpt>
      <trkpt lat="45.22087" lon="5.7388">
        <ele>873.79998779297</ele>
        <time>2021-10-16T06:08:33.000Z</time>
      </trkpt>
      <trkpt lat="45.2209" lon="5.73881">
        <ele>874.20001220703</ele>
        <time>2021-10-16T06:08:35.000Z</time>
      </trkpt>
      <trkpt lat="45.22093" lon="5.73882">
        <ele>874.20001220703</ele>
        <time>2021-10-16T06:08:37.000Z</time>
      </trkpt>
      <trkpt lat="45.22095" lon="5.73882">
        <ele>874.59997558594</ele>
        <time>2021-10-16T06:08:38.000Z</time>
      </trkpt>
      <trkpt lat="45.22097" lon="5.73884">
        <ele>875</ele>
        <time>2021-10-16T06:08:40.000Z</time>
      </trkpt>
      <trkpt lat="45.22099" lon="5.73886">
        <ele>875</ele>
        <time>2021-10-16T06:08:42.000Z</time>
      </trkpt>
      <trkpt lat="45.221" lon="5.73886">
        <ele>875.20001220703</ele>
        <time>2021-10-16T06:08:43.000Z</time>
      </trkpt>
      <trkpt lat="45.22104" lon="5.73886">
        <ele>875.59997558594</ele>
        <time>2021-10-16T06:08:46.000Z</time>
      </trkpt>
      <trkpt lat="45.22109" lon="5.73885">
        <ele>876.20001220703</ele>
        <time>2021-10-16T06:08:49.000Z</time>
      </trkpt>
      <trkpt lat="45.2211" lon="5.73885">
        <ele>876.40002441406</ele>
        <time>2021-10-16T06:08:50.000Z</time>
      </trkpt>
      <trkpt lat="45.22111" lon="5.73885">
        <ele>876.40002441406</ele>
        <time>2021-10-16T06:08:51.000Z</time>
      </trkpt>
      <trkpt lat="45.22118" lon="5.73888">
        <ele>877.40002441406</ele>
        <time>2021-10-16T06:08:56.000Z</time>
      </trkpt>
      <trkpt lat="45.22119" lon="5.73889">
        <ele>877.59997558594</ele>
        <time>2021-10-16T06:08:57.000Z</time>
      </trkpt>
      <trkpt lat="45.22122" lon="5.7389">
        <ele>877.79998779297</ele>
        <time>2021-10-16T06:08:59.000Z</time>
      </trkpt>
      <trkpt lat="45.22129" lon="5.73891">
        <ele>878.20001220703</ele>
        <time>2021-10-16T06:09:02.000Z</time>
      </trkpt>
      <trkpt lat="45.22131" lon="5.73892">
        <ele>878.59997558594</ele>
        <time>2021-10-16T06:09:03.000Z</time>
      </trkpt>
      <trkpt lat="45.22133" lon="5.73893">
        <ele>878.59997558594</ele>
        <time>2021-10-16T06:09:04.000Z</time>
      </trkpt>
      <trkpt lat="45.22138" lon="5.73895">
        <ele>879.20001220703</ele>
        <time>2021-10-16T06:09:07.000Z</time>
      </trkpt>
      <trkpt lat="45.2214" lon="5.73896">
        <ele>879.20001220703</ele>
        <time>2021-10-16T06:09:08.000Z</time>
      </trkpt>
      <trkpt lat="45.22143" lon="5.73897">
        <ele>879.59997558594</ele>
        <time>2021-10-16T06:09:10.000Z</time>
      </trkpt>
      <trkpt lat="45.22147" lon="5.73898">
        <ele>880.20001220703</ele>
        <time>2021-10-16T06:09:14.000Z</time>
      </trkpt>
      <trkpt lat="45.22147" lon="5.73899">
        <ele>880.79998779297</ele>
        <time>2021-10-16T06:09:15.000Z</time>
      </trkpt>
      <trkpt lat="45.22152" lon="5.73901">
        <ele>881.20001220703</ele>
        <time>2021-10-16T06:09:18.000Z</time>
      </trkpt>
      <trkpt lat="45.22155" lon="5.73902">
        <ele>881.59997558594</ele>
        <time>2021-10-16T06:09:20.000Z</time>
      </trkpt>
      <trkpt lat="45.22157" lon="5.73901">
        <ele>881.79998779297</ele>
        <time>2021-10-16T06:09:21.000Z</time>
      </trkpt>
      <trkpt lat="45.22158" lon="5.73902">
        <ele>882</ele>
        <time>2021-10-16T06:09:22.000Z</time>
      </trkpt>
      <trkpt lat="45.22159" lon="5.73902">
        <ele>882.20001220703</ele>
        <time>2021-10-16T06:09:23.000Z</time>
      </trkpt>
      <trkpt lat="45.22166" lon="5.73907">
        <ele>883</ele>
        <time>2021-10-16T06:09:29.000Z</time>
      </trkpt>
      <trkpt lat="45.22169" lon="5.73908">
        <ele>883.59997558594</ele>
        <time>2021-10-16T06:09:31.000Z</time>
      </trkpt>
      <trkpt lat="45.22178" lon="5.73911">
        <ele>884</ele>
        <time>2021-10-16T06:09:35.000Z</time>
      </trkpt>
      <trkpt lat="45.22181" lon="5.73913">
        <ele>884.59997558594</ele>
        <time>2021-10-16T06:09:38.000Z</time>
      </trkpt>
      <trkpt lat="45.22188" lon="5.73917">
        <ele>885.20001220703</ele>
        <time>2021-10-16T06:09:42.000Z</time>
      </trkpt>
      <trkpt lat="45.22189" lon="5.73918">
        <ele>885.40002441406</ele>
        <time>2021-10-16T06:09:43.000Z</time>
      </trkpt>
      <trkpt lat="45.2219" lon="5.73919">
        <ele>885.59997558594</ele>
        <time>2021-10-16T06:09:44.000Z</time>
      </trkpt>
      <trkpt lat="45.22196" lon="5.73925">
        <ele>886.40002441406</ele>
        <time>2021-10-16T06:09:48.000Z</time>
      </trkpt>
      <trkpt lat="45.222" lon="5.73928">
        <ele>886.40002441406</ele>
        <time>2021-10-16T06:09:50.000Z</time>
      </trkpt>
      <trkpt lat="45.22202" lon="5.73931">
        <ele>887.20001220703</ele>
        <time>2021-10-16T06:09:52.000Z</time>
      </trkpt>
      <trkpt lat="45.22203" lon="5.73932">
        <ele>887.59997558594</ele>
        <time>2021-10-16T06:09:53.000Z</time>
      </trkpt>
      <trkpt lat="45.22204" lon="5.73935">
        <ele>888.20001220703</ele>
        <time>2021-10-16T06:09:55.000Z</time>
      </trkpt>
      <trkpt lat="45.22206" lon="5.73938">
        <ele>888.20001220703</ele>
        <time>2021-10-16T06:09:56.000Z</time>
      </trkpt>
      <trkpt lat="45.22212" lon="5.73945">
        <ele>888.79998779297</ele>
        <time>2021-10-16T06:09:59.000Z</time>
      </trkpt>
      <trkpt lat="45.22215" lon="5.73952">
        <ele>889.40002441406</ele>
        <time>2021-10-16T06:10:03.000Z</time>
      </trkpt>
      <trkpt lat="45.22216" lon="5.73953">
        <ele>889.40002441406</ele>
        <time>2021-10-16T06:10:04.000Z</time>
      </trkpt>
      <trkpt lat="45.22219" lon="5.73956">
        <ele>889.40002441406</ele>
        <time>2021-10-16T06:10:06.000Z</time>
      </trkpt>
      <trkpt lat="45.2222" lon="5.73958">
        <ele>889.79998779297</ele>
        <time>2021-10-16T06:10:07.000Z</time>
      </trkpt>
      <trkpt lat="45.22225" lon="5.73962">
        <ele>890.40002441406</ele>
        <time>2021-10-16T06:10:10.000Z</time>
      </trkpt>
      <trkpt lat="45.22231" lon="5.73967">
        <ele>890.79998779297</ele>
        <time>2021-10-16T06:10:14.000Z</time>
      </trkpt>
      <trkpt lat="45.22235" lon="5.7397">
        <ele>891</ele>
        <time>2021-10-16T06:10:16.000Z</time>
      </trkpt>
      <trkpt lat="45.22238" lon="5.73971">
        <ele>891</ele>
        <time>2021-10-16T06:10:18.000Z</time>
      </trkpt>
      <trkpt lat="45.22243" lon="5.73974">
        <ele>891.40002441406</ele>
        <time>2021-10-16T06:10:21.000Z</time>
      </trkpt>
      <trkpt lat="45.2225" lon="5.7398">
        <ele>891.40002441406</ele>
        <time>2021-10-16T06:10:24.000Z</time>
      </trkpt>
      <trkpt lat="45.22252" lon="5.73981">
        <ele>891.40002441406</ele>
        <time>2021-10-16T06:10:25.000Z</time>
      </trkpt>
      <trkpt lat="45.22255" lon="5.73984">
        <ele>892.20001220703</ele>
        <time>2021-10-16T06:10:27.000Z</time>
      </trkpt>
      <trkpt lat="45.22257" lon="5.73985">
        <ele>892.20001220703</ele>
        <time>2021-10-16T06:10:28.000Z</time>
      </trkpt>
      <trkpt lat="45.22264" lon="5.73989">
        <ele>893.40002441406</ele>
        <time>2021-10-16T06:10:32.000Z</time>
      </trkpt>
      <trkpt lat="45.22266" lon="5.73989">
        <ele>893.40002441406</ele>
        <time>2021-10-16T06:10:33.000Z</time>
      </trkpt>
      <trkpt lat="45.22271" lon="5.7399">
        <ele>893.40002441406</ele>
        <time>2021-10-16T06:10:35.000Z</time>
      </trkpt>
      <trkpt lat="45.22277" lon="5.73994">
        <ele>894.40002441406</ele>
        <time>2021-10-16T06:10:38.000Z</time>
      </trkpt>
      <trkpt lat="45.22278" lon="5.73996">
        <ele>894.59997558594</ele>
        <time>2021-10-16T06:10:39.000Z</time>
      </trkpt>
      <trkpt lat="45.22282" lon="5.73999">
        <ele>894.59997558594</ele>
        <time>2021-10-16T06:10:41.000Z</time>
      </trkpt>
      <trkpt lat="45.22283" lon="5.74">
        <ele>895</ele>
        <time>2021-10-16T06:10:42.000Z</time>
      </trkpt>
      <trkpt lat="45.22287" lon="5.74003">
        <ele>895.40002441406</ele>
        <time>2021-10-16T06:10:45.000Z</time>
      </trkpt>
      <trkpt lat="45.22288" lon="5.74004">
        <ele>895.59997558594</ele>
        <time>2021-10-16T06:10:47.000Z</time>
      </trkpt>
      <trkpt lat="45.22295" lon="5.74006">
        <ele>896.40002441406</ele>
        <time>2021-10-16T06:10:52.000Z</time>
      </trkpt>
      <trkpt lat="45.22299" lon="5.74007">
        <ele>897</ele>
        <time>2021-10-16T06:10:55.000Z</time>
      </trkpt>
      <trkpt lat="45.22301" lon="5.74008">
        <ele>897.40002441406</ele>
        <time>2021-10-16T06:10:57.000Z</time>
      </trkpt>
      <trkpt lat="45.22303" lon="5.74009">
        <ele>898</ele>
        <time>2021-10-16T06:10:59.000Z</time>
      </trkpt>
      <trkpt lat="45.22306" lon="5.7401">
        <ele>898.20001220703</ele>
        <time>2021-10-16T06:11:01.000Z</time>
      </trkpt>
      <trkpt lat="45.22307" lon="5.7401">
        <ele>898.40002441406</ele>
        <time>2021-10-16T06:11:02.000Z</time>
      </trkpt>
      <trkpt lat="45.22309" lon="5.7401">
        <ele>898.40002441406</ele>
        <time>2021-10-16T06:11:03.000Z</time>
      </trkpt>
      <trkpt lat="45.22313" lon="5.74012">
        <ele>898.59997558594</ele>
        <time>2021-10-16T06:11:05.000Z</time>
      </trkpt>
      <trkpt lat="45.2232" lon="5.74018">
        <ele>899.40002441406</ele>
        <time>2021-10-16T06:11:09.000Z</time>
      </trkpt>
      <trkpt lat="45.22322" lon="5.74019">
        <ele>899.79998779297</ele>
        <time>2021-10-16T06:11:10.000Z</time>
      </trkpt>
      <trkpt lat="45.22326" lon="5.74023">
        <ele>899.79998779297</ele>
        <time>2021-10-16T06:11:14.000Z</time>
      </trkpt>
      <trkpt lat="45.22328" lon="5.74025">
        <ele>900</ele>
        <time>2021-10-16T06:11:15.000Z</time>
      </trkpt>
      <trkpt lat="45.22336" lon="5.74029">
        <ele>901</ele>
        <time>2021-10-16T06:11:19.000Z</time>
      </trkpt>
      <trkpt lat="45.22337" lon="5.74029">
        <ele>901.40002441406</ele>
        <time>2021-10-16T06:11:20.000Z</time>
      </trkpt>
      <trkpt lat="45.22341" lon="5.74031">
        <ele>901.59997558594</ele>
        <time>2021-10-16T06:11:23.000Z</time>
      </trkpt>
      <trkpt lat="45.22345" lon="5.74033">
        <ele>902</ele>
        <time>2021-10-16T06:11:25.000Z</time>
      </trkpt>
      <trkpt lat="45.22347" lon="5.74034">
        <ele>902.79998779297</ele>
        <time>2021-10-16T06:11:26.000Z</time>
      </trkpt>
      <trkpt lat="45.22358" lon="5.74042">
        <ele>902.79998779297</ele>
        <time>2021-10-16T06:11:31.000Z</time>
      </trkpt>
      <trkpt lat="45.2236" lon="5.74044">
        <ele>902.79998779297</ele>
        <time>2021-10-16T06:11:32.000Z</time>
      </trkpt>
      <trkpt lat="45.22362" lon="5.74045">
        <ele>902.79998779297</ele>
        <time>2021-10-16T06:11:33.000Z</time>
      </trkpt>
      <trkpt lat="45.2237" lon="5.74054">
        <ele>902.59997558594</ele>
        <time>2021-10-16T06:11:38.000Z</time>
      </trkpt>
      <trkpt lat="45.22377" lon="5.74064">
        <ele>902.40002441406</ele>
        <time>2021-10-16T06:11:42.000Z</time>
      </trkpt>
      <trkpt lat="45.22382" lon="5.74065">
        <ele>902.20001220703</ele>
        <time>2021-10-16T06:11:44.000Z</time>
      </trkpt>
      <trkpt lat="45.22384" lon="5.74065">
        <ele>902.20001220703</ele>
        <time>2021-10-16T06:11:45.000Z</time>
      </trkpt>
      <trkpt lat="45.22393" lon="5.74064">
        <ele>902.40002441406</ele>
        <time>2021-10-16T06:11:50.000Z</time>
      </trkpt>
      <trkpt lat="45.22399" lon="5.74065">
        <ele>902.59997558594</ele>
        <time>2021-10-16T06:11:53.000Z</time>
      </trkpt>
      <trkpt lat="45.22401" lon="5.74065">
        <ele>903.20001220703</ele>
        <time>2021-10-16T06:11:54.000Z</time>
      </trkpt>
      <trkpt lat="45.22403" lon="5.74065">
        <ele>903.59997558594</ele>
        <time>2021-10-16T06:11:56.000Z</time>
      </trkpt>
      <trkpt lat="45.22408" lon="5.74065">
        <ele>904.40002441406</ele>
        <time>2021-10-16T06:11:59.000Z</time>
      </trkpt>
      <trkpt lat="45.22412" lon="5.74066">
        <ele>905.59997558594</ele>
        <time>2021-10-16T06:12:01.000Z</time>
      </trkpt>
      <trkpt lat="45.22413" lon="5.74066">
        <ele>906.20001220703</ele>
        <time>2021-10-16T06:12:03.000Z</time>
      </trkpt>
      <trkpt lat="45.22414" lon="5.74066">
        <ele>906.20001220703</ele>
        <time>2021-10-16T06:12:05.000Z</time>
      </trkpt>
      <trkpt lat="45.22415" lon="5.74066">
        <ele>907.20001220703</ele>
        <time>2021-10-16T06:12:06.000Z</time>
      </trkpt>
      <trkpt lat="45.22419" lon="5.74065">
        <ele>907.59997558594</ele>
        <time>2021-10-16T06:12:08.000Z</time>
      </trkpt>
      <trkpt lat="45.22421" lon="5.74065">
        <ele>907.59997558594</ele>
        <time>2021-10-16T06:12:10.000Z</time>
      </trkpt>
      <trkpt lat="45.22423" lon="5.74062">
        <ele>908.59997558594</ele>
        <time>2021-10-16T06:12:14.000Z</time>
      </trkpt>
      <trkpt lat="45.22424" lon="5.7406">
        <ele>909.40002441406</ele>
        <time>2021-10-16T06:12:16.000Z</time>
      </trkpt>
      <trkpt lat="45.22424" lon="5.74058">
        <ele>909.79998779297</ele>
        <time>2021-10-16T06:12:18.000Z</time>
      </trkpt>
      <trkpt lat="45.22425" lon="5.74054">
        <ele>911.40002441406</ele>
        <time>2021-10-16T06:12:22.000Z</time>
      </trkpt>
      <trkpt lat="45.22426" lon="5.74053">
        <ele>911.59997558594</ele>
        <time>2021-10-16T06:12:23.000Z</time>
      </trkpt>
      <trkpt lat="45.22427" lon="5.74052">
        <ele>912</ele>
        <time>2021-10-16T06:12:24.000Z</time>
      </trkpt>
      <trkpt lat="45.22429" lon="5.7405">
        <ele>912.59997558594</ele>
        <time>2021-10-16T06:12:27.000Z</time>
      </trkpt>
      <trkpt lat="45.22428" lon="5.74048">
        <ele>912.79998779297</ele>
        <time>2021-10-16T06:12:29.000Z</time>
      </trkpt>
      <trkpt lat="45.22429" lon="5.74047">
        <ele>913.79998779297</ele>
        <time>2021-10-16T06:12:31.000Z</time>
      </trkpt>
      <trkpt lat="45.2243" lon="5.74047">
        <ele>913.79998779297</ele>
        <time>2021-10-16T06:12:32.000Z</time>
      </trkpt>
      <trkpt lat="45.22432" lon="5.74045">
        <ele>914.59997558594</ele>
        <time>2021-10-16T06:12:34.000Z</time>
      </trkpt>
      <trkpt lat="45.22432" lon="5.74044">
        <ele>915</ele>
        <time>2021-10-16T06:12:35.000Z</time>
      </trkpt>
      <trkpt lat="45.22434" lon="5.74041">
        <ele>915.20001220703</ele>
        <time>2021-10-16T06:12:38.000Z</time>
      </trkpt>
      <trkpt lat="45.22435" lon="5.74039">
        <ele>916.40002441406</ele>
        <time>2021-10-16T06:12:40.000Z</time>
      </trkpt>
      <trkpt lat="45.22438" lon="5.74037">
        <ele>917.40002441406</ele>
        <time>2021-10-16T06:12:43.000Z</time>
      </trkpt>
      <trkpt lat="45.2244" lon="5.74035">
        <ele>918</ele>
        <time>2021-10-16T06:12:46.000Z</time>
      </trkpt>
      <trkpt lat="45.22442" lon="5.74033">
        <ele>918.40002441406</ele>
        <time>2021-10-16T06:12:48.000Z</time>
      </trkpt>
      <trkpt lat="45.22447" lon="5.74032">
        <ele>919.79998779297</ele>
        <time>2021-10-16T06:12:52.000Z</time>
      </trkpt>
      <trkpt lat="45.22447" lon="5.74031">
        <ele>920.20001220703</ele>
        <time>2021-10-16T06:12:54.000Z</time>
      </trkpt>
      <trkpt lat="45.22447" lon="5.74027">
        <ele>921.20001220703</ele>
        <time>2021-10-16T06:12:57.000Z</time>
      </trkpt>
      <trkpt lat="45.22448" lon="5.74023">
        <ele>921.79998779297</ele>
        <time>2021-10-16T06:13:00.000Z</time>
      </trkpt>
      <trkpt lat="45.22449" lon="5.74021">
        <ele>922.40002441406</ele>
        <time>2021-10-16T06:13:01.000Z</time>
      </trkpt>
      <trkpt lat="45.22449" lon="5.74016">
        <ele>923</ele>
        <time>2021-10-16T06:13:05.000Z</time>
      </trkpt>
      <trkpt lat="45.22449" lon="5.74014">
        <ele>923.59997558594</ele>
        <time>2021-10-16T06:13:07.000Z</time>
      </trkpt>
      <trkpt lat="45.22449" lon="5.74014">
        <ele>924</ele>
        <time>2021-10-16T06:13:08.000Z</time>
      </trkpt>
      <trkpt lat="45.22449" lon="5.74013">
        <ele>924.79998779297</ele>
        <time>2021-10-16T06:13:10.000Z</time>
      </trkpt>
      <trkpt lat="45.22449" lon="5.74012">
        <ele>925.20001220703</ele>
        <time>2021-10-16T06:13:11.000Z</time>
      </trkpt>
      <trkpt lat="45.2245" lon="5.74007">
        <ele>925.79998779297</ele>
        <time>2021-10-16T06:13:14.000Z</time>
      </trkpt>
      <trkpt lat="45.22449" lon="5.74004">
        <ele>926.79998779297</ele>
        <time>2021-10-16T06:13:16.000Z</time>
      </trkpt>
      <trkpt lat="45.22449" lon="5.74002">
        <ele>927</ele>
        <time>2021-10-16T06:13:17.000Z</time>
      </trkpt>
      <trkpt lat="45.2245" lon="5.74001">
        <ele>927.20001220703</ele>
        <time>2021-10-16T06:13:19.000Z</time>
      </trkpt>
      <trkpt lat="45.2245" lon="5.74">
        <ele>927.40002441406</ele>
        <time>2021-10-16T06:13:21.000Z</time>
      </trkpt>
      <trkpt lat="45.2245" lon="5.73998">
        <ele>928</ele>
        <time>2021-10-16T06:13:23.000Z</time>
      </trkpt>
      <trkpt lat="45.2245" lon="5.73995">
        <ele>929.20001220703</ele>
        <time>2021-10-16T06:13:25.000Z</time>
      </trkpt>
      <trkpt lat="45.22452" lon="5.73994">
        <ele>929.79998779297</ele>
        <time>2021-10-16T06:13:27.000Z</time>
      </trkpt>
      <trkpt lat="45.22453" lon="5.73994">
        <ele>930.40002441406</ele>
        <time>2021-10-16T06:13:29.000Z</time>
      </trkpt>
      <trkpt lat="45.22455" lon="5.73993">
        <ele>931</ele>
        <time>2021-10-16T06:13:31.000Z</time>
      </trkpt>
      <trkpt lat="45.22455" lon="5.73992">
        <ele>931.59997558594</ele>
        <time>2021-10-16T06:13:33.000Z</time>
      </trkpt>
      <trkpt lat="45.22455" lon="5.73991">
        <ele>932</ele>
        <time>2021-10-16T06:13:34.000Z</time>
      </trkpt>
      <trkpt lat="45.22454" lon="5.7399">
        <ele>932.20001220703</ele>
        <time>2021-10-16T06:13:35.000Z</time>
      </trkpt>
      <trkpt lat="45.22452" lon="5.73986">
        <ele>932.40002441406</ele>
        <time>2021-10-16T06:13:38.000Z</time>
      </trkpt>
      <trkpt lat="45.22451" lon="5.73985">
        <ele>932.59997558594</ele>
        <time>2021-10-16T06:13:39.000Z</time>
      </trkpt>
      <trkpt lat="45.2245" lon="5.73982">
        <ele>932.59997558594</ele>
        <time>2021-10-16T06:13:41.000Z</time>
      </trkpt>
      <trkpt lat="45.22449" lon="5.73981">
        <ele>933</ele>
        <time>2021-10-16T06:13:42.000Z</time>
      </trkpt>
      <trkpt lat="45.22447" lon="5.73978">
        <ele>933.40002441406</ele>
        <time>2021-10-16T06:13:46.000Z</time>
      </trkpt>
      <trkpt lat="45.22446" lon="5.73977">
        <ele>933.59997558594</ele>
        <time>2021-10-16T06:13:47.000Z</time>
      </trkpt>
      <trkpt lat="45.22443" lon="5.73972">
        <ele>934.20001220703</ele>
        <time>2021-10-16T06:13:52.000Z</time>
      </trkpt>
      <trkpt lat="45.22442" lon="5.73971">
        <ele>934.40002441406</ele>
        <time>2021-10-16T06:13:53.000Z</time>
      </trkpt>
      <trkpt lat="45.22442" lon="5.73969">
        <ele>934.79998779297</ele>
        <time>2021-10-16T06:13:54.000Z</time>
      </trkpt>
      <trkpt lat="45.22441" lon="5.73968">
        <ele>935.40002441406</ele>
        <time>2021-10-16T06:13:55.000Z</time>
      </trkpt>
      <trkpt lat="45.22439" lon="5.73965">
        <ele>935.59997558594</ele>
        <time>2021-10-16T06:13:59.000Z</time>
      </trkpt>
      <trkpt lat="45.22439" lon="5.73963">
        <ele>936.40002441406</ele>
        <time>2021-10-16T06:14:00.000Z</time>
      </trkpt>
      <trkpt lat="45.2244" lon="5.73962">
        <ele>936.59997558594</ele>
        <time>2021-10-16T06:14:01.000Z</time>
      </trkpt>
      <trkpt lat="45.22442" lon="5.73962">
        <ele>937.40002441406</ele>
        <time>2021-10-16T06:14:03.000Z</time>
      </trkpt>
      <trkpt lat="45.22444" lon="5.73959">
        <ele>937.79998779297</ele>
        <time>2021-10-16T06:14:08.000Z</time>
      </trkpt>
      <trkpt lat="45.22444" lon="5.73957">
        <ele>938.79998779297</ele>
        <time>2021-10-16T06:14:10.000Z</time>
      </trkpt>
      <trkpt lat="45.22445" lon="5.73956">
        <ele>939.40002441406</ele>
        <time>2021-10-16T06:14:11.000Z</time>
      </trkpt>
      <trkpt lat="45.22445" lon="5.73955">
        <ele>939.40002441406</ele>
        <time>2021-10-16T06:14:12.000Z</time>
      </trkpt>
      <trkpt lat="45.22445" lon="5.73951">
        <ele>940.79998779297</ele>
        <time>2021-10-16T06:14:17.000Z</time>
      </trkpt>
      <trkpt lat="45.22445" lon="5.73947">
        <ele>941.79998779297</ele>
        <time>2021-10-16T06:14:20.000Z</time>
      </trkpt>
      <trkpt lat="45.22446" lon="5.73942">
        <ele>942.20001220703</ele>
        <time>2021-10-16T06:14:24.000Z</time>
      </trkpt>
      <trkpt lat="45.22448" lon="5.73941">
        <ele>943.20001220703</ele>
        <time>2021-10-16T06:14:27.000Z</time>
      </trkpt>
      <trkpt lat="45.22448" lon="5.73938">
        <ele>944.40002441406</ele>
        <time>2021-10-16T06:14:30.000Z</time>
      </trkpt>
      <trkpt lat="45.22448" lon="5.73935">
        <ele>945.40002441406</ele>
        <time>2021-10-16T06:14:33.000Z</time>
      </trkpt>
      <trkpt lat="45.22448" lon="5.73934">
        <ele>945.79998779297</ele>
        <time>2021-10-16T06:14:34.000Z</time>
      </trkpt>
      <trkpt lat="45.22447" lon="5.7393">
        <ele>946.79998779297</ele>
        <time>2021-10-16T06:14:38.000Z</time>
      </trkpt>
      <trkpt lat="45.22447" lon="5.73928">
        <ele>947.20001220703</ele>
        <time>2021-10-16T06:14:40.000Z</time>
      </trkpt>
      <trkpt lat="45.22447" lon="5.73925">
        <ele>948.20001220703</ele>
        <time>2021-10-16T06:14:43.000Z</time>
      </trkpt>
      <trkpt lat="45.22447" lon="5.73923">
        <ele>949.40002441406</ele>
        <time>2021-10-16T06:14:47.000Z</time>
      </trkpt>
      <trkpt lat="45.22446" lon="5.7392">
        <ele>950.59997558594</ele>
        <time>2021-10-16T06:14:50.000Z</time>
      </trkpt>
      <trkpt lat="45.22444" lon="5.73919">
        <ele>951.79998779297</ele>
        <time>2021-10-16T06:14:52.000Z</time>
      </trkpt>
      <trkpt lat="45.22443" lon="5.73918">
        <ele>951.79998779297</ele>
        <time>2021-10-16T06:14:53.000Z</time>
      </trkpt>
      <trkpt lat="45.2244" lon="5.73914">
        <ele>952.59997558594</ele>
        <time>2021-10-16T06:15:00.000Z</time>
      </trkpt>
      <trkpt lat="45.2244" lon="5.73914">
        <ele>953</ele>
        <time>2021-10-16T06:15:01.000Z</time>
      </trkpt>
      <trkpt lat="45.22439" lon="5.73913">
        <ele>954</ele>
        <time>2021-10-16T06:15:04.000Z</time>
      </trkpt>
      <trkpt lat="45.22438" lon="5.73912">
        <ele>954.40002441406</ele>
        <time>2021-10-16T06:15:06.000Z</time>
      </trkpt>
      <trkpt lat="45.22439" lon="5.73909">
        <ele>955.20001220703</ele>
        <time>2021-10-16T06:15:08.000Z</time>
      </trkpt>
      <trkpt lat="45.22437" lon="5.73903">
        <ele>956</ele>
        <time>2021-10-16T06:15:12.000Z</time>
      </trkpt>
      <trkpt lat="45.22436" lon="5.73902">
        <ele>956.59997558594</ele>
        <time>2021-10-16T06:15:13.000Z</time>
      </trkpt>
      <trkpt lat="45.22434" lon="5.73899">
        <ele>957</ele>
        <time>2021-10-16T06:15:15.000Z</time>
      </trkpt>
      <trkpt lat="45.22435" lon="5.73896">
        <ele>957.20001220703</ele>
        <time>2021-10-16T06:15:17.000Z</time>
      </trkpt>
      <trkpt lat="45.22435" lon="5.73894">
        <ele>957.40002441406</ele>
        <time>2021-10-16T06:15:18.000Z</time>
      </trkpt>
      <trkpt lat="45.22435" lon="5.73893">
        <ele>957.79998779297</ele>
        <time>2021-10-16T06:15:19.000Z</time>
      </trkpt>
      <trkpt lat="45.22435" lon="5.7389">
        <ele>958.59997558594</ele>
        <time>2021-10-16T06:15:22.000Z</time>
      </trkpt>
      <trkpt lat="45.22436" lon="5.73889">
        <ele>958.79998779297</ele>
        <time>2021-10-16T06:15:23.000Z</time>
      </trkpt>
      <trkpt lat="45.22436" lon="5.73888">
        <ele>959.40002441406</ele>
        <time>2021-10-16T06:15:24.000Z</time>
      </trkpt>
      <trkpt lat="45.22436" lon="5.73887">
        <ele>959.79998779297</ele>
        <time>2021-10-16T06:15:26.000Z</time>
      </trkpt>
      <trkpt lat="45.22436" lon="5.73886">
        <ele>960.40002441406</ele>
        <time>2021-10-16T06:15:27.000Z</time>
      </trkpt>
      <trkpt lat="45.22435" lon="5.73884">
        <ele>961.40002441406</ele>
        <time>2021-10-16T06:15:29.000Z</time>
      </trkpt>
      <trkpt lat="45.22433" lon="5.73882">
        <ele>961.79998779297</ele>
        <time>2021-10-16T06:15:31.000Z</time>
      </trkpt>
      <trkpt lat="45.22433" lon="5.73882">
        <ele>962</ele>
        <time>2021-10-16T06:15:32.000Z</time>
      </trkpt>
      <trkpt lat="45.22433" lon="5.73882">
        <ele>962.20001220703</ele>
        <time>2021-10-16T06:15:34.000Z</time>
      </trkpt>
      <trkpt lat="45.22433" lon="5.73883">
        <ele>963</ele>
        <time>2021-10-16T06:15:35.000Z</time>
      </trkpt>
      <trkpt lat="45.22434" lon="5.73881">
        <ele>963.40002441406</ele>
        <time>2021-10-16T06:15:38.000Z</time>
      </trkpt>
      <trkpt lat="45.22434" lon="5.73881">
        <ele>963.79998779297</ele>
        <time>2021-10-16T06:15:39.000Z</time>
      </trkpt>
      <trkpt lat="45.22435" lon="5.7388">
        <ele>964.20001220703</ele>
        <time>2021-10-16T06:15:40.000Z</time>
      </trkpt>
      <trkpt lat="45.22434" lon="5.73879">
        <ele>964.79998779297</ele>
        <time>2021-10-16T06:15:43.000Z</time>
      </trkpt>
      <trkpt lat="45.22434" lon="5.73878">
        <ele>965.59997558594</ele>
        <time>2021-10-16T06:15:45.000Z</time>
      </trkpt>
      <trkpt lat="45.22432" lon="5.73876">
        <ele>966.59997558594</ele>
        <time>2021-10-16T06:15:48.000Z</time>
      </trkpt>
      <trkpt lat="45.22432" lon="5.73875">
        <ele>966.79998779297</ele>
        <time>2021-10-16T06:15:50.000Z</time>
      </trkpt>
      <trkpt lat="45.22432" lon="5.73873">
        <ele>968</ele>
        <time>2021-10-16T06:15:53.000Z</time>
      </trkpt>
      <trkpt lat="45.22432" lon="5.73871">
        <ele>968.59997558594</ele>
        <time>2021-10-16T06:15:56.000Z</time>
      </trkpt>
      <trkpt lat="45.22435" lon="5.73869">
        <ele>969.20001220703</ele>
        <time>2021-10-16T06:15:59.000Z</time>
      </trkpt>
      <trkpt lat="45.22435" lon="5.73867">
        <ele>970</ele>
        <time>2021-10-16T06:16:01.000Z</time>
      </trkpt>
      <trkpt lat="45.22433" lon="5.73866">
        <ele>970.20001220703</ele>
        <time>2021-10-16T06:16:04.000Z</time>
      </trkpt>
      <trkpt lat="45.22431" lon="5.73862">
        <ele>971.79998779297</ele>
        <time>2021-10-16T06:16:07.000Z</time>
      </trkpt>
      <trkpt lat="45.22431" lon="5.73861">
        <ele>972</ele>
        <time>2021-10-16T06:16:08.000Z</time>
      </trkpt>
      <trkpt lat="45.22431" lon="5.73858">
        <ele>973</ele>
        <time>2021-10-16T06:16:11.000Z</time>
      </trkpt>
      <trkpt lat="45.2243" lon="5.73855">
        <ele>974.40002441406</ele>
        <time>2021-10-16T06:16:15.000Z</time>
      </trkpt>
      <trkpt lat="45.2243" lon="5.73851">
        <ele>975.40002441406</ele>
        <time>2021-10-16T06:16:19.000Z</time>
      </trkpt>
      <trkpt lat="45.22429" lon="5.73849">
        <ele>976.40002441406</ele>
        <time>2021-10-16T06:16:23.000Z</time>
      </trkpt>
      <trkpt lat="45.22428" lon="5.73848">
        <ele>976.59997558594</ele>
        <time>2021-10-16T06:16:24.000Z</time>
      </trkpt>
      <trkpt lat="45.22427" lon="5.73844">
        <ele>978</ele>
        <time>2021-10-16T06:16:27.000Z</time>
      </trkpt>
      <trkpt lat="45.22425" lon="5.73843">
        <ele>978.79998779297</ele>
        <time>2021-10-16T06:16:31.000Z</time>
      </trkpt>
      <trkpt lat="45.22425" lon="5.73843">
        <ele>979.20001220703</ele>
        <time>2021-10-16T06:16:32.000Z</time>
      </trkpt>
      <trkpt lat="45.22421" lon="5.7384">
        <ele>979.79998779297</ele>
        <time>2021-10-16T06:16:38.000Z</time>
      </trkpt>
      <trkpt lat="45.22419" lon="5.73841">
        <ele>980.40002441406</ele>
        <time>2021-10-16T06:16:40.000Z</time>
      </trkpt>
      <trkpt lat="45.22414" lon="5.7384">
        <ele>980.79998779297</ele>
        <time>2021-10-16T06:16:44.000Z</time>
      </trkpt>
      <trkpt lat="45.22412" lon="5.73838">
        <ele>981.40002441406</ele>
        <time>2021-10-16T06:16:46.000Z</time>
      </trkpt>
      <trkpt lat="45.22408" lon="5.73833">
        <ele>982</ele>
        <time>2021-10-16T06:16:50.000Z</time>
      </trkpt>
      <trkpt lat="45.22407" lon="5.73829">
        <ele>982.59997558594</ele>
        <time>2021-10-16T06:16:51.000Z</time>
      </trkpt>
      <trkpt lat="45.22408" lon="5.73822">
        <ele>983.40002441406</ele>
        <time>2021-10-16T06:16:54.000Z</time>
      </trkpt>
      <trkpt lat="45.22408" lon="5.73821">
        <ele>983.59997558594</ele>
        <time>2021-10-16T06:16:55.000Z</time>
      </trkpt>
      <trkpt lat="45.22405" lon="5.73817">
        <ele>984.59997558594</ele>
        <time>2021-10-16T06:16:58.000Z</time>
      </trkpt>
      <trkpt lat="45.22403" lon="5.73815">
        <ele>984.59997558594</ele>
        <time>2021-10-16T06:17:00.000Z</time>
      </trkpt>
      <trkpt lat="45.22401" lon="5.73814">
        <ele>984.59997558594</ele>
        <time>2021-10-16T06:17:01.000Z</time>
      </trkpt>
      <trkpt lat="45.22393" lon="5.73813">
        <ele>984.59997558594</ele>
        <time>2021-10-16T06:17:05.000Z</time>
      </trkpt>
      <trkpt lat="45.22384" lon="5.73808">
        <ele>984.40002441406</ele>
        <time>2021-10-16T06:17:11.000Z</time>
      </trkpt>
      <trkpt lat="45.22376" lon="5.73807">
        <ele>984.59997558594</ele>
        <time>2021-10-16T06:17:16.000Z</time>
      </trkpt>
      <trkpt lat="45.22376" lon="5.73806">
        <ele>984.79998779297</ele>
        <time>2021-10-16T06:17:17.000Z</time>
      </trkpt>
      <trkpt lat="45.22371" lon="5.73794">
        <ele>985</ele>
        <time>2021-10-16T06:17:22.000Z</time>
      </trkpt>
      <trkpt lat="45.22368" lon="5.73789">
        <ele>985</ele>
        <time>2021-10-16T06:17:24.000Z</time>
      </trkpt>
      <trkpt lat="45.22363" lon="5.7377">
        <ele>985</ele>
        <time>2021-10-16T06:17:30.000Z</time>
      </trkpt>
      <trkpt lat="45.22364" lon="5.7375">
        <ele>985.20001220703</ele>
        <time>2021-10-16T06:17:36.000Z</time>
      </trkpt>
      <trkpt lat="45.22365" lon="5.73741">
        <ele>984.40002441406</ele>
        <time>2021-10-16T06:17:40.000Z</time>
      </trkpt>
      <trkpt lat="45.22365" lon="5.73735">
        <ele>984</ele>
        <time>2021-10-16T06:17:42.000Z</time>
      </trkpt>
      <trkpt lat="45.22365" lon="5.73733">
        <ele>983.59997558594</ele>
        <time>2021-10-16T06:17:43.000Z</time>
      </trkpt>
      <trkpt lat="45.22369" lon="5.73723">
        <ele>983.59997558594</ele>
        <time>2021-10-16T06:17:46.000Z</time>
      </trkpt>
      <trkpt lat="45.22365" lon="5.73699">
        <ele>984</ele>
        <time>2021-10-16T06:17:53.000Z</time>
      </trkpt>
      <trkpt lat="45.22369" lon="5.73692">
        <ele>984.59997558594</ele>
        <time>2021-10-16T06:17:57.000Z</time>
      </trkpt>
      <trkpt lat="45.22377" lon="5.73681">
        <ele>983.40002441406</ele>
        <time>2021-10-16T06:18:02.000Z</time>
      </trkpt>
      <trkpt lat="45.22378" lon="5.73673">
        <ele>982.59997558594</ele>
        <time>2021-10-16T06:18:05.000Z</time>
      </trkpt>
      <trkpt lat="45.22379" lon="5.73664">
        <ele>981.59997558594</ele>
        <time>2021-10-16T06:18:10.000Z</time>
      </trkpt>
      <trkpt lat="45.22379" lon="5.73659">
        <ele>980.59997558594</ele>
        <time>2021-10-16T06:18:12.000Z</time>
      </trkpt>
      <trkpt lat="45.22379" lon="5.73655">
        <ele>979.79998779297</ele>
        <time>2021-10-16T06:18:14.000Z</time>
      </trkpt>
      <trkpt lat="45.22378" lon="5.73649">
        <ele>979.40002441406</ele>
        <time>2021-10-16T06:18:16.000Z</time>
      </trkpt>
      <trkpt lat="45.2238" lon="5.73647">
        <ele>978.79998779297</ele>
        <time>2021-10-16T06:18:17.000Z</time>
      </trkpt>
      <trkpt lat="45.22383" lon="5.73639">
        <ele>977.59997558594</ele>
        <time>2021-10-16T06:18:20.000Z</time>
      </trkpt>
      <trkpt lat="45.22381" lon="5.73633">
        <ele>976.59997558594</ele>
        <time>2021-10-16T06:18:23.000Z</time>
      </trkpt>
      <trkpt lat="45.2238" lon="5.73631">
        <ele>976</ele>
        <time>2021-10-16T06:18:24.000Z</time>
      </trkpt>
      <trkpt lat="45.2238" lon="5.73629">
        <ele>975.20001220703</ele>
        <time>2021-10-16T06:18:26.000Z</time>
      </trkpt>
      <trkpt lat="45.2238" lon="5.73625">
        <ele>974</ele>
        <time>2021-10-16T06:18:29.000Z</time>
      </trkpt>
      <trkpt lat="45.2238" lon="5.73623">
        <ele>974</ele>
        <time>2021-10-16T06:18:30.000Z</time>
      </trkpt>
      <trkpt lat="45.22379" lon="5.73618">
        <ele>972.40002441406</ele>
        <time>2021-10-16T06:18:33.000Z</time>
      </trkpt>
      <trkpt lat="45.2238" lon="5.73617">
        <ele>972.20001220703</ele>
        <time>2021-10-16T06:18:34.000Z</time>
      </trkpt>
      <trkpt lat="45.22379" lon="5.73615">
        <ele>972</ele>
        <time>2021-10-16T06:18:35.000Z</time>
      </trkpt>
      <trkpt lat="45.22377" lon="5.73605">
        <ele>970.79998779297</ele>
        <time>2021-10-16T06:18:38.000Z</time>
      </trkpt>
      <trkpt lat="45.22376" lon="5.73601">
        <ele>969.79998779297</ele>
        <time>2021-10-16T06:18:41.000Z</time>
      </trkpt>
      <trkpt lat="45.22377" lon="5.73597">
        <ele>968.59997558594</ele>
        <time>2021-10-16T06:18:43.000Z</time>
      </trkpt>
      <trkpt lat="45.22378" lon="5.73593">
        <ele>967.59997558594</ele>
        <time>2021-10-16T06:18:46.000Z</time>
      </trkpt>
      <trkpt lat="45.22378" lon="5.73591">
        <ele>967.40002441406</ele>
        <time>2021-10-16T06:18:47.000Z</time>
      </trkpt>
      <trkpt lat="45.2238" lon="5.73589">
        <ele>966.40002441406</ele>
        <time>2021-10-16T06:18:48.000Z</time>
      </trkpt>
      <trkpt lat="45.22381" lon="5.73587">
        <ele>966.40002441406</ele>
        <time>2021-10-16T06:18:49.000Z</time>
      </trkpt>
      <trkpt lat="45.22381" lon="5.73584">
        <ele>965.59997558594</ele>
        <time>2021-10-16T06:18:51.000Z</time>
      </trkpt>
      <trkpt lat="45.22381" lon="5.73583">
        <ele>965</ele>
        <time>2021-10-16T06:18:52.000Z</time>
      </trkpt>
      <trkpt lat="45.22379" lon="5.73579">
        <ele>964.59997558594</ele>
        <time>2021-10-16T06:18:54.000Z</time>
      </trkpt>
      <trkpt lat="45.22379" lon="5.73578">
        <ele>963.79998779297</ele>
        <time>2021-10-16T06:18:55.000Z</time>
      </trkpt>
      <trkpt lat="45.22378" lon="5.73575">
        <ele>962.79998779297</ele>
        <time>2021-10-16T06:18:57.000Z</time>
      </trkpt>
      <trkpt lat="45.22379" lon="5.73574">
        <ele>962.79998779297</ele>
        <time>2021-10-16T06:18:58.000Z</time>
      </trkpt>
      <trkpt lat="45.22379" lon="5.73573">
        <ele>962.59997558594</ele>
        <time>2021-10-16T06:18:59.000Z</time>
      </trkpt>
      <trkpt lat="45.22378" lon="5.73572">
        <ele>962</ele>
        <time>2021-10-16T06:19:00.000Z</time>
      </trkpt>
      <trkpt lat="45.22379" lon="5.73569">
        <ele>961.40002441406</ele>
        <time>2021-10-16T06:19:02.000Z</time>
      </trkpt>
      <trkpt lat="45.22378" lon="5.73567">
        <ele>960.20001220703</ele>
        <time>2021-10-16T06:19:04.000Z</time>
      </trkpt>
      <trkpt lat="45.22377" lon="5.73565">
        <ele>960</ele>
        <time>2021-10-16T06:19:05.000Z</time>
      </trkpt>
      <trkpt lat="45.22376" lon="5.7356">
        <ele>958.59997558594</ele>
        <time>2021-10-16T06:19:08.000Z</time>
      </trkpt>
      <trkpt lat="45.22376" lon="5.73553">
        <ele>958.40002441406</ele>
        <time>2021-10-16T06:19:11.000Z</time>
      </trkpt>
      <trkpt lat="45.22378" lon="5.73551">
        <ele>957.59997558594</ele>
        <time>2021-10-16T06:19:12.000Z</time>
      </trkpt>
      <trkpt lat="45.22379" lon="5.73548">
        <ele>955.79998779297</ele>
        <time>2021-10-16T06:19:14.000Z</time>
      </trkpt>
      <trkpt lat="45.22379" lon="5.73546">
        <ele>955.79998779297</ele>
        <time>2021-10-16T06:19:15.000Z</time>
      </trkpt>
      <trkpt lat="45.22379" lon="5.73541">
        <ele>954.59997558594</ele>
        <time>2021-10-16T06:19:17.000Z</time>
      </trkpt>
      <trkpt lat="45.22382" lon="5.73535">
        <ele>953.40002441406</ele>
        <time>2021-10-16T06:19:20.000Z</time>
      </trkpt>
      <trkpt lat="45.22384" lon="5.73529">
        <ele>952</ele>
        <time>2021-10-16T06:19:22.000Z</time>
      </trkpt>
      <trkpt lat="45.22384" lon="5.73524">
        <ele>950.79998779297</ele>
        <time>2021-10-16T06:19:24.000Z</time>
      </trkpt>
      <trkpt lat="45.22387" lon="5.73519">
        <ele>949</ele>
        <time>2021-10-16T06:19:27.000Z</time>
      </trkpt>
      <trkpt lat="45.22392" lon="5.73515">
        <ele>948</ele>
        <time>2021-10-16T06:19:30.000Z</time>
      </trkpt>
      <trkpt lat="45.22394" lon="5.73514">
        <ele>947.79998779297</ele>
        <time>2021-10-16T06:19:31.000Z</time>
      </trkpt>
      <trkpt lat="45.22398" lon="5.7351">
        <ele>946.59997558594</ele>
        <time>2021-10-16T06:19:34.000Z</time>
      </trkpt>
      <trkpt lat="45.224" lon="5.73508">
        <ele>945.59997558594</ele>
        <time>2021-10-16T06:19:35.000Z</time>
      </trkpt>
      <trkpt lat="45.22404" lon="5.73505">
        <ele>945.40002441406</ele>
        <time>2021-10-16T06:19:37.000Z</time>
      </trkpt>
      <trkpt lat="45.22406" lon="5.73502">
        <ele>944.40002441406</ele>
        <time>2021-10-16T06:19:38.000Z</time>
      </trkpt>
      <trkpt lat="45.22408" lon="5.73498">
        <ele>943.20001220703</ele>
        <time>2021-10-16T06:19:40.000Z</time>
      </trkpt>
      <trkpt lat="45.22412" lon="5.73496">
        <ele>942.20001220703</ele>
        <time>2021-10-16T06:19:44.000Z</time>
      </trkpt>
      <trkpt lat="45.22415" lon="5.73493">
        <ele>940.59997558594</ele>
        <time>2021-10-16T06:19:47.000Z</time>
      </trkpt>
      <trkpt lat="45.22418" lon="5.7349">
        <ele>939.79998779297</ele>
        <time>2021-10-16T06:19:50.000Z</time>
      </trkpt>
      <trkpt lat="45.22419" lon="5.7349">
        <ele>939</ele>
        <time>2021-10-16T06:19:51.000Z</time>
      </trkpt>
      <trkpt lat="45.2242" lon="5.73491">
        <ele>938.59997558594</ele>
        <time>2021-10-16T06:19:52.000Z</time>
      </trkpt>
      <trkpt lat="45.22423" lon="5.73491">
        <ele>938.20001220703</ele>
        <time>2021-10-16T06:19:54.000Z</time>
      </trkpt>
      <trkpt lat="45.22425" lon="5.7349">
        <ele>937.79998779297</ele>
        <time>2021-10-16T06:19:55.000Z</time>
      </trkpt>
      <trkpt lat="45.22427" lon="5.73487">
        <ele>936.79998779297</ele>
        <time>2021-10-16T06:19:57.000Z</time>
      </trkpt>
      <trkpt lat="45.22434" lon="5.73479">
        <ele>936</ele>
        <time>2021-10-16T06:20:01.000Z</time>
      </trkpt>
      <trkpt lat="45.22436" lon="5.73478">
        <ele>935.20001220703</ele>
        <time>2021-10-16T06:20:02.000Z</time>
      </trkpt>
      <trkpt lat="45.22442" lon="5.73473">
        <ele>933.79998779297</ele>
        <time>2021-10-16T06:20:05.000Z</time>
      </trkpt>
      <trkpt lat="45.22446" lon="5.73468">
        <ele>933</ele>
        <time>2021-10-16T06:20:08.000Z</time>
      </trkpt>
      <trkpt lat="45.22448" lon="5.73463">
        <ele>932</ele>
        <time>2021-10-16T06:20:10.000Z</time>
      </trkpt>
      <trkpt lat="45.22449" lon="5.7346">
        <ele>930.79998779297</ele>
        <time>2021-10-16T06:20:12.000Z</time>
      </trkpt>
      <trkpt lat="45.22452" lon="5.73457">
        <ele>930.59997558594</ele>
        <time>2021-10-16T06:20:14.000Z</time>
      </trkpt>
      <trkpt lat="45.22452" lon="5.73456">
        <ele>930</ele>
        <time>2021-10-16T06:20:15.000Z</time>
      </trkpt>
      <trkpt lat="45.22453" lon="5.73455">
        <ele>929.40002441406</ele>
        <time>2021-10-16T06:20:16.000Z</time>
      </trkpt>
      <trkpt lat="45.22453" lon="5.73453">
        <ele>928.79998779297</ele>
        <time>2021-10-16T06:20:18.000Z</time>
      </trkpt>
      <trkpt lat="45.22453" lon="5.73452">
        <ele>928.79998779297</ele>
        <time>2021-10-16T06:20:19.000Z</time>
      </trkpt>
      <trkpt lat="45.22452" lon="5.73452">
        <ele>928</ele>
        <time>2021-10-16T06:20:20.000Z</time>
      </trkpt>
      <trkpt lat="45.22455" lon="5.73442">
        <ele>926.40002441406</ele>
        <time>2021-10-16T06:20:23.000Z</time>
      </trkpt>
      <trkpt lat="45.22456" lon="5.73439">
        <ele>926</ele>
        <time>2021-10-16T06:20:24.000Z</time>
      </trkpt>
      <trkpt lat="45.2246" lon="5.73438">
        <ele>925</ele>
        <time>2021-10-16T06:20:27.000Z</time>
      </trkpt>
      <trkpt lat="45.22462" lon="5.73436">
        <ele>923.59997558594</ele>
        <time>2021-10-16T06:20:30.000Z</time>
      </trkpt>
      <trkpt lat="45.22463" lon="5.73434">
        <ele>922.40002441406</ele>
        <time>2021-10-16T06:20:32.000Z</time>
      </trkpt>
      <trkpt lat="45.22464" lon="5.73433">
        <ele>922</ele>
        <time>2021-10-16T06:20:33.000Z</time>
      </trkpt>
      <trkpt lat="45.22465" lon="5.73429">
        <ele>921.40002441406</ele>
        <time>2021-10-16T06:20:35.000Z</time>
      </trkpt>
      <trkpt lat="45.22466" lon="5.73428">
        <ele>921.20001220703</ele>
        <time>2021-10-16T06:20:36.000Z</time>
      </trkpt>
      <trkpt lat="45.22468" lon="5.73427">
        <ele>920.40002441406</ele>
        <time>2021-10-16T06:20:37.000Z</time>
      </trkpt>
      <trkpt lat="45.22469" lon="5.73427">
        <ele>920.20001220703</ele>
        <time>2021-10-16T06:20:38.000Z</time>
      </trkpt>
      <trkpt lat="45.22469" lon="5.73426">
        <ele>919.59997558594</ele>
        <time>2021-10-16T06:20:39.000Z</time>
      </trkpt>
      <trkpt lat="45.2247" lon="5.73425">
        <ele>919.20001220703</ele>
        <time>2021-10-16T06:20:40.000Z</time>
      </trkpt>
      <trkpt lat="45.22472" lon="5.73422">
        <ele>917.79998779297</ele>
        <time>2021-10-16T06:20:43.000Z</time>
      </trkpt>
      <trkpt lat="45.22474" lon="5.73419">
        <ele>917.20001220703</ele>
        <time>2021-10-16T06:20:45.000Z</time>
      </trkpt>
      <trkpt lat="45.22475" lon="5.73417">
        <ele>916.79998779297</ele>
        <time>2021-10-16T06:20:46.000Z</time>
      </trkpt>
      <trkpt lat="45.22476" lon="5.73416">
        <ele>916.20001220703</ele>
        <time>2021-10-16T06:20:47.000Z</time>
      </trkpt>
      <trkpt lat="45.22479" lon="5.73414">
        <ele>915.59997558594</ele>
        <time>2021-10-16T06:20:49.000Z</time>
      </trkpt>
      <trkpt lat="45.22481" lon="5.73411">
        <ele>914.59997558594</ele>
        <time>2021-10-16T06:20:51.000Z</time>
      </trkpt>
      <trkpt lat="45.22482" lon="5.7341">
        <ele>914</ele>
        <time>2021-10-16T06:20:52.000Z</time>
      </trkpt>
      <trkpt lat="45.22484" lon="5.7341">
        <ele>913</ele>
        <time>2021-10-16T06:20:54.000Z</time>
      </trkpt>
      <trkpt lat="45.22486" lon="5.73409">
        <ele>911.79998779297</ele>
        <time>2021-10-16T06:20:56.000Z</time>
      </trkpt>
      <trkpt lat="45.22487" lon="5.73408">
        <ele>911.59997558594</ele>
        <time>2021-10-16T06:20:57.000Z</time>
      </trkpt>
      <trkpt lat="45.22487" lon="5.73407">
        <ele>911.59997558594</ele>
        <time>2021-10-16T06:20:58.000Z</time>
      </trkpt>
      <trkpt lat="45.22489" lon="5.73405">
        <ele>910.59997558594</ele>
        <time>2021-10-16T06:21:00.000Z</time>
      </trkpt>
      <trkpt lat="45.22489" lon="5.73403">
        <ele>910</ele>
        <time>2021-10-16T06:21:01.000Z</time>
      </trkpt>
      <trkpt lat="45.22491" lon="5.73401">
        <ele>909.59997558594</ele>
        <time>2021-10-16T06:21:02.000Z</time>
      </trkpt>
      <trkpt lat="45.22492" lon="5.73401">
        <ele>908.79998779297</ele>
        <time>2021-10-16T06:21:03.000Z</time>
      </trkpt>
      <trkpt lat="45.22495" lon="5.73399">
        <ele>908</ele>
        <time>2021-10-16T06:21:05.000Z</time>
      </trkpt>
      <trkpt lat="45.225" lon="5.73395">
        <ele>907.20001220703</ele>
        <time>2021-10-16T06:21:07.000Z</time>
      </trkpt>
      <trkpt lat="45.22502" lon="5.73392">
        <ele>906.59997558594</ele>
        <time>2021-10-16T06:21:09.000Z</time>
      </trkpt>
      <trkpt lat="45.22506" lon="5.7339">
        <ele>905.59997558594</ele>
        <time>2021-10-16T06:21:11.000Z</time>
      </trkpt>
      <trkpt lat="45.22507" lon="5.73389">
        <ele>905.20001220703</ele>
        <time>2021-10-16T06:21:12.000Z</time>
      </trkpt>
      <trkpt lat="45.22511" lon="5.73389">
        <ele>903.79998779297</ele>
        <time>2021-10-16T06:21:14.000Z</time>
      </trkpt>
      <trkpt lat="45.22513" lon="5.73389">
        <ele>903.59997558594</ele>
        <time>2021-10-16T06:21:15.000Z</time>
      </trkpt>
      <trkpt lat="45.22519" lon="5.7339">
        <ele>902.79998779297</ele>
        <time>2021-10-16T06:21:18.000Z</time>
      </trkpt>
      <trkpt lat="45.2252" lon="5.7339">
        <ele>902.79998779297</ele>
        <time>2021-10-16T06:21:19.000Z</time>
      </trkpt>
      <trkpt lat="45.22524" lon="5.73391">
        <ele>901.20001220703</ele>
        <time>2021-10-16T06:21:21.000Z</time>
      </trkpt>
      <trkpt lat="45.22527" lon="5.7339">
        <ele>900.20001220703</ele>
        <time>2021-10-16T06:21:24.000Z</time>
      </trkpt>
      <trkpt lat="45.22528" lon="5.73389">
        <ele>900</ele>
        <time>2021-10-16T06:21:25.000Z</time>
      </trkpt>
      <trkpt lat="45.2253" lon="5.73388">
        <ele>900</ele>
        <time>2021-10-16T06:21:26.000Z</time>
      </trkpt>
      <trkpt lat="45.22531" lon="5.73387">
        <ele>899.20001220703</ele>
        <time>2021-10-16T06:21:27.000Z</time>
      </trkpt>
      <trkpt lat="45.22534" lon="5.73386">
        <ele>898.20001220703</ele>
        <time>2021-10-16T06:21:29.000Z</time>
      </trkpt>
      <trkpt lat="45.22543" lon="5.73384">
        <ele>897.20001220703</ele>
        <time>2021-10-16T06:21:34.000Z</time>
      </trkpt>
      <trkpt lat="45.22544" lon="5.73384">
        <ele>897.20001220703</ele>
        <time>2021-10-16T06:21:35.000Z</time>
      </trkpt>
      <trkpt lat="45.22549" lon="5.73383">
        <ele>895.59997558594</ele>
        <time>2021-10-16T06:21:38.000Z</time>
      </trkpt>
      <trkpt lat="45.22551" lon="5.73384">
        <ele>894.59997558594</ele>
        <time>2021-10-16T06:21:39.000Z</time>
      </trkpt>
      <trkpt lat="45.22555" lon="5.73383">
        <ele>894</ele>
        <time>2021-10-16T06:21:41.000Z</time>
      </trkpt>
      <trkpt lat="45.22558" lon="5.73382">
        <ele>893.20001220703</ele>
        <time>2021-10-16T06:21:43.000Z</time>
      </trkpt>
      <trkpt lat="45.22561" lon="5.73379">
        <ele>892.59997558594</ele>
        <time>2021-10-16T06:21:45.000Z</time>
      </trkpt>
      <trkpt lat="45.22563" lon="5.73378">
        <ele>892</ele>
        <time>2021-10-16T06:21:46.000Z</time>
      </trkpt>
      <trkpt lat="45.22568" lon="5.73377">
        <ele>891</ele>
        <time>2021-10-16T06:21:49.000Z</time>
      </trkpt>
      <trkpt lat="45.22573" lon="5.73374">
        <ele>889.79998779297</ele>
        <time>2021-10-16T06:21:52.000Z</time>
      </trkpt>
      <trkpt lat="45.22579" lon="5.73371">
        <ele>888.59997558594</ele>
        <time>2021-10-16T06:21:55.000Z</time>
      </trkpt>
      <trkpt lat="45.22583" lon="5.73367">
        <ele>887.59997558594</ele>
        <time>2021-10-16T06:21:58.000Z</time>
      </trkpt>
      <trkpt lat="45.22585" lon="5.73366">
        <ele>887.40002441406</ele>
        <time>2021-10-16T06:21:59.000Z</time>
      </trkpt>
      <trkpt lat="45.22588" lon="5.73366">
        <ele>886.40002441406</ele>
        <time>2021-10-16T06:22:01.000Z</time>
      </trkpt>
      <trkpt lat="45.22591" lon="5.73367">
        <ele>885.59997558594</ele>
        <time>2021-10-16T06:22:03.000Z</time>
      </trkpt>
      <trkpt lat="45.22593" lon="5.73366">
        <ele>885.20001220703</ele>
        <time>2021-10-16T06:22:04.000Z</time>
      </trkpt>
      <trkpt lat="45.22597" lon="5.73365">
        <ele>884.79998779297</ele>
        <time>2021-10-16T06:22:06.000Z</time>
      </trkpt>
      <trkpt lat="45.22599" lon="5.73365">
        <ele>884.20001220703</ele>
        <time>2021-10-16T06:22:07.000Z</time>
      </trkpt>
      <trkpt lat="45.22604" lon="5.73364">
        <ele>883.79998779297</ele>
        <time>2021-10-16T06:22:10.000Z</time>
      </trkpt>
      <trkpt lat="45.22605" lon="5.73363">
        <ele>883</ele>
        <time>2021-10-16T06:22:11.000Z</time>
      </trkpt>
      <trkpt lat="45.2261" lon="5.7336">
        <ele>882</ele>
        <time>2021-10-16T06:22:14.000Z</time>
      </trkpt>
      <trkpt lat="45.22613" lon="5.7336">
        <ele>880.79998779297</ele>
        <time>2021-10-16T06:22:16.000Z</time>
      </trkpt>
      <trkpt lat="45.2262" lon="5.73362">
        <ele>879.59997558594</ele>
        <time>2021-10-16T06:22:19.000Z</time>
      </trkpt>
      <trkpt lat="45.22625" lon="5.73363">
        <ele>879.20001220703</ele>
        <time>2021-10-16T06:22:21.000Z</time>
      </trkpt>
      <trkpt lat="45.22628" lon="5.73366">
        <ele>878</ele>
        <time>2021-10-16T06:22:23.000Z</time>
      </trkpt>
      <trkpt lat="45.2263" lon="5.73368">
        <ele>876.79998779297</ele>
        <time>2021-10-16T06:22:26.000Z</time>
      </trkpt>
      <trkpt lat="45.22634" lon="5.73369">
        <ele>875.79998779297</ele>
        <time>2021-10-16T06:22:29.000Z</time>
      </trkpt>
      <trkpt lat="45.22635" lon="5.73369">
        <ele>875.40002441406</ele>
        <time>2021-10-16T06:22:30.000Z</time>
      </trkpt>
      <trkpt lat="45.22636" lon="5.73369">
        <ele>875</ele>
        <time>2021-10-16T06:22:31.000Z</time>
      </trkpt>
      <trkpt lat="45.22639" lon="5.73371">
        <ele>874.20001220703</ele>
        <time>2021-10-16T06:22:34.000Z</time>
      </trkpt>
      <trkpt lat="45.2264" lon="5.73372">
        <ele>874</ele>
        <time>2021-10-16T06:22:35.000Z</time>
      </trkpt>
      <trkpt lat="45.22642" lon="5.73373">
        <ele>873.40002441406</ele>
        <time>2021-10-16T06:22:37.000Z</time>
      </trkpt>
      <trkpt lat="45.22643" lon="5.73373">
        <ele>873.20001220703</ele>
        <time>2021-10-16T06:22:38.000Z</time>
      </trkpt>
      <trkpt lat="45.22646" lon="5.73371">
        <ele>872.20001220703</ele>
        <time>2021-10-16T06:22:40.000Z</time>
      </trkpt>
      <trkpt lat="45.22647" lon="5.73371">
        <ele>872</ele>
        <time>2021-10-16T06:22:41.000Z</time>
      </trkpt>
      <trkpt lat="45.22649" lon="5.73372">
        <ele>871.20001220703</ele>
        <time>2021-10-16T06:22:42.000Z</time>
      </trkpt>
      <trkpt lat="45.22651" lon="5.73373">
        <ele>870.79998779297</ele>
        <time>2021-10-16T06:22:43.000Z</time>
      </trkpt>
      <trkpt lat="45.22653" lon="5.73373">
        <ele>870.79998779297</ele>
        <time>2021-10-16T06:22:44.000Z</time>
      </trkpt>
      <trkpt lat="45.22657" lon="5.73373">
        <ele>870.20001220703</ele>
        <time>2021-10-16T06:22:46.000Z</time>
      </trkpt>
      <trkpt lat="45.2266" lon="5.73373">
        <ele>869</ele>
        <time>2021-10-16T06:22:47.000Z</time>
      </trkpt>
      <trkpt lat="45.22663" lon="5.73373">
        <ele>868.79998779297</ele>
        <time>2021-10-16T06:22:48.000Z</time>
      </trkpt>
      <trkpt lat="45.22669" lon="5.73375">
        <ele>868</ele>
        <time>2021-10-16T06:22:50.000Z</time>
      </trkpt>
      <trkpt lat="45.22672" lon="5.73376">
        <ele>867.59997558594</ele>
        <time>2021-10-16T06:22:52.000Z</time>
      </trkpt>
      <trkpt lat="45.22674" lon="5.73375">
        <ele>867.40002441406</ele>
        <time>2021-10-16T06:22:53.000Z</time>
      </trkpt>
      <trkpt lat="45.22676" lon="5.73375">
        <ele>866.79998779297</ele>
        <time>2021-10-16T06:22:54.000Z</time>
      </trkpt>
      <trkpt lat="45.22682" lon="5.73375">
        <ele>865.59997558594</ele>
        <time>2021-10-16T06:22:57.000Z</time>
      </trkpt>
      <trkpt lat="45.22685" lon="5.73376">
        <ele>865.59997558594</ele>
        <time>2021-10-16T06:22:58.000Z</time>
      </trkpt>
      <trkpt lat="45.22691" lon="5.73374">
        <ele>864.59997558594</ele>
        <time>2021-10-16T06:23:01.000Z</time>
      </trkpt>
      <trkpt lat="45.22699" lon="5.73375">
        <ele>863.40002441406</ele>
        <time>2021-10-16T06:23:05.000Z</time>
      </trkpt>
      <trkpt lat="45.22706" lon="5.73377">
        <ele>862.20001220703</ele>
        <time>2021-10-16T06:23:09.000Z</time>
      </trkpt>
      <trkpt lat="45.22707" lon="5.73378">
        <ele>862</ele>
        <time>2021-10-16T06:23:10.000Z</time>
      </trkpt>
      <trkpt lat="45.22714" lon="5.73382">
        <ele>861</ele>
        <time>2021-10-16T06:23:13.000Z</time>
      </trkpt>
      <trkpt lat="45.2272" lon="5.73386">
        <ele>860.40002441406</ele>
        <time>2021-10-16T06:23:16.000Z</time>
      </trkpt>
      <trkpt lat="45.22724" lon="5.73388">
        <ele>859.59997558594</ele>
        <time>2021-10-16T06:23:18.000Z</time>
      </trkpt>
      <trkpt lat="45.22734" lon="5.73391">
        <ele>858.59997558594</ele>
        <time>2021-10-16T06:23:22.000Z</time>
      </trkpt>
      <trkpt lat="45.22737" lon="5.73392">
        <ele>858.40002441406</ele>
        <time>2021-10-16T06:23:24.000Z</time>
      </trkpt>
      <trkpt lat="45.22739" lon="5.73393">
        <ele>858.20001220703</ele>
        <time>2021-10-16T06:23:25.000Z</time>
      </trkpt>
      <trkpt lat="45.22742" lon="5.73395">
        <ele>857.40002441406</ele>
        <time>2021-10-16T06:23:28.000Z</time>
      </trkpt>
      <trkpt lat="45.2274" lon="5.73395">
        <ele>857.40002441406</ele>
        <time>2021-10-16T06:23:29.000Z</time>
      </trkpt>
      <trkpt lat="45.22741" lon="5.73397">
        <ele>857.40002441406</ele>
        <time>2021-10-16T06:23:33.000Z</time>
      </trkpt>
      <trkpt lat="45.22741" lon="5.73398">
        <ele>857.40002441406</ele>
        <time>2021-10-16T06:23:34.000Z</time>
      </trkpt>
      <trkpt lat="45.22738" lon="5.73397">
        <ele>858</ele>
        <time>2021-10-16T06:23:36.000Z</time>
      </trkpt>
      <trkpt lat="45.22736" lon="5.73398">
        <ele>858.40002441406</ele>
        <time>2021-10-16T06:23:38.000Z</time>
      </trkpt>
      <trkpt lat="45.22734" lon="5.73397">
        <ele>858.59997558594</ele>
        <time>2021-10-16T06:23:40.000Z</time>
      </trkpt>
      <trkpt lat="45.22733" lon="5.73397">
        <ele>858.59997558594</ele>
        <time>2021-10-16T06:23:41.000Z</time>
      </trkpt>
      <trkpt lat="45.22729" lon="5.73398">
        <ele>859.20001220703</ele>
        <time>2021-10-16T06:23:44.000Z</time>
      </trkpt>
      <trkpt lat="45.22726" lon="5.73398">
        <ele>859.59997558594</ele>
        <time>2021-10-16T06:23:46.000Z</time>
      </trkpt>
      <trkpt lat="45.22725" lon="5.73398">
        <ele>859.59997558594</ele>
        <time>2021-10-16T06:23:47.000Z</time>
      </trkpt>
      <trkpt lat="45.22723" lon="5.73397">
        <ele>859.79998779297</ele>
        <time>2021-10-16T06:23:49.000Z</time>
      </trkpt>
      <trkpt lat="45.22721" lon="5.73397">
        <ele>860.20001220703</ele>
        <time>2021-10-16T06:23:51.000Z</time>
      </trkpt>
      <trkpt lat="45.22718" lon="5.73395">
        <ele>860.59997558594</ele>
        <time>2021-10-16T06:23:54.000Z</time>
      </trkpt>
      <trkpt lat="45.22716" lon="5.73395">
        <ele>860.59997558594</ele>
        <time>2021-10-16T06:23:55.000Z</time>
      </trkpt>
      <trkpt lat="45.22712" lon="5.73391">
        <ele>861.40002441406</ele>
        <time>2021-10-16T06:23:58.000Z</time>
      </trkpt>
      <trkpt lat="45.2271" lon="5.73391">
        <ele>861.59997558594</ele>
        <time>2021-10-16T06:24:00.000Z</time>
      </trkpt>
      <trkpt lat="45.22709" lon="5.73391">
        <ele>862</ele>
        <time>2021-10-16T06:24:01.000Z</time>
      </trkpt>
      <trkpt lat="45.22703" lon="5.7339">
        <ele>862.59997558594</ele>
        <time>2021-10-16T06:24:07.000Z</time>
      </trkpt>
      <trkpt lat="45.22702" lon="5.7339">
        <ele>863</ele>
        <time>2021-10-16T06:24:09.000Z</time>
      </trkpt>
      <trkpt lat="45.22701" lon="5.73391">
        <ele>863.20001220703</ele>
        <time>2021-10-16T06:24:11.000Z</time>
      </trkpt>
      <trkpt lat="45.22701" lon="5.73391">
        <ele>863.59997558594</ele>
        <time>2021-10-16T06:24:12.000Z</time>
      </trkpt>
      <trkpt lat="45.22698" lon="5.73388">
        <ele>864</ele>
        <time>2021-10-16T06:24:16.000Z</time>
      </trkpt>
      <trkpt lat="45.22698" lon="5.73387">
        <ele>864.20001220703</ele>
        <time>2021-10-16T06:24:17.000Z</time>
      </trkpt>
      <trkpt lat="45.22697" lon="5.73388">
        <ele>864.79998779297</ele>
        <time>2021-10-16T06:24:18.000Z</time>
      </trkpt>
      <trkpt lat="45.22695" lon="5.73389">
        <ele>864.79998779297</ele>
        <time>2021-10-16T06:24:19.000Z</time>
      </trkpt>
      <trkpt lat="45.22691" lon="5.7339">
        <ele>865.40002441406</ele>
        <time>2021-10-16T06:24:22.000Z</time>
      </trkpt>
      <trkpt lat="45.2269" lon="5.73389">
        <ele>865.59997558594</ele>
        <time>2021-10-16T06:24:23.000Z</time>
      </trkpt>
      <trkpt lat="45.22685" lon="5.73389">
        <ele>866.59997558594</ele>
        <time>2021-10-16T06:24:27.000Z</time>
      </trkpt>
      <trkpt lat="45.22685" lon="5.7339">
        <ele>866.59997558594</ele>
        <time>2021-10-16T06:24:28.000Z</time>
      </trkpt>
      <trkpt lat="45.22684" lon="5.7339">
        <ele>866.59997558594</ele>
        <time>2021-10-16T06:24:29.000Z</time>
      </trkpt>
      <trkpt lat="45.22682" lon="5.7339">
        <ele>867</ele>
        <time>2021-10-16T06:24:31.000Z</time>
      </trkpt>
      <trkpt lat="45.22679" lon="5.73388">
        <ele>867.79998779297</ele>
        <time>2021-10-16T06:24:33.000Z</time>
      </trkpt>
      <trkpt lat="45.22679" lon="5.73389">
        <ele>867.79998779297</ele>
        <time>2021-10-16T06:24:34.000Z</time>
      </trkpt>
      <trkpt lat="45.22678" lon="5.73389">
        <ele>867.79998779297</ele>
        <time>2021-10-16T06:24:35.000Z</time>
      </trkpt>
      <trkpt lat="45.22676" lon="5.73388">
        <ele>868.40002441406</ele>
        <time>2021-10-16T06:24:38.000Z</time>
      </trkpt>
      <trkpt lat="45.22676" lon="5.73388">
        <ele>869</ele>
        <time>2021-10-16T06:24:39.000Z</time>
      </trkpt>
      <trkpt lat="45.22675" lon="5.73387">
        <ele>869</ele>
        <time>2021-10-16T06:24:40.000Z</time>
      </trkpt>
      <trkpt lat="45.22673" lon="5.73387">
        <ele>869.59997558594</ele>
        <time>2021-10-16T06:24:42.000Z</time>
      </trkpt>
      <trkpt lat="45.2267" lon="5.73388">
        <ele>869.59997558594</ele>
        <time>2021-10-16T06:24:44.000Z</time>
      </trkpt>
      <trkpt lat="45.22669" lon="5.73388">
        <ele>870</ele>
        <time>2021-10-16T06:24:45.000Z</time>
      </trkpt>
      <trkpt lat="45.22665" lon="5.73388">
        <ele>871.20001220703</ele>
        <time>2021-10-16T06:24:49.000Z</time>
      </trkpt>
      <trkpt lat="45.22665" lon="5.73387">
        <ele>871.40002441406</ele>
        <time>2021-10-16T06:24:50.000Z</time>
      </trkpt>
      <trkpt lat="45.22664" lon="5.73387">
        <ele>871.59997558594</ele>
        <time>2021-10-16T06:24:51.000Z</time>
      </trkpt>
      <trkpt lat="45.22662" lon="5.73387">
        <ele>872</ele>
        <time>2021-10-16T06:24:54.000Z</time>
      </trkpt>
      <trkpt lat="45.22661" lon="5.73387">
        <ele>872.59997558594</ele>
        <time>2021-10-16T06:24:55.000Z</time>
      </trkpt>
      <trkpt lat="45.22659" lon="5.73386">
        <ele>872.59997558594</ele>
        <time>2021-10-16T06:24:56.000Z</time>
      </trkpt>
      <trkpt lat="45.22652" lon="5.7338">
        <ele>873.59997558594</ele>
        <time>2021-10-16T06:25:00.000Z</time>
      </trkpt>
      <trkpt lat="45.22649" lon="5.73379">
        <ele>873.79998779297</ele>
        <time>2021-10-16T06:25:02.000Z</time>
      </trkpt>
      <trkpt lat="45.22647" lon="5.73379">
        <ele>874.59997558594</ele>
        <time>2021-10-16T06:25:04.000Z</time>
      </trkpt>
      <trkpt lat="45.22644" lon="5.7338">
        <ele>875.59997558594</ele>
        <time>2021-10-16T06:25:07.000Z</time>
      </trkpt>
      <trkpt lat="45.22644" lon="5.73381">
        <ele>875.79998779297</ele>
        <time>2021-10-16T06:25:08.000Z</time>
      </trkpt>
      <trkpt lat="45.22643" lon="5.73382">
        <ele>876</ele>
        <time>2021-10-16T06:25:11.000Z</time>
      </trkpt>
      <trkpt lat="45.2264" lon="5.7338">
        <ele>876.59997558594</ele>
        <time>2021-10-16T06:25:14.000Z</time>
      </trkpt>
      <trkpt lat="45.22639" lon="5.7338">
        <ele>877.20001220703</ele>
        <time>2021-10-16T06:25:15.000Z</time>
      </trkpt>
      <trkpt lat="45.22638" lon="5.7338">
        <ele>877.40002441406</ele>
        <time>2021-10-16T06:25:17.000Z</time>
      </trkpt>
      <trkpt lat="45.22635" lon="5.73381">
        <ele>877.79998779297</ele>
        <time>2021-10-16T06:25:20.000Z</time>
      </trkpt>
      <trkpt lat="45.22634" lon="5.7338">
        <ele>878</ele>
        <time>2021-10-16T06:25:22.000Z</time>
      </trkpt>
      <trkpt lat="45.22633" lon="5.73378">
        <ele>878.59997558594</ele>
        <time>2021-10-16T06:25:24.000Z</time>
      </trkpt>
      <trkpt lat="45.22632" lon="5.73378">
        <ele>879.40002441406</ele>
        <time>2021-10-16T06:25:26.000Z</time>
      </trkpt>
      <trkpt lat="45.22628" lon="5.73379">
        <ele>879.59997558594</ele>
        <time>2021-10-16T06:25:30.000Z</time>
      </trkpt>
      <trkpt lat="45.22623" lon="5.73378">
        <ele>880.59997558594</ele>
        <time>2021-10-16T06:25:35.000Z</time>
      </trkpt>
      <trkpt lat="45.22621" lon="5.73377">
        <ele>880.79998779297</ele>
        <time>2021-10-16T06:25:36.000Z</time>
      </trkpt>
      <trkpt lat="45.2262" lon="5.73377">
        <ele>882</ele>
        <time>2021-10-16T06:25:40.000Z</time>
      </trkpt>
      <trkpt lat="45.22617" lon="5.73379">
        <ele>882.20001220703</ele>
        <time>2021-10-16T06:25:43.000Z</time>
      </trkpt>
      <trkpt lat="45.22614" lon="5.73379">
        <ele>883.40002441406</ele>
        <time>2021-10-16T06:25:47.000Z</time>
      </trkpt>
      <trkpt lat="45.2261" lon="5.73384">
        <ele>883.79998779297</ele>
        <time>2021-10-16T06:25:51.000Z</time>
      </trkpt>
      <trkpt lat="45.22607" lon="5.73384">
        <ele>884.59997558594</ele>
        <time>2021-10-16T06:25:54.000Z</time>
      </trkpt>
      <trkpt lat="45.22602" lon="5.73383">
        <ele>885.59997558594</ele>
        <time>2021-10-16T06:25:58.000Z</time>
      </trkpt>
      <trkpt lat="45.22601" lon="5.73383">
        <ele>885.59997558594</ele>
        <time>2021-10-16T06:25:59.000Z</time>
      </trkpt>
      <trkpt lat="45.22597" lon="5.73384">
        <ele>886.59997558594</ele>
        <time>2021-10-16T06:26:03.000Z</time>
      </trkpt>
      <trkpt lat="45.22596" lon="5.73384">
        <ele>887</ele>
        <time>2021-10-16T06:26:04.000Z</time>
      </trkpt>
      <trkpt lat="45.22595" lon="5.73384">
        <ele>887</ele>
        <time>2021-10-16T06:26:06.000Z</time>
      </trkpt>
      <trkpt lat="45.22593" lon="5.73384">
        <ele>887.79998779297</ele>
        <time>2021-10-16T06:26:08.000Z</time>
      </trkpt>
      <trkpt lat="45.22592" lon="5.73384">
        <ele>888.20001220703</ele>
        <time>2021-10-16T06:26:10.000Z</time>
      </trkpt>
      <trkpt lat="45.22591" lon="5.73385">
        <ele>888.79998779297</ele>
        <time>2021-10-16T06:26:11.000Z</time>
      </trkpt>
      <trkpt lat="45.22588" lon="5.73386">
        <ele>889.20001220703</ele>
        <time>2021-10-16T06:26:13.000Z</time>
      </trkpt>
      <trkpt lat="45.22583" lon="5.73387">
        <ele>890.20001220703</ele>
        <time>2021-10-16T06:26:17.000Z</time>
      </trkpt>
      <trkpt lat="45.22581" lon="5.73388">
        <ele>890.40002441406</ele>
        <time>2021-10-16T06:26:18.000Z</time>
      </trkpt>
      <trkpt lat="45.22578" lon="5.7339">
        <ele>891.40002441406</ele>
        <time>2021-10-16T06:26:21.000Z</time>
      </trkpt>
      <trkpt lat="45.22576" lon="5.73392">
        <ele>891.59997558594</ele>
        <time>2021-10-16T06:26:23.000Z</time>
      </trkpt>
      <trkpt lat="45.22575" lon="5.73392">
        <ele>891.59997558594</ele>
        <time>2021-10-16T06:26:24.000Z</time>
      </trkpt>
      <trkpt lat="45.22574" lon="5.73393">
        <ele>892.20001220703</ele>
        <time>2021-10-16T06:26:26.000Z</time>
      </trkpt>
      <trkpt lat="45.22574" lon="5.73393">
        <ele>892.79998779297</ele>
        <time>2021-10-16T06:26:27.000Z</time>
      </trkpt>
      <trkpt lat="45.22572" lon="5.73393">
        <ele>893.40002441406</ele>
        <time>2021-10-16T06:26:29.000Z</time>
      </trkpt>
      <trkpt lat="45.22571" lon="5.73393">
        <ele>893.79998779297</ele>
        <time>2021-10-16T06:26:30.000Z</time>
      </trkpt>
      <trkpt lat="45.2257" lon="5.73394">
        <ele>894</ele>
        <time>2021-10-16T06:26:31.000Z</time>
      </trkpt>
      <trkpt lat="45.22569" lon="5.73394">
        <ele>894.20001220703</ele>
        <time>2021-10-16T06:26:32.000Z</time>
      </trkpt>
      <trkpt lat="45.22565" lon="5.73394">
        <ele>894.79998779297</ele>
        <time>2021-10-16T06:26:35.000Z</time>
      </trkpt>
      <trkpt lat="45.22563" lon="5.73396">
        <ele>894.79998779297</ele>
        <time>2021-10-16T06:26:37.000Z</time>
      </trkpt>
      <trkpt lat="45.22561" lon="5.73396">
        <ele>895.40002441406</ele>
        <time>2021-10-16T06:26:38.000Z</time>
      </trkpt>
      <trkpt lat="45.2256" lon="5.73396">
        <ele>895.79998779297</ele>
        <time>2021-10-16T06:26:39.000Z</time>
      </trkpt>
      <trkpt lat="45.22556" lon="5.73397">
        <ele>896.40002441406</ele>
        <time>2021-10-16T06:26:41.000Z</time>
      </trkpt>
      <trkpt lat="45.22553" lon="5.73395">
        <ele>896.79998779297</ele>
        <time>2021-10-16T06:26:43.000Z</time>
      </trkpt>
      <trkpt lat="45.22546" lon="5.73395">
        <ele>897.59997558594</ele>
        <time>2021-10-16T06:26:49.000Z</time>
      </trkpt>
      <trkpt lat="45.22543" lon="5.73396">
        <ele>898</ele>
        <time>2021-10-16T06:26:51.000Z</time>
      </trkpt>
      <trkpt lat="45.22542" lon="5.73397">
        <ele>898</ele>
        <time>2021-10-16T06:26:52.000Z</time>
      </trkpt>
      <trkpt lat="45.2254" lon="5.73396">
        <ele>898.59997558594</ele>
        <time>2021-10-16T06:26:55.000Z</time>
      </trkpt>
      <trkpt lat="45.22539" lon="5.73396">
        <ele>899</ele>
        <time>2021-10-16T06:26:56.000Z</time>
      </trkpt>
      <trkpt lat="45.22536" lon="5.734">
        <ele>900.20001220703</ele>
        <time>2021-10-16T06:26:59.000Z</time>
      </trkpt>
      <trkpt lat="45.22535" lon="5.73401">
        <ele>900.20001220703</ele>
        <time>2021-10-16T06:27:00.000Z</time>
      </trkpt>
      <trkpt lat="45.22528" lon="5.73401">
        <ele>901.20001220703</ele>
        <time>2021-10-16T06:27:04.000Z</time>
      </trkpt>
      <trkpt lat="45.22527" lon="5.73402">
        <ele>901.40002441406</ele>
        <time>2021-10-16T06:27:05.000Z</time>
      </trkpt>
      <trkpt lat="45.22526" lon="5.73402">
        <ele>901.79998779297</ele>
        <time>2021-10-16T06:27:06.000Z</time>
      </trkpt>
      <trkpt lat="45.22525" lon="5.73402">
        <ele>902.20001220703</ele>
        <time>2021-10-16T06:27:07.000Z</time>
      </trkpt>
      <trkpt lat="45.22524" lon="5.73402">
        <ele>902.59997558594</ele>
        <time>2021-10-16T06:27:08.000Z</time>
      </trkpt>
      <trkpt lat="45.22522" lon="5.73405">
        <ele>903</ele>
        <time>2021-10-16T06:27:11.000Z</time>
      </trkpt>
      <trkpt lat="45.22522" lon="5.73405">
        <ele>903.20001220703</ele>
        <time>2021-10-16T06:27:12.000Z</time>
      </trkpt>
      <trkpt lat="45.2252" lon="5.73406">
        <ele>903.59997558594</ele>
        <time>2021-10-16T06:27:14.000Z</time>
      </trkpt>
      <trkpt lat="45.22519" lon="5.73406">
        <ele>904</ele>
        <time>2021-10-16T06:27:15.000Z</time>
      </trkpt>
      <trkpt lat="45.22518" lon="5.73407">
        <ele>904.59997558594</ele>
        <time>2021-10-16T06:27:16.000Z</time>
      </trkpt>
      <trkpt lat="45.22516" lon="5.73409">
        <ele>905.40002441406</ele>
        <time>2021-10-16T06:27:19.000Z</time>
      </trkpt>
      <trkpt lat="45.22516" lon="5.7341">
        <ele>905.40002441406</ele>
        <time>2021-10-16T06:27:20.000Z</time>
      </trkpt>
      <trkpt lat="45.22515" lon="5.73411">
        <ele>905.79998779297</ele>
        <time>2021-10-16T06:27:21.000Z</time>
      </trkpt>
      <trkpt lat="45.22512" lon="5.73411">
        <ele>906.59997558594</ele>
        <time>2021-10-16T06:27:23.000Z</time>
      </trkpt>
      <trkpt lat="45.22511" lon="5.73411">
        <ele>906.79998779297</ele>
        <time>2021-10-16T06:27:24.000Z</time>
      </trkpt>
      <trkpt lat="45.22508" lon="5.73411">
        <ele>907</ele>
        <time>2021-10-16T06:27:26.000Z</time>
      </trkpt>
      <trkpt lat="45.22505" lon="5.73414">
        <ele>907.79998779297</ele>
        <time>2021-10-16T06:27:32.000Z</time>
      </trkpt>
      <trkpt lat="45.22505" lon="5.73415">
        <ele>908.59997558594</ele>
        <time>2021-10-16T06:27:33.000Z</time>
      </trkpt>
      <trkpt lat="45.22502" lon="5.73417">
        <ele>909.79998779297</ele>
        <time>2021-10-16T06:27:37.000Z</time>
      </trkpt>
      <trkpt lat="45.22501" lon="5.73418">
        <ele>910</ele>
        <time>2021-10-16T06:27:38.000Z</time>
      </trkpt>
      <trkpt lat="45.225" lon="5.73418">
        <ele>910.40002441406</ele>
        <time>2021-10-16T06:27:40.000Z</time>
      </trkpt>
      <trkpt lat="45.22499" lon="5.73418">
        <ele>910.79998779297</ele>
        <time>2021-10-16T06:27:41.000Z</time>
      </trkpt>
      <trkpt lat="45.22496" lon="5.73418">
        <ele>912.20001220703</ele>
        <time>2021-10-16T06:27:45.000Z</time>
      </trkpt>
      <trkpt lat="45.22494" lon="5.7342">
        <ele>912.59997558594</ele>
        <time>2021-10-16T06:27:48.000Z</time>
      </trkpt>
      <trkpt lat="45.22491" lon="5.73421">
        <ele>913.20001220703</ele>
        <time>2021-10-16T06:27:51.000Z</time>
      </trkpt>
      <trkpt lat="45.22491" lon="5.73422">
        <ele>913.59997558594</ele>
        <time>2021-10-16T06:27:52.000Z</time>
      </trkpt>
      <trkpt lat="45.2249" lon="5.73423">
        <ele>914.40002441406</ele>
        <time>2021-10-16T06:27:54.000Z</time>
      </trkpt>
      <trkpt lat="45.22489" lon="5.73425">
        <ele>914.59997558594</ele>
        <time>2021-10-16T06:27:55.000Z</time>
      </trkpt>
      <trkpt lat="45.22487" lon="5.73426">
        <ele>915.40002441406</ele>
        <time>2021-10-16T06:27:58.000Z</time>
      </trkpt>
      <trkpt lat="45.22485" lon="5.73427">
        <ele>915.79998779297</ele>
        <time>2021-10-16T06:27:59.000Z</time>
      </trkpt>
      <trkpt lat="45.22482" lon="5.73427">
        <ele>916.40002441406</ele>
        <time>2021-10-16T06:28:02.000Z</time>
      </trkpt>
      <trkpt lat="45.22479" lon="5.73431">
        <ele>916.79998779297</ele>
        <time>2021-10-16T06:28:05.000Z</time>
      </trkpt>
      <trkpt lat="45.22479" lon="5.73432">
        <ele>917</ele>
        <time>2021-10-16T06:28:06.000Z</time>
      </trkpt>
      <trkpt lat="45.22478" lon="5.73434">
        <ele>918.20001220703</ele>
        <time>2021-10-16T06:28:09.000Z</time>
      </trkpt>
      <trkpt lat="45.22478" lon="5.73435">
        <ele>918.20001220703</ele>
        <time>2021-10-16T06:28:10.000Z</time>
      </trkpt>
      <trkpt lat="45.22478" lon="5.73435">
        <ele>918.79998779297</ele>
        <time>2021-10-16T06:28:11.000Z</time>
      </trkpt>
      <trkpt lat="45.22479" lon="5.73436">
        <ele>919.20001220703</ele>
        <time>2021-10-16T06:28:12.000Z</time>
      </trkpt>
      <trkpt lat="45.22477" lon="5.73436">
        <ele>919.79998779297</ele>
        <time>2021-10-16T06:28:14.000Z</time>
      </trkpt>
      <trkpt lat="45.22476" lon="5.73434">
        <ele>920</ele>
        <time>2021-10-16T06:28:15.000Z</time>
      </trkpt>
      <trkpt lat="45.22474" lon="5.73432">
        <ele>920.40002441406</ele>
        <time>2021-10-16T06:28:17.000Z</time>
      </trkpt>
      <trkpt lat="45.22473" lon="5.73432">
        <ele>920.59997558594</ele>
        <time>2021-10-16T06:28:18.000Z</time>
      </trkpt>
      <trkpt lat="45.22468" lon="5.73435">
        <ele>921.20001220703</ele>
        <time>2021-10-16T06:28:23.000Z</time>
      </trkpt>
      <trkpt lat="45.22467" lon="5.73434">
        <ele>921.40002441406</ele>
        <time>2021-10-16T06:28:24.000Z</time>
      </trkpt>
      <trkpt lat="45.22466" lon="5.73434">
        <ele>921.79998779297</ele>
        <time>2021-10-16T06:28:25.000Z</time>
      </trkpt>
      <trkpt lat="45.22462" lon="5.73434">
        <ele>922.40002441406</ele>
        <time>2021-10-16T06:28:28.000Z</time>
      </trkpt>
      <trkpt lat="45.22461" lon="5.73433">
        <ele>922.79998779297</ele>
        <time>2021-10-16T06:28:29.000Z</time>
      </trkpt>
      <trkpt lat="45.2246" lon="5.73433">
        <ele>923</ele>
        <time>2021-10-16T06:28:31.000Z</time>
      </trkpt>
      <trkpt lat="45.22456" lon="5.73435">
        <ele>923.20001220703</ele>
        <time>2021-10-16T06:28:34.000Z</time>
      </trkpt>
      <trkpt lat="45.22452" lon="5.73437">
        <ele>924.20001220703</ele>
        <time>2021-10-16T06:28:37.000Z</time>
      </trkpt>
      <trkpt lat="45.22441" lon="5.73435">
        <ele>924.79998779297</ele>
        <time>2021-10-16T06:28:42.000Z</time>
      </trkpt>
      <trkpt lat="45.22436" lon="5.73437">
        <ele>925.40002441406</ele>
        <time>2021-10-16T06:28:45.000Z</time>
      </trkpt>
      <trkpt lat="45.22434" lon="5.73437">
        <ele>925.79998779297</ele>
        <time>2021-10-16T06:28:47.000Z</time>
      </trkpt>
      <trkpt lat="45.22432" lon="5.73438">
        <ele>925.79998779297</ele>
        <time>2021-10-16T06:28:48.000Z</time>
      </trkpt>
      <trkpt lat="45.22429" lon="5.73439">
        <ele>926</ele>
        <time>2021-10-16T06:28:50.000Z</time>
      </trkpt>
      <trkpt lat="45.22427" lon="5.73439">
        <ele>926.20001220703</ele>
        <time>2021-10-16T06:28:52.000Z</time>
      </trkpt>
      <trkpt lat="45.22423" lon="5.7344">
        <ele>926.40002441406</ele>
        <time>2021-10-16T06:28:54.000Z</time>
      </trkpt>
      <trkpt lat="45.22422" lon="5.7344">
        <ele>926.59997558594</ele>
        <time>2021-10-16T06:28:55.000Z</time>
      </trkpt>
      <trkpt lat="45.2242" lon="5.7344">
        <ele>926.79998779297</ele>
        <time>2021-10-16T06:28:57.000Z</time>
      </trkpt>
      <trkpt lat="45.22415" lon="5.73438">
        <ele>927.20001220703</ele>
        <time>2021-10-16T06:29:00.000Z</time>
      </trkpt>
      <trkpt lat="45.2241" lon="5.73437">
        <ele>927.59997558594</ele>
        <time>2021-10-16T06:29:05.000Z</time>
      </trkpt>
      <trkpt lat="45.22409" lon="5.73437">
        <ele>927.59997558594</ele>
        <time>2021-10-16T06:29:06.000Z</time>
      </trkpt>
      <trkpt lat="45.22405" lon="5.73437">
        <ele>928.20001220703</ele>
        <time>2021-10-16T06:29:09.000Z</time>
      </trkpt>
      <trkpt lat="45.22401" lon="5.73439">
        <ele>928.20001220703</ele>
        <time>2021-10-16T06:29:11.000Z</time>
      </trkpt>
      <trkpt lat="45.22396" lon="5.73439">
        <ele>928.59997558594</ele>
        <time>2021-10-16T06:29:13.000Z</time>
      </trkpt>
      <trkpt lat="45.22393" lon="5.73439">
        <ele>928.59997558594</ele>
        <time>2021-10-16T06:29:15.000Z</time>
      </trkpt>
      <trkpt lat="45.22391" lon="5.73439">
        <ele>929</ele>
        <time>2021-10-16T06:29:17.000Z</time>
      </trkpt>
      <trkpt lat="45.22389" lon="5.73438">
        <ele>929</ele>
        <time>2021-10-16T06:29:18.000Z</time>
      </trkpt>
      <trkpt lat="45.22387" lon="5.73437">
        <ele>929</ele>
        <time>2021-10-16T06:29:21.000Z</time>
      </trkpt>
      <trkpt lat="45.22383" lon="5.73434">
        <ele>929.59997558594</ele>
        <time>2021-10-16T06:29:23.000Z</time>
      </trkpt>
      <trkpt lat="45.2238" lon="5.73431">
        <ele>929.79998779297</ele>
        <time>2021-10-16T06:29:25.000Z</time>
      </trkpt>
      <trkpt lat="45.22378" lon="5.73431">
        <ele>930</ele>
        <time>2021-10-16T06:29:27.000Z</time>
      </trkpt>
      <trkpt lat="45.22372" lon="5.73429">
        <ele>930.20001220703</ele>
        <time>2021-10-16T06:29:31.000Z</time>
      </trkpt>
      <trkpt lat="45.2237" lon="5.7343">
        <ele>930.79998779297</ele>
        <time>2021-10-16T06:29:32.000Z</time>
      </trkpt>
      <trkpt lat="45.22368" lon="5.7343">
        <ele>930.79998779297</ele>
        <time>2021-10-16T06:29:33.000Z</time>
      </trkpt>
      <trkpt lat="45.22364" lon="5.73431">
        <ele>931.59997558594</ele>
        <time>2021-10-16T06:29:37.000Z</time>
      </trkpt>
      <trkpt lat="45.22361" lon="5.73428">
        <ele>931.79998779297</ele>
        <time>2021-10-16T06:29:41.000Z</time>
      </trkpt>
      <trkpt lat="45.22358" lon="5.73427">
        <ele>932.79998779297</ele>
        <time>2021-10-16T06:29:45.000Z</time>
      </trkpt>
      <trkpt lat="45.22357" lon="5.73427">
        <ele>933.40002441406</ele>
        <time>2021-10-16T06:29:46.000Z</time>
      </trkpt>
      <trkpt lat="45.22353" lon="5.73425">
        <ele>934.20001220703</ele>
        <time>2021-10-16T06:29:50.000Z</time>
      </trkpt>
      <trkpt lat="45.2235" lon="5.73425">
        <ele>935.20001220703</ele>
        <time>2021-10-16T06:29:52.000Z</time>
      </trkpt>
      <trkpt lat="45.22349" lon="5.73424">
        <ele>935.40002441406</ele>
        <time>2021-10-16T06:29:53.000Z</time>
      </trkpt>
      <trkpt lat="45.22346" lon="5.73424">
        <ele>935.79998779297</ele>
        <time>2021-10-16T06:29:56.000Z</time>
      </trkpt>
      <trkpt lat="45.22345" lon="5.73424">
        <ele>935.79998779297</ele>
        <time>2021-10-16T06:29:57.000Z</time>
      </trkpt>
      <trkpt lat="45.22341" lon="5.73425">
        <ele>936.59997558594</ele>
        <time>2021-10-16T06:29:59.000Z</time>
      </trkpt>
      <trkpt lat="45.2234" lon="5.73425">
        <ele>937</ele>
        <time>2021-10-16T06:30:00.000Z</time>
      </trkpt>
      <trkpt lat="45.22338" lon="5.73424">
        <ele>937.40002441406</ele>
        <time>2021-10-16T06:30:03.000Z</time>
      </trkpt>
      <trkpt lat="45.22337" lon="5.73424">
        <ele>937.59997558594</ele>
        <time>2021-10-16T06:30:04.000Z</time>
      </trkpt>
      <trkpt lat="45.22334" lon="5.73423">
        <ele>938.59997558594</ele>
        <time>2021-10-16T06:30:07.000Z</time>
      </trkpt>
      <trkpt lat="45.22333" lon="5.73423">
        <ele>938.79998779297</ele>
        <time>2021-10-16T06:30:08.000Z</time>
      </trkpt>
      <trkpt lat="45.22332" lon="5.73422">
        <ele>939</ele>
        <time>2021-10-16T06:30:09.000Z</time>
      </trkpt>
      <trkpt lat="45.22328" lon="5.73424">
        <ele>939.40002441406</ele>
        <time>2021-10-16T06:30:13.000Z</time>
      </trkpt>
      <trkpt lat="45.22327" lon="5.73424">
        <ele>940</ele>
        <time>2021-10-16T06:30:14.000Z</time>
      </trkpt>
      <trkpt lat="45.22325" lon="5.73423">
        <ele>941</ele>
        <time>2021-10-16T06:30:16.000Z</time>
      </trkpt>
      <trkpt lat="45.22324" lon="5.73423">
        <ele>941.40002441406</ele>
        <time>2021-10-16T06:30:17.000Z</time>
      </trkpt>
      <trkpt lat="45.22322" lon="5.73423">
        <ele>941.40002441406</ele>
        <time>2021-10-16T06:30:18.000Z</time>
      </trkpt>
      <trkpt lat="45.2232" lon="5.73423">
        <ele>941.59997558594</ele>
        <time>2021-10-16T06:30:20.000Z</time>
      </trkpt>
      <trkpt lat="45.22318" lon="5.73423">
        <ele>943</ele>
        <time>2021-10-16T06:30:23.000Z</time>
      </trkpt>
      <trkpt lat="45.22317" lon="5.73422">
        <ele>943.20001220703</ele>
        <time>2021-10-16T06:30:24.000Z</time>
      </trkpt>
      <trkpt lat="45.22316" lon="5.73422">
        <ele>943.20001220703</ele>
        <time>2021-10-16T06:30:25.000Z</time>
      </trkpt>
      <trkpt lat="45.22313" lon="5.73421">
        <ele>943.79998779297</ele>
        <time>2021-10-16T06:30:28.000Z</time>
      </trkpt>
      <trkpt lat="45.2231" lon="5.73417">
        <ele>944</ele>
        <time>2021-10-16T06:30:30.000Z</time>
      </trkpt>
      <trkpt lat="45.22309" lon="5.73417">
        <ele>944</ele>
        <time>2021-10-16T06:30:31.000Z</time>
      </trkpt>
      <trkpt lat="45.22306" lon="5.73418">
        <ele>945.20001220703</ele>
        <time>2021-10-16T06:30:33.000Z</time>
      </trkpt>
      <trkpt lat="45.22302" lon="5.73421">
        <ele>946.20001220703</ele>
        <time>2021-10-16T06:30:36.000Z</time>
      </trkpt>
      <trkpt lat="45.22301" lon="5.73421">
        <ele>946.40002441406</ele>
        <time>2021-10-16T06:30:37.000Z</time>
      </trkpt>
      <trkpt lat="45.22299" lon="5.73422">
        <ele>946.40002441406</ele>
        <time>2021-10-16T06:30:39.000Z</time>
      </trkpt>
      <trkpt lat="45.22295" lon="5.73422">
        <ele>947.40002441406</ele>
        <time>2021-10-16T06:30:43.000Z</time>
      </trkpt>
      <trkpt lat="45.22294" lon="5.73421">
        <ele>948</ele>
        <time>2021-10-16T06:30:44.000Z</time>
      </trkpt>
      <trkpt lat="45.22292" lon="5.73421">
        <ele>948.20001220703</ele>
        <time>2021-10-16T06:30:45.000Z</time>
      </trkpt>
      <trkpt lat="45.22286" lon="5.73418">
        <ele>948.59997558594</ele>
        <time>2021-10-16T06:30:49.000Z</time>
      </trkpt>
      <trkpt lat="45.22285" lon="5.73417">
        <ele>948.79998779297</ele>
        <time>2021-10-16T06:30:50.000Z</time>
      </trkpt>
      <trkpt lat="45.22283" lon="5.73415">
        <ele>949.40002441406</ele>
        <time>2021-10-16T06:30:52.000Z</time>
      </trkpt>
      <trkpt lat="45.22281" lon="5.73414">
        <ele>950.59997558594</ele>
        <time>2021-10-16T06:30:55.000Z</time>
      </trkpt>
      <trkpt lat="45.2228" lon="5.73413">
        <ele>951</ele>
        <time>2021-10-16T06:30:57.000Z</time>
      </trkpt>
      <trkpt lat="45.22279" lon="5.73413">
        <ele>951</ele>
        <time>2021-10-16T06:30:58.000Z</time>
      </trkpt>
      <trkpt lat="45.22276" lon="5.73411">
        <ele>951.40002441406</ele>
        <time>2021-10-16T06:31:00.000Z</time>
      </trkpt>
      <trkpt lat="45.22275" lon="5.7341">
        <ele>951.79998779297</ele>
        <time>2021-10-16T06:31:01.000Z</time>
      </trkpt>
      <trkpt lat="45.22274" lon="5.73409">
        <ele>952.40002441406</ele>
        <time>2021-10-16T06:31:02.000Z</time>
      </trkpt>
      <trkpt lat="45.22271" lon="5.73408">
        <ele>953</ele>
        <time>2021-10-16T06:31:04.000Z</time>
      </trkpt>
      <trkpt lat="45.22267" lon="5.7341">
        <ele>953.40002441406</ele>
        <time>2021-10-16T06:31:08.000Z</time>
      </trkpt>
      <trkpt lat="45.22267" lon="5.7341">
        <ele>953.59997558594</ele>
        <time>2021-10-16T06:31:09.000Z</time>
      </trkpt>
      <trkpt lat="45.22267" lon="5.73411">
        <ele>954.59997558594</ele>
        <time>2021-10-16T06:31:11.000Z</time>
      </trkpt>
      <trkpt lat="45.22263" lon="5.73412">
        <ele>955.40002441406</ele>
        <time>2021-10-16T06:31:14.000Z</time>
      </trkpt>
      <trkpt lat="45.22261" lon="5.73413">
        <ele>955.59997558594</ele>
        <time>2021-10-16T06:31:15.000Z</time>
      </trkpt>
      <trkpt lat="45.22259" lon="5.73412">
        <ele>955.59997558594</ele>
        <time>2021-10-16T06:31:17.000Z</time>
      </trkpt>
      <trkpt lat="45.22257" lon="5.73411">
        <ele>956.79998779297</ele>
        <time>2021-10-16T06:31:20.000Z</time>
      </trkpt>
      <trkpt lat="45.22254" lon="5.7341">
        <ele>957.20001220703</ele>
        <time>2021-10-16T06:31:22.000Z</time>
      </trkpt>
      <trkpt lat="45.22253" lon="5.7341">
        <ele>957.59997558594</ele>
        <time>2021-10-16T06:31:23.000Z</time>
      </trkpt>
      <trkpt lat="45.22252" lon="5.7341">
        <ele>958</ele>
        <time>2021-10-16T06:31:24.000Z</time>
      </trkpt>
      <trkpt lat="45.22249" lon="5.73411">
        <ele>958.40002441406</ele>
        <time>2021-10-16T06:31:28.000Z</time>
      </trkpt>
      <trkpt lat="45.22249" lon="5.73412">
        <ele>959</ele>
        <time>2021-10-16T06:31:30.000Z</time>
      </trkpt>
      <trkpt lat="45.22249" lon="5.73412">
        <ele>959.20001220703</ele>
        <time>2021-10-16T06:31:31.000Z</time>
      </trkpt>
      <trkpt lat="45.22248" lon="5.73413">
        <ele>960.59997558594</ele>
        <time>2021-10-16T06:31:33.000Z</time>
      </trkpt>
      <trkpt lat="45.22247" lon="5.73413">
        <ele>960.79998779297</ele>
        <time>2021-10-16T06:31:34.000Z</time>
      </trkpt>
      <trkpt lat="45.22244" lon="5.73413">
        <ele>961.20001220703</ele>
        <time>2021-10-16T06:31:37.000Z</time>
      </trkpt>
      <trkpt lat="45.22243" lon="5.73412">
        <ele>962.59997558594</ele>
        <time>2021-10-16T06:31:39.000Z</time>
      </trkpt>
      <trkpt lat="45.2224" lon="5.73411">
        <ele>963.59997558594</ele>
        <time>2021-10-16T06:31:42.000Z</time>
      </trkpt>
      <trkpt lat="45.22239" lon="5.73411">
        <ele>963.59997558594</ele>
        <time>2021-10-16T06:31:43.000Z</time>
      </trkpt>
      <trkpt lat="45.22235" lon="5.7341">
        <ele>964.40002441406</ele>
        <time>2021-10-16T06:31:46.000Z</time>
      </trkpt>
      <trkpt lat="45.22234" lon="5.7341">
        <ele>965</ele>
        <time>2021-10-16T06:31:47.000Z</time>
      </trkpt>
      <trkpt lat="45.22233" lon="5.73409">
        <ele>965.20001220703</ele>
        <time>2021-10-16T06:31:50.000Z</time>
      </trkpt>
      <trkpt lat="45.22233" lon="5.73409">
        <ele>965.40002441406</ele>
        <time>2021-10-16T06:31:51.000Z</time>
      </trkpt>
      <trkpt lat="45.22232" lon="5.73409">
        <ele>966.20001220703</ele>
        <time>2021-10-16T06:31:53.000Z</time>
      </trkpt>
      <trkpt lat="45.2223" lon="5.73408">
        <ele>967.20001220703</ele>
        <time>2021-10-16T06:31:56.000Z</time>
      </trkpt>
      <trkpt lat="45.22229" lon="5.73408">
        <ele>967.59997558594</ele>
        <time>2021-10-16T06:31:57.000Z</time>
      </trkpt>
      <trkpt lat="45.22226" lon="5.73406">
        <ele>968.40002441406</ele>
        <time>2021-10-16T06:32:00.000Z</time>
      </trkpt>
      <trkpt lat="45.22223" lon="5.73405">
        <ele>968.59997558594</ele>
        <time>2021-10-16T06:32:03.000Z</time>
      </trkpt>
      <trkpt lat="45.22217" lon="5.73405">
        <ele>969.79998779297</ele>
        <time>2021-10-16T06:32:08.000Z</time>
      </trkpt>
      <trkpt lat="45.22216" lon="5.73405">
        <ele>970.40002441406</ele>
        <time>2021-10-16T06:32:10.000Z</time>
      </trkpt>
      <trkpt lat="45.22215" lon="5.73404">
        <ele>971</ele>
        <time>2021-10-16T06:32:11.000Z</time>
      </trkpt>
      <trkpt lat="45.22211" lon="5.73404">
        <ele>972</ele>
        <time>2021-10-16T06:32:17.000Z</time>
      </trkpt>
      <trkpt lat="45.2221" lon="5.73404">
        <ele>972.40002441406</ele>
        <time>2021-10-16T06:32:19.000Z</time>
      </trkpt>
      <trkpt lat="45.22207" lon="5.73403">
        <ele>973.59997558594</ele>
        <time>2021-10-16T06:32:22.000Z</time>
      </trkpt>
      <trkpt lat="45.22207" lon="5.73403">
        <ele>974.20001220703</ele>
        <time>2021-10-16T06:32:23.000Z</time>
      </trkpt>
      <trkpt lat="45.22206" lon="5.73404">
        <ele>974.79998779297</ele>
        <time>2021-10-16T06:32:26.000Z</time>
      </trkpt>
      <trkpt lat="45.22202" lon="5.73404">
        <ele>975.40002441406</ele>
        <time>2021-10-16T06:32:30.000Z</time>
      </trkpt>
      <trkpt lat="45.22201" lon="5.73403">
        <ele>977</ele>
        <time>2021-10-16T06:32:33.000Z</time>
      </trkpt>
      <trkpt lat="45.22199" lon="5.73403">
        <ele>977.79998779297</ele>
        <time>2021-10-16T06:32:37.000Z</time>
      </trkpt>
      <trkpt lat="45.22198" lon="5.73403">
        <ele>978.20001220703</ele>
        <time>2021-10-16T06:32:39.000Z</time>
      </trkpt>
      <trkpt lat="45.22197" lon="5.73403">
        <ele>978.59997558594</ele>
        <time>2021-10-16T06:32:42.000Z</time>
      </trkpt>
      <trkpt lat="45.22196" lon="5.73403">
        <ele>979.59997558594</ele>
        <time>2021-10-16T06:32:43.000Z</time>
      </trkpt>
      <trkpt lat="45.22192" lon="5.73403">
        <ele>981.20001220703</ele>
        <time>2021-10-16T06:32:48.000Z</time>
      </trkpt>
      <trkpt lat="45.22191" lon="5.73403">
        <ele>981.20001220703</ele>
        <time>2021-10-16T06:32:49.000Z</time>
      </trkpt>
      <trkpt lat="45.22189" lon="5.73403">
        <ele>982.20001220703</ele>
        <time>2021-10-16T06:32:53.000Z</time>
      </trkpt>
      <trkpt lat="45.22188" lon="5.73402">
        <ele>983</ele>
        <time>2021-10-16T06:32:55.000Z</time>
      </trkpt>
      <trkpt lat="45.22187" lon="5.73401">
        <ele>983.40002441406</ele>
        <time>2021-10-16T06:32:56.000Z</time>
      </trkpt>
      <trkpt lat="45.22183" lon="5.73404">
        <ele>984.40002441406</ele>
        <time>2021-10-16T06:33:00.000Z</time>
      </trkpt>
      <trkpt lat="45.22181" lon="5.73404">
        <ele>985</ele>
        <time>2021-10-16T06:33:02.000Z</time>
      </trkpt>
      <trkpt lat="45.22179" lon="5.73404">
        <ele>985.40002441406</ele>
        <time>2021-10-16T06:33:06.000Z</time>
      </trkpt>
      <trkpt lat="45.22175" lon="5.73405">
        <ele>986.59997558594</ele>
        <time>2021-10-16T06:33:10.000Z</time>
      </trkpt>
      <trkpt lat="45.22174" lon="5.73405">
        <ele>987.59997558594</ele>
        <time>2021-10-16T06:33:13.000Z</time>
      </trkpt>
      <trkpt lat="45.22174" lon="5.73405">
        <ele>988.59997558594</ele>
        <time>2021-10-16T06:33:16.000Z</time>
      </trkpt>
      <trkpt lat="45.22173" lon="5.73405">
        <ele>988.79998779297</ele>
        <time>2021-10-16T06:33:17.000Z</time>
      </trkpt>
      <trkpt lat="45.22169" lon="5.73403">
        <ele>989.59997558594</ele>
        <time>2021-10-16T06:33:22.000Z</time>
      </trkpt>
      <trkpt lat="45.22169" lon="5.73404">
        <ele>990</ele>
        <time>2021-10-16T06:33:23.000Z</time>
      </trkpt>
      <trkpt lat="45.22168" lon="5.73404">
        <ele>991</ele>
        <time>2021-10-16T06:33:26.000Z</time>
      </trkpt>
      <trkpt lat="45.22167" lon="5.73405">
        <ele>991.59997558594</ele>
        <time>2021-10-16T06:33:28.000Z</time>
      </trkpt>
      <trkpt lat="45.22166" lon="5.73405">
        <ele>992.20001220703</ele>
        <time>2021-10-16T06:33:29.000Z</time>
      </trkpt>
      <trkpt lat="45.22161" lon="5.73403">
        <ele>993.20001220703</ele>
        <time>2021-10-16T06:33:34.000Z</time>
      </trkpt>
      <trkpt lat="45.2216" lon="5.73403">
        <ele>993.79998779297</ele>
        <time>2021-10-16T06:33:38.000Z</time>
      </trkpt>
      <trkpt lat="45.22159" lon="5.73403">
        <ele>994.40002441406</ele>
        <time>2021-10-16T06:33:40.000Z</time>
      </trkpt>
      <trkpt lat="45.22156" lon="5.73401">
        <ele>995</ele>
        <time>2021-10-16T06:33:44.000Z</time>
      </trkpt>
      <trkpt lat="45.22153" lon="5.73402">
        <ele>995.40002441406</ele>
        <time>2021-10-16T06:33:46.000Z</time>
      </trkpt>
      <trkpt lat="45.22147" lon="5.73401">
        <ele>996.20001220703</ele>
        <time>2021-10-16T06:33:50.000Z</time>
      </trkpt>
      <trkpt lat="45.22146" lon="5.73401">
        <ele>996.79998779297</ele>
        <time>2021-10-16T06:33:51.000Z</time>
      </trkpt>
      <trkpt lat="45.22144" lon="5.734">
        <ele>998</ele>
        <time>2021-10-16T06:33:55.000Z</time>
      </trkpt>
      <trkpt lat="45.22141" lon="5.734">
        <ele>998.79998779297</ele>
        <time>2021-10-16T06:34:00.000Z</time>
      </trkpt>
      <trkpt lat="45.2214" lon="5.73399">
        <ele>999</ele>
        <time>2021-10-16T06:34:02.000Z</time>
      </trkpt>
      <trkpt lat="45.22139" lon="5.73399">
        <ele>1000.4000244141</ele>
        <time>2021-10-16T06:34:05.000Z</time>
      </trkpt>
      <trkpt lat="45.22133" lon="5.73394">
        <ele>1001.4000244141</ele>
        <time>2021-10-16T06:34:09.000Z</time>
      </trkpt>
      <trkpt lat="45.22131" lon="5.73395">
        <ele>1001.799987793</ele>
        <time>2021-10-16T06:34:11.000Z</time>
      </trkpt>
      <trkpt lat="45.22127" lon="5.73397">
        <ele>1002.4000244141</ele>
        <time>2021-10-16T06:34:14.000Z</time>
      </trkpt>
      <trkpt lat="45.22126" lon="5.73396">
        <ele>1002.5999755859</ele>
        <time>2021-10-16T06:34:15.000Z</time>
      </trkpt>
      <trkpt lat="45.22124" lon="5.73395">
        <ele>1003.5999755859</ele>
        <time>2021-10-16T06:34:17.000Z</time>
      </trkpt>
      <trkpt lat="45.22118" lon="5.73394">
        <ele>1004</ele>
        <time>2021-10-16T06:34:22.000Z</time>
      </trkpt>
      <trkpt lat="45.22117" lon="5.73393">
        <ele>1004.5999755859</ele>
        <time>2021-10-16T06:34:23.000Z</time>
      </trkpt>
      <trkpt lat="45.22113" lon="5.73393">
        <ele>1006</ele>
        <time>2021-10-16T06:34:27.000Z</time>
      </trkpt>
      <trkpt lat="45.22112" lon="5.73393">
        <ele>1006.200012207</ele>
        <time>2021-10-16T06:34:28.000Z</time>
      </trkpt>
      <trkpt lat="45.22106" lon="5.73394">
        <ele>1007.200012207</ele>
        <time>2021-10-16T06:34:33.000Z</time>
      </trkpt>
      <trkpt lat="45.22104" lon="5.73393">
        <ele>1007.5999755859</ele>
        <time>2021-10-16T06:34:34.000Z</time>
      </trkpt>
      <trkpt lat="45.221" lon="5.73392">
        <ele>1008.4000244141</ele>
        <time>2021-10-16T06:34:37.000Z</time>
      </trkpt>
      <trkpt lat="45.22098" lon="5.73394">
        <ele>1009</ele>
        <time>2021-10-16T06:34:41.000Z</time>
      </trkpt>
      <trkpt lat="45.22097" lon="5.73395">
        <ele>1010</ele>
        <time>2021-10-16T06:34:43.000Z</time>
      </trkpt>
      <trkpt lat="45.22096" lon="5.73394">
        <ele>1011</ele>
        <time>2021-10-16T06:34:46.000Z</time>
      </trkpt>
      <trkpt lat="45.22095" lon="5.73393">
        <ele>1011.5999755859</ele>
        <time>2021-10-16T06:34:47.000Z</time>
      </trkpt>
      <trkpt lat="45.22094" lon="5.73391">
        <ele>1012.200012207</ele>
        <time>2021-10-16T06:34:48.000Z</time>
      </trkpt>
      <trkpt lat="45.22089" lon="5.73383">
        <ele>1013</ele>
        <time>2021-10-16T06:34:53.000Z</time>
      </trkpt>
      <trkpt lat="45.22089" lon="5.73383">
        <ele>1013.5999755859</ele>
        <time>2021-10-16T06:34:54.000Z</time>
      </trkpt>
      <trkpt lat="45.22088" lon="5.73382">
        <ele>1014.200012207</ele>
        <time>2021-10-16T06:34:56.000Z</time>
      </trkpt>
      <trkpt lat="45.22086" lon="5.7338">
        <ele>1014.5999755859</ele>
        <time>2021-10-16T06:35:00.000Z</time>
      </trkpt>
      <trkpt lat="45.22084" lon="5.73382">
        <ele>1015.4000244141</ele>
        <time>2021-10-16T06:35:03.000Z</time>
      </trkpt>
      <trkpt lat="45.22083" lon="5.73386">
        <ele>1016.4000244141</ele>
        <time>2021-10-16T06:35:09.000Z</time>
      </trkpt>
      <trkpt lat="45.22084" lon="5.73395">
        <ele>1017.4000244141</ele>
        <time>2021-10-16T06:35:16.000Z</time>
      </trkpt>
      <trkpt lat="45.22086" lon="5.73398">
        <ele>1017.5999755859</ele>
        <time>2021-10-16T06:35:18.000Z</time>
      </trkpt>
      <trkpt lat="45.22086" lon="5.73403">
        <ele>1018.5999755859</ele>
        <time>2021-10-16T06:35:21.000Z</time>
      </trkpt>
      <trkpt lat="45.22085" lon="5.73405">
        <ele>1018.5999755859</ele>
        <time>2021-10-16T06:35:22.000Z</time>
      </trkpt>
      <trkpt lat="45.22085" lon="5.73407">
        <ele>1019</ele>
        <time>2021-10-16T06:35:23.000Z</time>
      </trkpt>
      <trkpt lat="45.22084" lon="5.73411">
        <ele>1019.200012207</ele>
        <time>2021-10-16T06:35:25.000Z</time>
      </trkpt>
      <trkpt lat="45.22084" lon="5.73413">
        <ele>1020</ele>
        <time>2021-10-16T06:35:28.000Z</time>
      </trkpt>
      <trkpt lat="45.22084" lon="5.73416">
        <ele>1020.4000244141</ele>
        <time>2021-10-16T06:35:30.000Z</time>
      </trkpt>
      <trkpt lat="45.22085" lon="5.73418">
        <ele>1020.5999755859</ele>
        <time>2021-10-16T06:35:31.000Z</time>
      </trkpt>
      <trkpt lat="45.22085" lon="5.73424">
        <ele>1021.4000244141</ele>
        <time>2021-10-16T06:35:35.000Z</time>
      </trkpt>
      <trkpt lat="45.22086" lon="5.73426">
        <ele>1021.799987793</ele>
        <time>2021-10-16T06:35:37.000Z</time>
      </trkpt>
      <trkpt lat="45.22086" lon="5.73427">
        <ele>1022.799987793</ele>
        <time>2021-10-16T06:35:39.000Z</time>
      </trkpt>
      <trkpt lat="45.22089" lon="5.73433">
        <ele>1024</ele>
        <time>2021-10-16T06:35:45.000Z</time>
      </trkpt>
      <trkpt lat="45.22089" lon="5.73434">
        <ele>1024.4000244141</ele>
        <time>2021-10-16T06:35:46.000Z</time>
      </trkpt>
      <trkpt lat="45.2209" lon="5.73435">
        <ele>1025.1999511719</ele>
        <time>2021-10-16T06:35:47.000Z</time>
      </trkpt>
      <trkpt lat="45.2209" lon="5.73437">
        <ele>1025.4000244141</ele>
        <time>2021-10-16T06:35:48.000Z</time>
      </trkpt>
      <trkpt lat="45.22089" lon="5.73439">
        <ele>1025.8000488281</ele>
        <time>2021-10-16T06:35:50.000Z</time>
      </trkpt>
      <trkpt lat="45.2209" lon="5.73441">
        <ele>1026.4000244141</ele>
        <time>2021-10-16T06:35:52.000Z</time>
      </trkpt>
      <trkpt lat="45.22091" lon="5.73442">
        <ele>1027.5999755859</ele>
        <time>2021-10-16T06:35:54.000Z</time>
      </trkpt>
      <trkpt lat="45.22091" lon="5.73443">
        <ele>1027.5999755859</ele>
        <time>2021-10-16T06:35:55.000Z</time>
      </trkpt>
      <trkpt lat="45.22092" lon="5.73444">
        <ele>1028.4000244141</ele>
        <time>2021-10-16T06:35:57.000Z</time>
      </trkpt>
      <trkpt lat="45.22091" lon="5.73445">
        <ele>1029.1999511719</ele>
        <time>2021-10-16T06:35:58.000Z</time>
      </trkpt>
      <trkpt lat="45.22091" lon="5.73445">
        <ele>1029.8000488281</ele>
        <time>2021-10-16T06:35:59.000Z</time>
      </trkpt>
      <trkpt lat="45.22092" lon="5.73449">
        <ele>1030</ele>
        <time>2021-10-16T06:36:02.000Z</time>
      </trkpt>
      <trkpt lat="45.22092" lon="5.73451">
        <ele>1030.1999511719</ele>
        <time>2021-10-16T06:36:04.000Z</time>
      </trkpt>
      <trkpt lat="45.22091" lon="5.73452">
        <ele>1030.1999511719</ele>
        <time>2021-10-16T06:36:05.000Z</time>
      </trkpt>
      <trkpt lat="45.22088" lon="5.73454">
        <ele>1031.1999511719</ele>
        <time>2021-10-16T06:36:08.000Z</time>
      </trkpt>
      <trkpt lat="45.22087" lon="5.73454">
        <ele>1031.4000244141</ele>
        <time>2021-10-16T06:36:09.000Z</time>
      </trkpt>
      <trkpt lat="45.22084" lon="5.73454">
        <ele>1032</ele>
        <time>2021-10-16T06:36:12.000Z</time>
      </trkpt>
      <trkpt lat="45.22084" lon="5.73454">
        <ele>1032.1999511719</ele>
        <time>2021-10-16T06:36:13.000Z</time>
      </trkpt>
      <trkpt lat="45.22082" lon="5.73454">
        <ele>1032.5999755859</ele>
        <time>2021-10-16T06:36:16.000Z</time>
      </trkpt>
      <trkpt lat="45.22079" lon="5.73456">
        <ele>1033.8000488281</ele>
        <time>2021-10-16T06:36:19.000Z</time>
      </trkpt>
      <trkpt lat="45.22076" lon="5.73459">
        <ele>1034.8000488281</ele>
        <time>2021-10-16T06:36:23.000Z</time>
      </trkpt>
      <trkpt lat="45.22075" lon="5.7346">
        <ele>1035.1999511719</ele>
        <time>2021-10-16T06:36:24.000Z</time>
      </trkpt>
      <trkpt lat="45.22074" lon="5.73461">
        <ele>1035.8000488281</ele>
        <time>2021-10-16T06:36:26.000Z</time>
      </trkpt>
      <trkpt lat="45.22074" lon="5.73462">
        <ele>1036.1999511719</ele>
        <time>2021-10-16T06:36:27.000Z</time>
      </trkpt>
      <trkpt lat="45.22073" lon="5.73463">
        <ele>1036.5999755859</ele>
        <time>2021-10-16T06:36:29.000Z</time>
      </trkpt>
      <trkpt lat="45.22073" lon="5.73464">
        <ele>1037.1999511719</ele>
        <time>2021-10-16T06:36:30.000Z</time>
      </trkpt>
      <trkpt lat="45.22072" lon="5.73465">
        <ele>1037.8000488281</ele>
        <time>2021-10-16T06:36:32.000Z</time>
      </trkpt>
      <trkpt lat="45.22071" lon="5.73468">
        <ele>1038.4000244141</ele>
        <time>2021-10-16T06:36:36.000Z</time>
      </trkpt>
      <trkpt lat="45.22071" lon="5.73469">
        <ele>1038.5999755859</ele>
        <time>2021-10-16T06:36:37.000Z</time>
      </trkpt>
      <trkpt lat="45.22072" lon="5.7347">
        <ele>1039.5999755859</ele>
        <time>2021-10-16T06:36:39.000Z</time>
      </trkpt>
      <trkpt lat="45.22072" lon="5.73473">
        <ele>1039.8000488281</ele>
        <time>2021-10-16T06:36:41.000Z</time>
      </trkpt>
      <trkpt lat="45.22071" lon="5.73475">
        <ele>1040.1999511719</ele>
        <time>2021-10-16T06:36:42.000Z</time>
      </trkpt>
      <trkpt lat="45.22069" lon="5.7348">
        <ele>1040.5999755859</ele>
        <time>2021-10-16T06:36:45.000Z</time>
      </trkpt>
      <trkpt lat="45.22065" lon="5.73482">
        <ele>1041.5999755859</ele>
        <time>2021-10-16T06:36:50.000Z</time>
      </trkpt>
      <trkpt lat="45.22064" lon="5.73484">
        <ele>1041.8000488281</ele>
        <time>2021-10-16T06:36:51.000Z</time>
      </trkpt>
      <trkpt lat="45.22059" lon="5.73485">
        <ele>1042.4000244141</ele>
        <time>2021-10-16T06:36:55.000Z</time>
      </trkpt>
      <trkpt lat="45.22056" lon="5.73484">
        <ele>1042.8000488281</ele>
        <time>2021-10-16T06:36:57.000Z</time>
      </trkpt>
      <trkpt lat="45.22052" lon="5.73481">
        <ele>1043.1999511719</ele>
        <time>2021-10-16T06:37:00.000Z</time>
      </trkpt>
      <trkpt lat="45.22048" lon="5.73476">
        <ele>1043.8000488281</ele>
        <time>2021-10-16T06:37:02.000Z</time>
      </trkpt>
      <trkpt lat="45.22047" lon="5.73475">
        <ele>1044</ele>
        <time>2021-10-16T06:37:03.000Z</time>
      </trkpt>
      <trkpt lat="45.22043" lon="5.73471">
        <ele>1045</ele>
        <time>2021-10-16T06:37:07.000Z</time>
      </trkpt>
      <trkpt lat="45.22039" lon="5.73468">
        <ele>1045.5999755859</ele>
        <time>2021-10-16T06:37:11.000Z</time>
      </trkpt>
      <trkpt lat="45.22038" lon="5.73467">
        <ele>1045.8000488281</ele>
        <time>2021-10-16T06:37:12.000Z</time>
      </trkpt>
      <trkpt lat="45.22037" lon="5.73467">
        <ele>1046.4000244141</ele>
        <time>2021-10-16T06:37:13.000Z</time>
      </trkpt>
      <trkpt lat="45.22032" lon="5.73465">
        <ele>1047.4000244141</ele>
        <time>2021-10-16T06:37:17.000Z</time>
      </trkpt>
      <trkpt lat="45.2203" lon="5.73461">
        <ele>1048.5999755859</ele>
        <time>2021-10-16T06:37:21.000Z</time>
      </trkpt>
      <trkpt lat="45.22023" lon="5.73452">
        <ele>1049.5999755859</ele>
        <time>2021-10-16T06:37:28.000Z</time>
      </trkpt>
      <trkpt lat="45.22021" lon="5.7345">
        <ele>1050</ele>
        <time>2021-10-16T06:37:29.000Z</time>
      </trkpt>
      <trkpt lat="45.22014" lon="5.73446">
        <ele>1050.8000488281</ele>
        <time>2021-10-16T06:37:34.000Z</time>
      </trkpt>
      <trkpt lat="45.22011" lon="5.73445">
        <ele>1051</ele>
        <time>2021-10-16T06:37:35.000Z</time>
      </trkpt>
      <trkpt lat="45.22008" lon="5.73444">
        <ele>1051.8000488281</ele>
        <time>2021-10-16T06:37:37.000Z</time>
      </trkpt>
      <trkpt lat="45.21999" lon="5.73444">
        <ele>1051.1999511719</ele>
        <time>2021-10-16T06:37:42.000Z</time>
      </trkpt>
      <trkpt lat="45.21994" lon="5.73443">
        <ele>1051.1999511719</ele>
        <time>2021-10-16T06:37:45.000Z</time>
      </trkpt>
      <trkpt lat="45.21992" lon="5.73442">
        <ele>1050.5999755859</ele>
        <time>2021-10-16T06:37:47.000Z</time>
      </trkpt>
      <trkpt lat="45.21985" lon="5.73438">
        <ele>1049.1999511719</ele>
        <time>2021-10-16T06:37:51.000Z</time>
      </trkpt>
      <trkpt lat="45.21979" lon="5.73434">
        <ele>1048.5999755859</ele>
        <time>2021-10-16T06:37:55.000Z</time>
      </trkpt>
      <trkpt lat="45.21978" lon="5.73433">
        <ele>1047.8000488281</ele>
        <time>2021-10-16T06:37:56.000Z</time>
      </trkpt>
      <trkpt lat="45.21977" lon="5.73432">
        <ele>1047.5999755859</ele>
        <time>2021-10-16T06:37:57.000Z</time>
      </trkpt>
      <trkpt lat="45.21974" lon="5.7343">
        <ele>1047.1999511719</ele>
        <time>2021-10-16T06:37:59.000Z</time>
      </trkpt>
      <trkpt lat="45.21973" lon="5.73429">
        <ele>1047.1999511719</ele>
        <time>2021-10-16T06:38:00.000Z</time>
      </trkpt>
      <trkpt lat="45.2197" lon="5.73428">
        <ele>1047</ele>
        <time>2021-10-16T06:38:02.000Z</time>
      </trkpt>
      <trkpt lat="45.21968" lon="5.73427">
        <ele>1046.5999755859</ele>
        <time>2021-10-16T06:38:03.000Z</time>
      </trkpt>
      <trkpt lat="45.21962" lon="5.73429">
        <ele>1046.1999511719</ele>
        <time>2021-10-16T06:38:06.000Z</time>
      </trkpt>
      <trkpt lat="45.2195" lon="5.7343">
        <ele>1045.5999755859</ele>
        <time>2021-10-16T06:38:11.000Z</time>
      </trkpt>
      <trkpt lat="45.21949" lon="5.73429">
        <ele>1045.5999755859</ele>
        <time>2021-10-16T06:38:12.000Z</time>
      </trkpt>
      <trkpt lat="45.21947" lon="5.73428">
        <ele>1045.1999511719</ele>
        <time>2021-10-16T06:38:13.000Z</time>
      </trkpt>
      <trkpt lat="45.21943" lon="5.73428">
        <ele>1045</ele>
        <time>2021-10-16T06:38:16.000Z</time>
      </trkpt>
      <trkpt lat="45.2194" lon="5.73425">
        <ele>1044.8000488281</ele>
        <time>2021-10-16T06:38:18.000Z</time>
      </trkpt>
      <trkpt lat="45.21938" lon="5.73421">
        <ele>1044.1999511719</ele>
        <time>2021-10-16T06:38:20.000Z</time>
      </trkpt>
      <trkpt lat="45.21936" lon="5.73419">
        <ele>1044.1999511719</ele>
        <time>2021-10-16T06:38:22.000Z</time>
      </trkpt>
      <trkpt lat="45.21935" lon="5.73418">
        <ele>1044.1999511719</ele>
        <time>2021-10-16T06:38:23.000Z</time>
      </trkpt>
      <trkpt lat="45.21935" lon="5.73416">
        <ele>1044</ele>
        <time>2021-10-16T06:38:24.000Z</time>
      </trkpt>
      <trkpt lat="45.21932" lon="5.73407">
        <ele>1043.1999511719</ele>
        <time>2021-10-16T06:38:27.000Z</time>
      </trkpt>
      <trkpt lat="45.2193" lon="5.73404">
        <ele>1042.8000488281</ele>
        <time>2021-10-16T06:38:29.000Z</time>
      </trkpt>
      <trkpt lat="45.21926" lon="5.73397">
        <ele>1043.1999511719</ele>
        <time>2021-10-16T06:38:33.000Z</time>
      </trkpt>
      <trkpt lat="45.21923" lon="5.73395">
        <ele>1043.4000244141</ele>
        <time>2021-10-16T06:38:35.000Z</time>
      </trkpt>
      <trkpt lat="45.21917" lon="5.73393">
        <ele>1044.1999511719</ele>
        <time>2021-10-16T06:38:38.000Z</time>
      </trkpt>
      <trkpt lat="45.21915" lon="5.73392">
        <ele>1044.4000244141</ele>
        <time>2021-10-16T06:38:39.000Z</time>
      </trkpt>
      <trkpt lat="45.21909" lon="5.73389">
        <ele>1044.4000244141</ele>
        <time>2021-10-16T06:38:42.000Z</time>
      </trkpt>
      <trkpt lat="45.21905" lon="5.73387">
        <ele>1044.4000244141</ele>
        <time>2021-10-16T06:38:45.000Z</time>
      </trkpt>
      <trkpt lat="45.21901" lon="5.73385">
        <ele>1043.8000488281</ele>
        <time>2021-10-16T06:38:48.000Z</time>
      </trkpt>
      <trkpt lat="45.219" lon="5.73382">
        <ele>1043.8000488281</ele>
        <time>2021-10-16T06:38:50.000Z</time>
      </trkpt>
      <trkpt lat="45.21897" lon="5.7338">
        <ele>1043.5999755859</ele>
        <time>2021-10-16T06:38:52.000Z</time>
      </trkpt>
      <trkpt lat="45.21894" lon="5.73378">
        <ele>1043.4000244141</ele>
        <time>2021-10-16T06:38:54.000Z</time>
      </trkpt>
      <trkpt lat="45.21893" lon="5.73377">
        <ele>1043</ele>
        <time>2021-10-16T06:38:55.000Z</time>
      </trkpt>
      <trkpt lat="45.21891" lon="5.73374">
        <ele>1042.8000488281</ele>
        <time>2021-10-16T06:38:57.000Z</time>
      </trkpt>
      <trkpt lat="45.21884" lon="5.73368">
        <ele>1042.8000488281</ele>
        <time>2021-10-16T06:39:01.000Z</time>
      </trkpt>
      <trkpt lat="45.21874" lon="5.73363">
        <ele>1044.5999755859</ele>
        <time>2021-10-16T06:39:07.000Z</time>
      </trkpt>
      <trkpt lat="45.21872" lon="5.7336">
        <ele>1044.8000488281</ele>
        <time>2021-10-16T06:39:09.000Z</time>
      </trkpt>
      <trkpt lat="45.21871" lon="5.73359">
        <ele>1044.8000488281</ele>
        <time>2021-10-16T06:39:10.000Z</time>
      </trkpt>
      <trkpt lat="45.21869" lon="5.73359">
        <ele>1045.5999755859</ele>
        <time>2021-10-16T06:39:12.000Z</time>
      </trkpt>
      <trkpt lat="45.21868" lon="5.73359">
        <ele>1046.1999511719</ele>
        <time>2021-10-16T06:39:13.000Z</time>
      </trkpt>
      <trkpt lat="45.21867" lon="5.73358">
        <ele>1046.4000244141</ele>
        <time>2021-10-16T06:39:14.000Z</time>
      </trkpt>
      <trkpt lat="45.21862" lon="5.73358">
        <ele>1047.1999511719</ele>
        <time>2021-10-16T06:39:18.000Z</time>
      </trkpt>
      <trkpt lat="45.2186" lon="5.73357">
        <ele>1047.8000488281</ele>
        <time>2021-10-16T06:39:19.000Z</time>
      </trkpt>
      <trkpt lat="45.21858" lon="5.73356">
        <ele>1048</ele>
        <time>2021-10-16T06:39:21.000Z</time>
      </trkpt>
      <trkpt lat="45.21857" lon="5.73355">
        <ele>1049</ele>
        <time>2021-10-16T06:39:22.000Z</time>
      </trkpt>
      <trkpt lat="45.21855" lon="5.73353">
        <ele>1049.8000488281</ele>
        <time>2021-10-16T06:39:24.000Z</time>
      </trkpt>
      <trkpt lat="45.21853" lon="5.73352">
        <ele>1050</ele>
        <time>2021-10-16T06:39:26.000Z</time>
      </trkpt>
      <trkpt lat="45.2185" lon="5.7335">
        <ele>1050.8000488281</ele>
        <time>2021-10-16T06:39:29.000Z</time>
      </trkpt>
      <trkpt lat="45.21847" lon="5.73346">
        <ele>1050.1999511719</ele>
        <time>2021-10-16T06:39:32.000Z</time>
      </trkpt>
      <trkpt lat="45.21843" lon="5.73341">
        <ele>1050</ele>
        <time>2021-10-16T06:39:35.000Z</time>
      </trkpt>
      <trkpt lat="45.21838" lon="5.73336">
        <ele>1049.5999755859</ele>
        <time>2021-10-16T06:39:39.000Z</time>
      </trkpt>
      <trkpt lat="45.21834" lon="5.73329">
        <ele>1049</ele>
        <time>2021-10-16T06:39:42.000Z</time>
      </trkpt>
      <trkpt lat="45.21828" lon="5.73322">
        <ele>1047.8000488281</ele>
        <time>2021-10-16T06:39:47.000Z</time>
      </trkpt>
      <trkpt lat="45.21827" lon="5.73321">
        <ele>1047.5999755859</ele>
        <time>2021-10-16T06:39:48.000Z</time>
      </trkpt>
      <trkpt lat="45.21826" lon="5.7332">
        <ele>1047.1999511719</ele>
        <time>2021-10-16T06:39:49.000Z</time>
      </trkpt>
      <trkpt lat="45.21825" lon="5.73319">
        <ele>1046.5999755859</ele>
        <time>2021-10-16T06:39:50.000Z</time>
      </trkpt>
      <trkpt lat="45.2182" lon="5.73313">
        <ele>1045.4000244141</ele>
        <time>2021-10-16T06:39:54.000Z</time>
      </trkpt>
      <trkpt lat="45.21815" lon="5.73309">
        <ele>1044.4000244141</ele>
        <time>2021-10-16T06:39:57.000Z</time>
      </trkpt>
      <trkpt lat="45.21812" lon="5.73303">
        <ele>1044</ele>
        <time>2021-10-16T06:40:00.000Z</time>
      </trkpt>
      <trkpt lat="45.21805" lon="5.73296">
        <ele>1043</ele>
        <time>2021-10-16T06:40:04.000Z</time>
      </trkpt>
      <trkpt lat="45.21801" lon="5.73291">
        <ele>1041.8000488281</ele>
        <time>2021-10-16T06:40:07.000Z</time>
      </trkpt>
      <trkpt lat="45.21795" lon="5.73284">
        <ele>1041</ele>
        <time>2021-10-16T06:40:13.000Z</time>
      </trkpt>
      <trkpt lat="45.21792" lon="5.73283">
        <ele>1040.4000244141</ele>
        <time>2021-10-16T06:40:15.000Z</time>
      </trkpt>
      <trkpt lat="45.21791" lon="5.73282">
        <ele>1040</ele>
        <time>2021-10-16T06:40:16.000Z</time>
      </trkpt>
      <trkpt lat="45.21788" lon="5.73278">
        <ele>1039.1999511719</ele>
        <time>2021-10-16T06:40:19.000Z</time>
      </trkpt>
      <trkpt lat="45.21786" lon="5.73276">
        <ele>1038.1999511719</ele>
        <time>2021-10-16T06:40:21.000Z</time>
      </trkpt>
      <trkpt lat="45.21782" lon="5.7327">
        <ele>1037.4000244141</ele>
        <time>2021-10-16T06:40:24.000Z</time>
      </trkpt>
      <trkpt lat="45.21782" lon="5.73266">
        <ele>1037.4000244141</ele>
        <time>2021-10-16T06:40:26.000Z</time>
      </trkpt>
      <trkpt lat="45.21784" lon="5.73261">
        <ele>1037</ele>
        <time>2021-10-16T06:40:28.000Z</time>
      </trkpt>
      <trkpt lat="45.21784" lon="5.73259">
        <ele>1036.5999755859</ele>
        <time>2021-10-16T06:40:29.000Z</time>
      </trkpt>
      <trkpt lat="45.21784" lon="5.73258">
        <ele>1036.5999755859</ele>
        <time>2021-10-16T06:40:30.000Z</time>
      </trkpt>
      <trkpt lat="45.21783" lon="5.73255">
        <ele>1035.8000488281</ele>
        <time>2021-10-16T06:40:32.000Z</time>
      </trkpt>
      <trkpt lat="45.21782" lon="5.73253">
        <ele>1035.5999755859</ele>
        <time>2021-10-16T06:40:33.000Z</time>
      </trkpt>
      <trkpt lat="45.21782" lon="5.73252">
        <ele>1035</ele>
        <time>2021-10-16T06:40:34.000Z</time>
      </trkpt>
      <trkpt lat="45.21781" lon="5.7325">
        <ele>1034.4000244141</ele>
        <time>2021-10-16T06:40:35.000Z</time>
      </trkpt>
      <trkpt lat="45.2178" lon="5.73248">
        <ele>1033.8000488281</ele>
        <time>2021-10-16T06:40:37.000Z</time>
      </trkpt>
      <trkpt lat="45.21779" lon="5.73244">
        <ele>1033.1999511719</ele>
        <time>2021-10-16T06:40:39.000Z</time>
      </trkpt>
      <trkpt lat="45.21778" lon="5.73241">
        <ele>1032.1999511719</ele>
        <time>2021-10-16T06:40:41.000Z</time>
      </trkpt>
      <trkpt lat="45.21777" lon="5.73239">
        <ele>1032.1999511719</ele>
        <time>2021-10-16T06:40:42.000Z</time>
      </trkpt>
      <trkpt lat="45.21773" lon="5.73236">
        <ele>1031.8000488281</ele>
        <time>2021-10-16T06:40:45.000Z</time>
      </trkpt>
      <trkpt lat="45.2177" lon="5.73234">
        <ele>1031.8000488281</ele>
        <time>2021-10-16T06:40:47.000Z</time>
      </trkpt>
      <trkpt lat="45.21769" lon="5.73233">
        <ele>1031.8000488281</ele>
        <time>2021-10-16T06:40:48.000Z</time>
      </trkpt>
      <trkpt lat="45.21765" lon="5.73227">
        <ele>1032</ele>
        <time>2021-10-16T06:40:51.000Z</time>
      </trkpt>
      <trkpt lat="45.21763" lon="5.73224">
        <ele>1031.5999755859</ele>
        <time>2021-10-16T06:40:53.000Z</time>
      </trkpt>
      <trkpt lat="45.21758" lon="5.7322">
        <ele>1031.1999511719</ele>
        <time>2021-10-16T06:40:57.000Z</time>
      </trkpt>
      <trkpt lat="45.21757" lon="5.73216">
        <ele>1030.4000244141</ele>
        <time>2021-10-16T06:41:00.000Z</time>
      </trkpt>
      <trkpt lat="45.21757" lon="5.73215">
        <ele>1029.8000488281</ele>
        <time>2021-10-16T06:41:01.000Z</time>
      </trkpt>
      <trkpt lat="45.21756" lon="5.73214">
        <ele>1029.5999755859</ele>
        <time>2021-10-16T06:41:03.000Z</time>
      </trkpt>
      <trkpt lat="45.21756" lon="5.73212">
        <ele>1029</ele>
        <time>2021-10-16T06:41:05.000Z</time>
      </trkpt>
      <trkpt lat="45.21756" lon="5.7321">
        <ele>1028.5999755859</ele>
        <time>2021-10-16T06:41:06.000Z</time>
      </trkpt>
      <trkpt lat="45.21751" lon="5.73206">
        <ele>1027.8000488281</ele>
        <time>2021-10-16T06:41:10.000Z</time>
      </trkpt>
      <trkpt lat="45.2175" lon="5.73205">
        <ele>1027.8000488281</ele>
        <time>2021-10-16T06:41:11.000Z</time>
      </trkpt>
      <trkpt lat="45.21748" lon="5.73204">
        <ele>1027.8000488281</ele>
        <time>2021-10-16T06:41:12.000Z</time>
      </trkpt>
      <trkpt lat="45.21746" lon="5.73204">
        <ele>1028</ele>
        <time>2021-10-16T06:41:14.000Z</time>
      </trkpt>
      <trkpt lat="45.2174" lon="5.73206">
        <ele>1029</ele>
        <time>2021-10-16T06:41:18.000Z</time>
      </trkpt>
      <trkpt lat="45.21738" lon="5.73206">
        <ele>1029</ele>
        <time>2021-10-16T06:41:19.000Z</time>
      </trkpt>
      <trkpt lat="45.21735" lon="5.73211">
        <ele>1028.5999755859</ele>
        <time>2021-10-16T06:41:24.000Z</time>
      </trkpt>
      <trkpt lat="45.21732" lon="5.73214">
        <ele>1028</ele>
        <time>2021-10-16T06:41:27.000Z</time>
      </trkpt>
      <trkpt lat="45.2173" lon="5.73216">
        <ele>1027.4000244141</ele>
        <time>2021-10-16T06:41:29.000Z</time>
      </trkpt>
      <trkpt lat="45.21729" lon="5.73218">
        <ele>1026.8000488281</ele>
        <time>2021-10-16T06:41:31.000Z</time>
      </trkpt>
      <trkpt lat="45.21727" lon="5.73219">
        <ele>1026</ele>
        <time>2021-10-16T06:41:33.000Z</time>
      </trkpt>
      <trkpt lat="45.21725" lon="5.7322">
        <ele>1024.8000488281</ele>
        <time>2021-10-16T06:41:36.000Z</time>
      </trkpt>
      <trkpt lat="45.21723" lon="5.73221">
        <ele>1024.4000244141</ele>
        <time>2021-10-16T06:41:38.000Z</time>
      </trkpt>
      <trkpt lat="45.21721" lon="5.7322">
        <ele>1023.799987793</ele>
        <time>2021-10-16T06:41:40.000Z</time>
      </trkpt>
      <trkpt lat="45.2172" lon="5.73219">
        <ele>1023.5999755859</ele>
        <time>2021-10-16T06:41:41.000Z</time>
      </trkpt>
      <trkpt lat="45.21717" lon="5.73215">
        <ele>1022.799987793</ele>
        <time>2021-10-16T06:41:43.000Z</time>
      </trkpt>
      <trkpt lat="45.21715" lon="5.73214">
        <ele>1022.5999755859</ele>
        <time>2021-10-16T06:41:44.000Z</time>
      </trkpt>
      <trkpt lat="45.21711" lon="5.73212">
        <ele>1021.799987793</ele>
        <time>2021-10-16T06:41:46.000Z</time>
      </trkpt>
      <trkpt lat="45.2171" lon="5.7321">
        <ele>1021.5999755859</ele>
        <time>2021-10-16T06:41:47.000Z</time>
      </trkpt>
      <trkpt lat="45.21703" lon="5.73197">
        <ele>1021</ele>
        <time>2021-10-16T06:41:53.000Z</time>
      </trkpt>
      <trkpt lat="45.217" lon="5.73193">
        <ele>1021</ele>
        <time>2021-10-16T06:41:55.000Z</time>
      </trkpt>
      <trkpt lat="45.21696" lon="5.73186">
        <ele>1020.5999755859</ele>
        <time>2021-10-16T06:41:58.000Z</time>
      </trkpt>
      <trkpt lat="45.21695" lon="5.73184">
        <ele>1020.4000244141</ele>
        <time>2021-10-16T06:41:59.000Z</time>
      </trkpt>
      <trkpt lat="45.21692" lon="5.73177">
        <ele>1018.4000244141</ele>
        <time>2021-10-16T06:42:04.000Z</time>
      </trkpt>
      <trkpt lat="45.21691" lon="5.73175">
        <ele>1018.4000244141</ele>
        <time>2021-10-16T06:42:05.000Z</time>
      </trkpt>
      <trkpt lat="45.21688" lon="5.7317">
        <ele>1017.5999755859</ele>
        <time>2021-10-16T06:42:08.000Z</time>
      </trkpt>
      <trkpt lat="45.21688" lon="5.73169">
        <ele>1017.200012207</ele>
        <time>2021-10-16T06:42:09.000Z</time>
      </trkpt>
      <trkpt lat="45.21687" lon="5.73166">
        <ele>1016.200012207</ele>
        <time>2021-10-16T06:42:12.000Z</time>
      </trkpt>
      <trkpt lat="45.21686" lon="5.73165">
        <ele>1016</ele>
        <time>2021-10-16T06:42:13.000Z</time>
      </trkpt>
      <trkpt lat="45.21685" lon="5.73162">
        <ele>1015.200012207</ele>
        <time>2021-10-16T06:42:15.000Z</time>
      </trkpt>
      <trkpt lat="45.21684" lon="5.7316">
        <ele>1014.4000244141</ele>
        <time>2021-10-16T06:42:17.000Z</time>
      </trkpt>
      <trkpt lat="45.21681" lon="5.73155">
        <ele>1014.200012207</ele>
        <time>2021-10-16T06:42:19.000Z</time>
      </trkpt>
      <trkpt lat="45.2168" lon="5.73153">
        <ele>1013.799987793</ele>
        <time>2021-10-16T06:42:20.000Z</time>
      </trkpt>
      <trkpt lat="45.21679" lon="5.73152">
        <ele>1013</ele>
        <time>2021-10-16T06:42:21.000Z</time>
      </trkpt>
      <trkpt lat="45.21677" lon="5.73145">
        <ele>1011.799987793</ele>
        <time>2021-10-16T06:42:25.000Z</time>
      </trkpt>
      <trkpt lat="45.21673" lon="5.73143">
        <ele>1010.799987793</ele>
        <time>2021-10-16T06:42:28.000Z</time>
      </trkpt>
      <trkpt lat="45.21672" lon="5.73141">
        <ele>1010.5999755859</ele>
        <time>2021-10-16T06:42:30.000Z</time>
      </trkpt>
      <trkpt lat="45.21672" lon="5.7314">
        <ele>1010.4000244141</ele>
        <time>2021-10-16T06:42:31.000Z</time>
      </trkpt>
      <trkpt lat="45.21672" lon="5.73139">
        <ele>1010.200012207</ele>
        <time>2021-10-16T06:42:32.000Z</time>
      </trkpt>
      <trkpt lat="45.21671" lon="5.73138">
        <ele>1009.5999755859</ele>
        <time>2021-10-16T06:42:33.000Z</time>
      </trkpt>
      <trkpt lat="45.2167" lon="5.73138">
        <ele>1008.4000244141</ele>
        <time>2021-10-16T06:42:35.000Z</time>
      </trkpt>
      <trkpt lat="45.2167" lon="5.73138">
        <ele>1008.4000244141</ele>
        <time>2021-10-16T06:42:36.000Z</time>
      </trkpt>
      <trkpt lat="45.21668" lon="5.73139">
        <ele>1007</ele>
        <time>2021-10-16T06:42:38.000Z</time>
      </trkpt>
      <trkpt lat="45.21666" lon="5.73138">
        <ele>1006.5999755859</ele>
        <time>2021-10-16T06:42:39.000Z</time>
      </trkpt>
      <trkpt lat="45.21662" lon="5.73133">
        <ele>1005.799987793</ele>
        <time>2021-10-16T06:42:43.000Z</time>
      </trkpt>
      <trkpt lat="45.21659" lon="5.73134">
        <ele>1004.5999755859</ele>
        <time>2021-10-16T06:42:46.000Z</time>
      </trkpt>
      <trkpt lat="45.21655" lon="5.73136">
        <ele>1003.5999755859</ele>
        <time>2021-10-16T06:42:49.000Z</time>
      </trkpt>
      <trkpt lat="45.21654" lon="5.73135">
        <ele>1003</ele>
        <time>2021-10-16T06:42:50.000Z</time>
      </trkpt>
      <trkpt lat="45.2165" lon="5.73135">
        <ele>1002.4000244141</ele>
        <time>2021-10-16T06:42:53.000Z</time>
      </trkpt>
      <trkpt lat="45.21648" lon="5.73136">
        <ele>1002</ele>
        <time>2021-10-16T06:42:54.000Z</time>
      </trkpt>
      <trkpt lat="45.21647" lon="5.73136">
        <ele>1001.4000244141</ele>
        <time>2021-10-16T06:42:55.000Z</time>
      </trkpt>
      <trkpt lat="45.21646" lon="5.73136">
        <ele>1000.5999755859</ele>
        <time>2021-10-16T06:42:56.000Z</time>
      </trkpt>
      <trkpt lat="45.21638" lon="5.73136">
        <ele>999.59997558594</ele>
        <time>2021-10-16T06:43:00.000Z</time>
      </trkpt>
      <trkpt lat="45.21637" lon="5.73137">
        <ele>999.20001220703</ele>
        <time>2021-10-16T06:43:01.000Z</time>
      </trkpt>
      <trkpt lat="45.21634" lon="5.73137">
        <ele>998.40002441406</ele>
        <time>2021-10-16T06:43:03.000Z</time>
      </trkpt>
      <trkpt lat="45.21633" lon="5.73138">
        <ele>997.59997558594</ele>
        <time>2021-10-16T06:43:04.000Z</time>
      </trkpt>
      <trkpt lat="45.21632" lon="5.73137">
        <ele>997.40002441406</ele>
        <time>2021-10-16T06:43:05.000Z</time>
      </trkpt>
      <trkpt lat="45.21631" lon="5.73137">
        <ele>996.20001220703</ele>
        <time>2021-10-16T06:43:06.000Z</time>
      </trkpt>
      <trkpt lat="45.21625" lon="5.73134">
        <ele>994.79998779297</ele>
        <time>2021-10-16T06:43:09.000Z</time>
      </trkpt>
      <trkpt lat="45.21621" lon="5.73129">
        <ele>993.59997558594</ele>
        <time>2021-10-16T06:43:12.000Z</time>
      </trkpt>
      <trkpt lat="45.2162" lon="5.73128">
        <ele>993.20001220703</ele>
        <time>2021-10-16T06:43:13.000Z</time>
      </trkpt>
      <trkpt lat="45.21618" lon="5.73127">
        <ele>992.59997558594</ele>
        <time>2021-10-16T06:43:14.000Z</time>
      </trkpt>
      <trkpt lat="45.21613" lon="5.73126">
        <ele>991.40002441406</ele>
        <time>2021-10-16T06:43:16.000Z</time>
      </trkpt>
      <trkpt lat="45.2161" lon="5.73125">
        <ele>991.40002441406</ele>
        <time>2021-10-16T06:43:17.000Z</time>
      </trkpt>
      <trkpt lat="45.21604" lon="5.73123">
        <ele>990.40002441406</ele>
        <time>2021-10-16T06:43:19.000Z</time>
      </trkpt>
      <trkpt lat="45.21598" lon="5.73118">
        <ele>989</ele>
        <time>2021-10-16T06:43:22.000Z</time>
      </trkpt>
      <trkpt lat="45.2159" lon="5.73114">
        <ele>987.79998779297</ele>
        <time>2021-10-16T06:43:26.000Z</time>
      </trkpt>
      <trkpt lat="45.21586" lon="5.73115">
        <ele>987</ele>
        <time>2021-10-16T06:43:28.000Z</time>
      </trkpt>
      <trkpt lat="45.21584" lon="5.73118">
        <ele>986.59997558594</ele>
        <time>2021-10-16T06:43:30.000Z</time>
      </trkpt>
      <trkpt lat="45.21582" lon="5.7312">
        <ele>985.59997558594</ele>
        <time>2021-10-16T06:43:32.000Z</time>
      </trkpt>
      <trkpt lat="45.21582" lon="5.73123">
        <ele>984.20001220703</ele>
        <time>2021-10-16T06:43:34.000Z</time>
      </trkpt>
      <trkpt lat="45.21582" lon="5.73125">
        <ele>984</ele>
        <time>2021-10-16T06:43:35.000Z</time>
      </trkpt>
      <trkpt lat="45.21584" lon="5.73129">
        <ele>983.20001220703</ele>
        <time>2021-10-16T06:43:37.000Z</time>
      </trkpt>
      <trkpt lat="45.21584" lon="5.73132">
        <ele>982</ele>
        <time>2021-10-16T06:43:38.000Z</time>
      </trkpt>
      <trkpt lat="45.21584" lon="5.73138">
        <ele>981</ele>
        <time>2021-10-16T06:43:41.000Z</time>
      </trkpt>
      <trkpt lat="45.21583" lon="5.73139">
        <ele>980.79998779297</ele>
        <time>2021-10-16T06:43:42.000Z</time>
      </trkpt>
      <trkpt lat="45.21582" lon="5.7314">
        <ele>979.79998779297</ele>
        <time>2021-10-16T06:43:43.000Z</time>
      </trkpt>
      <trkpt lat="45.21579" lon="5.73141">
        <ele>978.59997558594</ele>
        <time>2021-10-16T06:43:46.000Z</time>
      </trkpt>
      <trkpt lat="45.21578" lon="5.73142">
        <ele>978.20001220703</ele>
        <time>2021-10-16T06:43:48.000Z</time>
      </trkpt>
      <trkpt lat="45.21577" lon="5.73143">
        <ele>977</ele>
        <time>2021-10-16T06:43:49.000Z</time>
      </trkpt>
      <trkpt lat="45.21576" lon="5.73147">
        <ele>975.59997558594</ele>
        <time>2021-10-16T06:43:52.000Z</time>
      </trkpt>
      <trkpt lat="45.21577" lon="5.73151">
        <ele>974.40002441406</ele>
        <time>2021-10-16T06:43:55.000Z</time>
      </trkpt>
      <trkpt lat="45.21576" lon="5.73157">
        <ele>972.79998779297</ele>
        <time>2021-10-16T06:43:59.000Z</time>
      </trkpt>
      <trkpt lat="45.21575" lon="5.73157">
        <ele>972.79998779297</ele>
        <time>2021-10-16T06:44:00.000Z</time>
      </trkpt>
      <trkpt lat="45.21574" lon="5.73157">
        <ele>971.59997558594</ele>
        <time>2021-10-16T06:44:01.000Z</time>
      </trkpt>
      <trkpt lat="45.2157" lon="5.73161">
        <ele>969.79998779297</ele>
        <time>2021-10-16T06:44:05.000Z</time>
      </trkpt>
      <trkpt lat="45.21569" lon="5.73162">
        <ele>969.79998779297</ele>
        <time>2021-10-16T06:44:06.000Z</time>
      </trkpt>
      <trkpt lat="45.21569" lon="5.73169">
        <ele>967.59997558594</ele>
        <time>2021-10-16T06:44:10.000Z</time>
      </trkpt>
      <trkpt lat="45.21569" lon="5.73171">
        <ele>967</ele>
        <time>2021-10-16T06:44:12.000Z</time>
      </trkpt>
      <trkpt lat="45.21569" lon="5.73174">
        <ele>966.40002441406</ele>
        <time>2021-10-16T06:44:14.000Z</time>
      </trkpt>
      <trkpt lat="45.21571" lon="5.73177">
        <ele>965.59997558594</ele>
        <time>2021-10-16T06:44:16.000Z</time>
      </trkpt>
      <trkpt lat="45.21572" lon="5.73179">
        <ele>965.20001220703</ele>
        <time>2021-10-16T06:44:18.000Z</time>
      </trkpt>
      <trkpt lat="45.21573" lon="5.7318">
        <ele>964.59997558594</ele>
        <time>2021-10-16T06:44:19.000Z</time>
      </trkpt>
      <trkpt lat="45.21574" lon="5.73181">
        <ele>963.79998779297</ele>
        <time>2021-10-16T06:44:20.000Z</time>
      </trkpt>
      <trkpt lat="45.21577" lon="5.73186">
        <ele>962.59997558594</ele>
        <time>2021-10-16T06:44:23.000Z</time>
      </trkpt>
      <trkpt lat="45.2158" lon="5.73189">
        <ele>962.20001220703</ele>
        <time>2021-10-16T06:44:25.000Z</time>
      </trkpt>
      <trkpt lat="45.21583" lon="5.73192">
        <ele>961</ele>
        <time>2021-10-16T06:44:27.000Z</time>
      </trkpt>
      <trkpt lat="45.21586" lon="5.73195">
        <ele>960.79998779297</ele>
        <time>2021-10-16T06:44:29.000Z</time>
      </trkpt>
      <trkpt lat="45.21587" lon="5.73197">
        <ele>960.20001220703</ele>
        <time>2021-10-16T06:44:30.000Z</time>
      </trkpt>
      <trkpt lat="45.21589" lon="5.732">
        <ele>959.79998779297</ele>
        <time>2021-10-16T06:44:31.000Z</time>
      </trkpt>
      <trkpt lat="45.21593" lon="5.73207">
        <ele>959.20001220703</ele>
        <time>2021-10-16T06:44:34.000Z</time>
      </trkpt>
      <trkpt lat="45.21594" lon="5.73209">
        <ele>958.40002441406</ele>
        <time>2021-10-16T06:44:35.000Z</time>
      </trkpt>
      <trkpt lat="45.21596" lon="5.73213">
        <ele>958.40002441406</ele>
        <time>2021-10-16T06:44:37.000Z</time>
      </trkpt>
      <trkpt lat="45.21598" lon="5.73215">
        <ele>958.20001220703</ele>
        <time>2021-10-16T06:44:38.000Z</time>
      </trkpt>
      <trkpt lat="45.21599" lon="5.73216">
        <ele>958.20001220703</ele>
        <time>2021-10-16T06:44:39.000Z</time>
      </trkpt>
      <trkpt lat="45.216" lon="5.73217">
        <ele>957</ele>
        <time>2021-10-16T06:44:40.000Z</time>
      </trkpt>
      <trkpt lat="45.21601" lon="5.73218">
        <ele>957</ele>
        <time>2021-10-16T06:44:41.000Z</time>
      </trkpt>
      <trkpt lat="45.21605" lon="5.73221">
        <ele>955.59997558594</ele>
        <time>2021-10-16T06:44:44.000Z</time>
      </trkpt>
      <trkpt lat="45.21607" lon="5.73223">
        <ele>955</ele>
        <time>2021-10-16T06:44:46.000Z</time>
      </trkpt>
      <trkpt lat="45.21608" lon="5.73224">
        <ele>954.20001220703</ele>
        <time>2021-10-16T06:44:47.000Z</time>
      </trkpt>
      <trkpt lat="45.21609" lon="5.73231">
        <ele>953.40002441406</ele>
        <time>2021-10-16T06:44:50.000Z</time>
      </trkpt>
      <trkpt lat="45.21611" lon="5.73233">
        <ele>953.20001220703</ele>
        <time>2021-10-16T06:44:51.000Z</time>
      </trkpt>
      <trkpt lat="45.21612" lon="5.73235">
        <ele>952.40002441406</ele>
        <time>2021-10-16T06:44:52.000Z</time>
      </trkpt>
      <trkpt lat="45.21615" lon="5.73238">
        <ele>952</ele>
        <time>2021-10-16T06:44:54.000Z</time>
      </trkpt>
      <trkpt lat="45.21619" lon="5.73246">
        <ele>950.59997558594</ele>
        <time>2021-10-16T06:44:57.000Z</time>
      </trkpt>
      <trkpt lat="45.2162" lon="5.73248">
        <ele>950.20001220703</ele>
        <time>2021-10-16T06:44:58.000Z</time>
      </trkpt>
      <trkpt lat="45.21623" lon="5.73255">
        <ele>949</ele>
        <time>2021-10-16T06:45:01.000Z</time>
      </trkpt>
      <trkpt lat="45.21626" lon="5.73263">
        <ele>948.40002441406</ele>
        <time>2021-10-16T06:45:04.000Z</time>
      </trkpt>
      <trkpt lat="45.21627" lon="5.73265">
        <ele>948</ele>
        <time>2021-10-16T06:45:05.000Z</time>
      </trkpt>
      <trkpt lat="45.2163" lon="5.73271">
        <ele>946.59997558594</ele>
        <time>2021-10-16T06:45:07.000Z</time>
      </trkpt>
      <trkpt lat="45.21634" lon="5.73278">
        <ele>945.40002441406</ele>
        <time>2021-10-16T06:45:10.000Z</time>
      </trkpt>
      <trkpt lat="45.21635" lon="5.73282">
        <ele>945.40002441406</ele>
        <time>2021-10-16T06:45:11.000Z</time>
      </trkpt>
      <trkpt lat="45.21638" lon="5.7329">
        <ele>944.20001220703</ele>
        <time>2021-10-16T06:45:14.000Z</time>
      </trkpt>
      <trkpt lat="45.21639" lon="5.73292">
        <ele>944</ele>
        <time>2021-10-16T06:45:15.000Z</time>
      </trkpt>
      <trkpt lat="45.21639" lon="5.73297">
        <ele>943.59997558594</ele>
        <time>2021-10-16T06:45:17.000Z</time>
      </trkpt>
      <trkpt lat="45.2164" lon="5.73303">
        <ele>942.79998779297</ele>
        <time>2021-10-16T06:45:19.000Z</time>
      </trkpt>
      <trkpt lat="45.21641" lon="5.73307">
        <ele>942</ele>
        <time>2021-10-16T06:45:21.000Z</time>
      </trkpt>
      <trkpt lat="45.21641" lon="5.73309">
        <ele>941.59997558594</ele>
        <time>2021-10-16T06:45:22.000Z</time>
      </trkpt>
      <trkpt lat="45.21642" lon="5.73311">
        <ele>941.59997558594</ele>
        <time>2021-10-16T06:45:23.000Z</time>
      </trkpt>
      <trkpt lat="45.21642" lon="5.73313">
        <ele>940.59997558594</ele>
        <time>2021-10-16T06:45:24.000Z</time>
      </trkpt>
      <trkpt lat="45.21643" lon="5.73322">
        <ele>939.40002441406</ele>
        <time>2021-10-16T06:45:28.000Z</time>
      </trkpt>
      <trkpt lat="45.21644" lon="5.73324">
        <ele>939.40002441406</ele>
        <time>2021-10-16T06:45:29.000Z</time>
      </trkpt>
      <trkpt lat="45.21644" lon="5.73326">
        <ele>938.59997558594</ele>
        <time>2021-10-16T06:45:30.000Z</time>
      </trkpt>
      <trkpt lat="45.21645" lon="5.73329">
        <ele>937.79998779297</ele>
        <time>2021-10-16T06:45:31.000Z</time>
      </trkpt>
      <trkpt lat="45.21647" lon="5.73335">
        <ele>936.79998779297</ele>
        <time>2021-10-16T06:45:34.000Z</time>
      </trkpt>
      <trkpt lat="45.21648" lon="5.73338">
        <ele>935.79998779297</ele>
        <time>2021-10-16T06:45:35.000Z</time>
      </trkpt>
      <trkpt lat="45.21653" lon="5.73346">
        <ele>934.79998779297</ele>
        <time>2021-10-16T06:45:39.000Z</time>
      </trkpt>
      <trkpt lat="45.21653" lon="5.73349">
        <ele>934.40002441406</ele>
        <time>2021-10-16T06:45:40.000Z</time>
      </trkpt>
      <trkpt lat="45.21653" lon="5.73353">
        <ele>933</ele>
        <time>2021-10-16T06:45:42.000Z</time>
      </trkpt>
      <trkpt lat="45.21655" lon="5.73357">
        <ele>932.20001220703</ele>
        <time>2021-10-16T06:45:44.000Z</time>
      </trkpt>
      <trkpt lat="45.21656" lon="5.73359">
        <ele>931.79998779297</ele>
        <time>2021-10-16T06:45:45.000Z</time>
      </trkpt>
      <trkpt lat="45.21659" lon="5.73366">
        <ele>930.20001220703</ele>
        <time>2021-10-16T06:45:48.000Z</time>
      </trkpt>
      <trkpt lat="45.21661" lon="5.7337">
        <ele>929</ele>
        <time>2021-10-16T06:45:50.000Z</time>
      </trkpt>
      <trkpt lat="45.21663" lon="5.73378">
        <ele>927.79998779297</ele>
        <time>2021-10-16T06:45:53.000Z</time>
      </trkpt>
      <trkpt lat="45.21663" lon="5.7338">
        <ele>926.79998779297</ele>
        <time>2021-10-16T06:45:54.000Z</time>
      </trkpt>
      <trkpt lat="45.21662" lon="5.73382">
        <ele>926.59997558594</ele>
        <time>2021-10-16T06:45:55.000Z</time>
      </trkpt>
      <trkpt lat="45.21664" lon="5.73387">
        <ele>925.59997558594</ele>
        <time>2021-10-16T06:45:57.000Z</time>
      </trkpt>
      <trkpt lat="45.21664" lon="5.73388">
        <ele>924.79998779297</ele>
        <time>2021-10-16T06:45:58.000Z</time>
      </trkpt>
      <trkpt lat="45.21666" lon="5.73389">
        <ele>924.40002441406</ele>
        <time>2021-10-16T06:45:59.000Z</time>
      </trkpt>
      <trkpt lat="45.21667" lon="5.73391">
        <ele>924</ele>
        <time>2021-10-16T06:46:00.000Z</time>
      </trkpt>
      <trkpt lat="45.21667" lon="5.73394">
        <ele>923.79998779297</ele>
        <time>2021-10-16T06:46:01.000Z</time>
      </trkpt>
      <trkpt lat="45.21667" lon="5.73397">
        <ele>923</ele>
        <time>2021-10-16T06:46:02.000Z</time>
      </trkpt>
      <trkpt lat="45.21669" lon="5.73402">
        <ele>922</ele>
        <time>2021-10-16T06:46:04.000Z</time>
      </trkpt>
      <trkpt lat="45.21671" lon="5.73405">
        <ele>921</ele>
        <time>2021-10-16T06:46:06.000Z</time>
      </trkpt>
      <trkpt lat="45.21672" lon="5.73408">
        <ele>920.59997558594</ele>
        <time>2021-10-16T06:46:07.000Z</time>
      </trkpt>
      <trkpt lat="45.21672" lon="5.73415">
        <ele>919.79998779297</ele>
        <time>2021-10-16T06:46:09.000Z</time>
      </trkpt>
      <trkpt lat="45.21672" lon="5.73422">
        <ele>918.79998779297</ele>
        <time>2021-10-16T06:46:11.000Z</time>
      </trkpt>
      <trkpt lat="45.21672" lon="5.73433">
        <ele>917.59997558594</ele>
        <time>2021-10-16T06:46:14.000Z</time>
      </trkpt>
      <trkpt lat="45.2167" lon="5.73448">
        <ele>915.59997558594</ele>
        <time>2021-10-16T06:46:18.000Z</time>
      </trkpt>
      <trkpt lat="45.2167" lon="5.73462">
        <ele>914</ele>
        <time>2021-10-16T06:46:22.000Z</time>
      </trkpt>
      <trkpt lat="45.21671" lon="5.73469">
        <ele>913.40002441406</ele>
        <time>2021-10-16T06:46:25.000Z</time>
      </trkpt>
      <trkpt lat="45.21672" lon="5.73471">
        <ele>912.79998779297</ele>
        <time>2021-10-16T06:46:26.000Z</time>
      </trkpt>
      <trkpt lat="45.21674" lon="5.73476">
        <ele>911.79998779297</ele>
        <time>2021-10-16T06:46:30.000Z</time>
      </trkpt>
      <trkpt lat="45.21674" lon="5.73478">
        <ele>911.59997558594</ele>
        <time>2021-10-16T06:46:31.000Z</time>
      </trkpt>
      <trkpt lat="45.21679" lon="5.73485">
        <ele>911</ele>
        <time>2021-10-16T06:46:34.000Z</time>
      </trkpt>
      <trkpt lat="45.21686" lon="5.73487">
        <ele>911.79998779297</ele>
        <time>2021-10-16T06:46:37.000Z</time>
      </trkpt>
      <trkpt lat="45.2169" lon="5.73487">
        <ele>911.79998779297</ele>
        <time>2021-10-16T06:46:39.000Z</time>
      </trkpt>
      <trkpt lat="45.21692" lon="5.73487">
        <ele>911.79998779297</ele>
        <time>2021-10-16T06:46:40.000Z</time>
      </trkpt>
      <trkpt lat="45.21698" lon="5.73488">
        <ele>912.20001220703</ele>
        <time>2021-10-16T06:46:43.000Z</time>
      </trkpt>
      <trkpt lat="45.21702" lon="5.73489">
        <ele>912.79998779297</ele>
        <time>2021-10-16T06:46:45.000Z</time>
      </trkpt>
      <trkpt lat="45.21706" lon="5.7349">
        <ele>913</ele>
        <time>2021-10-16T06:46:47.000Z</time>
      </trkpt>
      <trkpt lat="45.21719" lon="5.73499">
        <ele>913.40002441406</ele>
        <time>2021-10-16T06:46:53.000Z</time>
      </trkpt>
      <trkpt lat="45.21723" lon="5.73506">
        <ele>913.59997558594</ele>
        <time>2021-10-16T06:46:57.000Z</time>
      </trkpt>
      <trkpt lat="45.21727" lon="5.73512">
        <ele>913.59997558594</ele>
        <time>2021-10-16T06:47:00.000Z</time>
      </trkpt>
      <trkpt lat="45.21732" lon="5.73514">
        <ele>913.59997558594</ele>
        <time>2021-10-16T06:47:02.000Z</time>
      </trkpt>
      <trkpt lat="45.21748" lon="5.73514">
        <ele>913.59997558594</ele>
        <time>2021-10-16T06:47:09.000Z</time>
      </trkpt>
      <trkpt lat="45.21749" lon="5.73514">
        <ele>914</ele>
        <time>2021-10-16T06:47:10.000Z</time>
      </trkpt>
      <trkpt lat="45.21755" lon="5.73515">
        <ele>914.20001220703</ele>
        <time>2021-10-16T06:47:13.000Z</time>
      </trkpt>
      <trkpt lat="45.21761" lon="5.73518">
        <ele>914.59997558594</ele>
        <time>2021-10-16T06:47:15.000Z</time>
      </trkpt>
      <trkpt lat="45.21772" lon="5.73528">
        <ele>913</ele>
        <time>2021-10-16T06:47:22.000Z</time>
      </trkpt>
      <trkpt lat="45.21774" lon="5.7353">
        <ele>912.59997558594</ele>
        <time>2021-10-16T06:47:23.000Z</time>
      </trkpt>
      <trkpt lat="45.21776" lon="5.73536">
        <ele>911.40002441406</ele>
        <time>2021-10-16T06:47:26.000Z</time>
      </trkpt>
      <trkpt lat="45.21778" lon="5.73541">
        <ele>910.59997558594</ele>
        <time>2021-10-16T06:47:28.000Z</time>
      </trkpt>
      <trkpt lat="45.21779" lon="5.73543">
        <ele>910.40002441406</ele>
        <time>2021-10-16T06:47:29.000Z</time>
      </trkpt>
      <trkpt lat="45.21779" lon="5.73545">
        <ele>910.20001220703</ele>
        <time>2021-10-16T06:47:30.000Z</time>
      </trkpt>
      <trkpt lat="45.21782" lon="5.73549">
        <ele>909.40002441406</ele>
        <time>2021-10-16T06:47:31.000Z</time>
      </trkpt>
      <trkpt lat="45.21786" lon="5.73555">
        <ele>908.20001220703</ele>
        <time>2021-10-16T06:47:33.000Z</time>
      </trkpt>
      <trkpt lat="45.21788" lon="5.73556">
        <ele>907.59997558594</ele>
        <time>2021-10-16T06:47:34.000Z</time>
      </trkpt>
      <trkpt lat="45.21792" lon="5.73562">
        <ele>907</ele>
        <time>2021-10-16T06:47:36.000Z</time>
      </trkpt>
      <trkpt lat="45.21797" lon="5.73567">
        <ele>905.79998779297</ele>
        <time>2021-10-16T06:47:39.000Z</time>
      </trkpt>
      <trkpt lat="45.21803" lon="5.73574">
        <ele>904.79998779297</ele>
        <time>2021-10-16T06:47:42.000Z</time>
      </trkpt>
      <trkpt lat="45.21808" lon="5.73578">
        <ele>903.59997558594</ele>
        <time>2021-10-16T06:47:45.000Z</time>
      </trkpt>
      <trkpt lat="45.21813" lon="5.73584">
        <ele>903</ele>
        <time>2021-10-16T06:47:48.000Z</time>
      </trkpt>
      <trkpt lat="45.21815" lon="5.73588">
        <ele>902.40002441406</ele>
        <time>2021-10-16T06:47:50.000Z</time>
      </trkpt>
      <trkpt lat="45.21818" lon="5.73593">
        <ele>901.79998779297</ele>
        <time>2021-10-16T06:47:53.000Z</time>
      </trkpt>
      <trkpt lat="45.21819" lon="5.73595">
        <ele>901.20001220703</ele>
        <time>2021-10-16T06:47:54.000Z</time>
      </trkpt>
      <trkpt lat="45.2182" lon="5.73597">
        <ele>900.79998779297</ele>
        <time>2021-10-16T06:47:55.000Z</time>
      </trkpt>
      <trkpt lat="45.21826" lon="5.73607">
        <ele>900.20001220703</ele>
        <time>2021-10-16T06:48:00.000Z</time>
      </trkpt>
      <trkpt lat="45.21827" lon="5.73611">
        <ele>900</ele>
        <time>2021-10-16T06:48:02.000Z</time>
      </trkpt>
      <trkpt lat="45.21829" lon="5.73616">
        <ele>899.79998779297</ele>
        <time>2021-10-16T06:48:04.000Z</time>
      </trkpt>
      <trkpt lat="45.21828" lon="5.73618">
        <ele>899.40002441406</ele>
        <time>2021-10-16T06:48:06.000Z</time>
      </trkpt>
      <trkpt lat="45.21828" lon="5.73617">
        <ele>899</ele>
        <time>2021-10-16T06:48:07.000Z</time>
      </trkpt>
      <trkpt lat="45.21825" lon="5.73614">
        <ele>898.40002441406</ele>
        <time>2021-10-16T06:48:09.000Z</time>
      </trkpt>
      <trkpt lat="45.21823" lon="5.73612">
        <ele>898</ele>
        <time>2021-10-16T06:48:11.000Z</time>
      </trkpt>
      <trkpt lat="45.21815" lon="5.73604">
        <ele>897.40002441406</ele>
        <time>2021-10-16T06:48:16.000Z</time>
      </trkpt>
      <trkpt lat="45.21811" lon="5.73601">
        <ele>896.79998779297</ele>
        <time>2021-10-16T06:48:18.000Z</time>
      </trkpt>
      <trkpt lat="45.21804" lon="5.73598">
        <ele>896.20001220703</ele>
        <time>2021-10-16T06:48:22.000Z</time>
      </trkpt>
      <trkpt lat="45.21802" lon="5.73596">
        <ele>896.20001220703</ele>
        <time>2021-10-16T06:48:23.000Z</time>
      </trkpt>
      <trkpt lat="45.218" lon="5.73595">
        <ele>896</ele>
        <time>2021-10-16T06:48:24.000Z</time>
      </trkpt>
      <trkpt lat="45.21795" lon="5.73592">
        <ele>895.79998779297</ele>
        <time>2021-10-16T06:48:27.000Z</time>
      </trkpt>
      <trkpt lat="45.2179" lon="5.73588">
        <ele>895.59997558594</ele>
        <time>2021-10-16T06:48:30.000Z</time>
      </trkpt>
      <trkpt lat="45.21783" lon="5.73577">
        <ele>895.59997558594</ele>
        <time>2021-10-16T06:48:34.000Z</time>
      </trkpt>
      <trkpt lat="45.21782" lon="5.73574">
        <ele>895.59997558594</ele>
        <time>2021-10-16T06:48:35.000Z</time>
      </trkpt>
      <trkpt lat="45.21774" lon="5.73565">
        <ele>896.40002441406</ele>
        <time>2021-10-16T06:48:41.000Z</time>
      </trkpt>
      <trkpt lat="45.21773" lon="5.73563">
        <ele>896.40002441406</ele>
        <time>2021-10-16T06:48:42.000Z</time>
      </trkpt>
      <trkpt lat="45.21772" lon="5.73562">
        <ele>896.59997558594</ele>
        <time>2021-10-16T06:48:43.000Z</time>
      </trkpt>
      <trkpt lat="45.21772" lon="5.73558">
        <ele>896.59997558594</ele>
        <time>2021-10-16T06:48:46.000Z</time>
      </trkpt>
      <trkpt lat="45.21772" lon="5.73558">
        <ele>896.59997558594</ele>
        <time>2021-10-16T06:48:48.000Z</time>
      </trkpt>
      <trkpt lat="45.21772" lon="5.73557">
        <ele>896.59997558594</ele>
        <time>2021-10-16T06:48:50.000Z</time>
      </trkpt>
      <trkpt lat="45.21771" lon="5.73555">
        <ele>896.79998779297</ele>
        <time>2021-10-16T06:48:54.000Z</time>
      </trkpt>
      <trkpt lat="45.21769" lon="5.73553">
        <ele>896.79998779297</ele>
        <time>2021-10-16T06:48:57.000Z</time>
      </trkpt>
      <trkpt lat="45.21768" lon="5.73549">
        <ele>896.59997558594</ele>
        <time>2021-10-16T06:49:01.000Z</time>
      </trkpt>
      <trkpt lat="45.21767" lon="5.73544">
        <ele>896.79998779297</ele>
        <time>2021-10-16T06:49:04.000Z</time>
      </trkpt>
      <trkpt lat="45.21767" lon="5.73543">
        <ele>896.79998779297</ele>
        <time>2021-10-16T06:49:06.000Z</time>
      </trkpt>
      <trkpt lat="45.21765" lon="5.73544">
        <ele>896.79998779297</ele>
        <time>2021-10-16T06:49:11.000Z</time>
      </trkpt>
      <trkpt lat="45.21764" lon="5.73545">
        <ele>896.79998779297</ele>
        <time>2021-10-16T06:49:12.000Z</time>
      </trkpt>
      <trkpt lat="45.21765" lon="5.73544">
        <ele>896.59997558594</ele>
        <time>2021-10-16T06:49:18.000Z</time>
      </trkpt>
      <trkpt lat="45.21765" lon="5.73544">
        <ele>896.59997558594</ele>
        <time>2021-10-16T06:49:21.000Z</time>
      </trkpt>
      <trkpt lat="45.21766" lon="5.73544">
        <ele>896.79998779297</ele>
        <time>2021-10-16T06:49:25.000Z</time>
      </trkpt>
      <trkpt lat="45.21765" lon="5.73543">
        <ele>896.79998779297</ele>
        <time>2021-10-16T06:49:27.000Z</time>
      </trkpt>
      <trkpt lat="45.21762" lon="5.7354">
        <ele>896.79998779297</ele>
        <time>2021-10-16T06:49:31.000Z</time>
      </trkpt>
      <trkpt lat="45.21757" lon="5.73534">
        <ele>897.79998779297</ele>
        <time>2021-10-16T06:49:38.000Z</time>
      </trkpt>
      <trkpt lat="45.21756" lon="5.73534">
        <ele>898</ele>
        <time>2021-10-16T06:49:39.000Z</time>
      </trkpt>
      <trkpt lat="45.21753" lon="5.73534">
        <ele>898.79998779297</ele>
        <time>2021-10-16T06:49:42.000Z</time>
      </trkpt>
      <trkpt lat="45.21752" lon="5.73534">
        <ele>898.79998779297</ele>
        <time>2021-10-16T06:49:43.000Z</time>
      </trkpt>
      <trkpt lat="45.21752" lon="5.73535">
        <ele>899.20001220703</ele>
        <time>2021-10-16T06:49:44.000Z</time>
      </trkpt>
      <trkpt lat="45.21751" lon="5.73534">
        <ele>899.59997558594</ele>
        <time>2021-10-16T06:49:46.000Z</time>
      </trkpt>
      <trkpt lat="45.21749" lon="5.73533">
        <ele>900</ele>
        <time>2021-10-16T06:49:48.000Z</time>
      </trkpt>
      <trkpt lat="45.21747" lon="5.73534">
        <ele>900.40002441406</ele>
        <time>2021-10-16T06:49:50.000Z</time>
      </trkpt>
      <trkpt lat="45.21743" lon="5.73535">
        <ele>900.40002441406</ele>
        <time>2021-10-16T06:49:53.000Z</time>
      </trkpt>
      <trkpt lat="45.21738" lon="5.73539">
        <ele>900.40002441406</ele>
        <time>2021-10-16T06:49:57.000Z</time>
      </trkpt>
      <trkpt lat="45.21728" lon="5.73538">
        <ele>900.59997558594</ele>
        <time>2021-10-16T06:50:04.000Z</time>
      </trkpt>
      <trkpt lat="45.21728" lon="5.73537">
        <ele>900.59997558594</ele>
        <time>2021-10-16T06:50:05.000Z</time>
      </trkpt>
      <trkpt lat="45.21724" lon="5.73531">
        <ele>900.20001220703</ele>
        <time>2021-10-16T06:50:09.000Z</time>
      </trkpt>
      <trkpt lat="45.21721" lon="5.73527">
        <ele>900</ele>
        <time>2021-10-16T06:50:12.000Z</time>
      </trkpt>
      <trkpt lat="45.21719" lon="5.73525">
        <ele>900.59997558594</ele>
        <time>2021-10-16T06:50:14.000Z</time>
      </trkpt>
      <trkpt lat="45.21709" lon="5.73519">
        <ele>901.20001220703</ele>
        <time>2021-10-16T06:50:20.000Z</time>
      </trkpt>
      <trkpt lat="45.21706" lon="5.73518">
        <ele>901.20001220703</ele>
        <time>2021-10-16T06:50:22.000Z</time>
      </trkpt>
      <trkpt lat="45.21703" lon="5.73515">
        <ele>902.20001220703</ele>
        <time>2021-10-16T06:50:25.000Z</time>
      </trkpt>
      <trkpt lat="45.21699" lon="5.73512">
        <ele>903.20001220703</ele>
        <time>2021-10-16T06:50:29.000Z</time>
      </trkpt>
      <trkpt lat="45.21699" lon="5.73511">
        <ele>903.20001220703</ele>
        <time>2021-10-16T06:50:30.000Z</time>
      </trkpt>
      <trkpt lat="45.21698" lon="5.73509">
        <ele>904.59997558594</ele>
        <time>2021-10-16T06:50:32.000Z</time>
      </trkpt>
      <trkpt lat="45.21696" lon="5.73508">
        <ele>906.20001220703</ele>
        <time>2021-10-16T06:50:34.000Z</time>
      </trkpt>
      <trkpt lat="45.21694" lon="5.73508">
        <ele>906.20001220703</ele>
        <time>2021-10-16T06:50:35.000Z</time>
      </trkpt>
      <trkpt lat="45.21693" lon="5.73507">
        <ele>906.20001220703</ele>
        <time>2021-10-16T06:50:36.000Z</time>
      </trkpt>
      <trkpt lat="45.21689" lon="5.73502">
        <ele>907.40002441406</ele>
        <time>2021-10-16T06:50:41.000Z</time>
      </trkpt>
      <trkpt lat="45.21687" lon="5.73501">
        <ele>908.20001220703</ele>
        <time>2021-10-16T06:50:43.000Z</time>
      </trkpt>
      <trkpt lat="45.21683" lon="5.73499">
        <ele>908.40002441406</ele>
        <time>2021-10-16T06:50:46.000Z</time>
      </trkpt>
      <trkpt lat="45.21682" lon="5.73498">
        <ele>908.59997558594</ele>
        <time>2021-10-16T06:50:47.000Z</time>
      </trkpt>
      <trkpt lat="45.21679" lon="5.73494">
        <ele>909.40002441406</ele>
        <time>2021-10-16T06:50:51.000Z</time>
      </trkpt>
      <trkpt lat="45.21678" lon="5.73493">
        <ele>909.40002441406</ele>
        <time>2021-10-16T06:50:52.000Z</time>
      </trkpt>
      <trkpt lat="45.21677" lon="5.7349">
        <ele>910.59997558594</ele>
        <time>2021-10-16T06:50:54.000Z</time>
      </trkpt>
      <trkpt lat="45.21676" lon="5.73485">
        <ele>910.79998779297</ele>
        <time>2021-10-16T06:50:57.000Z</time>
      </trkpt>
      <trkpt lat="45.21676" lon="5.73483">
        <ele>911</ele>
        <time>2021-10-16T06:50:58.000Z</time>
      </trkpt>
      <trkpt lat="45.21675" lon="5.73477">
        <ele>911.59997558594</ele>
        <time>2021-10-16T06:51:01.000Z</time>
      </trkpt>
      <trkpt lat="45.21674" lon="5.73472">
        <ele>912.59997558594</ele>
        <time>2021-10-16T06:51:04.000Z</time>
      </trkpt>
      <trkpt lat="45.21674" lon="5.73471">
        <ele>912.79998779297</ele>
        <time>2021-10-16T06:51:05.000Z</time>
      </trkpt>
      <trkpt lat="45.21673" lon="5.7347">
        <ele>913</ele>
        <time>2021-10-16T06:51:06.000Z</time>
      </trkpt>
      <trkpt lat="45.21672" lon="5.73464">
        <ele>913.59997558594</ele>
        <time>2021-10-16T06:51:09.000Z</time>
      </trkpt>
      <trkpt lat="45.21671" lon="5.73459">
        <ele>914</ele>
        <time>2021-10-16T06:51:11.000Z</time>
      </trkpt>
      <trkpt lat="45.2167" lon="5.73446">
        <ele>914.79998779297</ele>
        <time>2021-10-16T06:51:17.000Z</time>
      </trkpt>
      <trkpt lat="45.2167" lon="5.7344">
        <ele>915.79998779297</ele>
        <time>2021-10-16T06:51:20.000Z</time>
      </trkpt>
      <trkpt lat="45.2167" lon="5.73438">
        <ele>916</ele>
        <time>2021-10-16T06:51:21.000Z</time>
      </trkpt>
      <trkpt lat="45.21671" lon="5.73431">
        <ele>917.40002441406</ele>
        <time>2021-10-16T06:51:26.000Z</time>
      </trkpt>
      <trkpt lat="45.21671" lon="5.73428">
        <ele>917.79998779297</ele>
        <time>2021-10-16T06:51:28.000Z</time>
      </trkpt>
      <trkpt lat="45.21672" lon="5.73424">
        <ele>918.20001220703</ele>
        <time>2021-10-16T06:51:31.000Z</time>
      </trkpt>
      <trkpt lat="45.21673" lon="5.73423">
        <ele>919</ele>
        <time>2021-10-16T06:51:32.000Z</time>
      </trkpt>
      <trkpt lat="45.21673" lon="5.73421">
        <ele>919.20001220703</ele>
        <time>2021-10-16T06:51:33.000Z</time>
      </trkpt>
      <trkpt lat="45.21673" lon="5.7342">
        <ele>919.20001220703</ele>
        <time>2021-10-16T06:51:34.000Z</time>
      </trkpt>
      <trkpt lat="45.21673" lon="5.73415">
        <ele>920.40002441406</ele>
        <time>2021-10-16T06:51:37.000Z</time>
      </trkpt>
      <trkpt lat="45.21673" lon="5.7341">
        <ele>921.20001220703</ele>
        <time>2021-10-16T06:51:40.000Z</time>
      </trkpt>
      <trkpt lat="45.21674" lon="5.73406">
        <ele>922</ele>
        <time>2021-10-16T06:51:43.000Z</time>
      </trkpt>
      <trkpt lat="45.21674" lon="5.73402">
        <ele>922.59997558594</ele>
        <time>2021-10-16T06:51:45.000Z</time>
      </trkpt>
      <trkpt lat="45.21673" lon="5.73401">
        <ele>922.79998779297</ele>
        <time>2021-10-16T06:51:46.000Z</time>
      </trkpt>
      <trkpt lat="45.21672" lon="5.734">
        <ele>923</ele>
        <time>2021-10-16T06:51:48.000Z</time>
      </trkpt>
      <trkpt lat="45.21672" lon="5.73398">
        <ele>923.20001220703</ele>
        <time>2021-10-16T06:51:49.000Z</time>
      </trkpt>
      <trkpt lat="45.21671" lon="5.73394">
        <ele>924.20001220703</ele>
        <time>2021-10-16T06:51:51.000Z</time>
      </trkpt>
      <trkpt lat="45.21672" lon="5.73392">
        <ele>924.59997558594</ele>
        <time>2021-10-16T06:51:52.000Z</time>
      </trkpt>
      <trkpt lat="45.21673" lon="5.73388">
        <ele>924.79998779297</ele>
        <time>2021-10-16T06:51:55.000Z</time>
      </trkpt>
      <trkpt lat="45.21673" lon="5.73388">
        <ele>925.20001220703</ele>
        <time>2021-10-16T06:51:56.000Z</time>
      </trkpt>
      <trkpt lat="45.21673" lon="5.73387">
        <ele>925.59997558594</ele>
        <time>2021-10-16T06:51:57.000Z</time>
      </trkpt>
      <trkpt lat="45.21673" lon="5.73386">
        <ele>926</ele>
        <time>2021-10-16T06:51:58.000Z</time>
      </trkpt>
      <trkpt lat="45.21673" lon="5.73382">
        <ele>926.79998779297</ele>
        <time>2021-10-16T06:52:00.000Z</time>
      </trkpt>
      <trkpt lat="45.21672" lon="5.73378">
        <ele>927</ele>
        <time>2021-10-16T06:52:02.000Z</time>
      </trkpt>
      <trkpt lat="45.21671" lon="5.73377">
        <ele>927.20001220703</ele>
        <time>2021-10-16T06:52:03.000Z</time>
      </trkpt>
      <trkpt lat="45.21671" lon="5.73375">
        <ele>927.59997558594</ele>
        <time>2021-10-16T06:52:04.000Z</time>
      </trkpt>
      <trkpt lat="45.21669" lon="5.73373">
        <ele>928</ele>
        <time>2021-10-16T06:52:05.000Z</time>
      </trkpt>
      <trkpt lat="45.21666" lon="5.7337">
        <ele>928.59997558594</ele>
        <time>2021-10-16T06:52:08.000Z</time>
      </trkpt>
      <trkpt lat="45.21666" lon="5.73368">
        <ele>929.40002441406</ele>
        <time>2021-10-16T06:52:10.000Z</time>
      </trkpt>
      <trkpt lat="45.21665" lon="5.73363">
        <ele>930.40002441406</ele>
        <time>2021-10-16T06:52:13.000Z</time>
      </trkpt>
      <trkpt lat="45.21665" lon="5.73362">
        <ele>930.40002441406</ele>
        <time>2021-10-16T06:52:14.000Z</time>
      </trkpt>
      <trkpt lat="45.21664" lon="5.73358">
        <ele>931.20001220703</ele>
        <time>2021-10-16T06:52:18.000Z</time>
      </trkpt>
      <trkpt lat="45.21663" lon="5.73357">
        <ele>931.79998779297</ele>
        <time>2021-10-16T06:52:19.000Z</time>
      </trkpt>
      <trkpt lat="45.21663" lon="5.73355">
        <ele>932.20001220703</ele>
        <time>2021-10-16T06:52:20.000Z</time>
      </trkpt>
      <trkpt lat="45.21662" lon="5.73352">
        <ele>933</ele>
        <time>2021-10-16T06:52:22.000Z</time>
      </trkpt>
      <trkpt lat="45.21661" lon="5.73349">
        <ele>933.20001220703</ele>
        <time>2021-10-16T06:52:24.000Z</time>
      </trkpt>
      <trkpt lat="45.2166" lon="5.73346">
        <ele>934.20001220703</ele>
        <time>2021-10-16T06:52:26.000Z</time>
      </trkpt>
      <trkpt lat="45.21659" lon="5.73345">
        <ele>935</ele>
        <time>2021-10-16T06:52:27.000Z</time>
      </trkpt>
      <trkpt lat="45.21656" lon="5.73343">
        <ele>935.40002441406</ele>
        <time>2021-10-16T06:52:29.000Z</time>
      </trkpt>
      <trkpt lat="45.21652" lon="5.7334">
        <ele>935.40002441406</ele>
        <time>2021-10-16T06:52:32.000Z</time>
      </trkpt>
      <trkpt lat="45.2165" lon="5.73337">
        <ele>935</ele>
        <time>2021-10-16T06:52:34.000Z</time>
      </trkpt>
      <trkpt lat="45.21646" lon="5.73333">
        <ele>934.20001220703</ele>
        <time>2021-10-16T06:52:37.000Z</time>
      </trkpt>
      <trkpt lat="45.21639" lon="5.73325">
        <ele>933.20001220703</ele>
        <time>2021-10-16T06:52:42.000Z</time>
      </trkpt>
      <trkpt lat="45.21638" lon="5.73323">
        <ele>933.20001220703</ele>
        <time>2021-10-16T06:52:43.000Z</time>
      </trkpt>
      <trkpt lat="45.21631" lon="5.73314">
        <ele>932</ele>
        <time>2021-10-16T06:52:48.000Z</time>
      </trkpt>
      <trkpt lat="45.21626" lon="5.73307">
        <ele>930.59997558594</ele>
        <time>2021-10-16T06:52:52.000Z</time>
      </trkpt>
      <trkpt lat="45.21618" lon="5.73297">
        <ele>929.20001220703</ele>
        <time>2021-10-16T06:52:58.000Z</time>
      </trkpt>
      <trkpt lat="45.21615" lon="5.73295">
        <ele>929</ele>
        <time>2021-10-16T06:53:00.000Z</time>
      </trkpt>
      <trkpt lat="45.21608" lon="5.73291">
        <ele>927.59997558594</ele>
        <time>2021-10-16T06:53:05.000Z</time>
      </trkpt>
      <trkpt lat="45.21603" lon="5.73288">
        <ele>926.79998779297</ele>
        <time>2021-10-16T06:53:09.000Z</time>
      </trkpt>
      <trkpt lat="45.21602" lon="5.73288">
        <ele>926.59997558594</ele>
        <time>2021-10-16T06:53:10.000Z</time>
      </trkpt>
      <trkpt lat="45.21598" lon="5.73285">
        <ele>925.59997558594</ele>
        <time>2021-10-16T06:53:13.000Z</time>
      </trkpt>
      <trkpt lat="45.21594" lon="5.73282">
        <ele>924.79998779297</ele>
        <time>2021-10-16T06:53:16.000Z</time>
      </trkpt>
      <trkpt lat="45.21592" lon="5.73281">
        <ele>924.40002441406</ele>
        <time>2021-10-16T06:53:17.000Z</time>
      </trkpt>
      <trkpt lat="45.21587" lon="5.73277">
        <ele>922.79998779297</ele>
        <time>2021-10-16T06:53:22.000Z</time>
      </trkpt>
      <trkpt lat="45.21586" lon="5.73277">
        <ele>922.79998779297</ele>
        <time>2021-10-16T06:53:23.000Z</time>
      </trkpt>
      <trkpt lat="45.21582" lon="5.73276">
        <ele>921.79998779297</ele>
        <time>2021-10-16T06:53:26.000Z</time>
      </trkpt>
      <trkpt lat="45.21581" lon="5.73276">
        <ele>921.59997558594</ele>
        <time>2021-10-16T06:53:27.000Z</time>
      </trkpt>
      <trkpt lat="45.21577" lon="5.73275">
        <ele>920.40002441406</ele>
        <time>2021-10-16T06:53:30.000Z</time>
      </trkpt>
      <trkpt lat="45.21572" lon="5.73274">
        <ele>919.59997558594</ele>
        <time>2021-10-16T06:53:33.000Z</time>
      </trkpt>
      <trkpt lat="45.21571" lon="5.73274">
        <ele>919.20001220703</ele>
        <time>2021-10-16T06:53:34.000Z</time>
      </trkpt>
      <trkpt lat="45.21567" lon="5.73273">
        <ele>917.59997558594</ele>
        <time>2021-10-16T06:53:36.000Z</time>
      </trkpt>
      <trkpt lat="45.21562" lon="5.73273">
        <ele>917.20001220703</ele>
        <time>2021-10-16T06:53:38.000Z</time>
      </trkpt>
      <trkpt lat="45.21558" lon="5.73273">
        <ele>915.79998779297</ele>
        <time>2021-10-16T06:53:40.000Z</time>
      </trkpt>
      <trkpt lat="45.21551" lon="5.73272">
        <ele>914.79998779297</ele>
        <time>2021-10-16T06:53:43.000Z</time>
      </trkpt>
      <trkpt lat="45.21549" lon="5.73272">
        <ele>914</ele>
        <time>2021-10-16T06:53:44.000Z</time>
      </trkpt>
      <trkpt lat="45.21543" lon="5.73271">
        <ele>913.20001220703</ele>
        <time>2021-10-16T06:53:47.000Z</time>
      </trkpt>
      <trkpt lat="45.21542" lon="5.73271">
        <ele>912.20001220703</ele>
        <time>2021-10-16T06:53:48.000Z</time>
      </trkpt>
      <trkpt lat="45.21541" lon="5.73271">
        <ele>912</ele>
        <time>2021-10-16T06:53:49.000Z</time>
      </trkpt>
      <trkpt lat="45.21541" lon="5.73272">
        <ele>912</ele>
        <time>2021-10-16T06:53:50.000Z</time>
      </trkpt>
      <trkpt lat="45.21543" lon="5.73275">
        <ele>910.59997558594</ele>
        <time>2021-10-16T06:53:53.000Z</time>
      </trkpt>
      <trkpt lat="45.21544" lon="5.73276">
        <ele>910.40002441406</ele>
        <time>2021-10-16T06:53:54.000Z</time>
      </trkpt>
      <trkpt lat="45.21545" lon="5.73276">
        <ele>910.20001220703</ele>
        <time>2021-10-16T06:53:55.000Z</time>
      </trkpt>
      <trkpt lat="45.21547" lon="5.73278">
        <ele>910</ele>
        <time>2021-10-16T06:53:56.000Z</time>
      </trkpt>
      <trkpt lat="45.21548" lon="5.7328">
        <ele>909.20001220703</ele>
        <time>2021-10-16T06:53:57.000Z</time>
      </trkpt>
      <trkpt lat="45.21549" lon="5.73283">
        <ele>908.20001220703</ele>
        <time>2021-10-16T06:53:59.000Z</time>
      </trkpt>
      <trkpt lat="45.21551" lon="5.73284">
        <ele>907.59997558594</ele>
        <time>2021-10-16T06:54:00.000Z</time>
      </trkpt>
      <trkpt lat="45.21551" lon="5.73285">
        <ele>907.20001220703</ele>
        <time>2021-10-16T06:54:01.000Z</time>
      </trkpt>
      <trkpt lat="45.21553" lon="5.73286">
        <ele>906.40002441406</ele>
        <time>2021-10-16T06:54:02.000Z</time>
      </trkpt>
      <trkpt lat="45.21554" lon="5.73289">
        <ele>906.20001220703</ele>
        <time>2021-10-16T06:54:04.000Z</time>
      </trkpt>
      <trkpt lat="45.21555" lon="5.73291">
        <ele>906</ele>
        <time>2021-10-16T06:54:05.000Z</time>
      </trkpt>
      <trkpt lat="45.21556" lon="5.73291">
        <ele>905</ele>
        <time>2021-10-16T06:54:06.000Z</time>
      </trkpt>
      <trkpt lat="45.21558" lon="5.73291">
        <ele>904</ele>
        <time>2021-10-16T06:54:07.000Z</time>
      </trkpt>
      <trkpt lat="45.21559" lon="5.73292">
        <ele>902.59997558594</ele>
        <time>2021-10-16T06:54:09.000Z</time>
      </trkpt>
      <trkpt lat="45.2156" lon="5.73294">
        <ele>902.20001220703</ele>
        <time>2021-10-16T06:54:11.000Z</time>
      </trkpt>
      <trkpt lat="45.21562" lon="5.73297">
        <ele>901.79998779297</ele>
        <time>2021-10-16T06:54:13.000Z</time>
      </trkpt>
      <trkpt lat="45.21563" lon="5.73298">
        <ele>901</ele>
        <time>2021-10-16T06:54:14.000Z</time>
      </trkpt>
      <trkpt lat="45.21567" lon="5.73303">
        <ele>900.20001220703</ele>
        <time>2021-10-16T06:54:17.000Z</time>
      </trkpt>
      <trkpt lat="45.21567" lon="5.73305">
        <ele>898.40002441406</ele>
        <time>2021-10-16T06:54:18.000Z</time>
      </trkpt>
      <trkpt lat="45.2157" lon="5.73313">
        <ele>897</ele>
        <time>2021-10-16T06:54:22.000Z</time>
      </trkpt>
      <trkpt lat="45.21572" lon="5.73319">
        <ele>896.59997558594</ele>
        <time>2021-10-16T06:54:25.000Z</time>
      </trkpt>
      <trkpt lat="45.21575" lon="5.73324">
        <ele>896</ele>
        <time>2021-10-16T06:54:29.000Z</time>
      </trkpt>
      <trkpt lat="45.21577" lon="5.73324">
        <ele>895.40002441406</ele>
        <time>2021-10-16T06:54:32.000Z</time>
      </trkpt>
      <trkpt lat="45.2158" lon="5.73331">
        <ele>895.20001220703</ele>
        <time>2021-10-16T06:54:37.000Z</time>
      </trkpt>
      <trkpt lat="45.21578" lon="5.73332">
        <ele>894.79998779297</ele>
        <time>2021-10-16T06:54:39.000Z</time>
      </trkpt>
      <trkpt lat="45.21575" lon="5.7333">
        <ele>894</ele>
        <time>2021-10-16T06:54:41.000Z</time>
      </trkpt>
      <trkpt lat="45.2157" lon="5.73329">
        <ele>893.20001220703</ele>
        <time>2021-10-16T06:54:43.000Z</time>
      </trkpt>
      <trkpt lat="45.21564" lon="5.73325">
        <ele>892.79998779297</ele>
        <time>2021-10-16T06:54:46.000Z</time>
      </trkpt>
      <trkpt lat="45.21559" lon="5.73324">
        <ele>891.59997558594</ele>
        <time>2021-10-16T06:54:48.000Z</time>
      </trkpt>
      <trkpt lat="45.21552" lon="5.73323">
        <ele>890.59997558594</ele>
        <time>2021-10-16T06:54:52.000Z</time>
      </trkpt>
      <trkpt lat="45.21543" lon="5.73322">
        <ele>889.20001220703</ele>
        <time>2021-10-16T06:54:56.000Z</time>
      </trkpt>
      <trkpt lat="45.21538" lon="5.73322">
        <ele>888.40002441406</ele>
        <time>2021-10-16T06:54:58.000Z</time>
      </trkpt>
      <trkpt lat="45.21536" lon="5.73321">
        <ele>887.59997558594</ele>
        <time>2021-10-16T06:54:59.000Z</time>
      </trkpt>
      <trkpt lat="45.21532" lon="5.73321">
        <ele>886.59997558594</ele>
        <time>2021-10-16T06:55:01.000Z</time>
      </trkpt>
      <trkpt lat="45.21523" lon="5.73318">
        <ele>885.59997558594</ele>
        <time>2021-10-16T06:55:05.000Z</time>
      </trkpt>
      <trkpt lat="45.2152" lon="5.73317">
        <ele>885.40002441406</ele>
        <time>2021-10-16T06:55:06.000Z</time>
      </trkpt>
      <trkpt lat="45.21514" lon="5.73311">
        <ele>884.40002441406</ele>
        <time>2021-10-16T06:55:09.000Z</time>
      </trkpt>
      <trkpt lat="45.21513" lon="5.73309">
        <ele>884.40002441406</ele>
        <time>2021-10-16T06:55:10.000Z</time>
      </trkpt>
      <trkpt lat="45.21513" lon="5.73307">
        <ele>883.59997558594</ele>
        <time>2021-10-16T06:55:11.000Z</time>
      </trkpt>
      <trkpt lat="45.21513" lon="5.73306">
        <ele>883.20001220703</ele>
        <time>2021-10-16T06:55:12.000Z</time>
      </trkpt>
      <trkpt lat="45.21512" lon="5.73294">
        <ele>882.59997558594</ele>
        <time>2021-10-16T06:55:16.000Z</time>
      </trkpt>
      <trkpt lat="45.21512" lon="5.73287">
        <ele>882.20001220703</ele>
        <time>2021-10-16T06:55:18.000Z</time>
      </trkpt>
      <trkpt lat="45.21512" lon="5.73274">
        <ele>882.40002441406</ele>
        <time>2021-10-16T06:55:21.000Z</time>
      </trkpt>
      <trkpt lat="45.21512" lon="5.73264">
        <ele>882.20001220703</ele>
        <time>2021-10-16T06:55:24.000Z</time>
      </trkpt>
      <trkpt lat="45.21509" lon="5.7326">
        <ele>882.20001220703</ele>
        <time>2021-10-16T06:55:26.000Z</time>
      </trkpt>
      <trkpt lat="45.21502" lon="5.7325">
        <ele>880.79998779297</ele>
        <time>2021-10-16T06:55:30.000Z</time>
      </trkpt>
      <trkpt lat="45.21497" lon="5.73244">
        <ele>880.40002441406</ele>
        <time>2021-10-16T06:55:33.000Z</time>
      </trkpt>
      <trkpt lat="45.21493" lon="5.73242">
        <ele>879.20001220703</ele>
        <time>2021-10-16T06:55:35.000Z</time>
      </trkpt>
      <trkpt lat="45.21486" lon="5.73236">
        <ele>878</ele>
        <time>2021-10-16T06:55:39.000Z</time>
      </trkpt>
      <trkpt lat="45.21483" lon="5.73232">
        <ele>876.79998779297</ele>
        <time>2021-10-16T06:55:41.000Z</time>
      </trkpt>
      <trkpt lat="45.2148" lon="5.73228">
        <ele>875.79998779297</ele>
        <time>2021-10-16T06:55:43.000Z</time>
      </trkpt>
      <trkpt lat="45.21475" lon="5.73213">
        <ele>874.79998779297</ele>
        <time>2021-10-16T06:55:48.000Z</time>
      </trkpt>
      <trkpt lat="45.21476" lon="5.73206">
        <ele>874</ele>
        <time>2021-10-16T06:55:50.000Z</time>
      </trkpt>
      <trkpt lat="45.21476" lon="5.73196">
        <ele>874</ele>
        <time>2021-10-16T06:55:53.000Z</time>
      </trkpt>
      <trkpt lat="45.21475" lon="5.73193">
        <ele>873.79998779297</ele>
        <time>2021-10-16T06:55:55.000Z</time>
      </trkpt>
      <trkpt lat="45.21474" lon="5.73187">
        <ele>872.79998779297</ele>
        <time>2021-10-16T06:55:58.000Z</time>
      </trkpt>
      <trkpt lat="45.21472" lon="5.73183">
        <ele>871.40002441406</ele>
        <time>2021-10-16T06:56:01.000Z</time>
      </trkpt>
      <trkpt lat="45.2147" lon="5.73181">
        <ele>871.40002441406</ele>
        <time>2021-10-16T06:56:02.000Z</time>
      </trkpt>
      <trkpt lat="45.21469" lon="5.73179">
        <ele>870.40002441406</ele>
        <time>2021-10-16T06:56:03.000Z</time>
      </trkpt>
      <trkpt lat="45.21467" lon="5.73177">
        <ele>870.20001220703</ele>
        <time>2021-10-16T06:56:04.000Z</time>
      </trkpt>
      <trkpt lat="45.21466" lon="5.73173">
        <ele>869</ele>
        <time>2021-10-16T06:56:06.000Z</time>
      </trkpt>
      <trkpt lat="45.21465" lon="5.73172">
        <ele>868.59997558594</ele>
        <time>2021-10-16T06:56:07.000Z</time>
      </trkpt>
      <trkpt lat="45.21461" lon="5.73168">
        <ele>867.59997558594</ele>
        <time>2021-10-16T06:56:10.000Z</time>
      </trkpt>
      <trkpt lat="45.21454" lon="5.73163">
        <ele>866.59997558594</ele>
        <time>2021-10-16T06:56:14.000Z</time>
      </trkpt>
      <trkpt lat="45.21452" lon="5.73162">
        <ele>866.20001220703</ele>
        <time>2021-10-16T06:56:15.000Z</time>
      </trkpt>
      <trkpt lat="45.2145" lon="5.73162">
        <ele>864.79998779297</ele>
        <time>2021-10-16T06:56:16.000Z</time>
      </trkpt>
      <trkpt lat="45.21444" lon="5.73164">
        <ele>863.79998779297</ele>
        <time>2021-10-16T06:56:18.000Z</time>
      </trkpt>
      <trkpt lat="45.21439" lon="5.73162">
        <ele>863.40002441406</ele>
        <time>2021-10-16T06:56:20.000Z</time>
      </trkpt>
      <trkpt lat="45.21431" lon="5.73155">
        <ele>862.40002441406</ele>
        <time>2021-10-16T06:56:23.000Z</time>
      </trkpt>
      <trkpt lat="45.21424" lon="5.73151">
        <ele>861.59997558594</ele>
        <time>2021-10-16T06:56:26.000Z</time>
      </trkpt>
      <trkpt lat="45.21423" lon="5.7315">
        <ele>861</ele>
        <time>2021-10-16T06:56:27.000Z</time>
      </trkpt>
      <trkpt lat="45.21414" lon="5.7314">
        <ele>859.79998779297</ele>
        <time>2021-10-16T06:56:32.000Z</time>
      </trkpt>
      <trkpt lat="45.21413" lon="5.73138">
        <ele>859.59997558594</ele>
        <time>2021-10-16T06:56:33.000Z</time>
      </trkpt>
      <trkpt lat="45.21411" lon="5.73132">
        <ele>859</ele>
        <time>2021-10-16T06:56:35.000Z</time>
      </trkpt>
      <trkpt lat="45.21409" lon="5.73128">
        <ele>858.20001220703</ele>
        <time>2021-10-16T06:56:37.000Z</time>
      </trkpt>
      <trkpt lat="45.21397" lon="5.73113">
        <ele>857.40002441406</ele>
        <time>2021-10-16T06:56:43.000Z</time>
      </trkpt>
      <trkpt lat="45.21392" lon="5.73107">
        <ele>857.40002441406</ele>
        <time>2021-10-16T06:56:45.000Z</time>
      </trkpt>
      <trkpt lat="45.2139" lon="5.73104">
        <ele>856.40002441406</ele>
        <time>2021-10-16T06:56:46.000Z</time>
      </trkpt>
      <trkpt lat="45.21385" lon="5.73095">
        <ele>855.79998779297</ele>
        <time>2021-10-16T06:56:49.000Z</time>
      </trkpt>
      <trkpt lat="45.21379" lon="5.73085">
        <ele>855.59997558594</ele>
        <time>2021-10-16T06:56:52.000Z</time>
      </trkpt>
      <trkpt lat="45.21375" lon="5.73078">
        <ele>855.20001220703</ele>
        <time>2021-10-16T06:56:54.000Z</time>
      </trkpt>
      <trkpt lat="45.21371" lon="5.73073">
        <ele>855.20001220703</ele>
        <time>2021-10-16T06:56:56.000Z</time>
      </trkpt>
      <trkpt lat="45.21367" lon="5.73068">
        <ele>854.40002441406</ele>
        <time>2021-10-16T06:56:59.000Z</time>
      </trkpt>
      <trkpt lat="45.21363" lon="5.73065">
        <ele>853.79998779297</ele>
        <time>2021-10-16T06:57:01.000Z</time>
      </trkpt>
      <trkpt lat="45.21361" lon="5.73062">
        <ele>852.59997558594</ele>
        <time>2021-10-16T06:57:03.000Z</time>
      </trkpt>
      <trkpt lat="45.21359" lon="5.7306">
        <ele>852.59997558594</ele>
        <time>2021-10-16T06:57:04.000Z</time>
      </trkpt>
      <trkpt lat="45.21358" lon="5.73055">
        <ele>852</ele>
        <time>2021-10-16T06:57:06.000Z</time>
      </trkpt>
      <trkpt lat="45.21357" lon="5.73053">
        <ele>851.59997558594</ele>
        <time>2021-10-16T06:57:07.000Z</time>
      </trkpt>
      <trkpt lat="45.21356" lon="5.73051">
        <ele>850.40002441406</ele>
        <time>2021-10-16T06:57:08.000Z</time>
      </trkpt>
      <trkpt lat="45.21354" lon="5.73048">
        <ele>849.79998779297</ele>
        <time>2021-10-16T06:57:10.000Z</time>
      </trkpt>
      <trkpt lat="45.21352" lon="5.73045">
        <ele>849</ele>
        <time>2021-10-16T06:57:12.000Z</time>
      </trkpt>
      <trkpt lat="45.21348" lon="5.73038">
        <ele>847.59997558594</ele>
        <time>2021-10-16T06:57:16.000Z</time>
      </trkpt>
      <trkpt lat="45.21347" lon="5.73037">
        <ele>846.79998779297</ele>
        <time>2021-10-16T06:57:17.000Z</time>
      </trkpt>
      <trkpt lat="45.21346" lon="5.73033">
        <ele>846.59997558594</ele>
        <time>2021-10-16T06:57:19.000Z</time>
      </trkpt>
      <trkpt lat="45.21345" lon="5.73031">
        <ele>845.59997558594</ele>
        <time>2021-10-16T06:57:20.000Z</time>
      </trkpt>
      <trkpt lat="45.21344" lon="5.7303">
        <ele>845.40002441406</ele>
        <time>2021-10-16T06:57:21.000Z</time>
      </trkpt>
      <trkpt lat="45.21343" lon="5.73029">
        <ele>845.20001220703</ele>
        <time>2021-10-16T06:57:22.000Z</time>
      </trkpt>
      <trkpt lat="45.21342" lon="5.73028">
        <ele>844.59997558594</ele>
        <time>2021-10-16T06:57:23.000Z</time>
      </trkpt>
      <trkpt lat="45.2134" lon="5.73025">
        <ele>843.59997558594</ele>
        <time>2021-10-16T06:57:25.000Z</time>
      </trkpt>
      <trkpt lat="45.21339" lon="5.73023">
        <ele>843.20001220703</ele>
        <time>2021-10-16T06:57:26.000Z</time>
      </trkpt>
      <trkpt lat="45.21338" lon="5.73021">
        <ele>842.79998779297</ele>
        <time>2021-10-16T06:57:27.000Z</time>
      </trkpt>
      <trkpt lat="45.21338" lon="5.73019">
        <ele>842.20001220703</ele>
        <time>2021-10-16T06:57:28.000Z</time>
      </trkpt>
      <trkpt lat="45.21336" lon="5.73016">
        <ele>841.40002441406</ele>
        <time>2021-10-16T06:57:30.000Z</time>
      </trkpt>
      <trkpt lat="45.21335" lon="5.73014">
        <ele>840.79998779297</ele>
        <time>2021-10-16T06:57:31.000Z</time>
      </trkpt>
      <trkpt lat="45.21329" lon="5.73008">
        <ele>839.79998779297</ele>
        <time>2021-10-16T06:57:34.000Z</time>
      </trkpt>
      <trkpt lat="45.21326" lon="5.73004">
        <ele>839.20001220703</ele>
        <time>2021-10-16T06:57:35.000Z</time>
      </trkpt>
      <trkpt lat="45.21321" lon="5.72999">
        <ele>838.40002441406</ele>
        <time>2021-10-16T06:57:37.000Z</time>
      </trkpt>
      <trkpt lat="45.21314" lon="5.72991">
        <ele>837.40002441406</ele>
        <time>2021-10-16T06:57:41.000Z</time>
      </trkpt>
      <trkpt lat="45.21304" lon="5.72983">
        <ele>835.40002441406</ele>
        <time>2021-10-16T06:57:46.000Z</time>
      </trkpt>
      <trkpt lat="45.21299" lon="5.72976">
        <ele>834.59997558594</ele>
        <time>2021-10-16T06:57:49.000Z</time>
      </trkpt>
      <trkpt lat="45.21296" lon="5.72972">
        <ele>834.20001220703</ele>
        <time>2021-10-16T06:57:51.000Z</time>
      </trkpt>
      <trkpt lat="45.21293" lon="5.7297">
        <ele>833</ele>
        <time>2021-10-16T06:57:53.000Z</time>
      </trkpt>
      <trkpt lat="45.21291" lon="5.72965">
        <ele>831.79998779297</ele>
        <time>2021-10-16T06:57:56.000Z</time>
      </trkpt>
      <trkpt lat="45.21286" lon="5.72962">
        <ele>830.59997558594</ele>
        <time>2021-10-16T06:57:59.000Z</time>
      </trkpt>
      <trkpt lat="45.21284" lon="5.7296">
        <ele>830.40002441406</ele>
        <time>2021-10-16T06:58:00.000Z</time>
      </trkpt>
      <trkpt lat="45.21281" lon="5.72956">
        <ele>829.59997558594</ele>
        <time>2021-10-16T06:58:02.000Z</time>
      </trkpt>
      <trkpt lat="45.2128" lon="5.72954">
        <ele>829.40002441406</ele>
        <time>2021-10-16T06:58:03.000Z</time>
      </trkpt>
      <trkpt lat="45.21278" lon="5.72953">
        <ele>829.40002441406</ele>
        <time>2021-10-16T06:58:04.000Z</time>
      </trkpt>
      <trkpt lat="45.21276" lon="5.72953">
        <ele>828.20001220703</ele>
        <time>2021-10-16T06:58:06.000Z</time>
      </trkpt>
      <trkpt lat="45.21274" lon="5.72953">
        <ele>827.59997558594</ele>
        <time>2021-10-16T06:58:07.000Z</time>
      </trkpt>
      <trkpt lat="45.21273" lon="5.72952">
        <ele>827</ele>
        <time>2021-10-16T06:58:08.000Z</time>
      </trkpt>
      <trkpt lat="45.21269" lon="5.72951">
        <ele>825.79998779297</ele>
        <time>2021-10-16T06:58:11.000Z</time>
      </trkpt>
      <trkpt lat="45.21268" lon="5.7295">
        <ele>825.20001220703</ele>
        <time>2021-10-16T06:58:12.000Z</time>
      </trkpt>
      <trkpt lat="45.21267" lon="5.72949">
        <ele>825.20001220703</ele>
        <time>2021-10-16T06:58:13.000Z</time>
      </trkpt>
      <trkpt lat="45.21265" lon="5.72947">
        <ele>824.40002441406</ele>
        <time>2021-10-16T06:58:14.000Z</time>
      </trkpt>
      <trkpt lat="45.2126" lon="5.72944">
        <ele>823</ele>
        <time>2021-10-16T06:58:17.000Z</time>
      </trkpt>
      <trkpt lat="45.21257" lon="5.72943">
        <ele>823</ele>
        <time>2021-10-16T06:58:18.000Z</time>
      </trkpt>
      <trkpt lat="45.21253" lon="5.72943">
        <ele>822.40002441406</ele>
        <time>2021-10-16T06:58:20.000Z</time>
      </trkpt>
      <trkpt lat="45.21252" lon="5.72943">
        <ele>821.79998779297</ele>
        <time>2021-10-16T06:58:21.000Z</time>
      </trkpt>
      <trkpt lat="45.21248" lon="5.72943">
        <ele>820.20001220703</ele>
        <time>2021-10-16T06:58:24.000Z</time>
      </trkpt>
      <trkpt lat="45.21241" lon="5.7294">
        <ele>819</ele>
        <time>2021-10-16T06:58:27.000Z</time>
      </trkpt>
      <trkpt lat="45.21229" lon="5.7293">
        <ele>817.40002441406</ele>
        <time>2021-10-16T06:58:32.000Z</time>
      </trkpt>
      <trkpt lat="45.21229" lon="5.72927">
        <ele>816.59997558594</ele>
        <time>2021-10-16T06:58:33.000Z</time>
      </trkpt>
      <trkpt lat="45.21228" lon="5.72925">
        <ele>816.40002441406</ele>
        <time>2021-10-16T06:58:34.000Z</time>
      </trkpt>
      <trkpt lat="45.21226" lon="5.72924">
        <ele>816</ele>
        <time>2021-10-16T06:58:36.000Z</time>
      </trkpt>
      <trkpt lat="45.21226" lon="5.72923">
        <ele>815.20001220703</ele>
        <time>2021-10-16T06:58:37.000Z</time>
      </trkpt>
      <trkpt lat="45.21224" lon="5.72923">
        <ele>815.20001220703</ele>
        <time>2021-10-16T06:58:38.000Z</time>
      </trkpt>
      <trkpt lat="45.21221" lon="5.72923">
        <ele>814.20001220703</ele>
        <time>2021-10-16T06:58:41.000Z</time>
      </trkpt>
      <trkpt lat="45.21219" lon="5.72922">
        <ele>813</ele>
        <time>2021-10-16T06:58:43.000Z</time>
      </trkpt>
      <trkpt lat="45.21216" lon="5.72923">
        <ele>812.20001220703</ele>
        <time>2021-10-16T06:58:46.000Z</time>
      </trkpt>
      <trkpt lat="45.21216" lon="5.72928">
        <ele>811.79998779297</ele>
        <time>2021-10-16T06:58:48.000Z</time>
      </trkpt>
      <trkpt lat="45.21215" lon="5.72931">
        <ele>810.59997558594</ele>
        <time>2021-10-16T06:58:49.000Z</time>
      </trkpt>
      <trkpt lat="45.21216" lon="5.72939">
        <ele>809</ele>
        <time>2021-10-16T06:58:54.000Z</time>
      </trkpt>
      <trkpt lat="45.21217" lon="5.72942">
        <ele>808.20001220703</ele>
        <time>2021-10-16T06:58:56.000Z</time>
      </trkpt>
      <trkpt lat="45.21218" lon="5.72944">
        <ele>807.59997558594</ele>
        <time>2021-10-16T06:58:57.000Z</time>
      </trkpt>
      <trkpt lat="45.21218" lon="5.72946">
        <ele>807.20001220703</ele>
        <time>2021-10-16T06:58:58.000Z</time>
      </trkpt>
      <trkpt lat="45.21216" lon="5.72948">
        <ele>806.59997558594</ele>
        <time>2021-10-16T06:59:00.000Z</time>
      </trkpt>
      <trkpt lat="45.21214" lon="5.72947">
        <ele>806.59997558594</ele>
        <time>2021-10-16T06:59:01.000Z</time>
      </trkpt>
      <trkpt lat="45.21208" lon="5.72943">
        <ele>805.59997558594</ele>
        <time>2021-10-16T06:59:04.000Z</time>
      </trkpt>
      <trkpt lat="45.21206" lon="5.72941">
        <ele>804.79998779297</ele>
        <time>2021-10-16T06:59:05.000Z</time>
      </trkpt>
      <trkpt lat="45.21205" lon="5.72939">
        <ele>804.59997558594</ele>
        <time>2021-10-16T06:59:06.000Z</time>
      </trkpt>
      <trkpt lat="45.21203" lon="5.72933">
        <ele>803.79998779297</ele>
        <time>2021-10-16T06:59:09.000Z</time>
      </trkpt>
      <trkpt lat="45.21202" lon="5.72931">
        <ele>803.40002441406</ele>
        <time>2021-10-16T06:59:10.000Z</time>
      </trkpt>
      <trkpt lat="45.21199" lon="5.72927">
        <ele>802.79998779297</ele>
        <time>2021-10-16T06:59:12.000Z</time>
      </trkpt>
      <trkpt lat="45.21196" lon="5.72922">
        <ele>802.20001220703</ele>
        <time>2021-10-16T06:59:14.000Z</time>
      </trkpt>
      <trkpt lat="45.21192" lon="5.72917">
        <ele>800.59997558594</ele>
        <time>2021-10-16T06:59:17.000Z</time>
      </trkpt>
      <trkpt lat="45.21191" lon="5.72916">
        <ele>800</ele>
        <time>2021-10-16T06:59:18.000Z</time>
      </trkpt>
      <trkpt lat="45.21189" lon="5.72914">
        <ele>799.59997558594</ele>
        <time>2021-10-16T06:59:19.000Z</time>
      </trkpt>
      <trkpt lat="45.21184" lon="5.72911">
        <ele>799</ele>
        <time>2021-10-16T06:59:22.000Z</time>
      </trkpt>
      <trkpt lat="45.21183" lon="5.72909">
        <ele>798.20001220703</ele>
        <time>2021-10-16T06:59:23.000Z</time>
      </trkpt>
      <trkpt lat="45.21179" lon="5.72907">
        <ele>797.59997558594</ele>
        <time>2021-10-16T06:59:25.000Z</time>
      </trkpt>
      <trkpt lat="45.21175" lon="5.72906">
        <ele>796.59997558594</ele>
        <time>2021-10-16T06:59:27.000Z</time>
      </trkpt>
      <trkpt lat="45.21166" lon="5.72904">
        <ele>795.40002441406</ele>
        <time>2021-10-16T06:59:30.000Z</time>
      </trkpt>
      <trkpt lat="45.21161" lon="5.72902">
        <ele>794.79998779297</ele>
        <time>2021-10-16T06:59:32.000Z</time>
      </trkpt>
      <trkpt lat="45.21159" lon="5.72901">
        <ele>794.40002441406</ele>
        <time>2021-10-16T06:59:33.000Z</time>
      </trkpt>
      <trkpt lat="45.2115" lon="5.72898">
        <ele>793</ele>
        <time>2021-10-16T06:59:38.000Z</time>
      </trkpt>
      <trkpt lat="45.21148" lon="5.72898">
        <ele>792.79998779297</ele>
        <time>2021-10-16T06:59:39.000Z</time>
      </trkpt>
      <trkpt lat="45.21147" lon="5.72898">
        <ele>791.79998779297</ele>
        <time>2021-10-16T06:59:40.000Z</time>
      </trkpt>
      <trkpt lat="45.21143" lon="5.72896">
        <ele>790.59997558594</ele>
        <time>2021-10-16T06:59:43.000Z</time>
      </trkpt>
      <trkpt lat="45.21141" lon="5.72894">
        <ele>790.20001220703</ele>
        <time>2021-10-16T06:59:45.000Z</time>
      </trkpt>
      <trkpt lat="45.21138" lon="5.72893">
        <ele>789</ele>
        <time>2021-10-16T06:59:47.000Z</time>
      </trkpt>
      <trkpt lat="45.21132" lon="5.72891">
        <ele>787.79998779297</ele>
        <time>2021-10-16T06:59:50.000Z</time>
      </trkpt>
      <trkpt lat="45.2113" lon="5.72889">
        <ele>787.59997558594</ele>
        <time>2021-10-16T06:59:51.000Z</time>
      </trkpt>
      <trkpt lat="45.21129" lon="5.72887">
        <ele>787.40002441406</ele>
        <time>2021-10-16T06:59:52.000Z</time>
      </trkpt>
      <trkpt lat="45.21125" lon="5.72885">
        <ele>786.20001220703</ele>
        <time>2021-10-16T06:59:53.000Z</time>
      </trkpt>
      <trkpt lat="45.21119" lon="5.72879">
        <ele>785.40002441406</ele>
        <time>2021-10-16T06:59:56.000Z</time>
      </trkpt>
      <trkpt lat="45.21118" lon="5.72877">
        <ele>785.20001220703</ele>
        <time>2021-10-16T06:59:57.000Z</time>
      </trkpt>
      <trkpt lat="45.21113" lon="5.72865">
        <ele>783.59997558594</ele>
        <time>2021-10-16T07:00:02.000Z</time>
      </trkpt>
      <trkpt lat="45.2111" lon="5.72864">
        <ele>782.79998779297</ele>
        <time>2021-10-16T07:00:04.000Z</time>
      </trkpt>
      <trkpt lat="45.21106" lon="5.72862">
        <ele>782</ele>
        <time>2021-10-16T07:00:06.000Z</time>
      </trkpt>
      <trkpt lat="45.21095" lon="5.72851">
        <ele>781</ele>
        <time>2021-10-16T07:00:11.000Z</time>
      </trkpt>
      <trkpt lat="45.21091" lon="5.72848">
        <ele>780</ele>
        <time>2021-10-16T07:00:13.000Z</time>
      </trkpt>
      <trkpt lat="45.21084" lon="5.72836">
        <ele>779</ele>
        <time>2021-10-16T07:00:17.000Z</time>
      </trkpt>
      <trkpt lat="45.21082" lon="5.72832">
        <ele>778.79998779297</ele>
        <time>2021-10-16T07:00:18.000Z</time>
      </trkpt>
      <trkpt lat="45.21075" lon="5.72818">
        <ele>778.59997558594</ele>
        <time>2021-10-16T07:00:22.000Z</time>
      </trkpt>
      <trkpt lat="45.21073" lon="5.72811">
        <ele>778</ele>
        <time>2021-10-16T07:00:24.000Z</time>
      </trkpt>
      <trkpt lat="45.21065" lon="5.7279">
        <ele>777.79998779297</ele>
        <time>2021-10-16T07:00:29.000Z</time>
      </trkpt>
      <trkpt lat="45.21063" lon="5.72784">
        <ele>777.79998779297</ele>
        <time>2021-10-16T07:00:31.000Z</time>
      </trkpt>
      <trkpt lat="45.21058" lon="5.72765">
        <ele>776.59997558594</ele>
        <time>2021-10-16T07:00:37.000Z</time>
      </trkpt>
      <trkpt lat="45.21058" lon="5.72762">
        <ele>776.59997558594</ele>
        <time>2021-10-16T07:00:38.000Z</time>
      </trkpt>
      <trkpt lat="45.21057" lon="5.72758">
        <ele>776</ele>
        <time>2021-10-16T07:00:40.000Z</time>
      </trkpt>
      <trkpt lat="45.21055" lon="5.72755">
        <ele>775.79998779297</ele>
        <time>2021-10-16T07:00:42.000Z</time>
      </trkpt>
      <trkpt lat="45.21054" lon="5.72754">
        <ele>775.40002441406</ele>
        <time>2021-10-16T07:00:43.000Z</time>
      </trkpt>
      <trkpt lat="45.21051" lon="5.72752">
        <ele>774.20001220703</ele>
        <time>2021-10-16T07:00:46.000Z</time>
      </trkpt>
      <trkpt lat="45.21045" lon="5.72751">
        <ele>773.59997558594</ele>
        <time>2021-10-16T07:00:48.000Z</time>
      </trkpt>
      <trkpt lat="45.21043" lon="5.7275">
        <ele>773.40002441406</ele>
        <time>2021-10-16T07:00:49.000Z</time>
      </trkpt>
      <trkpt lat="45.21041" lon="5.72749">
        <ele>772.59997558594</ele>
        <time>2021-10-16T07:00:50.000Z</time>
      </trkpt>
      <trkpt lat="45.21038" lon="5.72749">
        <ele>772</ele>
        <time>2021-10-16T07:00:52.000Z</time>
      </trkpt>
      <trkpt lat="45.21035" lon="5.72748">
        <ele>771.40002441406</ele>
        <time>2021-10-16T07:00:54.000Z</time>
      </trkpt>
      <trkpt lat="45.21034" lon="5.72747">
        <ele>771.40002441406</ele>
        <time>2021-10-16T07:00:55.000Z</time>
      </trkpt>
      <trkpt lat="45.21031" lon="5.72745">
        <ele>770</ele>
        <time>2021-10-16T07:00:57.000Z</time>
      </trkpt>
      <trkpt lat="45.2103" lon="5.72745">
        <ele>769.40002441406</ele>
        <time>2021-10-16T07:01:00.000Z</time>
      </trkpt>
      <trkpt lat="45.21028" lon="5.72745">
        <ele>768.40002441406</ele>
        <time>2021-10-16T07:01:01.000Z</time>
      </trkpt>
      <trkpt lat="45.21024" lon="5.72746">
        <ele>767.79998779297</ele>
        <time>2021-10-16T07:01:04.000Z</time>
      </trkpt>
      <trkpt lat="45.21023" lon="5.72747">
        <ele>767.20001220703</ele>
        <time>2021-10-16T07:01:05.000Z</time>
      </trkpt>
      <trkpt lat="45.21022" lon="5.72747">
        <ele>767</ele>
        <time>2021-10-16T07:01:07.000Z</time>
      </trkpt>
      <trkpt lat="45.21019" lon="5.72745">
        <ele>766</ele>
        <time>2021-10-16T07:01:09.000Z</time>
      </trkpt>
      <trkpt lat="45.21016" lon="5.72745">
        <ele>765.40002441406</ele>
        <time>2021-10-16T07:01:12.000Z</time>
      </trkpt>
      <trkpt lat="45.21015" lon="5.72744">
        <ele>764.59997558594</ele>
        <time>2021-10-16T07:01:13.000Z</time>
      </trkpt>
      <trkpt lat="45.21013" lon="5.72744">
        <ele>764.20001220703</ele>
        <time>2021-10-16T07:01:14.000Z</time>
      </trkpt>
      <trkpt lat="45.21013" lon="5.72745">
        <ele>764</ele>
        <time>2021-10-16T07:01:15.000Z</time>
      </trkpt>
      <trkpt lat="45.21012" lon="5.72746">
        <ele>763</ele>
        <time>2021-10-16T07:01:16.000Z</time>
      </trkpt>
      <trkpt lat="45.21011" lon="5.72747">
        <ele>762.79998779297</ele>
        <time>2021-10-16T07:01:17.000Z</time>
      </trkpt>
      <trkpt lat="45.2101" lon="5.72748">
        <ele>762.59997558594</ele>
        <time>2021-10-16T07:01:18.000Z</time>
      </trkpt>
      <trkpt lat="45.21008" lon="5.7275">
        <ele>761.40002441406</ele>
        <time>2021-10-16T07:01:20.000Z</time>
      </trkpt>
      <trkpt lat="45.21007" lon="5.72751">
        <ele>761</ele>
        <time>2021-10-16T07:01:21.000Z</time>
      </trkpt>
      <trkpt lat="45.21006" lon="5.72753">
        <ele>760.79998779297</ele>
        <time>2021-10-16T07:01:23.000Z</time>
      </trkpt>
      <trkpt lat="45.21004" lon="5.72754">
        <ele>759.20001220703</ele>
        <time>2021-10-16T07:01:25.000Z</time>
      </trkpt>
      <trkpt lat="45.21002" lon="5.72757">
        <ele>758.20001220703</ele>
        <time>2021-10-16T07:01:28.000Z</time>
      </trkpt>
      <trkpt lat="45.20998" lon="5.72758">
        <ele>756.59997558594</ele>
        <time>2021-10-16T07:01:31.000Z</time>
      </trkpt>
      <trkpt lat="45.20997" lon="5.72757">
        <ele>756.20001220703</ele>
        <time>2021-10-16T07:01:32.000Z</time>
      </trkpt>
      <trkpt lat="45.20996" lon="5.72757">
        <ele>755.79998779297</ele>
        <time>2021-10-16T07:01:33.000Z</time>
      </trkpt>
      <trkpt lat="45.20996" lon="5.72758">
        <ele>755.20001220703</ele>
        <time>2021-10-16T07:01:34.000Z</time>
      </trkpt>
      <trkpt lat="45.20994" lon="5.7276">
        <ele>754.40002441406</ele>
        <time>2021-10-16T07:01:37.000Z</time>
      </trkpt>
      <trkpt lat="45.20993" lon="5.72761">
        <ele>754</ele>
        <time>2021-10-16T07:01:38.000Z</time>
      </trkpt>
      <trkpt lat="45.20991" lon="5.72759">
        <ele>753.79998779297</ele>
        <time>2021-10-16T07:01:40.000Z</time>
      </trkpt>
      <trkpt lat="45.2099" lon="5.72758">
        <ele>752.40002441406</ele>
        <time>2021-10-16T07:01:41.000Z</time>
      </trkpt>
      <trkpt lat="45.20988" lon="5.72756">
        <ele>752</ele>
        <time>2021-10-16T07:01:43.000Z</time>
      </trkpt>
      <trkpt lat="45.20987" lon="5.72756">
        <ele>750.79998779297</ele>
        <time>2021-10-16T07:01:44.000Z</time>
      </trkpt>
      <trkpt lat="45.20985" lon="5.72755">
        <ele>750.40002441406</ele>
        <time>2021-10-16T07:01:46.000Z</time>
      </trkpt>
      <trkpt lat="45.20984" lon="5.72753">
        <ele>749.20001220703</ele>
        <time>2021-10-16T07:01:47.000Z</time>
      </trkpt>
      <trkpt lat="45.20981" lon="5.72748">
        <ele>748.20001220703</ele>
        <time>2021-10-16T07:01:50.000Z</time>
      </trkpt>
      <trkpt lat="45.2098" lon="5.72747">
        <ele>747.79998779297</ele>
        <time>2021-10-16T07:01:51.000Z</time>
      </trkpt>
      <trkpt lat="45.20979" lon="5.72745">
        <ele>746.59997558594</ele>
        <time>2021-10-16T07:01:52.000Z</time>
      </trkpt>
      <trkpt lat="45.20976" lon="5.72741">
        <ele>745.59997558594</ele>
        <time>2021-10-16T07:01:56.000Z</time>
      </trkpt>
      <trkpt lat="45.20975" lon="5.72739">
        <ele>744.59997558594</ele>
        <time>2021-10-16T07:01:57.000Z</time>
      </trkpt>
      <trkpt lat="45.20975" lon="5.72738">
        <ele>744.40002441406</ele>
        <time>2021-10-16T07:01:58.000Z</time>
      </trkpt>
      <trkpt lat="45.20974" lon="5.72734">
        <ele>743</ele>
        <time>2021-10-16T07:02:02.000Z</time>
      </trkpt>
      <trkpt lat="45.20973" lon="5.72734">
        <ele>742.59997558594</ele>
        <time>2021-10-16T07:02:03.000Z</time>
      </trkpt>
      <trkpt lat="45.2097" lon="5.72731">
        <ele>741.40002441406</ele>
        <time>2021-10-16T07:02:06.000Z</time>
      </trkpt>
      <trkpt lat="45.2097" lon="5.72731">
        <ele>741</ele>
        <time>2021-10-16T07:02:07.000Z</time>
      </trkpt>
      <trkpt lat="45.20969" lon="5.72731">
        <ele>740.40002441406</ele>
        <time>2021-10-16T07:02:08.000Z</time>
      </trkpt>
      <trkpt lat="45.20968" lon="5.72728">
        <ele>739.20001220703</ele>
        <time>2021-10-16T07:02:10.000Z</time>
      </trkpt>
      <trkpt lat="45.20966" lon="5.72725">
        <ele>737.79998779297</ele>
        <time>2021-10-16T07:02:13.000Z</time>
      </trkpt>
      <trkpt lat="45.20966" lon="5.72724">
        <ele>737.59997558594</ele>
        <time>2021-10-16T07:02:14.000Z</time>
      </trkpt>
      <trkpt lat="45.20964" lon="5.72724">
        <ele>737.40002441406</ele>
        <time>2021-10-16T07:02:15.000Z</time>
      </trkpt>
      <trkpt lat="45.20962" lon="5.72723">
        <ele>736.79998779297</ele>
        <time>2021-10-16T07:02:16.000Z</time>
      </trkpt>
      <trkpt lat="45.20961" lon="5.72722">
        <ele>736.20001220703</ele>
        <time>2021-10-16T07:02:17.000Z</time>
      </trkpt>
      <trkpt lat="45.20959" lon="5.72721">
        <ele>735.40002441406</ele>
        <time>2021-10-16T07:02:18.000Z</time>
      </trkpt>
      <trkpt lat="45.20957" lon="5.72719">
        <ele>735.20001220703</ele>
        <time>2021-10-16T07:02:19.000Z</time>
      </trkpt>
      <trkpt lat="45.20955" lon="5.72715">
        <ele>734.79998779297</ele>
        <time>2021-10-16T07:02:21.000Z</time>
      </trkpt>
      <trkpt lat="45.20954" lon="5.72713">
        <ele>734.20001220703</ele>
        <time>2021-10-16T07:02:22.000Z</time>
      </trkpt>
      <trkpt lat="45.20951" lon="5.72707">
        <ele>733.20001220703</ele>
        <time>2021-10-16T07:02:25.000Z</time>
      </trkpt>
      <trkpt lat="45.20949" lon="5.72704">
        <ele>732</ele>
        <time>2021-10-16T07:02:26.000Z</time>
      </trkpt>
      <trkpt lat="45.20942" lon="5.72696">
        <ele>731</ele>
        <time>2021-10-16T07:02:29.000Z</time>
      </trkpt>
      <trkpt lat="45.2094" lon="5.72694">
        <ele>730.40002441406</ele>
        <time>2021-10-16T07:02:30.000Z</time>
      </trkpt>
      <trkpt lat="45.20938" lon="5.72694">
        <ele>730.20001220703</ele>
        <time>2021-10-16T07:02:31.000Z</time>
      </trkpt>
      <trkpt lat="45.20932" lon="5.7269">
        <ele>729.20001220703</ele>
        <time>2021-10-16T07:02:34.000Z</time>
      </trkpt>
      <trkpt lat="45.2093" lon="5.72688">
        <ele>728</ele>
        <time>2021-10-16T07:02:35.000Z</time>
      </trkpt>
      <trkpt lat="45.20928" lon="5.72686">
        <ele>727.79998779297</ele>
        <time>2021-10-16T07:02:36.000Z</time>
      </trkpt>
      <trkpt lat="45.20926" lon="5.72683">
        <ele>727</ele>
        <time>2021-10-16T07:02:38.000Z</time>
      </trkpt>
      <trkpt lat="45.20923" lon="5.72681">
        <ele>726.79998779297</ele>
        <time>2021-10-16T07:02:40.000Z</time>
      </trkpt>
      <trkpt lat="45.20918" lon="5.72683">
        <ele>725.40002441406</ele>
        <time>2021-10-16T07:02:43.000Z</time>
      </trkpt>
      <trkpt lat="45.20914" lon="5.72685">
        <ele>723.79998779297</ele>
        <time>2021-10-16T07:02:46.000Z</time>
      </trkpt>
      <trkpt lat="45.20913" lon="5.72685">
        <ele>723.40002441406</ele>
        <time>2021-10-16T07:02:47.000Z</time>
      </trkpt>
      <trkpt lat="45.20908" lon="5.72686">
        <ele>722.79998779297</ele>
        <time>2021-10-16T07:02:50.000Z</time>
      </trkpt>
      <trkpt lat="45.20905" lon="5.72686">
        <ele>721.59997558594</ele>
        <time>2021-10-16T07:02:52.000Z</time>
      </trkpt>
      <trkpt lat="45.20903" lon="5.72686">
        <ele>721.20001220703</ele>
        <time>2021-10-16T07:02:53.000Z</time>
      </trkpt>
      <trkpt lat="45.20901" lon="5.72687">
        <ele>720.40002441406</ele>
        <time>2021-10-16T07:02:54.000Z</time>
      </trkpt>
      <trkpt lat="45.20896" lon="5.72689">
        <ele>719</ele>
        <time>2021-10-16T07:02:57.000Z</time>
      </trkpt>
      <trkpt lat="45.20894" lon="5.7269">
        <ele>718.59997558594</ele>
        <time>2021-10-16T07:02:59.000Z</time>
      </trkpt>
      <trkpt lat="45.20891" lon="5.72692">
        <ele>717.59997558594</ele>
        <time>2021-10-16T07:03:02.000Z</time>
      </trkpt>
      <trkpt lat="45.20884" lon="5.72694">
        <ele>716.40002441406</ele>
        <time>2021-10-16T07:03:06.000Z</time>
      </trkpt>
      <trkpt lat="45.20875" lon="5.72695">
        <ele>714.79998779297</ele>
        <time>2021-10-16T07:03:09.000Z</time>
      </trkpt>
      <trkpt lat="45.20864" lon="5.72695">
        <ele>713.20001220703</ele>
        <time>2021-10-16T07:03:13.000Z</time>
      </trkpt>
      <trkpt lat="45.20862" lon="5.72695">
        <ele>712.59997558594</ele>
        <time>2021-10-16T07:03:14.000Z</time>
      </trkpt>
      <trkpt lat="45.20856" lon="5.72695">
        <ele>712.20001220703</ele>
        <time>2021-10-16T07:03:18.000Z</time>
      </trkpt>
      <trkpt lat="45.20854" lon="5.72696">
        <ele>711.40002441406</ele>
        <time>2021-10-16T07:03:20.000Z</time>
      </trkpt>
      <trkpt lat="45.20852" lon="5.72697">
        <ele>711.40002441406</ele>
        <time>2021-10-16T07:03:21.000Z</time>
      </trkpt>
      <trkpt lat="45.20851" lon="5.72698">
        <ele>711</ele>
        <time>2021-10-16T07:03:22.000Z</time>
      </trkpt>
      <trkpt lat="45.20849" lon="5.727">
        <ele>709.59997558594</ele>
        <time>2021-10-16T07:03:24.000Z</time>
      </trkpt>
      <trkpt lat="45.20845" lon="5.727">
        <ele>708.59997558594</ele>
        <time>2021-10-16T07:03:28.000Z</time>
      </trkpt>
      <trkpt lat="45.20843" lon="5.727">
        <ele>708</ele>
        <time>2021-10-16T07:03:30.000Z</time>
      </trkpt>
      <trkpt lat="45.20839" lon="5.727">
        <ele>707.59997558594</ele>
        <time>2021-10-16T07:03:32.000Z</time>
      </trkpt>
      <trkpt lat="45.20838" lon="5.72703">
        <ele>708</ele>
        <time>2021-10-16T07:03:34.000Z</time>
      </trkpt>
      <trkpt lat="45.20838" lon="5.72704">
        <ele>709</ele>
        <time>2021-10-16T07:03:35.000Z</time>
      </trkpt>
      <trkpt lat="45.20838" lon="5.72707">
        <ele>710.20001220703</ele>
        <time>2021-10-16T07:03:38.000Z</time>
      </trkpt>
      <trkpt lat="45.20836" lon="5.72708">
        <ele>710.59997558594</ele>
        <time>2021-10-16T07:03:40.000Z</time>
      </trkpt>
      <trkpt lat="45.20834" lon="5.7271">
        <ele>711.79998779297</ele>
        <time>2021-10-16T07:03:43.000Z</time>
      </trkpt>
      <trkpt lat="45.20833" lon="5.72712">
        <ele>712</ele>
        <time>2021-10-16T07:03:45.000Z</time>
      </trkpt>
      <trkpt lat="45.20833" lon="5.72713">
        <ele>713</ele>
        <time>2021-10-16T07:03:46.000Z</time>
      </trkpt>
      <trkpt lat="45.20834" lon="5.72715">
        <ele>713.20001220703</ele>
        <time>2021-10-16T07:03:47.000Z</time>
      </trkpt>
      <trkpt lat="45.20833" lon="5.72719">
        <ele>715</ele>
        <time>2021-10-16T07:03:49.000Z</time>
      </trkpt>
      <trkpt lat="45.2083" lon="5.72722">
        <ele>715</ele>
        <time>2021-10-16T07:03:52.000Z</time>
      </trkpt>
      <trkpt lat="45.20829" lon="5.72722">
        <ele>715</ele>
        <time>2021-10-16T07:03:53.000Z</time>
      </trkpt>
      <trkpt lat="45.20824" lon="5.72726">
        <ele>714.79998779297</ele>
        <time>2021-10-16T07:03:58.000Z</time>
      </trkpt>
      <trkpt lat="45.20823" lon="5.72727">
        <ele>714.79998779297</ele>
        <time>2021-10-16T07:03:59.000Z</time>
      </trkpt>
      <trkpt lat="45.2082" lon="5.7273">
        <ele>714.79998779297</ele>
        <time>2021-10-16T07:04:02.000Z</time>
      </trkpt>
      <trkpt lat="45.20819" lon="5.7273">
        <ele>713.79998779297</ele>
        <time>2021-10-16T07:04:04.000Z</time>
      </trkpt>
      <trkpt lat="45.20818" lon="5.72731">
        <ele>713.79998779297</ele>
        <time>2021-10-16T07:04:05.000Z</time>
      </trkpt>
      <trkpt lat="45.20818" lon="5.72731">
        <ele>713.40002441406</ele>
        <time>2021-10-16T07:04:06.000Z</time>
      </trkpt>
      <trkpt lat="45.20818" lon="5.72732">
        <ele>712.79998779297</ele>
        <time>2021-10-16T07:04:07.000Z</time>
      </trkpt>
      <trkpt lat="45.20816" lon="5.72733">
        <ele>712.20001220703</ele>
        <time>2021-10-16T07:04:10.000Z</time>
      </trkpt>
      <trkpt lat="45.20815" lon="5.72733">
        <ele>711.59997558594</ele>
        <time>2021-10-16T07:04:13.000Z</time>
      </trkpt>
      <trkpt lat="45.20812" lon="5.72732">
        <ele>711.59997558594</ele>
        <time>2021-10-16T07:04:15.000Z</time>
      </trkpt>
      <trkpt lat="45.20807" lon="5.72734">
        <ele>711.20001220703</ele>
        <time>2021-10-16T07:04:19.000Z</time>
      </trkpt>
      <trkpt lat="45.20806" lon="5.72733">
        <ele>711.40002441406</ele>
        <time>2021-10-16T07:04:21.000Z</time>
      </trkpt>
      <trkpt lat="45.20805" lon="5.72732">
        <ele>711.59997558594</ele>
        <time>2021-10-16T07:04:23.000Z</time>
      </trkpt>
      <trkpt lat="45.20804" lon="5.72732">
        <ele>712.20001220703</ele>
        <time>2021-10-16T07:04:25.000Z</time>
      </trkpt>
      <trkpt lat="45.20803" lon="5.72731">
        <ele>712.59997558594</ele>
        <time>2021-10-16T07:04:27.000Z</time>
      </trkpt>
      <trkpt lat="45.20802" lon="5.7273">
        <ele>712.59997558594</ele>
        <time>2021-10-16T07:04:28.000Z</time>
      </trkpt>
      <trkpt lat="45.20801" lon="5.7273">
        <ele>712.79998779297</ele>
        <time>2021-10-16T07:04:29.000Z</time>
      </trkpt>
      <trkpt lat="45.20801" lon="5.72729">
        <ele>713.40002441406</ele>
        <time>2021-10-16T07:04:31.000Z</time>
      </trkpt>
      <trkpt lat="45.208" lon="5.72729">
        <ele>713.40002441406</ele>
        <time>2021-10-16T07:04:37.000Z</time>
      </trkpt>
      <trkpt lat="45.20798" lon="5.72729">
        <ele>713.20001220703</ele>
        <time>2021-10-16T07:04:42.000Z</time>
      </trkpt>
      <trkpt lat="45.20798" lon="5.7273">
        <ele>713.20001220703</ele>
        <time>2021-10-16T07:04:49.000Z</time>
      </trkpt>
      <trkpt lat="45.20798" lon="5.7273">
        <ele>713.20001220703</ele>
        <time>2021-10-16T07:05:03.000Z</time>
      </trkpt>
      <trkpt lat="45.20798" lon="5.7273">
        <ele>713.79998779297</ele>
        <time>2021-10-16T07:05:08.000Z</time>
      </trkpt>
      <trkpt lat="45.20797" lon="5.7273">
        <ele>713.59997558594</ele>
        <time>2021-10-16T07:05:12.000Z</time>
      </trkpt>
      <trkpt lat="45.20797" lon="5.72727">
        <ele>713.59997558594</ele>
        <time>2021-10-16T07:05:15.000Z</time>
      </trkpt>
      <trkpt lat="45.20797" lon="5.72727">
        <ele>713.59997558594</ele>
        <time>2021-10-16T07:05:17.000Z</time>
      </trkpt>
      <trkpt lat="45.20797" lon="5.72727">
        <ele>713.20001220703</ele>
        <time>2021-10-16T07:05:21.000Z</time>
      </trkpt>
      <trkpt lat="45.20797" lon="5.72727">
        <ele>713.59997558594</ele>
        <time>2021-10-16T07:05:31.000Z</time>
      </trkpt>
      <trkpt lat="45.20797" lon="5.72727">
        <ele>713.20001220703</ele>
        <time>2021-10-16T07:05:46.000Z</time>
      </trkpt>
      <trkpt lat="45.20798" lon="5.72727">
        <ele>713.20001220703</ele>
        <time>2021-10-16T07:06:12.000Z</time>
      </trkpt>
      <trkpt lat="45.20798" lon="5.72727">
        <ele>713.20001220703</ele>
        <time>2021-10-16T07:06:20.000Z</time>
      </trkpt>
      <trkpt lat="45.20798" lon="5.72727">
        <ele>713.20001220703</ele>
        <time>2021-10-16T07:06:22.000Z</time>
      </trkpt>
      <trkpt lat="45.20798" lon="5.72728">
        <ele>713.20001220703</ele>
        <time>2021-10-16T07:06:29.000Z</time>
      </trkpt>
      <trkpt lat="45.20798" lon="5.72729">
        <ele>713.20001220703</ele>
        <time>2021-10-16T07:06:33.000Z</time>
      </trkpt>
      <trkpt lat="45.20798" lon="5.72729">
        <ele>713.20001220703</ele>
        <time>2021-10-16T07:06:37.000Z</time>
      </trkpt>
      <trkpt lat="45.20798" lon="5.72729">
        <ele>713.20001220703</ele>
        <time>2021-10-16T07:06:45.000Z</time>
      </trkpt>
      <trkpt lat="45.20798" lon="5.72729">
        <ele>713.20001220703</ele>
        <time>2021-10-16T07:06:46.000Z</time>
      </trkpt>
      <trkpt lat="45.20798" lon="5.72729">
        <ele>713.20001220703</ele>
        <time>2021-10-16T07:06:48.000Z</time>
      </trkpt>
      <trkpt lat="45.20798" lon="5.72729">
        <ele>713.20001220703</ele>
        <time>2021-10-16T07:06:54.000Z</time>
      </trkpt>
      <trkpt lat="45.20798" lon="5.72729">
        <ele>713.20001220703</ele>
        <time>2021-10-16T07:06:57.000Z</time>
      </trkpt>
      <trkpt lat="45.20798" lon="5.72729">
        <ele>713.20001220703</ele>
        <time>2021-10-16T07:06:59.000Z</time>
      </trkpt>
      <trkpt lat="45.20798" lon="5.72729">
        <ele>713.20001220703</ele>
        <time>2021-10-16T07:07:02.000Z</time>
      </trkpt>
      <trkpt lat="45.20798" lon="5.72729">
        <ele>713.20001220703</ele>
        <time>2021-10-16T07:07:04.000Z</time>
      </trkpt>
      <trkpt lat="45.20798" lon="5.72729">
        <ele>713.20001220703</ele>
        <time>2021-10-16T07:07:13.000Z</time>
      </trkpt>
      <trkpt lat="45.20797" lon="5.72729">
        <ele>713.20001220703</ele>
        <time>2021-10-16T07:07:35.000Z</time>
      </trkpt>
      <trkpt lat="45.20797" lon="5.72729">
        <ele>713.20001220703</ele>
        <time>2021-10-16T07:07:38.000Z</time>
      </trkpt>
      <trkpt lat="45.20797" lon="5.72729">
        <ele>713.20001220703</ele>
        <time>2021-10-16T07:07:41.000Z</time>
      </trkpt>
      <trkpt lat="45.20797" lon="5.72729">
        <ele>713.20001220703</ele>
        <time>2021-10-16T07:07:44.000Z</time>
      </trkpt>
      <trkpt lat="45.20803" lon="5.72729">
        <ele>713.20001220703</ele>
        <time>2021-10-16T07:07:49.000Z</time>
      </trkpt>
      <trkpt lat="45.20804" lon="5.72729">
        <ele>713.20001220703</ele>
        <time>2021-10-16T07:07:50.000Z</time>
      </trkpt>
      <trkpt lat="45.20809" lon="5.72731">
        <ele>713.20001220703</ele>
        <time>2021-10-16T07:07:53.000Z</time>
      </trkpt>
      <trkpt lat="45.20812" lon="5.7273">
        <ele>713.40002441406</ele>
        <time>2021-10-16T07:07:55.000Z</time>
      </trkpt>
      <trkpt lat="45.20813" lon="5.72728">
        <ele>714.20001220703</ele>
        <time>2021-10-16T07:07:58.000Z</time>
      </trkpt>
      <trkpt lat="45.20816" lon="5.72729">
        <ele>715.40002441406</ele>
        <time>2021-10-16T07:08:01.000Z</time>
      </trkpt>
      <trkpt lat="45.20819" lon="5.72726">
        <ele>715.79998779297</ele>
        <time>2021-10-16T07:08:04.000Z</time>
      </trkpt>
      <trkpt lat="45.2082" lon="5.72723">
        <ele>715.79998779297</ele>
        <time>2021-10-16T07:08:06.000Z</time>
      </trkpt>
      <trkpt lat="45.20821" lon="5.72722">
        <ele>715.59997558594</ele>
        <time>2021-10-16T07:08:07.000Z</time>
      </trkpt>
      <trkpt lat="45.20822" lon="5.72722">
        <ele>715.79998779297</ele>
        <time>2021-10-16T07:08:08.000Z</time>
      </trkpt>
      <trkpt lat="45.20823" lon="5.72722">
        <ele>715.79998779297</ele>
        <time>2021-10-16T07:08:09.000Z</time>
      </trkpt>
      <trkpt lat="45.20825" lon="5.7272">
        <ele>715.79998779297</ele>
        <time>2021-10-16T07:08:12.000Z</time>
      </trkpt>
      <trkpt lat="45.20828" lon="5.72716">
        <ele>715.20001220703</ele>
        <time>2021-10-16T07:08:16.000Z</time>
      </trkpt>
      <trkpt lat="45.20828" lon="5.72714">
        <ele>714.40002441406</ele>
        <time>2021-10-16T07:08:19.000Z</time>
      </trkpt>
      <trkpt lat="45.20829" lon="5.72714">
        <ele>714</ele>
        <time>2021-10-16T07:08:20.000Z</time>
      </trkpt>
      <trkpt lat="45.20829" lon="5.72712">
        <ele>713.40002441406</ele>
        <time>2021-10-16T07:08:23.000Z</time>
      </trkpt>
      <trkpt lat="45.2083" lon="5.72711">
        <ele>712.59997558594</ele>
        <time>2021-10-16T07:08:24.000Z</time>
      </trkpt>
      <trkpt lat="45.20831" lon="5.7271">
        <ele>712.40002441406</ele>
        <time>2021-10-16T07:08:25.000Z</time>
      </trkpt>
      <trkpt lat="45.20831" lon="5.72705">
        <ele>711.20001220703</ele>
        <time>2021-10-16T07:08:28.000Z</time>
      </trkpt>
      <trkpt lat="45.20832" lon="5.72704">
        <ele>710.59997558594</ele>
        <time>2021-10-16T07:08:30.000Z</time>
      </trkpt>
      <trkpt lat="45.20832" lon="5.72703">
        <ele>710.20001220703</ele>
        <time>2021-10-16T07:08:31.000Z</time>
      </trkpt>
      <trkpt lat="45.20833" lon="5.727">
        <ele>709.20001220703</ele>
        <time>2021-10-16T07:08:33.000Z</time>
      </trkpt>
      <trkpt lat="45.20834" lon="5.72697">
        <ele>708.59997558594</ele>
        <time>2021-10-16T07:08:34.000Z</time>
      </trkpt>
      <trkpt lat="45.20834" lon="5.72692">
        <ele>707.59997558594</ele>
        <time>2021-10-16T07:08:36.000Z</time>
      </trkpt>
      <trkpt lat="45.20834" lon="5.72688">
        <ele>705.79998779297</ele>
        <time>2021-10-16T07:08:38.000Z</time>
      </trkpt>
      <trkpt lat="45.20834" lon="5.72684">
        <ele>705.20001220703</ele>
        <time>2021-10-16T07:08:40.000Z</time>
      </trkpt>
      <trkpt lat="45.20833" lon="5.72678">
        <ele>704.59997558594</ele>
        <time>2021-10-16T07:08:44.000Z</time>
      </trkpt>
      <trkpt lat="45.20833" lon="5.72675">
        <ele>703.40002441406</ele>
        <time>2021-10-16T07:08:45.000Z</time>
      </trkpt>
      <trkpt lat="45.20833" lon="5.72669">
        <ele>702.59997558594</ele>
        <time>2021-10-16T07:08:48.000Z</time>
      </trkpt>
      <trkpt lat="45.20833" lon="5.72668">
        <ele>702.59997558594</ele>
        <time>2021-10-16T07:08:49.000Z</time>
      </trkpt>
      <trkpt lat="45.20833" lon="5.72666">
        <ele>702.20001220703</ele>
        <time>2021-10-16T07:08:50.000Z</time>
      </trkpt>
      <trkpt lat="45.20833" lon="5.72664">
        <ele>700.79998779297</ele>
        <time>2021-10-16T07:08:52.000Z</time>
      </trkpt>
      <trkpt lat="45.20833" lon="5.72662">
        <ele>700.79998779297</ele>
        <time>2021-10-16T07:08:53.000Z</time>
      </trkpt>
      <trkpt lat="45.20831" lon="5.7266">
        <ele>699.59997558594</ele>
        <time>2021-10-16T07:08:55.000Z</time>
      </trkpt>
      <trkpt lat="45.20827" lon="5.72667">
        <ele>698.40002441406</ele>
        <time>2021-10-16T07:09:00.000Z</time>
      </trkpt>
      <trkpt lat="45.20826" lon="5.72668">
        <ele>698</ele>
        <time>2021-10-16T07:09:01.000Z</time>
      </trkpt>
      <trkpt lat="45.20824" lon="5.7267">
        <ele>696.79998779297</ele>
        <time>2021-10-16T07:09:03.000Z</time>
      </trkpt>
      <trkpt lat="45.20818" lon="5.72672">
        <ele>695.40002441406</ele>
        <time>2021-10-16T07:09:07.000Z</time>
      </trkpt>
      <trkpt lat="45.20814" lon="5.72673">
        <ele>695.20001220703</ele>
        <time>2021-10-16T07:09:09.000Z</time>
      </trkpt>
      <trkpt lat="45.20812" lon="5.72667">
        <ele>694</ele>
        <time>2021-10-16T07:09:12.000Z</time>
      </trkpt>
      <trkpt lat="45.20811" lon="5.72665">
        <ele>693.79998779297</ele>
        <time>2021-10-16T07:09:13.000Z</time>
      </trkpt>
      <trkpt lat="45.20811" lon="5.72663">
        <ele>692.59997558594</ele>
        <time>2021-10-16T07:09:14.000Z</time>
      </trkpt>
      <trkpt lat="45.20809" lon="5.72658">
        <ele>692</ele>
        <time>2021-10-16T07:09:17.000Z</time>
      </trkpt>
      <trkpt lat="45.20809" lon="5.72656">
        <ele>691</ele>
        <time>2021-10-16T07:09:18.000Z</time>
      </trkpt>
      <trkpt lat="45.20809" lon="5.72653">
        <ele>690.79998779297</ele>
        <time>2021-10-16T07:09:20.000Z</time>
      </trkpt>
      <trkpt lat="45.20808" lon="5.72647">
        <ele>690</ele>
        <time>2021-10-16T07:09:23.000Z</time>
      </trkpt>
      <trkpt lat="45.20808" lon="5.72645">
        <ele>689.20001220703</ele>
        <time>2021-10-16T07:09:25.000Z</time>
      </trkpt>
      <trkpt lat="45.20808" lon="5.72643">
        <ele>689</ele>
        <time>2021-10-16T07:09:26.000Z</time>
      </trkpt>
      <trkpt lat="45.20808" lon="5.72642">
        <ele>688.40002441406</ele>
        <time>2021-10-16T07:09:27.000Z</time>
      </trkpt>
      <trkpt lat="45.20807" lon="5.7264">
        <ele>688</ele>
        <time>2021-10-16T07:09:28.000Z</time>
      </trkpt>
      <trkpt lat="45.20805" lon="5.72635">
        <ele>687.20001220703</ele>
        <time>2021-10-16T07:09:30.000Z</time>
      </trkpt>
      <trkpt lat="45.20804" lon="5.72633">
        <ele>686.59997558594</ele>
        <time>2021-10-16T07:09:31.000Z</time>
      </trkpt>
      <trkpt lat="45.20803" lon="5.72629">
        <ele>685.59997558594</ele>
        <time>2021-10-16T07:09:33.000Z</time>
      </trkpt>
      <trkpt lat="45.20802" lon="5.72628">
        <ele>685.40002441406</ele>
        <time>2021-10-16T07:09:34.000Z</time>
      </trkpt>
      <trkpt lat="45.20801" lon="5.72628">
        <ele>685.20001220703</ele>
        <time>2021-10-16T07:09:35.000Z</time>
      </trkpt>
      <trkpt lat="45.208" lon="5.72629">
        <ele>684.40002441406</ele>
        <time>2021-10-16T07:09:37.000Z</time>
      </trkpt>
      <trkpt lat="45.20797" lon="5.72637">
        <ele>683.20001220703</ele>
        <time>2021-10-16T07:09:41.000Z</time>
      </trkpt>
      <trkpt lat="45.20796" lon="5.72638">
        <ele>682.59997558594</ele>
        <time>2021-10-16T07:09:42.000Z</time>
      </trkpt>
      <trkpt lat="45.20795" lon="5.7264">
        <ele>682</ele>
        <time>2021-10-16T07:09:43.000Z</time>
      </trkpt>
      <trkpt lat="45.20793" lon="5.72639">
        <ele>681.20001220703</ele>
        <time>2021-10-16T07:09:46.000Z</time>
      </trkpt>
      <trkpt lat="45.20791" lon="5.72639">
        <ele>681</ele>
        <time>2021-10-16T07:09:47.000Z</time>
      </trkpt>
      <trkpt lat="45.2079" lon="5.7264">
        <ele>681</ele>
        <time>2021-10-16T07:09:48.000Z</time>
      </trkpt>
      <trkpt lat="45.20785" lon="5.72646">
        <ele>679.59997558594</ele>
        <time>2021-10-16T07:09:51.000Z</time>
      </trkpt>
      <trkpt lat="45.20779" lon="5.72647">
        <ele>678.59997558594</ele>
        <time>2021-10-16T07:09:54.000Z</time>
      </trkpt>
      <trkpt lat="45.20777" lon="5.72647">
        <ele>677.79998779297</ele>
        <time>2021-10-16T07:09:55.000Z</time>
      </trkpt>
      <trkpt lat="45.20776" lon="5.72646">
        <ele>677.40002441406</ele>
        <time>2021-10-16T07:09:56.000Z</time>
      </trkpt>
      <trkpt lat="45.20775" lon="5.72642">
        <ele>676.40002441406</ele>
        <time>2021-10-16T07:09:58.000Z</time>
      </trkpt>
      <trkpt lat="45.20775" lon="5.7264">
        <ele>676.20001220703</ele>
        <time>2021-10-16T07:09:59.000Z</time>
      </trkpt>
      <trkpt lat="45.20775" lon="5.72636">
        <ele>675.20001220703</ele>
        <time>2021-10-16T07:10:01.000Z</time>
      </trkpt>
      <trkpt lat="45.20776" lon="5.72626">
        <ele>674.40002441406</ele>
        <time>2021-10-16T07:10:05.000Z</time>
      </trkpt>
      <trkpt lat="45.20777" lon="5.72625">
        <ele>673.59997558594</ele>
        <time>2021-10-16T07:10:06.000Z</time>
      </trkpt>
      <trkpt lat="45.20777" lon="5.72622">
        <ele>672.59997558594</ele>
        <time>2021-10-16T07:10:07.000Z</time>
      </trkpt>
      <trkpt lat="45.20776" lon="5.72621">
        <ele>672.40002441406</ele>
        <time>2021-10-16T07:10:08.000Z</time>
      </trkpt>
      <trkpt lat="45.20776" lon="5.72618">
        <ele>671.40002441406</ele>
        <time>2021-10-16T07:10:10.000Z</time>
      </trkpt>
      <trkpt lat="45.20775" lon="5.72617">
        <ele>670.59997558594</ele>
        <time>2021-10-16T07:10:11.000Z</time>
      </trkpt>
      <trkpt lat="45.20773" lon="5.72617">
        <ele>669.79998779297</ele>
        <time>2021-10-16T07:10:13.000Z</time>
      </trkpt>
      <trkpt lat="45.20772" lon="5.72618">
        <ele>669.59997558594</ele>
        <time>2021-10-16T07:10:14.000Z</time>
      </trkpt>
      <trkpt lat="45.20768" lon="5.7262">
        <ele>668.79998779297</ele>
        <time>2021-10-16T07:10:16.000Z</time>
      </trkpt>
      <trkpt lat="45.20766" lon="5.7262">
        <ele>668.40002441406</ele>
        <time>2021-10-16T07:10:17.000Z</time>
      </trkpt>
      <trkpt lat="45.20759" lon="5.72621">
        <ele>666.59997558594</ele>
        <time>2021-10-16T07:10:20.000Z</time>
      </trkpt>
      <trkpt lat="45.20755" lon="5.72622">
        <ele>665.79998779297</ele>
        <time>2021-10-16T07:10:22.000Z</time>
      </trkpt>
      <trkpt lat="45.20754" lon="5.72623">
        <ele>665.59997558594</ele>
        <time>2021-10-16T07:10:23.000Z</time>
      </trkpt>
      <trkpt lat="45.20749" lon="5.72624">
        <ele>664</ele>
        <time>2021-10-16T07:10:26.000Z</time>
      </trkpt>
      <trkpt lat="45.20747" lon="5.72622">
        <ele>664</ele>
        <time>2021-10-16T07:10:27.000Z</time>
      </trkpt>
      <trkpt lat="45.20746" lon="5.72617">
        <ele>663</ele>
        <time>2021-10-16T07:10:29.000Z</time>
      </trkpt>
      <trkpt lat="45.20745" lon="5.72613">
        <ele>662.20001220703</ele>
        <time>2021-10-16T07:10:31.000Z</time>
      </trkpt>
      <trkpt lat="45.20742" lon="5.72608">
        <ele>661.59997558594</ele>
        <time>2021-10-16T07:10:33.000Z</time>
      </trkpt>
      <trkpt lat="45.20738" lon="5.72599">
        <ele>660.40002441406</ele>
        <time>2021-10-16T07:10:36.000Z</time>
      </trkpt>
      <trkpt lat="45.20736" lon="5.72593">
        <ele>659.79998779297</ele>
        <time>2021-10-16T07:10:38.000Z</time>
      </trkpt>
      <trkpt lat="45.20735" lon="5.7259">
        <ele>658.79998779297</ele>
        <time>2021-10-16T07:10:40.000Z</time>
      </trkpt>
      <trkpt lat="45.20733" lon="5.72591">
        <ele>657.79998779297</ele>
        <time>2021-10-16T07:10:42.000Z</time>
      </trkpt>
      <trkpt lat="45.20732" lon="5.72591">
        <ele>657.79998779297</ele>
        <time>2021-10-16T07:10:43.000Z</time>
      </trkpt>
      <trkpt lat="45.20729" lon="5.7259">
        <ele>656.79998779297</ele>
        <time>2021-10-16T07:10:45.000Z</time>
      </trkpt>
      <trkpt lat="45.20728" lon="5.72589">
        <ele>656.20001220703</ele>
        <time>2021-10-16T07:10:46.000Z</time>
      </trkpt>
      <trkpt lat="45.20726" lon="5.72586">
        <ele>656</ele>
        <time>2021-10-16T07:10:48.000Z</time>
      </trkpt>
      <trkpt lat="45.20724" lon="5.72584">
        <ele>654.59997558594</ele>
        <time>2021-10-16T07:10:49.000Z</time>
      </trkpt>
      <trkpt lat="45.20721" lon="5.72582">
        <ele>653.40002441406</ele>
        <time>2021-10-16T07:10:51.000Z</time>
      </trkpt>
      <trkpt lat="45.2072" lon="5.72583">
        <ele>653.40002441406</ele>
        <time>2021-10-16T07:10:52.000Z</time>
      </trkpt>
      <trkpt lat="45.20717" lon="5.72582">
        <ele>652.79998779297</ele>
        <time>2021-10-16T07:10:54.000Z</time>
      </trkpt>
      <trkpt lat="45.20715" lon="5.72581">
        <ele>652.79998779297</ele>
        <time>2021-10-16T07:10:55.000Z</time>
      </trkpt>
      <trkpt lat="45.20714" lon="5.72579">
        <ele>652</ele>
        <time>2021-10-16T07:10:56.000Z</time>
      </trkpt>
      <trkpt lat="45.20712" lon="5.72577">
        <ele>650.79998779297</ele>
        <time>2021-10-16T07:10:59.000Z</time>
      </trkpt>
      <trkpt lat="45.20709" lon="5.72574">
        <ele>650.20001220703</ele>
        <time>2021-10-16T07:11:01.000Z</time>
      </trkpt>
      <trkpt lat="45.20708" lon="5.72573">
        <ele>649.59997558594</ele>
        <time>2021-10-16T07:11:02.000Z</time>
      </trkpt>
      <trkpt lat="45.20705" lon="5.72571">
        <ele>649.20001220703</ele>
        <time>2021-10-16T07:11:04.000Z</time>
      </trkpt>
      <trkpt lat="45.20704" lon="5.7257">
        <ele>648</ele>
        <time>2021-10-16T07:11:05.000Z</time>
      </trkpt>
      <trkpt lat="45.20703" lon="5.7257">
        <ele>647.79998779297</ele>
        <time>2021-10-16T07:11:06.000Z</time>
      </trkpt>
      <trkpt lat="45.20698" lon="5.72568">
        <ele>646.79998779297</ele>
        <time>2021-10-16T07:11:09.000Z</time>
      </trkpt>
      <trkpt lat="45.20695" lon="5.72568">
        <ele>646.40002441406</ele>
        <time>2021-10-16T07:11:11.000Z</time>
      </trkpt>
      <trkpt lat="45.20692" lon="5.72569">
        <ele>646.20001220703</ele>
        <time>2021-10-16T07:11:12.000Z</time>
      </trkpt>
      <trkpt lat="45.2069" lon="5.72569">
        <ele>645.20001220703</ele>
        <time>2021-10-16T07:11:13.000Z</time>
      </trkpt>
      <trkpt lat="45.20685" lon="5.7257">
        <ele>644</ele>
        <time>2021-10-16T07:11:16.000Z</time>
      </trkpt>
      <trkpt lat="45.20679" lon="5.72574">
        <ele>643.20001220703</ele>
        <time>2021-10-16T07:11:19.000Z</time>
      </trkpt>
      <trkpt lat="45.20675" lon="5.7258">
        <ele>642.79998779297</ele>
        <time>2021-10-16T07:11:21.000Z</time>
      </trkpt>
      <trkpt lat="45.20667" lon="5.72589">
        <ele>641.79998779297</ele>
        <time>2021-10-16T07:11:24.000Z</time>
      </trkpt>
      <trkpt lat="45.20662" lon="5.72595">
        <ele>640.79998779297</ele>
        <time>2021-10-16T07:11:26.000Z</time>
      </trkpt>
      <trkpt lat="45.20658" lon="5.726">
        <ele>640.59997558594</ele>
        <time>2021-10-16T07:11:28.000Z</time>
      </trkpt>
      <trkpt lat="45.20655" lon="5.72602">
        <ele>640.20001220703</ele>
        <time>2021-10-16T07:11:29.000Z</time>
      </trkpt>
      <trkpt lat="45.20647" lon="5.72604">
        <ele>639.40002441406</ele>
        <time>2021-10-16T07:11:32.000Z</time>
      </trkpt>
      <trkpt lat="45.20635" lon="5.72604">
        <ele>638.40002441406</ele>
        <time>2021-10-16T07:11:37.000Z</time>
      </trkpt>
      <trkpt lat="45.20634" lon="5.72603">
        <ele>638.20001220703</ele>
        <time>2021-10-16T07:11:38.000Z</time>
      </trkpt>
      <trkpt lat="45.20632" lon="5.72601">
        <ele>637.79998779297</ele>
        <time>2021-10-16T07:11:39.000Z</time>
      </trkpt>
      <trkpt lat="45.20626" lon="5.72598">
        <ele>636.79998779297</ele>
        <time>2021-10-16T07:11:42.000Z</time>
      </trkpt>
      <trkpt lat="45.20618" lon="5.72592">
        <ele>636</ele>
        <time>2021-10-16T07:11:46.000Z</time>
      </trkpt>
      <trkpt lat="45.20615" lon="5.72591">
        <ele>635.40002441406</ele>
        <time>2021-10-16T07:11:47.000Z</time>
      </trkpt>
      <trkpt lat="45.20607" lon="5.72585">
        <ele>635.20001220703</ele>
        <time>2021-10-16T07:11:50.000Z</time>
      </trkpt>
      <trkpt lat="45.206" lon="5.72579">
        <ele>634.59997558594</ele>
        <time>2021-10-16T07:11:53.000Z</time>
      </trkpt>
      <trkpt lat="45.20596" lon="5.72576">
        <ele>634.40002441406</ele>
        <time>2021-10-16T07:11:55.000Z</time>
      </trkpt>
      <trkpt lat="45.20588" lon="5.7257">
        <ele>633.59997558594</ele>
        <time>2021-10-16T07:11:59.000Z</time>
      </trkpt>
      <trkpt lat="45.20586" lon="5.7257">
        <ele>633.20001220703</ele>
        <time>2021-10-16T07:12:00.000Z</time>
      </trkpt>
      <trkpt lat="45.20576" lon="5.72566">
        <ele>632</ele>
        <time>2021-10-16T07:12:04.000Z</time>
      </trkpt>
      <trkpt lat="45.20574" lon="5.72565">
        <ele>631.59997558594</ele>
        <time>2021-10-16T07:12:05.000Z</time>
      </trkpt>
      <trkpt lat="45.20559" lon="5.72565">
        <ele>630.59997558594</ele>
        <time>2021-10-16T07:12:10.000Z</time>
      </trkpt>
      <trkpt lat="45.20556" lon="5.72565">
        <ele>630.59997558594</ele>
        <time>2021-10-16T07:12:11.000Z</time>
      </trkpt>
      <trkpt lat="45.20542" lon="5.72567">
        <ele>629.40002441406</ele>
        <time>2021-10-16T07:12:16.000Z</time>
      </trkpt>
      <trkpt lat="45.20538" lon="5.72568">
        <ele>629.40002441406</ele>
        <time>2021-10-16T07:12:17.000Z</time>
      </trkpt>
      <trkpt lat="45.20529" lon="5.72566">
        <ele>630.59997558594</ele>
        <time>2021-10-16T07:12:22.000Z</time>
      </trkpt>
      <trkpt lat="45.20517" lon="5.72562">
        <ele>631.59997558594</ele>
        <time>2021-10-16T07:12:27.000Z</time>
      </trkpt>
      <trkpt lat="45.20514" lon="5.7256">
        <ele>631.79998779297</ele>
        <time>2021-10-16T07:12:28.000Z</time>
      </trkpt>
      <trkpt lat="45.20505" lon="5.72544">
        <ele>632.40002441406</ele>
        <time>2021-10-16T07:12:33.000Z</time>
      </trkpt>
      <trkpt lat="45.20495" lon="5.72526">
        <ele>631.79998779297</ele>
        <time>2021-10-16T07:12:39.000Z</time>
      </trkpt>
      <trkpt lat="45.2049" lon="5.72515">
        <ele>631.20001220703</ele>
        <time>2021-10-16T07:12:42.000Z</time>
      </trkpt>
      <trkpt lat="45.20486" lon="5.72497">
        <ele>630.40002441406</ele>
        <time>2021-10-16T07:12:47.000Z</time>
      </trkpt>
      <trkpt lat="45.20482" lon="5.7248">
        <ele>630.79998779297</ele>
        <time>2021-10-16T07:12:52.000Z</time>
      </trkpt>
      <trkpt lat="45.2048" lon="5.7247">
        <ele>631.79998779297</ele>
        <time>2021-10-16T07:12:55.000Z</time>
      </trkpt>
      <trkpt lat="45.2048" lon="5.72465">
        <ele>632.79998779297</ele>
        <time>2021-10-16T07:12:57.000Z</time>
      </trkpt>
      <trkpt lat="45.20479" lon="5.7246">
        <ele>633.59997558594</ele>
        <time>2021-10-16T07:12:59.000Z</time>
      </trkpt>
      <trkpt lat="45.20479" lon="5.72457">
        <ele>633.79998779297</ele>
        <time>2021-10-16T07:13:00.000Z</time>
      </trkpt>
      <trkpt lat="45.20477" lon="5.72452">
        <ele>634.79998779297</ele>
        <time>2021-10-16T07:13:02.000Z</time>
      </trkpt>
      <trkpt lat="45.20475" lon="5.72449">
        <ele>635.20001220703</ele>
        <time>2021-10-16T07:13:03.000Z</time>
      </trkpt>
      <trkpt lat="45.20474" lon="5.72446">
        <ele>635.20001220703</ele>
        <time>2021-10-16T07:13:04.000Z</time>
      </trkpt>
      <trkpt lat="45.2047" lon="5.72435">
        <ele>636</ele>
        <time>2021-10-16T07:13:08.000Z</time>
      </trkpt>
      <trkpt lat="45.2046" lon="5.72428">
        <ele>636.20001220703</ele>
        <time>2021-10-16T07:13:13.000Z</time>
      </trkpt>
      <trkpt lat="45.20456" lon="5.72426">
        <ele>636.40002441406</ele>
        <time>2021-10-16T07:13:15.000Z</time>
      </trkpt>
      <trkpt lat="45.20447" lon="5.7242">
        <ele>636</ele>
        <time>2021-10-16T07:13:20.000Z</time>
      </trkpt>
      <trkpt lat="45.20443" lon="5.72419">
        <ele>635.79998779297</ele>
        <time>2021-10-16T07:13:22.000Z</time>
      </trkpt>
      <trkpt lat="45.20436" lon="5.7242">
        <ele>635.59997558594</ele>
        <time>2021-10-16T07:13:25.000Z</time>
      </trkpt>
      <trkpt lat="45.20429" lon="5.72419">
        <ele>635.59997558594</ele>
        <time>2021-10-16T07:13:29.000Z</time>
      </trkpt>
      <trkpt lat="45.20425" lon="5.72422">
        <ele>636.20001220703</ele>
        <time>2021-10-16T07:13:31.000Z</time>
      </trkpt>
      <trkpt lat="45.20421" lon="5.72423">
        <ele>636.40002441406</ele>
        <time>2021-10-16T07:13:33.000Z</time>
      </trkpt>
      <trkpt lat="45.20411" lon="5.72426">
        <ele>636.79998779297</ele>
        <time>2021-10-16T07:13:37.000Z</time>
      </trkpt>
      <trkpt lat="45.20403" lon="5.72427">
        <ele>637</ele>
        <time>2021-10-16T07:13:40.000Z</time>
      </trkpt>
      <trkpt lat="45.20402" lon="5.72425">
        <ele>637</ele>
        <time>2021-10-16T07:13:41.000Z</time>
      </trkpt>
      <trkpt lat="45.20401" lon="5.72422">
        <ele>636.79998779297</ele>
        <time>2021-10-16T07:13:42.000Z</time>
      </trkpt>
      <trkpt lat="45.204" lon="5.72416">
        <ele>636.79998779297</ele>
        <time>2021-10-16T07:13:45.000Z</time>
      </trkpt>
      <trkpt lat="45.20395" lon="5.72419">
        <ele>636.40002441406</ele>
        <time>2021-10-16T07:13:49.000Z</time>
      </trkpt>
      <trkpt lat="45.20392" lon="5.7242">
        <ele>635.79998779297</ele>
        <time>2021-10-16T07:13:51.000Z</time>
      </trkpt>
      <trkpt lat="45.20389" lon="5.7242">
        <ele>635.79998779297</ele>
        <time>2021-10-16T07:13:53.000Z</time>
      </trkpt>
      <trkpt lat="45.20388" lon="5.7242">
        <ele>635.59997558594</ele>
        <time>2021-10-16T07:13:54.000Z</time>
      </trkpt>
      <trkpt lat="45.20388" lon="5.72422">
        <ele>635.20001220703</ele>
        <time>2021-10-16T07:13:55.000Z</time>
      </trkpt>
      <trkpt lat="45.20387" lon="5.72428">
        <ele>635</ele>
        <time>2021-10-16T07:13:57.000Z</time>
      </trkpt>
      <trkpt lat="45.20387" lon="5.72436">
        <ele>634.79998779297</ele>
        <time>2021-10-16T07:14:01.000Z</time>
      </trkpt>
      <trkpt lat="45.20389" lon="5.72437">
        <ele>634.59997558594</ele>
        <time>2021-10-16T07:14:02.000Z</time>
      </trkpt>
      <trkpt lat="45.20398" lon="5.72436">
        <ele>633.79998779297</ele>
        <time>2021-10-16T07:14:07.000Z</time>
      </trkpt>
      <trkpt lat="45.20399" lon="5.72436">
        <ele>633.59997558594</ele>
        <time>2021-10-16T07:14:08.000Z</time>
      </trkpt>
      <trkpt lat="45.20402" lon="5.72439">
        <ele>632.40002441406</ele>
        <time>2021-10-16T07:14:12.000Z</time>
      </trkpt>
      <trkpt lat="45.20403" lon="5.7244">
        <ele>632</ele>
        <time>2021-10-16T07:14:13.000Z</time>
      </trkpt>
      <trkpt lat="45.20406" lon="5.72442">
        <ele>631.20001220703</ele>
        <time>2021-10-16T07:14:15.000Z</time>
      </trkpt>
      <trkpt lat="45.20409" lon="5.72444">
        <ele>631.20001220703</ele>
        <time>2021-10-16T07:14:16.000Z</time>
      </trkpt>
      <trkpt lat="45.20411" lon="5.72446">
        <ele>631.20001220703</ele>
        <time>2021-10-16T07:14:17.000Z</time>
      </trkpt>
      <trkpt lat="45.20413" lon="5.72449">
        <ele>630.20001220703</ele>
        <time>2021-10-16T07:14:18.000Z</time>
      </trkpt>
      <trkpt lat="45.20417" lon="5.72456">
        <ele>629.79998779297</ele>
        <time>2021-10-16T07:14:20.000Z</time>
      </trkpt>
      <trkpt lat="45.20422" lon="5.7246">
        <ele>629.40002441406</ele>
        <time>2021-10-16T07:14:22.000Z</time>
      </trkpt>
      <trkpt lat="45.20425" lon="5.72462">
        <ele>629.20001220703</ele>
        <time>2021-10-16T07:14:23.000Z</time>
      </trkpt>
      <trkpt lat="45.20436" lon="5.72467">
        <ele>629.59997558594</ele>
        <time>2021-10-16T07:14:28.000Z</time>
      </trkpt>
      <trkpt lat="45.20448" lon="5.72472">
        <ele>630.20001220703</ele>
        <time>2021-10-16T07:14:33.000Z</time>
      </trkpt>
      <trkpt lat="45.2045" lon="5.72473">
        <ele>630.20001220703</ele>
        <time>2021-10-16T07:14:34.000Z</time>
      </trkpt>
      <trkpt lat="45.20454" lon="5.72475">
        <ele>630.20001220703</ele>
        <time>2021-10-16T07:14:36.000Z</time>
      </trkpt>
      <trkpt lat="45.20469" lon="5.7248">
        <ele>629.79998779297</ele>
        <time>2021-10-16T07:14:42.000Z</time>
      </trkpt>
      <trkpt lat="45.20481" lon="5.72493">
        <ele>630</ele>
        <time>2021-10-16T07:14:48.000Z</time>
      </trkpt>
      <trkpt lat="45.20483" lon="5.72502">
        <ele>630</ele>
        <time>2021-10-16T07:14:50.000Z</time>
      </trkpt>
      <trkpt lat="45.20482" lon="5.72519">
        <ele>630.40002441406</ele>
        <time>2021-10-16T07:14:54.000Z</time>
      </trkpt>
      <trkpt lat="45.20483" lon="5.72527">
        <ele>630.40002441406</ele>
        <time>2021-10-16T07:14:56.000Z</time>
      </trkpt>
      <trkpt lat="45.20486" lon="5.72535">
        <ele>629.79998779297</ele>
        <time>2021-10-16T07:14:58.000Z</time>
      </trkpt>
      <trkpt lat="45.20487" lon="5.72542">
        <ele>628.40002441406</ele>
        <time>2021-10-16T07:15:00.000Z</time>
      </trkpt>
      <trkpt lat="45.20489" lon="5.72551">
        <ele>627.20001220703</ele>
        <time>2021-10-16T07:15:02.000Z</time>
      </trkpt>
      <trkpt lat="45.2049" lon="5.72555">
        <ele>627</ele>
        <time>2021-10-16T07:15:03.000Z</time>
      </trkpt>
      <trkpt lat="45.2049" lon="5.72558">
        <ele>626.40002441406</ele>
        <time>2021-10-16T07:15:04.000Z</time>
      </trkpt>
      <trkpt lat="45.20489" lon="5.72561">
        <ele>626.20001220703</ele>
        <time>2021-10-16T07:15:05.000Z</time>
      </trkpt>
      <trkpt lat="45.20487" lon="5.72563">
        <ele>625</ele>
        <time>2021-10-16T07:15:06.000Z</time>
      </trkpt>
      <trkpt lat="45.20479" lon="5.72559">
        <ele>624</ele>
        <time>2021-10-16T07:15:09.000Z</time>
      </trkpt>
      <trkpt lat="45.20477" lon="5.72557">
        <ele>623.40002441406</ele>
        <time>2021-10-16T07:15:10.000Z</time>
      </trkpt>
      <trkpt lat="45.20474" lon="5.72555">
        <ele>623.40002441406</ele>
        <time>2021-10-16T07:15:11.000Z</time>
      </trkpt>
      <trkpt lat="45.20469" lon="5.72548">
        <ele>622.59997558594</ele>
        <time>2021-10-16T07:15:14.000Z</time>
      </trkpt>
      <trkpt lat="45.20468" lon="5.72545">
        <ele>622.40002441406</ele>
        <time>2021-10-16T07:15:15.000Z</time>
      </trkpt>
      <trkpt lat="45.20466" lon="5.72543">
        <ele>621.40002441406</ele>
        <time>2021-10-16T07:15:16.000Z</time>
      </trkpt>
      <trkpt lat="45.20464" lon="5.7254">
        <ele>621.40002441406</ele>
        <time>2021-10-16T07:15:17.000Z</time>
      </trkpt>
      <trkpt lat="45.20456" lon="5.72528">
        <ele>620.40002441406</ele>
        <time>2021-10-16T07:15:21.000Z</time>
      </trkpt>
      <trkpt lat="45.2045" lon="5.7252">
        <ele>619.59997558594</ele>
        <time>2021-10-16T07:15:24.000Z</time>
      </trkpt>
      <trkpt lat="45.20446" lon="5.72519">
        <ele>618.79998779297</ele>
        <time>2021-10-16T07:15:26.000Z</time>
      </trkpt>
      <trkpt lat="45.20441" lon="5.7252">
        <ele>618</ele>
        <time>2021-10-16T07:15:28.000Z</time>
      </trkpt>
      <trkpt lat="45.20439" lon="5.7252">
        <ele>618</ele>
        <time>2021-10-16T07:15:29.000Z</time>
      </trkpt>
      <trkpt lat="45.20439" lon="5.72519">
        <ele>617.20001220703</ele>
        <time>2021-10-16T07:15:30.000Z</time>
      </trkpt>
      <trkpt lat="45.20438" lon="5.72519">
        <ele>617.20001220703</ele>
        <time>2021-10-16T07:15:31.000Z</time>
      </trkpt>
      <trkpt lat="45.20437" lon="5.72521">
        <ele>616.79998779297</ele>
        <time>2021-10-16T07:15:33.000Z</time>
      </trkpt>
      <trkpt lat="45.20436" lon="5.72522">
        <ele>615.79998779297</ele>
        <time>2021-10-16T07:15:34.000Z</time>
      </trkpt>
      <trkpt lat="45.20432" lon="5.72521">
        <ele>614.20001220703</ele>
        <time>2021-10-16T07:15:37.000Z</time>
      </trkpt>
      <trkpt lat="45.2043" lon="5.72519">
        <ele>613.20001220703</ele>
        <time>2021-10-16T07:15:40.000Z</time>
      </trkpt>
      <trkpt lat="45.20427" lon="5.72523">
        <ele>611.79998779297</ele>
        <time>2021-10-16T07:15:43.000Z</time>
      </trkpt>
      <trkpt lat="45.20426" lon="5.72524">
        <ele>610.59997558594</ele>
        <time>2021-10-16T07:15:45.000Z</time>
      </trkpt>
      <trkpt lat="45.20423" lon="5.72527">
        <ele>609</ele>
        <time>2021-10-16T07:15:49.000Z</time>
      </trkpt>
      <trkpt lat="45.20422" lon="5.72532">
        <ele>608.40002441406</ele>
        <time>2021-10-16T07:15:52.000Z</time>
      </trkpt>
      <trkpt lat="45.20421" lon="5.72533">
        <ele>608.20001220703</ele>
        <time>2021-10-16T07:15:53.000Z</time>
      </trkpt>
      <trkpt lat="45.20419" lon="5.72535">
        <ele>607.40002441406</ele>
        <time>2021-10-16T07:15:54.000Z</time>
      </trkpt>
      <trkpt lat="45.20417" lon="5.72536">
        <ele>607</ele>
        <time>2021-10-16T07:15:55.000Z</time>
      </trkpt>
      <trkpt lat="45.20416" lon="5.72537">
        <ele>606.79998779297</ele>
        <time>2021-10-16T07:15:56.000Z</time>
      </trkpt>
      <trkpt lat="45.20415" lon="5.72539">
        <ele>605.79998779297</ele>
        <time>2021-10-16T07:15:58.000Z</time>
      </trkpt>
      <trkpt lat="45.20414" lon="5.7254">
        <ele>605.79998779297</ele>
        <time>2021-10-16T07:15:59.000Z</time>
      </trkpt>
      <trkpt lat="45.20412" lon="5.72542">
        <ele>604.59997558594</ele>
        <time>2021-10-16T07:16:00.000Z</time>
      </trkpt>
      <trkpt lat="45.2041" lon="5.72543">
        <ele>604.40002441406</ele>
        <time>2021-10-16T07:16:02.000Z</time>
      </trkpt>
      <trkpt lat="45.2041" lon="5.72544">
        <ele>603.59997558594</ele>
        <time>2021-10-16T07:16:03.000Z</time>
      </trkpt>
      <trkpt lat="45.2041" lon="5.72544">
        <ele>603.59997558594</ele>
        <time>2021-10-16T07:16:04.000Z</time>
      </trkpt>
      <trkpt lat="45.20409" lon="5.72544">
        <ele>603.20001220703</ele>
        <time>2021-10-16T07:16:05.000Z</time>
      </trkpt>
      <trkpt lat="45.20408" lon="5.72545">
        <ele>603.20001220703</ele>
        <time>2021-10-16T07:16:06.000Z</time>
      </trkpt>
      <trkpt lat="45.20406" lon="5.72545">
        <ele>602.40002441406</ele>
        <time>2021-10-16T07:16:08.000Z</time>
      </trkpt>
      <trkpt lat="45.20405" lon="5.72544">
        <ele>601.79998779297</ele>
        <time>2021-10-16T07:16:09.000Z</time>
      </trkpt>
      <trkpt lat="45.20404" lon="5.72543">
        <ele>601.20001220703</ele>
        <time>2021-10-16T07:16:10.000Z</time>
      </trkpt>
      <trkpt lat="45.20403" lon="5.72542">
        <ele>601</ele>
        <time>2021-10-16T07:16:11.000Z</time>
      </trkpt>
      <trkpt lat="45.20401" lon="5.7254">
        <ele>600</ele>
        <time>2021-10-16T07:16:13.000Z</time>
      </trkpt>
      <trkpt lat="45.20398" lon="5.72543">
        <ele>599</ele>
        <time>2021-10-16T07:16:16.000Z</time>
      </trkpt>
      <trkpt lat="45.20398" lon="5.72544">
        <ele>598.59997558594</ele>
        <time>2021-10-16T07:16:17.000Z</time>
      </trkpt>
      <trkpt lat="45.20395" lon="5.72548">
        <ele>598</ele>
        <time>2021-10-16T07:16:19.000Z</time>
      </trkpt>
      <trkpt lat="45.20391" lon="5.72548">
        <ele>597</ele>
        <time>2021-10-16T07:16:21.000Z</time>
      </trkpt>
      <trkpt lat="45.20389" lon="5.72546">
        <ele>596.59997558594</ele>
        <time>2021-10-16T07:16:22.000Z</time>
      </trkpt>
      <trkpt lat="45.20388" lon="5.72544">
        <ele>595.59997558594</ele>
        <time>2021-10-16T07:16:23.000Z</time>
      </trkpt>
      <trkpt lat="45.20386" lon="5.72543">
        <ele>595.20001220703</ele>
        <time>2021-10-16T07:16:25.000Z</time>
      </trkpt>
      <trkpt lat="45.20384" lon="5.72541">
        <ele>594.40002441406</ele>
        <time>2021-10-16T07:16:27.000Z</time>
      </trkpt>
      <trkpt lat="45.20383" lon="5.7254">
        <ele>594.20001220703</ele>
        <time>2021-10-16T07:16:28.000Z</time>
      </trkpt>
      <trkpt lat="45.20383" lon="5.7254">
        <ele>593.59997558594</ele>
        <time>2021-10-16T07:16:29.000Z</time>
      </trkpt>
      <trkpt lat="45.20382" lon="5.72538">
        <ele>592.79998779297</ele>
        <time>2021-10-16T07:16:30.000Z</time>
      </trkpt>
      <trkpt lat="45.20379" lon="5.72536">
        <ele>591.59997558594</ele>
        <time>2021-10-16T07:16:33.000Z</time>
      </trkpt>
      <trkpt lat="45.20378" lon="5.72535">
        <ele>591.20001220703</ele>
        <time>2021-10-16T07:16:34.000Z</time>
      </trkpt>
      <trkpt lat="45.20375" lon="5.72531">
        <ele>590.20001220703</ele>
        <time>2021-10-16T07:16:36.000Z</time>
      </trkpt>
      <trkpt lat="45.20374" lon="5.7253">
        <ele>589</ele>
        <time>2021-10-16T07:16:37.000Z</time>
      </trkpt>
      <trkpt lat="45.20368" lon="5.7253">
        <ele>587.40002441406</ele>
        <time>2021-10-16T07:16:41.000Z</time>
      </trkpt>
      <trkpt lat="45.20364" lon="5.72529">
        <ele>587</ele>
        <time>2021-10-16T07:16:44.000Z</time>
      </trkpt>
      <trkpt lat="45.20361" lon="5.72525">
        <ele>586.59997558594</ele>
        <time>2021-10-16T07:16:46.000Z</time>
      </trkpt>
      <trkpt lat="45.20361" lon="5.72524">
        <ele>586.40002441406</ele>
        <time>2021-10-16T07:16:47.000Z</time>
      </trkpt>
      <trkpt lat="45.2036" lon="5.72527">
        <ele>585.20001220703</ele>
        <time>2021-10-16T07:16:50.000Z</time>
      </trkpt>
      <trkpt lat="45.20357" lon="5.72529">
        <ele>583.79998779297</ele>
        <time>2021-10-16T07:16:53.000Z</time>
      </trkpt>
      <trkpt lat="45.20357" lon="5.72527">
        <ele>582.79998779297</ele>
        <time>2021-10-16T07:16:55.000Z</time>
      </trkpt>
      <trkpt lat="45.20356" lon="5.72527">
        <ele>582.79998779297</ele>
        <time>2021-10-16T07:16:56.000Z</time>
      </trkpt>
      <trkpt lat="45.20355" lon="5.72527">
        <ele>582.59997558594</ele>
        <time>2021-10-16T07:16:57.000Z</time>
      </trkpt>
      <trkpt lat="45.20352" lon="5.72526">
        <ele>582.40002441406</ele>
        <time>2021-10-16T07:16:59.000Z</time>
      </trkpt>
      <trkpt lat="45.20348" lon="5.72525">
        <ele>581.20001220703</ele>
        <time>2021-10-16T07:17:01.000Z</time>
      </trkpt>
      <trkpt lat="45.20347" lon="5.72523">
        <ele>580.79998779297</ele>
        <time>2021-10-16T07:17:02.000Z</time>
      </trkpt>
      <trkpt lat="45.20347" lon="5.72523">
        <ele>580</ele>
        <time>2021-10-16T07:17:03.000Z</time>
      </trkpt>
      <trkpt lat="45.20345" lon="5.72523">
        <ele>579.59997558594</ele>
        <time>2021-10-16T07:17:05.000Z</time>
      </trkpt>
      <trkpt lat="45.20343" lon="5.72524">
        <ele>578.59997558594</ele>
        <time>2021-10-16T07:17:07.000Z</time>
      </trkpt>
      <trkpt lat="45.2034" lon="5.72524">
        <ele>577.59997558594</ele>
        <time>2021-10-16T07:17:09.000Z</time>
      </trkpt>
      <trkpt lat="45.2034" lon="5.72523">
        <ele>577.59997558594</ele>
        <time>2021-10-16T07:17:10.000Z</time>
      </trkpt>
      <trkpt lat="45.20341" lon="5.72522">
        <ele>576.79998779297</ele>
        <time>2021-10-16T07:17:12.000Z</time>
      </trkpt>
      <trkpt lat="45.20342" lon="5.7252">
        <ele>576.59997558594</ele>
        <time>2021-10-16T07:17:15.000Z</time>
      </trkpt>
      <trkpt lat="45.20341" lon="5.7252">
        <ele>576.59997558594</ele>
        <time>2021-10-16T07:17:16.000Z</time>
      </trkpt>
      <trkpt lat="45.20339" lon="5.72522">
        <ele>576.40002441406</ele>
        <time>2021-10-16T07:17:18.000Z</time>
      </trkpt>
      <trkpt lat="45.20336" lon="5.72525">
        <ele>574.59997558594</ele>
        <time>2021-10-16T07:17:21.000Z</time>
      </trkpt>
      <trkpt lat="45.20335" lon="5.72525">
        <ele>574.20001220703</ele>
        <time>2021-10-16T07:17:22.000Z</time>
      </trkpt>
      <trkpt lat="45.20332" lon="5.72524">
        <ele>573.59997558594</ele>
        <time>2021-10-16T07:17:24.000Z</time>
      </trkpt>
      <trkpt lat="45.20331" lon="5.72523">
        <ele>573</ele>
        <time>2021-10-16T07:17:25.000Z</time>
      </trkpt>
      <trkpt lat="45.20328" lon="5.72523">
        <ele>571.79998779297</ele>
        <time>2021-10-16T07:17:27.000Z</time>
      </trkpt>
      <trkpt lat="45.20324" lon="5.72523">
        <ele>570.59997558594</ele>
        <time>2021-10-16T07:17:30.000Z</time>
      </trkpt>
      <trkpt lat="45.20321" lon="5.72524">
        <ele>569.79998779297</ele>
        <time>2021-10-16T07:17:32.000Z</time>
      </trkpt>
      <trkpt lat="45.20319" lon="5.72524">
        <ele>569.20001220703</ele>
        <time>2021-10-16T07:17:33.000Z</time>
      </trkpt>
      <trkpt lat="45.20311" lon="5.72524">
        <ele>568.20001220703</ele>
        <time>2021-10-16T07:17:37.000Z</time>
      </trkpt>
      <trkpt lat="45.20309" lon="5.72523">
        <ele>567.79998779297</ele>
        <time>2021-10-16T07:17:38.000Z</time>
      </trkpt>
      <trkpt lat="45.20307" lon="5.72523">
        <ele>566.20001220703</ele>
        <time>2021-10-16T07:17:39.000Z</time>
      </trkpt>
      <trkpt lat="45.20301" lon="5.72522">
        <ele>565.20001220703</ele>
        <time>2021-10-16T07:17:42.000Z</time>
      </trkpt>
      <trkpt lat="45.20296" lon="5.72521">
        <ele>564.59997558594</ele>
        <time>2021-10-16T07:17:44.000Z</time>
      </trkpt>
      <trkpt lat="45.20294" lon="5.7252">
        <ele>564.59997558594</ele>
        <time>2021-10-16T07:17:45.000Z</time>
      </trkpt>
      <trkpt lat="45.20292" lon="5.72519">
        <ele>564.20001220703</ele>
        <time>2021-10-16T07:17:46.000Z</time>
      </trkpt>
      <trkpt lat="45.2029" lon="5.72519">
        <ele>564</ele>
        <time>2021-10-16T07:17:47.000Z</time>
      </trkpt>
      <trkpt lat="45.20285" lon="5.7252">
        <ele>562.79998779297</ele>
        <time>2021-10-16T07:17:49.000Z</time>
      </trkpt>
      <trkpt lat="45.20282" lon="5.7252">
        <ele>562.20001220703</ele>
        <time>2021-10-16T07:17:50.000Z</time>
      </trkpt>
      <trkpt lat="45.20278" lon="5.72519">
        <ele>561.79998779297</ele>
        <time>2021-10-16T07:17:52.000Z</time>
      </trkpt>
      <trkpt lat="45.20276" lon="5.7252">
        <ele>561</ele>
        <time>2021-10-16T07:17:53.000Z</time>
      </trkpt>
      <trkpt lat="45.20272" lon="5.7252">
        <ele>560.20001220703</ele>
        <time>2021-10-16T07:17:55.000Z</time>
      </trkpt>
      <trkpt lat="45.2027" lon="5.72521">
        <ele>560</ele>
        <time>2021-10-16T07:17:56.000Z</time>
      </trkpt>
      <trkpt lat="45.20265" lon="5.72524">
        <ele>558</ele>
        <time>2021-10-16T07:17:58.000Z</time>
      </trkpt>
      <trkpt lat="45.2026" lon="5.72522">
        <ele>557.79998779297</ele>
        <time>2021-10-16T07:18:01.000Z</time>
      </trkpt>
      <trkpt lat="45.20259" lon="5.72522">
        <ele>557</ele>
        <time>2021-10-16T07:18:02.000Z</time>
      </trkpt>
      <trkpt lat="45.20256" lon="5.72523">
        <ele>555.79998779297</ele>
        <time>2021-10-16T07:18:05.000Z</time>
      </trkpt>
      <trkpt lat="45.20253" lon="5.72525">
        <ele>555</ele>
        <time>2021-10-16T07:18:07.000Z</time>
      </trkpt>
      <trkpt lat="45.20251" lon="5.72526">
        <ele>554</ele>
        <time>2021-10-16T07:18:08.000Z</time>
      </trkpt>
      <trkpt lat="45.20249" lon="5.72527">
        <ele>552.79998779297</ele>
        <time>2021-10-16T07:18:10.000Z</time>
      </trkpt>
      <trkpt lat="45.20245" lon="5.72527">
        <ele>552</ele>
        <time>2021-10-16T07:18:12.000Z</time>
      </trkpt>
      <trkpt lat="45.20242" lon="5.72526">
        <ele>550.20001220703</ele>
        <time>2021-10-16T07:18:14.000Z</time>
      </trkpt>
      <trkpt lat="45.20235" lon="5.72528">
        <ele>549</ele>
        <time>2021-10-16T07:18:17.000Z</time>
      </trkpt>
      <trkpt lat="45.20233" lon="5.72528">
        <ele>548.79998779297</ele>
        <time>2021-10-16T07:18:18.000Z</time>
      </trkpt>
      <trkpt lat="45.20229" lon="5.72527">
        <ele>547.59997558594</ele>
        <time>2021-10-16T07:18:20.000Z</time>
      </trkpt>
      <trkpt lat="45.20224" lon="5.72527">
        <ele>546.59997558594</ele>
        <time>2021-10-16T07:18:23.000Z</time>
      </trkpt>
      <trkpt lat="45.20222" lon="5.72527">
        <ele>545.79998779297</ele>
        <time>2021-10-16T07:18:24.000Z</time>
      </trkpt>
      <trkpt lat="45.20221" lon="5.72527">
        <ele>545.40002441406</ele>
        <time>2021-10-16T07:18:25.000Z</time>
      </trkpt>
      <trkpt lat="45.20215" lon="5.72529">
        <ele>543.59997558594</ele>
        <time>2021-10-16T07:18:28.000Z</time>
      </trkpt>
      <trkpt lat="45.20211" lon="5.72528">
        <ele>542.59997558594</ele>
        <time>2021-10-16T07:18:30.000Z</time>
      </trkpt>
      <trkpt lat="45.2021" lon="5.72527">
        <ele>542.40002441406</ele>
        <time>2021-10-16T07:18:31.000Z</time>
      </trkpt>
      <trkpt lat="45.20208" lon="5.72525">
        <ele>541.20001220703</ele>
        <time>2021-10-16T07:18:32.000Z</time>
      </trkpt>
      <trkpt lat="45.20201" lon="5.72516">
        <ele>540</ele>
        <time>2021-10-16T07:18:37.000Z</time>
      </trkpt>
      <trkpt lat="45.20199" lon="5.72514">
        <ele>539.40002441406</ele>
        <time>2021-10-16T07:18:38.000Z</time>
      </trkpt>
      <trkpt lat="45.20196" lon="5.72511">
        <ele>538.79998779297</ele>
        <time>2021-10-16T07:18:40.000Z</time>
      </trkpt>
      <trkpt lat="45.20193" lon="5.72504">
        <ele>537.79998779297</ele>
        <time>2021-10-16T07:18:43.000Z</time>
      </trkpt>
      <trkpt lat="45.20192" lon="5.72502">
        <ele>537.59997558594</ele>
        <time>2021-10-16T07:18:44.000Z</time>
      </trkpt>
      <trkpt lat="45.2019" lon="5.725">
        <ele>537</ele>
        <time>2021-10-16T07:18:45.000Z</time>
      </trkpt>
      <trkpt lat="45.20187" lon="5.72497">
        <ele>536.40002441406</ele>
        <time>2021-10-16T07:18:47.000Z</time>
      </trkpt>
      <trkpt lat="45.20181" lon="5.72495">
        <ele>535.20001220703</ele>
        <time>2021-10-16T07:18:51.000Z</time>
      </trkpt>
      <trkpt lat="45.20179" lon="5.72492">
        <ele>534.79998779297</ele>
        <time>2021-10-16T07:18:53.000Z</time>
      </trkpt>
      <trkpt lat="45.20177" lon="5.72489">
        <ele>534.20001220703</ele>
        <time>2021-10-16T07:18:55.000Z</time>
      </trkpt>
      <trkpt lat="45.20176" lon="5.72488">
        <ele>533.59997558594</ele>
        <time>2021-10-16T07:18:57.000Z</time>
      </trkpt>
      <trkpt lat="45.20177" lon="5.72488">
        <ele>533.20001220703</ele>
        <time>2021-10-16T07:18:58.000Z</time>
      </trkpt>
      <trkpt lat="45.20177" lon="5.7249">
        <ele>533.40002441406</ele>
        <time>2021-10-16T07:19:00.000Z</time>
      </trkpt>
      <trkpt lat="45.20179" lon="5.72492">
        <ele>533.59997558594</ele>
        <time>2021-10-16T07:19:03.000Z</time>
      </trkpt>
      <trkpt lat="45.20179" lon="5.72492">
        <ele>534</ele>
        <time>2021-10-16T07:19:08.000Z</time>
      </trkpt>
      <trkpt lat="45.20179" lon="5.72491">
        <ele>534</ele>
        <time>2021-10-16T07:19:12.000Z</time>
      </trkpt>
      <trkpt lat="45.20179" lon="5.72491">
        <ele>534</ele>
        <time>2021-10-16T07:19:15.000Z</time>
      </trkpt>
      <trkpt lat="45.20179" lon="5.72491">
        <ele>534</ele>
        <time>2021-10-16T07:19:23.000Z</time>
      </trkpt>
      <trkpt lat="45.20176" lon="5.72488">
        <ele>532.79998779297</ele>
        <time>2021-10-16T07:19:36.000Z</time>
      </trkpt>
      <trkpt lat="45.20174" lon="5.72488">
        <ele>532.79998779297</ele>
        <time>2021-10-16T07:19:37.000Z</time>
      </trkpt>
      <trkpt lat="45.20173" lon="5.72486">
        <ele>532.20001220703</ele>
        <time>2021-10-16T07:19:38.000Z</time>
      </trkpt>
      <trkpt lat="45.20172" lon="5.72482">
        <ele>531.40002441406</ele>
        <time>2021-10-16T07:19:40.000Z</time>
      </trkpt>
      <trkpt lat="45.20171" lon="5.72479">
        <ele>530.79998779297</ele>
        <time>2021-10-16T07:19:42.000Z</time>
      </trkpt>
      <trkpt lat="45.2017" lon="5.72478">
        <ele>530.40002441406</ele>
        <time>2021-10-16T07:19:43.000Z</time>
      </trkpt>
      <trkpt lat="45.20168" lon="5.72478">
        <ele>530.20001220703</ele>
        <time>2021-10-16T07:19:45.000Z</time>
      </trkpt>
      <trkpt lat="45.20167" lon="5.72477">
        <ele>529.79998779297</ele>
        <time>2021-10-16T07:19:46.000Z</time>
      </trkpt>
      <trkpt lat="45.20165" lon="5.72475">
        <ele>528.40002441406</ele>
        <time>2021-10-16T07:19:48.000Z</time>
      </trkpt>
      <trkpt lat="45.20163" lon="5.72474">
        <ele>528.20001220703</ele>
        <time>2021-10-16T07:19:50.000Z</time>
      </trkpt>
      <trkpt lat="45.20161" lon="5.72473">
        <ele>526.79998779297</ele>
        <time>2021-10-16T07:19:52.000Z</time>
      </trkpt>
      <trkpt lat="45.20161" lon="5.72471">
        <ele>526</ele>
        <time>2021-10-16T07:19:54.000Z</time>
      </trkpt>
      <trkpt lat="45.2016" lon="5.7247">
        <ele>525.20001220703</ele>
        <time>2021-10-16T07:19:55.000Z</time>
      </trkpt>
      <trkpt lat="45.20156" lon="5.72467">
        <ele>524.20001220703</ele>
        <time>2021-10-16T07:19:58.000Z</time>
      </trkpt>
      <trkpt lat="45.20153" lon="5.72464">
        <ele>523.20001220703</ele>
        <time>2021-10-16T07:20:01.000Z</time>
      </trkpt>
      <trkpt lat="45.20152" lon="5.72463">
        <ele>522.20001220703</ele>
        <time>2021-10-16T07:20:02.000Z</time>
      </trkpt>
      <trkpt lat="45.20149" lon="5.72462">
        <ele>520.79998779297</ele>
        <time>2021-10-16T07:20:06.000Z</time>
      </trkpt>
      <trkpt lat="45.20147" lon="5.72461">
        <ele>520.40002441406</ele>
        <time>2021-10-16T07:20:07.000Z</time>
      </trkpt>
      <trkpt lat="45.20146" lon="5.72461">
        <ele>519.40002441406</ele>
        <time>2021-10-16T07:20:09.000Z</time>
      </trkpt>
      <trkpt lat="45.20144" lon="5.72463">
        <ele>518.40002441406</ele>
        <time>2021-10-16T07:20:12.000Z</time>
      </trkpt>
      <trkpt lat="45.20143" lon="5.72466">
        <ele>517.59997558594</ele>
        <time>2021-10-16T07:20:14.000Z</time>
      </trkpt>
      <trkpt lat="45.20141" lon="5.72466">
        <ele>517.20001220703</ele>
        <time>2021-10-16T07:20:15.000Z</time>
      </trkpt>
      <trkpt lat="45.2014" lon="5.72467">
        <ele>516.40002441406</ele>
        <time>2021-10-16T07:20:16.000Z</time>
      </trkpt>
      <trkpt lat="45.20139" lon="5.72468">
        <ele>516.40002441406</ele>
        <time>2021-10-16T07:20:17.000Z</time>
      </trkpt>
      <trkpt lat="45.20138" lon="5.7247">
        <ele>515.59997558594</ele>
        <time>2021-10-16T07:20:18.000Z</time>
      </trkpt>
      <trkpt lat="45.20137" lon="5.72471">
        <ele>515.20001220703</ele>
        <time>2021-10-16T07:20:19.000Z</time>
      </trkpt>
      <trkpt lat="45.20136" lon="5.72472">
        <ele>514.59997558594</ele>
        <time>2021-10-16T07:20:20.000Z</time>
      </trkpt>
      <trkpt lat="45.20135" lon="5.72474">
        <ele>514.40002441406</ele>
        <time>2021-10-16T07:20:21.000Z</time>
      </trkpt>
      <trkpt lat="45.20133" lon="5.72483">
        <ele>513.20001220703</ele>
        <time>2021-10-16T07:20:24.000Z</time>
      </trkpt>
      <trkpt lat="45.20131" lon="5.7249">
        <ele>511.79998779297</ele>
        <time>2021-10-16T07:20:27.000Z</time>
      </trkpt>
      <trkpt lat="45.20129" lon="5.72494">
        <ele>510.60000610352</ele>
        <time>2021-10-16T07:20:29.000Z</time>
      </trkpt>
      <trkpt lat="45.20127" lon="5.72497">
        <ele>510.20001220703</ele>
        <time>2021-10-16T07:20:30.000Z</time>
      </trkpt>
      <trkpt lat="45.20126" lon="5.72499">
        <ele>509.60000610352</ele>
        <time>2021-10-16T07:20:31.000Z</time>
      </trkpt>
      <trkpt lat="45.20124" lon="5.72502">
        <ele>508.20001220703</ele>
        <time>2021-10-16T07:20:32.000Z</time>
      </trkpt>
      <trkpt lat="45.2012" lon="5.7251">
        <ele>506.79998779297</ele>
        <time>2021-10-16T07:20:35.000Z</time>
      </trkpt>
      <trkpt lat="45.20118" lon="5.72512">
        <ele>505.60000610352</ele>
        <time>2021-10-16T07:20:36.000Z</time>
      </trkpt>
      <trkpt lat="45.20114" lon="5.72521">
        <ele>504.60000610352</ele>
        <time>2021-10-16T07:20:40.000Z</time>
      </trkpt>
      <trkpt lat="45.20114" lon="5.72523">
        <ele>504.20001220703</ele>
        <time>2021-10-16T07:20:41.000Z</time>
      </trkpt>
      <trkpt lat="45.20114" lon="5.72525">
        <ele>503.20001220703</ele>
        <time>2021-10-16T07:20:42.000Z</time>
      </trkpt>
      <trkpt lat="45.20115" lon="5.72531">
        <ele>502</ele>
        <time>2021-10-16T07:20:45.000Z</time>
      </trkpt>
      <trkpt lat="45.20116" lon="5.72534">
        <ele>501.79998779297</ele>
        <time>2021-10-16T07:20:46.000Z</time>
      </trkpt>
      <trkpt lat="45.20118" lon="5.72538">
        <ele>500.79998779297</ele>
        <time>2021-10-16T07:20:48.000Z</time>
      </trkpt>
      <trkpt lat="45.20119" lon="5.72543">
        <ele>499.60000610352</ele>
        <time>2021-10-16T07:20:50.000Z</time>
      </trkpt>
      <trkpt lat="45.20118" lon="5.72544">
        <ele>499.39999389648</ele>
        <time>2021-10-16T07:20:51.000Z</time>
      </trkpt>
      <trkpt lat="45.20116" lon="5.72544">
        <ele>498.20001220703</ele>
        <time>2021-10-16T07:20:52.000Z</time>
      </trkpt>
      <trkpt lat="45.20109" lon="5.72545">
        <ele>497.60000610352</ele>
        <time>2021-10-16T07:20:55.000Z</time>
      </trkpt>
      <trkpt lat="45.20107" lon="5.72545">
        <ele>496.79998779297</ele>
        <time>2021-10-16T07:20:56.000Z</time>
      </trkpt>
      <trkpt lat="45.20095" lon="5.72546">
        <ele>495.20001220703</ele>
        <time>2021-10-16T07:21:01.000Z</time>
      </trkpt>
      <trkpt lat="45.20092" lon="5.72547">
        <ele>494</ele>
        <time>2021-10-16T07:21:02.000Z</time>
      </trkpt>
      <trkpt lat="45.20087" lon="5.72546">
        <ele>492.39999389648</ele>
        <time>2021-10-16T07:21:04.000Z</time>
      </trkpt>
      <trkpt lat="45.20077" lon="5.72542">
        <ele>491.39999389648</ele>
        <time>2021-10-16T07:21:07.000Z</time>
      </trkpt>
      <trkpt lat="45.20075" lon="5.72539">
        <ele>490.79998779297</ele>
        <time>2021-10-16T07:21:08.000Z</time>
      </trkpt>
      <trkpt lat="45.2007" lon="5.72528">
        <ele>490.79998779297</ele>
        <time>2021-10-16T07:21:11.000Z</time>
      </trkpt>
      <trkpt lat="45.20072" lon="5.72507">
        <ele>490.60000610352</ele>
        <time>2021-10-16T07:21:16.000Z</time>
      </trkpt>
      <trkpt lat="45.20076" lon="5.72489">
        <ele>490</ele>
        <time>2021-10-16T07:21:21.000Z</time>
      </trkpt>
      <trkpt lat="45.20077" lon="5.72486">
        <ele>489.79998779297</ele>
        <time>2021-10-16T07:21:22.000Z</time>
      </trkpt>
      <trkpt lat="45.20077" lon="5.72465">
        <ele>488.60000610352</ele>
        <time>2021-10-16T07:21:27.000Z</time>
      </trkpt>
      <trkpt lat="45.20076" lon="5.72453">
        <ele>488.20001220703</ele>
        <time>2021-10-16T07:21:30.000Z</time>
      </trkpt>
      <trkpt lat="45.20074" lon="5.72449">
        <ele>487.20001220703</ele>
        <time>2021-10-16T07:21:31.000Z</time>
      </trkpt>
      <trkpt lat="45.20066" lon="5.72437">
        <ele>486.20001220703</ele>
        <time>2021-10-16T07:21:35.000Z</time>
      </trkpt>
      <trkpt lat="45.20058" lon="5.72432">
        <ele>484.60000610352</ele>
        <time>2021-10-16T07:21:38.000Z</time>
      </trkpt>
      <trkpt lat="45.20052" lon="5.72431">
        <ele>484</ele>
        <time>2021-10-16T07:21:40.000Z</time>
      </trkpt>
      <trkpt lat="45.20047" lon="5.7243">
        <ele>483.39999389648</ele>
        <time>2021-10-16T07:21:42.000Z</time>
      </trkpt>
      <trkpt lat="45.20038" lon="5.72429">
        <ele>482</ele>
        <time>2021-10-16T07:21:45.000Z</time>
      </trkpt>
      <trkpt lat="45.20029" lon="5.72427">
        <ele>481.79998779297</ele>
        <time>2021-10-16T07:21:48.000Z</time>
      </trkpt>
      <trkpt lat="45.2002" lon="5.72424">
        <ele>480.39999389648</ele>
        <time>2021-10-16T07:21:51.000Z</time>
      </trkpt>
      <trkpt lat="45.20005" lon="5.72423">
        <ele>479.79998779297</ele>
        <time>2021-10-16T07:21:56.000Z</time>
      </trkpt>
      <trkpt lat="45.20003" lon="5.72423">
        <ele>479</ele>
        <time>2021-10-16T07:21:57.000Z</time>
      </trkpt>
      <trkpt lat="45.19997" lon="5.72421">
        <ele>478.60000610352</ele>
        <time>2021-10-16T07:21:59.000Z</time>
      </trkpt>
      <trkpt lat="45.19991" lon="5.72421">
        <ele>477.79998779297</ele>
        <time>2021-10-16T07:22:01.000Z</time>
      </trkpt>
      <trkpt lat="45.19984" lon="5.72421">
        <ele>476.79998779297</ele>
        <time>2021-10-16T07:22:03.000Z</time>
      </trkpt>
      <trkpt lat="45.19975" lon="5.7242">
        <ele>475.60000610352</ele>
        <time>2021-10-16T07:22:06.000Z</time>
      </trkpt>
      <trkpt lat="45.19967" lon="5.72419">
        <ele>474.39999389648</ele>
        <time>2021-10-16T07:22:09.000Z</time>
      </trkpt>
      <trkpt lat="45.19957" lon="5.72418">
        <ele>473.79998779297</ele>
        <time>2021-10-16T07:22:12.000Z</time>
      </trkpt>
      <trkpt lat="45.19954" lon="5.72418">
        <ele>473.20001220703</ele>
        <time>2021-10-16T07:22:13.000Z</time>
      </trkpt>
      <trkpt lat="45.1995" lon="5.72419">
        <ele>473.20001220703</ele>
        <time>2021-10-16T07:22:14.000Z</time>
      </trkpt>
      <trkpt lat="45.19932" lon="5.72421">
        <ele>472.60000610352</ele>
        <time>2021-10-16T07:22:20.000Z</time>
      </trkpt>
      <trkpt lat="45.19929" lon="5.72422">
        <ele>472.60000610352</ele>
        <time>2021-10-16T07:22:21.000Z</time>
      </trkpt>
      <trkpt lat="45.19909" lon="5.72427">
        <ele>474</ele>
        <time>2021-10-16T07:22:28.000Z</time>
      </trkpt>
      <trkpt lat="45.19906" lon="5.72427">
        <ele>474.20001220703</ele>
        <time>2021-10-16T07:22:29.000Z</time>
      </trkpt>
      <trkpt lat="45.19897" lon="5.72433">
        <ele>474.60000610352</ele>
        <time>2021-10-16T07:22:32.000Z</time>
      </trkpt>
      <trkpt lat="45.19893" lon="5.72433">
        <ele>475</ele>
        <time>2021-10-16T07:22:34.000Z</time>
      </trkpt>
      <trkpt lat="45.1989" lon="5.72432">
        <ele>475.79998779297</ele>
        <time>2021-10-16T07:22:35.000Z</time>
      </trkpt>
      <trkpt lat="45.19886" lon="5.72435">
        <ele>476</ele>
        <time>2021-10-16T07:22:38.000Z</time>
      </trkpt>
      <trkpt lat="45.19884" lon="5.72436">
        <ele>475.79998779297</ele>
        <time>2021-10-16T07:22:39.000Z</time>
      </trkpt>
      <trkpt lat="45.19879" lon="5.7245">
        <ele>477.39999389648</ele>
        <time>2021-10-16T07:22:44.000Z</time>
      </trkpt>
      <trkpt lat="45.19877" lon="5.72453">
        <ele>477.39999389648</ele>
        <time>2021-10-16T07:22:45.000Z</time>
      </trkpt>
      <trkpt lat="45.19875" lon="5.72455">
        <ele>477.39999389648</ele>
        <time>2021-10-16T07:22:46.000Z</time>
      </trkpt>
      <trkpt lat="45.19862" lon="5.72466">
        <ele>476.39999389648</ele>
        <time>2021-10-16T07:22:52.000Z</time>
      </trkpt>
      <trkpt lat="45.19859" lon="5.72467">
        <ele>475.79998779297</ele>
        <time>2021-10-16T07:22:53.000Z</time>
      </trkpt>
      <trkpt lat="45.19856" lon="5.72474">
        <ele>475.79998779297</ele>
        <time>2021-10-16T07:22:55.000Z</time>
      </trkpt>
      <trkpt lat="45.19856" lon="5.72485">
        <ele>475.60000610352</ele>
        <time>2021-10-16T07:22:57.000Z</time>
      </trkpt>
      <trkpt lat="45.19859" lon="5.7251">
        <ele>474.60000610352</ele>
        <time>2021-10-16T07:23:03.000Z</time>
      </trkpt>
      <trkpt lat="45.1986" lon="5.72515">
        <ele>474.60000610352</ele>
        <time>2021-10-16T07:23:04.000Z</time>
      </trkpt>
      <trkpt lat="45.19861" lon="5.72527">
        <ele>473.39999389648</ele>
        <time>2021-10-16T07:23:07.000Z</time>
      </trkpt>
      <trkpt lat="45.19861" lon="5.72532">
        <ele>472.79998779297</ele>
        <time>2021-10-16T07:23:08.000Z</time>
      </trkpt>
      <trkpt lat="45.1986" lon="5.72537">
        <ele>472.79998779297</ele>
        <time>2021-10-16T07:23:10.000Z</time>
      </trkpt>
      <trkpt lat="45.19859" lon="5.72538">
        <ele>472.20001220703</ele>
        <time>2021-10-16T07:23:11.000Z</time>
      </trkpt>
      <trkpt lat="45.19857" lon="5.72534">
        <ele>471</ele>
        <time>2021-10-16T07:23:13.000Z</time>
      </trkpt>
      <trkpt lat="45.19856" lon="5.72523">
        <ele>469.79998779297</ele>
        <time>2021-10-16T07:23:17.000Z</time>
      </trkpt>
      <trkpt lat="45.19856" lon="5.72515">
        <ele>469.60000610352</ele>
        <time>2021-10-16T07:23:19.000Z</time>
      </trkpt>
      <trkpt lat="45.19853" lon="5.72497">
        <ele>468.60000610352</ele>
        <time>2021-10-16T07:23:24.000Z</time>
      </trkpt>
      <trkpt lat="45.19852" lon="5.7249">
        <ele>467.60000610352</ele>
        <time>2021-10-16T07:23:26.000Z</time>
      </trkpt>
      <trkpt lat="45.19852" lon="5.72487">
        <ele>467.39999389648</ele>
        <time>2021-10-16T07:23:27.000Z</time>
      </trkpt>
      <trkpt lat="45.19851" lon="5.72472">
        <ele>466.20001220703</ele>
        <time>2021-10-16T07:23:31.000Z</time>
      </trkpt>
      <trkpt lat="45.1985" lon="5.72468">
        <ele>466.20001220703</ele>
        <time>2021-10-16T07:23:32.000Z</time>
      </trkpt>
      <trkpt lat="45.1985" lon="5.72461">
        <ele>465.20001220703</ele>
        <time>2021-10-16T07:23:34.000Z</time>
      </trkpt>
      <trkpt lat="45.1985" lon="5.72457">
        <ele>465.20001220703</ele>
        <time>2021-10-16T07:23:35.000Z</time>
      </trkpt>
      <trkpt lat="45.19846" lon="5.72442">
        <ele>464</ele>
        <time>2021-10-16T07:23:39.000Z</time>
      </trkpt>
      <trkpt lat="45.19841" lon="5.7244">
        <ele>463.39999389648</ele>
        <time>2021-10-16T07:23:42.000Z</time>
      </trkpt>
      <trkpt lat="45.19839" lon="5.72442">
        <ele>463.60000610352</ele>
        <time>2021-10-16T07:23:43.000Z</time>
      </trkpt>
      <trkpt lat="45.19836" lon="5.72445">
        <ele>463</ele>
        <time>2021-10-16T07:23:44.000Z</time>
      </trkpt>
      <trkpt lat="45.19834" lon="5.72449">
        <ele>462.39999389648</ele>
        <time>2021-10-16T07:23:45.000Z</time>
      </trkpt>
      <trkpt lat="45.19835" lon="5.72458">
        <ele>461.60000610352</ele>
        <time>2021-10-16T07:23:47.000Z</time>
      </trkpt>
      <trkpt lat="45.19835" lon="5.72466">
        <ele>461</ele>
        <time>2021-10-16T07:23:49.000Z</time>
      </trkpt>
      <trkpt lat="45.19832" lon="5.72483">
        <ele>460</ele>
        <time>2021-10-16T07:23:53.000Z</time>
      </trkpt>
      <trkpt lat="45.1983" lon="5.7249">
        <ele>459</ele>
        <time>2021-10-16T07:23:55.000Z</time>
      </trkpt>
      <trkpt lat="45.1983" lon="5.72493">
        <ele>458</ele>
        <time>2021-10-16T07:23:56.000Z</time>
      </trkpt>
      <trkpt lat="45.19828" lon="5.72502">
        <ele>457.60000610352</ele>
        <time>2021-10-16T07:23:58.000Z</time>
      </trkpt>
      <trkpt lat="45.19824" lon="5.72519">
        <ele>456.39999389648</ele>
        <time>2021-10-16T07:24:02.000Z</time>
      </trkpt>
      <trkpt lat="45.19823" lon="5.72523">
        <ele>455.39999389648</ele>
        <time>2021-10-16T07:24:03.000Z</time>
      </trkpt>
      <trkpt lat="45.19823" lon="5.72527">
        <ele>455.39999389648</ele>
        <time>2021-10-16T07:24:04.000Z</time>
      </trkpt>
      <trkpt lat="45.19823" lon="5.72545">
        <ele>454.39999389648</ele>
        <time>2021-10-16T07:24:08.000Z</time>
      </trkpt>
      <trkpt lat="45.19823" lon="5.72549">
        <ele>454.20001220703</ele>
        <time>2021-10-16T07:24:09.000Z</time>
      </trkpt>
      <trkpt lat="45.19823" lon="5.72557">
        <ele>453.20001220703</ele>
        <time>2021-10-16T07:24:11.000Z</time>
      </trkpt>
      <trkpt lat="45.19823" lon="5.72574">
        <ele>452</ele>
        <time>2021-10-16T07:24:15.000Z</time>
      </trkpt>
      <trkpt lat="45.19823" lon="5.72592">
        <ele>450.79998779297</ele>
        <time>2021-10-16T07:24:20.000Z</time>
      </trkpt>
      <trkpt lat="45.19824" lon="5.72596">
        <ele>450.20001220703</ele>
        <time>2021-10-16T07:24:21.000Z</time>
      </trkpt>
      <trkpt lat="45.19826" lon="5.72611">
        <ele>449.39999389648</ele>
        <time>2021-10-16T07:24:25.000Z</time>
      </trkpt>
      <trkpt lat="45.19829" lon="5.72626">
        <ele>448.60000610352</ele>
        <time>2021-10-16T07:24:29.000Z</time>
      </trkpt>
      <trkpt lat="45.1983" lon="5.7263">
        <ele>448.39999389648</ele>
        <time>2021-10-16T07:24:30.000Z</time>
      </trkpt>
      <trkpt lat="45.19836" lon="5.72644">
        <ele>447.39999389648</ele>
        <time>2021-10-16T07:24:34.000Z</time>
      </trkpt>
      <trkpt lat="45.19839" lon="5.72652">
        <ele>446.20001220703</ele>
        <time>2021-10-16T07:24:36.000Z</time>
      </trkpt>
      <trkpt lat="45.1984" lon="5.72655">
        <ele>446</ele>
        <time>2021-10-16T07:24:37.000Z</time>
      </trkpt>
      <trkpt lat="45.19846" lon="5.72672">
        <ele>444.79998779297</ele>
        <time>2021-10-16T07:24:41.000Z</time>
      </trkpt>
      <trkpt lat="45.19849" lon="5.72679">
        <ele>444.20001220703</ele>
        <time>2021-10-16T07:24:43.000Z</time>
      </trkpt>
      <trkpt lat="45.19851" lon="5.72681">
        <ele>443.60000610352</ele>
        <time>2021-10-16T07:24:44.000Z</time>
      </trkpt>
      <trkpt lat="45.19856" lon="5.7269">
        <ele>443.20001220703</ele>
        <time>2021-10-16T07:24:47.000Z</time>
      </trkpt>
      <trkpt lat="45.19855" lon="5.72692">
        <ele>442.60000610352</ele>
        <time>2021-10-16T07:24:48.000Z</time>
      </trkpt>
      <trkpt lat="45.19853" lon="5.72693">
        <ele>441.60000610352</ele>
        <time>2021-10-16T07:24:49.000Z</time>
      </trkpt>
      <trkpt lat="45.19851" lon="5.72691">
        <ele>441.39999389648</ele>
        <time>2021-10-16T07:24:50.000Z</time>
      </trkpt>
      <trkpt lat="45.19845" lon="5.72684">
        <ele>441</ele>
        <time>2021-10-16T07:24:53.000Z</time>
      </trkpt>
      <trkpt lat="45.1984" lon="5.72678">
        <ele>439.79998779297</ele>
        <time>2021-10-16T07:24:55.000Z</time>
      </trkpt>
      <trkpt lat="45.1983" lon="5.72667">
        <ele>439.20001220703</ele>
        <time>2021-10-16T07:25:00.000Z</time>
      </trkpt>
      <trkpt lat="45.19823" lon="5.72659">
        <ele>438.39999389648</ele>
        <time>2021-10-16T07:25:03.000Z</time>
      </trkpt>
      <trkpt lat="45.19816" lon="5.72651">
        <ele>437.39999389648</ele>
        <time>2021-10-16T07:25:06.000Z</time>
      </trkpt>
      <trkpt lat="45.19805" lon="5.72642">
        <ele>436.39999389648</ele>
        <time>2021-10-16T07:25:11.000Z</time>
      </trkpt>
      <trkpt lat="45.19803" lon="5.72639">
        <ele>436.20001220703</ele>
        <time>2021-10-16T07:25:12.000Z</time>
      </trkpt>
      <trkpt lat="45.19796" lon="5.72632">
        <ele>435.20001220703</ele>
        <time>2021-10-16T07:25:15.000Z</time>
      </trkpt>
      <trkpt lat="45.19793" lon="5.72629">
        <ele>434.20001220703</ele>
        <time>2021-10-16T07:25:16.000Z</time>
      </trkpt>
      <trkpt lat="45.19791" lon="5.72625">
        <ele>434.20001220703</ele>
        <time>2021-10-16T07:25:17.000Z</time>
      </trkpt>
      <trkpt lat="45.19787" lon="5.7261">
        <ele>433</ele>
        <time>2021-10-16T07:25:21.000Z</time>
      </trkpt>
      <trkpt lat="45.19787" lon="5.72605">
        <ele>433</ele>
        <time>2021-10-16T07:25:22.000Z</time>
      </trkpt>
      <trkpt lat="45.19787" lon="5.72583">
        <ele>431.39999389648</ele>
        <time>2021-10-16T07:25:27.000Z</time>
      </trkpt>
      <trkpt lat="45.19787" lon="5.72579">
        <ele>431.39999389648</ele>
        <time>2021-10-16T07:25:28.000Z</time>
      </trkpt>
      <trkpt lat="45.19788" lon="5.72567">
        <ele>430.39999389648</ele>
        <time>2021-10-16T07:25:31.000Z</time>
      </trkpt>
      <trkpt lat="45.19789" lon="5.72558">
        <ele>429.60000610352</ele>
        <time>2021-10-16T07:25:33.000Z</time>
      </trkpt>
      <trkpt lat="45.1979" lon="5.72541">
        <ele>428.79998779297</ele>
        <time>2021-10-16T07:25:36.000Z</time>
      </trkpt>
      <trkpt lat="45.1979" lon="5.72533">
        <ele>428.39999389648</ele>
        <time>2021-10-16T07:25:38.000Z</time>
      </trkpt>
      <trkpt lat="45.19788" lon="5.72529">
        <ele>428.20001220703</ele>
        <time>2021-10-16T07:25:39.000Z</time>
      </trkpt>
      <trkpt lat="45.19786" lon="5.72528">
        <ele>427.79998779297</ele>
        <time>2021-10-16T07:25:40.000Z</time>
      </trkpt>
      <trkpt lat="45.19784" lon="5.72529">
        <ele>427.79998779297</ele>
        <time>2021-10-16T07:25:41.000Z</time>
      </trkpt>
      <trkpt lat="45.19783" lon="5.72531">
        <ele>427.60000610352</ele>
        <time>2021-10-16T07:25:42.000Z</time>
      </trkpt>
      <trkpt lat="45.19778" lon="5.72542">
        <ele>426.60000610352</ele>
        <time>2021-10-16T07:25:45.000Z</time>
      </trkpt>
      <trkpt lat="45.19778" lon="5.72547">
        <ele>426.60000610352</ele>
        <time>2021-10-16T07:25:46.000Z</time>
      </trkpt>
      <trkpt lat="45.19777" lon="5.72557">
        <ele>424.60000610352</ele>
        <time>2021-10-16T07:25:49.000Z</time>
      </trkpt>
      <trkpt lat="45.19774" lon="5.72568">
        <ele>424</ele>
        <time>2021-10-16T07:25:52.000Z</time>
      </trkpt>
      <trkpt lat="45.19771" lon="5.72579">
        <ele>423.60000610352</ele>
        <time>2021-10-16T07:25:55.000Z</time>
      </trkpt>
      <trkpt lat="45.1977" lon="5.72582">
        <ele>423.39999389648</ele>
        <time>2021-10-16T07:25:56.000Z</time>
      </trkpt>
      <trkpt lat="45.19768" lon="5.72582">
        <ele>423.20001220703</ele>
        <time>2021-10-16T07:25:57.000Z</time>
      </trkpt>
      <trkpt lat="45.19765" lon="5.72577">
        <ele>422.39999389648</ele>
        <time>2021-10-16T07:25:59.000Z</time>
      </trkpt>
      <trkpt lat="45.19764" lon="5.72575">
        <ele>421.60000610352</ele>
        <time>2021-10-16T07:26:00.000Z</time>
      </trkpt>
      <trkpt lat="45.19765" lon="5.72572">
        <ele>421.20001220703</ele>
        <time>2021-10-16T07:26:01.000Z</time>
      </trkpt>
      <trkpt lat="45.19765" lon="5.72558">
        <ele>420.39999389648</ele>
        <time>2021-10-16T07:26:04.000Z</time>
      </trkpt>
      <trkpt lat="45.19766" lon="5.72555">
        <ele>419.60000610352</ele>
        <time>2021-10-16T07:26:05.000Z</time>
      </trkpt>
      <trkpt lat="45.19768" lon="5.72539">
        <ele>419</ele>
        <time>2021-10-16T07:26:09.000Z</time>
      </trkpt>
      <trkpt lat="45.19768" lon="5.72534">
        <ele>417.60000610352</ele>
        <time>2021-10-16T07:26:10.000Z</time>
      </trkpt>
      <trkpt lat="45.19775" lon="5.72513">
        <ele>416.60000610352</ele>
        <time>2021-10-16T07:26:16.000Z</time>
      </trkpt>
      <trkpt lat="45.19776" lon="5.72507">
        <ele>416.20001220703</ele>
        <time>2021-10-16T07:26:19.000Z</time>
      </trkpt>
      <trkpt lat="45.19775" lon="5.72507">
        <ele>415.79998779297</ele>
        <time>2021-10-16T07:26:20.000Z</time>
      </trkpt>
      <trkpt lat="45.19771" lon="5.72509">
        <ele>415.20001220703</ele>
        <time>2021-10-16T07:26:22.000Z</time>
      </trkpt>
      <trkpt lat="45.19766" lon="5.72514">
        <ele>414.39999389648</ele>
        <time>2021-10-16T07:26:24.000Z</time>
      </trkpt>
      <trkpt lat="45.19764" lon="5.72517">
        <ele>414.20001220703</ele>
        <time>2021-10-16T07:26:25.000Z</time>
      </trkpt>
      <trkpt lat="45.19754" lon="5.72539">
        <ele>413.20001220703</ele>
        <time>2021-10-16T07:26:31.000Z</time>
      </trkpt>
      <trkpt lat="45.19752" lon="5.72557">
        <ele>413</ele>
        <time>2021-10-16T07:26:36.000Z</time>
      </trkpt>
      <trkpt lat="45.19752" lon="5.72562">
        <ele>413.39999389648</ele>
        <time>2021-10-16T07:26:37.000Z</time>
      </trkpt>
      <trkpt lat="45.19751" lon="5.72588">
        <ele>413.20001220703</ele>
        <time>2021-10-16T07:26:44.000Z</time>
      </trkpt>
      <trkpt lat="45.19751" lon="5.72592">
        <ele>413.20001220703</ele>
        <time>2021-10-16T07:26:45.000Z</time>
      </trkpt>
      <trkpt lat="45.19756" lon="5.72614">
        <ele>413</ele>
        <time>2021-10-16T07:26:51.000Z</time>
      </trkpt>
      <trkpt lat="45.19757" lon="5.72619">
        <ele>412.79998779297</ele>
        <time>2021-10-16T07:26:52.000Z</time>
      </trkpt>
      <trkpt lat="45.19762" lon="5.72644">
        <ele>412.60000610352</ele>
        <time>2021-10-16T07:26:58.000Z</time>
      </trkpt>
      <trkpt lat="45.19764" lon="5.72648">
        <ele>412.60000610352</ele>
        <time>2021-10-16T07:26:59.000Z</time>
      </trkpt>
      <trkpt lat="45.19776" lon="5.72667">
        <ele>412.79998779297</ele>
        <time>2021-10-16T07:27:04.000Z</time>
      </trkpt>
      <trkpt lat="45.19788" lon="5.72683">
        <ele>413</ele>
        <time>2021-10-16T07:27:09.000Z</time>
      </trkpt>
      <trkpt lat="45.19796" lon="5.72691">
        <ele>413</ele>
        <time>2021-10-16T07:27:13.000Z</time>
      </trkpt>
      <trkpt lat="45.19799" lon="5.72694">
        <ele>413.39999389648</ele>
        <time>2021-10-16T07:27:14.000Z</time>
      </trkpt>
      <trkpt lat="45.198" lon="5.72697">
        <ele>413.39999389648</ele>
        <time>2021-10-16T07:27:15.000Z</time>
      </trkpt>
      <trkpt lat="45.19808" lon="5.72704">
        <ele>413</ele>
        <time>2021-10-16T07:27:18.000Z</time>
      </trkpt>
      <trkpt lat="45.19817" lon="5.72713">
        <ele>413.39999389648</ele>
        <time>2021-10-16T07:27:22.000Z</time>
      </trkpt>
      <trkpt lat="45.19819" lon="5.72716">
        <ele>413.39999389648</ele>
        <time>2021-10-16T07:27:23.000Z</time>
      </trkpt>
      <trkpt lat="45.19829" lon="5.72727">
        <ele>413.39999389648</ele>
        <time>2021-10-16T07:27:27.000Z</time>
      </trkpt>
      <trkpt lat="45.19829" lon="5.72732">
        <ele>414</ele>
        <time>2021-10-16T07:27:28.000Z</time>
      </trkpt>
      <trkpt lat="45.19831" lon="5.72739">
        <ele>414</ele>
        <time>2021-10-16T07:27:30.000Z</time>
      </trkpt>
      <trkpt lat="45.19835" lon="5.72744">
        <ele>413.79998779297</ele>
        <time>2021-10-16T07:27:32.000Z</time>
      </trkpt>
      <trkpt lat="45.19837" lon="5.72745">
        <ele>413.79998779297</ele>
        <time>2021-10-16T07:27:34.000Z</time>
      </trkpt>
      <trkpt lat="45.19838" lon="5.72744">
        <ele>413.79998779297</ele>
        <time>2021-10-16T07:27:35.000Z</time>
      </trkpt>
      <trkpt lat="45.19865" lon="5.72738">
        <ele>409.79998779297</ele>
        <time>2021-10-16T07:27:50.000Z</time>
      </trkpt>
      <trkpt lat="45.19872" lon="5.72731">
        <ele>409.39999389648</ele>
        <time>2021-10-16T07:27:51.000Z</time>
      </trkpt>
      <trkpt lat="45.19865" lon="5.72742">
        <ele>409</ele>
        <time>2021-10-16T07:27:52.000Z</time>
      </trkpt>
      <trkpt lat="45.1986" lon="5.7276">
        <ele>408</ele>
        <time>2021-10-16T07:27:58.000Z</time>
      </trkpt>
      <trkpt lat="45.19858" lon="5.72761">
        <ele>407.60000610352</ele>
        <time>2021-10-16T07:27:59.000Z</time>
      </trkpt>
      <trkpt lat="45.19856" lon="5.72758">
        <ele>407.20001220703</ele>
        <time>2021-10-16T07:28:01.000Z</time>
      </trkpt>
      <trkpt lat="45.19856" lon="5.72757">
        <ele>406.79998779297</ele>
        <time>2021-10-16T07:28:02.000Z</time>
      </trkpt>
      <trkpt lat="45.19856" lon="5.72756">
        <ele>405.79998779297</ele>
        <time>2021-10-16T07:28:03.000Z</time>
      </trkpt>
      <trkpt lat="45.19857" lon="5.72755">
        <ele>405.60000610352</ele>
        <time>2021-10-16T07:28:04.000Z</time>
      </trkpt>
      <trkpt lat="45.19857" lon="5.72755">
        <ele>404.79998779297</ele>
        <time>2021-10-16T07:28:05.000Z</time>
      </trkpt>
      <trkpt lat="45.19857" lon="5.72756">
        <ele>403.60000610352</ele>
        <time>2021-10-16T07:28:08.000Z</time>
      </trkpt>
      <trkpt lat="45.19857" lon="5.72759">
        <ele>403</ele>
        <time>2021-10-16T07:28:10.000Z</time>
      </trkpt>
      <trkpt lat="45.19856" lon="5.72761">
        <ele>402.79998779297</ele>
        <time>2021-10-16T07:28:11.000Z</time>
      </trkpt>
      <trkpt lat="45.1985" lon="5.7278">
        <ele>387.20001220703</ele>
        <time>2021-10-16T07:28:46.000Z</time>
      </trkpt>
      <trkpt lat="45.19849" lon="5.7278">
        <ele>386.39999389648</ele>
        <time>2021-10-16T07:28:47.000Z</time>
      </trkpt>
      <trkpt lat="45.19847" lon="5.72788">
        <ele>385.39999389648</ele>
        <time>2021-10-16T07:28:48.000Z</time>
      </trkpt>
      <trkpt lat="45.19847" lon="5.72786">
        <ele>385.39999389648</ele>
        <time>2021-10-16T07:28:49.000Z</time>
      </trkpt>
      <trkpt lat="45.19847" lon="5.72785">
        <ele>384.79998779297</ele>
        <time>2021-10-16T07:28:50.000Z</time>
      </trkpt>
      <trkpt lat="45.19848" lon="5.72786">
        <ele>384.20001220703</ele>
        <time>2021-10-16T07:28:51.000Z</time>
      </trkpt>
      <trkpt lat="45.19849" lon="5.72792">
        <ele>383.60000610352</ele>
        <time>2021-10-16T07:28:54.000Z</time>
      </trkpt>
      <trkpt lat="45.19846" lon="5.72788">
        <ele>383.20001220703</ele>
        <time>2021-10-16T07:28:56.000Z</time>
      </trkpt>
      <trkpt lat="45.19837" lon="5.72774">
        <ele>381.79998779297</ele>
        <time>2021-10-16T07:29:00.000Z</time>
      </trkpt>
      <trkpt lat="45.19835" lon="5.7277">
        <ele>381.79998779297</ele>
        <time>2021-10-16T07:29:01.000Z</time>
      </trkpt>
      <trkpt lat="45.19829" lon="5.72767">
        <ele>380.79998779297</ele>
        <time>2021-10-16T07:29:03.000Z</time>
      </trkpt>
      <trkpt lat="45.19816" lon="5.72756">
        <ele>379.79998779297</ele>
        <time>2021-10-16T07:29:08.000Z</time>
      </trkpt>
      <trkpt lat="45.19814" lon="5.72753">
        <ele>379.39999389648</ele>
        <time>2021-10-16T07:29:09.000Z</time>
      </trkpt>
      <trkpt lat="45.19808" lon="5.72745">
        <ele>379</ele>
        <time>2021-10-16T07:29:12.000Z</time>
      </trkpt>
      <trkpt lat="45.19801" lon="5.7274">
        <ele>378.60000610352</ele>
        <time>2021-10-16T07:29:15.000Z</time>
      </trkpt>
      <trkpt lat="45.198" lon="5.72739">
        <ele>378.20001220703</ele>
        <time>2021-10-16T07:29:16.000Z</time>
      </trkpt>
      <trkpt lat="45.1979" lon="5.72737">
        <ele>376.20001220703</ele>
        <time>2021-10-16T07:29:21.000Z</time>
      </trkpt>
      <trkpt lat="45.19791" lon="5.72737">
        <ele>376.20001220703</ele>
        <time>2021-10-16T07:29:22.000Z</time>
      </trkpt>
      <trkpt lat="45.19802" lon="5.72742">
        <ele>375</ele>
        <time>2021-10-16T07:29:26.000Z</time>
      </trkpt>
      <trkpt lat="45.19809" lon="5.72755">
        <ele>373.79998779297</ele>
        <time>2021-10-16T07:29:30.000Z</time>
      </trkpt>
      <trkpt lat="45.19814" lon="5.72761">
        <ele>373.60000610352</ele>
        <time>2021-10-16T07:29:32.000Z</time>
      </trkpt>
      <trkpt lat="45.19818" lon="5.72767">
        <ele>372.39999389648</ele>
        <time>2021-10-16T07:29:34.000Z</time>
      </trkpt>
      <trkpt lat="45.19822" lon="5.72775">
        <ele>371.39999389648</ele>
        <time>2021-10-16T07:29:36.000Z</time>
      </trkpt>
      <trkpt lat="45.19822" lon="5.72778">
        <ele>371.20001220703</ele>
        <time>2021-10-16T07:29:37.000Z</time>
      </trkpt>
      <trkpt lat="45.19825" lon="5.72785">
        <ele>370.79998779297</ele>
        <time>2021-10-16T07:29:39.000Z</time>
      </trkpt>
      <trkpt lat="45.19826" lon="5.72787">
        <ele>370.79998779297</ele>
        <time>2021-10-16T07:29:40.000Z</time>
      </trkpt>
      <trkpt lat="45.19828" lon="5.72789">
        <ele>370</ele>
        <time>2021-10-16T07:29:41.000Z</time>
      </trkpt>
      <trkpt lat="45.19837" lon="5.72795">
        <ele>369</ele>
        <time>2021-10-16T07:29:44.000Z</time>
      </trkpt>
      <trkpt lat="45.19842" lon="5.72798">
        <ele>368.39999389648</ele>
        <time>2021-10-16T07:29:46.000Z</time>
      </trkpt>
      <trkpt lat="45.19844" lon="5.72799">
        <ele>367.79998779297</ele>
        <time>2021-10-16T07:29:47.000Z</time>
      </trkpt>
      <trkpt lat="45.19844" lon="5.72807">
        <ele>367.20001220703</ele>
        <time>2021-10-16T07:29:50.000Z</time>
      </trkpt>
      <trkpt lat="45.19842" lon="5.72806">
        <ele>367</ele>
        <time>2021-10-16T07:29:51.000Z</time>
      </trkpt>
      <trkpt lat="45.1984" lon="5.72803">
        <ele>366</ele>
        <time>2021-10-16T07:29:52.000Z</time>
      </trkpt>
      <trkpt lat="45.19831" lon="5.72796">
        <ele>364.79998779297</ele>
        <time>2021-10-16T07:29:55.000Z</time>
      </trkpt>
      <trkpt lat="45.19821" lon="5.72788">
        <ele>363.79998779297</ele>
        <time>2021-10-16T07:29:59.000Z</time>
      </trkpt>
      <trkpt lat="45.19818" lon="5.72787">
        <ele>363</ele>
        <time>2021-10-16T07:30:00.000Z</time>
      </trkpt>
      <trkpt lat="45.19815" lon="5.72787">
        <ele>362.39999389648</ele>
        <time>2021-10-16T07:30:01.000Z</time>
      </trkpt>
      <trkpt lat="45.19812" lon="5.72785">
        <ele>362.39999389648</ele>
        <time>2021-10-16T07:30:02.000Z</time>
      </trkpt>
      <trkpt lat="45.19805" lon="5.72778">
        <ele>361.39999389648</ele>
        <time>2021-10-16T07:30:05.000Z</time>
      </trkpt>
      <trkpt lat="45.19803" lon="5.72776">
        <ele>361.39999389648</ele>
        <time>2021-10-16T07:30:06.000Z</time>
      </trkpt>
      <trkpt lat="45.198" lon="5.72777">
        <ele>360.60000610352</ele>
        <time>2021-10-16T07:30:08.000Z</time>
      </trkpt>
      <trkpt lat="45.19801" lon="5.72779">
        <ele>359.79998779297</ele>
        <time>2021-10-16T07:30:09.000Z</time>
      </trkpt>
      <trkpt lat="45.19807" lon="5.72787">
        <ele>359.60000610352</ele>
        <time>2021-10-16T07:30:12.000Z</time>
      </trkpt>
      <trkpt lat="45.19811" lon="5.72788">
        <ele>359.39999389648</ele>
        <time>2021-10-16T07:30:13.000Z</time>
      </trkpt>
      <trkpt lat="45.19814" lon="5.72791">
        <ele>358.79998779297</ele>
        <time>2021-10-16T07:30:14.000Z</time>
      </trkpt>
      <trkpt lat="45.19827" lon="5.72805">
        <ele>357.39999389648</ele>
        <time>2021-10-16T07:30:19.000Z</time>
      </trkpt>
      <trkpt lat="45.19831" lon="5.7281">
        <ele>356.39999389648</ele>
        <time>2021-10-16T07:30:21.000Z</time>
      </trkpt>
      <trkpt lat="45.19833" lon="5.72812">
        <ele>356.20001220703</ele>
        <time>2021-10-16T07:30:22.000Z</time>
      </trkpt>
      <trkpt lat="45.19839" lon="5.72818">
        <ele>355.39999389648</ele>
        <time>2021-10-16T07:30:25.000Z</time>
      </trkpt>
      <trkpt lat="45.19841" lon="5.7282">
        <ele>354.60000610352</ele>
        <time>2021-10-16T07:30:26.000Z</time>
      </trkpt>
      <trkpt lat="45.19847" lon="5.72826">
        <ele>353.39999389648</ele>
        <time>2021-10-16T07:30:30.000Z</time>
      </trkpt>
      <trkpt lat="45.19847" lon="5.72826">
        <ele>353.20001220703</ele>
        <time>2021-10-16T07:30:31.000Z</time>
      </trkpt>
      <trkpt lat="45.19838" lon="5.72823">
        <ele>351.60000610352</ele>
        <time>2021-10-16T07:30:35.000Z</time>
      </trkpt>
      <trkpt lat="45.19835" lon="5.72821">
        <ele>351.39999389648</ele>
        <time>2021-10-16T07:30:36.000Z</time>
      </trkpt>
      <trkpt lat="45.19825" lon="5.72816">
        <ele>350.60000610352</ele>
        <time>2021-10-16T07:30:40.000Z</time>
      </trkpt>
      <trkpt lat="45.19819" lon="5.72816">
        <ele>350</ele>
        <time>2021-10-16T07:30:42.000Z</time>
      </trkpt>
      <trkpt lat="45.19818" lon="5.72817">
        <ele>349.79998779297</ele>
        <time>2021-10-16T07:30:44.000Z</time>
      </trkpt>
      <trkpt lat="45.19819" lon="5.72819">
        <ele>348.79998779297</ele>
        <time>2021-10-16T07:30:45.000Z</time>
      </trkpt>
      <trkpt lat="45.19827" lon="5.72822">
        <ele>348.60000610352</ele>
        <time>2021-10-16T07:30:48.000Z</time>
      </trkpt>
      <trkpt lat="45.19836" lon="5.72827">
        <ele>347.60000610352</ele>
        <time>2021-10-16T07:30:51.000Z</time>
      </trkpt>
      <trkpt lat="45.19838" lon="5.72831">
        <ele>346.60000610352</ele>
        <time>2021-10-16T07:30:53.000Z</time>
      </trkpt>
      <trkpt lat="45.19835" lon="5.72833">
        <ele>346.39999389648</ele>
        <time>2021-10-16T07:30:54.000Z</time>
      </trkpt>
      <trkpt lat="45.1983" lon="5.72834">
        <ele>346</ele>
        <time>2021-10-16T07:30:56.000Z</time>
      </trkpt>
      <trkpt lat="45.19827" lon="5.72833">
        <ele>345.60000610352</ele>
        <time>2021-10-16T07:30:57.000Z</time>
      </trkpt>
      <trkpt lat="45.19825" lon="5.72832">
        <ele>345.39999389648</ele>
        <time>2021-10-16T07:30:58.000Z</time>
      </trkpt>
      <trkpt lat="45.19814" lon="5.72825">
        <ele>344.20001220703</ele>
        <time>2021-10-16T07:31:02.000Z</time>
      </trkpt>
      <trkpt lat="45.19805" lon="5.72819">
        <ele>343.20001220703</ele>
        <time>2021-10-16T07:31:05.000Z</time>
      </trkpt>
      <trkpt lat="45.19802" lon="5.72818">
        <ele>343</ele>
        <time>2021-10-16T07:31:06.000Z</time>
      </trkpt>
      <trkpt lat="45.198" lon="5.72816">
        <ele>342.60000610352</ele>
        <time>2021-10-16T07:31:07.000Z</time>
      </trkpt>
      <trkpt lat="45.19795" lon="5.72813">
        <ele>341.60000610352</ele>
        <time>2021-10-16T07:31:09.000Z</time>
      </trkpt>
      <trkpt lat="45.19792" lon="5.72811">
        <ele>341</ele>
        <time>2021-10-16T07:31:11.000Z</time>
      </trkpt>
      <trkpt lat="45.19792" lon="5.72812">
        <ele>340.60000610352</ele>
        <time>2021-10-16T07:31:12.000Z</time>
      </trkpt>
      <trkpt lat="45.19795" lon="5.72816">
        <ele>340.39999389648</ele>
        <time>2021-10-16T07:31:14.000Z</time>
      </trkpt>
      <trkpt lat="45.19802" lon="5.72821">
        <ele>340.20001220703</ele>
        <time>2021-10-16T07:31:17.000Z</time>
      </trkpt>
      <trkpt lat="45.19808" lon="5.72827">
        <ele>339.39999389648</ele>
        <time>2021-10-16T07:31:19.000Z</time>
      </trkpt>
      <trkpt lat="45.1981" lon="5.72828">
        <ele>339.20001220703</ele>
        <time>2021-10-16T07:31:20.000Z</time>
      </trkpt>
      <trkpt lat="45.19816" lon="5.72832">
        <ele>339</ele>
        <time>2021-10-16T07:31:22.000Z</time>
      </trkpt>
      <trkpt lat="45.19822" lon="5.72837">
        <ele>338.39999389648</ele>
        <time>2021-10-16T07:31:24.000Z</time>
      </trkpt>
      <trkpt lat="45.19824" lon="5.72843">
        <ele>338</ele>
        <time>2021-10-16T07:31:26.000Z</time>
      </trkpt>
      <trkpt lat="45.19823" lon="5.72845">
        <ele>337.79998779297</ele>
        <time>2021-10-16T07:31:27.000Z</time>
      </trkpt>
      <trkpt lat="45.19819" lon="5.72846">
        <ele>337</ele>
        <time>2021-10-16T07:31:29.000Z</time>
      </trkpt>
      <trkpt lat="45.19817" lon="5.72845">
        <ele>336.79998779297</ele>
        <time>2021-10-16T07:31:30.000Z</time>
      </trkpt>
      <trkpt lat="45.19815" lon="5.72843">
        <ele>336.79998779297</ele>
        <time>2021-10-16T07:31:31.000Z</time>
      </trkpt>
      <trkpt lat="45.19801" lon="5.72836">
        <ele>335</ele>
        <time>2021-10-16T07:31:36.000Z</time>
      </trkpt>
      <trkpt lat="45.19794" lon="5.72831">
        <ele>334.60000610352</ele>
        <time>2021-10-16T07:31:39.000Z</time>
      </trkpt>
      <trkpt lat="45.19791" lon="5.72828">
        <ele>333.79998779297</ele>
        <time>2021-10-16T07:31:40.000Z</time>
      </trkpt>
      <trkpt lat="45.19781" lon="5.72821">
        <ele>332.39999389648</ele>
        <time>2021-10-16T07:31:44.000Z</time>
      </trkpt>
      <trkpt lat="45.19778" lon="5.72818">
        <ele>332</ele>
        <time>2021-10-16T07:31:45.000Z</time>
      </trkpt>
      <trkpt lat="45.1977" lon="5.72812">
        <ele>330.60000610352</ele>
        <time>2021-10-16T07:31:49.000Z</time>
      </trkpt>
      <trkpt lat="45.19767" lon="5.72811">
        <ele>330.39999389648</ele>
        <time>2021-10-16T07:31:50.000Z</time>
      </trkpt>
      <trkpt lat="45.1976" lon="5.72807">
        <ele>329.60000610352</ele>
        <time>2021-10-16T07:31:53.000Z</time>
      </trkpt>
      <trkpt lat="45.19758" lon="5.72807">
        <ele>329.39999389648</ele>
        <time>2021-10-16T07:31:54.000Z</time>
      </trkpt>
      <trkpt lat="45.19758" lon="5.72811">
        <ele>328.60000610352</ele>
        <time>2021-10-16T07:31:56.000Z</time>
      </trkpt>
      <trkpt lat="45.19759" lon="5.72814">
        <ele>328.20001220703</ele>
        <time>2021-10-16T07:31:57.000Z</time>
      </trkpt>
      <trkpt lat="45.19766" lon="5.7282">
        <ele>327</ele>
        <time>2021-10-16T07:32:00.000Z</time>
      </trkpt>
      <trkpt lat="45.19769" lon="5.72823">
        <ele>326.79998779297</ele>
        <time>2021-10-16T07:32:02.000Z</time>
      </trkpt>
      <trkpt lat="45.19773" lon="5.72827">
        <ele>326</ele>
        <time>2021-10-16T07:32:04.000Z</time>
      </trkpt>
      <trkpt lat="45.19775" lon="5.72829">
        <ele>325.79998779297</ele>
        <time>2021-10-16T07:32:05.000Z</time>
      </trkpt>
      <trkpt lat="45.19777" lon="5.72831">
        <ele>325.39999389648</ele>
        <time>2021-10-16T07:32:06.000Z</time>
      </trkpt>
      <trkpt lat="45.19779" lon="5.72834">
        <ele>324.60000610352</ele>
        <time>2021-10-16T07:32:07.000Z</time>
      </trkpt>
      <trkpt lat="45.19782" lon="5.72839">
        <ele>324.20001220703</ele>
        <time>2021-10-16T07:32:09.000Z</time>
      </trkpt>
      <trkpt lat="45.19786" lon="5.72844">
        <ele>323.79998779297</ele>
        <time>2021-10-16T07:32:11.000Z</time>
      </trkpt>
      <trkpt lat="45.19787" lon="5.72846">
        <ele>323.39999389648</ele>
        <time>2021-10-16T07:32:12.000Z</time>
      </trkpt>
      <trkpt lat="45.19793" lon="5.72853">
        <ele>322.39999389648</ele>
        <time>2021-10-16T07:32:15.000Z</time>
      </trkpt>
      <trkpt lat="45.19796" lon="5.72858">
        <ele>321.20001220703</ele>
        <time>2021-10-16T07:32:17.000Z</time>
      </trkpt>
      <trkpt lat="45.19798" lon="5.7286">
        <ele>320.79998779297</ele>
        <time>2021-10-16T07:32:18.000Z</time>
      </trkpt>
      <trkpt lat="45.19803" lon="5.72867">
        <ele>319.79998779297</ele>
        <time>2021-10-16T07:32:21.000Z</time>
      </trkpt>
      <trkpt lat="45.19805" lon="5.7287">
        <ele>319.60000610352</ele>
        <time>2021-10-16T07:32:23.000Z</time>
      </trkpt>
      <trkpt lat="45.19805" lon="5.72874">
        <ele>318.39999389648</ele>
        <time>2021-10-16T07:32:25.000Z</time>
      </trkpt>
      <trkpt lat="45.19796" lon="5.7287">
        <ele>317.60000610352</ele>
        <time>2021-10-16T07:32:29.000Z</time>
      </trkpt>
      <trkpt lat="45.19793" lon="5.72869">
        <ele>317.20001220703</ele>
        <time>2021-10-16T07:32:30.000Z</time>
      </trkpt>
      <trkpt lat="45.19783" lon="5.72864">
        <ele>316</ele>
        <time>2021-10-16T07:32:34.000Z</time>
      </trkpt>
      <trkpt lat="45.19774" lon="5.72861">
        <ele>314.39999389648</ele>
        <time>2021-10-16T07:32:38.000Z</time>
      </trkpt>
      <trkpt lat="45.19771" lon="5.72859">
        <ele>314</ele>
        <time>2021-10-16T07:32:39.000Z</time>
      </trkpt>
      <trkpt lat="45.19762" lon="5.7285">
        <ele>312.60000610352</ele>
        <time>2021-10-16T07:32:43.000Z</time>
      </trkpt>
      <trkpt lat="45.19757" lon="5.72846">
        <ele>312.20001220703</ele>
        <time>2021-10-16T07:32:45.000Z</time>
      </trkpt>
      <trkpt lat="45.19755" lon="5.72843">
        <ele>311.20001220703</ele>
        <time>2021-10-16T07:32:46.000Z</time>
      </trkpt>
      <trkpt lat="45.19751" lon="5.7284">
        <ele>310.79998779297</ele>
        <time>2021-10-16T07:32:48.000Z</time>
      </trkpt>
      <trkpt lat="45.19749" lon="5.72837">
        <ele>310.79998779297</ele>
        <time>2021-10-16T07:32:49.000Z</time>
      </trkpt>
      <trkpt lat="45.19746" lon="5.72837">
        <ele>310.60000610352</ele>
        <time>2021-10-16T07:32:51.000Z</time>
      </trkpt>
      <trkpt lat="45.19746" lon="5.72839">
        <ele>309.79998779297</ele>
        <time>2021-10-16T07:32:52.000Z</time>
      </trkpt>
      <trkpt lat="45.19748" lon="5.72844">
        <ele>309.39999389648</ele>
        <time>2021-10-16T07:32:54.000Z</time>
      </trkpt>
      <trkpt lat="45.19754" lon="5.7285">
        <ele>308.20001220703</ele>
        <time>2021-10-16T07:32:57.000Z</time>
      </trkpt>
      <trkpt lat="45.19759" lon="5.72858">
        <ele>307.60000610352</ele>
        <time>2021-10-16T07:33:00.000Z</time>
      </trkpt>
      <trkpt lat="45.1976" lon="5.72861">
        <ele>307.20001220703</ele>
        <time>2021-10-16T07:33:01.000Z</time>
      </trkpt>
      <trkpt lat="45.19762" lon="5.72864">
        <ele>307</ele>
        <time>2021-10-16T07:33:02.000Z</time>
      </trkpt>
      <trkpt lat="45.19766" lon="5.72868">
        <ele>305.60000610352</ele>
        <time>2021-10-16T07:33:04.000Z</time>
      </trkpt>
      <trkpt lat="45.19768" lon="5.72871">
        <ele>305.39999389648</ele>
        <time>2021-10-16T07:33:05.000Z</time>
      </trkpt>
      <trkpt lat="45.19773" lon="5.7288">
        <ele>304.39999389648</ele>
        <time>2021-10-16T07:33:08.000Z</time>
      </trkpt>
      <trkpt lat="45.19774" lon="5.72883">
        <ele>304.39999389648</ele>
        <time>2021-10-16T07:33:09.000Z</time>
      </trkpt>
      <trkpt lat="45.19776" lon="5.72888">
        <ele>304.20001220703</ele>
        <time>2021-10-16T07:33:11.000Z</time>
      </trkpt>
      <trkpt lat="45.19778" lon="5.72891">
        <ele>303.39999389648</ele>
        <time>2021-10-16T07:33:12.000Z</time>
      </trkpt>
      <trkpt lat="45.19781" lon="5.72893">
        <ele>303.20001220703</ele>
        <time>2021-10-16T07:33:13.000Z</time>
      </trkpt>
      <trkpt lat="45.19784" lon="5.72898">
        <ele>302.20001220703</ele>
        <time>2021-10-16T07:33:15.000Z</time>
      </trkpt>
      <trkpt lat="45.19791" lon="5.72909">
        <ele>300.60000610352</ele>
        <time>2021-10-16T07:33:19.000Z</time>
      </trkpt>
      <trkpt lat="45.19794" lon="5.72912">
        <ele>300.39999389648</ele>
        <time>2021-10-16T07:33:20.000Z</time>
      </trkpt>
      <trkpt lat="45.19795" lon="5.72914">
        <ele>300</ele>
        <time>2021-10-16T07:33:22.000Z</time>
      </trkpt>
      <trkpt lat="45.19794" lon="5.72915">
        <ele>299.20001220703</ele>
        <time>2021-10-16T07:33:23.000Z</time>
      </trkpt>
      <trkpt lat="45.19788" lon="5.72915">
        <ele>298.60000610352</ele>
        <time>2021-10-16T07:33:26.000Z</time>
      </trkpt>
      <trkpt lat="45.19784" lon="5.72912">
        <ele>297.79998779297</ele>
        <time>2021-10-16T07:33:28.000Z</time>
      </trkpt>
      <trkpt lat="45.19782" lon="5.72911">
        <ele>297.60000610352</ele>
        <time>2021-10-16T07:33:29.000Z</time>
      </trkpt>
      <trkpt lat="45.19778" lon="5.72909">
        <ele>297.20001220703</ele>
        <time>2021-10-16T07:33:31.000Z</time>
      </trkpt>
      <trkpt lat="45.19774" lon="5.72905">
        <ele>296</ele>
        <time>2021-10-16T07:33:33.000Z</time>
      </trkpt>
      <trkpt lat="45.19769" lon="5.72901">
        <ele>296</ele>
        <time>2021-10-16T07:33:35.000Z</time>
      </trkpt>
      <trkpt lat="45.19767" lon="5.72901">
        <ele>295.39999389648</ele>
        <time>2021-10-16T07:33:36.000Z</time>
      </trkpt>
      <trkpt lat="45.1976" lon="5.72898">
        <ele>295</ele>
        <time>2021-10-16T07:33:39.000Z</time>
      </trkpt>
      <trkpt lat="45.19758" lon="5.72896">
        <ele>293.79998779297</ele>
        <time>2021-10-16T07:33:40.000Z</time>
      </trkpt>
      <trkpt lat="45.19744" lon="5.72885">
        <ele>292</ele>
        <time>2021-10-16T07:33:45.000Z</time>
      </trkpt>
      <trkpt lat="45.19732" lon="5.72881">
        <ele>290.79998779297</ele>
        <time>2021-10-16T07:33:49.000Z</time>
      </trkpt>
      <trkpt lat="45.19728" lon="5.72878">
        <ele>290.20001220703</ele>
        <time>2021-10-16T07:33:51.000Z</time>
      </trkpt>
      <trkpt lat="45.19726" lon="5.72877">
        <ele>289.79998779297</ele>
        <time>2021-10-16T07:33:53.000Z</time>
      </trkpt>
      <trkpt lat="45.19728" lon="5.72876">
        <ele>289.79998779297</ele>
        <time>2021-10-16T07:33:55.000Z</time>
      </trkpt>
      <trkpt lat="45.19732" lon="5.72876">
        <ele>289.79998779297</ele>
        <time>2021-10-16T07:33:57.000Z</time>
      </trkpt>
      <trkpt lat="45.19733" lon="5.72881">
        <ele>290</ele>
        <time>2021-10-16T07:34:00.000Z</time>
      </trkpt>
      <trkpt lat="45.19733" lon="5.72883">
        <ele>290</ele>
        <time>2021-10-16T07:34:02.000Z</time>
      </trkpt>
      <trkpt lat="45.19733" lon="5.72883">
        <ele>290</ele>
        <time>2021-10-16T07:34:05.000Z</time>
      </trkpt>
      <trkpt lat="45.19732" lon="5.72883">
        <ele>290</ele>
        <time>2021-10-16T07:34:08.000Z</time>
      </trkpt>
      <trkpt lat="45.19732" lon="5.72883">
        <ele>290.20001220703</ele>
        <time>2021-10-16T07:34:13.000Z</time>
      </trkpt>
      <trkpt lat="45.19732" lon="5.72883">
        <ele>290.20001220703</ele>
        <time>2021-10-16T07:34:17.000Z</time>
      </trkpt>
      <trkpt lat="45.19732" lon="5.72883">
        <ele>290.20001220703</ele>
        <time>2021-10-16T07:34:21.000Z</time>
      </trkpt>
      <trkpt lat="45.19732" lon="5.72882">
        <ele>290.20001220703</ele>
        <time>2021-10-16T07:34:24.000Z</time>
      </trkpt>
      <trkpt lat="45.19732" lon="5.72882">
        <ele>290.20001220703</ele>
        <time>2021-10-16T07:34:25.000Z</time>
      </trkpt>
      <trkpt lat="45.19732" lon="5.72881">
        <ele>290.20001220703</ele>
        <time>2021-10-16T07:34:27.000Z</time>
      </trkpt>
      <trkpt lat="45.19732" lon="5.72881">
        <ele>290.20001220703</ele>
        <time>2021-10-16T07:34:37.000Z</time>
      </trkpt>
      <trkpt lat="45.19732" lon="5.72881">
        <ele>290.20001220703</ele>
        <time>2021-10-16T07:34:43.000Z</time>
      </trkpt>
      <trkpt lat="45.19732" lon="5.72881">
        <ele>290.20001220703</ele>
        <time>2021-10-16T07:34:45.000Z</time>
      </trkpt>
      <trkpt lat="45.19733" lon="5.72878">
        <ele>290.20001220703</ele>
        <time>2021-10-16T07:34:57.000Z</time>
      </trkpt>
      <trkpt lat="45.19734" lon="5.72877">
        <ele>290.20001220703</ele>
        <time>2021-10-16T07:35:19.000Z</time>
      </trkpt>
      <trkpt lat="45.19734" lon="5.72879">
        <ele>290.20001220703</ele>
        <time>2021-10-16T07:35:37.000Z</time>
      </trkpt>
      <trkpt lat="45.19734" lon="5.7288">
        <ele>290.20001220703</ele>
        <time>2021-10-16T07:35:39.000Z</time>
      </trkpt>
      <trkpt lat="45.19734" lon="5.72881">
        <ele>290.20001220703</ele>
        <time>2021-10-16T07:35:54.000Z</time>
      </trkpt>
      <trkpt lat="45.19727" lon="5.72878">
        <ele>290.20001220703</ele>
        <time>2021-10-16T07:36:03.000Z</time>
      </trkpt>
      <trkpt lat="45.19724" lon="5.72876">
        <ele>290.20001220703</ele>
        <time>2021-10-16T07:36:04.000Z</time>
      </trkpt>
      <trkpt lat="45.19717" lon="5.72872">
        <ele>290.20001220703</ele>
        <time>2021-10-16T07:36:06.000Z</time>
      </trkpt>
      <trkpt lat="45.19714" lon="5.72869">
        <ele>290.20001220703</ele>
        <time>2021-10-16T07:36:07.000Z</time>
      </trkpt>
      <trkpt lat="45.1971" lon="5.72867">
        <ele>290.20001220703</ele>
        <time>2021-10-16T07:36:08.000Z</time>
      </trkpt>
      <trkpt lat="45.19707" lon="5.72864">
        <ele>290.20001220703</ele>
        <time>2021-10-16T07:36:09.000Z</time>
      </trkpt>
      <trkpt lat="45.19702" lon="5.72857">
        <ele>290</ele>
        <time>2021-10-16T07:36:11.000Z</time>
      </trkpt>
      <trkpt lat="45.19699" lon="5.72855">
        <ele>289.79998779297</ele>
        <time>2021-10-16T07:36:12.000Z</time>
      </trkpt>
      <trkpt lat="45.19696" lon="5.72853">
        <ele>289</ele>
        <time>2021-10-16T07:36:15.000Z</time>
      </trkpt>
      <trkpt lat="45.19697" lon="5.72855">
        <ele>288.39999389648</ele>
        <time>2021-10-16T07:36:16.000Z</time>
      </trkpt>
      <trkpt lat="45.197" lon="5.72867">
        <ele>287.20001220703</ele>
        <time>2021-10-16T07:36:19.000Z</time>
      </trkpt>
      <trkpt lat="45.19702" lon="5.72873">
        <ele>286.39999389648</ele>
        <time>2021-10-16T07:36:21.000Z</time>
      </trkpt>
      <trkpt lat="45.19704" lon="5.72876">
        <ele>286.20001220703</ele>
        <time>2021-10-16T07:36:22.000Z</time>
      </trkpt>
      <trkpt lat="45.19707" lon="5.72882">
        <ele>285.20001220703</ele>
        <time>2021-10-16T07:36:24.000Z</time>
      </trkpt>
      <trkpt lat="45.19708" lon="5.72885">
        <ele>285</ele>
        <time>2021-10-16T07:36:25.000Z</time>
      </trkpt>
      <trkpt lat="45.19709" lon="5.72887">
        <ele>284.79998779297</ele>
        <time>2021-10-16T07:36:26.000Z</time>
      </trkpt>
      <trkpt lat="45.19714" lon="5.72894">
        <ele>284</ele>
        <time>2021-10-16T07:36:28.000Z</time>
      </trkpt>
      <trkpt lat="45.19721" lon="5.72909">
        <ele>283</ele>
        <time>2021-10-16T07:36:32.000Z</time>
      </trkpt>
      <trkpt lat="45.19724" lon="5.72912">
        <ele>282.39999389648</ele>
        <time>2021-10-16T07:36:33.000Z</time>
      </trkpt>
      <trkpt lat="45.19728" lon="5.7292">
        <ele>281.79998779297</ele>
        <time>2021-10-16T07:36:35.000Z</time>
      </trkpt>
      <trkpt lat="45.1973" lon="5.72924">
        <ele>281.39999389648</ele>
        <time>2021-10-16T07:36:36.000Z</time>
      </trkpt>
      <trkpt lat="45.19735" lon="5.72934">
        <ele>281</ele>
        <time>2021-10-16T07:36:39.000Z</time>
      </trkpt>
      <trkpt lat="45.19738" lon="5.72941">
        <ele>280.20001220703</ele>
        <time>2021-10-16T07:36:41.000Z</time>
      </trkpt>
      <trkpt lat="45.19741" lon="5.72944">
        <ele>279.39999389648</ele>
        <time>2021-10-16T07:36:42.000Z</time>
      </trkpt>
      <trkpt lat="45.19743" lon="5.72946">
        <ele>279</ele>
        <time>2021-10-16T07:36:43.000Z</time>
      </trkpt>
      <trkpt lat="45.19752" lon="5.72957">
        <ele>278</ele>
        <time>2021-10-16T07:36:47.000Z</time>
      </trkpt>
      <trkpt lat="45.19754" lon="5.72961">
        <ele>277.39999389648</ele>
        <time>2021-10-16T07:36:48.000Z</time>
      </trkpt>
      <trkpt lat="45.19759" lon="5.72971">
        <ele>276.20001220703</ele>
        <time>2021-10-16T07:36:51.000Z</time>
      </trkpt>
      <trkpt lat="45.19763" lon="5.72981">
        <ele>275</ele>
        <time>2021-10-16T07:36:54.000Z</time>
      </trkpt>
      <trkpt lat="45.19771" lon="5.7299">
        <ele>274</ele>
        <time>2021-10-16T07:36:57.000Z</time>
      </trkpt>
      <trkpt lat="45.19774" lon="5.72992">
        <ele>273.60000610352</ele>
        <time>2021-10-16T07:36:58.000Z</time>
      </trkpt>
      <trkpt lat="45.1978" lon="5.72998">
        <ele>273</ele>
        <time>2021-10-16T07:37:00.000Z</time>
      </trkpt>
      <trkpt lat="45.19785" lon="5.73003">
        <ele>272</ele>
        <time>2021-10-16T07:37:02.000Z</time>
      </trkpt>
      <trkpt lat="45.19792" lon="5.73007">
        <ele>271.20001220703</ele>
        <time>2021-10-16T07:37:05.000Z</time>
      </trkpt>
      <trkpt lat="45.19797" lon="5.7301">
        <ele>270.79998779297</ele>
        <time>2021-10-16T07:37:07.000Z</time>
      </trkpt>
      <trkpt lat="45.19803" lon="5.73016">
        <ele>270</ele>
        <time>2021-10-16T07:37:10.000Z</time>
      </trkpt>
      <trkpt lat="45.19803" lon="5.73018">
        <ele>269.20001220703</ele>
        <time>2021-10-16T07:37:11.000Z</time>
      </trkpt>
      <trkpt lat="45.19802" lon="5.73019">
        <ele>269</ele>
        <time>2021-10-16T07:37:12.000Z</time>
      </trkpt>
      <trkpt lat="45.19794" lon="5.73018">
        <ele>267.79998779297</ele>
        <time>2021-10-16T07:37:15.000Z</time>
      </trkpt>
      <trkpt lat="45.19788" lon="5.73017">
        <ele>267.20001220703</ele>
        <time>2021-10-16T07:37:17.000Z</time>
      </trkpt>
      <trkpt lat="45.19783" lon="5.73012">
        <ele>266.79998779297</ele>
        <time>2021-10-16T07:37:19.000Z</time>
      </trkpt>
      <trkpt lat="45.19777" lon="5.73009">
        <ele>266.39999389648</ele>
        <time>2021-10-16T07:37:21.000Z</time>
      </trkpt>
      <trkpt lat="45.19774" lon="5.73008">
        <ele>265.79998779297</ele>
        <time>2021-10-16T07:37:22.000Z</time>
      </trkpt>
      <trkpt lat="45.19766" lon="5.73006">
        <ele>264.60000610352</ele>
        <time>2021-10-16T07:37:25.000Z</time>
      </trkpt>
      <trkpt lat="45.19764" lon="5.73006">
        <ele>264.60000610352</ele>
        <time>2021-10-16T07:37:26.000Z</time>
      </trkpt>
      <trkpt lat="45.19762" lon="5.73006">
        <ele>264.60000610352</ele>
        <time>2021-10-16T07:37:27.000Z</time>
      </trkpt>
      <trkpt lat="45.19762" lon="5.7301">
        <ele>263.79998779297</ele>
        <time>2021-10-16T07:37:29.000Z</time>
      </trkpt>
      <trkpt lat="45.19763" lon="5.73012">
        <ele>263</ele>
        <time>2021-10-16T07:37:30.000Z</time>
      </trkpt>
      <trkpt lat="45.19771" lon="5.73017">
        <ele>262</ele>
        <time>2021-10-16T07:37:33.000Z</time>
      </trkpt>
      <trkpt lat="45.19782" lon="5.73025">
        <ele>260.79998779297</ele>
        <time>2021-10-16T07:37:37.000Z</time>
      </trkpt>
      <trkpt lat="45.19787" lon="5.73029">
        <ele>260.39999389648</ele>
        <time>2021-10-16T07:37:39.000Z</time>
      </trkpt>
      <trkpt lat="45.19793" lon="5.73035">
        <ele>259.60000610352</ele>
        <time>2021-10-16T07:37:42.000Z</time>
      </trkpt>
      <trkpt lat="45.19796" lon="5.73038">
        <ele>259.20001220703</ele>
        <time>2021-10-16T07:37:43.000Z</time>
      </trkpt>
      <trkpt lat="45.19797" lon="5.73039">
        <ele>258.79998779297</ele>
        <time>2021-10-16T07:37:44.000Z</time>
      </trkpt>
      <trkpt lat="45.19797" lon="5.7304">
        <ele>258.20001220703</ele>
        <time>2021-10-16T07:37:45.000Z</time>
      </trkpt>
      <trkpt lat="45.19792" lon="5.73037">
        <ele>257.39999389648</ele>
        <time>2021-10-16T07:37:48.000Z</time>
      </trkpt>
      <trkpt lat="45.1979" lon="5.73035">
        <ele>256.79998779297</ele>
        <time>2021-10-16T07:37:49.000Z</time>
      </trkpt>
      <trkpt lat="45.19785" lon="5.73034">
        <ele>255.80000305176</ele>
        <time>2021-10-16T07:37:51.000Z</time>
      </trkpt>
      <trkpt lat="45.19777" lon="5.73033">
        <ele>255</ele>
        <time>2021-10-16T07:37:54.000Z</time>
      </trkpt>
      <trkpt lat="45.19775" lon="5.73032">
        <ele>254.39999389648</ele>
        <time>2021-10-16T07:37:55.000Z</time>
      </trkpt>
      <trkpt lat="45.19767" lon="5.73029">
        <ele>253.39999389648</ele>
        <time>2021-10-16T07:37:58.000Z</time>
      </trkpt>
      <trkpt lat="45.19764" lon="5.73028">
        <ele>253.19999694824</ele>
        <time>2021-10-16T07:37:59.000Z</time>
      </trkpt>
      <trkpt lat="45.19759" lon="5.73027">
        <ele>252</ele>
        <time>2021-10-16T07:38:01.000Z</time>
      </trkpt>
      <trkpt lat="45.19755" lon="5.73026">
        <ele>252</ele>
        <time>2021-10-16T07:38:03.000Z</time>
      </trkpt>
      <trkpt lat="45.19756" lon="5.7303">
        <ele>251.39999389648</ele>
        <time>2021-10-16T07:38:05.000Z</time>
      </trkpt>
      <trkpt lat="45.19761" lon="5.73034">
        <ele>250.60000610352</ele>
        <time>2021-10-16T07:38:07.000Z</time>
      </trkpt>
      <trkpt lat="45.19765" lon="5.73039">
        <ele>249.80000305176</ele>
        <time>2021-10-16T07:38:09.000Z</time>
      </trkpt>
      <trkpt lat="45.19767" lon="5.73041">
        <ele>249.60000610352</ele>
        <time>2021-10-16T07:38:10.000Z</time>
      </trkpt>
      <trkpt lat="45.1977" lon="5.73043">
        <ele>249.60000610352</ele>
        <time>2021-10-16T07:38:11.000Z</time>
      </trkpt>
      <trkpt lat="45.19774" lon="5.73043">
        <ele>249.60000610352</ele>
        <time>2021-10-16T07:38:12.000Z</time>
      </trkpt>
      <trkpt lat="45.19777" lon="5.73045">
        <ele>248.39999389648</ele>
        <time>2021-10-16T07:38:13.000Z</time>
      </trkpt>
      <trkpt lat="45.19785" lon="5.73051">
        <ele>247.60000610352</ele>
        <time>2021-10-16T07:38:16.000Z</time>
      </trkpt>
      <trkpt lat="45.1979" lon="5.73053">
        <ele>247.39999389648</ele>
        <time>2021-10-16T07:38:18.000Z</time>
      </trkpt>
      <trkpt lat="45.19794" lon="5.73057">
        <ele>246</ele>
        <time>2021-10-16T07:38:20.000Z</time>
      </trkpt>
      <trkpt lat="45.19795" lon="5.73058">
        <ele>245.60000610352</ele>
        <time>2021-10-16T07:38:21.000Z</time>
      </trkpt>
      <trkpt lat="45.19795" lon="5.7306">
        <ele>245.60000610352</ele>
        <time>2021-10-16T07:38:22.000Z</time>
      </trkpt>
      <trkpt lat="45.19793" lon="5.7306">
        <ele>245.60000610352</ele>
        <time>2021-10-16T07:38:23.000Z</time>
      </trkpt>
      <trkpt lat="45.19788" lon="5.73059">
        <ele>244.80000305176</ele>
        <time>2021-10-16T07:38:25.000Z</time>
      </trkpt>
      <trkpt lat="45.19784" lon="5.73058">
        <ele>243.80000305176</ele>
        <time>2021-10-16T07:38:27.000Z</time>
      </trkpt>
      <trkpt lat="45.19779" lon="5.73058">
        <ele>242.80000305176</ele>
        <time>2021-10-16T07:38:29.000Z</time>
      </trkpt>
      <trkpt lat="45.19777" lon="5.73057">
        <ele>242.60000610352</ele>
        <time>2021-10-16T07:38:30.000Z</time>
      </trkpt>
      <trkpt lat="45.19774" lon="5.73055">
        <ele>242.19999694824</ele>
        <time>2021-10-16T07:38:32.000Z</time>
      </trkpt>
      <trkpt lat="45.19766" lon="5.73051">
        <ele>241.19999694824</ele>
        <time>2021-10-16T07:38:35.000Z</time>
      </trkpt>
      <trkpt lat="45.19764" lon="5.73051">
        <ele>240.39999389648</ele>
        <time>2021-10-16T07:38:36.000Z</time>
      </trkpt>
      <trkpt lat="45.19757" lon="5.73053">
        <ele>240</ele>
        <time>2021-10-16T07:38:39.000Z</time>
      </trkpt>
      <trkpt lat="45.19756" lon="5.73054">
        <ele>238.80000305176</ele>
        <time>2021-10-16T07:38:40.000Z</time>
      </trkpt>
      <trkpt lat="45.19756" lon="5.73056">
        <ele>238.80000305176</ele>
        <time>2021-10-16T07:38:41.000Z</time>
      </trkpt>
      <trkpt lat="45.19763" lon="5.73063">
        <ele>238</ele>
        <time>2021-10-16T07:38:45.000Z</time>
      </trkpt>
      <trkpt lat="45.19765" lon="5.73064">
        <ele>237.39999389648</ele>
        <time>2021-10-16T07:38:46.000Z</time>
      </trkpt>
      <trkpt lat="45.19771" lon="5.7307">
        <ele>236.80000305176</ele>
        <time>2021-10-16T07:38:49.000Z</time>
      </trkpt>
      <trkpt lat="45.19777" lon="5.73074">
        <ele>236</ele>
        <time>2021-10-16T07:38:51.000Z</time>
      </trkpt>
      <trkpt lat="45.1978" lon="5.73074">
        <ele>235.80000305176</ele>
        <time>2021-10-16T07:38:52.000Z</time>
      </trkpt>
      <trkpt lat="45.19785" lon="5.73077">
        <ele>235</ele>
        <time>2021-10-16T07:38:54.000Z</time>
      </trkpt>
      <trkpt lat="45.19787" lon="5.73079">
        <ele>234.39999389648</ele>
        <time>2021-10-16T07:38:55.000Z</time>
      </trkpt>
      <trkpt lat="45.19794" lon="5.73086">
        <ele>233.19999694824</ele>
        <time>2021-10-16T07:38:59.000Z</time>
      </trkpt>
      <trkpt lat="45.19798" lon="5.73091">
        <ele>232.80000305176</ele>
        <time>2021-10-16T07:39:01.000Z</time>
      </trkpt>
      <trkpt lat="45.19798" lon="5.73093">
        <ele>232.39999389648</ele>
        <time>2021-10-16T07:39:02.000Z</time>
      </trkpt>
      <trkpt lat="45.19796" lon="5.73094">
        <ele>232</ele>
        <time>2021-10-16T07:39:03.000Z</time>
      </trkpt>
      <trkpt lat="45.19794" lon="5.73094">
        <ele>231.80000305176</ele>
        <time>2021-10-16T07:39:04.000Z</time>
      </trkpt>
      <trkpt lat="45.19788" lon="5.73089">
        <ele>231</ele>
        <time>2021-10-16T07:39:07.000Z</time>
      </trkpt>
      <trkpt lat="45.19785" lon="5.73087">
        <ele>230</ele>
        <time>2021-10-16T07:39:08.000Z</time>
      </trkpt>
      <trkpt lat="45.19775" lon="5.73082">
        <ele>228.80000305176</ele>
        <time>2021-10-16T07:39:12.000Z</time>
      </trkpt>
      <trkpt lat="45.19764" lon="5.73083">
        <ele>227.60000610352</ele>
        <time>2021-10-16T07:39:17.000Z</time>
      </trkpt>
      <trkpt lat="45.19762" lon="5.73085">
        <ele>227.19999694824</ele>
        <time>2021-10-16T07:39:18.000Z</time>
      </trkpt>
      <trkpt lat="45.1976" lon="5.73087">
        <ele>227</ele>
        <time>2021-10-16T07:39:19.000Z</time>
      </trkpt>
      <trkpt lat="45.1976" lon="5.73089">
        <ele>226.80000305176</ele>
        <time>2021-10-16T07:39:20.000Z</time>
      </trkpt>
      <trkpt lat="45.19762" lon="5.73093">
        <ele>226.19999694824</ele>
        <time>2021-10-16T07:39:22.000Z</time>
      </trkpt>
      <trkpt lat="45.19767" lon="5.73097">
        <ele>224.39999389648</ele>
        <time>2021-10-16T07:39:25.000Z</time>
      </trkpt>
      <trkpt lat="45.19768" lon="5.73098">
        <ele>224</ele>
        <time>2021-10-16T07:39:27.000Z</time>
      </trkpt>
      <trkpt lat="45.19769" lon="5.73099">
        <ele>224</ele>
        <time>2021-10-16T07:39:28.000Z</time>
      </trkpt>
      <trkpt lat="45.1977" lon="5.731">
        <ele>223</ele>
        <time>2021-10-16T07:39:29.000Z</time>
      </trkpt>
      <trkpt lat="45.19771" lon="5.73101">
        <ele>223</ele>
        <time>2021-10-16T07:39:30.000Z</time>
      </trkpt>
      <trkpt lat="45.19788" lon="5.73107">
        <ele>222.39999389648</ele>
        <time>2021-10-16T07:39:35.000Z</time>
      </trkpt>
      <trkpt lat="45.19791" lon="5.73109">
        <ele>221.80000305176</ele>
        <time>2021-10-16T07:39:36.000Z</time>
      </trkpt>
      <trkpt lat="45.19799" lon="5.7311">
        <ele>220.80000305176</ele>
        <time>2021-10-16T07:39:38.000Z</time>
      </trkpt>
      <trkpt lat="45.19801" lon="5.73114">
        <ele>220.60000610352</ele>
        <time>2021-10-16T07:39:39.000Z</time>
      </trkpt>
      <trkpt lat="45.198" lon="5.73117">
        <ele>220.39999389648</ele>
        <time>2021-10-16T07:39:40.000Z</time>
      </trkpt>
      <trkpt lat="45.19788" lon="5.73127">
        <ele>219.19999694824</ele>
        <time>2021-10-16T07:39:45.000Z</time>
      </trkpt>
      <trkpt lat="45.19783" lon="5.73142">
        <ele>217.39999389648</ele>
        <time>2021-10-16T07:39:49.000Z</time>
      </trkpt>
      <trkpt lat="45.19781" lon="5.7315">
        <ele>217</ele>
        <time>2021-10-16T07:39:51.000Z</time>
      </trkpt>
      <trkpt lat="45.19777" lon="5.73155">
        <ele>216</ele>
        <time>2021-10-16T07:39:53.000Z</time>
      </trkpt>
      <trkpt lat="45.19776" lon="5.73169">
        <ele>214.19999694824</ele>
        <time>2021-10-16T07:39:56.000Z</time>
      </trkpt>
      <trkpt lat="45.19778" lon="5.73173">
        <ele>213.60000610352</ele>
        <time>2021-10-16T07:39:57.000Z</time>
      </trkpt>
      <trkpt lat="45.19779" lon="5.73197">
        <ele>213.39999389648</ele>
        <time>2021-10-16T07:40:03.000Z</time>
      </trkpt>
      <trkpt lat="45.19778" lon="5.73213">
        <ele>213.39999389648</ele>
        <time>2021-10-16T07:40:08.000Z</time>
      </trkpt>
      <trkpt lat="45.19777" lon="5.73216">
        <ele>213.19999694824</ele>
        <time>2021-10-16T07:40:09.000Z</time>
      </trkpt>
      <trkpt lat="45.19774" lon="5.73224">
        <ele>213</ele>
        <time>2021-10-16T07:40:11.000Z</time>
      </trkpt>
      <trkpt lat="45.19769" lon="5.7324">
        <ele>213.39999389648</ele>
        <time>2021-10-16T07:40:15.000Z</time>
      </trkpt>
      <trkpt lat="45.19768" lon="5.73244">
        <ele>213.39999389648</ele>
        <time>2021-10-16T07:40:16.000Z</time>
      </trkpt>
      <trkpt lat="45.19763" lon="5.73257">
        <ele>214.39999389648</ele>
        <time>2021-10-16T07:40:20.000Z</time>
      </trkpt>
      <trkpt lat="45.19762" lon="5.73261">
        <ele>214.39999389648</ele>
        <time>2021-10-16T07:40:21.000Z</time>
      </trkpt>
      <trkpt lat="45.19755" lon="5.73286">
        <ele>215</ele>
        <time>2021-10-16T07:40:28.000Z</time>
      </trkpt>
      <trkpt lat="45.19747" lon="5.73309">
        <ele>215</ele>
        <time>2021-10-16T07:40:34.000Z</time>
      </trkpt>
      <trkpt lat="45.19742" lon="5.73326">
        <ele>214.60000610352</ele>
        <time>2021-10-16T07:40:38.000Z</time>
      </trkpt>
      <trkpt lat="45.19736" lon="5.7335">
        <ele>214.60000610352</ele>
        <time>2021-10-16T07:40:44.000Z</time>
      </trkpt>
      <trkpt lat="45.19734" lon="5.73359">
        <ele>214.39999389648</ele>
        <time>2021-10-16T07:40:47.000Z</time>
      </trkpt>
      <trkpt lat="45.19734" lon="5.73361">
        <ele>213.80000305176</ele>
        <time>2021-10-16T07:40:48.000Z</time>
      </trkpt>
      <trkpt lat="45.19736" lon="5.73363">
        <ele>213.80000305176</ele>
        <time>2021-10-16T07:40:49.000Z</time>
      </trkpt>
      <trkpt lat="45.19748" lon="5.7337">
        <ele>213</ele>
        <time>2021-10-16T07:40:54.000Z</time>
      </trkpt>
      <trkpt lat="45.19766" lon="5.73375">
        <ele>212.19999694824</ele>
        <time>2021-10-16T07:41:01.000Z</time>
      </trkpt>
      <trkpt lat="45.19784" lon="5.73378">
        <ele>211.80000305176</ele>
        <time>2021-10-16T07:41:07.000Z</time>
      </trkpt>
      <trkpt lat="45.19798" lon="5.73379">
        <ele>211.80000305176</ele>
        <time>2021-10-16T07:41:12.000Z</time>
      </trkpt>
      <trkpt lat="45.19814" lon="5.73382">
        <ele>212</ele>
        <time>2021-10-16T07:41:18.000Z</time>
      </trkpt>
      <trkpt lat="45.19832" lon="5.73385">
        <ele>211.80000305176</ele>
        <time>2021-10-16T07:41:24.000Z</time>
      </trkpt>
      <trkpt lat="45.19846" lon="5.73388">
        <ele>211.80000305176</ele>
        <time>2021-10-16T07:41:29.000Z</time>
      </trkpt>
      <trkpt lat="45.19857" lon="5.73394">
        <ele>212.39999389648</ele>
        <time>2021-10-16T07:41:34.000Z</time>
      </trkpt>
      <trkpt lat="45.19861" lon="5.73397">
        <ele>212</ele>
        <time>2021-10-16T07:41:36.000Z</time>
      </trkpt>
      <trkpt lat="45.19868" lon="5.734">
        <ele>211.80000305176</ele>
        <time>2021-10-16T07:41:39.000Z</time>
      </trkpt>
      <trkpt lat="45.19886" lon="5.73407">
        <ele>212</ele>
        <time>2021-10-16T07:41:45.000Z</time>
      </trkpt>
      <trkpt lat="45.19905" lon="5.7341">
        <ele>212</ele>
        <time>2021-10-16T07:41:51.000Z</time>
      </trkpt>
      <trkpt lat="45.19919" lon="5.73414">
        <ele>211.80000305176</ele>
        <time>2021-10-16T07:41:56.000Z</time>
      </trkpt>
      <trkpt lat="45.19922" lon="5.73414">
        <ele>211.80000305176</ele>
        <time>2021-10-16T07:41:57.000Z</time>
      </trkpt>
      <trkpt lat="45.19941" lon="5.73418">
        <ele>212</ele>
        <time>2021-10-16T07:42:03.000Z</time>
      </trkpt>
      <trkpt lat="45.19948" lon="5.73422">
        <ele>212</ele>
        <time>2021-10-16T07:42:06.000Z</time>
      </trkpt>
      <trkpt lat="45.19957" lon="5.73427">
        <ele>212</ele>
        <time>2021-10-16T07:42:09.000Z</time>
      </trkpt>
      <trkpt lat="45.19971" lon="5.73431">
        <ele>212.19999694824</ele>
        <time>2021-10-16T07:42:14.000Z</time>
      </trkpt>
      <trkpt lat="45.19978" lon="5.73434">
        <ele>212.39999389648</ele>
        <time>2021-10-16T07:42:16.000Z</time>
      </trkpt>
      <trkpt lat="45.19992" lon="5.73443">
        <ele>212.19999694824</ele>
        <time>2021-10-16T07:42:21.000Z</time>
      </trkpt>
      <trkpt lat="45.20007" lon="5.73453">
        <ele>211.80000305176</ele>
        <time>2021-10-16T07:42:26.000Z</time>
      </trkpt>
      <trkpt lat="45.20025" lon="5.73458">
        <ele>211.39999389648</ele>
        <time>2021-10-16T07:42:32.000Z</time>
      </trkpt>
      <trkpt lat="45.20027" lon="5.7346">
        <ele>211.39999389648</ele>
        <time>2021-10-16T07:42:33.000Z</time>
      </trkpt>
      <trkpt lat="45.20033" lon="5.73463">
        <ele>211.39999389648</ele>
        <time>2021-10-16T07:42:35.000Z</time>
      </trkpt>
      <trkpt lat="45.20046" lon="5.73473">
        <ele>212</ele>
        <time>2021-10-16T07:42:40.000Z</time>
      </trkpt>
      <trkpt lat="45.20057" lon="5.73486">
        <ele>212.39999389648</ele>
        <time>2021-10-16T07:42:45.000Z</time>
      </trkpt>
      <trkpt lat="45.20059" lon="5.73489">
        <ele>212.39999389648</ele>
        <time>2021-10-16T07:42:46.000Z</time>
      </trkpt>
      <trkpt lat="45.20062" lon="5.73492">
        <ele>212.60000610352</ele>
        <time>2021-10-16T07:42:47.000Z</time>
      </trkpt>
      <trkpt lat="45.20069" lon="5.73498">
        <ele>212.60000610352</ele>
        <time>2021-10-16T07:42:50.000Z</time>
      </trkpt>
      <trkpt lat="45.20082" lon="5.73506">
        <ele>212.19999694824</ele>
        <time>2021-10-16T07:42:54.000Z</time>
      </trkpt>
      <trkpt lat="45.20092" lon="5.73518">
        <ele>212.60000610352</ele>
        <time>2021-10-16T07:42:58.000Z</time>
      </trkpt>
      <trkpt lat="45.20094" lon="5.73523">
        <ele>212.60000610352</ele>
        <time>2021-10-16T07:42:59.000Z</time>
      </trkpt>
      <trkpt lat="45.201" lon="5.73533">
        <ele>212.60000610352</ele>
        <time>2021-10-16T07:43:02.000Z</time>
      </trkpt>
      <trkpt lat="45.20102" lon="5.73537">
        <ele>212.19999694824</ele>
        <time>2021-10-16T07:43:03.000Z</time>
      </trkpt>
      <trkpt lat="45.20103" lon="5.7354">
        <ele>212.19999694824</ele>
        <time>2021-10-16T07:43:04.000Z</time>
      </trkpt>
      <trkpt lat="45.20106" lon="5.73553">
        <ele>212.19999694824</ele>
        <time>2021-10-16T07:43:08.000Z</time>
      </trkpt>
      <trkpt lat="45.20112" lon="5.73569">
        <ele>212.39999389648</ele>
        <time>2021-10-16T07:43:13.000Z</time>
      </trkpt>
      <trkpt lat="45.20122" lon="5.73582">
        <ele>212.39999389648</ele>
        <time>2021-10-16T07:43:19.000Z</time>
      </trkpt>
      <trkpt lat="45.20124" lon="5.73583">
        <ele>212.60000610352</ele>
        <time>2021-10-16T07:43:20.000Z</time>
      </trkpt>
      <trkpt lat="45.20128" lon="5.73588">
        <ele>212.39999389648</ele>
        <time>2021-10-16T07:43:22.000Z</time>
      </trkpt>
      <trkpt lat="45.20131" lon="5.73605">
        <ele>212.39999389648</ele>
        <time>2021-10-16T07:43:26.000Z</time>
      </trkpt>
      <trkpt lat="45.20138" lon="5.73628">
        <ele>212.60000610352</ele>
        <time>2021-10-16T07:43:31.000Z</time>
      </trkpt>
      <trkpt lat="45.20153" lon="5.73647">
        <ele>212.19999694824</ele>
        <time>2021-10-16T07:43:36.000Z</time>
      </trkpt>
      <trkpt lat="45.20159" lon="5.73666">
        <ele>212.19999694824</ele>
        <time>2021-10-16T07:43:41.000Z</time>
      </trkpt>
      <trkpt lat="45.20163" lon="5.73691">
        <ele>212.39999389648</ele>
        <time>2021-10-16T07:43:47.000Z</time>
      </trkpt>
      <trkpt lat="45.20167" lon="5.73721">
        <ele>212.80000305176</ele>
        <time>2021-10-16T07:43:54.000Z</time>
      </trkpt>
      <trkpt lat="45.20175" lon="5.73748">
        <ele>212.39999389648</ele>
        <time>2021-10-16T07:44:01.000Z</time>
      </trkpt>
      <trkpt lat="45.20175" lon="5.73773">
        <ele>212.39999389648</ele>
        <time>2021-10-16T07:44:07.000Z</time>
      </trkpt>
      <trkpt lat="45.20174" lon="5.73796">
        <ele>212.19999694824</ele>
        <time>2021-10-16T07:44:12.000Z</time>
      </trkpt>
      <trkpt lat="45.20175" lon="5.73822">
        <ele>212.39999389648</ele>
        <time>2021-10-16T07:44:18.000Z</time>
      </trkpt>
      <trkpt lat="45.20177" lon="5.73835">
        <ele>211.19999694824</ele>
        <time>2021-10-16T07:44:23.000Z</time>
      </trkpt>
      <trkpt lat="45.20176" lon="5.73839">
        <ele>211</ele>
        <time>2021-10-16T07:44:25.000Z</time>
      </trkpt>
      <trkpt lat="45.20175" lon="5.73843">
        <ele>210.60000610352</ele>
        <time>2021-10-16T07:44:27.000Z</time>
      </trkpt>
      <trkpt lat="45.20174" lon="5.73846">
        <ele>210.19999694824</ele>
        <time>2021-10-16T07:44:28.000Z</time>
      </trkpt>
      <trkpt lat="45.2017" lon="5.73862">
        <ele>210.19999694824</ele>
        <time>2021-10-16T07:44:33.000Z</time>
      </trkpt>
      <trkpt lat="45.20167" lon="5.73867">
        <ele>210.19999694824</ele>
        <time>2021-10-16T07:44:36.000Z</time>
      </trkpt>
      <trkpt lat="45.20161" lon="5.73879">
        <ele>210.19999694824</ele>
        <time>2021-10-16T07:44:41.000Z</time>
      </trkpt>
      <trkpt lat="45.20148" lon="5.73902">
        <ele>210.60000610352</ele>
        <time>2021-10-16T07:44:47.000Z</time>
      </trkpt>
      <trkpt lat="45.20144" lon="5.73908">
        <ele>210.60000610352</ele>
        <time>2021-10-16T07:44:49.000Z</time>
      </trkpt>
      <trkpt lat="45.20131" lon="5.73927">
        <ele>211</ele>
        <time>2021-10-16T07:44:55.000Z</time>
      </trkpt>
      <trkpt lat="45.2013" lon="5.7393">
        <ele>211</ele>
        <time>2021-10-16T07:44:56.000Z</time>
      </trkpt>
      <trkpt lat="45.20124" lon="5.7394">
        <ele>211</ele>
        <time>2021-10-16T07:45:00.000Z</time>
      </trkpt>
      <trkpt lat="45.20123" lon="5.73943">
        <ele>211</ele>
        <time>2021-10-16T07:45:01.000Z</time>
      </trkpt>
      <trkpt lat="45.20119" lon="5.73952">
        <ele>211</ele>
        <time>2021-10-16T07:45:05.000Z</time>
      </trkpt>
      <trkpt lat="45.20116" lon="5.73956">
        <ele>210.80000305176</ele>
        <time>2021-10-16T07:45:07.000Z</time>
      </trkpt>
      <trkpt lat="45.20102" lon="5.73973">
        <ele>210.19999694824</ele>
        <time>2021-10-16T07:45:13.000Z</time>
      </trkpt>
      <trkpt lat="45.20091" lon="5.73985">
        <ele>210</ele>
        <time>2021-10-16T07:45:19.000Z</time>
      </trkpt>
      <trkpt lat="45.20079" lon="5.73999">
        <ele>210</ele>
        <time>2021-10-16T07:45:25.000Z</time>
      </trkpt>
      <trkpt lat="45.20066" lon="5.74023">
        <ele>209.80000305176</ele>
        <time>2021-10-16T07:45:31.000Z</time>
      </trkpt>
      <trkpt lat="45.20056" lon="5.74037">
        <ele>210.19999694824</ele>
        <time>2021-10-16T07:45:36.000Z</time>
      </trkpt>
      <trkpt lat="45.20047" lon="5.74054">
        <ele>210.39999389648</ele>
        <time>2021-10-16T07:45:43.000Z</time>
      </trkpt>
      <trkpt lat="45.20046" lon="5.74055">
        <ele>210.39999389648</ele>
        <time>2021-10-16T07:45:44.000Z</time>
      </trkpt>
      <trkpt lat="45.20011" lon="5.74104">
        <ele>211</ele>
        <time>2021-10-16T07:45:58.000Z</time>
      </trkpt>
      <trkpt lat="45.20009" lon="5.74105">
        <ele>211.19999694824</ele>
        <time>2021-10-16T07:45:59.000Z</time>
      </trkpt>
      <trkpt lat="45.19995" lon="5.74121">
        <ele>212</ele>
        <time>2021-10-16T07:46:06.000Z</time>
      </trkpt>
      <trkpt lat="45.19986" lon="5.74128">
        <ele>213</ele>
        <time>2021-10-16T07:46:10.000Z</time>
      </trkpt>
      <trkpt lat="45.19977" lon="5.74135">
        <ele>213.39999389648</ele>
        <time>2021-10-16T07:46:13.000Z</time>
      </trkpt>
      <trkpt lat="45.19962" lon="5.7415">
        <ele>213.19999694824</ele>
        <time>2021-10-16T07:46:19.000Z</time>
      </trkpt>
      <trkpt lat="45.1996" lon="5.74152">
        <ele>213.19999694824</ele>
        <time>2021-10-16T07:46:20.000Z</time>
      </trkpt>
      <trkpt lat="45.19947" lon="5.74164">
        <ele>213.19999694824</ele>
        <time>2021-10-16T07:46:25.000Z</time>
      </trkpt>
      <trkpt lat="45.19942" lon="5.74169">
        <ele>213.19999694824</ele>
        <time>2021-10-16T07:46:27.000Z</time>
      </trkpt>
      <trkpt lat="45.19927" lon="5.74181">
        <ele>213.39999389648</ele>
        <time>2021-10-16T07:46:33.000Z</time>
      </trkpt>
      <trkpt lat="45.19921" lon="5.74185">
        <ele>213.19999694824</ele>
        <time>2021-10-16T07:46:35.000Z</time>
      </trkpt>
      <trkpt lat="45.19903" lon="5.74196">
        <ele>213.19999694824</ele>
        <time>2021-10-16T07:46:42.000Z</time>
      </trkpt>
      <trkpt lat="45.19901" lon="5.74198">
        <ele>213.19999694824</ele>
        <time>2021-10-16T07:46:43.000Z</time>
      </trkpt>
      <trkpt lat="45.19882" lon="5.74205">
        <ele>213.60000610352</ele>
        <time>2021-10-16T07:46:50.000Z</time>
      </trkpt>
      <trkpt lat="45.19864" lon="5.74212">
        <ele>213.80000305176</ele>
        <time>2021-10-16T07:46:56.000Z</time>
      </trkpt>
      <trkpt lat="45.19861" lon="5.74214">
        <ele>213.19999694824</ele>
        <time>2021-10-16T07:46:57.000Z</time>
      </trkpt>
      <trkpt lat="45.19841" lon="5.74221">
        <ele>213.39999389648</ele>
        <time>2021-10-16T07:47:04.000Z</time>
      </trkpt>
      <trkpt lat="45.19838" lon="5.74222">
        <ele>213.39999389648</ele>
        <time>2021-10-16T07:47:05.000Z</time>
      </trkpt>
      <trkpt lat="45.19832" lon="5.74224">
        <ele>213.39999389648</ele>
        <time>2021-10-16T07:47:07.000Z</time>
      </trkpt>
      <trkpt lat="45.1982" lon="5.74227">
        <ele>213.60000610352</ele>
        <time>2021-10-16T07:47:11.000Z</time>
      </trkpt>
      <trkpt lat="45.19811" lon="5.74231">
        <ele>213.60000610352</ele>
        <time>2021-10-16T07:47:14.000Z</time>
      </trkpt>
      <trkpt lat="45.19804" lon="5.74232">
        <ele>213.60000610352</ele>
        <time>2021-10-16T07:47:16.000Z</time>
      </trkpt>
      <trkpt lat="45.19786" lon="5.74233">
        <ele>213.60000610352</ele>
        <time>2021-10-16T07:47:22.000Z</time>
      </trkpt>
      <trkpt lat="45.19783" lon="5.74234">
        <ele>213.60000610352</ele>
        <time>2021-10-16T07:47:23.000Z</time>
      </trkpt>
      <trkpt lat="45.19773" lon="5.74235">
        <ele>213.60000610352</ele>
        <time>2021-10-16T07:47:26.000Z</time>
      </trkpt>
      <trkpt lat="45.1977" lon="5.74235">
        <ele>213.60000610352</ele>
        <time>2021-10-16T07:47:27.000Z</time>
      </trkpt>
      <trkpt lat="45.19758" lon="5.74237">
        <ele>213.60000610352</ele>
        <time>2021-10-16T07:47:31.000Z</time>
      </trkpt>
      <trkpt lat="45.19738" lon="5.74241">
        <ele>213</ele>
        <time>2021-10-16T07:47:37.000Z</time>
      </trkpt>
      <trkpt lat="45.19733" lon="5.74241">
        <ele>213</ele>
        <time>2021-10-16T07:47:39.000Z</time>
      </trkpt>
      <trkpt lat="45.19729" lon="5.74237">
        <ele>212.80000305176</ele>
        <time>2021-10-16T07:47:42.000Z</time>
      </trkpt>
      <trkpt lat="45.19728" lon="5.74232">
        <ele>211.80000305176</ele>
        <time>2021-10-16T07:47:44.000Z</time>
      </trkpt>
      <trkpt lat="45.19725" lon="5.74225">
        <ele>211.60000610352</ele>
        <time>2021-10-16T07:47:47.000Z</time>
      </trkpt>
      <trkpt lat="45.19721" lon="5.74203">
        <ele>211.39999389648</ele>
        <time>2021-10-16T07:47:53.000Z</time>
      </trkpt>
      <trkpt lat="45.19719" lon="5.74197">
        <ele>211.39999389648</ele>
        <time>2021-10-16T07:47:55.000Z</time>
      </trkpt>
      <trkpt lat="45.19715" lon="5.74179">
        <ele>211.80000305176</ele>
        <time>2021-10-16T07:48:00.000Z</time>
      </trkpt>
      <trkpt lat="45.19711" lon="5.74151">
        <ele>211.80000305176</ele>
        <time>2021-10-16T07:48:07.000Z</time>
      </trkpt>
      <trkpt lat="45.19707" lon="5.74143">
        <ele>211.80000305176</ele>
        <time>2021-10-16T07:48:10.000Z</time>
      </trkpt>
      <trkpt lat="45.19702" lon="5.74119">
        <ele>211.80000305176</ele>
        <time>2021-10-16T07:48:16.000Z</time>
      </trkpt>
      <trkpt lat="45.19701" lon="5.74111">
        <ele>211.80000305176</ele>
        <time>2021-10-16T07:48:18.000Z</time>
      </trkpt>
      <trkpt lat="45.19699" lon="5.74099">
        <ele>212</ele>
        <time>2021-10-16T07:48:21.000Z</time>
      </trkpt>
      <trkpt lat="45.19694" lon="5.74075">
        <ele>211.80000305176</ele>
        <time>2021-10-16T07:48:27.000Z</time>
      </trkpt>
      <trkpt lat="45.19688" lon="5.74047">
        <ele>211.80000305176</ele>
        <time>2021-10-16T07:48:34.000Z</time>
      </trkpt>
      <trkpt lat="45.19683" lon="5.74021">
        <ele>211.80000305176</ele>
        <time>2021-10-16T07:48:40.000Z</time>
      </trkpt>
      <trkpt lat="45.19681" lon="5.74009">
        <ele>212</ele>
        <time>2021-10-16T07:48:43.000Z</time>
      </trkpt>
      <trkpt lat="45.19674" lon="5.74003">
        <ele>211.80000305176</ele>
        <time>2021-10-16T07:48:48.000Z</time>
      </trkpt>
      <trkpt lat="45.19661" lon="5.74">
        <ele>211.60000610352</ele>
        <time>2021-10-16T07:48:54.000Z</time>
      </trkpt>
      <trkpt lat="45.1964" lon="5.74004">
        <ele>211.39999389648</ele>
        <time>2021-10-16T07:49:00.000Z</time>
      </trkpt>
      <trkpt lat="45.19637" lon="5.74005">
        <ele>211.39999389648</ele>
        <time>2021-10-16T07:49:01.000Z</time>
      </trkpt>
      <trkpt lat="45.19625" lon="5.74001">
        <ele>211.60000610352</ele>
        <time>2021-10-16T07:49:06.000Z</time>
      </trkpt>
      <trkpt lat="45.19615" lon="5.73991">
        <ele>211.80000305176</ele>
        <time>2021-10-16T07:49:10.000Z</time>
      </trkpt>
      <trkpt lat="45.19613" lon="5.73978">
        <ele>212</ele>
        <time>2021-10-16T07:49:12.000Z</time>
      </trkpt>
      <trkpt lat="45.19617" lon="5.73961">
        <ele>212</ele>
        <time>2021-10-16T07:49:18.000Z</time>
      </trkpt>
      <trkpt lat="45.19628" lon="5.73956">
        <ele>211.80000305176</ele>
        <time>2021-10-16T07:49:23.000Z</time>
      </trkpt>
      <trkpt lat="45.19708" lon="5.7396">
        <ele>220</ele>
        <time>2021-10-16T07:50:21.000Z</time>
      </trkpt>
    </trkseg>
  </trk>
</gpx>